<?xml version="1.0" encoding="UTF-8" standalone="no" ?>
<gpx xmlns="http://www.topografix.com/GPX/1/1" xmlns:xsi="http://www.w3.org/2001/XMLSchema-instance" xsi:schemaLocation="http://www.topografix.com/GPX/1/1 http://www.topografix.com/GPX/1/1/gpx.xsd" version="1.1" creator="VisuGPX - https://www.visugpx.com">
  <metadata>
    <name>Ferrals les montagnes </name>
  </metadata>
  <trk>
    <name><![CDATA[Ferrals les montagnes ]]></name>
    <trkseg>
      <trkpt lat="43.42172" lon="2.62746">
        <ele>686.8</ele>
        <time>2022-06-21T07:00:15Z</time>
      </trkpt>
      <trkpt lat="43.42172" lon="2.62746">
        <ele>686.8</ele>
        <time>2022-06-21T07:00:16Z</time>
      </trkpt>
      <trkpt lat="43.42172" lon="2.62746">
        <ele>686.8</ele>
        <time>2022-06-21T07:00:17Z</time>
      </trkpt>
      <trkpt lat="43.42172" lon="2.62746">
        <ele>686.8</ele>
        <time>2022-06-21T07:00:18Z</time>
      </trkpt>
      <trkpt lat="43.42172" lon="2.62746">
        <ele>686.8</ele>
        <time>2022-06-21T07:00:19Z</time>
      </trkpt>
      <trkpt lat="43.42172" lon="2.62746">
        <ele>686.8</ele>
        <time>2022-06-21T07:00:20Z</time>
      </trkpt>
      <trkpt lat="43.42172" lon="2.62746">
        <ele>686.8</ele>
        <time>2022-06-21T07:00:21Z</time>
      </trkpt>
      <trkpt lat="43.42172" lon="2.62746">
        <ele>686.8</ele>
        <time>2022-06-21T07:00:22Z</time>
      </trkpt>
      <trkpt lat="43.42172" lon="2.62746">
        <ele>686.8</ele>
        <time>2022-06-21T07:00:23Z</time>
      </trkpt>
      <trkpt lat="43.42172" lon="2.62746">
        <ele>686.8</ele>
        <time>2022-06-21T07:00:24Z</time>
      </trkpt>
      <trkpt lat="43.42172" lon="2.62746">
        <ele>686.8</ele>
        <time>2022-06-21T07:00:25Z</time>
      </trkpt>
      <trkpt lat="43.42172" lon="2.62746">
        <ele>686.9</ele>
        <time>2022-06-21T07:00:26Z</time>
      </trkpt>
      <trkpt lat="43.42173" lon="2.62747">
        <ele>686.9</ele>
        <time>2022-06-21T07:00:27Z</time>
      </trkpt>
      <trkpt lat="43.42173" lon="2.62747">
        <ele>686.9</ele>
        <time>2022-06-21T07:00:28Z</time>
      </trkpt>
      <trkpt lat="43.42173" lon="2.62748">
        <ele>686.9</ele>
        <time>2022-06-21T07:00:29Z</time>
      </trkpt>
      <trkpt lat="43.42174" lon="2.62748">
        <ele>686.9</ele>
        <time>2022-06-21T07:00:30Z</time>
      </trkpt>
      <trkpt lat="43.42174" lon="2.62748">
        <ele>686.9</ele>
        <time>2022-06-21T07:00:31Z</time>
      </trkpt>
      <trkpt lat="43.42174" lon="2.62748">
        <ele>686.9</ele>
        <time>2022-06-21T07:00:32Z</time>
      </trkpt>
      <trkpt lat="43.42174" lon="2.62748">
        <ele>686.9</ele>
        <time>2022-06-21T07:00:33Z</time>
      </trkpt>
      <trkpt lat="43.42174" lon="2.62748">
        <ele>686.9</ele>
        <time>2022-06-21T07:00:34Z</time>
      </trkpt>
      <trkpt lat="43.42174" lon="2.62748">
        <ele>686.9</ele>
        <time>2022-06-21T07:00:35Z</time>
      </trkpt>
      <trkpt lat="43.42174" lon="2.62748">
        <ele>686.9</ele>
        <time>2022-06-21T07:00:36Z</time>
      </trkpt>
      <trkpt lat="43.42174" lon="2.62748">
        <ele>686.9</ele>
        <time>2022-06-21T07:00:37Z</time>
      </trkpt>
      <trkpt lat="43.42174" lon="2.62748">
        <ele>686.9</ele>
        <time>2022-06-21T07:00:38Z</time>
      </trkpt>
      <trkpt lat="43.42174" lon="2.62748">
        <ele>686.9</ele>
        <time>2022-06-21T07:00:39Z</time>
      </trkpt>
      <trkpt lat="43.42174" lon="2.62748">
        <ele>686.9</ele>
        <time>2022-06-21T07:00:40Z</time>
      </trkpt>
      <trkpt lat="43.42174" lon="2.62748">
        <ele>686.9</ele>
        <time>2022-06-21T07:00:41Z</time>
      </trkpt>
      <trkpt lat="43.42174" lon="2.62748">
        <ele>686.9</ele>
        <time>2022-06-21T07:00:42Z</time>
      </trkpt>
      <trkpt lat="43.42174" lon="2.62748">
        <ele>686.9</ele>
        <time>2022-06-21T07:00:43Z</time>
      </trkpt>
      <trkpt lat="43.42174" lon="2.62748">
        <ele>686.9</ele>
        <time>2022-06-21T07:00:44Z</time>
      </trkpt>
      <trkpt lat="43.42174" lon="2.62748">
        <ele>686.9</ele>
        <time>2022-06-21T07:00:45Z</time>
      </trkpt>
      <trkpt lat="43.42174" lon="2.62748">
        <ele>686.9</ele>
        <time>2022-06-21T07:00:46Z</time>
      </trkpt>
      <trkpt lat="43.42174" lon="2.62748">
        <ele>686.9</ele>
        <time>2022-06-21T07:00:47Z</time>
      </trkpt>
      <trkpt lat="43.42174" lon="2.62748">
        <ele>686.9</ele>
        <time>2022-06-21T07:00:48Z</time>
      </trkpt>
      <trkpt lat="43.42174" lon="2.62748">
        <ele>686.9</ele>
        <time>2022-06-21T07:00:49Z</time>
      </trkpt>
      <trkpt lat="43.42174" lon="2.62748">
        <ele>686.9</ele>
        <time>2022-06-21T07:00:50Z</time>
      </trkpt>
      <trkpt lat="43.42174" lon="2.62748">
        <ele>686.9</ele>
        <time>2022-06-21T07:00:51Z</time>
      </trkpt>
      <trkpt lat="43.42174" lon="2.62748">
        <ele>686.9</ele>
        <time>2022-06-21T07:00:52Z</time>
      </trkpt>
      <trkpt lat="43.42174" lon="2.62748">
        <ele>686.9</ele>
        <time>2022-06-21T07:00:53Z</time>
      </trkpt>
      <trkpt lat="43.42174" lon="2.62748">
        <ele>686.9</ele>
        <time>2022-06-21T07:00:54Z</time>
      </trkpt>
      <trkpt lat="43.42174" lon="2.62748">
        <ele>686.9</ele>
        <time>2022-06-21T07:00:55Z</time>
      </trkpt>
      <trkpt lat="43.42174" lon="2.62748">
        <ele>686.9</ele>
        <time>2022-06-21T07:00:56Z</time>
      </trkpt>
      <trkpt lat="43.42174" lon="2.62748">
        <ele>686.9</ele>
        <time>2022-06-21T07:00:57Z</time>
      </trkpt>
      <trkpt lat="43.42174" lon="2.62748">
        <ele>686.9</ele>
        <time>2022-06-21T07:00:58Z</time>
      </trkpt>
      <trkpt lat="43.42174" lon="2.62748">
        <ele>686.9</ele>
        <time>2022-06-21T07:00:59Z</time>
      </trkpt>
      <trkpt lat="43.42174" lon="2.62748">
        <ele>686.9</ele>
        <time>2022-06-21T07:01:00Z</time>
      </trkpt>
      <trkpt lat="43.42174" lon="2.62748">
        <ele>686.9</ele>
        <time>2022-06-21T07:01:01Z</time>
      </trkpt>
      <trkpt lat="43.42174" lon="2.62748">
        <ele>686.9</ele>
        <time>2022-06-21T07:01:02Z</time>
      </trkpt>
      <trkpt lat="43.42174" lon="2.62748">
        <ele>686.9</ele>
        <time>2022-06-21T07:01:03Z</time>
      </trkpt>
      <trkpt lat="43.42174" lon="2.62748">
        <ele>686.9</ele>
        <time>2022-06-21T07:01:04Z</time>
      </trkpt>
      <trkpt lat="43.42174" lon="2.62748">
        <ele>686.9</ele>
        <time>2022-06-21T07:01:05Z</time>
      </trkpt>
      <trkpt lat="43.42174" lon="2.62748">
        <ele>686.9</ele>
        <time>2022-06-21T07:01:06Z</time>
      </trkpt>
      <trkpt lat="43.42174" lon="2.62748">
        <ele>686.9</ele>
        <time>2022-06-21T07:01:07Z</time>
      </trkpt>
      <trkpt lat="43.42174" lon="2.62748">
        <ele>686.9</ele>
        <time>2022-06-21T07:01:08Z</time>
      </trkpt>
      <trkpt lat="43.42174" lon="2.62748">
        <ele>686.9</ele>
        <time>2022-06-21T07:01:09Z</time>
      </trkpt>
      <trkpt lat="43.42174" lon="2.62748">
        <ele>686.9</ele>
        <time>2022-06-21T07:01:10Z</time>
      </trkpt>
      <trkpt lat="43.42174" lon="2.62748">
        <ele>686.9</ele>
        <time>2022-06-21T07:01:11Z</time>
      </trkpt>
      <trkpt lat="43.42174" lon="2.62748">
        <ele>686.9</ele>
        <time>2022-06-21T07:01:12Z</time>
      </trkpt>
      <trkpt lat="43.42174" lon="2.62748">
        <ele>686.9</ele>
        <time>2022-06-21T07:01:13Z</time>
      </trkpt>
      <trkpt lat="43.42174" lon="2.62748">
        <ele>686.9</ele>
        <time>2022-06-21T07:01:14Z</time>
      </trkpt>
      <trkpt lat="43.42174" lon="2.62748">
        <ele>686.9</ele>
        <time>2022-06-21T07:01:15Z</time>
      </trkpt>
      <trkpt lat="43.42174" lon="2.62748">
        <ele>686.9</ele>
        <time>2022-06-21T07:01:16Z</time>
      </trkpt>
      <trkpt lat="43.42174" lon="2.62748">
        <ele>686.9</ele>
        <time>2022-06-21T07:01:17Z</time>
      </trkpt>
      <trkpt lat="43.42174" lon="2.62748">
        <ele>686.9</ele>
        <time>2022-06-21T07:01:18Z</time>
      </trkpt>
      <trkpt lat="43.42174" lon="2.62748">
        <ele>686.9</ele>
        <time>2022-06-21T07:01:19Z</time>
      </trkpt>
      <trkpt lat="43.42174" lon="2.62748">
        <ele>686.9</ele>
        <time>2022-06-21T07:01:20Z</time>
      </trkpt>
      <trkpt lat="43.42174" lon="2.62748">
        <ele>686.9</ele>
        <time>2022-06-21T07:01:21Z</time>
      </trkpt>
      <trkpt lat="43.42174" lon="2.62748">
        <ele>686.9</ele>
        <time>2022-06-21T07:01:22Z</time>
      </trkpt>
      <trkpt lat="43.42174" lon="2.62748">
        <ele>686.9</ele>
        <time>2022-06-21T07:01:23Z</time>
      </trkpt>
      <trkpt lat="43.42174" lon="2.62748">
        <ele>686.9</ele>
        <time>2022-06-21T07:01:24Z</time>
      </trkpt>
      <trkpt lat="43.42174" lon="2.62748">
        <ele>686.9</ele>
        <time>2022-06-21T07:01:25Z</time>
      </trkpt>
      <trkpt lat="43.42174" lon="2.62748">
        <ele>686.9</ele>
        <time>2022-06-21T07:01:26Z</time>
      </trkpt>
      <trkpt lat="43.42174" lon="2.62748">
        <ele>686.9</ele>
        <time>2022-06-21T07:01:27Z</time>
      </trkpt>
      <trkpt lat="43.42174" lon="2.62748">
        <ele>686.9</ele>
        <time>2022-06-21T07:01:28Z</time>
      </trkpt>
      <trkpt lat="43.42174" lon="2.62748">
        <ele>686.9</ele>
        <time>2022-06-21T07:01:29Z</time>
      </trkpt>
      <trkpt lat="43.42174" lon="2.62748">
        <ele>686.9</ele>
        <time>2022-06-21T07:01:30Z</time>
      </trkpt>
      <trkpt lat="43.42174" lon="2.62748">
        <ele>686.9</ele>
        <time>2022-06-21T07:01:31Z</time>
      </trkpt>
      <trkpt lat="43.42174" lon="2.62748">
        <ele>686.9</ele>
        <time>2022-06-21T07:01:32Z</time>
      </trkpt>
      <trkpt lat="43.42174" lon="2.62748">
        <ele>686.9</ele>
        <time>2022-06-21T07:01:33Z</time>
      </trkpt>
      <trkpt lat="43.42174" lon="2.62748">
        <ele>686.9</ele>
        <time>2022-06-21T07:01:34Z</time>
      </trkpt>
      <trkpt lat="43.42174" lon="2.62748">
        <ele>686.9</ele>
        <time>2022-06-21T07:01:35Z</time>
      </trkpt>
      <trkpt lat="43.42174" lon="2.62748">
        <ele>686.9</ele>
        <time>2022-06-21T07:01:36Z</time>
      </trkpt>
      <trkpt lat="43.42174" lon="2.62748">
        <ele>686.9</ele>
        <time>2022-06-21T07:01:37Z</time>
      </trkpt>
      <trkpt lat="43.42174" lon="2.62748">
        <ele>686.9</ele>
        <time>2022-06-21T07:01:38Z</time>
      </trkpt>
      <trkpt lat="43.42174" lon="2.62748">
        <ele>686.9</ele>
        <time>2022-06-21T07:01:39Z</time>
      </trkpt>
      <trkpt lat="43.42174" lon="2.62748">
        <ele>686.9</ele>
        <time>2022-06-21T07:01:40Z</time>
      </trkpt>
      <trkpt lat="43.42174" lon="2.62748">
        <ele>686.9</ele>
        <time>2022-06-21T07:01:41Z</time>
      </trkpt>
      <trkpt lat="43.42174" lon="2.62748">
        <ele>686.9</ele>
        <time>2022-06-21T07:01:42Z</time>
      </trkpt>
      <trkpt lat="43.42174" lon="2.62748">
        <ele>686.9</ele>
        <time>2022-06-21T07:01:43Z</time>
      </trkpt>
      <trkpt lat="43.42174" lon="2.62748">
        <ele>686.9</ele>
        <time>2022-06-21T07:01:44Z</time>
      </trkpt>
      <trkpt lat="43.42174" lon="2.62748">
        <ele>686.9</ele>
        <time>2022-06-21T07:01:45Z</time>
      </trkpt>
      <trkpt lat="43.42174" lon="2.62748">
        <ele>686.9</ele>
        <time>2022-06-21T07:01:46Z</time>
      </trkpt>
      <trkpt lat="43.42174" lon="2.62748">
        <ele>686.9</ele>
        <time>2022-06-21T07:01:47Z</time>
      </trkpt>
      <trkpt lat="43.42174" lon="2.62748">
        <ele>686.9</ele>
        <time>2022-06-21T07:01:48Z</time>
      </trkpt>
      <trkpt lat="43.42174" lon="2.62748">
        <ele>686.9</ele>
        <time>2022-06-21T07:01:49Z</time>
      </trkpt>
      <trkpt lat="43.42174" lon="2.62748">
        <ele>686.9</ele>
        <time>2022-06-21T07:01:50Z</time>
      </trkpt>
      <trkpt lat="43.42174" lon="2.62748">
        <ele>686.9</ele>
        <time>2022-06-21T07:01:51Z</time>
      </trkpt>
      <trkpt lat="43.42174" lon="2.62748">
        <ele>686.9</ele>
        <time>2022-06-21T07:01:52Z</time>
      </trkpt>
      <trkpt lat="43.42174" lon="2.62748">
        <ele>686.9</ele>
        <time>2022-06-21T07:01:53Z</time>
      </trkpt>
      <trkpt lat="43.42174" lon="2.62748">
        <ele>686.9</ele>
        <time>2022-06-21T07:01:54Z</time>
      </trkpt>
      <trkpt lat="43.42174" lon="2.62748">
        <ele>686.9</ele>
        <time>2022-06-21T07:01:55Z</time>
      </trkpt>
      <trkpt lat="43.42174" lon="2.62748">
        <ele>686.9</ele>
        <time>2022-06-21T07:01:56Z</time>
      </trkpt>
      <trkpt lat="43.42174" lon="2.62748">
        <ele>686.9</ele>
        <time>2022-06-21T07:01:57Z</time>
      </trkpt>
      <trkpt lat="43.42174" lon="2.62748">
        <ele>686.9</ele>
        <time>2022-06-21T07:01:58Z</time>
      </trkpt>
      <trkpt lat="43.42174" lon="2.62748">
        <ele>686.9</ele>
        <time>2022-06-21T07:01:59Z</time>
      </trkpt>
      <trkpt lat="43.42174" lon="2.62748">
        <ele>686.9</ele>
        <time>2022-06-21T07:02:00Z</time>
      </trkpt>
      <trkpt lat="43.42174" lon="2.62748">
        <ele>686.9</ele>
        <time>2022-06-21T07:02:01Z</time>
      </trkpt>
      <trkpt lat="43.42174" lon="2.62749">
        <ele>686.9</ele>
        <time>2022-06-21T07:02:02Z</time>
      </trkpt>
      <trkpt lat="43.42173" lon="2.62749">
        <ele>686.9</ele>
        <time>2022-06-21T07:02:03Z</time>
      </trkpt>
      <trkpt lat="43.42173" lon="2.62749">
        <ele>686.9</ele>
        <time>2022-06-21T07:02:04Z</time>
      </trkpt>
      <trkpt lat="43.42173" lon="2.62749">
        <ele>686.9</ele>
        <time>2022-06-21T07:02:05Z</time>
      </trkpt>
      <trkpt lat="43.42173" lon="2.62749">
        <ele>686.9</ele>
        <time>2022-06-21T07:02:06Z</time>
      </trkpt>
      <trkpt lat="43.42173" lon="2.62749">
        <ele>686.9</ele>
        <time>2022-06-21T07:02:07Z</time>
      </trkpt>
      <trkpt lat="43.42173" lon="2.62749">
        <ele>686.9</ele>
        <time>2022-06-21T07:02:08Z</time>
      </trkpt>
      <trkpt lat="43.42173" lon="2.62749">
        <ele>686.9</ele>
        <time>2022-06-21T07:02:09Z</time>
      </trkpt>
      <trkpt lat="43.42173" lon="2.62749">
        <ele>686.9</ele>
        <time>2022-06-21T07:02:10Z</time>
      </trkpt>
      <trkpt lat="43.42173" lon="2.62749">
        <ele>686.9</ele>
        <time>2022-06-21T07:02:11Z</time>
      </trkpt>
      <trkpt lat="43.42173" lon="2.62749">
        <ele>686.9</ele>
        <time>2022-06-21T07:02:12Z</time>
      </trkpt>
      <trkpt lat="43.42173" lon="2.62749">
        <ele>686.9</ele>
        <time>2022-06-21T07:02:13Z</time>
      </trkpt>
      <trkpt lat="43.42173" lon="2.62749">
        <ele>686.9</ele>
        <time>2022-06-21T07:02:14Z</time>
      </trkpt>
      <trkpt lat="43.42173" lon="2.62749">
        <ele>686.9</ele>
        <time>2022-06-21T07:02:15Z</time>
      </trkpt>
      <trkpt lat="43.42173" lon="2.62749">
        <ele>686.9</ele>
        <time>2022-06-21T07:02:16Z</time>
      </trkpt>
      <trkpt lat="43.42173" lon="2.62749">
        <ele>686.9</ele>
        <time>2022-06-21T07:02:17Z</time>
      </trkpt>
      <trkpt lat="43.42173" lon="2.62749">
        <ele>686.9</ele>
        <time>2022-06-21T07:02:18Z</time>
      </trkpt>
      <trkpt lat="43.42173" lon="2.62749">
        <ele>686.9</ele>
        <time>2022-06-21T07:02:19Z</time>
      </trkpt>
      <trkpt lat="43.42173" lon="2.62749">
        <ele>686.9</ele>
        <time>2022-06-21T07:02:20Z</time>
      </trkpt>
      <trkpt lat="43.42174" lon="2.62749">
        <ele>686.9</ele>
        <time>2022-06-21T07:02:21Z</time>
      </trkpt>
      <trkpt lat="43.42174" lon="2.62749">
        <ele>686.9</ele>
        <time>2022-06-21T07:02:22Z</time>
      </trkpt>
      <trkpt lat="43.42175" lon="2.62749">
        <ele>686.9</ele>
        <time>2022-06-21T07:02:23Z</time>
      </trkpt>
      <trkpt lat="43.42175" lon="2.62749">
        <ele>686.9</ele>
        <time>2022-06-21T07:02:24Z</time>
      </trkpt>
      <trkpt lat="43.42175" lon="2.62749">
        <ele>686.9</ele>
        <time>2022-06-21T07:02:25Z</time>
      </trkpt>
      <trkpt lat="43.42175" lon="2.62749">
        <ele>686.9</ele>
        <time>2022-06-21T07:02:26Z</time>
      </trkpt>
      <trkpt lat="43.42175" lon="2.62749">
        <ele>686.9</ele>
        <time>2022-06-21T07:02:27Z</time>
      </trkpt>
      <trkpt lat="43.42175" lon="2.62749">
        <ele>686.9</ele>
        <time>2022-06-21T07:02:28Z</time>
      </trkpt>
      <trkpt lat="43.42175" lon="2.62749">
        <ele>686.9</ele>
        <time>2022-06-21T07:02:29Z</time>
      </trkpt>
      <trkpt lat="43.42175" lon="2.62749">
        <ele>686.9</ele>
        <time>2022-06-21T07:02:30Z</time>
      </trkpt>
      <trkpt lat="43.42175" lon="2.62749">
        <ele>686.9</ele>
        <time>2022-06-21T07:02:31Z</time>
      </trkpt>
      <trkpt lat="43.42175" lon="2.62749">
        <ele>686.9</ele>
        <time>2022-06-21T07:02:32Z</time>
      </trkpt>
      <trkpt lat="43.42175" lon="2.62749">
        <ele>686.9</ele>
        <time>2022-06-21T07:02:33Z</time>
      </trkpt>
      <trkpt lat="43.42175" lon="2.62749">
        <ele>686.9</ele>
        <time>2022-06-21T07:02:34Z</time>
      </trkpt>
      <trkpt lat="43.42175" lon="2.62749">
        <ele>686.9</ele>
        <time>2022-06-21T07:02:35Z</time>
      </trkpt>
      <trkpt lat="43.42175" lon="2.62749">
        <ele>686.9</ele>
        <time>2022-06-21T07:02:36Z</time>
      </trkpt>
      <trkpt lat="43.42175" lon="2.62749">
        <ele>686.9</ele>
        <time>2022-06-21T07:02:37Z</time>
      </trkpt>
      <trkpt lat="43.42175" lon="2.62749">
        <ele>686.9</ele>
        <time>2022-06-21T07:02:38Z</time>
      </trkpt>
      <trkpt lat="43.42175" lon="2.62749">
        <ele>686.9</ele>
        <time>2022-06-21T07:02:39Z</time>
      </trkpt>
      <trkpt lat="43.42175" lon="2.62749">
        <ele>686.9</ele>
        <time>2022-06-21T07:02:40Z</time>
      </trkpt>
      <trkpt lat="43.42175" lon="2.62749">
        <ele>686.9</ele>
        <time>2022-06-21T07:02:41Z</time>
      </trkpt>
      <trkpt lat="43.42175" lon="2.62749">
        <ele>686.9</ele>
        <time>2022-06-21T07:02:42Z</time>
      </trkpt>
      <trkpt lat="43.42175" lon="2.62749">
        <ele>686.9</ele>
        <time>2022-06-21T07:02:43Z</time>
      </trkpt>
      <trkpt lat="43.42175" lon="2.62749">
        <ele>686.9</ele>
        <time>2022-06-21T07:02:44Z</time>
      </trkpt>
      <trkpt lat="43.42175" lon="2.62749">
        <ele>686.9</ele>
        <time>2022-06-21T07:02:45Z</time>
      </trkpt>
      <trkpt lat="43.42175" lon="2.62749">
        <ele>686.9</ele>
        <time>2022-06-21T07:02:46Z</time>
      </trkpt>
      <trkpt lat="43.42175" lon="2.62749">
        <ele>686.9</ele>
        <time>2022-06-21T07:02:47Z</time>
      </trkpt>
      <trkpt lat="43.42175" lon="2.62749">
        <ele>686.9</ele>
        <time>2022-06-21T07:02:48Z</time>
      </trkpt>
      <trkpt lat="43.42175" lon="2.62749">
        <ele>686.9</ele>
        <time>2022-06-21T07:02:49Z</time>
      </trkpt>
      <trkpt lat="43.42175" lon="2.62749">
        <ele>686.9</ele>
        <time>2022-06-21T07:02:50Z</time>
      </trkpt>
      <trkpt lat="43.42175" lon="2.62749">
        <ele>686.9</ele>
        <time>2022-06-21T07:02:51Z</time>
      </trkpt>
      <trkpt lat="43.42175" lon="2.62749">
        <ele>686.9</ele>
        <time>2022-06-21T07:02:52Z</time>
      </trkpt>
      <trkpt lat="43.42175" lon="2.62749">
        <ele>686.9</ele>
        <time>2022-06-21T07:02:53Z</time>
      </trkpt>
      <trkpt lat="43.42175" lon="2.62749">
        <ele>686.9</ele>
        <time>2022-06-21T07:02:54Z</time>
      </trkpt>
      <trkpt lat="43.42175" lon="2.62749">
        <ele>686.9</ele>
        <time>2022-06-21T07:02:55Z</time>
      </trkpt>
      <trkpt lat="43.42175" lon="2.62749">
        <ele>686.9</ele>
        <time>2022-06-21T07:02:56Z</time>
      </trkpt>
      <trkpt lat="43.42175" lon="2.62749">
        <ele>686.9</ele>
        <time>2022-06-21T07:02:57Z</time>
      </trkpt>
      <trkpt lat="43.42175" lon="2.62749">
        <ele>686.9</ele>
        <time>2022-06-21T07:02:58Z</time>
      </trkpt>
      <trkpt lat="43.42175" lon="2.62749">
        <ele>686.9</ele>
        <time>2022-06-21T07:02:59Z</time>
      </trkpt>
      <trkpt lat="43.42176" lon="2.62748">
        <ele>687</ele>
        <time>2022-06-21T07:03:00Z</time>
      </trkpt>
      <trkpt lat="43.42176" lon="2.62748">
        <ele>687</ele>
        <time>2022-06-21T07:03:01Z</time>
      </trkpt>
      <trkpt lat="43.42176" lon="2.62748">
        <ele>687</ele>
        <time>2022-06-21T07:03:02Z</time>
      </trkpt>
      <trkpt lat="43.42176" lon="2.62748">
        <ele>687</ele>
        <time>2022-06-21T07:03:03Z</time>
      </trkpt>
      <trkpt lat="43.42176" lon="2.62748">
        <ele>687</ele>
        <time>2022-06-21T07:03:04Z</time>
      </trkpt>
      <trkpt lat="43.42176" lon="2.62748">
        <ele>687</ele>
        <time>2022-06-21T07:03:05Z</time>
      </trkpt>
      <trkpt lat="43.42176" lon="2.62748">
        <ele>687</ele>
        <time>2022-06-21T07:03:06Z</time>
      </trkpt>
      <trkpt lat="43.42176" lon="2.62748">
        <ele>687</ele>
        <time>2022-06-21T07:03:07Z</time>
      </trkpt>
      <trkpt lat="43.42176" lon="2.62748">
        <ele>687</ele>
        <time>2022-06-21T07:03:08Z</time>
      </trkpt>
      <trkpt lat="43.42176" lon="2.62748">
        <ele>687</ele>
        <time>2022-06-21T07:03:09Z</time>
      </trkpt>
      <trkpt lat="43.42176" lon="2.62748">
        <ele>687</ele>
        <time>2022-06-21T07:03:10Z</time>
      </trkpt>
      <trkpt lat="43.42176" lon="2.62748">
        <ele>687</ele>
        <time>2022-06-21T07:03:11Z</time>
      </trkpt>
      <trkpt lat="43.42176" lon="2.62748">
        <ele>687</ele>
        <time>2022-06-21T07:03:12Z</time>
      </trkpt>
      <trkpt lat="43.42176" lon="2.62748">
        <ele>687</ele>
        <time>2022-06-21T07:03:13Z</time>
      </trkpt>
      <trkpt lat="43.42176" lon="2.62748">
        <ele>687</ele>
        <time>2022-06-21T07:03:14Z</time>
      </trkpt>
      <trkpt lat="43.42176" lon="2.62748">
        <ele>687</ele>
        <time>2022-06-21T07:03:15Z</time>
      </trkpt>
      <trkpt lat="43.42176" lon="2.62748">
        <ele>687</ele>
        <time>2022-06-21T07:03:16Z</time>
      </trkpt>
      <trkpt lat="43.42176" lon="2.62748">
        <ele>687</ele>
        <time>2022-06-21T07:03:17Z</time>
      </trkpt>
      <trkpt lat="43.42176" lon="2.62748">
        <ele>687</ele>
        <time>2022-06-21T07:03:18Z</time>
      </trkpt>
      <trkpt lat="43.42176" lon="2.62748">
        <ele>687</ele>
        <time>2022-06-21T07:03:19Z</time>
      </trkpt>
      <trkpt lat="43.42176" lon="2.62748">
        <ele>687</ele>
        <time>2022-06-21T07:03:20Z</time>
      </trkpt>
      <trkpt lat="43.42176" lon="2.62748">
        <ele>687</ele>
        <time>2022-06-21T07:03:21Z</time>
      </trkpt>
      <trkpt lat="43.42176" lon="2.62748">
        <ele>687</ele>
        <time>2022-06-21T07:03:22Z</time>
      </trkpt>
      <trkpt lat="43.42176" lon="2.62748">
        <ele>687</ele>
        <time>2022-06-21T07:03:23Z</time>
      </trkpt>
      <trkpt lat="43.42176" lon="2.62748">
        <ele>687</ele>
        <time>2022-06-21T07:03:24Z</time>
      </trkpt>
      <trkpt lat="43.42176" lon="2.62748">
        <ele>687</ele>
        <time>2022-06-21T07:03:25Z</time>
      </trkpt>
      <trkpt lat="43.42176" lon="2.62748">
        <ele>687</ele>
        <time>2022-06-21T07:03:26Z</time>
      </trkpt>
      <trkpt lat="43.42176" lon="2.62748">
        <ele>687</ele>
        <time>2022-06-21T07:03:27Z</time>
      </trkpt>
      <trkpt lat="43.42176" lon="2.62748">
        <ele>687</ele>
        <time>2022-06-21T07:03:28Z</time>
      </trkpt>
      <trkpt lat="43.42176" lon="2.62748">
        <ele>687</ele>
        <time>2022-06-21T07:03:29Z</time>
      </trkpt>
      <trkpt lat="43.42176" lon="2.62748">
        <ele>687</ele>
        <time>2022-06-21T07:03:30Z</time>
      </trkpt>
      <trkpt lat="43.42176" lon="2.62748">
        <ele>687</ele>
        <time>2022-06-21T07:03:31Z</time>
      </trkpt>
      <trkpt lat="43.42176" lon="2.62748">
        <ele>687</ele>
        <time>2022-06-21T07:03:32Z</time>
      </trkpt>
      <trkpt lat="43.42176" lon="2.62748">
        <ele>687</ele>
        <time>2022-06-21T07:03:33Z</time>
      </trkpt>
      <trkpt lat="43.42176" lon="2.62748">
        <ele>687</ele>
        <time>2022-06-21T07:03:34Z</time>
      </trkpt>
      <trkpt lat="43.42176" lon="2.62748">
        <ele>687</ele>
        <time>2022-06-21T07:03:35Z</time>
      </trkpt>
      <trkpt lat="43.42176" lon="2.62748">
        <ele>687</ele>
        <time>2022-06-21T07:03:36Z</time>
      </trkpt>
      <trkpt lat="43.42176" lon="2.62748">
        <ele>687</ele>
        <time>2022-06-21T07:03:37Z</time>
      </trkpt>
      <trkpt lat="43.42176" lon="2.62748">
        <ele>687</ele>
        <time>2022-06-21T07:03:38Z</time>
      </trkpt>
      <trkpt lat="43.42176" lon="2.62748">
        <ele>687</ele>
        <time>2022-06-21T07:03:39Z</time>
      </trkpt>
      <trkpt lat="43.42176" lon="2.62748">
        <ele>687</ele>
        <time>2022-06-21T07:03:40Z</time>
      </trkpt>
      <trkpt lat="43.42176" lon="2.62748">
        <ele>687</ele>
        <time>2022-06-21T07:03:41Z</time>
      </trkpt>
      <trkpt lat="43.42176" lon="2.62748">
        <ele>687</ele>
        <time>2022-06-21T07:03:42Z</time>
      </trkpt>
      <trkpt lat="43.42176" lon="2.62748">
        <ele>687</ele>
        <time>2022-06-21T07:03:43Z</time>
      </trkpt>
      <trkpt lat="43.42176" lon="2.62748">
        <ele>687</ele>
        <time>2022-06-21T07:03:44Z</time>
      </trkpt>
      <trkpt lat="43.42176" lon="2.62748">
        <ele>687</ele>
        <time>2022-06-21T07:03:45Z</time>
      </trkpt>
      <trkpt lat="43.42177" lon="2.62747">
        <ele>687</ele>
        <time>2022-06-21T07:03:46Z</time>
      </trkpt>
      <trkpt lat="43.42177" lon="2.62748">
        <ele>687</ele>
        <time>2022-06-21T07:03:47Z</time>
      </trkpt>
      <trkpt lat="43.42177" lon="2.62748">
        <ele>687</ele>
        <time>2022-06-21T07:03:48Z</time>
      </trkpt>
      <trkpt lat="43.42177" lon="2.62749">
        <ele>687</ele>
        <time>2022-06-21T07:03:49Z</time>
      </trkpt>
      <trkpt lat="43.42177" lon="2.62749">
        <ele>687</ele>
        <time>2022-06-21T07:03:50Z</time>
      </trkpt>
      <trkpt lat="43.42177" lon="2.6275">
        <ele>687</ele>
        <time>2022-06-21T07:03:51Z</time>
      </trkpt>
      <trkpt lat="43.42177" lon="2.62751">
        <ele>687</ele>
        <time>2022-06-21T07:03:52Z</time>
      </trkpt>
      <trkpt lat="43.42177" lon="2.62751">
        <ele>687</ele>
        <time>2022-06-21T07:03:53Z</time>
      </trkpt>
      <trkpt lat="43.42177" lon="2.62752">
        <ele>687</ele>
        <time>2022-06-21T07:03:54Z</time>
      </trkpt>
      <trkpt lat="43.42177" lon="2.62752">
        <ele>687.1</ele>
        <time>2022-06-21T07:03:55Z</time>
      </trkpt>
      <trkpt lat="43.42177" lon="2.62753">
        <ele>687.1</ele>
        <time>2022-06-21T07:03:56Z</time>
      </trkpt>
      <trkpt lat="43.42177" lon="2.62753">
        <ele>687.1</ele>
        <time>2022-06-21T07:03:57Z</time>
      </trkpt>
      <trkpt lat="43.42177" lon="2.62752">
        <ele>687.1</ele>
        <time>2022-06-21T07:03:58Z</time>
      </trkpt>
      <trkpt lat="43.42177" lon="2.62752">
        <ele>687.1</ele>
        <time>2022-06-21T07:03:59Z</time>
      </trkpt>
      <trkpt lat="43.42177" lon="2.62752">
        <ele>687.1</ele>
        <time>2022-06-21T07:04:00Z</time>
      </trkpt>
      <trkpt lat="43.42177" lon="2.62752">
        <ele>687.1</ele>
        <time>2022-06-21T07:04:01Z</time>
      </trkpt>
      <trkpt lat="43.42177" lon="2.62752">
        <ele>687.1</ele>
        <time>2022-06-21T07:04:02Z</time>
      </trkpt>
      <trkpt lat="43.42177" lon="2.62752">
        <ele>687.1</ele>
        <time>2022-06-21T07:04:03Z</time>
      </trkpt>
      <trkpt lat="43.42177" lon="2.62752">
        <ele>687.1</ele>
        <time>2022-06-21T07:04:04Z</time>
      </trkpt>
      <trkpt lat="43.42177" lon="2.62752">
        <ele>687.1</ele>
        <time>2022-06-21T07:04:05Z</time>
      </trkpt>
      <trkpt lat="43.42177" lon="2.62752">
        <ele>687.1</ele>
        <time>2022-06-21T07:04:06Z</time>
      </trkpt>
      <trkpt lat="43.42177" lon="2.62752">
        <ele>687.1</ele>
        <time>2022-06-21T07:04:07Z</time>
      </trkpt>
      <trkpt lat="43.42177" lon="2.62752">
        <ele>687.1</ele>
        <time>2022-06-21T07:04:08Z</time>
      </trkpt>
      <trkpt lat="43.42177" lon="2.62752">
        <ele>687.1</ele>
        <time>2022-06-21T07:04:09Z</time>
      </trkpt>
      <trkpt lat="43.42177" lon="2.62752">
        <ele>687.1</ele>
        <time>2022-06-21T07:04:10Z</time>
      </trkpt>
      <trkpt lat="43.42177" lon="2.62752">
        <ele>687.1</ele>
        <time>2022-06-21T07:04:11Z</time>
      </trkpt>
      <trkpt lat="43.42177" lon="2.62752">
        <ele>687.1</ele>
        <time>2022-06-21T07:04:12Z</time>
      </trkpt>
      <trkpt lat="43.42177" lon="2.62752">
        <ele>687.1</ele>
        <time>2022-06-21T07:04:13Z</time>
      </trkpt>
      <trkpt lat="43.42177" lon="2.62752">
        <ele>687.1</ele>
        <time>2022-06-21T07:04:14Z</time>
      </trkpt>
      <trkpt lat="43.42177" lon="2.62752">
        <ele>687.1</ele>
        <time>2022-06-21T07:04:15Z</time>
      </trkpt>
      <trkpt lat="43.42177" lon="2.62752">
        <ele>687.1</ele>
        <time>2022-06-21T07:04:16Z</time>
      </trkpt>
      <trkpt lat="43.42177" lon="2.62752">
        <ele>687.1</ele>
        <time>2022-06-21T07:04:17Z</time>
      </trkpt>
      <trkpt lat="43.42177" lon="2.62752">
        <ele>687.1</ele>
        <time>2022-06-21T07:04:18Z</time>
      </trkpt>
      <trkpt lat="43.42177" lon="2.62752">
        <ele>687.1</ele>
        <time>2022-06-21T07:04:19Z</time>
      </trkpt>
      <trkpt lat="43.42177" lon="2.62752">
        <ele>687.1</ele>
        <time>2022-06-21T07:04:20Z</time>
      </trkpt>
      <trkpt lat="43.42177" lon="2.62752">
        <ele>687.1</ele>
        <time>2022-06-21T07:04:21Z</time>
      </trkpt>
      <trkpt lat="43.42177" lon="2.62752">
        <ele>687.1</ele>
        <time>2022-06-21T07:04:22Z</time>
      </trkpt>
      <trkpt lat="43.42177" lon="2.62752">
        <ele>687.1</ele>
        <time>2022-06-21T07:04:23Z</time>
      </trkpt>
      <trkpt lat="43.42177" lon="2.62752">
        <ele>687.1</ele>
        <time>2022-06-21T07:04:24Z</time>
      </trkpt>
      <trkpt lat="43.42177" lon="2.62752">
        <ele>687.1</ele>
        <time>2022-06-21T07:04:25Z</time>
      </trkpt>
      <trkpt lat="43.42178" lon="2.62751">
        <ele>687.1</ele>
        <time>2022-06-21T07:04:26Z</time>
      </trkpt>
      <trkpt lat="43.42178" lon="2.62751">
        <ele>687.1</ele>
        <time>2022-06-21T07:04:27Z</time>
      </trkpt>
      <trkpt lat="43.42178" lon="2.62751">
        <ele>687.1</ele>
        <time>2022-06-21T07:04:28Z</time>
      </trkpt>
      <trkpt lat="43.42178" lon="2.62751">
        <ele>687.1</ele>
        <time>2022-06-21T07:04:29Z</time>
      </trkpt>
      <trkpt lat="43.42178" lon="2.62751">
        <ele>687.1</ele>
        <time>2022-06-21T07:04:30Z</time>
      </trkpt>
      <trkpt lat="43.42178" lon="2.62751">
        <ele>687.1</ele>
        <time>2022-06-21T07:04:31Z</time>
      </trkpt>
      <trkpt lat="43.42178" lon="2.62751">
        <ele>687.1</ele>
        <time>2022-06-21T07:04:32Z</time>
      </trkpt>
      <trkpt lat="43.42178" lon="2.62751">
        <ele>687.1</ele>
        <time>2022-06-21T07:04:33Z</time>
      </trkpt>
      <trkpt lat="43.42178" lon="2.62751">
        <ele>687.1</ele>
        <time>2022-06-21T07:04:34Z</time>
      </trkpt>
      <trkpt lat="43.42178" lon="2.62751">
        <ele>687.1</ele>
        <time>2022-06-21T07:04:35Z</time>
      </trkpt>
      <trkpt lat="43.42178" lon="2.62751">
        <ele>687.1</ele>
        <time>2022-06-21T07:04:36Z</time>
      </trkpt>
      <trkpt lat="43.42178" lon="2.62751">
        <ele>687.1</ele>
        <time>2022-06-21T07:04:37Z</time>
      </trkpt>
      <trkpt lat="43.42178" lon="2.62751">
        <ele>687.1</ele>
        <time>2022-06-21T07:04:38Z</time>
      </trkpt>
      <trkpt lat="43.42178" lon="2.62751">
        <ele>687.1</ele>
        <time>2022-06-21T07:04:39Z</time>
      </trkpt>
      <trkpt lat="43.42178" lon="2.62751">
        <ele>687.1</ele>
        <time>2022-06-21T07:04:40Z</time>
      </trkpt>
      <trkpt lat="43.42178" lon="2.62751">
        <ele>687.1</ele>
        <time>2022-06-21T07:04:41Z</time>
      </trkpt>
      <trkpt lat="43.42178" lon="2.62751">
        <ele>687.1</ele>
        <time>2022-06-21T07:04:42Z</time>
      </trkpt>
      <trkpt lat="43.42178" lon="2.62751">
        <ele>687.1</ele>
        <time>2022-06-21T07:04:43Z</time>
      </trkpt>
      <trkpt lat="43.42178" lon="2.62751">
        <ele>687.1</ele>
        <time>2022-06-21T07:04:44Z</time>
      </trkpt>
      <trkpt lat="43.42178" lon="2.62751">
        <ele>687.1</ele>
        <time>2022-06-21T07:04:45Z</time>
      </trkpt>
      <trkpt lat="43.42178" lon="2.62751">
        <ele>687.1</ele>
        <time>2022-06-21T07:04:46Z</time>
      </trkpt>
      <trkpt lat="43.42178" lon="2.62751">
        <ele>687.1</ele>
        <time>2022-06-21T07:04:47Z</time>
      </trkpt>
      <trkpt lat="43.42178" lon="2.62751">
        <ele>687.1</ele>
        <time>2022-06-21T07:04:48Z</time>
      </trkpt>
      <trkpt lat="43.42178" lon="2.62751">
        <ele>687.1</ele>
        <time>2022-06-21T07:04:49Z</time>
      </trkpt>
      <trkpt lat="43.42178" lon="2.62751">
        <ele>687.1</ele>
        <time>2022-06-21T07:04:50Z</time>
      </trkpt>
      <trkpt lat="43.42178" lon="2.62751">
        <ele>687.1</ele>
        <time>2022-06-21T07:04:51Z</time>
      </trkpt>
      <trkpt lat="43.42178" lon="2.62751">
        <ele>687.1</ele>
        <time>2022-06-21T07:04:52Z</time>
      </trkpt>
      <trkpt lat="43.42178" lon="2.62751">
        <ele>687.1</ele>
        <time>2022-06-21T07:04:53Z</time>
      </trkpt>
      <trkpt lat="43.42178" lon="2.62751">
        <ele>687.1</ele>
        <time>2022-06-21T07:04:54Z</time>
      </trkpt>
      <trkpt lat="43.42178" lon="2.62751">
        <ele>687.1</ele>
        <time>2022-06-21T07:04:55Z</time>
      </trkpt>
      <trkpt lat="43.42178" lon="2.62751">
        <ele>687.1</ele>
        <time>2022-06-21T07:04:56Z</time>
      </trkpt>
      <trkpt lat="43.42178" lon="2.62751">
        <ele>687.1</ele>
        <time>2022-06-21T07:04:57Z</time>
      </trkpt>
      <trkpt lat="43.42178" lon="2.62751">
        <ele>687.1</ele>
        <time>2022-06-21T07:04:58Z</time>
      </trkpt>
      <trkpt lat="43.42178" lon="2.62751">
        <ele>687.1</ele>
        <time>2022-06-21T07:04:59Z</time>
      </trkpt>
      <trkpt lat="43.42178" lon="2.62751">
        <ele>687.1</ele>
        <time>2022-06-21T07:05:00Z</time>
      </trkpt>
      <trkpt lat="43.42178" lon="2.62751">
        <ele>687.1</ele>
        <time>2022-06-21T07:05:01Z</time>
      </trkpt>
      <trkpt lat="43.42178" lon="2.62751">
        <ele>687.1</ele>
        <time>2022-06-21T07:05:02Z</time>
      </trkpt>
      <trkpt lat="43.42178" lon="2.62751">
        <ele>687.1</ele>
        <time>2022-06-21T07:05:03Z</time>
      </trkpt>
      <trkpt lat="43.42178" lon="2.62751">
        <ele>687.1</ele>
        <time>2022-06-21T07:05:04Z</time>
      </trkpt>
      <trkpt lat="43.42178" lon="2.62751">
        <ele>687.1</ele>
        <time>2022-06-21T07:05:05Z</time>
      </trkpt>
      <trkpt lat="43.42178" lon="2.62751">
        <ele>687.1</ele>
        <time>2022-06-21T07:05:06Z</time>
      </trkpt>
      <trkpt lat="43.42178" lon="2.62751">
        <ele>687.1</ele>
        <time>2022-06-21T07:05:07Z</time>
      </trkpt>
      <trkpt lat="43.42178" lon="2.62751">
        <ele>687.1</ele>
        <time>2022-06-21T07:05:08Z</time>
      </trkpt>
      <trkpt lat="43.42178" lon="2.62751">
        <ele>687.1</ele>
        <time>2022-06-21T07:05:09Z</time>
      </trkpt>
      <trkpt lat="43.42178" lon="2.62751">
        <ele>687.1</ele>
        <time>2022-06-21T07:05:10Z</time>
      </trkpt>
      <trkpt lat="43.42178" lon="2.62751">
        <ele>687.1</ele>
        <time>2022-06-21T07:05:11Z</time>
      </trkpt>
      <trkpt lat="43.42178" lon="2.62751">
        <ele>687.1</ele>
        <time>2022-06-21T07:05:12Z</time>
      </trkpt>
      <trkpt lat="43.42178" lon="2.62749">
        <ele>687.1</ele>
        <time>2022-06-21T07:05:13Z</time>
      </trkpt>
      <trkpt lat="43.42178" lon="2.62749">
        <ele>687.1</ele>
        <time>2022-06-21T07:05:14Z</time>
      </trkpt>
      <trkpt lat="43.42178" lon="2.62749">
        <ele>687.1</ele>
        <time>2022-06-21T07:05:15Z</time>
      </trkpt>
      <trkpt lat="43.42178" lon="2.62749">
        <ele>687.1</ele>
        <time>2022-06-21T07:05:16Z</time>
      </trkpt>
      <trkpt lat="43.42178" lon="2.62749">
        <ele>687.1</ele>
        <time>2022-06-21T07:05:17Z</time>
      </trkpt>
      <trkpt lat="43.42178" lon="2.62749">
        <ele>687.1</ele>
        <time>2022-06-21T07:05:18Z</time>
      </trkpt>
      <trkpt lat="43.42178" lon="2.62748">
        <ele>687.1</ele>
        <time>2022-06-21T07:05:19Z</time>
      </trkpt>
      <trkpt lat="43.42177" lon="2.62748">
        <ele>687.1</ele>
        <time>2022-06-21T07:05:20Z</time>
      </trkpt>
      <trkpt lat="43.42177" lon="2.62747">
        <ele>687.1</ele>
        <time>2022-06-21T07:05:21Z</time>
      </trkpt>
      <trkpt lat="43.42176" lon="2.62746">
        <ele>687.2</ele>
        <time>2022-06-21T07:05:22Z</time>
      </trkpt>
      <trkpt lat="43.42175" lon="2.62746">
        <ele>687.2</ele>
        <time>2022-06-21T07:05:23Z</time>
      </trkpt>
      <trkpt lat="43.42175" lon="2.62745">
        <ele>687.2</ele>
        <time>2022-06-21T07:05:24Z</time>
      </trkpt>
      <trkpt lat="43.42175" lon="2.62744">
        <ele>687.2</ele>
        <time>2022-06-21T07:05:25Z</time>
      </trkpt>
      <trkpt lat="43.42174" lon="2.62743">
        <ele>687.2</ele>
        <time>2022-06-21T07:05:26Z</time>
      </trkpt>
      <trkpt lat="43.42174" lon="2.62742">
        <ele>687.2</ele>
        <time>2022-06-21T07:05:27Z</time>
      </trkpt>
      <trkpt lat="43.42174" lon="2.6274">
        <ele>687.2</ele>
        <time>2022-06-21T07:05:28Z</time>
      </trkpt>
      <trkpt lat="43.42174" lon="2.62738">
        <ele>687.3</ele>
        <time>2022-06-21T07:05:29Z</time>
      </trkpt>
      <trkpt lat="43.42173" lon="2.62738">
        <ele>687.3</ele>
        <time>2022-06-21T07:05:30Z</time>
      </trkpt>
      <trkpt lat="43.42172" lon="2.62737">
        <ele>687.3</ele>
        <time>2022-06-21T07:05:31Z</time>
      </trkpt>
      <trkpt lat="43.42172" lon="2.62736">
        <ele>687.3</ele>
        <time>2022-06-21T07:05:32Z</time>
      </trkpt>
      <trkpt lat="43.42172" lon="2.62735">
        <ele>687.3</ele>
        <time>2022-06-21T07:05:33Z</time>
      </trkpt>
      <trkpt lat="43.42172" lon="2.62734">
        <ele>687.3</ele>
        <time>2022-06-21T07:05:34Z</time>
      </trkpt>
      <trkpt lat="43.42172" lon="2.62733">
        <ele>687.3</ele>
        <time>2022-06-21T07:05:35Z</time>
      </trkpt>
      <trkpt lat="43.42172" lon="2.62732">
        <ele>687.3</ele>
        <time>2022-06-21T07:05:36Z</time>
      </trkpt>
      <trkpt lat="43.42172" lon="2.62731">
        <ele>687.3</ele>
        <time>2022-06-21T07:05:37Z</time>
      </trkpt>
      <trkpt lat="43.42172" lon="2.6273">
        <ele>687.4</ele>
        <time>2022-06-21T07:05:38Z</time>
      </trkpt>
      <trkpt lat="43.42171" lon="2.62729">
        <ele>687.4</ele>
        <time>2022-06-21T07:05:39Z</time>
      </trkpt>
      <trkpt lat="43.42171" lon="2.62728">
        <ele>687.4</ele>
        <time>2022-06-21T07:05:40Z</time>
      </trkpt>
      <trkpt lat="43.42171" lon="2.62727">
        <ele>687.4</ele>
        <time>2022-06-21T07:05:41Z</time>
      </trkpt>
      <trkpt lat="43.42171" lon="2.62726">
        <ele>687.4</ele>
        <time>2022-06-21T07:05:42Z</time>
      </trkpt>
      <trkpt lat="43.4217" lon="2.62724">
        <ele>687.4</ele>
        <time>2022-06-21T07:05:43Z</time>
      </trkpt>
      <trkpt lat="43.4217" lon="2.62723">
        <ele>687.4</ele>
        <time>2022-06-21T07:05:44Z</time>
      </trkpt>
      <trkpt lat="43.4217" lon="2.62722">
        <ele>687.5</ele>
        <time>2022-06-21T07:05:45Z</time>
      </trkpt>
      <trkpt lat="43.42169" lon="2.62721">
        <ele>687.5</ele>
        <time>2022-06-21T07:05:46Z</time>
      </trkpt>
      <trkpt lat="43.42169" lon="2.6272">
        <ele>687.5</ele>
        <time>2022-06-21T07:05:47Z</time>
      </trkpt>
      <trkpt lat="43.42169" lon="2.62718">
        <ele>687.5</ele>
        <time>2022-06-21T07:05:48Z</time>
      </trkpt>
      <trkpt lat="43.42168" lon="2.62717">
        <ele>687.5</ele>
        <time>2022-06-21T07:05:49Z</time>
      </trkpt>
      <trkpt lat="43.42168" lon="2.62716">
        <ele>687.5</ele>
        <time>2022-06-21T07:05:50Z</time>
      </trkpt>
      <trkpt lat="43.42168" lon="2.62714">
        <ele>687.5</ele>
        <time>2022-06-21T07:05:51Z</time>
      </trkpt>
      <trkpt lat="43.42168" lon="2.62713">
        <ele>687.5</ele>
        <time>2022-06-21T07:05:52Z</time>
      </trkpt>
      <trkpt lat="43.42168" lon="2.62711">
        <ele>687.5</ele>
        <time>2022-06-21T07:05:53Z</time>
      </trkpt>
      <trkpt lat="43.42167" lon="2.62709">
        <ele>687.5</ele>
        <time>2022-06-21T07:05:54Z</time>
      </trkpt>
      <trkpt lat="43.42167" lon="2.62707">
        <ele>687.5</ele>
        <time>2022-06-21T07:05:55Z</time>
      </trkpt>
      <trkpt lat="43.42166" lon="2.62706">
        <ele>687.5</ele>
        <time>2022-06-21T07:05:56Z</time>
      </trkpt>
      <trkpt lat="43.42166" lon="2.62706">
        <ele>687.6</ele>
        <time>2022-06-21T07:05:57Z</time>
      </trkpt>
      <trkpt lat="43.42165" lon="2.62705">
        <ele>687.6</ele>
        <time>2022-06-21T07:05:58Z</time>
      </trkpt>
      <trkpt lat="43.42164" lon="2.62704">
        <ele>687.6</ele>
        <time>2022-06-21T07:05:59Z</time>
      </trkpt>
      <trkpt lat="43.42164" lon="2.62702">
        <ele>687.6</ele>
        <time>2022-06-21T07:06:00Z</time>
      </trkpt>
      <trkpt lat="43.42163" lon="2.62701">
        <ele>687.6</ele>
        <time>2022-06-21T07:06:01Z</time>
      </trkpt>
      <trkpt lat="43.42162" lon="2.627">
        <ele>687.6</ele>
        <time>2022-06-21T07:06:02Z</time>
      </trkpt>
      <trkpt lat="43.42161" lon="2.62699">
        <ele>687.6</ele>
        <time>2022-06-21T07:06:03Z</time>
      </trkpt>
      <trkpt lat="43.42161" lon="2.62698">
        <ele>687.6</ele>
        <time>2022-06-21T07:06:04Z</time>
      </trkpt>
      <trkpt lat="43.4216" lon="2.62697">
        <ele>687.6</ele>
        <time>2022-06-21T07:06:05Z</time>
      </trkpt>
      <trkpt lat="43.42159" lon="2.62697">
        <ele>687.6</ele>
        <time>2022-06-21T07:06:06Z</time>
      </trkpt>
      <trkpt lat="43.42158" lon="2.62697">
        <ele>687.6</ele>
        <time>2022-06-21T07:06:07Z</time>
      </trkpt>
      <trkpt lat="43.42157" lon="2.62697">
        <ele>687.6</ele>
        <time>2022-06-21T07:06:08Z</time>
      </trkpt>
      <trkpt lat="43.42156" lon="2.62698">
        <ele>687.6</ele>
        <time>2022-06-21T07:06:09Z</time>
      </trkpt>
      <trkpt lat="43.42155" lon="2.62698">
        <ele>687.6</ele>
        <time>2022-06-21T07:06:10Z</time>
      </trkpt>
      <trkpt lat="43.42155" lon="2.62699">
        <ele>687.6</ele>
        <time>2022-06-21T07:06:11Z</time>
      </trkpt>
      <trkpt lat="43.42154" lon="2.627">
        <ele>687.6</ele>
        <time>2022-06-21T07:06:12Z</time>
      </trkpt>
      <trkpt lat="43.42154" lon="2.62701">
        <ele>687.6</ele>
        <time>2022-06-21T07:06:13Z</time>
      </trkpt>
      <trkpt lat="43.42154" lon="2.62702">
        <ele>687.6</ele>
        <time>2022-06-21T07:06:14Z</time>
      </trkpt>
      <trkpt lat="43.42154" lon="2.62703">
        <ele>687.6</ele>
        <time>2022-06-21T07:06:15Z</time>
      </trkpt>
      <trkpt lat="43.42153" lon="2.62703">
        <ele>687.6</ele>
        <time>2022-06-21T07:06:16Z</time>
      </trkpt>
      <trkpt lat="43.42153" lon="2.62704">
        <ele>687.6</ele>
        <time>2022-06-21T07:06:17Z</time>
      </trkpt>
      <trkpt lat="43.42153" lon="2.62705">
        <ele>687.6</ele>
        <time>2022-06-21T07:06:18Z</time>
      </trkpt>
      <trkpt lat="43.42153" lon="2.62707">
        <ele>687.6</ele>
        <time>2022-06-21T07:06:19Z</time>
      </trkpt>
      <trkpt lat="43.42153" lon="2.62707">
        <ele>687.6</ele>
        <time>2022-06-21T07:06:20Z</time>
      </trkpt>
      <trkpt lat="43.42153" lon="2.62709">
        <ele>687.6</ele>
        <time>2022-06-21T07:06:21Z</time>
      </trkpt>
      <trkpt lat="43.42153" lon="2.6271">
        <ele>687.6</ele>
        <time>2022-06-21T07:06:22Z</time>
      </trkpt>
      <trkpt lat="43.42153" lon="2.62711">
        <ele>687.6</ele>
        <time>2022-06-21T07:06:23Z</time>
      </trkpt>
      <trkpt lat="43.42153" lon="2.62712">
        <ele>687.5</ele>
        <time>2022-06-21T07:06:24Z</time>
      </trkpt>
      <trkpt lat="43.42153" lon="2.62714">
        <ele>687.5</ele>
        <time>2022-06-21T07:06:25Z</time>
      </trkpt>
      <trkpt lat="43.42153" lon="2.62715">
        <ele>687.5</ele>
        <time>2022-06-21T07:06:26Z</time>
      </trkpt>
      <trkpt lat="43.42153" lon="2.62718">
        <ele>687.4</ele>
        <time>2022-06-21T07:06:27Z</time>
      </trkpt>
      <trkpt lat="43.42153" lon="2.62719">
        <ele>687.4</ele>
        <time>2022-06-21T07:06:28Z</time>
      </trkpt>
      <trkpt lat="43.42153" lon="2.6272">
        <ele>687.4</ele>
        <time>2022-06-21T07:06:29Z</time>
      </trkpt>
      <trkpt lat="43.42153" lon="2.62721">
        <ele>687.4</ele>
        <time>2022-06-21T07:06:30Z</time>
      </trkpt>
      <trkpt lat="43.42153" lon="2.62722">
        <ele>687.3</ele>
        <time>2022-06-21T07:06:31Z</time>
      </trkpt>
      <trkpt lat="43.42153" lon="2.62722">
        <ele>687.3</ele>
        <time>2022-06-21T07:06:32Z</time>
      </trkpt>
      <trkpt lat="43.42153" lon="2.62722">
        <ele>687.3</ele>
        <time>2022-06-21T07:06:33Z</time>
      </trkpt>
      <trkpt lat="43.42153" lon="2.62722">
        <ele>687.3</ele>
        <time>2022-06-21T07:06:34Z</time>
      </trkpt>
      <trkpt lat="43.42153" lon="2.62722">
        <ele>687.3</ele>
        <time>2022-06-21T07:06:35Z</time>
      </trkpt>
      <trkpt lat="43.42153" lon="2.62722">
        <ele>687.3</ele>
        <time>2022-06-21T07:06:36Z</time>
      </trkpt>
      <trkpt lat="43.42152" lon="2.62722">
        <ele>687.3</ele>
        <time>2022-06-21T07:06:37Z</time>
      </trkpt>
      <trkpt lat="43.42152" lon="2.62722">
        <ele>687.2</ele>
        <time>2022-06-21T07:06:38Z</time>
      </trkpt>
      <trkpt lat="43.42151" lon="2.62721">
        <ele>687.2</ele>
        <time>2022-06-21T07:06:39Z</time>
      </trkpt>
      <trkpt lat="43.42151" lon="2.6272">
        <ele>687.2</ele>
        <time>2022-06-21T07:06:40Z</time>
      </trkpt>
      <trkpt lat="43.42151" lon="2.6272">
        <ele>687.2</ele>
        <time>2022-06-21T07:06:41Z</time>
      </trkpt>
      <trkpt lat="43.42151" lon="2.62719">
        <ele>687.1</ele>
        <time>2022-06-21T07:06:42Z</time>
      </trkpt>
      <trkpt lat="43.42151" lon="2.62718">
        <ele>687.1</ele>
        <time>2022-06-21T07:06:43Z</time>
      </trkpt>
      <trkpt lat="43.42151" lon="2.62717">
        <ele>687.1</ele>
        <time>2022-06-21T07:06:44Z</time>
      </trkpt>
      <trkpt lat="43.42151" lon="2.62717">
        <ele>687.1</ele>
        <time>2022-06-21T07:06:45Z</time>
      </trkpt>
      <trkpt lat="43.42151" lon="2.62716">
        <ele>687</ele>
        <time>2022-06-21T07:06:46Z</time>
      </trkpt>
      <trkpt lat="43.42152" lon="2.62715">
        <ele>687</ele>
        <time>2022-06-21T07:06:47Z</time>
      </trkpt>
      <trkpt lat="43.42152" lon="2.62714">
        <ele>687</ele>
        <time>2022-06-21T07:06:48Z</time>
      </trkpt>
      <trkpt lat="43.42152" lon="2.62712">
        <ele>686.9</ele>
        <time>2022-06-21T07:06:49Z</time>
      </trkpt>
      <trkpt lat="43.42152" lon="2.62711">
        <ele>686.9</ele>
        <time>2022-06-21T07:06:50Z</time>
      </trkpt>
      <trkpt lat="43.42152" lon="2.6271">
        <ele>686.9</ele>
        <time>2022-06-21T07:06:51Z</time>
      </trkpt>
      <trkpt lat="43.42152" lon="2.62709">
        <ele>686.8</ele>
        <time>2022-06-21T07:06:52Z</time>
      </trkpt>
      <trkpt lat="43.42152" lon="2.62708">
        <ele>686.8</ele>
        <time>2022-06-21T07:06:53Z</time>
      </trkpt>
      <trkpt lat="43.42152" lon="2.62706">
        <ele>686.8</ele>
        <time>2022-06-21T07:06:54Z</time>
      </trkpt>
      <trkpt lat="43.42152" lon="2.62705">
        <ele>686.7</ele>
        <time>2022-06-21T07:06:55Z</time>
      </trkpt>
      <trkpt lat="43.42152" lon="2.62702">
        <ele>686.7</ele>
        <time>2022-06-21T07:06:56Z</time>
      </trkpt>
      <trkpt lat="43.42152" lon="2.627">
        <ele>686.6</ele>
        <time>2022-06-21T07:06:57Z</time>
      </trkpt>
      <trkpt lat="43.42152" lon="2.62699">
        <ele>686.6</ele>
        <time>2022-06-21T07:06:58Z</time>
      </trkpt>
      <trkpt lat="43.42152" lon="2.62698">
        <ele>686.5</ele>
        <time>2022-06-21T07:06:59Z</time>
      </trkpt>
      <trkpt lat="43.42151" lon="2.62697">
        <ele>686.5</ele>
        <time>2022-06-21T07:07:00Z</time>
      </trkpt>
      <trkpt lat="43.42151" lon="2.62696">
        <ele>686.5</ele>
        <time>2022-06-21T07:07:01Z</time>
      </trkpt>
      <trkpt lat="43.42151" lon="2.62695">
        <ele>686.5</ele>
        <time>2022-06-21T07:07:02Z</time>
      </trkpt>
      <trkpt lat="43.42151" lon="2.62694">
        <ele>686.5</ele>
        <time>2022-06-21T07:07:03Z</time>
      </trkpt>
      <trkpt lat="43.4215" lon="2.62693">
        <ele>686.4</ele>
        <time>2022-06-21T07:07:04Z</time>
      </trkpt>
      <trkpt lat="43.42149" lon="2.62691">
        <ele>686.4</ele>
        <time>2022-06-21T07:07:05Z</time>
      </trkpt>
      <trkpt lat="43.42149" lon="2.6269">
        <ele>686.4</ele>
        <time>2022-06-21T07:07:06Z</time>
      </trkpt>
      <trkpt lat="43.42149" lon="2.62689">
        <ele>686.4</ele>
        <time>2022-06-21T07:07:07Z</time>
      </trkpt>
      <trkpt lat="43.42149" lon="2.62688">
        <ele>686.3</ele>
        <time>2022-06-21T07:07:08Z</time>
      </trkpt>
      <trkpt lat="43.42149" lon="2.62687">
        <ele>686.3</ele>
        <time>2022-06-21T07:07:09Z</time>
      </trkpt>
      <trkpt lat="43.42148" lon="2.62686">
        <ele>686.3</ele>
        <time>2022-06-21T07:07:10Z</time>
      </trkpt>
      <trkpt lat="43.42148" lon="2.62686">
        <ele>686.3</ele>
        <time>2022-06-21T07:07:11Z</time>
      </trkpt>
      <trkpt lat="43.42148" lon="2.62685">
        <ele>686.3</ele>
        <time>2022-06-21T07:07:12Z</time>
      </trkpt>
      <trkpt lat="43.42147" lon="2.62684">
        <ele>686.3</ele>
        <time>2022-06-21T07:07:13Z</time>
      </trkpt>
      <trkpt lat="43.42147" lon="2.62684">
        <ele>686.2</ele>
        <time>2022-06-21T07:07:14Z</time>
      </trkpt>
      <trkpt lat="43.42146" lon="2.62683">
        <ele>686.2</ele>
        <time>2022-06-21T07:07:15Z</time>
      </trkpt>
      <trkpt lat="43.42145" lon="2.62682">
        <ele>686.2</ele>
        <time>2022-06-21T07:07:16Z</time>
      </trkpt>
      <trkpt lat="43.42144" lon="2.62682">
        <ele>686.2</ele>
        <time>2022-06-21T07:07:17Z</time>
      </trkpt>
      <trkpt lat="43.42144" lon="2.62682">
        <ele>686.1</ele>
        <time>2022-06-21T07:07:18Z</time>
      </trkpt>
      <trkpt lat="43.42143" lon="2.62682">
        <ele>686.1</ele>
        <time>2022-06-21T07:07:19Z</time>
      </trkpt>
      <trkpt lat="43.42143" lon="2.62682">
        <ele>686.1</ele>
        <time>2022-06-21T07:07:20Z</time>
      </trkpt>
      <trkpt lat="43.42143" lon="2.62682">
        <ele>686.1</ele>
        <time>2022-06-21T07:07:21Z</time>
      </trkpt>
      <trkpt lat="43.42143" lon="2.62682">
        <ele>686.1</ele>
        <time>2022-06-21T07:07:22Z</time>
      </trkpt>
      <trkpt lat="43.42143" lon="2.62682">
        <ele>686.1</ele>
        <time>2022-06-21T07:07:23Z</time>
      </trkpt>
      <trkpt lat="43.42142" lon="2.62682">
        <ele>686.1</ele>
        <time>2022-06-21T07:07:24Z</time>
      </trkpt>
      <trkpt lat="43.42142" lon="2.62683">
        <ele>686.1</ele>
        <time>2022-06-21T07:07:25Z</time>
      </trkpt>
      <trkpt lat="43.42141" lon="2.62684">
        <ele>686.1</ele>
        <time>2022-06-21T07:07:26Z</time>
      </trkpt>
      <trkpt lat="43.42141" lon="2.62684">
        <ele>686.1</ele>
        <time>2022-06-21T07:07:27Z</time>
      </trkpt>
      <trkpt lat="43.42141" lon="2.62684">
        <ele>686</ele>
        <time>2022-06-21T07:07:28Z</time>
      </trkpt>
      <trkpt lat="43.4214" lon="2.62685">
        <ele>686</ele>
        <time>2022-06-21T07:07:29Z</time>
      </trkpt>
      <trkpt lat="43.4214" lon="2.62685">
        <ele>686</ele>
        <time>2022-06-21T07:07:30Z</time>
      </trkpt>
      <trkpt lat="43.4214" lon="2.62686">
        <ele>686</ele>
        <time>2022-06-21T07:07:31Z</time>
      </trkpt>
      <trkpt lat="43.42139" lon="2.62686">
        <ele>686</ele>
        <time>2022-06-21T07:07:32Z</time>
      </trkpt>
      <trkpt lat="43.42139" lon="2.62687">
        <ele>686</ele>
        <time>2022-06-21T07:07:33Z</time>
      </trkpt>
      <trkpt lat="43.42138" lon="2.62688">
        <ele>685.9</ele>
        <time>2022-06-21T07:07:34Z</time>
      </trkpt>
      <trkpt lat="43.42138" lon="2.62689">
        <ele>685.9</ele>
        <time>2022-06-21T07:07:35Z</time>
      </trkpt>
      <trkpt lat="43.42137" lon="2.62691">
        <ele>685.9</ele>
        <time>2022-06-21T07:07:36Z</time>
      </trkpt>
      <trkpt lat="43.42137" lon="2.62692">
        <ele>685.9</ele>
        <time>2022-06-21T07:07:37Z</time>
      </trkpt>
      <trkpt lat="43.42136" lon="2.62694">
        <ele>685.8</ele>
        <time>2022-06-21T07:07:38Z</time>
      </trkpt>
      <trkpt lat="43.42136" lon="2.62695">
        <ele>685.8</ele>
        <time>2022-06-21T07:07:39Z</time>
      </trkpt>
      <trkpt lat="43.42136" lon="2.62695">
        <ele>685.8</ele>
        <time>2022-06-21T07:07:40Z</time>
      </trkpt>
      <trkpt lat="43.42136" lon="2.62695">
        <ele>685.8</ele>
        <time>2022-06-21T07:07:41Z</time>
      </trkpt>
      <trkpt lat="43.42136" lon="2.62696">
        <ele>685.8</ele>
        <time>2022-06-21T07:07:42Z</time>
      </trkpt>
      <trkpt lat="43.42136" lon="2.62697">
        <ele>685.8</ele>
        <time>2022-06-21T07:07:43Z</time>
      </trkpt>
      <trkpt lat="43.42136" lon="2.62698">
        <ele>685.7</ele>
        <time>2022-06-21T07:07:44Z</time>
      </trkpt>
      <trkpt lat="43.42135" lon="2.62699">
        <ele>685.7</ele>
        <time>2022-06-21T07:07:45Z</time>
      </trkpt>
      <trkpt lat="43.42135" lon="2.627">
        <ele>685.7</ele>
        <time>2022-06-21T07:07:46Z</time>
      </trkpt>
      <trkpt lat="43.42135" lon="2.62701">
        <ele>685.7</ele>
        <time>2022-06-21T07:07:47Z</time>
      </trkpt>
      <trkpt lat="43.42134" lon="2.62702">
        <ele>685.7</ele>
        <time>2022-06-21T07:07:48Z</time>
      </trkpt>
      <trkpt lat="43.42134" lon="2.62704">
        <ele>685.6</ele>
        <time>2022-06-21T07:07:49Z</time>
      </trkpt>
      <trkpt lat="43.42133" lon="2.62706">
        <ele>685.6</ele>
        <time>2022-06-21T07:07:50Z</time>
      </trkpt>
      <trkpt lat="43.42133" lon="2.62707">
        <ele>685.6</ele>
        <time>2022-06-21T07:07:51Z</time>
      </trkpt>
      <trkpt lat="43.42133" lon="2.62708">
        <ele>685.5</ele>
        <time>2022-06-21T07:07:52Z</time>
      </trkpt>
      <trkpt lat="43.42132" lon="2.62709">
        <ele>685.5</ele>
        <time>2022-06-21T07:07:53Z</time>
      </trkpt>
      <trkpt lat="43.42132" lon="2.6271">
        <ele>685.5</ele>
        <time>2022-06-21T07:07:54Z</time>
      </trkpt>
      <trkpt lat="43.42132" lon="2.62711">
        <ele>685.5</ele>
        <time>2022-06-21T07:07:55Z</time>
      </trkpt>
      <trkpt lat="43.42131" lon="2.62712">
        <ele>685.5</ele>
        <time>2022-06-21T07:07:56Z</time>
      </trkpt>
      <trkpt lat="43.42131" lon="2.62713">
        <ele>685.4</ele>
        <time>2022-06-21T07:07:57Z</time>
      </trkpt>
      <trkpt lat="43.42131" lon="2.62714">
        <ele>685.4</ele>
        <time>2022-06-21T07:07:58Z</time>
      </trkpt>
      <trkpt lat="43.42131" lon="2.62715">
        <ele>685.4</ele>
        <time>2022-06-21T07:07:59Z</time>
      </trkpt>
      <trkpt lat="43.4213" lon="2.62717">
        <ele>685.4</ele>
        <time>2022-06-21T07:08:00Z</time>
      </trkpt>
      <trkpt lat="43.4213" lon="2.62718">
        <ele>685.3</ele>
        <time>2022-06-21T07:08:01Z</time>
      </trkpt>
      <trkpt lat="43.42129" lon="2.62719">
        <ele>685.3</ele>
        <time>2022-06-21T07:08:02Z</time>
      </trkpt>
      <trkpt lat="43.42128" lon="2.62721">
        <ele>685.3</ele>
        <time>2022-06-21T07:08:03Z</time>
      </trkpt>
      <trkpt lat="43.42128" lon="2.62722">
        <ele>685.2</ele>
        <time>2022-06-21T07:08:04Z</time>
      </trkpt>
      <trkpt lat="43.42127" lon="2.62723">
        <ele>685.2</ele>
        <time>2022-06-21T07:08:05Z</time>
      </trkpt>
      <trkpt lat="43.42126" lon="2.62726">
        <ele>685.1</ele>
        <time>2022-06-21T07:08:06Z</time>
      </trkpt>
      <trkpt lat="43.42126" lon="2.62727">
        <ele>685.1</ele>
        <time>2022-06-21T07:08:07Z</time>
      </trkpt>
      <trkpt lat="43.42125" lon="2.62728">
        <ele>685.1</ele>
        <time>2022-06-21T07:08:08Z</time>
      </trkpt>
      <trkpt lat="43.42125" lon="2.62729">
        <ele>685.1</ele>
        <time>2022-06-21T07:08:09Z</time>
      </trkpt>
      <trkpt lat="43.42125" lon="2.62729">
        <ele>685.1</ele>
        <time>2022-06-21T07:08:10Z</time>
      </trkpt>
      <trkpt lat="43.42125" lon="2.6273">
        <ele>685</ele>
        <time>2022-06-21T07:08:11Z</time>
      </trkpt>
      <trkpt lat="43.42125" lon="2.62731">
        <ele>685</ele>
        <time>2022-06-21T07:08:12Z</time>
      </trkpt>
      <trkpt lat="43.42125" lon="2.62732">
        <ele>685</ele>
        <time>2022-06-21T07:08:13Z</time>
      </trkpt>
      <trkpt lat="43.42125" lon="2.62734">
        <ele>685</ele>
        <time>2022-06-21T07:08:14Z</time>
      </trkpt>
      <trkpt lat="43.42125" lon="2.62735">
        <ele>684.9</ele>
        <time>2022-06-21T07:08:15Z</time>
      </trkpt>
      <trkpt lat="43.42124" lon="2.62736">
        <ele>684.9</ele>
        <time>2022-06-21T07:08:16Z</time>
      </trkpt>
      <trkpt lat="43.42124" lon="2.62739">
        <ele>684.9</ele>
        <time>2022-06-21T07:08:17Z</time>
      </trkpt>
      <trkpt lat="43.42124" lon="2.6274">
        <ele>684.9</ele>
        <time>2022-06-21T07:08:18Z</time>
      </trkpt>
      <trkpt lat="43.42124" lon="2.62741">
        <ele>684.8</ele>
        <time>2022-06-21T07:08:19Z</time>
      </trkpt>
      <trkpt lat="43.42124" lon="2.62742">
        <ele>684.8</ele>
        <time>2022-06-21T07:08:20Z</time>
      </trkpt>
      <trkpt lat="43.42124" lon="2.62743">
        <ele>684.8</ele>
        <time>2022-06-21T07:08:21Z</time>
      </trkpt>
      <trkpt lat="43.42124" lon="2.62745">
        <ele>684.8</ele>
        <time>2022-06-21T07:08:22Z</time>
      </trkpt>
      <trkpt lat="43.42124" lon="2.62746">
        <ele>684.8</ele>
        <time>2022-06-21T07:08:23Z</time>
      </trkpt>
      <trkpt lat="43.42123" lon="2.62748">
        <ele>684.7</ele>
        <time>2022-06-21T07:08:24Z</time>
      </trkpt>
      <trkpt lat="43.42123" lon="2.62749">
        <ele>684.7</ele>
        <time>2022-06-21T07:08:25Z</time>
      </trkpt>
      <trkpt lat="43.42123" lon="2.6275">
        <ele>684.7</ele>
        <time>2022-06-21T07:08:26Z</time>
      </trkpt>
      <trkpt lat="43.42123" lon="2.62752">
        <ele>684.7</ele>
        <time>2022-06-21T07:08:27Z</time>
      </trkpt>
      <trkpt lat="43.42123" lon="2.62753">
        <ele>684.7</ele>
        <time>2022-06-21T07:08:28Z</time>
      </trkpt>
      <trkpt lat="43.42123" lon="2.62755">
        <ele>684.6</ele>
        <time>2022-06-21T07:08:29Z</time>
      </trkpt>
      <trkpt lat="43.42123" lon="2.62756">
        <ele>684.6</ele>
        <time>2022-06-21T07:08:30Z</time>
      </trkpt>
      <trkpt lat="43.42123" lon="2.62758">
        <ele>684.6</ele>
        <time>2022-06-21T07:08:31Z</time>
      </trkpt>
      <trkpt lat="43.42123" lon="2.62759">
        <ele>684.6</ele>
        <time>2022-06-21T07:08:32Z</time>
      </trkpt>
      <trkpt lat="43.42122" lon="2.6276">
        <ele>684.5</ele>
        <time>2022-06-21T07:08:33Z</time>
      </trkpt>
      <trkpt lat="43.42122" lon="2.62762">
        <ele>684.5</ele>
        <time>2022-06-21T07:08:34Z</time>
      </trkpt>
      <trkpt lat="43.42122" lon="2.62763">
        <ele>684.5</ele>
        <time>2022-06-21T07:08:35Z</time>
      </trkpt>
      <trkpt lat="43.42122" lon="2.62766">
        <ele>684.4</ele>
        <time>2022-06-21T07:08:36Z</time>
      </trkpt>
      <trkpt lat="43.42122" lon="2.62767">
        <ele>684.4</ele>
        <time>2022-06-21T07:08:37Z</time>
      </trkpt>
      <trkpt lat="43.42122" lon="2.62768">
        <ele>684.4</ele>
        <time>2022-06-21T07:08:38Z</time>
      </trkpt>
      <trkpt lat="43.42122" lon="2.62769">
        <ele>684.3</ele>
        <time>2022-06-21T07:08:39Z</time>
      </trkpt>
      <trkpt lat="43.42122" lon="2.6277">
        <ele>684.3</ele>
        <time>2022-06-21T07:08:40Z</time>
      </trkpt>
      <trkpt lat="43.42122" lon="2.62771">
        <ele>684.3</ele>
        <time>2022-06-21T07:08:41Z</time>
      </trkpt>
      <trkpt lat="43.42122" lon="2.62771">
        <ele>684.3</ele>
        <time>2022-06-21T07:08:42Z</time>
      </trkpt>
      <trkpt lat="43.42122" lon="2.62771">
        <ele>684.3</ele>
        <time>2022-06-21T07:08:43Z</time>
      </trkpt>
      <trkpt lat="43.42122" lon="2.62772">
        <ele>684.3</ele>
        <time>2022-06-21T07:08:44Z</time>
      </trkpt>
      <trkpt lat="43.42123" lon="2.62775">
        <ele>684.2</ele>
        <time>2022-06-21T07:08:45Z</time>
      </trkpt>
      <trkpt lat="43.42123" lon="2.62777">
        <ele>684.1</ele>
        <time>2022-06-21T07:08:46Z</time>
      </trkpt>
      <trkpt lat="43.42123" lon="2.62778">
        <ele>684.1</ele>
        <time>2022-06-21T07:08:47Z</time>
      </trkpt>
      <trkpt lat="43.42124" lon="2.62778">
        <ele>684</ele>
        <time>2022-06-21T07:08:48Z</time>
      </trkpt>
      <trkpt lat="43.42124" lon="2.62779">
        <ele>684</ele>
        <time>2022-06-21T07:08:49Z</time>
      </trkpt>
      <trkpt lat="43.42124" lon="2.62781">
        <ele>683.9</ele>
        <time>2022-06-21T07:08:50Z</time>
      </trkpt>
      <trkpt lat="43.42124" lon="2.62782">
        <ele>683.9</ele>
        <time>2022-06-21T07:08:51Z</time>
      </trkpt>
      <trkpt lat="43.42125" lon="2.62785">
        <ele>683.8</ele>
        <time>2022-06-21T07:08:52Z</time>
      </trkpt>
      <trkpt lat="43.42125" lon="2.62787">
        <ele>683.7</ele>
        <time>2022-06-21T07:08:54Z</time>
      </trkpt>
      <trkpt lat="43.42125" lon="2.62789">
        <ele>683.4</ele>
        <time>2022-06-21T07:08:55Z</time>
      </trkpt>
      <trkpt lat="43.42126" lon="2.62794">
        <ele>682.9</ele>
        <time>2022-06-21T07:08:56Z</time>
      </trkpt>
      <trkpt lat="43.42127" lon="2.62795">
        <ele>682.8</ele>
        <time>2022-06-21T07:08:57Z</time>
      </trkpt>
      <trkpt lat="43.42127" lon="2.62796">
        <ele>682.6</ele>
        <time>2022-06-21T07:08:58Z</time>
      </trkpt>
      <trkpt lat="43.42127" lon="2.62798">
        <ele>682.4</ele>
        <time>2022-06-21T07:08:59Z</time>
      </trkpt>
      <trkpt lat="43.42128" lon="2.62801">
        <ele>682.1</ele>
        <time>2022-06-21T07:09:00Z</time>
      </trkpt>
      <trkpt lat="43.42128" lon="2.62802">
        <ele>682</ele>
        <time>2022-06-21T07:09:01Z</time>
      </trkpt>
      <trkpt lat="43.42128" lon="2.62803">
        <ele>681.8</ele>
        <time>2022-06-21T07:09:02Z</time>
      </trkpt>
      <trkpt lat="43.42129" lon="2.62804">
        <ele>681.7</ele>
        <time>2022-06-21T07:09:03Z</time>
      </trkpt>
      <trkpt lat="43.42129" lon="2.62805">
        <ele>681.6</ele>
        <time>2022-06-21T07:09:04Z</time>
      </trkpt>
      <trkpt lat="43.42129" lon="2.62806">
        <ele>681.5</ele>
        <time>2022-06-21T07:09:05Z</time>
      </trkpt>
      <trkpt lat="43.42129" lon="2.62808">
        <ele>681.4</ele>
        <time>2022-06-21T07:09:06Z</time>
      </trkpt>
      <trkpt lat="43.4213" lon="2.62809">
        <ele>681.2</ele>
        <time>2022-06-21T07:09:07Z</time>
      </trkpt>
      <trkpt lat="43.42131" lon="2.62813">
        <ele>680.8</ele>
        <time>2022-06-21T07:09:09Z</time>
      </trkpt>
      <trkpt lat="43.42132" lon="2.62814">
        <ele>680.6</ele>
        <time>2022-06-21T07:09:10Z</time>
      </trkpt>
      <trkpt lat="43.42132" lon="2.62815">
        <ele>680.6</ele>
        <time>2022-06-21T07:09:11Z</time>
      </trkpt>
      <trkpt lat="43.42132" lon="2.62815">
        <ele>680.5</ele>
        <time>2022-06-21T07:09:12Z</time>
      </trkpt>
      <trkpt lat="43.42133" lon="2.62817">
        <ele>680.3</ele>
        <time>2022-06-21T07:09:13Z</time>
      </trkpt>
      <trkpt lat="43.42133" lon="2.62818">
        <ele>680.1</ele>
        <time>2022-06-21T07:09:14Z</time>
      </trkpt>
      <trkpt lat="43.42133" lon="2.62819">
        <ele>680.1</ele>
        <time>2022-06-21T07:09:15Z</time>
      </trkpt>
      <trkpt lat="43.42133" lon="2.62819">
        <ele>680.1</ele>
        <time>2022-06-21T07:09:16Z</time>
      </trkpt>
      <trkpt lat="43.42133" lon="2.6282">
        <ele>680</ele>
        <time>2022-06-21T07:09:17Z</time>
      </trkpt>
      <trkpt lat="43.42133" lon="2.62822">
        <ele>679.8</ele>
        <time>2022-06-21T07:09:18Z</time>
      </trkpt>
      <trkpt lat="43.42133" lon="2.62823">
        <ele>679.7</ele>
        <time>2022-06-21T07:09:19Z</time>
      </trkpt>
      <trkpt lat="43.42134" lon="2.62826">
        <ele>679.4</ele>
        <time>2022-06-21T07:09:20Z</time>
      </trkpt>
      <trkpt lat="43.42134" lon="2.62827">
        <ele>679.3</ele>
        <time>2022-06-21T07:09:21Z</time>
      </trkpt>
      <trkpt lat="43.42134" lon="2.62827">
        <ele>679.2</ele>
        <time>2022-06-21T07:09:22Z</time>
      </trkpt>
      <trkpt lat="43.42134" lon="2.62828">
        <ele>679.2</ele>
        <time>2022-06-21T07:09:23Z</time>
      </trkpt>
      <trkpt lat="43.42134" lon="2.62828">
        <ele>679.2</ele>
        <time>2022-06-21T07:09:24Z</time>
      </trkpt>
      <trkpt lat="43.42133" lon="2.62829">
        <ele>679.1</ele>
        <time>2022-06-21T07:09:25Z</time>
      </trkpt>
      <trkpt lat="43.42133" lon="2.62829">
        <ele>679.1</ele>
        <time>2022-06-21T07:09:26Z</time>
      </trkpt>
      <trkpt lat="43.42133" lon="2.62829">
        <ele>679</ele>
        <time>2022-06-21T07:09:27Z</time>
      </trkpt>
      <trkpt lat="43.42133" lon="2.6283">
        <ele>679</ele>
        <time>2022-06-21T07:09:28Z</time>
      </trkpt>
      <trkpt lat="43.42133" lon="2.6283">
        <ele>678.9</ele>
        <time>2022-06-21T07:09:29Z</time>
      </trkpt>
      <trkpt lat="43.42133" lon="2.62831">
        <ele>678.9</ele>
        <time>2022-06-21T07:09:30Z</time>
      </trkpt>
      <trkpt lat="43.42131" lon="2.62834">
        <ele>678.5</ele>
        <time>2022-06-21T07:09:31Z</time>
      </trkpt>
      <trkpt lat="43.42131" lon="2.62835">
        <ele>678.3</ele>
        <time>2022-06-21T07:09:32Z</time>
      </trkpt>
      <trkpt lat="43.4213" lon="2.62836">
        <ele>678.3</ele>
        <time>2022-06-21T07:09:33Z</time>
      </trkpt>
      <trkpt lat="43.4213" lon="2.62836">
        <ele>678.3</ele>
        <time>2022-06-21T07:09:34Z</time>
      </trkpt>
      <trkpt lat="43.4213" lon="2.62836">
        <ele>678.3</ele>
        <time>2022-06-21T07:09:35Z</time>
      </trkpt>
      <trkpt lat="43.4213" lon="2.62836">
        <ele>678.3</ele>
        <time>2022-06-21T07:09:36Z</time>
      </trkpt>
      <trkpt lat="43.4213" lon="2.62836">
        <ele>678.3</ele>
        <time>2022-06-21T07:09:37Z</time>
      </trkpt>
      <trkpt lat="43.4213" lon="2.62836">
        <ele>678.3</ele>
        <time>2022-06-21T07:09:38Z</time>
      </trkpt>
      <trkpt lat="43.4213" lon="2.62836">
        <ele>678.3</ele>
        <time>2022-06-21T07:09:39Z</time>
      </trkpt>
      <trkpt lat="43.4213" lon="2.62836">
        <ele>678.3</ele>
        <time>2022-06-21T07:09:40Z</time>
      </trkpt>
      <trkpt lat="43.4213" lon="2.62836">
        <ele>678.3</ele>
        <time>2022-06-21T07:09:41Z</time>
      </trkpt>
      <trkpt lat="43.4213" lon="2.62836">
        <ele>678.3</ele>
        <time>2022-06-21T07:09:42Z</time>
      </trkpt>
      <trkpt lat="43.4213" lon="2.62836">
        <ele>678.3</ele>
        <time>2022-06-21T07:09:43Z</time>
      </trkpt>
      <trkpt lat="43.4213" lon="2.62836">
        <ele>678.3</ele>
        <time>2022-06-21T07:09:44Z</time>
      </trkpt>
      <trkpt lat="43.4213" lon="2.62836">
        <ele>678.2</ele>
        <time>2022-06-21T07:09:45Z</time>
      </trkpt>
      <trkpt lat="43.42129" lon="2.62839">
        <ele>678</ele>
        <time>2022-06-21T07:09:46Z</time>
      </trkpt>
      <trkpt lat="43.42127" lon="2.62842">
        <ele>677.6</ele>
        <time>2022-06-21T07:09:47Z</time>
      </trkpt>
      <trkpt lat="43.42124" lon="2.62847">
        <ele>676.9</ele>
        <time>2022-06-21T07:09:48Z</time>
      </trkpt>
      <trkpt lat="43.42122" lon="2.62851">
        <ele>676.4</ele>
        <time>2022-06-21T07:09:49Z</time>
      </trkpt>
      <trkpt lat="43.4212" lon="2.62854">
        <ele>676.1</ele>
        <time>2022-06-21T07:09:50Z</time>
      </trkpt>
      <trkpt lat="43.4212" lon="2.62854">
        <ele>676.1</ele>
        <time>2022-06-21T07:09:51Z</time>
      </trkpt>
      <trkpt lat="43.42119" lon="2.62855">
        <ele>676</ele>
        <time>2022-06-21T07:09:52Z</time>
      </trkpt>
      <trkpt lat="43.42119" lon="2.62856">
        <ele>675.9</ele>
        <time>2022-06-21T07:09:53Z</time>
      </trkpt>
      <trkpt lat="43.42118" lon="2.62856">
        <ele>675.8</ele>
        <time>2022-06-21T07:09:54Z</time>
      </trkpt>
      <trkpt lat="43.42118" lon="2.62857">
        <ele>675.7</ele>
        <time>2022-06-21T07:09:55Z</time>
      </trkpt>
      <trkpt lat="43.42117" lon="2.62858">
        <ele>675.6</ele>
        <time>2022-06-21T07:09:56Z</time>
      </trkpt>
      <trkpt lat="43.42117" lon="2.62858">
        <ele>675.5</ele>
        <time>2022-06-21T07:09:57Z</time>
      </trkpt>
      <trkpt lat="43.42115" lon="2.6286">
        <ele>675.3</ele>
        <time>2022-06-21T07:09:58Z</time>
      </trkpt>
      <trkpt lat="43.42114" lon="2.62861">
        <ele>675.2</ele>
        <time>2022-06-21T07:09:59Z</time>
      </trkpt>
      <trkpt lat="43.42111" lon="2.62865">
        <ele>674.7</ele>
        <time>2022-06-21T07:10:00Z</time>
      </trkpt>
      <trkpt lat="43.42111" lon="2.62866">
        <ele>674.6</ele>
        <time>2022-06-21T07:10:01Z</time>
      </trkpt>
      <trkpt lat="43.42109" lon="2.62868">
        <ele>674.4</ele>
        <time>2022-06-21T07:10:02Z</time>
      </trkpt>
      <trkpt lat="43.42109" lon="2.62868">
        <ele>674.4</ele>
        <time>2022-06-21T07:10:03Z</time>
      </trkpt>
      <trkpt lat="43.42109" lon="2.62869">
        <ele>674.3</ele>
        <time>2022-06-21T07:10:04Z</time>
      </trkpt>
      <trkpt lat="43.42109" lon="2.62869">
        <ele>674.3</ele>
        <time>2022-06-21T07:10:05Z</time>
      </trkpt>
      <trkpt lat="43.42108" lon="2.62869">
        <ele>674.3</ele>
        <time>2022-06-21T07:10:06Z</time>
      </trkpt>
      <trkpt lat="43.42108" lon="2.62869">
        <ele>674.2</ele>
        <time>2022-06-21T07:10:07Z</time>
      </trkpt>
      <trkpt lat="43.42108" lon="2.6287">
        <ele>674.2</ele>
        <time>2022-06-21T07:10:08Z</time>
      </trkpt>
      <trkpt lat="43.42108" lon="2.6287">
        <ele>674.2</ele>
        <time>2022-06-21T07:10:09Z</time>
      </trkpt>
      <trkpt lat="43.42107" lon="2.6287">
        <ele>674.1</ele>
        <time>2022-06-21T07:10:10Z</time>
      </trkpt>
      <trkpt lat="43.42106" lon="2.62872">
        <ele>673.9</ele>
        <time>2022-06-21T07:10:11Z</time>
      </trkpt>
      <trkpt lat="43.42105" lon="2.62874">
        <ele>673.8</ele>
        <time>2022-06-21T07:10:12Z</time>
      </trkpt>
      <trkpt lat="43.42104" lon="2.62875">
        <ele>673.6</ele>
        <time>2022-06-21T07:10:13Z</time>
      </trkpt>
      <trkpt lat="43.42103" lon="2.62876">
        <ele>673.6</ele>
        <time>2022-06-21T07:10:14Z</time>
      </trkpt>
      <trkpt lat="43.42102" lon="2.62877">
        <ele>673.4</ele>
        <time>2022-06-21T07:10:15Z</time>
      </trkpt>
      <trkpt lat="43.42099" lon="2.62881">
        <ele>673.1</ele>
        <time>2022-06-21T07:10:16Z</time>
      </trkpt>
      <trkpt lat="43.42098" lon="2.62882">
        <ele>673</ele>
        <time>2022-06-21T07:10:17Z</time>
      </trkpt>
      <trkpt lat="43.42095" lon="2.62886">
        <ele>672.6</ele>
        <time>2022-06-21T07:10:18Z</time>
      </trkpt>
      <trkpt lat="43.42093" lon="2.62889">
        <ele>672.4</ele>
        <time>2022-06-21T07:10:19Z</time>
      </trkpt>
      <trkpt lat="43.42092" lon="2.62891">
        <ele>672.2</ele>
        <time>2022-06-21T07:10:20Z</time>
      </trkpt>
      <trkpt lat="43.42091" lon="2.62891">
        <ele>672.2</ele>
        <time>2022-06-21T07:10:21Z</time>
      </trkpt>
      <trkpt lat="43.42091" lon="2.62891">
        <ele>672.2</ele>
        <time>2022-06-21T07:10:22Z</time>
      </trkpt>
      <trkpt lat="43.42091" lon="2.62891">
        <ele>672.2</ele>
        <time>2022-06-21T07:10:23Z</time>
      </trkpt>
      <trkpt lat="43.42091" lon="2.62891">
        <ele>672.2</ele>
        <time>2022-06-21T07:10:24Z</time>
      </trkpt>
      <trkpt lat="43.42091" lon="2.62891">
        <ele>672.2</ele>
        <time>2022-06-21T07:10:25Z</time>
      </trkpt>
      <trkpt lat="43.42091" lon="2.62892">
        <ele>672.1</ele>
        <time>2022-06-21T07:10:26Z</time>
      </trkpt>
      <trkpt lat="43.42091" lon="2.62892">
        <ele>672.1</ele>
        <time>2022-06-21T07:10:27Z</time>
      </trkpt>
      <trkpt lat="43.42091" lon="2.62892">
        <ele>672.1</ele>
        <time>2022-06-21T07:10:28Z</time>
      </trkpt>
      <trkpt lat="43.4209" lon="2.62892">
        <ele>672.1</ele>
        <time>2022-06-21T07:10:29Z</time>
      </trkpt>
      <trkpt lat="43.4209" lon="2.62892">
        <ele>672.1</ele>
        <time>2022-06-21T07:10:30Z</time>
      </trkpt>
      <trkpt lat="43.4209" lon="2.62892">
        <ele>672.1</ele>
        <time>2022-06-21T07:10:31Z</time>
      </trkpt>
      <trkpt lat="43.4209" lon="2.62892">
        <ele>672.1</ele>
        <time>2022-06-21T07:10:32Z</time>
      </trkpt>
      <trkpt lat="43.4209" lon="2.62892">
        <ele>672.1</ele>
        <time>2022-06-21T07:10:33Z</time>
      </trkpt>
      <trkpt lat="43.4209" lon="2.62892">
        <ele>672</ele>
        <time>2022-06-21T07:10:34Z</time>
      </trkpt>
      <trkpt lat="43.4209" lon="2.62892">
        <ele>672</ele>
        <time>2022-06-21T07:10:35Z</time>
      </trkpt>
      <trkpt lat="43.4209" lon="2.62893">
        <ele>672</ele>
        <time>2022-06-21T07:10:36Z</time>
      </trkpt>
      <trkpt lat="43.4209" lon="2.62893">
        <ele>672</ele>
        <time>2022-06-21T07:10:37Z</time>
      </trkpt>
      <trkpt lat="43.42089" lon="2.62893">
        <ele>672</ele>
        <time>2022-06-21T07:10:38Z</time>
      </trkpt>
      <trkpt lat="43.42089" lon="2.62893">
        <ele>672</ele>
        <time>2022-06-21T07:10:39Z</time>
      </trkpt>
      <trkpt lat="43.42089" lon="2.62893">
        <ele>672</ele>
        <time>2022-06-21T07:10:40Z</time>
      </trkpt>
      <trkpt lat="43.42086" lon="2.62895">
        <ele>671.7</ele>
        <time>2022-06-21T07:10:41Z</time>
      </trkpt>
      <trkpt lat="43.42085" lon="2.62896">
        <ele>671.6</ele>
        <time>2022-06-21T07:10:42Z</time>
      </trkpt>
      <trkpt lat="43.42084" lon="2.62897">
        <ele>671.6</ele>
        <time>2022-06-21T07:10:43Z</time>
      </trkpt>
      <trkpt lat="43.42084" lon="2.62897">
        <ele>671.5</ele>
        <time>2022-06-21T07:10:44Z</time>
      </trkpt>
      <trkpt lat="43.42084" lon="2.62897">
        <ele>671.5</ele>
        <time>2022-06-21T07:10:45Z</time>
      </trkpt>
      <trkpt lat="43.42084" lon="2.62897">
        <ele>671.5</ele>
        <time>2022-06-21T07:10:46Z</time>
      </trkpt>
      <trkpt lat="43.42084" lon="2.62897">
        <ele>671.5</ele>
        <time>2022-06-21T07:10:47Z</time>
      </trkpt>
      <trkpt lat="43.42084" lon="2.62897">
        <ele>671.5</ele>
        <time>2022-06-21T07:10:48Z</time>
      </trkpt>
      <trkpt lat="43.42084" lon="2.62897">
        <ele>671.5</ele>
        <time>2022-06-21T07:10:49Z</time>
      </trkpt>
      <trkpt lat="43.42084" lon="2.62897">
        <ele>671.5</ele>
        <time>2022-06-21T07:10:50Z</time>
      </trkpt>
      <trkpt lat="43.42084" lon="2.62897">
        <ele>671.5</ele>
        <time>2022-06-21T07:10:51Z</time>
      </trkpt>
      <trkpt lat="43.42084" lon="2.62897">
        <ele>671.5</ele>
        <time>2022-06-21T07:10:52Z</time>
      </trkpt>
      <trkpt lat="43.42084" lon="2.62897">
        <ele>671.5</ele>
        <time>2022-06-21T07:10:53Z</time>
      </trkpt>
      <trkpt lat="43.42084" lon="2.62897">
        <ele>671.5</ele>
        <time>2022-06-21T07:10:54Z</time>
      </trkpt>
      <trkpt lat="43.42084" lon="2.62897">
        <ele>671.5</ele>
        <time>2022-06-21T07:10:55Z</time>
      </trkpt>
      <trkpt lat="43.42079" lon="2.62901">
        <ele>671</ele>
        <time>2022-06-21T07:10:56Z</time>
      </trkpt>
      <trkpt lat="43.42076" lon="2.62904">
        <ele>670.8</ele>
        <time>2022-06-21T07:10:57Z</time>
      </trkpt>
      <trkpt lat="43.42071" lon="2.62908">
        <ele>670.5</ele>
        <time>2022-06-21T07:10:58Z</time>
      </trkpt>
      <trkpt lat="43.42069" lon="2.6291">
        <ele>670.3</ele>
        <time>2022-06-21T07:10:59Z</time>
      </trkpt>
      <trkpt lat="43.42067" lon="2.62911">
        <ele>670.2</ele>
        <time>2022-06-21T07:11:00Z</time>
      </trkpt>
      <trkpt lat="43.42067" lon="2.62911">
        <ele>670.2</ele>
        <time>2022-06-21T07:11:01Z</time>
      </trkpt>
      <trkpt lat="43.42067" lon="2.62912">
        <ele>670.2</ele>
        <time>2022-06-21T07:11:02Z</time>
      </trkpt>
      <trkpt lat="43.42067" lon="2.62912">
        <ele>670.2</ele>
        <time>2022-06-21T07:11:03Z</time>
      </trkpt>
      <trkpt lat="43.42066" lon="2.62912">
        <ele>670.2</ele>
        <time>2022-06-21T07:11:04Z</time>
      </trkpt>
      <trkpt lat="43.42066" lon="2.62912">
        <ele>670.2</ele>
        <time>2022-06-21T07:11:05Z</time>
      </trkpt>
      <trkpt lat="43.42066" lon="2.62912">
        <ele>670.1</ele>
        <time>2022-06-21T07:11:06Z</time>
      </trkpt>
      <trkpt lat="43.42066" lon="2.62912">
        <ele>670.1</ele>
        <time>2022-06-21T07:11:07Z</time>
      </trkpt>
      <trkpt lat="43.42065" lon="2.62913">
        <ele>670.1</ele>
        <time>2022-06-21T07:11:08Z</time>
      </trkpt>
      <trkpt lat="43.42065" lon="2.62913">
        <ele>670.1</ele>
        <time>2022-06-21T07:11:09Z</time>
      </trkpt>
      <trkpt lat="43.42065" lon="2.62913">
        <ele>670.1</ele>
        <time>2022-06-21T07:11:10Z</time>
      </trkpt>
      <trkpt lat="43.42065" lon="2.62913">
        <ele>670.1</ele>
        <time>2022-06-21T07:11:11Z</time>
      </trkpt>
      <trkpt lat="43.42059" lon="2.62917">
        <ele>669.8</ele>
        <time>2022-06-21T07:11:12Z</time>
      </trkpt>
      <trkpt lat="43.42053" lon="2.62921">
        <ele>669.5</ele>
        <time>2022-06-21T07:11:13Z</time>
      </trkpt>
      <trkpt lat="43.42051" lon="2.62923">
        <ele>669.4</ele>
        <time>2022-06-21T07:11:14Z</time>
      </trkpt>
      <trkpt lat="43.42048" lon="2.62925">
        <ele>669.3</ele>
        <time>2022-06-21T07:11:15Z</time>
      </trkpt>
      <trkpt lat="43.42044" lon="2.62927">
        <ele>669.1</ele>
        <time>2022-06-21T07:11:16Z</time>
      </trkpt>
      <trkpt lat="43.4204" lon="2.6293">
        <ele>668.9</ele>
        <time>2022-06-21T07:11:17Z</time>
      </trkpt>
      <trkpt lat="43.42036" lon="2.62932">
        <ele>668.8</ele>
        <time>2022-06-21T07:11:18Z</time>
      </trkpt>
      <trkpt lat="43.42035" lon="2.62932">
        <ele>668.8</ele>
        <time>2022-06-21T07:11:19Z</time>
      </trkpt>
      <trkpt lat="43.42033" lon="2.62933">
        <ele>668.7</ele>
        <time>2022-06-21T07:11:20Z</time>
      </trkpt>
      <trkpt lat="43.42031" lon="2.62933">
        <ele>668.6</ele>
        <time>2022-06-21T07:11:21Z</time>
      </trkpt>
      <trkpt lat="43.4203" lon="2.62933">
        <ele>668.6</ele>
        <time>2022-06-21T07:11:22Z</time>
      </trkpt>
      <trkpt lat="43.42028" lon="2.62934">
        <ele>668.5</ele>
        <time>2022-06-21T07:11:23Z</time>
      </trkpt>
      <trkpt lat="43.42027" lon="2.62934">
        <ele>668.5</ele>
        <time>2022-06-21T07:11:24Z</time>
      </trkpt>
      <trkpt lat="43.42026" lon="2.62935">
        <ele>668.5</ele>
        <time>2022-06-21T07:11:25Z</time>
      </trkpt>
      <trkpt lat="43.42024" lon="2.62935">
        <ele>668.4</ele>
        <time>2022-06-21T07:11:26Z</time>
      </trkpt>
      <trkpt lat="43.42023" lon="2.62936">
        <ele>668.4</ele>
        <time>2022-06-21T07:11:27Z</time>
      </trkpt>
      <trkpt lat="43.42022" lon="2.62936">
        <ele>668.4</ele>
        <time>2022-06-21T07:11:28Z</time>
      </trkpt>
      <trkpt lat="43.4202" lon="2.62936">
        <ele>668.3</ele>
        <time>2022-06-21T07:11:29Z</time>
      </trkpt>
      <trkpt lat="43.42018" lon="2.62936">
        <ele>668.4</ele>
        <time>2022-06-21T07:11:30Z</time>
      </trkpt>
      <trkpt lat="43.42017" lon="2.62935">
        <ele>668.5</ele>
        <time>2022-06-21T07:11:31Z</time>
      </trkpt>
      <trkpt lat="43.42016" lon="2.62935">
        <ele>668.5</ele>
        <time>2022-06-21T07:11:32Z</time>
      </trkpt>
      <trkpt lat="43.42014" lon="2.62934">
        <ele>668.6</ele>
        <time>2022-06-21T07:11:33Z</time>
      </trkpt>
      <trkpt lat="43.42014" lon="2.62934">
        <ele>668.6</ele>
        <time>2022-06-21T07:11:34Z</time>
      </trkpt>
      <trkpt lat="43.42013" lon="2.62933">
        <ele>668.6</ele>
        <time>2022-06-21T07:11:35Z</time>
      </trkpt>
      <trkpt lat="43.42011" lon="2.62932">
        <ele>668.7</ele>
        <time>2022-06-21T07:11:36Z</time>
      </trkpt>
      <trkpt lat="43.4201" lon="2.62931">
        <ele>668.8</ele>
        <time>2022-06-21T07:11:37Z</time>
      </trkpt>
      <trkpt lat="43.42009" lon="2.62931">
        <ele>668.8</ele>
        <time>2022-06-21T07:11:38Z</time>
      </trkpt>
      <trkpt lat="43.42008" lon="2.6293">
        <ele>668.9</ele>
        <time>2022-06-21T07:11:39Z</time>
      </trkpt>
      <trkpt lat="43.42006" lon="2.6293">
        <ele>668.9</ele>
        <time>2022-06-21T07:11:40Z</time>
      </trkpt>
      <trkpt lat="43.42006" lon="2.6293">
        <ele>669</ele>
        <time>2022-06-21T07:11:41Z</time>
      </trkpt>
      <trkpt lat="43.42005" lon="2.6293">
        <ele>669</ele>
        <time>2022-06-21T07:11:42Z</time>
      </trkpt>
      <trkpt lat="43.42003" lon="2.6293">
        <ele>669</ele>
        <time>2022-06-21T07:11:43Z</time>
      </trkpt>
      <trkpt lat="43.42002" lon="2.6293">
        <ele>669.1</ele>
        <time>2022-06-21T07:11:44Z</time>
      </trkpt>
      <trkpt lat="43.42" lon="2.62929">
        <ele>669.2</ele>
        <time>2022-06-21T07:11:45Z</time>
      </trkpt>
      <trkpt lat="43.41999" lon="2.62929">
        <ele>669.3</ele>
        <time>2022-06-21T07:11:46Z</time>
      </trkpt>
      <trkpt lat="43.41998" lon="2.62929">
        <ele>669.3</ele>
        <time>2022-06-21T07:11:47Z</time>
      </trkpt>
      <trkpt lat="43.41997" lon="2.62929">
        <ele>669.3</ele>
        <time>2022-06-21T07:11:48Z</time>
      </trkpt>
      <trkpt lat="43.41997" lon="2.62929">
        <ele>669.3</ele>
        <time>2022-06-21T07:11:49Z</time>
      </trkpt>
      <trkpt lat="43.41996" lon="2.62929">
        <ele>669.4</ele>
        <time>2022-06-21T07:11:50Z</time>
      </trkpt>
      <trkpt lat="43.41996" lon="2.62928">
        <ele>669.4</ele>
        <time>2022-06-21T07:11:51Z</time>
      </trkpt>
      <trkpt lat="43.41994" lon="2.62928">
        <ele>669.5</ele>
        <time>2022-06-21T07:11:52Z</time>
      </trkpt>
      <trkpt lat="43.41993" lon="2.62927">
        <ele>669.5</ele>
        <time>2022-06-21T07:11:53Z</time>
      </trkpt>
      <trkpt lat="43.41992" lon="2.62927">
        <ele>669.6</ele>
        <time>2022-06-21T07:11:54Z</time>
      </trkpt>
      <trkpt lat="43.41991" lon="2.62926">
        <ele>669.7</ele>
        <time>2022-06-21T07:11:55Z</time>
      </trkpt>
      <trkpt lat="43.41989" lon="2.62925">
        <ele>669.8</ele>
        <time>2022-06-21T07:11:56Z</time>
      </trkpt>
      <trkpt lat="43.41988" lon="2.62924">
        <ele>669.8</ele>
        <time>2022-06-21T07:11:57Z</time>
      </trkpt>
      <trkpt lat="43.41988" lon="2.62924">
        <ele>669.9</ele>
        <time>2022-06-21T07:11:58Z</time>
      </trkpt>
      <trkpt lat="43.41986" lon="2.62923">
        <ele>670</ele>
        <time>2022-06-21T07:11:59Z</time>
      </trkpt>
      <trkpt lat="43.41985" lon="2.62923">
        <ele>670</ele>
        <time>2022-06-21T07:12:00Z</time>
      </trkpt>
      <trkpt lat="43.41984" lon="2.62922">
        <ele>670</ele>
        <time>2022-06-21T07:12:01Z</time>
      </trkpt>
      <trkpt lat="43.41983" lon="2.62922">
        <ele>670.1</ele>
        <time>2022-06-21T07:12:02Z</time>
      </trkpt>
      <trkpt lat="43.41982" lon="2.62921">
        <ele>670.2</ele>
        <time>2022-06-21T07:12:03Z</time>
      </trkpt>
      <trkpt lat="43.41981" lon="2.62921">
        <ele>670.2</ele>
        <time>2022-06-21T07:12:04Z</time>
      </trkpt>
      <trkpt lat="43.4198" lon="2.6292">
        <ele>670.3</ele>
        <time>2022-06-21T07:12:05Z</time>
      </trkpt>
      <trkpt lat="43.41979" lon="2.6292">
        <ele>670.3</ele>
        <time>2022-06-21T07:12:06Z</time>
      </trkpt>
      <trkpt lat="43.41978" lon="2.62919">
        <ele>670.3</ele>
        <time>2022-06-21T07:12:07Z</time>
      </trkpt>
      <trkpt lat="43.41977" lon="2.62919">
        <ele>670.4</ele>
        <time>2022-06-21T07:12:08Z</time>
      </trkpt>
      <trkpt lat="43.41975" lon="2.62918">
        <ele>670.5</ele>
        <time>2022-06-21T07:12:09Z</time>
      </trkpt>
      <trkpt lat="43.41974" lon="2.62918">
        <ele>670.5</ele>
        <time>2022-06-21T07:12:10Z</time>
      </trkpt>
      <trkpt lat="43.41973" lon="2.62918">
        <ele>670.6</ele>
        <time>2022-06-21T07:12:11Z</time>
      </trkpt>
      <trkpt lat="43.41971" lon="2.62917">
        <ele>670.6</ele>
        <time>2022-06-21T07:12:12Z</time>
      </trkpt>
      <trkpt lat="43.41968" lon="2.62916">
        <ele>670.8</ele>
        <time>2022-06-21T07:12:13Z</time>
      </trkpt>
      <trkpt lat="43.41967" lon="2.62915">
        <ele>670.8</ele>
        <time>2022-06-21T07:12:14Z</time>
      </trkpt>
      <trkpt lat="43.41966" lon="2.62915">
        <ele>670.9</ele>
        <time>2022-06-21T07:12:15Z</time>
      </trkpt>
      <trkpt lat="43.41964" lon="2.62914">
        <ele>670.9</ele>
        <time>2022-06-21T07:12:16Z</time>
      </trkpt>
      <trkpt lat="43.41963" lon="2.62914">
        <ele>671</ele>
        <time>2022-06-21T07:12:17Z</time>
      </trkpt>
      <trkpt lat="43.41961" lon="2.62913">
        <ele>671.1</ele>
        <time>2022-06-21T07:12:18Z</time>
      </trkpt>
      <trkpt lat="43.41959" lon="2.62913">
        <ele>671.1</ele>
        <time>2022-06-21T07:12:19Z</time>
      </trkpt>
      <trkpt lat="43.41958" lon="2.62913">
        <ele>671.2</ele>
        <time>2022-06-21T07:12:20Z</time>
      </trkpt>
      <trkpt lat="43.41956" lon="2.62912">
        <ele>671.2</ele>
        <time>2022-06-21T07:12:21Z</time>
      </trkpt>
      <trkpt lat="43.41955" lon="2.62912">
        <ele>671.3</ele>
        <time>2022-06-21T07:12:22Z</time>
      </trkpt>
      <trkpt lat="43.41953" lon="2.62911">
        <ele>671.4</ele>
        <time>2022-06-21T07:12:23Z</time>
      </trkpt>
      <trkpt lat="43.41952" lon="2.62911">
        <ele>671.4</ele>
        <time>2022-06-21T07:12:24Z</time>
      </trkpt>
      <trkpt lat="43.41951" lon="2.6291">
        <ele>671.5</ele>
        <time>2022-06-21T07:12:25Z</time>
      </trkpt>
      <trkpt lat="43.41949" lon="2.6291">
        <ele>671.6</ele>
        <time>2022-06-21T07:12:26Z</time>
      </trkpt>
      <trkpt lat="43.41948" lon="2.62909">
        <ele>671.6</ele>
        <time>2022-06-21T07:12:27Z</time>
      </trkpt>
      <trkpt lat="43.41947" lon="2.62909">
        <ele>671.6</ele>
        <time>2022-06-21T07:12:28Z</time>
      </trkpt>
      <trkpt lat="43.41945" lon="2.62908">
        <ele>671.8</ele>
        <time>2022-06-21T07:12:29Z</time>
      </trkpt>
      <trkpt lat="43.41945" lon="2.62908">
        <ele>671.8</ele>
        <time>2022-06-21T07:12:30Z</time>
      </trkpt>
      <trkpt lat="43.41944" lon="2.62908">
        <ele>671.8</ele>
        <time>2022-06-21T07:12:31Z</time>
      </trkpt>
      <trkpt lat="43.41942" lon="2.62908">
        <ele>671.9</ele>
        <time>2022-06-21T07:12:32Z</time>
      </trkpt>
      <trkpt lat="43.41941" lon="2.62907">
        <ele>672</ele>
        <time>2022-06-21T07:12:33Z</time>
      </trkpt>
      <trkpt lat="43.4194" lon="2.62907">
        <ele>672</ele>
        <time>2022-06-21T07:12:34Z</time>
      </trkpt>
      <trkpt lat="43.41938" lon="2.62907">
        <ele>672.1</ele>
        <time>2022-06-21T07:12:35Z</time>
      </trkpt>
      <trkpt lat="43.41936" lon="2.62906">
        <ele>672.3</ele>
        <time>2022-06-21T07:12:37Z</time>
      </trkpt>
      <trkpt lat="43.41934" lon="2.62906">
        <ele>672.4</ele>
        <time>2022-06-21T07:12:38Z</time>
      </trkpt>
      <trkpt lat="43.41933" lon="2.62906">
        <ele>672.4</ele>
        <time>2022-06-21T07:12:39Z</time>
      </trkpt>
      <trkpt lat="43.41932" lon="2.62906">
        <ele>672.4</ele>
        <time>2022-06-21T07:12:40Z</time>
      </trkpt>
      <trkpt lat="43.41931" lon="2.62905">
        <ele>672.5</ele>
        <time>2022-06-21T07:12:41Z</time>
      </trkpt>
      <trkpt lat="43.4193" lon="2.62905">
        <ele>672.5</ele>
        <time>2022-06-21T07:12:42Z</time>
      </trkpt>
      <trkpt lat="43.41929" lon="2.62904">
        <ele>672.6</ele>
        <time>2022-06-21T07:12:43Z</time>
      </trkpt>
      <trkpt lat="43.41928" lon="2.62903">
        <ele>672.6</ele>
        <time>2022-06-21T07:12:44Z</time>
      </trkpt>
      <trkpt lat="43.41927" lon="2.62903">
        <ele>672.7</ele>
        <time>2022-06-21T07:12:45Z</time>
      </trkpt>
      <trkpt lat="43.41927" lon="2.62902">
        <ele>672.7</ele>
        <time>2022-06-21T07:12:46Z</time>
      </trkpt>
      <trkpt lat="43.41925" lon="2.62901">
        <ele>672.8</ele>
        <time>2022-06-21T07:12:47Z</time>
      </trkpt>
      <trkpt lat="43.41925" lon="2.629">
        <ele>672.8</ele>
        <time>2022-06-21T07:12:48Z</time>
      </trkpt>
      <trkpt lat="43.41924" lon="2.629">
        <ele>672.9</ele>
        <time>2022-06-21T07:12:49Z</time>
      </trkpt>
      <trkpt lat="43.41923" lon="2.629">
        <ele>672.9</ele>
        <time>2022-06-21T07:12:50Z</time>
      </trkpt>
      <trkpt lat="43.4192" lon="2.62898">
        <ele>673</ele>
        <time>2022-06-21T07:12:51Z</time>
      </trkpt>
      <trkpt lat="43.41919" lon="2.62898">
        <ele>673.1</ele>
        <time>2022-06-21T07:12:55Z</time>
      </trkpt>
      <trkpt lat="43.41917" lon="2.62897">
        <ele>673.2</ele>
        <time>2022-06-21T07:12:56Z</time>
      </trkpt>
      <trkpt lat="43.41916" lon="2.62896">
        <ele>673.2</ele>
        <time>2022-06-21T07:12:57Z</time>
      </trkpt>
      <trkpt lat="43.41915" lon="2.62895">
        <ele>673.2</ele>
        <time>2022-06-21T07:12:58Z</time>
      </trkpt>
      <trkpt lat="43.41914" lon="2.62894">
        <ele>673.3</ele>
        <time>2022-06-21T07:12:59Z</time>
      </trkpt>
      <trkpt lat="43.41912" lon="2.62893">
        <ele>673.3</ele>
        <time>2022-06-21T07:13:00Z</time>
      </trkpt>
      <trkpt lat="43.41911" lon="2.62893">
        <ele>673.4</ele>
        <time>2022-06-21T07:13:01Z</time>
      </trkpt>
      <trkpt lat="43.4191" lon="2.62892">
        <ele>673.4</ele>
        <time>2022-06-21T07:13:02Z</time>
      </trkpt>
      <trkpt lat="43.41909" lon="2.62892">
        <ele>673.4</ele>
        <time>2022-06-21T07:13:03Z</time>
      </trkpt>
      <trkpt lat="43.41908" lon="2.62891">
        <ele>673.5</ele>
        <time>2022-06-21T07:13:04Z</time>
      </trkpt>
      <trkpt lat="43.41907" lon="2.62891">
        <ele>673.5</ele>
        <time>2022-06-21T07:13:05Z</time>
      </trkpt>
      <trkpt lat="43.41905" lon="2.6289">
        <ele>673.5</ele>
        <time>2022-06-21T07:13:06Z</time>
      </trkpt>
      <trkpt lat="43.41904" lon="2.6289">
        <ele>673.6</ele>
        <time>2022-06-21T07:13:07Z</time>
      </trkpt>
      <trkpt lat="43.41904" lon="2.6289">
        <ele>673.6</ele>
        <time>2022-06-21T07:13:08Z</time>
      </trkpt>
      <trkpt lat="43.41902" lon="2.62889">
        <ele>673.6</ele>
        <time>2022-06-21T07:13:09Z</time>
      </trkpt>
      <trkpt lat="43.41901" lon="2.62889">
        <ele>673.7</ele>
        <time>2022-06-21T07:13:10Z</time>
      </trkpt>
      <trkpt lat="43.419" lon="2.62888">
        <ele>673.7</ele>
        <time>2022-06-21T07:13:11Z</time>
      </trkpt>
      <trkpt lat="43.41898" lon="2.62887">
        <ele>673.8</ele>
        <time>2022-06-21T07:13:12Z</time>
      </trkpt>
      <trkpt lat="43.41897" lon="2.62887">
        <ele>673.8</ele>
        <time>2022-06-21T07:13:13Z</time>
      </trkpt>
      <trkpt lat="43.41897" lon="2.62887">
        <ele>673.8</ele>
        <time>2022-06-21T07:13:14Z</time>
      </trkpt>
      <trkpt lat="43.41895" lon="2.62886">
        <ele>673.8</ele>
        <time>2022-06-21T07:13:15Z</time>
      </trkpt>
      <trkpt lat="43.41894" lon="2.62886">
        <ele>673.9</ele>
        <time>2022-06-21T07:13:16Z</time>
      </trkpt>
      <trkpt lat="43.41893" lon="2.62885">
        <ele>673.9</ele>
        <time>2022-06-21T07:13:17Z</time>
      </trkpt>
      <trkpt lat="43.41891" lon="2.62884">
        <ele>674</ele>
        <time>2022-06-21T07:13:18Z</time>
      </trkpt>
      <trkpt lat="43.41891" lon="2.62884">
        <ele>674</ele>
        <time>2022-06-21T07:13:19Z</time>
      </trkpt>
      <trkpt lat="43.4189" lon="2.62884">
        <ele>674</ele>
        <time>2022-06-21T07:13:20Z</time>
      </trkpt>
      <trkpt lat="43.41889" lon="2.62883">
        <ele>674</ele>
        <time>2022-06-21T07:13:21Z</time>
      </trkpt>
      <trkpt lat="43.41888" lon="2.62883">
        <ele>674.1</ele>
        <time>2022-06-21T07:13:22Z</time>
      </trkpt>
      <trkpt lat="43.41887" lon="2.62883">
        <ele>674.1</ele>
        <time>2022-06-21T07:13:23Z</time>
      </trkpt>
      <trkpt lat="43.41886" lon="2.62882">
        <ele>674.1</ele>
        <time>2022-06-21T07:13:24Z</time>
      </trkpt>
      <trkpt lat="43.41884" lon="2.62882">
        <ele>674.1</ele>
        <time>2022-06-21T07:13:25Z</time>
      </trkpt>
      <trkpt lat="43.41884" lon="2.62881">
        <ele>674.2</ele>
        <time>2022-06-21T07:13:26Z</time>
      </trkpt>
      <trkpt lat="43.41883" lon="2.62881">
        <ele>674.2</ele>
        <time>2022-06-21T07:13:27Z</time>
      </trkpt>
      <trkpt lat="43.41882" lon="2.6288">
        <ele>674.2</ele>
        <time>2022-06-21T07:13:28Z</time>
      </trkpt>
      <trkpt lat="43.4188" lon="2.6288">
        <ele>674.2</ele>
        <time>2022-06-21T07:13:29Z</time>
      </trkpt>
      <trkpt lat="43.41879" lon="2.62879">
        <ele>674.2</ele>
        <time>2022-06-21T07:13:30Z</time>
      </trkpt>
      <trkpt lat="43.41878" lon="2.62878">
        <ele>674.2</ele>
        <time>2022-06-21T07:13:31Z</time>
      </trkpt>
      <trkpt lat="43.41877" lon="2.62878">
        <ele>674.3</ele>
        <time>2022-06-21T07:13:32Z</time>
      </trkpt>
      <trkpt lat="43.41876" lon="2.62877">
        <ele>674.3</ele>
        <time>2022-06-21T07:13:33Z</time>
      </trkpt>
      <trkpt lat="43.41875" lon="2.62877">
        <ele>674.3</ele>
        <time>2022-06-21T07:13:34Z</time>
      </trkpt>
      <trkpt lat="43.41874" lon="2.62876">
        <ele>674.3</ele>
        <time>2022-06-21T07:13:35Z</time>
      </trkpt>
      <trkpt lat="43.41872" lon="2.62876">
        <ele>674.3</ele>
        <time>2022-06-21T07:13:36Z</time>
      </trkpt>
      <trkpt lat="43.41871" lon="2.62876">
        <ele>674.3</ele>
        <time>2022-06-21T07:13:37Z</time>
      </trkpt>
      <trkpt lat="43.4187" lon="2.62876">
        <ele>674.3</ele>
        <time>2022-06-21T07:13:38Z</time>
      </trkpt>
      <trkpt lat="43.41869" lon="2.62875">
        <ele>674.4</ele>
        <time>2022-06-21T07:13:39Z</time>
      </trkpt>
      <trkpt lat="43.41868" lon="2.62874">
        <ele>674.4</ele>
        <time>2022-06-21T07:13:40Z</time>
      </trkpt>
      <trkpt lat="43.41867" lon="2.62874">
        <ele>674.4</ele>
        <time>2022-06-21T07:13:41Z</time>
      </trkpt>
      <trkpt lat="43.41866" lon="2.62873">
        <ele>674.4</ele>
        <time>2022-06-21T07:13:42Z</time>
      </trkpt>
      <trkpt lat="43.41865" lon="2.62873">
        <ele>674.4</ele>
        <time>2022-06-21T07:13:43Z</time>
      </trkpt>
      <trkpt lat="43.41864" lon="2.62873">
        <ele>674.4</ele>
        <time>2022-06-21T07:13:44Z</time>
      </trkpt>
      <trkpt lat="43.41863" lon="2.62872">
        <ele>674.4</ele>
        <time>2022-06-21T07:13:45Z</time>
      </trkpt>
      <trkpt lat="43.41862" lon="2.62872">
        <ele>674.4</ele>
        <time>2022-06-21T07:13:46Z</time>
      </trkpt>
      <trkpt lat="43.41861" lon="2.62872">
        <ele>674.4</ele>
        <time>2022-06-21T07:13:47Z</time>
      </trkpt>
      <trkpt lat="43.4186" lon="2.62872">
        <ele>674.4</ele>
        <time>2022-06-21T07:13:48Z</time>
      </trkpt>
      <trkpt lat="43.41859" lon="2.62871">
        <ele>674.4</ele>
        <time>2022-06-21T07:13:49Z</time>
      </trkpt>
      <trkpt lat="43.41858" lon="2.62871">
        <ele>674.5</ele>
        <time>2022-06-21T07:13:50Z</time>
      </trkpt>
      <trkpt lat="43.41857" lon="2.6287">
        <ele>674.5</ele>
        <time>2022-06-21T07:13:51Z</time>
      </trkpt>
      <trkpt lat="43.41856" lon="2.6287">
        <ele>674.5</ele>
        <time>2022-06-21T07:13:52Z</time>
      </trkpt>
      <trkpt lat="43.41855" lon="2.6287">
        <ele>674.5</ele>
        <time>2022-06-21T07:13:53Z</time>
      </trkpt>
      <trkpt lat="43.41854" lon="2.62869">
        <ele>674.5</ele>
        <time>2022-06-21T07:13:54Z</time>
      </trkpt>
      <trkpt lat="43.41852" lon="2.62868">
        <ele>674.5</ele>
        <time>2022-06-21T07:13:55Z</time>
      </trkpt>
      <trkpt lat="43.41851" lon="2.62868">
        <ele>674.5</ele>
        <time>2022-06-21T07:13:56Z</time>
      </trkpt>
      <trkpt lat="43.4185" lon="2.62867">
        <ele>674.5</ele>
        <time>2022-06-21T07:13:57Z</time>
      </trkpt>
      <trkpt lat="43.41849" lon="2.62867">
        <ele>674.5</ele>
        <time>2022-06-21T07:13:58Z</time>
      </trkpt>
      <trkpt lat="43.41849" lon="2.62866">
        <ele>674.6</ele>
        <time>2022-06-21T07:13:59Z</time>
      </trkpt>
      <trkpt lat="43.41848" lon="2.62866">
        <ele>674.6</ele>
        <time>2022-06-21T07:14:00Z</time>
      </trkpt>
      <trkpt lat="43.41847" lon="2.62865">
        <ele>674.6</ele>
        <time>2022-06-21T07:14:01Z</time>
      </trkpt>
      <trkpt lat="43.41846" lon="2.62865">
        <ele>674.6</ele>
        <time>2022-06-21T07:14:02Z</time>
      </trkpt>
      <trkpt lat="43.41845" lon="2.62865">
        <ele>674.6</ele>
        <time>2022-06-21T07:14:03Z</time>
      </trkpt>
      <trkpt lat="43.41845" lon="2.62864">
        <ele>674.6</ele>
        <time>2022-06-21T07:14:04Z</time>
      </trkpt>
      <trkpt lat="43.41844" lon="2.62864">
        <ele>674.6</ele>
        <time>2022-06-21T07:14:05Z</time>
      </trkpt>
      <trkpt lat="43.41843" lon="2.62863">
        <ele>674.7</ele>
        <time>2022-06-21T07:14:06Z</time>
      </trkpt>
      <trkpt lat="43.41842" lon="2.62863">
        <ele>674.7</ele>
        <time>2022-06-21T07:14:07Z</time>
      </trkpt>
      <trkpt lat="43.41841" lon="2.62862">
        <ele>674.7</ele>
        <time>2022-06-21T07:14:08Z</time>
      </trkpt>
      <trkpt lat="43.41839" lon="2.62861">
        <ele>674.7</ele>
        <time>2022-06-21T07:14:09Z</time>
      </trkpt>
      <trkpt lat="43.41837" lon="2.62861">
        <ele>674.8</ele>
        <time>2022-06-21T07:14:10Z</time>
      </trkpt>
      <trkpt lat="43.41837" lon="2.6286">
        <ele>674.8</ele>
        <time>2022-06-21T07:14:11Z</time>
      </trkpt>
      <trkpt lat="43.41836" lon="2.6286">
        <ele>674.8</ele>
        <time>2022-06-21T07:14:12Z</time>
      </trkpt>
      <trkpt lat="43.41835" lon="2.62859">
        <ele>674.8</ele>
        <time>2022-06-21T07:14:13Z</time>
      </trkpt>
      <trkpt lat="43.41834" lon="2.62859">
        <ele>674.8</ele>
        <time>2022-06-21T07:14:14Z</time>
      </trkpt>
      <trkpt lat="43.41833" lon="2.62858">
        <ele>674.9</ele>
        <time>2022-06-21T07:14:15Z</time>
      </trkpt>
      <trkpt lat="43.41832" lon="2.62858">
        <ele>674.9</ele>
        <time>2022-06-21T07:14:16Z</time>
      </trkpt>
      <trkpt lat="43.41831" lon="2.62857">
        <ele>674.9</ele>
        <time>2022-06-21T07:14:17Z</time>
      </trkpt>
      <trkpt lat="43.4183" lon="2.62857">
        <ele>675</ele>
        <time>2022-06-21T07:14:18Z</time>
      </trkpt>
      <trkpt lat="43.41829" lon="2.62856">
        <ele>675</ele>
        <time>2022-06-21T07:14:19Z</time>
      </trkpt>
      <trkpt lat="43.41828" lon="2.62855">
        <ele>675</ele>
        <time>2022-06-21T07:14:20Z</time>
      </trkpt>
      <trkpt lat="43.41826" lon="2.62855">
        <ele>675.1</ele>
        <time>2022-06-21T07:14:21Z</time>
      </trkpt>
      <trkpt lat="43.41825" lon="2.62854">
        <ele>675.1</ele>
        <time>2022-06-21T07:14:22Z</time>
      </trkpt>
      <trkpt lat="43.41824" lon="2.62854">
        <ele>675.2</ele>
        <time>2022-06-21T07:14:23Z</time>
      </trkpt>
      <trkpt lat="43.41824" lon="2.62853">
        <ele>675.2</ele>
        <time>2022-06-21T07:14:24Z</time>
      </trkpt>
      <trkpt lat="43.41822" lon="2.62853">
        <ele>675.2</ele>
        <time>2022-06-21T07:14:25Z</time>
      </trkpt>
      <trkpt lat="43.41821" lon="2.62852">
        <ele>675.3</ele>
        <time>2022-06-21T07:14:26Z</time>
      </trkpt>
      <trkpt lat="43.4182" lon="2.62851">
        <ele>675.3</ele>
        <time>2022-06-21T07:14:27Z</time>
      </trkpt>
      <trkpt lat="43.41819" lon="2.62851">
        <ele>675.4</ele>
        <time>2022-06-21T07:14:28Z</time>
      </trkpt>
      <trkpt lat="43.41818" lon="2.6285">
        <ele>675.4</ele>
        <time>2022-06-21T07:14:29Z</time>
      </trkpt>
      <trkpt lat="43.41817" lon="2.62849">
        <ele>675.5</ele>
        <time>2022-06-21T07:14:30Z</time>
      </trkpt>
      <trkpt lat="43.41816" lon="2.62848">
        <ele>675.5</ele>
        <time>2022-06-21T07:14:31Z</time>
      </trkpt>
      <trkpt lat="43.41815" lon="2.62847">
        <ele>675.6</ele>
        <time>2022-06-21T07:14:32Z</time>
      </trkpt>
      <trkpt lat="43.41814" lon="2.62847">
        <ele>675.6</ele>
        <time>2022-06-21T07:14:33Z</time>
      </trkpt>
      <trkpt lat="43.41812" lon="2.62845">
        <ele>675.7</ele>
        <time>2022-06-21T07:14:34Z</time>
      </trkpt>
      <trkpt lat="43.41812" lon="2.62845">
        <ele>675.8</ele>
        <time>2022-06-21T07:14:35Z</time>
      </trkpt>
      <trkpt lat="43.41811" lon="2.62844">
        <ele>675.8</ele>
        <time>2022-06-21T07:14:36Z</time>
      </trkpt>
      <trkpt lat="43.4181" lon="2.62844">
        <ele>675.8</ele>
        <time>2022-06-21T07:14:37Z</time>
      </trkpt>
      <trkpt lat="43.41809" lon="2.62843">
        <ele>675.9</ele>
        <time>2022-06-21T07:14:38Z</time>
      </trkpt>
      <trkpt lat="43.41808" lon="2.62842">
        <ele>675.9</ele>
        <time>2022-06-21T07:14:39Z</time>
      </trkpt>
      <trkpt lat="43.41806" lon="2.62841">
        <ele>676</ele>
        <time>2022-06-21T07:14:40Z</time>
      </trkpt>
      <trkpt lat="43.41805" lon="2.62841">
        <ele>676.1</ele>
        <time>2022-06-21T07:14:41Z</time>
      </trkpt>
      <trkpt lat="43.41804" lon="2.62841">
        <ele>676.1</ele>
        <time>2022-06-21T07:14:42Z</time>
      </trkpt>
      <trkpt lat="43.41803" lon="2.6284">
        <ele>676.1</ele>
        <time>2022-06-21T07:14:43Z</time>
      </trkpt>
      <trkpt lat="43.41802" lon="2.62839">
        <ele>676.2</ele>
        <time>2022-06-21T07:14:44Z</time>
      </trkpt>
      <trkpt lat="43.41801" lon="2.62839">
        <ele>676.2</ele>
        <time>2022-06-21T07:14:45Z</time>
      </trkpt>
      <trkpt lat="43.41799" lon="2.62838">
        <ele>676.3</ele>
        <time>2022-06-21T07:14:46Z</time>
      </trkpt>
      <trkpt lat="43.41799" lon="2.62837">
        <ele>676.3</ele>
        <time>2022-06-21T07:14:47Z</time>
      </trkpt>
      <trkpt lat="43.41798" lon="2.62837">
        <ele>676.3</ele>
        <time>2022-06-21T07:14:48Z</time>
      </trkpt>
      <trkpt lat="43.41797" lon="2.62836">
        <ele>676.4</ele>
        <time>2022-06-21T07:14:49Z</time>
      </trkpt>
      <trkpt lat="43.41796" lon="2.62836">
        <ele>676.4</ele>
        <time>2022-06-21T07:14:50Z</time>
      </trkpt>
      <trkpt lat="43.41795" lon="2.62835">
        <ele>676.4</ele>
        <time>2022-06-21T07:14:51Z</time>
      </trkpt>
      <trkpt lat="43.41793" lon="2.62834">
        <ele>676.5</ele>
        <time>2022-06-21T07:14:52Z</time>
      </trkpt>
      <trkpt lat="43.41792" lon="2.62834">
        <ele>676.5</ele>
        <time>2022-06-21T07:14:53Z</time>
      </trkpt>
      <trkpt lat="43.41791" lon="2.62833">
        <ele>676.5</ele>
        <time>2022-06-21T07:14:54Z</time>
      </trkpt>
      <trkpt lat="43.4179" lon="2.62832">
        <ele>676.6</ele>
        <time>2022-06-21T07:14:55Z</time>
      </trkpt>
      <trkpt lat="43.41789" lon="2.62832">
        <ele>676.6</ele>
        <time>2022-06-21T07:14:56Z</time>
      </trkpt>
      <trkpt lat="43.41788" lon="2.62831">
        <ele>676.6</ele>
        <time>2022-06-21T07:14:57Z</time>
      </trkpt>
      <trkpt lat="43.41787" lon="2.62831">
        <ele>676.7</ele>
        <time>2022-06-21T07:14:58Z</time>
      </trkpt>
      <trkpt lat="43.41786" lon="2.6283">
        <ele>676.7</ele>
        <time>2022-06-21T07:14:59Z</time>
      </trkpt>
      <trkpt lat="43.41785" lon="2.6283">
        <ele>676.7</ele>
        <time>2022-06-21T07:15:00Z</time>
      </trkpt>
      <trkpt lat="43.41784" lon="2.62829">
        <ele>676.7</ele>
        <time>2022-06-21T07:15:01Z</time>
      </trkpt>
      <trkpt lat="43.41783" lon="2.62828">
        <ele>676.8</ele>
        <time>2022-06-21T07:15:02Z</time>
      </trkpt>
      <trkpt lat="43.41782" lon="2.62828">
        <ele>676.8</ele>
        <time>2022-06-21T07:15:03Z</time>
      </trkpt>
      <trkpt lat="43.41781" lon="2.62827">
        <ele>676.8</ele>
        <time>2022-06-21T07:15:04Z</time>
      </trkpt>
      <trkpt lat="43.4178" lon="2.62826">
        <ele>676.9</ele>
        <time>2022-06-21T07:15:05Z</time>
      </trkpt>
      <trkpt lat="43.41779" lon="2.62825">
        <ele>676.9</ele>
        <time>2022-06-21T07:15:06Z</time>
      </trkpt>
      <trkpt lat="43.41778" lon="2.62824">
        <ele>676.9</ele>
        <time>2022-06-21T07:15:07Z</time>
      </trkpt>
      <trkpt lat="43.41778" lon="2.62823">
        <ele>677</ele>
        <time>2022-06-21T07:15:08Z</time>
      </trkpt>
      <trkpt lat="43.41776" lon="2.62823">
        <ele>677</ele>
        <time>2022-06-21T07:15:09Z</time>
      </trkpt>
      <trkpt lat="43.41775" lon="2.62822">
        <ele>677.1</ele>
        <time>2022-06-21T07:15:10Z</time>
      </trkpt>
      <trkpt lat="43.41774" lon="2.62822">
        <ele>677.1</ele>
        <time>2022-06-21T07:15:11Z</time>
      </trkpt>
      <trkpt lat="43.41773" lon="2.62821">
        <ele>677.1</ele>
        <time>2022-06-21T07:15:12Z</time>
      </trkpt>
      <trkpt lat="43.41773" lon="2.6282">
        <ele>677.2</ele>
        <time>2022-06-21T07:15:13Z</time>
      </trkpt>
      <trkpt lat="43.41772" lon="2.6282">
        <ele>677.2</ele>
        <time>2022-06-21T07:15:14Z</time>
      </trkpt>
      <trkpt lat="43.41771" lon="2.62819">
        <ele>677.2</ele>
        <time>2022-06-21T07:15:15Z</time>
      </trkpt>
      <trkpt lat="43.41769" lon="2.62818">
        <ele>677.3</ele>
        <time>2022-06-21T07:15:16Z</time>
      </trkpt>
      <trkpt lat="43.41769" lon="2.62818">
        <ele>677.3</ele>
        <time>2022-06-21T07:15:17Z</time>
      </trkpt>
      <trkpt lat="43.41768" lon="2.62817">
        <ele>677.4</ele>
        <time>2022-06-21T07:15:18Z</time>
      </trkpt>
      <trkpt lat="43.41767" lon="2.62817">
        <ele>677.4</ele>
        <time>2022-06-21T07:15:19Z</time>
      </trkpt>
      <trkpt lat="43.41766" lon="2.62816">
        <ele>677.4</ele>
        <time>2022-06-21T07:15:20Z</time>
      </trkpt>
      <trkpt lat="43.41765" lon="2.62816">
        <ele>677.5</ele>
        <time>2022-06-21T07:15:21Z</time>
      </trkpt>
      <trkpt lat="43.41765" lon="2.62815">
        <ele>677.5</ele>
        <time>2022-06-21T07:15:22Z</time>
      </trkpt>
      <trkpt lat="43.41764" lon="2.62815">
        <ele>677.6</ele>
        <time>2022-06-21T07:15:23Z</time>
      </trkpt>
      <trkpt lat="43.41763" lon="2.62814">
        <ele>677.6</ele>
        <time>2022-06-21T07:15:24Z</time>
      </trkpt>
      <trkpt lat="43.41762" lon="2.62813">
        <ele>677.7</ele>
        <time>2022-06-21T07:15:25Z</time>
      </trkpt>
      <trkpt lat="43.41761" lon="2.62813">
        <ele>677.8</ele>
        <time>2022-06-21T07:15:26Z</time>
      </trkpt>
      <trkpt lat="43.4176" lon="2.62812">
        <ele>677.8</ele>
        <time>2022-06-21T07:15:27Z</time>
      </trkpt>
      <trkpt lat="43.41759" lon="2.62812">
        <ele>677.9</ele>
        <time>2022-06-21T07:15:28Z</time>
      </trkpt>
      <trkpt lat="43.41758" lon="2.62812">
        <ele>678</ele>
        <time>2022-06-21T07:15:29Z</time>
      </trkpt>
      <trkpt lat="43.41757" lon="2.62811">
        <ele>678</ele>
        <time>2022-06-21T07:15:30Z</time>
      </trkpt>
      <trkpt lat="43.41756" lon="2.62811">
        <ele>678.1</ele>
        <time>2022-06-21T07:15:31Z</time>
      </trkpt>
      <trkpt lat="43.41754" lon="2.6281">
        <ele>678.2</ele>
        <time>2022-06-21T07:15:32Z</time>
      </trkpt>
      <trkpt lat="43.41754" lon="2.6281">
        <ele>678.2</ele>
        <time>2022-06-21T07:15:33Z</time>
      </trkpt>
      <trkpt lat="43.41753" lon="2.62809">
        <ele>678.3</ele>
        <time>2022-06-21T07:15:34Z</time>
      </trkpt>
      <trkpt lat="43.41752" lon="2.62809">
        <ele>678.4</ele>
        <time>2022-06-21T07:15:35Z</time>
      </trkpt>
      <trkpt lat="43.41751" lon="2.62809">
        <ele>678.5</ele>
        <time>2022-06-21T07:15:36Z</time>
      </trkpt>
      <trkpt lat="43.4175" lon="2.62809">
        <ele>678.6</ele>
        <time>2022-06-21T07:15:37Z</time>
      </trkpt>
      <trkpt lat="43.41748" lon="2.62809">
        <ele>678.7</ele>
        <time>2022-06-21T07:15:38Z</time>
      </trkpt>
      <trkpt lat="43.41747" lon="2.62809">
        <ele>678.8</ele>
        <time>2022-06-21T07:15:39Z</time>
      </trkpt>
      <trkpt lat="43.41746" lon="2.62808">
        <ele>678.9</ele>
        <time>2022-06-21T07:15:40Z</time>
      </trkpt>
      <trkpt lat="43.41745" lon="2.62808">
        <ele>678.9</ele>
        <time>2022-06-21T07:15:41Z</time>
      </trkpt>
      <trkpt lat="43.41744" lon="2.62808">
        <ele>679</ele>
        <time>2022-06-21T07:15:42Z</time>
      </trkpt>
      <trkpt lat="43.41743" lon="2.62808">
        <ele>679.1</ele>
        <time>2022-06-21T07:15:43Z</time>
      </trkpt>
      <trkpt lat="43.41742" lon="2.62808">
        <ele>679.2</ele>
        <time>2022-06-21T07:15:44Z</time>
      </trkpt>
      <trkpt lat="43.41742" lon="2.62809">
        <ele>679.2</ele>
        <time>2022-06-21T07:15:45Z</time>
      </trkpt>
      <trkpt lat="43.41741" lon="2.62809">
        <ele>679.3</ele>
        <time>2022-06-21T07:15:46Z</time>
      </trkpt>
      <trkpt lat="43.4174" lon="2.62809">
        <ele>679.4</ele>
        <time>2022-06-21T07:15:47Z</time>
      </trkpt>
      <trkpt lat="43.41739" lon="2.6281">
        <ele>679.4</ele>
        <time>2022-06-21T07:15:48Z</time>
      </trkpt>
      <trkpt lat="43.41738" lon="2.6281">
        <ele>679.5</ele>
        <time>2022-06-21T07:15:49Z</time>
      </trkpt>
      <trkpt lat="43.41737" lon="2.62811">
        <ele>679.6</ele>
        <time>2022-06-21T07:15:50Z</time>
      </trkpt>
      <trkpt lat="43.41736" lon="2.62811">
        <ele>679.7</ele>
        <time>2022-06-21T07:15:51Z</time>
      </trkpt>
      <trkpt lat="43.41735" lon="2.62812">
        <ele>679.8</ele>
        <time>2022-06-21T07:15:52Z</time>
      </trkpt>
      <trkpt lat="43.41734" lon="2.62813">
        <ele>679.8</ele>
        <time>2022-06-21T07:15:53Z</time>
      </trkpt>
      <trkpt lat="43.41733" lon="2.62814">
        <ele>679.9</ele>
        <time>2022-06-21T07:15:54Z</time>
      </trkpt>
      <trkpt lat="43.41733" lon="2.62815">
        <ele>680</ele>
        <time>2022-06-21T07:15:55Z</time>
      </trkpt>
      <trkpt lat="43.41732" lon="2.62815">
        <ele>680</ele>
        <time>2022-06-21T07:15:56Z</time>
      </trkpt>
      <trkpt lat="43.41732" lon="2.62816">
        <ele>680.1</ele>
        <time>2022-06-21T07:15:57Z</time>
      </trkpt>
      <trkpt lat="43.41731" lon="2.62817">
        <ele>680.1</ele>
        <time>2022-06-21T07:15:58Z</time>
      </trkpt>
      <trkpt lat="43.4173" lon="2.62818">
        <ele>680.2</ele>
        <time>2022-06-21T07:15:59Z</time>
      </trkpt>
      <trkpt lat="43.41729" lon="2.62819">
        <ele>680.2</ele>
        <time>2022-06-21T07:16:00Z</time>
      </trkpt>
      <trkpt lat="43.41729" lon="2.6282">
        <ele>680.3</ele>
        <time>2022-06-21T07:16:01Z</time>
      </trkpt>
      <trkpt lat="43.41728" lon="2.62822">
        <ele>680.3</ele>
        <time>2022-06-21T07:16:02Z</time>
      </trkpt>
      <trkpt lat="43.41728" lon="2.62823">
        <ele>680.3</ele>
        <time>2022-06-21T07:16:03Z</time>
      </trkpt>
      <trkpt lat="43.41728" lon="2.62824">
        <ele>680.4</ele>
        <time>2022-06-21T07:16:04Z</time>
      </trkpt>
      <trkpt lat="43.41727" lon="2.62826">
        <ele>680.4</ele>
        <time>2022-06-21T07:16:05Z</time>
      </trkpt>
      <trkpt lat="43.41727" lon="2.62827">
        <ele>680.4</ele>
        <time>2022-06-21T07:16:06Z</time>
      </trkpt>
      <trkpt lat="43.41726" lon="2.62829">
        <ele>680.4</ele>
        <time>2022-06-21T07:16:07Z</time>
      </trkpt>
      <trkpt lat="43.41726" lon="2.62829">
        <ele>680.4</ele>
        <time>2022-06-21T07:16:08Z</time>
      </trkpt>
      <trkpt lat="43.41726" lon="2.62831">
        <ele>680.4</ele>
        <time>2022-06-21T07:16:09Z</time>
      </trkpt>
      <trkpt lat="43.41726" lon="2.62832">
        <ele>680.5</ele>
        <time>2022-06-21T07:16:10Z</time>
      </trkpt>
      <trkpt lat="43.41726" lon="2.62834">
        <ele>680.5</ele>
        <time>2022-06-21T07:16:11Z</time>
      </trkpt>
      <trkpt lat="43.41725" lon="2.62835">
        <ele>680.4</ele>
        <time>2022-06-21T07:16:12Z</time>
      </trkpt>
      <trkpt lat="43.41725" lon="2.62837">
        <ele>680.4</ele>
        <time>2022-06-21T07:16:13Z</time>
      </trkpt>
      <trkpt lat="43.41724" lon="2.62838">
        <ele>680.4</ele>
        <time>2022-06-21T07:16:14Z</time>
      </trkpt>
      <trkpt lat="43.41724" lon="2.6284">
        <ele>680.4</ele>
        <time>2022-06-21T07:16:15Z</time>
      </trkpt>
      <trkpt lat="43.41723" lon="2.62842">
        <ele>680.3</ele>
        <time>2022-06-21T07:16:16Z</time>
      </trkpt>
      <trkpt lat="43.41723" lon="2.62843">
        <ele>680.3</ele>
        <time>2022-06-21T07:16:17Z</time>
      </trkpt>
      <trkpt lat="43.41723" lon="2.62844">
        <ele>680.3</ele>
        <time>2022-06-21T07:16:18Z</time>
      </trkpt>
      <trkpt lat="43.41723" lon="2.62845">
        <ele>680.3</ele>
        <time>2022-06-21T07:16:19Z</time>
      </trkpt>
      <trkpt lat="43.41723" lon="2.62846">
        <ele>680.2</ele>
        <time>2022-06-21T07:16:20Z</time>
      </trkpt>
      <trkpt lat="43.41723" lon="2.62847">
        <ele>680.2</ele>
        <time>2022-06-21T07:16:21Z</time>
      </trkpt>
      <trkpt lat="43.41723" lon="2.62847">
        <ele>680.2</ele>
        <time>2022-06-21T07:16:22Z</time>
      </trkpt>
      <trkpt lat="43.41722" lon="2.62849">
        <ele>680.1</ele>
        <time>2022-06-21T07:16:23Z</time>
      </trkpt>
      <trkpt lat="43.41722" lon="2.62851">
        <ele>680</ele>
        <time>2022-06-21T07:16:24Z</time>
      </trkpt>
      <trkpt lat="43.41722" lon="2.62853">
        <ele>679.9</ele>
        <time>2022-06-21T07:16:25Z</time>
      </trkpt>
      <trkpt lat="43.41722" lon="2.62855">
        <ele>679.8</ele>
        <time>2022-06-21T07:16:26Z</time>
      </trkpt>
      <trkpt lat="43.41722" lon="2.62856">
        <ele>679.7</ele>
        <time>2022-06-21T07:16:27Z</time>
      </trkpt>
      <trkpt lat="43.41722" lon="2.62858">
        <ele>679.6</ele>
        <time>2022-06-21T07:16:28Z</time>
      </trkpt>
      <trkpt lat="43.41722" lon="2.6286">
        <ele>679.4</ele>
        <time>2022-06-21T07:16:29Z</time>
      </trkpt>
      <trkpt lat="43.41722" lon="2.62861">
        <ele>679.4</ele>
        <time>2022-06-21T07:16:30Z</time>
      </trkpt>
      <trkpt lat="43.41722" lon="2.62863">
        <ele>679.3</ele>
        <time>2022-06-21T07:16:31Z</time>
      </trkpt>
      <trkpt lat="43.41722" lon="2.62863">
        <ele>679.2</ele>
        <time>2022-06-21T07:16:32Z</time>
      </trkpt>
      <trkpt lat="43.41722" lon="2.62865">
        <ele>679.1</ele>
        <time>2022-06-21T07:16:33Z</time>
      </trkpt>
      <trkpt lat="43.41722" lon="2.62866">
        <ele>679</ele>
        <time>2022-06-21T07:16:34Z</time>
      </trkpt>
      <trkpt lat="43.41722" lon="2.62868">
        <ele>678.9</ele>
        <time>2022-06-21T07:16:35Z</time>
      </trkpt>
      <trkpt lat="43.41723" lon="2.62869">
        <ele>678.8</ele>
        <time>2022-06-21T07:16:36Z</time>
      </trkpt>
      <trkpt lat="43.41722" lon="2.62871">
        <ele>678.6</ele>
        <time>2022-06-21T07:16:37Z</time>
      </trkpt>
      <trkpt lat="43.41722" lon="2.62872">
        <ele>678.5</ele>
        <time>2022-06-21T07:16:38Z</time>
      </trkpt>
      <trkpt lat="43.41722" lon="2.62873">
        <ele>678.4</ele>
        <time>2022-06-21T07:16:39Z</time>
      </trkpt>
      <trkpt lat="43.41722" lon="2.62874">
        <ele>678.3</ele>
        <time>2022-06-21T07:16:40Z</time>
      </trkpt>
      <trkpt lat="43.41722" lon="2.62875">
        <ele>678.2</ele>
        <time>2022-06-21T07:16:41Z</time>
      </trkpt>
      <trkpt lat="43.41723" lon="2.62877">
        <ele>678</ele>
        <time>2022-06-21T07:16:42Z</time>
      </trkpt>
      <trkpt lat="43.41723" lon="2.62879">
        <ele>677.9</ele>
        <time>2022-06-21T07:16:43Z</time>
      </trkpt>
      <trkpt lat="43.41723" lon="2.6288">
        <ele>677.8</ele>
        <time>2022-06-21T07:16:44Z</time>
      </trkpt>
      <trkpt lat="43.41723" lon="2.62881">
        <ele>677.7</ele>
        <time>2022-06-21T07:16:45Z</time>
      </trkpt>
      <trkpt lat="43.41723" lon="2.62882">
        <ele>677.5</ele>
        <time>2022-06-21T07:16:46Z</time>
      </trkpt>
      <trkpt lat="43.41723" lon="2.62883">
        <ele>677.4</ele>
        <time>2022-06-21T07:16:47Z</time>
      </trkpt>
      <trkpt lat="43.41724" lon="2.62885">
        <ele>677.3</ele>
        <time>2022-06-21T07:16:48Z</time>
      </trkpt>
      <trkpt lat="43.41724" lon="2.62886">
        <ele>677.1</ele>
        <time>2022-06-21T07:16:49Z</time>
      </trkpt>
      <trkpt lat="43.41724" lon="2.62888">
        <ele>677</ele>
        <time>2022-06-21T07:16:50Z</time>
      </trkpt>
      <trkpt lat="43.41725" lon="2.62889">
        <ele>676.8</ele>
        <time>2022-06-21T07:16:51Z</time>
      </trkpt>
      <trkpt lat="43.41725" lon="2.62892">
        <ele>676.6</ele>
        <time>2022-06-21T07:16:52Z</time>
      </trkpt>
      <trkpt lat="43.41725" lon="2.62893">
        <ele>676.5</ele>
        <time>2022-06-21T07:16:53Z</time>
      </trkpt>
      <trkpt lat="43.41725" lon="2.62894">
        <ele>676.4</ele>
        <time>2022-06-21T07:16:54Z</time>
      </trkpt>
      <trkpt lat="43.41725" lon="2.62895">
        <ele>676.3</ele>
        <time>2022-06-21T07:16:55Z</time>
      </trkpt>
      <trkpt lat="43.41725" lon="2.62896">
        <ele>676.1</ele>
        <time>2022-06-21T07:16:56Z</time>
      </trkpt>
      <trkpt lat="43.41724" lon="2.62897">
        <ele>675.9</ele>
        <time>2022-06-21T07:16:57Z</time>
      </trkpt>
      <trkpt lat="43.41724" lon="2.62899">
        <ele>675.7</ele>
        <time>2022-06-21T07:16:58Z</time>
      </trkpt>
      <trkpt lat="43.41723" lon="2.629">
        <ele>675.5</ele>
        <time>2022-06-21T07:16:59Z</time>
      </trkpt>
      <trkpt lat="43.41722" lon="2.62902">
        <ele>675.4</ele>
        <time>2022-06-21T07:17:00Z</time>
      </trkpt>
      <trkpt lat="43.41722" lon="2.62903">
        <ele>675.2</ele>
        <time>2022-06-21T07:17:01Z</time>
      </trkpt>
      <trkpt lat="43.4172" lon="2.62904">
        <ele>675</ele>
        <time>2022-06-21T07:17:02Z</time>
      </trkpt>
      <trkpt lat="43.4172" lon="2.62904">
        <ele>674.9</ele>
        <time>2022-06-21T07:17:03Z</time>
      </trkpt>
      <trkpt lat="43.41719" lon="2.62904">
        <ele>674.7</ele>
        <time>2022-06-21T07:17:04Z</time>
      </trkpt>
      <trkpt lat="43.41718" lon="2.62904">
        <ele>674.6</ele>
        <time>2022-06-21T07:17:05Z</time>
      </trkpt>
      <trkpt lat="43.41717" lon="2.62904">
        <ele>674.4</ele>
        <time>2022-06-21T07:17:06Z</time>
      </trkpt>
      <trkpt lat="43.41716" lon="2.62904">
        <ele>674.3</ele>
        <time>2022-06-21T07:17:07Z</time>
      </trkpt>
      <trkpt lat="43.41715" lon="2.62904">
        <ele>674.1</ele>
        <time>2022-06-21T07:17:08Z</time>
      </trkpt>
      <trkpt lat="43.41714" lon="2.62904">
        <ele>674</ele>
        <time>2022-06-21T07:17:09Z</time>
      </trkpt>
      <trkpt lat="43.41714" lon="2.62903">
        <ele>673.9</ele>
        <time>2022-06-21T07:17:10Z</time>
      </trkpt>
      <trkpt lat="43.41713" lon="2.62903">
        <ele>673.7</ele>
        <time>2022-06-21T07:17:11Z</time>
      </trkpt>
      <trkpt lat="43.41712" lon="2.62902">
        <ele>673.6</ele>
        <time>2022-06-21T07:17:12Z</time>
      </trkpt>
      <trkpt lat="43.41711" lon="2.62901">
        <ele>673.4</ele>
        <time>2022-06-21T07:17:13Z</time>
      </trkpt>
      <trkpt lat="43.4171" lon="2.629">
        <ele>673.3</ele>
        <time>2022-06-21T07:17:14Z</time>
      </trkpt>
      <trkpt lat="43.4171" lon="2.629">
        <ele>673.1</ele>
        <time>2022-06-21T07:17:15Z</time>
      </trkpt>
      <trkpt lat="43.41709" lon="2.62899">
        <ele>673</ele>
        <time>2022-06-21T07:17:16Z</time>
      </trkpt>
      <trkpt lat="43.41708" lon="2.62898">
        <ele>672.8</ele>
        <time>2022-06-21T07:17:17Z</time>
      </trkpt>
      <trkpt lat="43.41706" lon="2.62897">
        <ele>672.5</ele>
        <time>2022-06-21T07:17:18Z</time>
      </trkpt>
      <trkpt lat="43.41705" lon="2.62897">
        <ele>672.3</ele>
        <time>2022-06-21T07:17:19Z</time>
      </trkpt>
      <trkpt lat="43.41704" lon="2.62896">
        <ele>672.2</ele>
        <time>2022-06-21T07:17:20Z</time>
      </trkpt>
      <trkpt lat="43.41704" lon="2.62896">
        <ele>672.1</ele>
        <time>2022-06-21T07:17:21Z</time>
      </trkpt>
      <trkpt lat="43.41703" lon="2.62895">
        <ele>672</ele>
        <time>2022-06-21T07:17:22Z</time>
      </trkpt>
      <trkpt lat="43.41702" lon="2.62895">
        <ele>671.8</ele>
        <time>2022-06-21T07:17:23Z</time>
      </trkpt>
      <trkpt lat="43.41701" lon="2.62895">
        <ele>671.7</ele>
        <time>2022-06-21T07:17:24Z</time>
      </trkpt>
      <trkpt lat="43.41701" lon="2.62895">
        <ele>671.7</ele>
        <time>2022-06-21T07:17:25Z</time>
      </trkpt>
      <trkpt lat="43.417" lon="2.62894">
        <ele>671.6</ele>
        <time>2022-06-21T07:17:26Z</time>
      </trkpt>
      <trkpt lat="43.41699" lon="2.62894">
        <ele>671.4</ele>
        <time>2022-06-21T07:17:27Z</time>
      </trkpt>
      <trkpt lat="43.41699" lon="2.62894">
        <ele>671.3</ele>
        <time>2022-06-21T07:17:28Z</time>
      </trkpt>
      <trkpt lat="43.41697" lon="2.62893">
        <ele>671.1</ele>
        <time>2022-06-21T07:17:29Z</time>
      </trkpt>
      <trkpt lat="43.41697" lon="2.62893">
        <ele>671</ele>
        <time>2022-06-21T07:17:30Z</time>
      </trkpt>
      <trkpt lat="43.41696" lon="2.62892">
        <ele>670.9</ele>
        <time>2022-06-21T07:17:31Z</time>
      </trkpt>
      <trkpt lat="43.41695" lon="2.62892">
        <ele>670.8</ele>
        <time>2022-06-21T07:17:32Z</time>
      </trkpt>
      <trkpt lat="43.41694" lon="2.62892">
        <ele>670.6</ele>
        <time>2022-06-21T07:17:33Z</time>
      </trkpt>
      <trkpt lat="43.41693" lon="2.62891">
        <ele>670.5</ele>
        <time>2022-06-21T07:17:34Z</time>
      </trkpt>
      <trkpt lat="43.41692" lon="2.62891">
        <ele>670.3</ele>
        <time>2022-06-21T07:17:35Z</time>
      </trkpt>
      <trkpt lat="43.41691" lon="2.6289">
        <ele>670.1</ele>
        <time>2022-06-21T07:17:36Z</time>
      </trkpt>
      <trkpt lat="43.4169" lon="2.6289">
        <ele>670</ele>
        <time>2022-06-21T07:17:37Z</time>
      </trkpt>
      <trkpt lat="43.41689" lon="2.6289">
        <ele>669.8</ele>
        <time>2022-06-21T07:17:38Z</time>
      </trkpt>
      <trkpt lat="43.41688" lon="2.62889">
        <ele>669.7</ele>
        <time>2022-06-21T07:17:39Z</time>
      </trkpt>
      <trkpt lat="43.41687" lon="2.62889">
        <ele>669.6</ele>
        <time>2022-06-21T07:17:40Z</time>
      </trkpt>
      <trkpt lat="43.41686" lon="2.62889">
        <ele>669.5</ele>
        <time>2022-06-21T07:17:41Z</time>
      </trkpt>
      <trkpt lat="43.41685" lon="2.62888">
        <ele>669.3</ele>
        <time>2022-06-21T07:17:42Z</time>
      </trkpt>
      <trkpt lat="43.41684" lon="2.62888">
        <ele>669.2</ele>
        <time>2022-06-21T07:17:43Z</time>
      </trkpt>
      <trkpt lat="43.41682" lon="2.62887">
        <ele>669</ele>
        <time>2022-06-21T07:17:44Z</time>
      </trkpt>
      <trkpt lat="43.41682" lon="2.62887">
        <ele>668.9</ele>
        <time>2022-06-21T07:17:45Z</time>
      </trkpt>
      <trkpt lat="43.4168" lon="2.62886">
        <ele>668.8</ele>
        <time>2022-06-21T07:17:46Z</time>
      </trkpt>
      <trkpt lat="43.41679" lon="2.62886">
        <ele>668.6</ele>
        <time>2022-06-21T07:17:47Z</time>
      </trkpt>
      <trkpt lat="43.41678" lon="2.62885">
        <ele>668.5</ele>
        <time>2022-06-21T07:17:48Z</time>
      </trkpt>
      <trkpt lat="43.41678" lon="2.62884">
        <ele>668.4</ele>
        <time>2022-06-21T07:17:49Z</time>
      </trkpt>
      <trkpt lat="43.41677" lon="2.62884">
        <ele>668.3</ele>
        <time>2022-06-21T07:17:50Z</time>
      </trkpt>
      <trkpt lat="43.41677" lon="2.62883">
        <ele>668.3</ele>
        <time>2022-06-21T07:17:51Z</time>
      </trkpt>
      <trkpt lat="43.41676" lon="2.62883">
        <ele>668.2</ele>
        <time>2022-06-21T07:17:52Z</time>
      </trkpt>
      <trkpt lat="43.41674" lon="2.62881">
        <ele>668</ele>
        <time>2022-06-21T07:17:53Z</time>
      </trkpt>
      <trkpt lat="43.41674" lon="2.62881">
        <ele>667.9</ele>
        <time>2022-06-21T07:17:54Z</time>
      </trkpt>
      <trkpt lat="43.41673" lon="2.6288">
        <ele>667.8</ele>
        <time>2022-06-21T07:17:55Z</time>
      </trkpt>
      <trkpt lat="43.41672" lon="2.62879">
        <ele>667.6</ele>
        <time>2022-06-21T07:17:56Z</time>
      </trkpt>
      <trkpt lat="43.41671" lon="2.62879">
        <ele>667.5</ele>
        <time>2022-06-21T07:17:57Z</time>
      </trkpt>
      <trkpt lat="43.4167" lon="2.62878">
        <ele>667.4</ele>
        <time>2022-06-21T07:17:58Z</time>
      </trkpt>
      <trkpt lat="43.41669" lon="2.62877">
        <ele>667.3</ele>
        <time>2022-06-21T07:17:59Z</time>
      </trkpt>
      <trkpt lat="43.41668" lon="2.62877">
        <ele>667.1</ele>
        <time>2022-06-21T07:18:00Z</time>
      </trkpt>
      <trkpt lat="43.41667" lon="2.62876">
        <ele>667</ele>
        <time>2022-06-21T07:18:01Z</time>
      </trkpt>
      <trkpt lat="43.41666" lon="2.62875">
        <ele>666.9</ele>
        <time>2022-06-21T07:18:02Z</time>
      </trkpt>
      <trkpt lat="43.41665" lon="2.62874">
        <ele>666.8</ele>
        <time>2022-06-21T07:18:03Z</time>
      </trkpt>
      <trkpt lat="43.41665" lon="2.62874">
        <ele>666.7</ele>
        <time>2022-06-21T07:18:04Z</time>
      </trkpt>
      <trkpt lat="43.41664" lon="2.62873">
        <ele>666.6</ele>
        <time>2022-06-21T07:18:05Z</time>
      </trkpt>
      <trkpt lat="43.41663" lon="2.62872">
        <ele>666.5</ele>
        <time>2022-06-21T07:18:06Z</time>
      </trkpt>
      <trkpt lat="43.41661" lon="2.62872">
        <ele>666.4</ele>
        <time>2022-06-21T07:18:07Z</time>
      </trkpt>
      <trkpt lat="43.4166" lon="2.62871">
        <ele>666.2</ele>
        <time>2022-06-21T07:18:08Z</time>
      </trkpt>
      <trkpt lat="43.41659" lon="2.62871">
        <ele>666.1</ele>
        <time>2022-06-21T07:18:09Z</time>
      </trkpt>
      <trkpt lat="43.41658" lon="2.6287">
        <ele>666</ele>
        <time>2022-06-21T07:18:10Z</time>
      </trkpt>
      <trkpt lat="43.41657" lon="2.6287">
        <ele>665.9</ele>
        <time>2022-06-21T07:18:11Z</time>
      </trkpt>
      <trkpt lat="43.41656" lon="2.62869">
        <ele>665.8</ele>
        <time>2022-06-21T07:18:12Z</time>
      </trkpt>
      <trkpt lat="43.41655" lon="2.62869">
        <ele>665.7</ele>
        <time>2022-06-21T07:18:13Z</time>
      </trkpt>
      <trkpt lat="43.41655" lon="2.62868">
        <ele>665.6</ele>
        <time>2022-06-21T07:18:14Z</time>
      </trkpt>
      <trkpt lat="43.41654" lon="2.62868">
        <ele>665.6</ele>
        <time>2022-06-21T07:18:15Z</time>
      </trkpt>
      <trkpt lat="43.41654" lon="2.62868">
        <ele>665.5</ele>
        <time>2022-06-21T07:18:16Z</time>
      </trkpt>
      <trkpt lat="43.41653" lon="2.62867">
        <ele>665.4</ele>
        <time>2022-06-21T07:18:17Z</time>
      </trkpt>
      <trkpt lat="43.41651" lon="2.62866">
        <ele>665.2</ele>
        <time>2022-06-21T07:18:18Z</time>
      </trkpt>
      <trkpt lat="43.4165" lon="2.62865">
        <ele>665.1</ele>
        <time>2022-06-21T07:18:19Z</time>
      </trkpt>
      <trkpt lat="43.41649" lon="2.62865">
        <ele>665</ele>
        <time>2022-06-21T07:18:20Z</time>
      </trkpt>
      <trkpt lat="43.41649" lon="2.62864">
        <ele>664.9</ele>
        <time>2022-06-21T07:18:21Z</time>
      </trkpt>
      <trkpt lat="43.41648" lon="2.62864">
        <ele>664.7</ele>
        <time>2022-06-21T07:18:22Z</time>
      </trkpt>
      <trkpt lat="43.41647" lon="2.62863">
        <ele>664.6</ele>
        <time>2022-06-21T07:18:23Z</time>
      </trkpt>
      <trkpt lat="43.41646" lon="2.62862">
        <ele>664.5</ele>
        <time>2022-06-21T07:18:24Z</time>
      </trkpt>
      <trkpt lat="43.41645" lon="2.62861">
        <ele>664.4</ele>
        <time>2022-06-21T07:18:25Z</time>
      </trkpt>
      <trkpt lat="43.41644" lon="2.62861">
        <ele>664.2</ele>
        <time>2022-06-21T07:18:26Z</time>
      </trkpt>
      <trkpt lat="43.41642" lon="2.62861">
        <ele>663.9</ele>
        <time>2022-06-21T07:18:27Z</time>
      </trkpt>
      <trkpt lat="43.41642" lon="2.62861">
        <ele>663.8</ele>
        <time>2022-06-21T07:18:28Z</time>
      </trkpt>
      <trkpt lat="43.41641" lon="2.6286">
        <ele>663.7</ele>
        <time>2022-06-21T07:18:29Z</time>
      </trkpt>
      <trkpt lat="43.4164" lon="2.6286">
        <ele>663.5</ele>
        <time>2022-06-21T07:18:30Z</time>
      </trkpt>
      <trkpt lat="43.41639" lon="2.62859">
        <ele>663.4</ele>
        <time>2022-06-21T07:18:31Z</time>
      </trkpt>
      <trkpt lat="43.41638" lon="2.62859">
        <ele>663.2</ele>
        <time>2022-06-21T07:18:32Z</time>
      </trkpt>
      <trkpt lat="43.41637" lon="2.62858">
        <ele>663.1</ele>
        <time>2022-06-21T07:18:33Z</time>
      </trkpt>
      <trkpt lat="43.41636" lon="2.62858">
        <ele>663</ele>
        <time>2022-06-21T07:18:34Z</time>
      </trkpt>
      <trkpt lat="43.41635" lon="2.62857">
        <ele>662.8</ele>
        <time>2022-06-21T07:18:35Z</time>
      </trkpt>
      <trkpt lat="43.41634" lon="2.62857">
        <ele>662.6</ele>
        <time>2022-06-21T07:18:36Z</time>
      </trkpt>
      <trkpt lat="43.41633" lon="2.62856">
        <ele>662.5</ele>
        <time>2022-06-21T07:18:37Z</time>
      </trkpt>
      <trkpt lat="43.41632" lon="2.62856">
        <ele>662.3</ele>
        <time>2022-06-21T07:18:38Z</time>
      </trkpt>
      <trkpt lat="43.41632" lon="2.62855">
        <ele>662.2</ele>
        <time>2022-06-21T07:18:39Z</time>
      </trkpt>
      <trkpt lat="43.41631" lon="2.62855">
        <ele>662.1</ele>
        <time>2022-06-21T07:18:40Z</time>
      </trkpt>
      <trkpt lat="43.4163" lon="2.62854">
        <ele>661.9</ele>
        <time>2022-06-21T07:18:41Z</time>
      </trkpt>
      <trkpt lat="43.41629" lon="2.62854">
        <ele>661.8</ele>
        <time>2022-06-21T07:18:42Z</time>
      </trkpt>
      <trkpt lat="43.41627" lon="2.62854">
        <ele>661.4</ele>
        <time>2022-06-21T07:18:43Z</time>
      </trkpt>
      <trkpt lat="43.41626" lon="2.62854">
        <ele>661.3</ele>
        <time>2022-06-21T07:18:44Z</time>
      </trkpt>
      <trkpt lat="43.41626" lon="2.62853">
        <ele>661.2</ele>
        <time>2022-06-21T07:18:45Z</time>
      </trkpt>
      <trkpt lat="43.41624" lon="2.62853">
        <ele>661</ele>
        <time>2022-06-21T07:18:46Z</time>
      </trkpt>
      <trkpt lat="43.41623" lon="2.62853">
        <ele>660.8</ele>
        <time>2022-06-21T07:18:47Z</time>
      </trkpt>
      <trkpt lat="43.41622" lon="2.62852">
        <ele>660.6</ele>
        <time>2022-06-21T07:18:48Z</time>
      </trkpt>
      <trkpt lat="43.41621" lon="2.62852">
        <ele>660.4</ele>
        <time>2022-06-21T07:18:49Z</time>
      </trkpt>
      <trkpt lat="43.4162" lon="2.62851">
        <ele>660.2</ele>
        <time>2022-06-21T07:18:50Z</time>
      </trkpt>
      <trkpt lat="43.41619" lon="2.62851">
        <ele>660</ele>
        <time>2022-06-21T07:18:51Z</time>
      </trkpt>
      <trkpt lat="43.41618" lon="2.62851">
        <ele>659.8</ele>
        <time>2022-06-21T07:18:52Z</time>
      </trkpt>
      <trkpt lat="43.41617" lon="2.62851">
        <ele>659.6</ele>
        <time>2022-06-21T07:18:53Z</time>
      </trkpt>
      <trkpt lat="43.41616" lon="2.62851">
        <ele>659.4</ele>
        <time>2022-06-21T07:18:54Z</time>
      </trkpt>
      <trkpt lat="43.41615" lon="2.62851">
        <ele>659.3</ele>
        <time>2022-06-21T07:18:55Z</time>
      </trkpt>
      <trkpt lat="43.41614" lon="2.62851">
        <ele>659.1</ele>
        <time>2022-06-21T07:18:56Z</time>
      </trkpt>
      <trkpt lat="43.41613" lon="2.62851">
        <ele>659</ele>
        <time>2022-06-21T07:18:57Z</time>
      </trkpt>
      <trkpt lat="43.41612" lon="2.62851">
        <ele>658.9</ele>
        <time>2022-06-21T07:18:58Z</time>
      </trkpt>
      <trkpt lat="43.41611" lon="2.62851">
        <ele>658.6</ele>
        <time>2022-06-21T07:18:59Z</time>
      </trkpt>
      <trkpt lat="43.4161" lon="2.62851">
        <ele>658.5</ele>
        <time>2022-06-21T07:19:00Z</time>
      </trkpt>
      <trkpt lat="43.4161" lon="2.62851">
        <ele>658.4</ele>
        <time>2022-06-21T07:19:01Z</time>
      </trkpt>
      <trkpt lat="43.41609" lon="2.62851">
        <ele>658.2</ele>
        <time>2022-06-21T07:19:02Z</time>
      </trkpt>
      <trkpt lat="43.41608" lon="2.62851">
        <ele>658.1</ele>
        <time>2022-06-21T07:19:03Z</time>
      </trkpt>
      <trkpt lat="43.41607" lon="2.62851">
        <ele>657.9</ele>
        <time>2022-06-21T07:19:04Z</time>
      </trkpt>
      <trkpt lat="43.41606" lon="2.62851">
        <ele>657.7</ele>
        <time>2022-06-21T07:19:05Z</time>
      </trkpt>
      <trkpt lat="43.41605" lon="2.62851">
        <ele>657.6</ele>
        <time>2022-06-21T07:19:06Z</time>
      </trkpt>
      <trkpt lat="43.41604" lon="2.62851">
        <ele>657.4</ele>
        <time>2022-06-21T07:19:07Z</time>
      </trkpt>
      <trkpt lat="43.41603" lon="2.62851">
        <ele>657.2</ele>
        <time>2022-06-21T07:19:08Z</time>
      </trkpt>
      <trkpt lat="43.41602" lon="2.62851">
        <ele>657.1</ele>
        <time>2022-06-21T07:19:09Z</time>
      </trkpt>
      <trkpt lat="43.41601" lon="2.62851">
        <ele>657</ele>
        <time>2022-06-21T07:19:10Z</time>
      </trkpt>
      <trkpt lat="43.41601" lon="2.62851">
        <ele>656.8</ele>
        <time>2022-06-21T07:19:11Z</time>
      </trkpt>
      <trkpt lat="43.416" lon="2.62852">
        <ele>656.7</ele>
        <time>2022-06-21T07:19:12Z</time>
      </trkpt>
      <trkpt lat="43.41599" lon="2.62852">
        <ele>656.5</ele>
        <time>2022-06-21T07:19:13Z</time>
      </trkpt>
      <trkpt lat="43.41598" lon="2.62853">
        <ele>656.4</ele>
        <time>2022-06-21T07:19:14Z</time>
      </trkpt>
      <trkpt lat="43.41597" lon="2.62853">
        <ele>656.2</ele>
        <time>2022-06-21T07:19:15Z</time>
      </trkpt>
      <trkpt lat="43.41596" lon="2.62853">
        <ele>656</ele>
        <time>2022-06-21T07:19:16Z</time>
      </trkpt>
      <trkpt lat="43.41595" lon="2.62854">
        <ele>655.8</ele>
        <time>2022-06-21T07:19:17Z</time>
      </trkpt>
      <trkpt lat="43.41594" lon="2.62854">
        <ele>655.7</ele>
        <time>2022-06-21T07:19:18Z</time>
      </trkpt>
      <trkpt lat="43.41593" lon="2.62854">
        <ele>655.5</ele>
        <time>2022-06-21T07:19:19Z</time>
      </trkpt>
      <trkpt lat="43.41592" lon="2.62855">
        <ele>655.4</ele>
        <time>2022-06-21T07:19:20Z</time>
      </trkpt>
      <trkpt lat="43.41591" lon="2.62855">
        <ele>655.3</ele>
        <time>2022-06-21T07:19:21Z</time>
      </trkpt>
      <trkpt lat="43.41591" lon="2.62856">
        <ele>655.2</ele>
        <time>2022-06-21T07:19:22Z</time>
      </trkpt>
      <trkpt lat="43.41589" lon="2.62857">
        <ele>654.9</ele>
        <time>2022-06-21T07:19:24Z</time>
      </trkpt>
      <trkpt lat="43.41589" lon="2.62857">
        <ele>654.8</ele>
        <time>2022-06-21T07:19:25Z</time>
      </trkpt>
      <trkpt lat="43.41588" lon="2.62858">
        <ele>654.7</ele>
        <time>2022-06-21T07:19:26Z</time>
      </trkpt>
      <trkpt lat="43.41587" lon="2.62859">
        <ele>654.6</ele>
        <time>2022-06-21T07:19:27Z</time>
      </trkpt>
      <trkpt lat="43.41586" lon="2.6286">
        <ele>654.4</ele>
        <time>2022-06-21T07:19:28Z</time>
      </trkpt>
      <trkpt lat="43.41586" lon="2.6286">
        <ele>654.3</ele>
        <time>2022-06-21T07:19:29Z</time>
      </trkpt>
      <trkpt lat="43.41585" lon="2.62861">
        <ele>654.2</ele>
        <time>2022-06-21T07:19:30Z</time>
      </trkpt>
      <trkpt lat="43.41584" lon="2.62862">
        <ele>654.1</ele>
        <time>2022-06-21T07:19:31Z</time>
      </trkpt>
      <trkpt lat="43.41583" lon="2.62863">
        <ele>653.9</ele>
        <time>2022-06-21T07:19:32Z</time>
      </trkpt>
      <trkpt lat="43.41582" lon="2.62864">
        <ele>653.8</ele>
        <time>2022-06-21T07:19:33Z</time>
      </trkpt>
      <trkpt lat="43.41582" lon="2.62864">
        <ele>653.7</ele>
        <time>2022-06-21T07:19:34Z</time>
      </trkpt>
      <trkpt lat="43.41581" lon="2.62865">
        <ele>653.7</ele>
        <time>2022-06-21T07:19:35Z</time>
      </trkpt>
      <trkpt lat="43.41581" lon="2.62865">
        <ele>653.6</ele>
        <time>2022-06-21T07:19:36Z</time>
      </trkpt>
      <trkpt lat="43.4158" lon="2.62865">
        <ele>653.6</ele>
        <time>2022-06-21T07:19:37Z</time>
      </trkpt>
      <trkpt lat="43.4158" lon="2.62866">
        <ele>653.5</ele>
        <time>2022-06-21T07:19:38Z</time>
      </trkpt>
      <trkpt lat="43.41579" lon="2.62867">
        <ele>653.4</ele>
        <time>2022-06-21T07:19:39Z</time>
      </trkpt>
      <trkpt lat="43.41579" lon="2.62868">
        <ele>653.3</ele>
        <time>2022-06-21T07:19:40Z</time>
      </trkpt>
      <trkpt lat="43.41578" lon="2.62869">
        <ele>653.2</ele>
        <time>2022-06-21T07:19:41Z</time>
      </trkpt>
      <trkpt lat="43.41577" lon="2.6287">
        <ele>653.1</ele>
        <time>2022-06-21T07:19:42Z</time>
      </trkpt>
      <trkpt lat="43.41576" lon="2.62871">
        <ele>653</ele>
        <time>2022-06-21T07:19:43Z</time>
      </trkpt>
      <trkpt lat="43.41575" lon="2.62872">
        <ele>652.9</ele>
        <time>2022-06-21T07:19:44Z</time>
      </trkpt>
      <trkpt lat="43.41575" lon="2.62873">
        <ele>652.8</ele>
        <time>2022-06-21T07:19:45Z</time>
      </trkpt>
      <trkpt lat="43.41575" lon="2.62874">
        <ele>652.8</ele>
        <time>2022-06-21T07:19:46Z</time>
      </trkpt>
      <trkpt lat="43.41574" lon="2.62875">
        <ele>652.7</ele>
        <time>2022-06-21T07:19:47Z</time>
      </trkpt>
      <trkpt lat="43.41574" lon="2.62875">
        <ele>652.7</ele>
        <time>2022-06-21T07:19:48Z</time>
      </trkpt>
      <trkpt lat="43.41574" lon="2.62876">
        <ele>652.6</ele>
        <time>2022-06-21T07:19:49Z</time>
      </trkpt>
      <trkpt lat="43.41573" lon="2.62876">
        <ele>652.6</ele>
        <time>2022-06-21T07:19:50Z</time>
      </trkpt>
      <trkpt lat="43.41573" lon="2.62877">
        <ele>652.5</ele>
        <time>2022-06-21T07:19:51Z</time>
      </trkpt>
      <trkpt lat="43.41572" lon="2.62878">
        <ele>652.4</ele>
        <time>2022-06-21T07:19:52Z</time>
      </trkpt>
      <trkpt lat="43.41572" lon="2.62879">
        <ele>652.4</ele>
        <time>2022-06-21T07:19:53Z</time>
      </trkpt>
      <trkpt lat="43.41572" lon="2.62879">
        <ele>652.4</ele>
        <time>2022-06-21T07:19:54Z</time>
      </trkpt>
      <trkpt lat="43.41572" lon="2.6288">
        <ele>652.3</ele>
        <time>2022-06-21T07:19:55Z</time>
      </trkpt>
      <trkpt lat="43.41571" lon="2.62881">
        <ele>652.3</ele>
        <time>2022-06-21T07:19:56Z</time>
      </trkpt>
      <trkpt lat="43.41571" lon="2.62882">
        <ele>652.2</ele>
        <time>2022-06-21T07:19:57Z</time>
      </trkpt>
      <trkpt lat="43.4157" lon="2.62884">
        <ele>652.1</ele>
        <time>2022-06-21T07:19:58Z</time>
      </trkpt>
      <trkpt lat="43.41569" lon="2.62884">
        <ele>652</ele>
        <time>2022-06-21T07:19:59Z</time>
      </trkpt>
      <trkpt lat="43.41569" lon="2.62885">
        <ele>651.9</ele>
        <time>2022-06-21T07:20:00Z</time>
      </trkpt>
      <trkpt lat="43.41568" lon="2.62886">
        <ele>651.9</ele>
        <time>2022-06-21T07:20:01Z</time>
      </trkpt>
      <trkpt lat="43.41568" lon="2.62887">
        <ele>651.8</ele>
        <time>2022-06-21T07:20:02Z</time>
      </trkpt>
      <trkpt lat="43.41567" lon="2.62888">
        <ele>651.8</ele>
        <time>2022-06-21T07:20:03Z</time>
      </trkpt>
      <trkpt lat="43.41567" lon="2.62888">
        <ele>651.7</ele>
        <time>2022-06-21T07:20:04Z</time>
      </trkpt>
      <trkpt lat="43.41566" lon="2.62889">
        <ele>651.7</ele>
        <time>2022-06-21T07:20:05Z</time>
      </trkpt>
      <trkpt lat="43.41566" lon="2.6289">
        <ele>651.6</ele>
        <time>2022-06-21T07:20:06Z</time>
      </trkpt>
      <trkpt lat="43.41566" lon="2.6289">
        <ele>651.6</ele>
        <time>2022-06-21T07:20:07Z</time>
      </trkpt>
      <trkpt lat="43.41566" lon="2.6289">
        <ele>651.6</ele>
        <time>2022-06-21T07:20:08Z</time>
      </trkpt>
      <trkpt lat="43.41566" lon="2.6289">
        <ele>651.6</ele>
        <time>2022-06-21T07:20:09Z</time>
      </trkpt>
      <trkpt lat="43.41566" lon="2.6289">
        <ele>651.6</ele>
        <time>2022-06-21T07:20:10Z</time>
      </trkpt>
      <trkpt lat="43.41566" lon="2.62891">
        <ele>651.6</ele>
        <time>2022-06-21T07:20:11Z</time>
      </trkpt>
      <trkpt lat="43.41565" lon="2.62891">
        <ele>651.5</ele>
        <time>2022-06-21T07:20:12Z</time>
      </trkpt>
      <trkpt lat="43.41565" lon="2.62891">
        <ele>651.5</ele>
        <time>2022-06-21T07:20:13Z</time>
      </trkpt>
      <trkpt lat="43.41565" lon="2.62891">
        <ele>651.5</ele>
        <time>2022-06-21T07:20:14Z</time>
      </trkpt>
      <trkpt lat="43.41565" lon="2.62891">
        <ele>651.5</ele>
        <time>2022-06-21T07:20:15Z</time>
      </trkpt>
      <trkpt lat="43.41565" lon="2.62892">
        <ele>651.5</ele>
        <time>2022-06-21T07:20:16Z</time>
      </trkpt>
      <trkpt lat="43.41565" lon="2.62892">
        <ele>651.5</ele>
        <time>2022-06-21T07:20:17Z</time>
      </trkpt>
      <trkpt lat="43.41565" lon="2.62892">
        <ele>651.4</ele>
        <time>2022-06-21T07:20:18Z</time>
      </trkpt>
      <trkpt lat="43.41564" lon="2.62892">
        <ele>651.4</ele>
        <time>2022-06-21T07:20:19Z</time>
      </trkpt>
      <trkpt lat="43.41564" lon="2.62892">
        <ele>651.4</ele>
        <time>2022-06-21T07:20:20Z</time>
      </trkpt>
      <trkpt lat="43.41564" lon="2.62893">
        <ele>651.4</ele>
        <time>2022-06-21T07:20:21Z</time>
      </trkpt>
      <trkpt lat="43.41564" lon="2.62893">
        <ele>651.4</ele>
        <time>2022-06-21T07:20:22Z</time>
      </trkpt>
      <trkpt lat="43.41561" lon="2.62897">
        <ele>651</ele>
        <time>2022-06-21T07:20:23Z</time>
      </trkpt>
      <trkpt lat="43.41559" lon="2.62899">
        <ele>650.9</ele>
        <time>2022-06-21T07:20:24Z</time>
      </trkpt>
      <trkpt lat="43.41557" lon="2.62902">
        <ele>650.7</ele>
        <time>2022-06-21T07:20:25Z</time>
      </trkpt>
      <trkpt lat="43.41555" lon="2.62904">
        <ele>650.5</ele>
        <time>2022-06-21T07:20:26Z</time>
      </trkpt>
      <trkpt lat="43.41555" lon="2.62904">
        <ele>650.5</ele>
        <time>2022-06-21T07:20:27Z</time>
      </trkpt>
      <trkpt lat="43.41555" lon="2.62905">
        <ele>650.5</ele>
        <time>2022-06-21T07:20:28Z</time>
      </trkpt>
      <trkpt lat="43.41554" lon="2.62906">
        <ele>650.4</ele>
        <time>2022-06-21T07:20:29Z</time>
      </trkpt>
      <trkpt lat="43.41554" lon="2.62906">
        <ele>650.4</ele>
        <time>2022-06-21T07:20:30Z</time>
      </trkpt>
      <trkpt lat="43.41552" lon="2.62908">
        <ele>650.2</ele>
        <time>2022-06-21T07:20:31Z</time>
      </trkpt>
      <trkpt lat="43.41551" lon="2.6291">
        <ele>650.1</ele>
        <time>2022-06-21T07:20:32Z</time>
      </trkpt>
      <trkpt lat="43.41549" lon="2.62911">
        <ele>650</ele>
        <time>2022-06-21T07:20:33Z</time>
      </trkpt>
      <trkpt lat="43.41548" lon="2.62913">
        <ele>649.9</ele>
        <time>2022-06-21T07:20:34Z</time>
      </trkpt>
      <trkpt lat="43.41548" lon="2.62913">
        <ele>649.9</ele>
        <time>2022-06-21T07:20:35Z</time>
      </trkpt>
      <trkpt lat="43.41548" lon="2.62913">
        <ele>649.9</ele>
        <time>2022-06-21T07:20:36Z</time>
      </trkpt>
      <trkpt lat="43.41547" lon="2.62915">
        <ele>649.8</ele>
        <time>2022-06-21T07:20:37Z</time>
      </trkpt>
      <trkpt lat="43.41546" lon="2.62916">
        <ele>649.8</ele>
        <time>2022-06-21T07:20:38Z</time>
      </trkpt>
      <trkpt lat="43.41545" lon="2.62917">
        <ele>649.7</ele>
        <time>2022-06-21T07:20:39Z</time>
      </trkpt>
      <trkpt lat="43.41545" lon="2.62917">
        <ele>649.7</ele>
        <time>2022-06-21T07:20:40Z</time>
      </trkpt>
      <trkpt lat="43.41545" lon="2.62917">
        <ele>649.7</ele>
        <time>2022-06-21T07:20:41Z</time>
      </trkpt>
      <trkpt lat="43.41545" lon="2.62918">
        <ele>649.7</ele>
        <time>2022-06-21T07:20:42Z</time>
      </trkpt>
      <trkpt lat="43.41545" lon="2.62918">
        <ele>649.7</ele>
        <time>2022-06-21T07:20:43Z</time>
      </trkpt>
      <trkpt lat="43.41544" lon="2.6292">
        <ele>649.6</ele>
        <time>2022-06-21T07:20:44Z</time>
      </trkpt>
      <trkpt lat="43.41544" lon="2.62923">
        <ele>649.5</ele>
        <time>2022-06-21T07:20:45Z</time>
      </trkpt>
      <trkpt lat="43.41544" lon="2.62924">
        <ele>649.4</ele>
        <time>2022-06-21T07:20:46Z</time>
      </trkpt>
      <trkpt lat="43.41543" lon="2.62925">
        <ele>649.4</ele>
        <time>2022-06-21T07:20:47Z</time>
      </trkpt>
      <trkpt lat="43.41542" lon="2.62929">
        <ele>649.2</ele>
        <time>2022-06-21T07:20:48Z</time>
      </trkpt>
      <trkpt lat="43.41542" lon="2.6293">
        <ele>649.2</ele>
        <time>2022-06-21T07:20:49Z</time>
      </trkpt>
      <trkpt lat="43.41542" lon="2.6293">
        <ele>649.2</ele>
        <time>2022-06-21T07:20:50Z</time>
      </trkpt>
      <trkpt lat="43.41542" lon="2.62931">
        <ele>649.2</ele>
        <time>2022-06-21T07:20:51Z</time>
      </trkpt>
      <trkpt lat="43.41542" lon="2.62931">
        <ele>649.2</ele>
        <time>2022-06-21T07:20:52Z</time>
      </trkpt>
      <trkpt lat="43.41542" lon="2.62931">
        <ele>649.2</ele>
        <time>2022-06-21T07:20:53Z</time>
      </trkpt>
      <trkpt lat="43.41542" lon="2.62931">
        <ele>649.2</ele>
        <time>2022-06-21T07:20:54Z</time>
      </trkpt>
      <trkpt lat="43.41542" lon="2.62931">
        <ele>649.1</ele>
        <time>2022-06-21T07:20:55Z</time>
      </trkpt>
      <trkpt lat="43.41541" lon="2.62933">
        <ele>649.1</ele>
        <time>2022-06-21T07:20:56Z</time>
      </trkpt>
      <trkpt lat="43.4154" lon="2.62934">
        <ele>649</ele>
        <time>2022-06-21T07:20:57Z</time>
      </trkpt>
      <trkpt lat="43.4154" lon="2.62936">
        <ele>648.9</ele>
        <time>2022-06-21T07:20:58Z</time>
      </trkpt>
      <trkpt lat="43.41538" lon="2.62938">
        <ele>648.8</ele>
        <time>2022-06-21T07:20:59Z</time>
      </trkpt>
      <trkpt lat="43.41537" lon="2.62941">
        <ele>648.6</ele>
        <time>2022-06-21T07:21:00Z</time>
      </trkpt>
      <trkpt lat="43.41536" lon="2.62942">
        <ele>648.6</ele>
        <time>2022-06-21T07:21:01Z</time>
      </trkpt>
      <trkpt lat="43.41534" lon="2.62944">
        <ele>648.5</ele>
        <time>2022-06-21T07:21:02Z</time>
      </trkpt>
      <trkpt lat="43.41533" lon="2.62946">
        <ele>648.4</ele>
        <time>2022-06-21T07:21:03Z</time>
      </trkpt>
      <trkpt lat="43.41532" lon="2.62947">
        <ele>648.2</ele>
        <time>2022-06-21T07:21:04Z</time>
      </trkpt>
      <trkpt lat="43.41531" lon="2.62949">
        <ele>648.1</ele>
        <time>2022-06-21T07:21:05Z</time>
      </trkpt>
      <trkpt lat="43.4153" lon="2.6295">
        <ele>648</ele>
        <time>2022-06-21T07:21:06Z</time>
      </trkpt>
      <trkpt lat="43.41528" lon="2.62952">
        <ele>647.9</ele>
        <time>2022-06-21T07:21:07Z</time>
      </trkpt>
      <trkpt lat="43.41528" lon="2.62952">
        <ele>647.9</ele>
        <time>2022-06-21T07:21:08Z</time>
      </trkpt>
      <trkpt lat="43.41528" lon="2.62953">
        <ele>647.8</ele>
        <time>2022-06-21T07:21:09Z</time>
      </trkpt>
      <trkpt lat="43.41528" lon="2.62953">
        <ele>647.8</ele>
        <time>2022-06-21T07:21:10Z</time>
      </trkpt>
      <trkpt lat="43.41528" lon="2.62953">
        <ele>647.8</ele>
        <time>2022-06-21T07:21:11Z</time>
      </trkpt>
      <trkpt lat="43.41528" lon="2.62953">
        <ele>647.8</ele>
        <time>2022-06-21T07:21:12Z</time>
      </trkpt>
      <trkpt lat="43.41528" lon="2.62953">
        <ele>647.8</ele>
        <time>2022-06-21T07:21:13Z</time>
      </trkpt>
      <trkpt lat="43.41528" lon="2.62953">
        <ele>647.8</ele>
        <time>2022-06-21T07:21:14Z</time>
      </trkpt>
      <trkpt lat="43.41528" lon="2.62952">
        <ele>647.8</ele>
        <time>2022-06-21T07:21:15Z</time>
      </trkpt>
      <trkpt lat="43.41528" lon="2.62953">
        <ele>647.8</ele>
        <time>2022-06-21T07:21:16Z</time>
      </trkpt>
      <trkpt lat="43.41527" lon="2.62954">
        <ele>647.8</ele>
        <time>2022-06-21T07:21:17Z</time>
      </trkpt>
      <trkpt lat="43.41527" lon="2.62955">
        <ele>647.7</ele>
        <time>2022-06-21T07:21:18Z</time>
      </trkpt>
      <trkpt lat="43.41524" lon="2.6296">
        <ele>647.4</ele>
        <time>2022-06-21T07:21:19Z</time>
      </trkpt>
      <trkpt lat="43.41522" lon="2.62963">
        <ele>647.2</ele>
        <time>2022-06-21T07:21:20Z</time>
      </trkpt>
      <trkpt lat="43.41519" lon="2.62967">
        <ele>646.9</ele>
        <time>2022-06-21T07:21:21Z</time>
      </trkpt>
      <trkpt lat="43.41518" lon="2.6297">
        <ele>646.7</ele>
        <time>2022-06-21T07:21:22Z</time>
      </trkpt>
      <trkpt lat="43.41517" lon="2.62971">
        <ele>646.7</ele>
        <time>2022-06-21T07:21:23Z</time>
      </trkpt>
      <trkpt lat="43.41516" lon="2.62974">
        <ele>646.5</ele>
        <time>2022-06-21T07:21:24Z</time>
      </trkpt>
      <trkpt lat="43.41516" lon="2.62976">
        <ele>646.4</ele>
        <time>2022-06-21T07:21:25Z</time>
      </trkpt>
      <trkpt lat="43.41515" lon="2.62977">
        <ele>646.4</ele>
        <time>2022-06-21T07:21:26Z</time>
      </trkpt>
      <trkpt lat="43.41515" lon="2.6298">
        <ele>646.3</ele>
        <time>2022-06-21T07:21:27Z</time>
      </trkpt>
      <trkpt lat="43.41514" lon="2.62981">
        <ele>646.2</ele>
        <time>2022-06-21T07:21:28Z</time>
      </trkpt>
      <trkpt lat="43.41514" lon="2.62985">
        <ele>646.1</ele>
        <time>2022-06-21T07:21:30Z</time>
      </trkpt>
      <trkpt lat="43.41514" lon="2.62986">
        <ele>646</ele>
        <time>2022-06-21T07:21:31Z</time>
      </trkpt>
      <trkpt lat="43.41513" lon="2.62987">
        <ele>646</ele>
        <time>2022-06-21T07:21:32Z</time>
      </trkpt>
      <trkpt lat="43.41513" lon="2.62988">
        <ele>646</ele>
        <time>2022-06-21T07:21:33Z</time>
      </trkpt>
      <trkpt lat="43.41513" lon="2.62988">
        <ele>646</ele>
        <time>2022-06-21T07:21:34Z</time>
      </trkpt>
      <trkpt lat="43.41513" lon="2.62988">
        <ele>646</ele>
        <time>2022-06-21T07:21:35Z</time>
      </trkpt>
      <trkpt lat="43.41513" lon="2.62988">
        <ele>646</ele>
        <time>2022-06-21T07:21:36Z</time>
      </trkpt>
      <trkpt lat="43.41513" lon="2.62988">
        <ele>646</ele>
        <time>2022-06-21T07:21:37Z</time>
      </trkpt>
      <trkpt lat="43.41513" lon="2.62988">
        <ele>646</ele>
        <time>2022-06-21T07:21:38Z</time>
      </trkpt>
      <trkpt lat="43.41513" lon="2.62988">
        <ele>646</ele>
        <time>2022-06-21T07:21:39Z</time>
      </trkpt>
      <trkpt lat="43.41513" lon="2.62988">
        <ele>645.9</ele>
        <time>2022-06-21T07:21:40Z</time>
      </trkpt>
      <trkpt lat="43.41513" lon="2.62988">
        <ele>645.9</ele>
        <time>2022-06-21T07:21:41Z</time>
      </trkpt>
      <trkpt lat="43.41513" lon="2.62988">
        <ele>645.9</ele>
        <time>2022-06-21T07:21:42Z</time>
      </trkpt>
      <trkpt lat="43.41513" lon="2.62988">
        <ele>645.9</ele>
        <time>2022-06-21T07:21:43Z</time>
      </trkpt>
      <trkpt lat="43.41513" lon="2.62988">
        <ele>645.9</ele>
        <time>2022-06-21T07:21:44Z</time>
      </trkpt>
      <trkpt lat="43.41513" lon="2.62988">
        <ele>645.9</ele>
        <time>2022-06-21T07:21:45Z</time>
      </trkpt>
      <trkpt lat="43.41513" lon="2.62988">
        <ele>645.9</ele>
        <time>2022-06-21T07:21:46Z</time>
      </trkpt>
      <trkpt lat="43.41513" lon="2.62988">
        <ele>645.9</ele>
        <time>2022-06-21T07:21:47Z</time>
      </trkpt>
      <trkpt lat="43.41513" lon="2.62988">
        <ele>645.9</ele>
        <time>2022-06-21T07:21:48Z</time>
      </trkpt>
      <trkpt lat="43.41513" lon="2.62988">
        <ele>645.9</ele>
        <time>2022-06-21T07:21:49Z</time>
      </trkpt>
      <trkpt lat="43.41513" lon="2.62988">
        <ele>645.9</ele>
        <time>2022-06-21T07:21:50Z</time>
      </trkpt>
      <trkpt lat="43.41513" lon="2.62988">
        <ele>645.9</ele>
        <time>2022-06-21T07:21:51Z</time>
      </trkpt>
      <trkpt lat="43.41513" lon="2.62988">
        <ele>645.9</ele>
        <time>2022-06-21T07:21:52Z</time>
      </trkpt>
      <trkpt lat="43.41513" lon="2.62988">
        <ele>645.9</ele>
        <time>2022-06-21T07:21:53Z</time>
      </trkpt>
      <trkpt lat="43.41513" lon="2.62988">
        <ele>645.9</ele>
        <time>2022-06-21T07:21:54Z</time>
      </trkpt>
      <trkpt lat="43.41513" lon="2.6299">
        <ele>645.9</ele>
        <time>2022-06-21T07:21:55Z</time>
      </trkpt>
      <trkpt lat="43.41512" lon="2.62995">
        <ele>645.7</ele>
        <time>2022-06-21T07:21:56Z</time>
      </trkpt>
      <trkpt lat="43.41511" lon="2.62997">
        <ele>645.6</ele>
        <time>2022-06-21T07:21:57Z</time>
      </trkpt>
      <trkpt lat="43.4151" lon="2.63003">
        <ele>645.4</ele>
        <time>2022-06-21T07:21:58Z</time>
      </trkpt>
      <trkpt lat="43.41508" lon="2.63011">
        <ele>645.2</ele>
        <time>2022-06-21T07:21:59Z</time>
      </trkpt>
      <trkpt lat="43.41508" lon="2.63014">
        <ele>645.1</ele>
        <time>2022-06-21T07:22:00Z</time>
      </trkpt>
      <trkpt lat="43.41507" lon="2.63015">
        <ele>645.1</ele>
        <time>2022-06-21T07:22:01Z</time>
      </trkpt>
      <trkpt lat="43.41506" lon="2.63019">
        <ele>645</ele>
        <time>2022-06-21T07:22:02Z</time>
      </trkpt>
      <trkpt lat="43.41506" lon="2.6302">
        <ele>645</ele>
        <time>2022-06-21T07:22:03Z</time>
      </trkpt>
      <trkpt lat="43.41506" lon="2.63022">
        <ele>645</ele>
        <time>2022-06-21T07:22:04Z</time>
      </trkpt>
      <trkpt lat="43.41505" lon="2.63023">
        <ele>644.9</ele>
        <time>2022-06-21T07:22:05Z</time>
      </trkpt>
      <trkpt lat="43.41505" lon="2.63025">
        <ele>644.9</ele>
        <time>2022-06-21T07:22:06Z</time>
      </trkpt>
      <trkpt lat="43.41505" lon="2.63027">
        <ele>644.9</ele>
        <time>2022-06-21T07:22:07Z</time>
      </trkpt>
      <trkpt lat="43.41505" lon="2.63029">
        <ele>644.9</ele>
        <time>2022-06-21T07:22:08Z</time>
      </trkpt>
      <trkpt lat="43.41505" lon="2.6303">
        <ele>644.9</ele>
        <time>2022-06-21T07:22:09Z</time>
      </trkpt>
      <trkpt lat="43.41506" lon="2.63033">
        <ele>644.8</ele>
        <time>2022-06-21T07:22:10Z</time>
      </trkpt>
      <trkpt lat="43.41506" lon="2.63035">
        <ele>644.8</ele>
        <time>2022-06-21T07:22:11Z</time>
      </trkpt>
      <trkpt lat="43.41506" lon="2.63036">
        <ele>644.8</ele>
        <time>2022-06-21T07:22:12Z</time>
      </trkpt>
      <trkpt lat="43.41506" lon="2.63037">
        <ele>644.7</ele>
        <time>2022-06-21T07:22:13Z</time>
      </trkpt>
      <trkpt lat="43.41506" lon="2.63038">
        <ele>644.7</ele>
        <time>2022-06-21T07:22:14Z</time>
      </trkpt>
      <trkpt lat="43.41506" lon="2.63039">
        <ele>644.7</ele>
        <time>2022-06-21T07:22:15Z</time>
      </trkpt>
      <trkpt lat="43.41506" lon="2.63041">
        <ele>644.6</ele>
        <time>2022-06-21T07:22:19Z</time>
      </trkpt>
      <trkpt lat="43.41507" lon="2.63045">
        <ele>644.4</ele>
        <time>2022-06-21T07:22:20Z</time>
      </trkpt>
      <trkpt lat="43.41507" lon="2.63045">
        <ele>644.4</ele>
        <time>2022-06-21T07:22:21Z</time>
      </trkpt>
      <trkpt lat="43.41507" lon="2.63046">
        <ele>644.3</ele>
        <time>2022-06-21T07:22:22Z</time>
      </trkpt>
      <trkpt lat="43.41507" lon="2.63047">
        <ele>644.3</ele>
        <time>2022-06-21T07:22:23Z</time>
      </trkpt>
      <trkpt lat="43.41508" lon="2.63048">
        <ele>644.2</ele>
        <time>2022-06-21T07:22:24Z</time>
      </trkpt>
      <trkpt lat="43.41508" lon="2.63049">
        <ele>644.1</ele>
        <time>2022-06-21T07:22:25Z</time>
      </trkpt>
      <trkpt lat="43.41508" lon="2.6305">
        <ele>644</ele>
        <time>2022-06-21T07:22:26Z</time>
      </trkpt>
      <trkpt lat="43.41509" lon="2.63051">
        <ele>643.9</ele>
        <time>2022-06-21T07:22:27Z</time>
      </trkpt>
      <trkpt lat="43.41509" lon="2.63052">
        <ele>643.9</ele>
        <time>2022-06-21T07:22:28Z</time>
      </trkpt>
      <trkpt lat="43.41509" lon="2.63053">
        <ele>643.8</ele>
        <time>2022-06-21T07:22:29Z</time>
      </trkpt>
      <trkpt lat="43.4151" lon="2.63054">
        <ele>643.7</ele>
        <time>2022-06-21T07:22:30Z</time>
      </trkpt>
      <trkpt lat="43.4151" lon="2.63055">
        <ele>643.6</ele>
        <time>2022-06-21T07:22:31Z</time>
      </trkpt>
      <trkpt lat="43.4151" lon="2.63055">
        <ele>643.5</ele>
        <time>2022-06-21T07:22:32Z</time>
      </trkpt>
      <trkpt lat="43.4151" lon="2.63055">
        <ele>643.5</ele>
        <time>2022-06-21T07:22:33Z</time>
      </trkpt>
      <trkpt lat="43.41511" lon="2.63056">
        <ele>643.5</ele>
        <time>2022-06-21T07:22:34Z</time>
      </trkpt>
      <trkpt lat="43.41511" lon="2.63056">
        <ele>643.4</ele>
        <time>2022-06-21T07:22:35Z</time>
      </trkpt>
      <trkpt lat="43.41512" lon="2.63058">
        <ele>643.2</ele>
        <time>2022-06-21T07:22:36Z</time>
      </trkpt>
      <trkpt lat="43.41513" lon="2.63058">
        <ele>643</ele>
        <time>2022-06-21T07:22:37Z</time>
      </trkpt>
      <trkpt lat="43.41514" lon="2.63059">
        <ele>642.9</ele>
        <time>2022-06-21T07:22:38Z</time>
      </trkpt>
      <trkpt lat="43.41515" lon="2.63062">
        <ele>642.6</ele>
        <time>2022-06-21T07:22:39Z</time>
      </trkpt>
      <trkpt lat="43.41516" lon="2.63063">
        <ele>642.4</ele>
        <time>2022-06-21T07:22:40Z</time>
      </trkpt>
      <trkpt lat="43.41517" lon="2.63064">
        <ele>642.2</ele>
        <time>2022-06-21T07:22:41Z</time>
      </trkpt>
      <trkpt lat="43.41518" lon="2.63065">
        <ele>642.1</ele>
        <time>2022-06-21T07:22:42Z</time>
      </trkpt>
      <trkpt lat="43.41518" lon="2.63066">
        <ele>641.9</ele>
        <time>2022-06-21T07:22:43Z</time>
      </trkpt>
      <trkpt lat="43.41519" lon="2.63066">
        <ele>641.8</ele>
        <time>2022-06-21T07:22:44Z</time>
      </trkpt>
      <trkpt lat="43.4152" lon="2.63067">
        <ele>641.7</ele>
        <time>2022-06-21T07:22:45Z</time>
      </trkpt>
      <trkpt lat="43.41521" lon="2.63068">
        <ele>641.5</ele>
        <time>2022-06-21T07:22:46Z</time>
      </trkpt>
      <trkpt lat="43.41522" lon="2.6307">
        <ele>641.3</ele>
        <time>2022-06-21T07:22:47Z</time>
      </trkpt>
      <trkpt lat="43.41523" lon="2.63071">
        <ele>641.1</ele>
        <time>2022-06-21T07:22:48Z</time>
      </trkpt>
      <trkpt lat="43.41524" lon="2.63073">
        <ele>640.8</ele>
        <time>2022-06-21T07:22:49Z</time>
      </trkpt>
      <trkpt lat="43.41525" lon="2.63074">
        <ele>640.6</ele>
        <time>2022-06-21T07:22:50Z</time>
      </trkpt>
      <trkpt lat="43.41526" lon="2.63075">
        <ele>640.4</ele>
        <time>2022-06-21T07:22:51Z</time>
      </trkpt>
      <trkpt lat="43.41527" lon="2.63076">
        <ele>640.2</ele>
        <time>2022-06-21T07:22:52Z</time>
      </trkpt>
      <trkpt lat="43.41528" lon="2.63078">
        <ele>640</ele>
        <time>2022-06-21T07:22:53Z</time>
      </trkpt>
      <trkpt lat="43.41529" lon="2.63079">
        <ele>639.8</ele>
        <time>2022-06-21T07:22:54Z</time>
      </trkpt>
      <trkpt lat="43.4153" lon="2.63081">
        <ele>639.6</ele>
        <time>2022-06-21T07:22:55Z</time>
      </trkpt>
      <trkpt lat="43.41531" lon="2.63083">
        <ele>639.3</ele>
        <time>2022-06-21T07:22:56Z</time>
      </trkpt>
      <trkpt lat="43.41532" lon="2.63084">
        <ele>639.2</ele>
        <time>2022-06-21T07:22:57Z</time>
      </trkpt>
      <trkpt lat="43.41532" lon="2.63085">
        <ele>639.1</ele>
        <time>2022-06-21T07:22:58Z</time>
      </trkpt>
      <trkpt lat="43.41533" lon="2.63086">
        <ele>639</ele>
        <time>2022-06-21T07:22:59Z</time>
      </trkpt>
      <trkpt lat="43.41533" lon="2.63087">
        <ele>638.9</ele>
        <time>2022-06-21T07:23:00Z</time>
      </trkpt>
      <trkpt lat="43.41533" lon="2.63088">
        <ele>638.8</ele>
        <time>2022-06-21T07:23:01Z</time>
      </trkpt>
      <trkpt lat="43.41533" lon="2.63089">
        <ele>638.7</ele>
        <time>2022-06-21T07:23:02Z</time>
      </trkpt>
      <trkpt lat="43.41534" lon="2.6309">
        <ele>638.6</ele>
        <time>2022-06-21T07:23:03Z</time>
      </trkpt>
      <trkpt lat="43.41535" lon="2.63091">
        <ele>638.5</ele>
        <time>2022-06-21T07:23:04Z</time>
      </trkpt>
      <trkpt lat="43.41535" lon="2.63092">
        <ele>638.4</ele>
        <time>2022-06-21T07:23:05Z</time>
      </trkpt>
      <trkpt lat="43.41536" lon="2.63093">
        <ele>638.2</ele>
        <time>2022-06-21T07:23:06Z</time>
      </trkpt>
      <trkpt lat="43.41537" lon="2.63095">
        <ele>638.1</ele>
        <time>2022-06-21T07:23:07Z</time>
      </trkpt>
      <trkpt lat="43.41537" lon="2.63096">
        <ele>638</ele>
        <time>2022-06-21T07:23:08Z</time>
      </trkpt>
      <trkpt lat="43.41538" lon="2.63098">
        <ele>637.8</ele>
        <time>2022-06-21T07:23:09Z</time>
      </trkpt>
      <trkpt lat="43.41538" lon="2.63099">
        <ele>637.7</ele>
        <time>2022-06-21T07:23:10Z</time>
      </trkpt>
      <trkpt lat="43.41539" lon="2.631">
        <ele>637.6</ele>
        <time>2022-06-21T07:23:11Z</time>
      </trkpt>
      <trkpt lat="43.41539" lon="2.63101">
        <ele>637.5</ele>
        <time>2022-06-21T07:23:12Z</time>
      </trkpt>
      <trkpt lat="43.41539" lon="2.63102">
        <ele>637.4</ele>
        <time>2022-06-21T07:23:13Z</time>
      </trkpt>
      <trkpt lat="43.41539" lon="2.63102">
        <ele>637.4</ele>
        <time>2022-06-21T07:23:14Z</time>
      </trkpt>
      <trkpt lat="43.41539" lon="2.63102">
        <ele>637.4</ele>
        <time>2022-06-21T07:23:15Z</time>
      </trkpt>
      <trkpt lat="43.4154" lon="2.63103">
        <ele>637.3</ele>
        <time>2022-06-21T07:23:16Z</time>
      </trkpt>
      <trkpt lat="43.4154" lon="2.63105">
        <ele>637</ele>
        <time>2022-06-21T07:23:17Z</time>
      </trkpt>
      <trkpt lat="43.41541" lon="2.63107">
        <ele>636.9</ele>
        <time>2022-06-21T07:23:18Z</time>
      </trkpt>
      <trkpt lat="43.41541" lon="2.63108">
        <ele>636.8</ele>
        <time>2022-06-21T07:23:19Z</time>
      </trkpt>
      <trkpt lat="43.41541" lon="2.63109">
        <ele>636.6</ele>
        <time>2022-06-21T07:23:20Z</time>
      </trkpt>
      <trkpt lat="43.41542" lon="2.63111">
        <ele>636.4</ele>
        <time>2022-06-21T07:23:21Z</time>
      </trkpt>
      <trkpt lat="43.41542" lon="2.63112">
        <ele>636.2</ele>
        <time>2022-06-21T07:23:22Z</time>
      </trkpt>
      <trkpt lat="43.41543" lon="2.63113">
        <ele>636.1</ele>
        <time>2022-06-21T07:23:23Z</time>
      </trkpt>
      <trkpt lat="43.41543" lon="2.63113">
        <ele>636.1</ele>
        <time>2022-06-21T07:23:24Z</time>
      </trkpt>
      <trkpt lat="43.41543" lon="2.63113">
        <ele>636.1</ele>
        <time>2022-06-21T07:23:25Z</time>
      </trkpt>
      <trkpt lat="43.41543" lon="2.63114">
        <ele>636</ele>
        <time>2022-06-21T07:23:26Z</time>
      </trkpt>
      <trkpt lat="43.41543" lon="2.63115">
        <ele>635.8</ele>
        <time>2022-06-21T07:23:27Z</time>
      </trkpt>
      <trkpt lat="43.41543" lon="2.63116">
        <ele>635.7</ele>
        <time>2022-06-21T07:23:28Z</time>
      </trkpt>
      <trkpt lat="43.41543" lon="2.63119">
        <ele>635.3</ele>
        <time>2022-06-21T07:23:29Z</time>
      </trkpt>
      <trkpt lat="43.41543" lon="2.63121">
        <ele>635.2</ele>
        <time>2022-06-21T07:23:30Z</time>
      </trkpt>
      <trkpt lat="43.41543" lon="2.63122">
        <ele>635</ele>
        <time>2022-06-21T07:23:31Z</time>
      </trkpt>
      <trkpt lat="43.41543" lon="2.63124">
        <ele>634.7</ele>
        <time>2022-06-21T07:23:32Z</time>
      </trkpt>
      <trkpt lat="43.41542" lon="2.63125">
        <ele>634.6</ele>
        <time>2022-06-21T07:23:33Z</time>
      </trkpt>
      <trkpt lat="43.41542" lon="2.63126">
        <ele>634.4</ele>
        <time>2022-06-21T07:23:34Z</time>
      </trkpt>
      <trkpt lat="43.41542" lon="2.63127">
        <ele>634.3</ele>
        <time>2022-06-21T07:23:35Z</time>
      </trkpt>
      <trkpt lat="43.41542" lon="2.63128">
        <ele>634.2</ele>
        <time>2022-06-21T07:23:36Z</time>
      </trkpt>
      <trkpt lat="43.41542" lon="2.6313">
        <ele>634</ele>
        <time>2022-06-21T07:23:37Z</time>
      </trkpt>
      <trkpt lat="43.41542" lon="2.63131">
        <ele>633.8</ele>
        <time>2022-06-21T07:23:38Z</time>
      </trkpt>
      <trkpt lat="43.41542" lon="2.63133">
        <ele>633.5</ele>
        <time>2022-06-21T07:23:39Z</time>
      </trkpt>
      <trkpt lat="43.41542" lon="2.63134">
        <ele>633.4</ele>
        <time>2022-06-21T07:23:40Z</time>
      </trkpt>
      <trkpt lat="43.41542" lon="2.63135">
        <ele>633.2</ele>
        <time>2022-06-21T07:23:41Z</time>
      </trkpt>
      <trkpt lat="43.41542" lon="2.63137">
        <ele>633</ele>
        <time>2022-06-21T07:23:42Z</time>
      </trkpt>
      <trkpt lat="43.41542" lon="2.63138">
        <ele>632.8</ele>
        <time>2022-06-21T07:23:43Z</time>
      </trkpt>
      <trkpt lat="43.41542" lon="2.6314">
        <ele>632.6</ele>
        <time>2022-06-21T07:23:44Z</time>
      </trkpt>
      <trkpt lat="43.41542" lon="2.63142">
        <ele>632.4</ele>
        <time>2022-06-21T07:23:45Z</time>
      </trkpt>
      <trkpt lat="43.41542" lon="2.63143">
        <ele>632.2</ele>
        <time>2022-06-21T07:23:46Z</time>
      </trkpt>
      <trkpt lat="43.41542" lon="2.63144">
        <ele>632</ele>
        <time>2022-06-21T07:23:47Z</time>
      </trkpt>
      <trkpt lat="43.41542" lon="2.63146">
        <ele>631.8</ele>
        <time>2022-06-21T07:23:48Z</time>
      </trkpt>
      <trkpt lat="43.41542" lon="2.63147">
        <ele>631.6</ele>
        <time>2022-06-21T07:23:49Z</time>
      </trkpt>
      <trkpt lat="43.41542" lon="2.63148">
        <ele>631.5</ele>
        <time>2022-06-21T07:23:50Z</time>
      </trkpt>
      <trkpt lat="43.41542" lon="2.63148">
        <ele>631.4</ele>
        <time>2022-06-21T07:23:51Z</time>
      </trkpt>
      <trkpt lat="43.41542" lon="2.63149">
        <ele>631.3</ele>
        <time>2022-06-21T07:23:52Z</time>
      </trkpt>
      <trkpt lat="43.41542" lon="2.63151">
        <ele>631.1</ele>
        <time>2022-06-21T07:23:53Z</time>
      </trkpt>
      <trkpt lat="43.41542" lon="2.63153">
        <ele>630.9</ele>
        <time>2022-06-21T07:23:54Z</time>
      </trkpt>
      <trkpt lat="43.41542" lon="2.63154">
        <ele>630.6</ele>
        <time>2022-06-21T07:23:55Z</time>
      </trkpt>
      <trkpt lat="43.41542" lon="2.63156">
        <ele>630.5</ele>
        <time>2022-06-21T07:23:56Z</time>
      </trkpt>
      <trkpt lat="43.41542" lon="2.63157">
        <ele>630.3</ele>
        <time>2022-06-21T07:23:57Z</time>
      </trkpt>
      <trkpt lat="43.41542" lon="2.63159">
        <ele>629.9</ele>
        <time>2022-06-21T07:23:58Z</time>
      </trkpt>
      <trkpt lat="43.41542" lon="2.63161">
        <ele>629.8</ele>
        <time>2022-06-21T07:23:59Z</time>
      </trkpt>
      <trkpt lat="43.41542" lon="2.63162">
        <ele>629.6</ele>
        <time>2022-06-21T07:24:00Z</time>
      </trkpt>
      <trkpt lat="43.41542" lon="2.63163">
        <ele>629.4</ele>
        <time>2022-06-21T07:24:01Z</time>
      </trkpt>
      <trkpt lat="43.41542" lon="2.63164">
        <ele>629.3</ele>
        <time>2022-06-21T07:24:02Z</time>
      </trkpt>
      <trkpt lat="43.41542" lon="2.63165">
        <ele>629.1</ele>
        <time>2022-06-21T07:24:03Z</time>
      </trkpt>
      <trkpt lat="43.41542" lon="2.63165">
        <ele>629</ele>
        <time>2022-06-21T07:24:04Z</time>
      </trkpt>
      <trkpt lat="43.41542" lon="2.63166">
        <ele>628.9</ele>
        <time>2022-06-21T07:24:05Z</time>
      </trkpt>
      <trkpt lat="43.41542" lon="2.63167">
        <ele>628.8</ele>
        <time>2022-06-21T07:24:06Z</time>
      </trkpt>
      <trkpt lat="43.41542" lon="2.63168">
        <ele>628.7</ele>
        <time>2022-06-21T07:24:07Z</time>
      </trkpt>
      <trkpt lat="43.41542" lon="2.63169">
        <ele>628.5</ele>
        <time>2022-06-21T07:24:08Z</time>
      </trkpt>
      <trkpt lat="43.41542" lon="2.63171">
        <ele>628.2</ele>
        <time>2022-06-21T07:24:09Z</time>
      </trkpt>
      <trkpt lat="43.41542" lon="2.63172">
        <ele>628.1</ele>
        <time>2022-06-21T07:24:10Z</time>
      </trkpt>
      <trkpt lat="43.41542" lon="2.63174">
        <ele>627.8</ele>
        <time>2022-06-21T07:24:11Z</time>
      </trkpt>
      <trkpt lat="43.41542" lon="2.63175">
        <ele>627.7</ele>
        <time>2022-06-21T07:24:12Z</time>
      </trkpt>
      <trkpt lat="43.41542" lon="2.63176">
        <ele>627.6</ele>
        <time>2022-06-21T07:24:13Z</time>
      </trkpt>
      <trkpt lat="43.41542" lon="2.63177">
        <ele>627.5</ele>
        <time>2022-06-21T07:24:14Z</time>
      </trkpt>
      <trkpt lat="43.41542" lon="2.63179">
        <ele>627.3</ele>
        <time>2022-06-21T07:24:15Z</time>
      </trkpt>
      <trkpt lat="43.41542" lon="2.63181">
        <ele>627.1</ele>
        <time>2022-06-21T07:24:17Z</time>
      </trkpt>
      <trkpt lat="43.41542" lon="2.63181">
        <ele>627.1</ele>
        <time>2022-06-21T07:24:18Z</time>
      </trkpt>
      <trkpt lat="43.41542" lon="2.63181">
        <ele>627.1</ele>
        <time>2022-06-21T07:24:19Z</time>
      </trkpt>
      <trkpt lat="43.41542" lon="2.63181">
        <ele>627.1</ele>
        <time>2022-06-21T07:24:20Z</time>
      </trkpt>
      <trkpt lat="43.41542" lon="2.63181">
        <ele>627.1</ele>
        <time>2022-06-21T07:24:21Z</time>
      </trkpt>
      <trkpt lat="43.41542" lon="2.63181">
        <ele>627.1</ele>
        <time>2022-06-21T07:24:22Z</time>
      </trkpt>
      <trkpt lat="43.41542" lon="2.63181">
        <ele>627.1</ele>
        <time>2022-06-21T07:24:23Z</time>
      </trkpt>
      <trkpt lat="43.41542" lon="2.63181">
        <ele>627.1</ele>
        <time>2022-06-21T07:24:24Z</time>
      </trkpt>
      <trkpt lat="43.41542" lon="2.63181">
        <ele>627</ele>
        <time>2022-06-21T07:24:25Z</time>
      </trkpt>
      <trkpt lat="43.41541" lon="2.63183">
        <ele>626.9</ele>
        <time>2022-06-21T07:24:26Z</time>
      </trkpt>
      <trkpt lat="43.41541" lon="2.63185">
        <ele>626.7</ele>
        <time>2022-06-21T07:24:27Z</time>
      </trkpt>
      <trkpt lat="43.41541" lon="2.63185">
        <ele>626.6</ele>
        <time>2022-06-21T07:24:28Z</time>
      </trkpt>
      <trkpt lat="43.41541" lon="2.63185">
        <ele>626.6</ele>
        <time>2022-06-21T07:24:29Z</time>
      </trkpt>
      <trkpt lat="43.41541" lon="2.63185">
        <ele>626.6</ele>
        <time>2022-06-21T07:24:30Z</time>
      </trkpt>
      <trkpt lat="43.41541" lon="2.63186">
        <ele>626.6</ele>
        <time>2022-06-21T07:24:31Z</time>
      </trkpt>
      <trkpt lat="43.41541" lon="2.63186">
        <ele>626.5</ele>
        <time>2022-06-21T07:24:32Z</time>
      </trkpt>
      <trkpt lat="43.41541" lon="2.63186">
        <ele>626.5</ele>
        <time>2022-06-21T07:24:33Z</time>
      </trkpt>
      <trkpt lat="43.4154" lon="2.63186">
        <ele>626.5</ele>
        <time>2022-06-21T07:24:34Z</time>
      </trkpt>
      <trkpt lat="43.4154" lon="2.63187">
        <ele>626.5</ele>
        <time>2022-06-21T07:24:35Z</time>
      </trkpt>
      <trkpt lat="43.4154" lon="2.63187">
        <ele>626.4</ele>
        <time>2022-06-21T07:24:36Z</time>
      </trkpt>
      <trkpt lat="43.4154" lon="2.63187">
        <ele>626.4</ele>
        <time>2022-06-21T07:24:37Z</time>
      </trkpt>
      <trkpt lat="43.4154" lon="2.63187">
        <ele>626.4</ele>
        <time>2022-06-21T07:24:38Z</time>
      </trkpt>
      <trkpt lat="43.4154" lon="2.63188">
        <ele>626.4</ele>
        <time>2022-06-21T07:24:39Z</time>
      </trkpt>
      <trkpt lat="43.4154" lon="2.63188">
        <ele>626.3</ele>
        <time>2022-06-21T07:24:40Z</time>
      </trkpt>
      <trkpt lat="43.4154" lon="2.63188">
        <ele>626.3</ele>
        <time>2022-06-21T07:24:42Z</time>
      </trkpt>
      <trkpt lat="43.4154" lon="2.63188">
        <ele>626.3</ele>
        <time>2022-06-21T07:24:43Z</time>
      </trkpt>
      <trkpt lat="43.4154" lon="2.63189">
        <ele>626.3</ele>
        <time>2022-06-21T07:24:44Z</time>
      </trkpt>
      <trkpt lat="43.4154" lon="2.63189">
        <ele>626.2</ele>
        <time>2022-06-21T07:24:45Z</time>
      </trkpt>
      <trkpt lat="43.4154" lon="2.63189">
        <ele>626.2</ele>
        <time>2022-06-21T07:24:46Z</time>
      </trkpt>
      <trkpt lat="43.4154" lon="2.63189">
        <ele>626.2</ele>
        <time>2022-06-21T07:24:47Z</time>
      </trkpt>
      <trkpt lat="43.4154" lon="2.6319">
        <ele>626.2</ele>
        <time>2022-06-21T07:24:48Z</time>
      </trkpt>
      <trkpt lat="43.4154" lon="2.6319">
        <ele>626.1</ele>
        <time>2022-06-21T07:24:49Z</time>
      </trkpt>
      <trkpt lat="43.41539" lon="2.6319">
        <ele>626.1</ele>
        <time>2022-06-21T07:24:50Z</time>
      </trkpt>
      <trkpt lat="43.41539" lon="2.6319">
        <ele>626.1</ele>
        <time>2022-06-21T07:24:51Z</time>
      </trkpt>
      <trkpt lat="43.41539" lon="2.63191">
        <ele>626.1</ele>
        <time>2022-06-21T07:24:52Z</time>
      </trkpt>
      <trkpt lat="43.41539" lon="2.63191">
        <ele>626</ele>
        <time>2022-06-21T07:24:53Z</time>
      </trkpt>
      <trkpt lat="43.41539" lon="2.63191">
        <ele>626</ele>
        <time>2022-06-21T07:24:54Z</time>
      </trkpt>
      <trkpt lat="43.41539" lon="2.63191">
        <ele>626</ele>
        <time>2022-06-21T07:24:56Z</time>
      </trkpt>
      <trkpt lat="43.41539" lon="2.63192">
        <ele>626</ele>
        <time>2022-06-21T07:24:57Z</time>
      </trkpt>
      <trkpt lat="43.41539" lon="2.63192">
        <ele>625.9</ele>
        <time>2022-06-21T07:24:58Z</time>
      </trkpt>
      <trkpt lat="43.41539" lon="2.63192">
        <ele>625.9</ele>
        <time>2022-06-21T07:24:59Z</time>
      </trkpt>
      <trkpt lat="43.41539" lon="2.63192">
        <ele>625.9</ele>
        <time>2022-06-21T07:25:00Z</time>
      </trkpt>
      <trkpt lat="43.41539" lon="2.63193">
        <ele>625.9</ele>
        <time>2022-06-21T07:25:01Z</time>
      </trkpt>
      <trkpt lat="43.41539" lon="2.63193">
        <ele>625.8</ele>
        <time>2022-06-21T07:25:02Z</time>
      </trkpt>
      <trkpt lat="43.41537" lon="2.632">
        <ele>625.1</ele>
        <time>2022-06-21T07:25:03Z</time>
      </trkpt>
      <trkpt lat="43.41535" lon="2.63205">
        <ele>624.7</ele>
        <time>2022-06-21T07:25:04Z</time>
      </trkpt>
      <trkpt lat="43.41534" lon="2.63209">
        <ele>624.4</ele>
        <time>2022-06-21T07:25:05Z</time>
      </trkpt>
      <trkpt lat="43.41533" lon="2.63212">
        <ele>624.1</ele>
        <time>2022-06-21T07:25:06Z</time>
      </trkpt>
      <trkpt lat="43.41532" lon="2.63214">
        <ele>623.9</ele>
        <time>2022-06-21T07:25:07Z</time>
      </trkpt>
      <trkpt lat="43.41529" lon="2.63222">
        <ele>623</ele>
        <time>2022-06-21T07:25:08Z</time>
      </trkpt>
      <trkpt lat="43.41527" lon="2.63226">
        <ele>622.5</ele>
        <time>2022-06-21T07:25:09Z</time>
      </trkpt>
      <trkpt lat="43.41526" lon="2.63229">
        <ele>622.2</ele>
        <time>2022-06-21T07:25:10Z</time>
      </trkpt>
      <trkpt lat="43.41526" lon="2.63229">
        <ele>622.2</ele>
        <time>2022-06-21T07:25:11Z</time>
      </trkpt>
      <trkpt lat="43.41526" lon="2.6323">
        <ele>622.1</ele>
        <time>2022-06-21T07:25:12Z</time>
      </trkpt>
      <trkpt lat="43.41525" lon="2.63231">
        <ele>622</ele>
        <time>2022-06-21T07:25:13Z</time>
      </trkpt>
      <trkpt lat="43.41525" lon="2.63232">
        <ele>621.9</ele>
        <time>2022-06-21T07:25:14Z</time>
      </trkpt>
      <trkpt lat="43.41525" lon="2.63233">
        <ele>621.8</ele>
        <time>2022-06-21T07:25:15Z</time>
      </trkpt>
      <trkpt lat="43.41524" lon="2.63233">
        <ele>621.7</ele>
        <time>2022-06-21T07:25:16Z</time>
      </trkpt>
      <trkpt lat="43.41524" lon="2.63234">
        <ele>621.6</ele>
        <time>2022-06-21T07:25:17Z</time>
      </trkpt>
      <trkpt lat="43.41524" lon="2.63235">
        <ele>621.5</ele>
        <time>2022-06-21T07:25:18Z</time>
      </trkpt>
      <trkpt lat="43.41521" lon="2.63241">
        <ele>620.8</ele>
        <time>2022-06-21T07:25:19Z</time>
      </trkpt>
      <trkpt lat="43.4152" lon="2.63245">
        <ele>620.3</ele>
        <time>2022-06-21T07:25:20Z</time>
      </trkpt>
      <trkpt lat="43.41519" lon="2.63248">
        <ele>620</ele>
        <time>2022-06-21T07:25:21Z</time>
      </trkpt>
      <trkpt lat="43.41518" lon="2.6325">
        <ele>619.8</ele>
        <time>2022-06-21T07:25:22Z</time>
      </trkpt>
      <trkpt lat="43.41517" lon="2.63252">
        <ele>619.6</ele>
        <time>2022-06-21T07:25:23Z</time>
      </trkpt>
      <trkpt lat="43.41515" lon="2.63258">
        <ele>619.1</ele>
        <time>2022-06-21T07:25:24Z</time>
      </trkpt>
      <trkpt lat="43.41514" lon="2.63263">
        <ele>618.6</ele>
        <time>2022-06-21T07:25:25Z</time>
      </trkpt>
      <trkpt lat="43.41513" lon="2.63265">
        <ele>618.4</ele>
        <time>2022-06-21T07:25:26Z</time>
      </trkpt>
      <trkpt lat="43.41512" lon="2.63268">
        <ele>618.1</ele>
        <time>2022-06-21T07:25:27Z</time>
      </trkpt>
      <trkpt lat="43.41511" lon="2.63269">
        <ele>618</ele>
        <time>2022-06-21T07:25:28Z</time>
      </trkpt>
      <trkpt lat="43.41511" lon="2.63271">
        <ele>617.8</ele>
        <time>2022-06-21T07:25:29Z</time>
      </trkpt>
      <trkpt lat="43.4151" lon="2.63273">
        <ele>617.6</ele>
        <time>2022-06-21T07:25:30Z</time>
      </trkpt>
      <trkpt lat="43.41509" lon="2.63275">
        <ele>617.4</ele>
        <time>2022-06-21T07:25:31Z</time>
      </trkpt>
      <trkpt lat="43.41509" lon="2.63278">
        <ele>617.2</ele>
        <time>2022-06-21T07:25:32Z</time>
      </trkpt>
      <trkpt lat="43.41509" lon="2.63279">
        <ele>617.1</ele>
        <time>2022-06-21T07:25:33Z</time>
      </trkpt>
      <trkpt lat="43.41509" lon="2.63279">
        <ele>617</ele>
        <time>2022-06-21T07:25:34Z</time>
      </trkpt>
      <trkpt lat="43.41509" lon="2.63279">
        <ele>617</ele>
        <time>2022-06-21T07:25:35Z</time>
      </trkpt>
      <trkpt lat="43.41508" lon="2.6328">
        <ele>616.9</ele>
        <time>2022-06-21T07:25:36Z</time>
      </trkpt>
      <trkpt lat="43.41508" lon="2.63281">
        <ele>616.8</ele>
        <time>2022-06-21T07:25:37Z</time>
      </trkpt>
      <trkpt lat="43.41509" lon="2.63284">
        <ele>616.5</ele>
        <time>2022-06-21T07:25:38Z</time>
      </trkpt>
      <trkpt lat="43.41509" lon="2.63286">
        <ele>616.4</ele>
        <time>2022-06-21T07:25:39Z</time>
      </trkpt>
      <trkpt lat="43.41508" lon="2.63287">
        <ele>616.2</ele>
        <time>2022-06-21T07:25:40Z</time>
      </trkpt>
      <trkpt lat="43.41508" lon="2.63288">
        <ele>616.1</ele>
        <time>2022-06-21T07:25:41Z</time>
      </trkpt>
      <trkpt lat="43.41508" lon="2.63289">
        <ele>616</ele>
        <time>2022-06-21T07:25:42Z</time>
      </trkpt>
      <trkpt lat="43.41508" lon="2.6329">
        <ele>615.9</ele>
        <time>2022-06-21T07:25:43Z</time>
      </trkpt>
      <trkpt lat="43.41508" lon="2.63291">
        <ele>615.9</ele>
        <time>2022-06-21T07:25:44Z</time>
      </trkpt>
      <trkpt lat="43.41508" lon="2.63291">
        <ele>615.8</ele>
        <time>2022-06-21T07:25:45Z</time>
      </trkpt>
      <trkpt lat="43.41507" lon="2.63292">
        <ele>615.7</ele>
        <time>2022-06-21T07:25:47Z</time>
      </trkpt>
      <trkpt lat="43.41507" lon="2.63293">
        <ele>615.6</ele>
        <time>2022-06-21T07:25:48Z</time>
      </trkpt>
      <trkpt lat="43.41507" lon="2.63294">
        <ele>615.5</ele>
        <time>2022-06-21T07:25:49Z</time>
      </trkpt>
      <trkpt lat="43.41507" lon="2.63295">
        <ele>615.5</ele>
        <time>2022-06-21T07:25:50Z</time>
      </trkpt>
      <trkpt lat="43.41507" lon="2.63296">
        <ele>615.4</ele>
        <time>2022-06-21T07:25:51Z</time>
      </trkpt>
      <trkpt lat="43.41507" lon="2.63296">
        <ele>615.3</ele>
        <time>2022-06-21T07:25:52Z</time>
      </trkpt>
      <trkpt lat="43.41505" lon="2.63303">
        <ele>614.7</ele>
        <time>2022-06-21T07:25:53Z</time>
      </trkpt>
      <trkpt lat="43.41504" lon="2.63306">
        <ele>614.3</ele>
        <time>2022-06-21T07:25:54Z</time>
      </trkpt>
      <trkpt lat="43.41504" lon="2.63307">
        <ele>614.2</ele>
        <time>2022-06-21T07:25:55Z</time>
      </trkpt>
      <trkpt lat="43.41504" lon="2.63308">
        <ele>614.2</ele>
        <time>2022-06-21T07:25:56Z</time>
      </trkpt>
      <trkpt lat="43.41504" lon="2.63308">
        <ele>614.1</ele>
        <time>2022-06-21T07:25:58Z</time>
      </trkpt>
      <trkpt lat="43.41504" lon="2.63309">
        <ele>614.1</ele>
        <time>2022-06-21T07:25:59Z</time>
      </trkpt>
      <trkpt lat="43.41504" lon="2.63309">
        <ele>614.1</ele>
        <time>2022-06-21T07:26:00Z</time>
      </trkpt>
      <trkpt lat="43.41504" lon="2.63309">
        <ele>614</ele>
        <time>2022-06-21T07:26:01Z</time>
      </trkpt>
      <trkpt lat="43.41504" lon="2.6331">
        <ele>614</ele>
        <time>2022-06-21T07:26:02Z</time>
      </trkpt>
      <trkpt lat="43.41504" lon="2.6331">
        <ele>614</ele>
        <time>2022-06-21T07:26:03Z</time>
      </trkpt>
      <trkpt lat="43.41504" lon="2.63311">
        <ele>613.9</ele>
        <time>2022-06-21T07:26:04Z</time>
      </trkpt>
      <trkpt lat="43.41504" lon="2.63311">
        <ele>613.9</ele>
        <time>2022-06-21T07:26:05Z</time>
      </trkpt>
      <trkpt lat="43.41504" lon="2.63311">
        <ele>613.9</ele>
        <time>2022-06-21T07:26:06Z</time>
      </trkpt>
      <trkpt lat="43.41504" lon="2.63312">
        <ele>613.8</ele>
        <time>2022-06-21T07:26:07Z</time>
      </trkpt>
      <trkpt lat="43.41504" lon="2.63312">
        <ele>613.8</ele>
        <time>2022-06-21T07:26:08Z</time>
      </trkpt>
      <trkpt lat="43.41504" lon="2.63312">
        <ele>613.8</ele>
        <time>2022-06-21T07:26:09Z</time>
      </trkpt>
      <trkpt lat="43.41504" lon="2.63313">
        <ele>613.7</ele>
        <time>2022-06-21T07:26:10Z</time>
      </trkpt>
      <trkpt lat="43.41504" lon="2.63313">
        <ele>613.7</ele>
        <time>2022-06-21T07:26:11Z</time>
      </trkpt>
      <trkpt lat="43.41502" lon="2.63326">
        <ele>612.6</ele>
        <time>2022-06-21T07:26:12Z</time>
      </trkpt>
      <trkpt lat="43.415" lon="2.63334">
        <ele>612</ele>
        <time>2022-06-21T07:26:13Z</time>
      </trkpt>
      <trkpt lat="43.415" lon="2.63338">
        <ele>611.6</ele>
        <time>2022-06-21T07:26:14Z</time>
      </trkpt>
      <trkpt lat="43.41499" lon="2.6334">
        <ele>611.5</ele>
        <time>2022-06-21T07:26:15Z</time>
      </trkpt>
      <trkpt lat="43.41499" lon="2.63341">
        <ele>611.4</ele>
        <time>2022-06-21T07:26:16Z</time>
      </trkpt>
      <trkpt lat="43.41499" lon="2.63342">
        <ele>611.3</ele>
        <time>2022-06-21T07:26:17Z</time>
      </trkpt>
      <trkpt lat="43.41499" lon="2.63342">
        <ele>611.3</ele>
        <time>2022-06-21T07:26:18Z</time>
      </trkpt>
      <trkpt lat="43.41499" lon="2.63343">
        <ele>611.2</ele>
        <time>2022-06-21T07:26:19Z</time>
      </trkpt>
      <trkpt lat="43.415" lon="2.63348">
        <ele>610.7</ele>
        <time>2022-06-21T07:26:20Z</time>
      </trkpt>
      <trkpt lat="43.415" lon="2.63351">
        <ele>610.5</ele>
        <time>2022-06-21T07:26:21Z</time>
      </trkpt>
      <trkpt lat="43.415" lon="2.63353">
        <ele>610.3</ele>
        <time>2022-06-21T07:26:22Z</time>
      </trkpt>
      <trkpt lat="43.415" lon="2.63355">
        <ele>610.2</ele>
        <time>2022-06-21T07:26:23Z</time>
      </trkpt>
      <trkpt lat="43.415" lon="2.63355">
        <ele>610.1</ele>
        <time>2022-06-21T07:26:24Z</time>
      </trkpt>
      <trkpt lat="43.415" lon="2.63355">
        <ele>610.1</ele>
        <time>2022-06-21T07:26:25Z</time>
      </trkpt>
      <trkpt lat="43.415" lon="2.63355">
        <ele>610.1</ele>
        <time>2022-06-21T07:26:26Z</time>
      </trkpt>
      <trkpt lat="43.415" lon="2.63355">
        <ele>610.1</ele>
        <time>2022-06-21T07:26:27Z</time>
      </trkpt>
      <trkpt lat="43.415" lon="2.63355">
        <ele>610.1</ele>
        <time>2022-06-21T07:26:28Z</time>
      </trkpt>
      <trkpt lat="43.415" lon="2.63355">
        <ele>610.1</ele>
        <time>2022-06-21T07:26:29Z</time>
      </trkpt>
      <trkpt lat="43.415" lon="2.63356">
        <ele>610</ele>
        <time>2022-06-21T07:26:30Z</time>
      </trkpt>
      <trkpt lat="43.415" lon="2.63358">
        <ele>609.8</ele>
        <time>2022-06-21T07:26:31Z</time>
      </trkpt>
      <trkpt lat="43.415" lon="2.6336">
        <ele>609.6</ele>
        <time>2022-06-21T07:26:32Z</time>
      </trkpt>
      <trkpt lat="43.415" lon="2.63361">
        <ele>609.6</ele>
        <time>2022-06-21T07:26:33Z</time>
      </trkpt>
      <trkpt lat="43.415" lon="2.63361">
        <ele>609.5</ele>
        <time>2022-06-21T07:26:34Z</time>
      </trkpt>
      <trkpt lat="43.415" lon="2.63362">
        <ele>609.5</ele>
        <time>2022-06-21T07:26:35Z</time>
      </trkpt>
      <trkpt lat="43.415" lon="2.63363">
        <ele>609.4</ele>
        <time>2022-06-21T07:26:37Z</time>
      </trkpt>
      <trkpt lat="43.415" lon="2.63363">
        <ele>609.4</ele>
        <time>2022-06-21T07:26:38Z</time>
      </trkpt>
      <trkpt lat="43.415" lon="2.63364">
        <ele>609.3</ele>
        <time>2022-06-21T07:26:39Z</time>
      </trkpt>
      <trkpt lat="43.41499" lon="2.63364">
        <ele>609.3</ele>
        <time>2022-06-21T07:26:40Z</time>
      </trkpt>
      <trkpt lat="43.41499" lon="2.63365">
        <ele>609.2</ele>
        <time>2022-06-21T07:26:41Z</time>
      </trkpt>
      <trkpt lat="43.41499" lon="2.63369">
        <ele>608.8</ele>
        <time>2022-06-21T07:26:42Z</time>
      </trkpt>
      <trkpt lat="43.41499" lon="2.63371">
        <ele>608.6</ele>
        <time>2022-06-21T07:26:43Z</time>
      </trkpt>
      <trkpt lat="43.41498" lon="2.63374">
        <ele>608.4</ele>
        <time>2022-06-21T07:26:44Z</time>
      </trkpt>
      <trkpt lat="43.41498" lon="2.63375">
        <ele>608.3</ele>
        <time>2022-06-21T07:26:45Z</time>
      </trkpt>
      <trkpt lat="43.41498" lon="2.63379">
        <ele>608</ele>
        <time>2022-06-21T07:26:46Z</time>
      </trkpt>
      <trkpt lat="43.41498" lon="2.6338">
        <ele>607.9</ele>
        <time>2022-06-21T07:26:47Z</time>
      </trkpt>
      <trkpt lat="43.41498" lon="2.63385">
        <ele>607.5</ele>
        <time>2022-06-21T07:26:48Z</time>
      </trkpt>
      <trkpt lat="43.41498" lon="2.63388">
        <ele>607.2</ele>
        <time>2022-06-21T07:26:49Z</time>
      </trkpt>
      <trkpt lat="43.41498" lon="2.63389">
        <ele>607.1</ele>
        <time>2022-06-21T07:26:50Z</time>
      </trkpt>
      <trkpt lat="43.41498" lon="2.6339">
        <ele>607</ele>
        <time>2022-06-21T07:26:51Z</time>
      </trkpt>
      <trkpt lat="43.41497" lon="2.63395">
        <ele>606.6</ele>
        <time>2022-06-21T07:26:52Z</time>
      </trkpt>
      <trkpt lat="43.41497" lon="2.63396">
        <ele>606.5</ele>
        <time>2022-06-21T07:26:53Z</time>
      </trkpt>
      <trkpt lat="43.41497" lon="2.63397">
        <ele>606.4</ele>
        <time>2022-06-21T07:26:54Z</time>
      </trkpt>
      <trkpt lat="43.41497" lon="2.63397">
        <ele>606.4</ele>
        <time>2022-06-21T07:26:55Z</time>
      </trkpt>
      <trkpt lat="43.41497" lon="2.63397">
        <ele>606.4</ele>
        <time>2022-06-21T07:26:56Z</time>
      </trkpt>
      <trkpt lat="43.41497" lon="2.63398">
        <ele>606.4</ele>
        <time>2022-06-21T07:26:57Z</time>
      </trkpt>
      <trkpt lat="43.41497" lon="2.63399">
        <ele>606.3</ele>
        <time>2022-06-21T07:26:58Z</time>
      </trkpt>
      <trkpt lat="43.41497" lon="2.634">
        <ele>606.1</ele>
        <time>2022-06-21T07:26:59Z</time>
      </trkpt>
      <trkpt lat="43.41496" lon="2.63404">
        <ele>605.8</ele>
        <time>2022-06-21T07:27:00Z</time>
      </trkpt>
      <trkpt lat="43.41496" lon="2.63406">
        <ele>605.7</ele>
        <time>2022-06-21T07:27:01Z</time>
      </trkpt>
      <trkpt lat="43.41496" lon="2.63407">
        <ele>605.6</ele>
        <time>2022-06-21T07:27:02Z</time>
      </trkpt>
      <trkpt lat="43.41496" lon="2.63409">
        <ele>605.4</ele>
        <time>2022-06-21T07:27:03Z</time>
      </trkpt>
      <trkpt lat="43.41496" lon="2.6341">
        <ele>605.3</ele>
        <time>2022-06-21T07:27:04Z</time>
      </trkpt>
      <trkpt lat="43.41496" lon="2.6341">
        <ele>605.3</ele>
        <time>2022-06-21T07:27:05Z</time>
      </trkpt>
      <trkpt lat="43.41496" lon="2.63411">
        <ele>605.3</ele>
        <time>2022-06-21T07:27:06Z</time>
      </trkpt>
      <trkpt lat="43.41496" lon="2.63411">
        <ele>605.2</ele>
        <time>2022-06-21T07:27:07Z</time>
      </trkpt>
      <trkpt lat="43.41496" lon="2.63411">
        <ele>605.2</ele>
        <time>2022-06-21T07:27:08Z</time>
      </trkpt>
      <trkpt lat="43.41496" lon="2.63411">
        <ele>605.2</ele>
        <time>2022-06-21T07:27:09Z</time>
      </trkpt>
      <trkpt lat="43.41496" lon="2.63412">
        <ele>605.2</ele>
        <time>2022-06-21T07:27:10Z</time>
      </trkpt>
      <trkpt lat="43.41496" lon="2.63412">
        <ele>605.2</ele>
        <time>2022-06-21T07:27:11Z</time>
      </trkpt>
      <trkpt lat="43.41496" lon="2.63412">
        <ele>605.1</ele>
        <time>2022-06-21T07:27:12Z</time>
      </trkpt>
      <trkpt lat="43.41496" lon="2.63412">
        <ele>605.1</ele>
        <time>2022-06-21T07:27:13Z</time>
      </trkpt>
      <trkpt lat="43.41496" lon="2.63412">
        <ele>605.1</ele>
        <time>2022-06-21T07:27:14Z</time>
      </trkpt>
      <trkpt lat="43.41496" lon="2.63413">
        <ele>605.1</ele>
        <time>2022-06-21T07:27:15Z</time>
      </trkpt>
      <trkpt lat="43.41496" lon="2.63413">
        <ele>605.1</ele>
        <time>2022-06-21T07:27:16Z</time>
      </trkpt>
      <trkpt lat="43.41496" lon="2.63413">
        <ele>605</ele>
        <time>2022-06-21T07:27:17Z</time>
      </trkpt>
      <trkpt lat="43.41496" lon="2.63413">
        <ele>605</ele>
        <time>2022-06-21T07:27:18Z</time>
      </trkpt>
      <trkpt lat="43.41495" lon="2.63414">
        <ele>605</ele>
        <time>2022-06-21T07:27:19Z</time>
      </trkpt>
      <trkpt lat="43.41495" lon="2.63414">
        <ele>605</ele>
        <time>2022-06-21T07:27:20Z</time>
      </trkpt>
      <trkpt lat="43.41495" lon="2.63414">
        <ele>605</ele>
        <time>2022-06-21T07:27:21Z</time>
      </trkpt>
      <trkpt lat="43.41495" lon="2.63414">
        <ele>604.9</ele>
        <time>2022-06-21T07:27:22Z</time>
      </trkpt>
      <trkpt lat="43.41495" lon="2.63414">
        <ele>604.9</ele>
        <time>2022-06-21T07:27:23Z</time>
      </trkpt>
      <trkpt lat="43.41495" lon="2.63415">
        <ele>604.9</ele>
        <time>2022-06-21T07:27:24Z</time>
      </trkpt>
      <trkpt lat="43.41495" lon="2.63415">
        <ele>604.9</ele>
        <time>2022-06-21T07:27:25Z</time>
      </trkpt>
      <trkpt lat="43.41495" lon="2.63415">
        <ele>604.9</ele>
        <time>2022-06-21T07:27:26Z</time>
      </trkpt>
      <trkpt lat="43.41495" lon="2.63415">
        <ele>604.8</ele>
        <time>2022-06-21T07:27:27Z</time>
      </trkpt>
      <trkpt lat="43.41495" lon="2.63416">
        <ele>604.8</ele>
        <time>2022-06-21T07:27:28Z</time>
      </trkpt>
      <trkpt lat="43.41495" lon="2.63416">
        <ele>604.8</ele>
        <time>2022-06-21T07:27:29Z</time>
      </trkpt>
      <trkpt lat="43.41495" lon="2.63416">
        <ele>604.8</ele>
        <time>2022-06-21T07:27:30Z</time>
      </trkpt>
      <trkpt lat="43.41495" lon="2.63416">
        <ele>604.8</ele>
        <time>2022-06-21T07:27:31Z</time>
      </trkpt>
      <trkpt lat="43.41495" lon="2.63416">
        <ele>604.7</ele>
        <time>2022-06-21T07:27:32Z</time>
      </trkpt>
      <trkpt lat="43.41495" lon="2.63417">
        <ele>604.7</ele>
        <time>2022-06-21T07:27:33Z</time>
      </trkpt>
      <trkpt lat="43.41495" lon="2.63417">
        <ele>604.7</ele>
        <time>2022-06-21T07:27:34Z</time>
      </trkpt>
      <trkpt lat="43.41493" lon="2.63424">
        <ele>604</ele>
        <time>2022-06-21T07:27:35Z</time>
      </trkpt>
      <trkpt lat="43.41492" lon="2.63429">
        <ele>603.6</ele>
        <time>2022-06-21T07:27:36Z</time>
      </trkpt>
      <trkpt lat="43.41491" lon="2.6343">
        <ele>603.4</ele>
        <time>2022-06-21T07:27:37Z</time>
      </trkpt>
      <trkpt lat="43.41491" lon="2.6343">
        <ele>603.4</ele>
        <time>2022-06-21T07:27:38Z</time>
      </trkpt>
      <trkpt lat="43.41491" lon="2.63431">
        <ele>603.4</ele>
        <time>2022-06-21T07:27:40Z</time>
      </trkpt>
      <trkpt lat="43.41491" lon="2.63431">
        <ele>603.3</ele>
        <time>2022-06-21T07:27:41Z</time>
      </trkpt>
      <trkpt lat="43.41491" lon="2.63431">
        <ele>603.3</ele>
        <time>2022-06-21T07:27:42Z</time>
      </trkpt>
      <trkpt lat="43.41491" lon="2.63431">
        <ele>603.3</ele>
        <time>2022-06-21T07:27:43Z</time>
      </trkpt>
      <trkpt lat="43.41491" lon="2.63432">
        <ele>603.2</ele>
        <time>2022-06-21T07:27:44Z</time>
      </trkpt>
      <trkpt lat="43.4149" lon="2.63432">
        <ele>603.2</ele>
        <time>2022-06-21T07:27:45Z</time>
      </trkpt>
      <trkpt lat="43.4149" lon="2.63432">
        <ele>603.2</ele>
        <time>2022-06-21T07:27:46Z</time>
      </trkpt>
      <trkpt lat="43.4149" lon="2.63432">
        <ele>603.1</ele>
        <time>2022-06-21T07:27:47Z</time>
      </trkpt>
      <trkpt lat="43.4149" lon="2.63433">
        <ele>603.1</ele>
        <time>2022-06-21T07:27:48Z</time>
      </trkpt>
      <trkpt lat="43.4149" lon="2.63433">
        <ele>603.1</ele>
        <time>2022-06-21T07:27:49Z</time>
      </trkpt>
      <trkpt lat="43.4149" lon="2.63433">
        <ele>603.1</ele>
        <time>2022-06-21T07:27:50Z</time>
      </trkpt>
      <trkpt lat="43.41489" lon="2.63433">
        <ele>603</ele>
        <time>2022-06-21T07:27:51Z</time>
      </trkpt>
      <trkpt lat="43.41489" lon="2.63434">
        <ele>603</ele>
        <time>2022-06-21T07:27:52Z</time>
      </trkpt>
      <trkpt lat="43.41489" lon="2.63434">
        <ele>603</ele>
        <time>2022-06-21T07:27:53Z</time>
      </trkpt>
      <trkpt lat="43.41489" lon="2.63434">
        <ele>602.9</ele>
        <time>2022-06-21T07:27:54Z</time>
      </trkpt>
      <trkpt lat="43.41489" lon="2.63434">
        <ele>602.9</ele>
        <time>2022-06-21T07:27:55Z</time>
      </trkpt>
      <trkpt lat="43.41489" lon="2.63435">
        <ele>602.9</ele>
        <time>2022-06-21T07:27:56Z</time>
      </trkpt>
      <trkpt lat="43.41488" lon="2.63435">
        <ele>602.9</ele>
        <time>2022-06-21T07:27:57Z</time>
      </trkpt>
      <trkpt lat="43.41488" lon="2.63435">
        <ele>602.8</ele>
        <time>2022-06-21T07:27:58Z</time>
      </trkpt>
      <trkpt lat="43.41488" lon="2.63435">
        <ele>602.8</ele>
        <time>2022-06-21T07:27:59Z</time>
      </trkpt>
      <trkpt lat="43.41488" lon="2.63436">
        <ele>602.8</ele>
        <time>2022-06-21T07:28:00Z</time>
      </trkpt>
      <trkpt lat="43.41488" lon="2.63436">
        <ele>602.7</ele>
        <time>2022-06-21T07:28:01Z</time>
      </trkpt>
      <trkpt lat="43.41488" lon="2.63436">
        <ele>602.7</ele>
        <time>2022-06-21T07:28:02Z</time>
      </trkpt>
      <trkpt lat="43.41487" lon="2.63436">
        <ele>602.7</ele>
        <time>2022-06-21T07:28:03Z</time>
      </trkpt>
      <trkpt lat="43.41487" lon="2.63437">
        <ele>602.7</ele>
        <time>2022-06-21T07:28:04Z</time>
      </trkpt>
      <trkpt lat="43.41487" lon="2.63437">
        <ele>602.6</ele>
        <time>2022-06-21T07:28:05Z</time>
      </trkpt>
      <trkpt lat="43.41487" lon="2.63437">
        <ele>602.6</ele>
        <time>2022-06-21T07:28:06Z</time>
      </trkpt>
      <trkpt lat="43.41487" lon="2.63437">
        <ele>602.6</ele>
        <time>2022-06-21T07:28:07Z</time>
      </trkpt>
      <trkpt lat="43.41487" lon="2.63438">
        <ele>602.5</ele>
        <time>2022-06-21T07:28:08Z</time>
      </trkpt>
      <trkpt lat="43.41487" lon="2.63438">
        <ele>602.5</ele>
        <time>2022-06-21T07:28:09Z</time>
      </trkpt>
      <trkpt lat="43.41486" lon="2.63438">
        <ele>602.5</ele>
        <time>2022-06-21T07:28:10Z</time>
      </trkpt>
      <trkpt lat="43.41486" lon="2.63438">
        <ele>602.4</ele>
        <time>2022-06-21T07:28:11Z</time>
      </trkpt>
      <trkpt lat="43.41486" lon="2.63439">
        <ele>602.4</ele>
        <time>2022-06-21T07:28:12Z</time>
      </trkpt>
      <trkpt lat="43.41481" lon="2.63447">
        <ele>601.5</ele>
        <time>2022-06-21T07:28:13Z</time>
      </trkpt>
      <trkpt lat="43.41478" lon="2.63452">
        <ele>600.9</ele>
        <time>2022-06-21T07:28:14Z</time>
      </trkpt>
      <trkpt lat="43.41474" lon="2.63459">
        <ele>600</ele>
        <time>2022-06-21T07:28:15Z</time>
      </trkpt>
      <trkpt lat="43.41471" lon="2.63465">
        <ele>599.3</ele>
        <time>2022-06-21T07:28:16Z</time>
      </trkpt>
      <trkpt lat="43.41468" lon="2.6347">
        <ele>598.7</ele>
        <time>2022-06-21T07:28:18Z</time>
      </trkpt>
      <trkpt lat="43.41465" lon="2.63476">
        <ele>598</ele>
        <time>2022-06-21T07:28:19Z</time>
      </trkpt>
      <trkpt lat="43.41464" lon="2.63477">
        <ele>597.9</ele>
        <time>2022-06-21T07:28:20Z</time>
      </trkpt>
      <trkpt lat="43.41463" lon="2.63479">
        <ele>597.6</ele>
        <time>2022-06-21T07:28:21Z</time>
      </trkpt>
      <trkpt lat="43.41458" lon="2.63487">
        <ele>596.6</ele>
        <time>2022-06-21T07:28:22Z</time>
      </trkpt>
      <trkpt lat="43.41454" lon="2.63493">
        <ele>595.8</ele>
        <time>2022-06-21T07:28:23Z</time>
      </trkpt>
      <trkpt lat="43.4145" lon="2.63497">
        <ele>595.3</ele>
        <time>2022-06-21T07:28:24Z</time>
      </trkpt>
      <trkpt lat="43.41449" lon="2.63498">
        <ele>595.1</ele>
        <time>2022-06-21T07:28:25Z</time>
      </trkpt>
      <trkpt lat="43.41446" lon="2.635">
        <ele>594.6</ele>
        <time>2022-06-21T07:28:26Z</time>
      </trkpt>
      <trkpt lat="43.41445" lon="2.63501">
        <ele>594.5</ele>
        <time>2022-06-21T07:28:27Z</time>
      </trkpt>
      <trkpt lat="43.41443" lon="2.63503">
        <ele>594.1</ele>
        <time>2022-06-21T07:28:28Z</time>
      </trkpt>
      <trkpt lat="43.41442" lon="2.63504">
        <ele>593.9</ele>
        <time>2022-06-21T07:28:29Z</time>
      </trkpt>
      <trkpt lat="43.41441" lon="2.63505">
        <ele>593.8</ele>
        <time>2022-06-21T07:28:30Z</time>
      </trkpt>
      <trkpt lat="43.41439" lon="2.63506">
        <ele>593.6</ele>
        <time>2022-06-21T07:28:31Z</time>
      </trkpt>
      <trkpt lat="43.41438" lon="2.63507">
        <ele>593.4</ele>
        <time>2022-06-21T07:28:32Z</time>
      </trkpt>
      <trkpt lat="43.41437" lon="2.63508">
        <ele>593.2</ele>
        <time>2022-06-21T07:28:33Z</time>
      </trkpt>
      <trkpt lat="43.41436" lon="2.63509">
        <ele>593.1</ele>
        <time>2022-06-21T07:28:34Z</time>
      </trkpt>
      <trkpt lat="43.41436" lon="2.63509">
        <ele>593</ele>
        <time>2022-06-21T07:28:35Z</time>
      </trkpt>
      <trkpt lat="43.41435" lon="2.63509">
        <ele>593</ele>
        <time>2022-06-21T07:28:36Z</time>
      </trkpt>
      <trkpt lat="43.41435" lon="2.63509">
        <ele>592.9</ele>
        <time>2022-06-21T07:28:37Z</time>
      </trkpt>
      <trkpt lat="43.41433" lon="2.6351">
        <ele>592.7</ele>
        <time>2022-06-21T07:28:38Z</time>
      </trkpt>
      <trkpt lat="43.4143" lon="2.6351">
        <ele>592.3</ele>
        <time>2022-06-21T07:28:40Z</time>
      </trkpt>
      <trkpt lat="43.41429" lon="2.6351">
        <ele>592.1</ele>
        <time>2022-06-21T07:28:41Z</time>
      </trkpt>
      <trkpt lat="43.41428" lon="2.63511">
        <ele>592</ele>
        <time>2022-06-21T07:28:42Z</time>
      </trkpt>
      <trkpt lat="43.41428" lon="2.63511">
        <ele>591.9</ele>
        <time>2022-06-21T07:28:43Z</time>
      </trkpt>
      <trkpt lat="43.41427" lon="2.63511">
        <ele>591.9</ele>
        <time>2022-06-21T07:28:44Z</time>
      </trkpt>
      <trkpt lat="43.41427" lon="2.63511">
        <ele>591.8</ele>
        <time>2022-06-21T07:28:45Z</time>
      </trkpt>
      <trkpt lat="43.41426" lon="2.63511">
        <ele>591.7</ele>
        <time>2022-06-21T07:28:46Z</time>
      </trkpt>
      <trkpt lat="43.41426" lon="2.63511">
        <ele>591.7</ele>
        <time>2022-06-21T07:28:47Z</time>
      </trkpt>
      <trkpt lat="43.41425" lon="2.63511">
        <ele>591.6</ele>
        <time>2022-06-21T07:28:48Z</time>
      </trkpt>
      <trkpt lat="43.41425" lon="2.63511">
        <ele>591.6</ele>
        <time>2022-06-21T07:28:49Z</time>
      </trkpt>
      <trkpt lat="43.41425" lon="2.63511">
        <ele>591.5</ele>
        <time>2022-06-21T07:28:50Z</time>
      </trkpt>
      <trkpt lat="43.41424" lon="2.63512">
        <ele>591.5</ele>
        <time>2022-06-21T07:28:51Z</time>
      </trkpt>
      <trkpt lat="43.41424" lon="2.63512">
        <ele>591.4</ele>
        <time>2022-06-21T07:28:52Z</time>
      </trkpt>
      <trkpt lat="43.41423" lon="2.63512">
        <ele>591.3</ele>
        <time>2022-06-21T07:28:53Z</time>
      </trkpt>
      <trkpt lat="43.41423" lon="2.63512">
        <ele>591.3</ele>
        <time>2022-06-21T07:28:54Z</time>
      </trkpt>
      <trkpt lat="43.41423" lon="2.63512">
        <ele>591.2</ele>
        <time>2022-06-21T07:28:55Z</time>
      </trkpt>
      <trkpt lat="43.41422" lon="2.63512">
        <ele>591.2</ele>
        <time>2022-06-21T07:28:56Z</time>
      </trkpt>
      <trkpt lat="43.41422" lon="2.63512">
        <ele>591.1</ele>
        <time>2022-06-21T07:28:57Z</time>
      </trkpt>
      <trkpt lat="43.41419" lon="2.63513">
        <ele>590.7</ele>
        <time>2022-06-21T07:28:58Z</time>
      </trkpt>
      <trkpt lat="43.41416" lon="2.63514">
        <ele>590.3</ele>
        <time>2022-06-21T07:28:59Z</time>
      </trkpt>
      <trkpt lat="43.41413" lon="2.63515">
        <ele>589.9</ele>
        <time>2022-06-21T07:29:00Z</time>
      </trkpt>
      <trkpt lat="43.41409" lon="2.63516">
        <ele>589.4</ele>
        <time>2022-06-21T07:29:02Z</time>
      </trkpt>
      <trkpt lat="43.41408" lon="2.63517">
        <ele>589.2</ele>
        <time>2022-06-21T07:29:03Z</time>
      </trkpt>
      <trkpt lat="43.41407" lon="2.63517">
        <ele>589</ele>
        <time>2022-06-21T07:29:04Z</time>
      </trkpt>
      <trkpt lat="43.41406" lon="2.63517">
        <ele>589</ele>
        <time>2022-06-21T07:29:05Z</time>
      </trkpt>
      <trkpt lat="43.41406" lon="2.63517">
        <ele>588.9</ele>
        <time>2022-06-21T07:29:06Z</time>
      </trkpt>
      <trkpt lat="43.41406" lon="2.63517">
        <ele>588.9</ele>
        <time>2022-06-21T07:29:07Z</time>
      </trkpt>
      <trkpt lat="43.41405" lon="2.63518">
        <ele>588.8</ele>
        <time>2022-06-21T07:29:08Z</time>
      </trkpt>
      <trkpt lat="43.41405" lon="2.63518">
        <ele>588.8</ele>
        <time>2022-06-21T07:29:09Z</time>
      </trkpt>
      <trkpt lat="43.41405" lon="2.63518">
        <ele>588.7</ele>
        <time>2022-06-21T07:29:10Z</time>
      </trkpt>
      <trkpt lat="43.41404" lon="2.63518">
        <ele>588.7</ele>
        <time>2022-06-21T07:29:11Z</time>
      </trkpt>
      <trkpt lat="43.41404" lon="2.63519">
        <ele>588.6</ele>
        <time>2022-06-21T07:29:12Z</time>
      </trkpt>
      <trkpt lat="43.41404" lon="2.63519">
        <ele>588.6</ele>
        <time>2022-06-21T07:29:13Z</time>
      </trkpt>
      <trkpt lat="43.41404" lon="2.63519">
        <ele>588.5</ele>
        <time>2022-06-21T07:29:14Z</time>
      </trkpt>
      <trkpt lat="43.41402" lon="2.63521">
        <ele>588.3</ele>
        <time>2022-06-21T07:29:15Z</time>
      </trkpt>
      <trkpt lat="43.41402" lon="2.63521">
        <ele>588.2</ele>
        <time>2022-06-21T07:29:16Z</time>
      </trkpt>
      <trkpt lat="43.41402" lon="2.63521">
        <ele>588.2</ele>
        <time>2022-06-21T07:29:17Z</time>
      </trkpt>
      <trkpt lat="43.41402" lon="2.63521">
        <ele>588.2</ele>
        <time>2022-06-21T07:29:18Z</time>
      </trkpt>
      <trkpt lat="43.41402" lon="2.63521">
        <ele>588.2</ele>
        <time>2022-06-21T07:29:19Z</time>
      </trkpt>
      <trkpt lat="43.41401" lon="2.63522">
        <ele>588.2</ele>
        <time>2022-06-21T07:29:20Z</time>
      </trkpt>
      <trkpt lat="43.414" lon="2.63523">
        <ele>587.9</ele>
        <time>2022-06-21T07:29:21Z</time>
      </trkpt>
      <trkpt lat="43.41399" lon="2.63524">
        <ele>587.8</ele>
        <time>2022-06-21T07:29:22Z</time>
      </trkpt>
      <trkpt lat="43.41399" lon="2.63525">
        <ele>587.6</ele>
        <time>2022-06-21T07:29:23Z</time>
      </trkpt>
      <trkpt lat="43.41397" lon="2.63528">
        <ele>587.3</ele>
        <time>2022-06-21T07:29:24Z</time>
      </trkpt>
      <trkpt lat="43.41395" lon="2.6353">
        <ele>586.9</ele>
        <time>2022-06-21T07:29:25Z</time>
      </trkpt>
      <trkpt lat="43.41395" lon="2.63531">
        <ele>586.9</ele>
        <time>2022-06-21T07:29:26Z</time>
      </trkpt>
      <trkpt lat="43.41394" lon="2.63532">
        <ele>586.8</ele>
        <time>2022-06-21T07:29:27Z</time>
      </trkpt>
      <trkpt lat="43.41393" lon="2.63535">
        <ele>586.4</ele>
        <time>2022-06-21T07:29:28Z</time>
      </trkpt>
      <trkpt lat="43.41392" lon="2.63537">
        <ele>586.1</ele>
        <time>2022-06-21T07:29:29Z</time>
      </trkpt>
      <trkpt lat="43.41391" lon="2.63538">
        <ele>586</ele>
        <time>2022-06-21T07:29:30Z</time>
      </trkpt>
      <trkpt lat="43.4139" lon="2.6354">
        <ele>585.7</ele>
        <time>2022-06-21T07:29:31Z</time>
      </trkpt>
      <trkpt lat="43.41389" lon="2.63542">
        <ele>585.5</ele>
        <time>2022-06-21T07:29:32Z</time>
      </trkpt>
      <trkpt lat="43.41387" lon="2.63545">
        <ele>585.1</ele>
        <time>2022-06-21T07:29:33Z</time>
      </trkpt>
      <trkpt lat="43.41386" lon="2.63546">
        <ele>584.8</ele>
        <time>2022-06-21T07:29:34Z</time>
      </trkpt>
      <trkpt lat="43.41384" lon="2.63548">
        <ele>584.6</ele>
        <time>2022-06-21T07:29:36Z</time>
      </trkpt>
      <trkpt lat="43.41384" lon="2.63549">
        <ele>584.5</ele>
        <time>2022-06-21T07:29:37Z</time>
      </trkpt>
      <trkpt lat="43.41383" lon="2.6355">
        <ele>584.3</ele>
        <time>2022-06-21T07:29:38Z</time>
      </trkpt>
      <trkpt lat="43.41382" lon="2.6355">
        <ele>584.2</ele>
        <time>2022-06-21T07:29:39Z</time>
      </trkpt>
      <trkpt lat="43.41382" lon="2.63551">
        <ele>584.1</ele>
        <time>2022-06-21T07:29:40Z</time>
      </trkpt>
      <trkpt lat="43.4138" lon="2.63552">
        <ele>583.9</ele>
        <time>2022-06-21T07:29:41Z</time>
      </trkpt>
      <trkpt lat="43.4138" lon="2.63553">
        <ele>583.8</ele>
        <time>2022-06-21T07:29:42Z</time>
      </trkpt>
      <trkpt lat="43.41379" lon="2.63553">
        <ele>583.7</ele>
        <time>2022-06-21T07:29:43Z</time>
      </trkpt>
      <trkpt lat="43.41379" lon="2.63554">
        <ele>583.6</ele>
        <time>2022-06-21T07:29:44Z</time>
      </trkpt>
      <trkpt lat="43.41378" lon="2.63554">
        <ele>583.5</ele>
        <time>2022-06-21T07:29:45Z</time>
      </trkpt>
      <trkpt lat="43.41378" lon="2.63555">
        <ele>583.4</ele>
        <time>2022-06-21T07:29:46Z</time>
      </trkpt>
      <trkpt lat="43.41377" lon="2.63555">
        <ele>583.3</ele>
        <time>2022-06-21T07:29:47Z</time>
      </trkpt>
      <trkpt lat="43.41375" lon="2.63556">
        <ele>583.1</ele>
        <time>2022-06-21T07:29:49Z</time>
      </trkpt>
      <trkpt lat="43.41374" lon="2.63557">
        <ele>582.9</ele>
        <time>2022-06-21T07:29:50Z</time>
      </trkpt>
      <trkpt lat="43.41373" lon="2.63557">
        <ele>582.8</ele>
        <time>2022-06-21T07:29:51Z</time>
      </trkpt>
      <trkpt lat="43.41373" lon="2.63557">
        <ele>582.8</ele>
        <time>2022-06-21T07:29:52Z</time>
      </trkpt>
      <trkpt lat="43.41373" lon="2.63558">
        <ele>582.7</ele>
        <time>2022-06-21T07:29:53Z</time>
      </trkpt>
      <trkpt lat="43.41372" lon="2.63558">
        <ele>582.6</ele>
        <time>2022-06-21T07:29:54Z</time>
      </trkpt>
      <trkpt lat="43.41371" lon="2.63559">
        <ele>582.5</ele>
        <time>2022-06-21T07:29:55Z</time>
      </trkpt>
      <trkpt lat="43.4137" lon="2.63559">
        <ele>582.3</ele>
        <time>2022-06-21T07:29:56Z</time>
      </trkpt>
      <trkpt lat="43.41368" lon="2.6356">
        <ele>582</ele>
        <time>2022-06-21T07:29:57Z</time>
      </trkpt>
      <trkpt lat="43.41367" lon="2.6356">
        <ele>581.9</ele>
        <time>2022-06-21T07:29:58Z</time>
      </trkpt>
      <trkpt lat="43.41366" lon="2.63561">
        <ele>581.7</ele>
        <time>2022-06-21T07:29:59Z</time>
      </trkpt>
      <trkpt lat="43.41364" lon="2.63562">
        <ele>581.5</ele>
        <time>2022-06-21T07:30:00Z</time>
      </trkpt>
      <trkpt lat="43.41363" lon="2.63562">
        <ele>581.3</ele>
        <time>2022-06-21T07:30:01Z</time>
      </trkpt>
      <trkpt lat="43.41363" lon="2.63563">
        <ele>581.3</ele>
        <time>2022-06-21T07:30:02Z</time>
      </trkpt>
      <trkpt lat="43.41363" lon="2.63563">
        <ele>581.2</ele>
        <time>2022-06-21T07:30:03Z</time>
      </trkpt>
      <trkpt lat="43.41363" lon="2.63563">
        <ele>581.2</ele>
        <time>2022-06-21T07:30:04Z</time>
      </trkpt>
      <trkpt lat="43.41362" lon="2.63563">
        <ele>581.1</ele>
        <time>2022-06-21T07:30:05Z</time>
      </trkpt>
      <trkpt lat="43.41362" lon="2.63564">
        <ele>581</ele>
        <time>2022-06-21T07:30:06Z</time>
      </trkpt>
      <trkpt lat="43.41361" lon="2.63565">
        <ele>580.9</ele>
        <time>2022-06-21T07:30:07Z</time>
      </trkpt>
      <trkpt lat="43.4136" lon="2.63566">
        <ele>580.7</ele>
        <time>2022-06-21T07:30:08Z</time>
      </trkpt>
      <trkpt lat="43.41359" lon="2.63567">
        <ele>580.6</ele>
        <time>2022-06-21T07:30:09Z</time>
      </trkpt>
      <trkpt lat="43.41357" lon="2.63568">
        <ele>580.4</ele>
        <time>2022-06-21T07:30:10Z</time>
      </trkpt>
      <trkpt lat="43.41356" lon="2.63568">
        <ele>580.2</ele>
        <time>2022-06-21T07:30:11Z</time>
      </trkpt>
      <trkpt lat="43.41356" lon="2.63569">
        <ele>580.1</ele>
        <time>2022-06-21T07:30:12Z</time>
      </trkpt>
      <trkpt lat="43.41355" lon="2.63569">
        <ele>580</ele>
        <time>2022-06-21T07:30:13Z</time>
      </trkpt>
      <trkpt lat="43.41353" lon="2.6357">
        <ele>579.8</ele>
        <time>2022-06-21T07:30:14Z</time>
      </trkpt>
      <trkpt lat="43.41352" lon="2.63571">
        <ele>579.6</ele>
        <time>2022-06-21T07:30:15Z</time>
      </trkpt>
      <trkpt lat="43.41351" lon="2.63571">
        <ele>579.5</ele>
        <time>2022-06-21T07:30:16Z</time>
      </trkpt>
      <trkpt lat="43.4135" lon="2.63572">
        <ele>579.3</ele>
        <time>2022-06-21T07:30:17Z</time>
      </trkpt>
      <trkpt lat="43.41348" lon="2.63573">
        <ele>579.1</ele>
        <time>2022-06-21T07:30:18Z</time>
      </trkpt>
      <trkpt lat="43.41347" lon="2.63573">
        <ele>579</ele>
        <time>2022-06-21T07:30:19Z</time>
      </trkpt>
      <trkpt lat="43.41347" lon="2.63573">
        <ele>578.9</ele>
        <time>2022-06-21T07:30:20Z</time>
      </trkpt>
      <trkpt lat="43.41346" lon="2.63573">
        <ele>578.8</ele>
        <time>2022-06-21T07:30:21Z</time>
      </trkpt>
      <trkpt lat="43.41345" lon="2.63573">
        <ele>578.7</ele>
        <time>2022-06-21T07:30:22Z</time>
      </trkpt>
      <trkpt lat="43.41344" lon="2.63573">
        <ele>578.5</ele>
        <time>2022-06-21T07:30:23Z</time>
      </trkpt>
      <trkpt lat="43.41343" lon="2.63573">
        <ele>578.3</ele>
        <time>2022-06-21T07:30:24Z</time>
      </trkpt>
      <trkpt lat="43.41342" lon="2.63573">
        <ele>578.2</ele>
        <time>2022-06-21T07:30:25Z</time>
      </trkpt>
      <trkpt lat="43.41341" lon="2.63572">
        <ele>578.1</ele>
        <time>2022-06-21T07:30:26Z</time>
      </trkpt>
      <trkpt lat="43.41339" lon="2.63573">
        <ele>577.9</ele>
        <time>2022-06-21T07:30:28Z</time>
      </trkpt>
      <trkpt lat="43.41339" lon="2.63573">
        <ele>577.7</ele>
        <time>2022-06-21T07:30:29Z</time>
      </trkpt>
      <trkpt lat="43.41338" lon="2.63573">
        <ele>577.6</ele>
        <time>2022-06-21T07:30:30Z</time>
      </trkpt>
      <trkpt lat="43.41336" lon="2.63573">
        <ele>577.3</ele>
        <time>2022-06-21T07:30:32Z</time>
      </trkpt>
      <trkpt lat="43.41335" lon="2.63573">
        <ele>577.2</ele>
        <time>2022-06-21T07:30:34Z</time>
      </trkpt>
      <trkpt lat="43.41333" lon="2.63574">
        <ele>576.9</ele>
        <time>2022-06-21T07:30:35Z</time>
      </trkpt>
      <trkpt lat="43.41332" lon="2.63574">
        <ele>576.8</ele>
        <time>2022-06-21T07:30:36Z</time>
      </trkpt>
      <trkpt lat="43.41331" lon="2.63574">
        <ele>576.6</ele>
        <time>2022-06-21T07:30:37Z</time>
      </trkpt>
      <trkpt lat="43.41329" lon="2.63574">
        <ele>576.4</ele>
        <time>2022-06-21T07:30:38Z</time>
      </trkpt>
      <trkpt lat="43.41328" lon="2.63573">
        <ele>576.3</ele>
        <time>2022-06-21T07:30:39Z</time>
      </trkpt>
      <trkpt lat="43.41328" lon="2.63573">
        <ele>576.2</ele>
        <time>2022-06-21T07:30:40Z</time>
      </trkpt>
      <trkpt lat="43.41326" lon="2.63573">
        <ele>576</ele>
        <time>2022-06-21T07:30:41Z</time>
      </trkpt>
      <trkpt lat="43.41325" lon="2.63573">
        <ele>575.8</ele>
        <time>2022-06-21T07:30:42Z</time>
      </trkpt>
      <trkpt lat="43.41324" lon="2.63573">
        <ele>575.7</ele>
        <time>2022-06-21T07:30:43Z</time>
      </trkpt>
      <trkpt lat="43.41323" lon="2.63573">
        <ele>575.5</ele>
        <time>2022-06-21T07:30:44Z</time>
      </trkpt>
      <trkpt lat="43.41322" lon="2.63573">
        <ele>575.3</ele>
        <time>2022-06-21T07:30:45Z</time>
      </trkpt>
      <trkpt lat="43.41321" lon="2.63573">
        <ele>575.2</ele>
        <time>2022-06-21T07:30:46Z</time>
      </trkpt>
      <trkpt lat="43.41319" lon="2.63573">
        <ele>575</ele>
        <time>2022-06-21T07:30:47Z</time>
      </trkpt>
      <trkpt lat="43.41318" lon="2.63572">
        <ele>574.8</ele>
        <time>2022-06-21T07:30:48Z</time>
      </trkpt>
      <trkpt lat="43.41317" lon="2.63572">
        <ele>574.7</ele>
        <time>2022-06-21T07:30:49Z</time>
      </trkpt>
      <trkpt lat="43.41316" lon="2.63572">
        <ele>574.5</ele>
        <time>2022-06-21T07:30:50Z</time>
      </trkpt>
      <trkpt lat="43.41315" lon="2.63571">
        <ele>574.3</ele>
        <time>2022-06-21T07:30:51Z</time>
      </trkpt>
      <trkpt lat="43.41314" lon="2.63571">
        <ele>574.2</ele>
        <time>2022-06-21T07:30:52Z</time>
      </trkpt>
      <trkpt lat="43.41313" lon="2.63571">
        <ele>574.1</ele>
        <time>2022-06-21T07:30:53Z</time>
      </trkpt>
      <trkpt lat="43.41313" lon="2.63571">
        <ele>574</ele>
        <time>2022-06-21T07:30:54Z</time>
      </trkpt>
      <trkpt lat="43.41311" lon="2.6357">
        <ele>573.8</ele>
        <time>2022-06-21T07:30:55Z</time>
      </trkpt>
      <trkpt lat="43.4131" lon="2.6357">
        <ele>573.7</ele>
        <time>2022-06-21T07:30:56Z</time>
      </trkpt>
      <trkpt lat="43.41309" lon="2.6357">
        <ele>573.5</ele>
        <time>2022-06-21T07:30:57Z</time>
      </trkpt>
      <trkpt lat="43.41308" lon="2.6357">
        <ele>573.3</ele>
        <time>2022-06-21T07:30:58Z</time>
      </trkpt>
      <trkpt lat="43.41305" lon="2.63569">
        <ele>573</ele>
        <time>2022-06-21T07:31:00Z</time>
      </trkpt>
      <trkpt lat="43.41304" lon="2.63569">
        <ele>572.8</ele>
        <time>2022-06-21T07:31:01Z</time>
      </trkpt>
      <trkpt lat="43.41304" lon="2.63568">
        <ele>572.7</ele>
        <time>2022-06-21T07:31:02Z</time>
      </trkpt>
      <trkpt lat="43.41303" lon="2.63568">
        <ele>572.6</ele>
        <time>2022-06-21T07:31:03Z</time>
      </trkpt>
      <trkpt lat="43.41302" lon="2.63568">
        <ele>572.4</ele>
        <time>2022-06-21T07:31:04Z</time>
      </trkpt>
      <trkpt lat="43.413" lon="2.63568">
        <ele>572.2</ele>
        <time>2022-06-21T07:31:05Z</time>
      </trkpt>
      <trkpt lat="43.41299" lon="2.63568">
        <ele>572</ele>
        <time>2022-06-21T07:31:06Z</time>
      </trkpt>
      <trkpt lat="43.41298" lon="2.63568">
        <ele>571.8</ele>
        <time>2022-06-21T07:31:07Z</time>
      </trkpt>
      <trkpt lat="43.41295" lon="2.63568">
        <ele>571.5</ele>
        <time>2022-06-21T07:31:08Z</time>
      </trkpt>
      <trkpt lat="43.41295" lon="2.63568">
        <ele>571.4</ele>
        <time>2022-06-21T07:31:09Z</time>
      </trkpt>
      <trkpt lat="43.41294" lon="2.63568">
        <ele>571.3</ele>
        <time>2022-06-21T07:31:10Z</time>
      </trkpt>
      <trkpt lat="43.41292" lon="2.63568">
        <ele>571</ele>
        <time>2022-06-21T07:31:11Z</time>
      </trkpt>
      <trkpt lat="43.41291" lon="2.63568">
        <ele>570.9</ele>
        <time>2022-06-21T07:31:12Z</time>
      </trkpt>
      <trkpt lat="43.4129" lon="2.63567">
        <ele>570.8</ele>
        <time>2022-06-21T07:31:13Z</time>
      </trkpt>
      <trkpt lat="43.41289" lon="2.63567">
        <ele>570.6</ele>
        <time>2022-06-21T07:31:14Z</time>
      </trkpt>
      <trkpt lat="43.41287" lon="2.63567">
        <ele>570.5</ele>
        <time>2022-06-21T07:31:15Z</time>
      </trkpt>
      <trkpt lat="43.41286" lon="2.63567">
        <ele>570.3</ele>
        <time>2022-06-21T07:31:16Z</time>
      </trkpt>
      <trkpt lat="43.41285" lon="2.63566">
        <ele>570.2</ele>
        <time>2022-06-21T07:31:17Z</time>
      </trkpt>
      <trkpt lat="43.41284" lon="2.63566">
        <ele>570</ele>
        <time>2022-06-21T07:31:18Z</time>
      </trkpt>
      <trkpt lat="43.41282" lon="2.63565">
        <ele>569.8</ele>
        <time>2022-06-21T07:31:19Z</time>
      </trkpt>
      <trkpt lat="43.41281" lon="2.63565">
        <ele>569.6</ele>
        <time>2022-06-21T07:31:20Z</time>
      </trkpt>
      <trkpt lat="43.41279" lon="2.63564">
        <ele>569.4</ele>
        <time>2022-06-21T07:31:21Z</time>
      </trkpt>
      <trkpt lat="43.41278" lon="2.63563">
        <ele>569.3</ele>
        <time>2022-06-21T07:31:22Z</time>
      </trkpt>
      <trkpt lat="43.41277" lon="2.63563">
        <ele>569.1</ele>
        <time>2022-06-21T07:31:23Z</time>
      </trkpt>
      <trkpt lat="43.41275" lon="2.63562">
        <ele>568.9</ele>
        <time>2022-06-21T07:31:24Z</time>
      </trkpt>
      <trkpt lat="43.41273" lon="2.63562">
        <ele>568.7</ele>
        <time>2022-06-21T07:31:25Z</time>
      </trkpt>
      <trkpt lat="43.41273" lon="2.63562">
        <ele>568.6</ele>
        <time>2022-06-21T07:31:26Z</time>
      </trkpt>
      <trkpt lat="43.41272" lon="2.63562">
        <ele>568.5</ele>
        <time>2022-06-21T07:31:27Z</time>
      </trkpt>
      <trkpt lat="43.4127" lon="2.63562">
        <ele>568.3</ele>
        <time>2022-06-21T07:31:28Z</time>
      </trkpt>
      <trkpt lat="43.41269" lon="2.63562">
        <ele>568.2</ele>
        <time>2022-06-21T07:31:29Z</time>
      </trkpt>
      <trkpt lat="43.41268" lon="2.63561">
        <ele>568.1</ele>
        <time>2022-06-21T07:31:30Z</time>
      </trkpt>
      <trkpt lat="43.41267" lon="2.63561">
        <ele>568</ele>
        <time>2022-06-21T07:31:31Z</time>
      </trkpt>
      <trkpt lat="43.41267" lon="2.63561">
        <ele>567.9</ele>
        <time>2022-06-21T07:31:32Z</time>
      </trkpt>
      <trkpt lat="43.41266" lon="2.63561">
        <ele>567.8</ele>
        <time>2022-06-21T07:31:33Z</time>
      </trkpt>
      <trkpt lat="43.41265" lon="2.63561">
        <ele>567.7</ele>
        <time>2022-06-21T07:31:34Z</time>
      </trkpt>
      <trkpt lat="43.41264" lon="2.63561">
        <ele>567.7</ele>
        <time>2022-06-21T07:31:35Z</time>
      </trkpt>
      <trkpt lat="43.41264" lon="2.63561">
        <ele>567.6</ele>
        <time>2022-06-21T07:31:36Z</time>
      </trkpt>
      <trkpt lat="43.41263" lon="2.63561">
        <ele>567.5</ele>
        <time>2022-06-21T07:31:37Z</time>
      </trkpt>
      <trkpt lat="43.41262" lon="2.63561">
        <ele>567.4</ele>
        <time>2022-06-21T07:31:38Z</time>
      </trkpt>
      <trkpt lat="43.41261" lon="2.63561">
        <ele>567.3</ele>
        <time>2022-06-21T07:31:39Z</time>
      </trkpt>
      <trkpt lat="43.41261" lon="2.63561">
        <ele>567.2</ele>
        <time>2022-06-21T07:31:40Z</time>
      </trkpt>
      <trkpt lat="43.4126" lon="2.63561">
        <ele>567.2</ele>
        <time>2022-06-21T07:31:41Z</time>
      </trkpt>
      <trkpt lat="43.4126" lon="2.63561">
        <ele>567.1</ele>
        <time>2022-06-21T07:31:42Z</time>
      </trkpt>
      <trkpt lat="43.41259" lon="2.63561">
        <ele>567</ele>
        <time>2022-06-21T07:31:43Z</time>
      </trkpt>
      <trkpt lat="43.41258" lon="2.63561">
        <ele>566.9</ele>
        <time>2022-06-21T07:31:44Z</time>
      </trkpt>
      <trkpt lat="43.41257" lon="2.6356">
        <ele>566.8</ele>
        <time>2022-06-21T07:31:45Z</time>
      </trkpt>
      <trkpt lat="43.41256" lon="2.6356">
        <ele>566.7</ele>
        <time>2022-06-21T07:31:46Z</time>
      </trkpt>
      <trkpt lat="43.41254" lon="2.6356">
        <ele>566.4</ele>
        <time>2022-06-21T07:31:47Z</time>
      </trkpt>
      <trkpt lat="43.41253" lon="2.63559">
        <ele>566.3</ele>
        <time>2022-06-21T07:31:48Z</time>
      </trkpt>
      <trkpt lat="43.41252" lon="2.63559">
        <ele>566.2</ele>
        <time>2022-06-21T07:31:49Z</time>
      </trkpt>
      <trkpt lat="43.41251" lon="2.63559">
        <ele>566.1</ele>
        <time>2022-06-21T07:31:50Z</time>
      </trkpt>
      <trkpt lat="43.4125" lon="2.63558">
        <ele>566</ele>
        <time>2022-06-21T07:31:51Z</time>
      </trkpt>
      <trkpt lat="43.41249" lon="2.63558">
        <ele>565.9</ele>
        <time>2022-06-21T07:31:52Z</time>
      </trkpt>
      <trkpt lat="43.41247" lon="2.63557">
        <ele>565.7</ele>
        <time>2022-06-21T07:31:53Z</time>
      </trkpt>
      <trkpt lat="43.41246" lon="2.63556">
        <ele>565.6</ele>
        <time>2022-06-21T07:31:54Z</time>
      </trkpt>
      <trkpt lat="43.41245" lon="2.63556">
        <ele>565.5</ele>
        <time>2022-06-21T07:31:55Z</time>
      </trkpt>
      <trkpt lat="43.41245" lon="2.63555">
        <ele>565.4</ele>
        <time>2022-06-21T07:31:56Z</time>
      </trkpt>
      <trkpt lat="43.41244" lon="2.63555">
        <ele>565.3</ele>
        <time>2022-06-21T07:31:57Z</time>
      </trkpt>
      <trkpt lat="43.41244" lon="2.63555">
        <ele>565.3</ele>
        <time>2022-06-21T07:31:58Z</time>
      </trkpt>
      <trkpt lat="43.41243" lon="2.63555">
        <ele>565.2</ele>
        <time>2022-06-21T07:31:59Z</time>
      </trkpt>
      <trkpt lat="43.41242" lon="2.63555">
        <ele>565.1</ele>
        <time>2022-06-21T07:32:00Z</time>
      </trkpt>
      <trkpt lat="43.41241" lon="2.63555">
        <ele>564.9</ele>
        <time>2022-06-21T07:32:01Z</time>
      </trkpt>
      <trkpt lat="43.41239" lon="2.63554">
        <ele>564.7</ele>
        <time>2022-06-21T07:32:02Z</time>
      </trkpt>
      <trkpt lat="43.41238" lon="2.63554">
        <ele>564.6</ele>
        <time>2022-06-21T07:32:03Z</time>
      </trkpt>
      <trkpt lat="43.41237" lon="2.63554">
        <ele>564.5</ele>
        <time>2022-06-21T07:32:04Z</time>
      </trkpt>
      <trkpt lat="43.41236" lon="2.63554">
        <ele>564.4</ele>
        <time>2022-06-21T07:32:05Z</time>
      </trkpt>
      <trkpt lat="43.41234" lon="2.63554">
        <ele>564.2</ele>
        <time>2022-06-21T07:32:06Z</time>
      </trkpt>
      <trkpt lat="43.41233" lon="2.63554">
        <ele>564.1</ele>
        <time>2022-06-21T07:32:07Z</time>
      </trkpt>
      <trkpt lat="43.41232" lon="2.63554">
        <ele>564</ele>
        <time>2022-06-21T07:32:09Z</time>
      </trkpt>
      <trkpt lat="43.4123" lon="2.63553">
        <ele>563.8</ele>
        <time>2022-06-21T07:32:10Z</time>
      </trkpt>
      <trkpt lat="43.41229" lon="2.63553">
        <ele>563.7</ele>
        <time>2022-06-21T07:32:11Z</time>
      </trkpt>
      <trkpt lat="43.41228" lon="2.63553">
        <ele>563.6</ele>
        <time>2022-06-21T07:32:12Z</time>
      </trkpt>
      <trkpt lat="43.41227" lon="2.63553">
        <ele>563.4</ele>
        <time>2022-06-21T07:32:13Z</time>
      </trkpt>
      <trkpt lat="43.41226" lon="2.63554">
        <ele>563.3</ele>
        <time>2022-06-21T07:32:14Z</time>
      </trkpt>
      <trkpt lat="43.41224" lon="2.63554">
        <ele>563.1</ele>
        <time>2022-06-21T07:32:15Z</time>
      </trkpt>
      <trkpt lat="43.41223" lon="2.63554">
        <ele>562.9</ele>
        <time>2022-06-21T07:32:16Z</time>
      </trkpt>
      <trkpt lat="43.41221" lon="2.63554">
        <ele>562.8</ele>
        <time>2022-06-21T07:32:17Z</time>
      </trkpt>
      <trkpt lat="43.4122" lon="2.63555">
        <ele>562.6</ele>
        <time>2022-06-21T07:32:18Z</time>
      </trkpt>
      <trkpt lat="43.41218" lon="2.63555">
        <ele>562.4</ele>
        <time>2022-06-21T07:32:19Z</time>
      </trkpt>
      <trkpt lat="43.41217" lon="2.63555">
        <ele>562.3</ele>
        <time>2022-06-21T07:32:20Z</time>
      </trkpt>
      <trkpt lat="43.41216" lon="2.63555">
        <ele>562.1</ele>
        <time>2022-06-21T07:32:21Z</time>
      </trkpt>
      <trkpt lat="43.41214" lon="2.63554">
        <ele>561.9</ele>
        <time>2022-06-21T07:32:22Z</time>
      </trkpt>
      <trkpt lat="43.41213" lon="2.63554">
        <ele>561.8</ele>
        <time>2022-06-21T07:32:23Z</time>
      </trkpt>
      <trkpt lat="43.41212" lon="2.63554">
        <ele>561.7</ele>
        <time>2022-06-21T07:32:24Z</time>
      </trkpt>
      <trkpt lat="43.41211" lon="2.63553">
        <ele>561.6</ele>
        <time>2022-06-21T07:32:25Z</time>
      </trkpt>
      <trkpt lat="43.41211" lon="2.63553">
        <ele>561.6</ele>
        <time>2022-06-21T07:32:26Z</time>
      </trkpt>
      <trkpt lat="43.4121" lon="2.63553">
        <ele>561.5</ele>
        <time>2022-06-21T07:32:27Z</time>
      </trkpt>
      <trkpt lat="43.41209" lon="2.63553">
        <ele>561.3</ele>
        <time>2022-06-21T07:32:28Z</time>
      </trkpt>
      <trkpt lat="43.41207" lon="2.63553">
        <ele>561.1</ele>
        <time>2022-06-21T07:32:29Z</time>
      </trkpt>
      <trkpt lat="43.41206" lon="2.63553">
        <ele>561</ele>
        <time>2022-06-21T07:32:30Z</time>
      </trkpt>
      <trkpt lat="43.41204" lon="2.63553">
        <ele>560.8</ele>
        <time>2022-06-21T07:32:31Z</time>
      </trkpt>
      <trkpt lat="43.41203" lon="2.63553">
        <ele>560.7</ele>
        <time>2022-06-21T07:32:32Z</time>
      </trkpt>
      <trkpt lat="43.412" lon="2.63552">
        <ele>560.4</ele>
        <time>2022-06-21T07:32:33Z</time>
      </trkpt>
      <trkpt lat="43.412" lon="2.63552">
        <ele>560.4</ele>
        <time>2022-06-21T07:32:34Z</time>
      </trkpt>
      <trkpt lat="43.41199" lon="2.63551">
        <ele>560.3</ele>
        <time>2022-06-21T07:32:35Z</time>
      </trkpt>
      <trkpt lat="43.41198" lon="2.63551">
        <ele>560.2</ele>
        <time>2022-06-21T07:32:36Z</time>
      </trkpt>
      <trkpt lat="43.41197" lon="2.63551">
        <ele>560.1</ele>
        <time>2022-06-21T07:32:37Z</time>
      </trkpt>
      <trkpt lat="43.41196" lon="2.63551">
        <ele>560</ele>
        <time>2022-06-21T07:32:38Z</time>
      </trkpt>
      <trkpt lat="43.41195" lon="2.63551">
        <ele>559.9</ele>
        <time>2022-06-21T07:32:39Z</time>
      </trkpt>
      <trkpt lat="43.41194" lon="2.63551">
        <ele>559.9</ele>
        <time>2022-06-21T07:32:40Z</time>
      </trkpt>
      <trkpt lat="43.41194" lon="2.63551">
        <ele>559.8</ele>
        <time>2022-06-21T07:32:41Z</time>
      </trkpt>
      <trkpt lat="43.41193" lon="2.63552">
        <ele>559.7</ele>
        <time>2022-06-21T07:32:42Z</time>
      </trkpt>
      <trkpt lat="43.41192" lon="2.63552">
        <ele>559.6</ele>
        <time>2022-06-21T07:32:43Z</time>
      </trkpt>
      <trkpt lat="43.41191" lon="2.63551">
        <ele>559.5</ele>
        <time>2022-06-21T07:32:44Z</time>
      </trkpt>
      <trkpt lat="43.4119" lon="2.63551">
        <ele>559.4</ele>
        <time>2022-06-21T07:32:45Z</time>
      </trkpt>
      <trkpt lat="43.41189" lon="2.6355">
        <ele>559.3</ele>
        <time>2022-06-21T07:32:46Z</time>
      </trkpt>
      <trkpt lat="43.41188" lon="2.63549">
        <ele>559.2</ele>
        <time>2022-06-21T07:32:47Z</time>
      </trkpt>
      <trkpt lat="43.41187" lon="2.63549">
        <ele>559.1</ele>
        <time>2022-06-21T07:32:48Z</time>
      </trkpt>
      <trkpt lat="43.41187" lon="2.63548">
        <ele>559.1</ele>
        <time>2022-06-21T07:32:49Z</time>
      </trkpt>
      <trkpt lat="43.41186" lon="2.63548">
        <ele>559</ele>
        <time>2022-06-21T07:32:50Z</time>
      </trkpt>
      <trkpt lat="43.41185" lon="2.63548">
        <ele>558.9</ele>
        <time>2022-06-21T07:32:51Z</time>
      </trkpt>
      <trkpt lat="43.41184" lon="2.63548">
        <ele>558.8</ele>
        <time>2022-06-21T07:32:52Z</time>
      </trkpt>
      <trkpt lat="43.41182" lon="2.63548">
        <ele>558.6</ele>
        <time>2022-06-21T07:32:53Z</time>
      </trkpt>
      <trkpt lat="43.41181" lon="2.63548">
        <ele>558.5</ele>
        <time>2022-06-21T07:32:54Z</time>
      </trkpt>
      <trkpt lat="43.4118" lon="2.63548">
        <ele>558.4</ele>
        <time>2022-06-21T07:32:55Z</time>
      </trkpt>
      <trkpt lat="43.41179" lon="2.63548">
        <ele>558.3</ele>
        <time>2022-06-21T07:32:56Z</time>
      </trkpt>
      <trkpt lat="43.41178" lon="2.63548">
        <ele>558.2</ele>
        <time>2022-06-21T07:32:57Z</time>
      </trkpt>
      <trkpt lat="43.41177" lon="2.63549">
        <ele>558.1</ele>
        <time>2022-06-21T07:32:58Z</time>
      </trkpt>
      <trkpt lat="43.41175" lon="2.63549">
        <ele>558</ele>
        <time>2022-06-21T07:32:59Z</time>
      </trkpt>
      <trkpt lat="43.41173" lon="2.63549">
        <ele>557.8</ele>
        <time>2022-06-21T07:33:00Z</time>
      </trkpt>
      <trkpt lat="43.41172" lon="2.63549">
        <ele>557.6</ele>
        <time>2022-06-21T07:33:01Z</time>
      </trkpt>
      <trkpt lat="43.41171" lon="2.63549">
        <ele>557.6</ele>
        <time>2022-06-21T07:33:02Z</time>
      </trkpt>
      <trkpt lat="43.4117" lon="2.63549">
        <ele>557.5</ele>
        <time>2022-06-21T07:33:03Z</time>
      </trkpt>
      <trkpt lat="43.4117" lon="2.63549">
        <ele>557.4</ele>
        <time>2022-06-21T07:33:04Z</time>
      </trkpt>
      <trkpt lat="43.41167" lon="2.63549">
        <ele>557.2</ele>
        <time>2022-06-21T07:33:05Z</time>
      </trkpt>
      <trkpt lat="43.41167" lon="2.63549">
        <ele>557.2</ele>
        <time>2022-06-21T07:33:06Z</time>
      </trkpt>
      <trkpt lat="43.41166" lon="2.63549">
        <ele>557.1</ele>
        <time>2022-06-21T07:33:07Z</time>
      </trkpt>
      <trkpt lat="43.41165" lon="2.63549">
        <ele>557</ele>
        <time>2022-06-21T07:33:08Z</time>
      </trkpt>
      <trkpt lat="43.41164" lon="2.63549">
        <ele>557</ele>
        <time>2022-06-21T07:33:09Z</time>
      </trkpt>
      <trkpt lat="43.41164" lon="2.63548">
        <ele>556.9</ele>
        <time>2022-06-21T07:33:10Z</time>
      </trkpt>
      <trkpt lat="43.41163" lon="2.63548">
        <ele>556.8</ele>
        <time>2022-06-21T07:33:11Z</time>
      </trkpt>
      <trkpt lat="43.41163" lon="2.63548">
        <ele>556.8</ele>
        <time>2022-06-21T07:33:12Z</time>
      </trkpt>
      <trkpt lat="43.41163" lon="2.63548">
        <ele>556.8</ele>
        <time>2022-06-21T07:33:13Z</time>
      </trkpt>
      <trkpt lat="43.41162" lon="2.63548">
        <ele>556.7</ele>
        <time>2022-06-21T07:33:14Z</time>
      </trkpt>
      <trkpt lat="43.41161" lon="2.63547">
        <ele>556.6</ele>
        <time>2022-06-21T07:33:15Z</time>
      </trkpt>
      <trkpt lat="43.41161" lon="2.63547">
        <ele>556.6</ele>
        <time>2022-06-21T07:33:16Z</time>
      </trkpt>
      <trkpt lat="43.4116" lon="2.63547">
        <ele>556.6</ele>
        <time>2022-06-21T07:33:17Z</time>
      </trkpt>
      <trkpt lat="43.4116" lon="2.63547">
        <ele>556.6</ele>
        <time>2022-06-21T07:33:18Z</time>
      </trkpt>
      <trkpt lat="43.4116" lon="2.63547">
        <ele>556.6</ele>
        <time>2022-06-21T07:33:19Z</time>
      </trkpt>
      <trkpt lat="43.4116" lon="2.63547">
        <ele>556.6</ele>
        <time>2022-06-21T07:33:20Z</time>
      </trkpt>
      <trkpt lat="43.4116" lon="2.63547">
        <ele>556.5</ele>
        <time>2022-06-21T07:33:21Z</time>
      </trkpt>
      <trkpt lat="43.4116" lon="2.63547">
        <ele>556.5</ele>
        <time>2022-06-21T07:33:22Z</time>
      </trkpt>
      <trkpt lat="43.41159" lon="2.63547">
        <ele>556.4</ele>
        <time>2022-06-21T07:33:23Z</time>
      </trkpt>
      <trkpt lat="43.41157" lon="2.63547">
        <ele>556.3</ele>
        <time>2022-06-21T07:33:24Z</time>
      </trkpt>
      <trkpt lat="43.41155" lon="2.63547">
        <ele>556</ele>
        <time>2022-06-21T07:33:25Z</time>
      </trkpt>
      <trkpt lat="43.41153" lon="2.63546">
        <ele>555.9</ele>
        <time>2022-06-21T07:33:26Z</time>
      </trkpt>
      <trkpt lat="43.41151" lon="2.63546">
        <ele>555.7</ele>
        <time>2022-06-21T07:33:27Z</time>
      </trkpt>
      <trkpt lat="43.4115" lon="2.63546">
        <ele>555.6</ele>
        <time>2022-06-21T07:33:28Z</time>
      </trkpt>
      <trkpt lat="43.4115" lon="2.63546">
        <ele>555.5</ele>
        <time>2022-06-21T07:33:29Z</time>
      </trkpt>
      <trkpt lat="43.41148" lon="2.63546">
        <ele>555.4</ele>
        <time>2022-06-21T07:33:30Z</time>
      </trkpt>
      <trkpt lat="43.41147" lon="2.63545">
        <ele>555.2</ele>
        <time>2022-06-21T07:33:31Z</time>
      </trkpt>
      <trkpt lat="43.41145" lon="2.63545">
        <ele>555.1</ele>
        <time>2022-06-21T07:33:32Z</time>
      </trkpt>
      <trkpt lat="43.41144" lon="2.63545">
        <ele>554.9</ele>
        <time>2022-06-21T07:33:33Z</time>
      </trkpt>
      <trkpt lat="43.41143" lon="2.63544">
        <ele>554.8</ele>
        <time>2022-06-21T07:33:34Z</time>
      </trkpt>
      <trkpt lat="43.41141" lon="2.63544">
        <ele>554.7</ele>
        <time>2022-06-21T07:33:35Z</time>
      </trkpt>
      <trkpt lat="43.41139" lon="2.63543">
        <ele>554.5</ele>
        <time>2022-06-21T07:33:36Z</time>
      </trkpt>
      <trkpt lat="43.41138" lon="2.63543">
        <ele>554.4</ele>
        <time>2022-06-21T07:33:37Z</time>
      </trkpt>
      <trkpt lat="43.41136" lon="2.63543">
        <ele>554.2</ele>
        <time>2022-06-21T07:33:38Z</time>
      </trkpt>
      <trkpt lat="43.41135" lon="2.63543">
        <ele>554.1</ele>
        <time>2022-06-21T07:33:39Z</time>
      </trkpt>
      <trkpt lat="43.41134" lon="2.63543">
        <ele>554</ele>
        <time>2022-06-21T07:33:40Z</time>
      </trkpt>
      <trkpt lat="43.41133" lon="2.63543">
        <ele>553.8</ele>
        <time>2022-06-21T07:33:42Z</time>
      </trkpt>
      <trkpt lat="43.41132" lon="2.63543">
        <ele>553.8</ele>
        <time>2022-06-21T07:33:43Z</time>
      </trkpt>
      <trkpt lat="43.41131" lon="2.63543">
        <ele>553.7</ele>
        <time>2022-06-21T07:33:44Z</time>
      </trkpt>
      <trkpt lat="43.4113" lon="2.63542">
        <ele>553.6</ele>
        <time>2022-06-21T07:33:45Z</time>
      </trkpt>
      <trkpt lat="43.41129" lon="2.63542">
        <ele>553.5</ele>
        <time>2022-06-21T07:33:46Z</time>
      </trkpt>
      <trkpt lat="43.41129" lon="2.63542">
        <ele>553.4</ele>
        <time>2022-06-21T07:33:47Z</time>
      </trkpt>
      <trkpt lat="43.41127" lon="2.63542">
        <ele>553.3</ele>
        <time>2022-06-21T07:33:48Z</time>
      </trkpt>
      <trkpt lat="43.41126" lon="2.63542">
        <ele>553.2</ele>
        <time>2022-06-21T07:33:49Z</time>
      </trkpt>
      <trkpt lat="43.41126" lon="2.63542">
        <ele>553.1</ele>
        <time>2022-06-21T07:33:50Z</time>
      </trkpt>
      <trkpt lat="43.41125" lon="2.63542">
        <ele>553</ele>
        <time>2022-06-21T07:33:51Z</time>
      </trkpt>
      <trkpt lat="43.41123" lon="2.63542">
        <ele>552.8</ele>
        <time>2022-06-21T07:33:52Z</time>
      </trkpt>
      <trkpt lat="43.41122" lon="2.63542">
        <ele>552.8</ele>
        <time>2022-06-21T07:33:53Z</time>
      </trkpt>
      <trkpt lat="43.41121" lon="2.63541">
        <ele>552.7</ele>
        <time>2022-06-21T07:33:54Z</time>
      </trkpt>
      <trkpt lat="43.41119" lon="2.63541">
        <ele>552.5</ele>
        <time>2022-06-21T07:33:55Z</time>
      </trkpt>
      <trkpt lat="43.41117" lon="2.63541">
        <ele>552.4</ele>
        <time>2022-06-21T07:33:56Z</time>
      </trkpt>
      <trkpt lat="43.41116" lon="2.63541">
        <ele>552.2</ele>
        <time>2022-06-21T07:33:57Z</time>
      </trkpt>
      <trkpt lat="43.41115" lon="2.63541">
        <ele>552.2</ele>
        <time>2022-06-21T07:33:58Z</time>
      </trkpt>
      <trkpt lat="43.41114" lon="2.63541">
        <ele>552.1</ele>
        <time>2022-06-21T07:33:59Z</time>
      </trkpt>
      <trkpt lat="43.41113" lon="2.6354">
        <ele>552</ele>
        <time>2022-06-21T07:34:00Z</time>
      </trkpt>
      <trkpt lat="43.41112" lon="2.6354">
        <ele>551.9</ele>
        <time>2022-06-21T07:34:01Z</time>
      </trkpt>
      <trkpt lat="43.41112" lon="2.63539">
        <ele>551.9</ele>
        <time>2022-06-21T07:34:02Z</time>
      </trkpt>
      <trkpt lat="43.41111" lon="2.63539">
        <ele>551.8</ele>
        <time>2022-06-21T07:34:03Z</time>
      </trkpt>
      <trkpt lat="43.4111" lon="2.63539">
        <ele>551.8</ele>
        <time>2022-06-21T07:34:04Z</time>
      </trkpt>
      <trkpt lat="43.4111" lon="2.63539">
        <ele>551.7</ele>
        <time>2022-06-21T07:34:05Z</time>
      </trkpt>
      <trkpt lat="43.41109" lon="2.63539">
        <ele>551.6</ele>
        <time>2022-06-21T07:34:06Z</time>
      </trkpt>
      <trkpt lat="43.41108" lon="2.63539">
        <ele>551.5</ele>
        <time>2022-06-21T07:34:07Z</time>
      </trkpt>
      <trkpt lat="43.41107" lon="2.63539">
        <ele>551.5</ele>
        <time>2022-06-21T07:34:08Z</time>
      </trkpt>
      <trkpt lat="43.41107" lon="2.63539">
        <ele>551.5</ele>
        <time>2022-06-21T07:34:09Z</time>
      </trkpt>
      <trkpt lat="43.41107" lon="2.63539">
        <ele>551.5</ele>
        <time>2022-06-21T07:34:10Z</time>
      </trkpt>
      <trkpt lat="43.41106" lon="2.63538">
        <ele>551.4</ele>
        <time>2022-06-21T07:34:11Z</time>
      </trkpt>
      <trkpt lat="43.41104" lon="2.63538">
        <ele>551.3</ele>
        <time>2022-06-21T07:34:12Z</time>
      </trkpt>
      <trkpt lat="43.41104" lon="2.63538">
        <ele>551.2</ele>
        <time>2022-06-21T07:34:13Z</time>
      </trkpt>
      <trkpt lat="43.41103" lon="2.63538">
        <ele>551.2</ele>
        <time>2022-06-21T07:34:14Z</time>
      </trkpt>
      <trkpt lat="43.41103" lon="2.63537">
        <ele>551.1</ele>
        <time>2022-06-21T07:34:15Z</time>
      </trkpt>
      <trkpt lat="43.41102" lon="2.63537">
        <ele>551.1</ele>
        <time>2022-06-21T07:34:16Z</time>
      </trkpt>
      <trkpt lat="43.41101" lon="2.63537">
        <ele>550.9</ele>
        <time>2022-06-21T07:34:17Z</time>
      </trkpt>
      <trkpt lat="43.41099" lon="2.63537">
        <ele>550.8</ele>
        <time>2022-06-21T07:34:18Z</time>
      </trkpt>
      <trkpt lat="43.41096" lon="2.63536">
        <ele>550.5</ele>
        <time>2022-06-21T07:34:19Z</time>
      </trkpt>
      <trkpt lat="43.41096" lon="2.63536">
        <ele>550.4</ele>
        <time>2022-06-21T07:34:20Z</time>
      </trkpt>
      <trkpt lat="43.41092" lon="2.63535">
        <ele>550.1</ele>
        <time>2022-06-21T07:34:21Z</time>
      </trkpt>
      <trkpt lat="43.4109" lon="2.63534">
        <ele>549.9</ele>
        <time>2022-06-21T07:34:22Z</time>
      </trkpt>
      <trkpt lat="43.41089" lon="2.63534">
        <ele>549.8</ele>
        <time>2022-06-21T07:34:23Z</time>
      </trkpt>
      <trkpt lat="43.41087" lon="2.63533">
        <ele>549.6</ele>
        <time>2022-06-21T07:34:24Z</time>
      </trkpt>
      <trkpt lat="43.41086" lon="2.63533">
        <ele>549.5</ele>
        <time>2022-06-21T07:34:25Z</time>
      </trkpt>
      <trkpt lat="43.41085" lon="2.63533">
        <ele>549.4</ele>
        <time>2022-06-21T07:34:26Z</time>
      </trkpt>
      <trkpt lat="43.41082" lon="2.63532">
        <ele>549.2</ele>
        <time>2022-06-21T07:34:27Z</time>
      </trkpt>
      <trkpt lat="43.41081" lon="2.63532">
        <ele>549.1</ele>
        <time>2022-06-21T07:34:28Z</time>
      </trkpt>
      <trkpt lat="43.41079" lon="2.63531">
        <ele>549</ele>
        <time>2022-06-21T07:34:29Z</time>
      </trkpt>
      <trkpt lat="43.41078" lon="2.63531">
        <ele>548.8</ele>
        <time>2022-06-21T07:34:30Z</time>
      </trkpt>
      <trkpt lat="43.41076" lon="2.63531">
        <ele>548.6</ele>
        <time>2022-06-21T07:34:31Z</time>
      </trkpt>
      <trkpt lat="43.41075" lon="2.63531">
        <ele>548.6</ele>
        <time>2022-06-21T07:34:32Z</time>
      </trkpt>
      <trkpt lat="43.41074" lon="2.63531">
        <ele>548.5</ele>
        <time>2022-06-21T07:34:33Z</time>
      </trkpt>
      <trkpt lat="43.41073" lon="2.63531">
        <ele>548.4</ele>
        <time>2022-06-21T07:34:34Z</time>
      </trkpt>
      <trkpt lat="43.41071" lon="2.63531">
        <ele>548.2</ele>
        <time>2022-06-21T07:34:35Z</time>
      </trkpt>
      <trkpt lat="43.41069" lon="2.63531">
        <ele>548</ele>
        <time>2022-06-21T07:34:36Z</time>
      </trkpt>
      <trkpt lat="43.41068" lon="2.63531">
        <ele>548</ele>
        <time>2022-06-21T07:34:37Z</time>
      </trkpt>
      <trkpt lat="43.41068" lon="2.63531">
        <ele>547.9</ele>
        <time>2022-06-21T07:34:38Z</time>
      </trkpt>
      <trkpt lat="43.41067" lon="2.6353">
        <ele>547.8</ele>
        <time>2022-06-21T07:34:39Z</time>
      </trkpt>
      <trkpt lat="43.41065" lon="2.6353">
        <ele>547.7</ele>
        <time>2022-06-21T07:34:40Z</time>
      </trkpt>
      <trkpt lat="43.41065" lon="2.6353">
        <ele>547.6</ele>
        <time>2022-06-21T07:34:41Z</time>
      </trkpt>
      <trkpt lat="43.41064" lon="2.6353">
        <ele>547.5</ele>
        <time>2022-06-21T07:34:42Z</time>
      </trkpt>
      <trkpt lat="43.41062" lon="2.6353">
        <ele>547.4</ele>
        <time>2022-06-21T07:34:43Z</time>
      </trkpt>
      <trkpt lat="43.41061" lon="2.6353">
        <ele>547.3</ele>
        <time>2022-06-21T07:34:44Z</time>
      </trkpt>
      <trkpt lat="43.41059" lon="2.63529">
        <ele>547.1</ele>
        <time>2022-06-21T07:34:45Z</time>
      </trkpt>
      <trkpt lat="43.41058" lon="2.63529">
        <ele>547</ele>
        <time>2022-06-21T07:34:46Z</time>
      </trkpt>
      <trkpt lat="43.41057" lon="2.63528">
        <ele>546.9</ele>
        <time>2022-06-21T07:34:47Z</time>
      </trkpt>
      <trkpt lat="43.41056" lon="2.63528">
        <ele>546.8</ele>
        <time>2022-06-21T07:34:48Z</time>
      </trkpt>
      <trkpt lat="43.41055" lon="2.63528">
        <ele>546.7</ele>
        <time>2022-06-21T07:34:49Z</time>
      </trkpt>
      <trkpt lat="43.41054" lon="2.63528">
        <ele>546.6</ele>
        <time>2022-06-21T07:34:50Z</time>
      </trkpt>
      <trkpt lat="43.41054" lon="2.63527">
        <ele>546.5</ele>
        <time>2022-06-21T07:34:51Z</time>
      </trkpt>
      <trkpt lat="43.41052" lon="2.63526">
        <ele>546.4</ele>
        <time>2022-06-21T07:34:52Z</time>
      </trkpt>
      <trkpt lat="43.41052" lon="2.63526">
        <ele>546.3</ele>
        <time>2022-06-21T07:34:53Z</time>
      </trkpt>
      <trkpt lat="43.41051" lon="2.63525">
        <ele>546.2</ele>
        <time>2022-06-21T07:34:54Z</time>
      </trkpt>
      <trkpt lat="43.41051" lon="2.63525">
        <ele>546.2</ele>
        <time>2022-06-21T07:34:55Z</time>
      </trkpt>
      <trkpt lat="43.4105" lon="2.63524">
        <ele>546.1</ele>
        <time>2022-06-21T07:34:56Z</time>
      </trkpt>
      <trkpt lat="43.41049" lon="2.63523">
        <ele>545.9</ele>
        <time>2022-06-21T07:34:57Z</time>
      </trkpt>
      <trkpt lat="43.41048" lon="2.63523">
        <ele>545.8</ele>
        <time>2022-06-21T07:34:58Z</time>
      </trkpt>
      <trkpt lat="43.41046" lon="2.63522">
        <ele>545.6</ele>
        <time>2022-06-21T07:34:59Z</time>
      </trkpt>
      <trkpt lat="43.41045" lon="2.63522">
        <ele>545.5</ele>
        <time>2022-06-21T07:35:00Z</time>
      </trkpt>
      <trkpt lat="43.41044" lon="2.63521">
        <ele>545.4</ele>
        <time>2022-06-21T07:35:01Z</time>
      </trkpt>
      <trkpt lat="43.41042" lon="2.63521">
        <ele>545.3</ele>
        <time>2022-06-21T07:35:02Z</time>
      </trkpt>
      <trkpt lat="43.41041" lon="2.6352">
        <ele>545.1</ele>
        <time>2022-06-21T07:35:03Z</time>
      </trkpt>
      <trkpt lat="43.41039" lon="2.6352">
        <ele>544.9</ele>
        <time>2022-06-21T07:35:04Z</time>
      </trkpt>
      <trkpt lat="43.41038" lon="2.63519">
        <ele>544.8</ele>
        <time>2022-06-21T07:35:05Z</time>
      </trkpt>
      <trkpt lat="43.41036" lon="2.63517">
        <ele>544.6</ele>
        <time>2022-06-21T07:35:06Z</time>
      </trkpt>
      <trkpt lat="43.41035" lon="2.63516">
        <ele>544.5</ele>
        <time>2022-06-21T07:35:07Z</time>
      </trkpt>
      <trkpt lat="43.41034" lon="2.63516">
        <ele>544.4</ele>
        <time>2022-06-21T07:35:08Z</time>
      </trkpt>
      <trkpt lat="43.41034" lon="2.63516">
        <ele>544.4</ele>
        <time>2022-06-21T07:35:09Z</time>
      </trkpt>
      <trkpt lat="43.41033" lon="2.63515">
        <ele>544.3</ele>
        <time>2022-06-21T07:35:10Z</time>
      </trkpt>
      <trkpt lat="43.41033" lon="2.63515">
        <ele>544.2</ele>
        <time>2022-06-21T07:35:11Z</time>
      </trkpt>
      <trkpt lat="43.41032" lon="2.63514">
        <ele>544.1</ele>
        <time>2022-06-21T07:35:12Z</time>
      </trkpt>
      <trkpt lat="43.41031" lon="2.63513">
        <ele>544</ele>
        <time>2022-06-21T07:35:13Z</time>
      </trkpt>
      <trkpt lat="43.4103" lon="2.63512">
        <ele>543.9</ele>
        <time>2022-06-21T07:35:14Z</time>
      </trkpt>
      <trkpt lat="43.41028" lon="2.63512">
        <ele>543.7</ele>
        <time>2022-06-21T07:35:15Z</time>
      </trkpt>
      <trkpt lat="43.41027" lon="2.63511">
        <ele>543.6</ele>
        <time>2022-06-21T07:35:16Z</time>
      </trkpt>
      <trkpt lat="43.41025" lon="2.6351">
        <ele>543.5</ele>
        <time>2022-06-21T07:35:17Z</time>
      </trkpt>
      <trkpt lat="43.41024" lon="2.63509">
        <ele>543.3</ele>
        <time>2022-06-21T07:35:18Z</time>
      </trkpt>
      <trkpt lat="43.41022" lon="2.63508">
        <ele>543.1</ele>
        <time>2022-06-21T07:35:19Z</time>
      </trkpt>
      <trkpt lat="43.41021" lon="2.63507">
        <ele>543</ele>
        <time>2022-06-21T07:35:20Z</time>
      </trkpt>
      <trkpt lat="43.41018" lon="2.63505">
        <ele>542.8</ele>
        <time>2022-06-21T07:35:21Z</time>
      </trkpt>
      <trkpt lat="43.41017" lon="2.63505">
        <ele>542.7</ele>
        <time>2022-06-21T07:35:22Z</time>
      </trkpt>
      <trkpt lat="43.41016" lon="2.63504">
        <ele>542.6</ele>
        <time>2022-06-21T07:35:23Z</time>
      </trkpt>
      <trkpt lat="43.41015" lon="2.63504">
        <ele>542.5</ele>
        <time>2022-06-21T07:35:24Z</time>
      </trkpt>
      <trkpt lat="43.41014" lon="2.63503">
        <ele>542.4</ele>
        <time>2022-06-21T07:35:25Z</time>
      </trkpt>
      <trkpt lat="43.41013" lon="2.63503">
        <ele>542.3</ele>
        <time>2022-06-21T07:35:26Z</time>
      </trkpt>
      <trkpt lat="43.41011" lon="2.63501">
        <ele>542.1</ele>
        <time>2022-06-21T07:35:27Z</time>
      </trkpt>
      <trkpt lat="43.41011" lon="2.635">
        <ele>542</ele>
        <time>2022-06-21T07:35:28Z</time>
      </trkpt>
      <trkpt lat="43.4101" lon="2.635">
        <ele>542</ele>
        <time>2022-06-21T07:35:29Z</time>
      </trkpt>
      <trkpt lat="43.41009" lon="2.63499">
        <ele>541.9</ele>
        <time>2022-06-21T07:35:30Z</time>
      </trkpt>
      <trkpt lat="43.41008" lon="2.63499">
        <ele>541.9</ele>
        <time>2022-06-21T07:35:31Z</time>
      </trkpt>
      <trkpt lat="43.41007" lon="2.63498">
        <ele>541.8</ele>
        <time>2022-06-21T07:35:32Z</time>
      </trkpt>
      <trkpt lat="43.41006" lon="2.63498">
        <ele>541.6</ele>
        <time>2022-06-21T07:35:33Z</time>
      </trkpt>
      <trkpt lat="43.41005" lon="2.63497">
        <ele>541.5</ele>
        <time>2022-06-21T07:35:34Z</time>
      </trkpt>
      <trkpt lat="43.41003" lon="2.63496">
        <ele>541.4</ele>
        <time>2022-06-21T07:35:35Z</time>
      </trkpt>
      <trkpt lat="43.41002" lon="2.63495">
        <ele>541.3</ele>
        <time>2022-06-21T07:35:36Z</time>
      </trkpt>
      <trkpt lat="43.41" lon="2.63494">
        <ele>541.1</ele>
        <time>2022-06-21T07:35:37Z</time>
      </trkpt>
      <trkpt lat="43.41" lon="2.63493">
        <ele>541.1</ele>
        <time>2022-06-21T07:35:38Z</time>
      </trkpt>
      <trkpt lat="43.40999" lon="2.63493">
        <ele>541</ele>
        <time>2022-06-21T07:35:39Z</time>
      </trkpt>
      <trkpt lat="43.40998" lon="2.63492">
        <ele>540.9</ele>
        <time>2022-06-21T07:35:40Z</time>
      </trkpt>
      <trkpt lat="43.40997" lon="2.63491">
        <ele>540.8</ele>
        <time>2022-06-21T07:35:41Z</time>
      </trkpt>
      <trkpt lat="43.40996" lon="2.63491">
        <ele>540.7</ele>
        <time>2022-06-21T07:35:42Z</time>
      </trkpt>
      <trkpt lat="43.40995" lon="2.6349">
        <ele>540.6</ele>
        <time>2022-06-21T07:35:43Z</time>
      </trkpt>
      <trkpt lat="43.40994" lon="2.6349">
        <ele>540.5</ele>
        <time>2022-06-21T07:35:44Z</time>
      </trkpt>
      <trkpt lat="43.40993" lon="2.63489">
        <ele>540.4</ele>
        <time>2022-06-21T07:35:45Z</time>
      </trkpt>
      <trkpt lat="43.40991" lon="2.63489">
        <ele>540.3</ele>
        <time>2022-06-21T07:35:46Z</time>
      </trkpt>
      <trkpt lat="43.4099" lon="2.63489">
        <ele>540.2</ele>
        <time>2022-06-21T07:35:47Z</time>
      </trkpt>
      <trkpt lat="43.40989" lon="2.63488">
        <ele>540.1</ele>
        <time>2022-06-21T07:35:48Z</time>
      </trkpt>
      <trkpt lat="43.40988" lon="2.63487">
        <ele>540</ele>
        <time>2022-06-21T07:35:49Z</time>
      </trkpt>
      <trkpt lat="43.40987" lon="2.63487">
        <ele>539.9</ele>
        <time>2022-06-21T07:35:50Z</time>
      </trkpt>
      <trkpt lat="43.40986" lon="2.63487">
        <ele>539.8</ele>
        <time>2022-06-21T07:35:51Z</time>
      </trkpt>
      <trkpt lat="43.40985" lon="2.63486">
        <ele>539.8</ele>
        <time>2022-06-21T07:35:52Z</time>
      </trkpt>
      <trkpt lat="43.40984" lon="2.63486">
        <ele>539.7</ele>
        <time>2022-06-21T07:35:53Z</time>
      </trkpt>
      <trkpt lat="43.40983" lon="2.63486">
        <ele>539.6</ele>
        <time>2022-06-21T07:35:54Z</time>
      </trkpt>
      <trkpt lat="43.40982" lon="2.63485">
        <ele>539.5</ele>
        <time>2022-06-21T07:35:55Z</time>
      </trkpt>
      <trkpt lat="43.40981" lon="2.63485">
        <ele>539.4</ele>
        <time>2022-06-21T07:35:56Z</time>
      </trkpt>
      <trkpt lat="43.4098" lon="2.63485">
        <ele>539.3</ele>
        <time>2022-06-21T07:35:57Z</time>
      </trkpt>
      <trkpt lat="43.40979" lon="2.63485">
        <ele>539.3</ele>
        <time>2022-06-21T07:35:58Z</time>
      </trkpt>
      <trkpt lat="43.40979" lon="2.63485">
        <ele>539.2</ele>
        <time>2022-06-21T07:35:59Z</time>
      </trkpt>
      <trkpt lat="43.40978" lon="2.63485">
        <ele>539.2</ele>
        <time>2022-06-21T07:36:00Z</time>
      </trkpt>
      <trkpt lat="43.40977" lon="2.63485">
        <ele>539.1</ele>
        <time>2022-06-21T07:36:01Z</time>
      </trkpt>
      <trkpt lat="43.40976" lon="2.63485">
        <ele>539</ele>
        <time>2022-06-21T07:36:02Z</time>
      </trkpt>
      <trkpt lat="43.40976" lon="2.63485">
        <ele>539</ele>
        <time>2022-06-21T07:36:03Z</time>
      </trkpt>
      <trkpt lat="43.40976" lon="2.63485">
        <ele>538.9</ele>
        <time>2022-06-21T07:36:04Z</time>
      </trkpt>
      <trkpt lat="43.40976" lon="2.63485">
        <ele>538.9</ele>
        <time>2022-06-21T07:36:05Z</time>
      </trkpt>
      <trkpt lat="43.40975" lon="2.63485">
        <ele>538.9</ele>
        <time>2022-06-21T07:36:06Z</time>
      </trkpt>
      <trkpt lat="43.40975" lon="2.63485">
        <ele>538.9</ele>
        <time>2022-06-21T07:36:07Z</time>
      </trkpt>
      <trkpt lat="43.40975" lon="2.63485">
        <ele>538.9</ele>
        <time>2022-06-21T07:36:08Z</time>
      </trkpt>
      <trkpt lat="43.40975" lon="2.63485">
        <ele>538.9</ele>
        <time>2022-06-21T07:36:09Z</time>
      </trkpt>
      <trkpt lat="43.40975" lon="2.63485">
        <ele>538.9</ele>
        <time>2022-06-21T07:36:10Z</time>
      </trkpt>
      <trkpt lat="43.40975" lon="2.63485">
        <ele>538.9</ele>
        <time>2022-06-21T07:36:11Z</time>
      </trkpt>
      <trkpt lat="43.40975" lon="2.63485">
        <ele>538.9</ele>
        <time>2022-06-21T07:36:12Z</time>
      </trkpt>
      <trkpt lat="43.40976" lon="2.63485">
        <ele>538.9</ele>
        <time>2022-06-21T07:36:13Z</time>
      </trkpt>
      <trkpt lat="43.40976" lon="2.63485">
        <ele>538.9</ele>
        <time>2022-06-21T07:36:14Z</time>
      </trkpt>
      <trkpt lat="43.40976" lon="2.63485">
        <ele>538.9</ele>
        <time>2022-06-21T07:36:15Z</time>
      </trkpt>
      <trkpt lat="43.40976" lon="2.63485">
        <ele>538.9</ele>
        <time>2022-06-21T07:36:16Z</time>
      </trkpt>
      <trkpt lat="43.40976" lon="2.63485">
        <ele>538.9</ele>
        <time>2022-06-21T07:36:17Z</time>
      </trkpt>
      <trkpt lat="43.40976" lon="2.63485">
        <ele>538.9</ele>
        <time>2022-06-21T07:36:18Z</time>
      </trkpt>
      <trkpt lat="43.40976" lon="2.63485">
        <ele>538.9</ele>
        <time>2022-06-21T07:36:19Z</time>
      </trkpt>
      <trkpt lat="43.40975" lon="2.63485">
        <ele>538.9</ele>
        <time>2022-06-21T07:36:20Z</time>
      </trkpt>
      <trkpt lat="43.40974" lon="2.63485">
        <ele>538.8</ele>
        <time>2022-06-21T07:36:21Z</time>
      </trkpt>
      <trkpt lat="43.40974" lon="2.63485">
        <ele>538.7</ele>
        <time>2022-06-21T07:36:22Z</time>
      </trkpt>
      <trkpt lat="43.40973" lon="2.63484">
        <ele>538.6</ele>
        <time>2022-06-21T07:36:23Z</time>
      </trkpt>
      <trkpt lat="43.40972" lon="2.63484">
        <ele>538.5</ele>
        <time>2022-06-21T07:36:24Z</time>
      </trkpt>
      <trkpt lat="43.40971" lon="2.63484">
        <ele>538.4</ele>
        <time>2022-06-21T07:36:25Z</time>
      </trkpt>
      <trkpt lat="43.40969" lon="2.63483">
        <ele>538.3</ele>
        <time>2022-06-21T07:36:26Z</time>
      </trkpt>
      <trkpt lat="43.40968" lon="2.63483">
        <ele>538.2</ele>
        <time>2022-06-21T07:36:27Z</time>
      </trkpt>
      <trkpt lat="43.40967" lon="2.63483">
        <ele>538.1</ele>
        <time>2022-06-21T07:36:28Z</time>
      </trkpt>
      <trkpt lat="43.40966" lon="2.63482">
        <ele>538</ele>
        <time>2022-06-21T07:36:29Z</time>
      </trkpt>
      <trkpt lat="43.40965" lon="2.63482">
        <ele>537.9</ele>
        <time>2022-06-21T07:36:30Z</time>
      </trkpt>
      <trkpt lat="43.40964" lon="2.63481">
        <ele>537.8</ele>
        <time>2022-06-21T07:36:31Z</time>
      </trkpt>
      <trkpt lat="43.40963" lon="2.63481">
        <ele>537.7</ele>
        <time>2022-06-21T07:36:32Z</time>
      </trkpt>
      <trkpt lat="43.40962" lon="2.6348">
        <ele>537.5</ele>
        <time>2022-06-21T07:36:33Z</time>
      </trkpt>
      <trkpt lat="43.4096" lon="2.63479">
        <ele>537.4</ele>
        <time>2022-06-21T07:36:34Z</time>
      </trkpt>
      <trkpt lat="43.40959" lon="2.63479">
        <ele>537.3</ele>
        <time>2022-06-21T07:36:35Z</time>
      </trkpt>
      <trkpt lat="43.40958" lon="2.63479">
        <ele>537.2</ele>
        <time>2022-06-21T07:36:36Z</time>
      </trkpt>
      <trkpt lat="43.40957" lon="2.63479">
        <ele>537.1</ele>
        <time>2022-06-21T07:36:37Z</time>
      </trkpt>
      <trkpt lat="43.40956" lon="2.63479">
        <ele>537</ele>
        <time>2022-06-21T07:36:38Z</time>
      </trkpt>
      <trkpt lat="43.40955" lon="2.63479">
        <ele>536.9</ele>
        <time>2022-06-21T07:36:39Z</time>
      </trkpt>
      <trkpt lat="43.40954" lon="2.63478">
        <ele>536.8</ele>
        <time>2022-06-21T07:36:40Z</time>
      </trkpt>
      <trkpt lat="43.40953" lon="2.63478">
        <ele>536.7</ele>
        <time>2022-06-21T07:36:41Z</time>
      </trkpt>
      <trkpt lat="43.40952" lon="2.63477">
        <ele>536.6</ele>
        <time>2022-06-21T07:36:42Z</time>
      </trkpt>
      <trkpt lat="43.40952" lon="2.63477">
        <ele>536.5</ele>
        <time>2022-06-21T07:36:43Z</time>
      </trkpt>
      <trkpt lat="43.40951" lon="2.63477">
        <ele>536.4</ele>
        <time>2022-06-21T07:36:44Z</time>
      </trkpt>
      <trkpt lat="43.4095" lon="2.63476">
        <ele>536.3</ele>
        <time>2022-06-21T07:36:45Z</time>
      </trkpt>
      <trkpt lat="43.40949" lon="2.63476">
        <ele>536.2</ele>
        <time>2022-06-21T07:36:46Z</time>
      </trkpt>
      <trkpt lat="43.40948" lon="2.63477">
        <ele>536.1</ele>
        <time>2022-06-21T07:36:47Z</time>
      </trkpt>
      <trkpt lat="43.40947" lon="2.63477">
        <ele>536</ele>
        <time>2022-06-21T07:36:48Z</time>
      </trkpt>
      <trkpt lat="43.40945" lon="2.63477">
        <ele>535.9</ele>
        <time>2022-06-21T07:36:49Z</time>
      </trkpt>
      <trkpt lat="43.40945" lon="2.63477">
        <ele>535.8</ele>
        <time>2022-06-21T07:36:50Z</time>
      </trkpt>
      <trkpt lat="43.40944" lon="2.63476">
        <ele>535.7</ele>
        <time>2022-06-21T07:36:51Z</time>
      </trkpt>
      <trkpt lat="43.40943" lon="2.63476">
        <ele>535.6</ele>
        <time>2022-06-21T07:36:52Z</time>
      </trkpt>
      <trkpt lat="43.40942" lon="2.63475">
        <ele>535.5</ele>
        <time>2022-06-21T07:36:53Z</time>
      </trkpt>
      <trkpt lat="43.40941" lon="2.63475">
        <ele>535.4</ele>
        <time>2022-06-21T07:36:54Z</time>
      </trkpt>
      <trkpt lat="43.4094" lon="2.63474">
        <ele>535.3</ele>
        <time>2022-06-21T07:36:55Z</time>
      </trkpt>
      <trkpt lat="43.40939" lon="2.63474">
        <ele>535.2</ele>
        <time>2022-06-21T07:36:56Z</time>
      </trkpt>
      <trkpt lat="43.40938" lon="2.63473">
        <ele>535.1</ele>
        <time>2022-06-21T07:36:57Z</time>
      </trkpt>
      <trkpt lat="43.40937" lon="2.63473">
        <ele>534.9</ele>
        <time>2022-06-21T07:36:58Z</time>
      </trkpt>
      <trkpt lat="43.40936" lon="2.63472">
        <ele>534.8</ele>
        <time>2022-06-21T07:36:59Z</time>
      </trkpt>
      <trkpt lat="43.40936" lon="2.63472">
        <ele>534.8</ele>
        <time>2022-06-21T07:37:00Z</time>
      </trkpt>
      <trkpt lat="43.40935" lon="2.63471">
        <ele>534.7</ele>
        <time>2022-06-21T07:37:01Z</time>
      </trkpt>
      <trkpt lat="43.40934" lon="2.63471">
        <ele>534.6</ele>
        <time>2022-06-21T07:37:02Z</time>
      </trkpt>
      <trkpt lat="43.40933" lon="2.63471">
        <ele>534.4</ele>
        <time>2022-06-21T07:37:03Z</time>
      </trkpt>
      <trkpt lat="43.40932" lon="2.6347">
        <ele>534.3</ele>
        <time>2022-06-21T07:37:04Z</time>
      </trkpt>
      <trkpt lat="43.40931" lon="2.6347">
        <ele>534.2</ele>
        <time>2022-06-21T07:37:05Z</time>
      </trkpt>
      <trkpt lat="43.40931" lon="2.6347">
        <ele>534.2</ele>
        <time>2022-06-21T07:37:06Z</time>
      </trkpt>
      <trkpt lat="43.4093" lon="2.63469">
        <ele>534.1</ele>
        <time>2022-06-21T07:37:07Z</time>
      </trkpt>
      <trkpt lat="43.40929" lon="2.63469">
        <ele>534</ele>
        <time>2022-06-21T07:37:08Z</time>
      </trkpt>
      <trkpt lat="43.40928" lon="2.63468">
        <ele>533.8</ele>
        <time>2022-06-21T07:37:09Z</time>
      </trkpt>
      <trkpt lat="43.40927" lon="2.63467">
        <ele>533.7</ele>
        <time>2022-06-21T07:37:10Z</time>
      </trkpt>
      <trkpt lat="43.40927" lon="2.63467">
        <ele>533.6</ele>
        <time>2022-06-21T07:37:11Z</time>
      </trkpt>
      <trkpt lat="43.40926" lon="2.63466">
        <ele>533.5</ele>
        <time>2022-06-21T07:37:12Z</time>
      </trkpt>
      <trkpt lat="43.40925" lon="2.63466">
        <ele>533.3</ele>
        <time>2022-06-21T07:37:13Z</time>
      </trkpt>
      <trkpt lat="43.40924" lon="2.63465">
        <ele>533.2</ele>
        <time>2022-06-21T07:37:14Z</time>
      </trkpt>
      <trkpt lat="43.40923" lon="2.63464">
        <ele>533</ele>
        <time>2022-06-21T07:37:15Z</time>
      </trkpt>
      <trkpt lat="43.40922" lon="2.63463">
        <ele>532.8</ele>
        <time>2022-06-21T07:37:16Z</time>
      </trkpt>
      <trkpt lat="43.40921" lon="2.63462">
        <ele>532.6</ele>
        <time>2022-06-21T07:37:17Z</time>
      </trkpt>
      <trkpt lat="43.4092" lon="2.63461">
        <ele>532.5</ele>
        <time>2022-06-21T07:37:18Z</time>
      </trkpt>
      <trkpt lat="43.4092" lon="2.63461">
        <ele>532.4</ele>
        <time>2022-06-21T07:37:19Z</time>
      </trkpt>
      <trkpt lat="43.4092" lon="2.6346">
        <ele>532.4</ele>
        <time>2022-06-21T07:37:20Z</time>
      </trkpt>
      <trkpt lat="43.40919" lon="2.6346">
        <ele>532.3</ele>
        <time>2022-06-21T07:37:21Z</time>
      </trkpt>
      <trkpt lat="43.40919" lon="2.63459">
        <ele>532.2</ele>
        <time>2022-06-21T07:37:22Z</time>
      </trkpt>
      <trkpt lat="43.40918" lon="2.63459">
        <ele>532</ele>
        <time>2022-06-21T07:37:23Z</time>
      </trkpt>
      <trkpt lat="43.40918" lon="2.63458">
        <ele>531.9</ele>
        <time>2022-06-21T07:37:24Z</time>
      </trkpt>
      <trkpt lat="43.40916" lon="2.63455">
        <ele>531.5</ele>
        <time>2022-06-21T07:37:25Z</time>
      </trkpt>
      <trkpt lat="43.40916" lon="2.63454">
        <ele>531.4</ele>
        <time>2022-06-21T07:37:26Z</time>
      </trkpt>
      <trkpt lat="43.40915" lon="2.63453">
        <ele>531.2</ele>
        <time>2022-06-21T07:37:27Z</time>
      </trkpt>
      <trkpt lat="43.40914" lon="2.63452">
        <ele>531.1</ele>
        <time>2022-06-21T07:37:28Z</time>
      </trkpt>
      <trkpt lat="43.40914" lon="2.63452">
        <ele>531</ele>
        <time>2022-06-21T07:37:29Z</time>
      </trkpt>
      <trkpt lat="43.40913" lon="2.63451">
        <ele>530.9</ele>
        <time>2022-06-21T07:37:30Z</time>
      </trkpt>
      <trkpt lat="43.40912" lon="2.63451">
        <ele>530.7</ele>
        <time>2022-06-21T07:37:31Z</time>
      </trkpt>
      <trkpt lat="43.40911" lon="2.6345">
        <ele>530.6</ele>
        <time>2022-06-21T07:37:32Z</time>
      </trkpt>
      <trkpt lat="43.40911" lon="2.63449">
        <ele>530.4</ele>
        <time>2022-06-21T07:37:33Z</time>
      </trkpt>
      <trkpt lat="43.4091" lon="2.63448">
        <ele>530.2</ele>
        <time>2022-06-21T07:37:34Z</time>
      </trkpt>
      <trkpt lat="43.40908" lon="2.63446">
        <ele>529.9</ele>
        <time>2022-06-21T07:37:35Z</time>
      </trkpt>
      <trkpt lat="43.40907" lon="2.63446">
        <ele>529.7</ele>
        <time>2022-06-21T07:37:36Z</time>
      </trkpt>
      <trkpt lat="43.40907" lon="2.63445">
        <ele>529.6</ele>
        <time>2022-06-21T07:37:37Z</time>
      </trkpt>
      <trkpt lat="43.40906" lon="2.63444">
        <ele>529.4</ele>
        <time>2022-06-21T07:37:38Z</time>
      </trkpt>
      <trkpt lat="43.40904" lon="2.63442">
        <ele>529.1</ele>
        <time>2022-06-21T07:37:39Z</time>
      </trkpt>
      <trkpt lat="43.40903" lon="2.63441">
        <ele>528.9</ele>
        <time>2022-06-21T07:37:40Z</time>
      </trkpt>
      <trkpt lat="43.40902" lon="2.6344">
        <ele>528.8</ele>
        <time>2022-06-21T07:37:41Z</time>
      </trkpt>
      <trkpt lat="43.40901" lon="2.6344">
        <ele>528.7</ele>
        <time>2022-06-21T07:37:42Z</time>
      </trkpt>
      <trkpt lat="43.40901" lon="2.63439">
        <ele>528.6</ele>
        <time>2022-06-21T07:37:43Z</time>
      </trkpt>
      <trkpt lat="43.409" lon="2.63439">
        <ele>528.5</ele>
        <time>2022-06-21T07:37:44Z</time>
      </trkpt>
      <trkpt lat="43.409" lon="2.63439">
        <ele>528.4</ele>
        <time>2022-06-21T07:37:45Z</time>
      </trkpt>
      <trkpt lat="43.409" lon="2.63438">
        <ele>528.4</ele>
        <time>2022-06-21T07:37:46Z</time>
      </trkpt>
      <trkpt lat="43.409" lon="2.63438">
        <ele>528.4</ele>
        <time>2022-06-21T07:37:47Z</time>
      </trkpt>
      <trkpt lat="43.40899" lon="2.63438">
        <ele>528.3</ele>
        <time>2022-06-21T07:37:48Z</time>
      </trkpt>
      <trkpt lat="43.40898" lon="2.63437">
        <ele>528.2</ele>
        <time>2022-06-21T07:37:49Z</time>
      </trkpt>
      <trkpt lat="43.40896" lon="2.63436">
        <ele>527.9</ele>
        <time>2022-06-21T07:37:50Z</time>
      </trkpt>
      <trkpt lat="43.40895" lon="2.63436">
        <ele>527.8</ele>
        <time>2022-06-21T07:37:51Z</time>
      </trkpt>
      <trkpt lat="43.40895" lon="2.63435">
        <ele>527.7</ele>
        <time>2022-06-21T07:37:52Z</time>
      </trkpt>
      <trkpt lat="43.40894" lon="2.63435">
        <ele>527.6</ele>
        <time>2022-06-21T07:37:53Z</time>
      </trkpt>
      <trkpt lat="43.40892" lon="2.63434">
        <ele>527.4</ele>
        <time>2022-06-21T07:37:54Z</time>
      </trkpt>
      <trkpt lat="43.40889" lon="2.63432">
        <ele>527</ele>
        <time>2022-06-21T07:37:55Z</time>
      </trkpt>
      <trkpt lat="43.40888" lon="2.63432">
        <ele>526.9</ele>
        <time>2022-06-21T07:37:56Z</time>
      </trkpt>
      <trkpt lat="43.40887" lon="2.63432">
        <ele>526.8</ele>
        <time>2022-06-21T07:37:57Z</time>
      </trkpt>
      <trkpt lat="43.40886" lon="2.63431">
        <ele>526.7</ele>
        <time>2022-06-21T07:37:58Z</time>
      </trkpt>
      <trkpt lat="43.40884" lon="2.63431">
        <ele>526.4</ele>
        <time>2022-06-21T07:37:59Z</time>
      </trkpt>
      <trkpt lat="43.40883" lon="2.63431">
        <ele>526.3</ele>
        <time>2022-06-21T07:38:00Z</time>
      </trkpt>
      <trkpt lat="43.40882" lon="2.63431">
        <ele>526.2</ele>
        <time>2022-06-21T07:38:01Z</time>
      </trkpt>
      <trkpt lat="43.40881" lon="2.63431">
        <ele>526.1</ele>
        <time>2022-06-21T07:38:02Z</time>
      </trkpt>
      <trkpt lat="43.4088" lon="2.63431">
        <ele>526</ele>
        <time>2022-06-21T07:38:03Z</time>
      </trkpt>
      <trkpt lat="43.4088" lon="2.63431">
        <ele>525.9</ele>
        <time>2022-06-21T07:38:04Z</time>
      </trkpt>
      <trkpt lat="43.40879" lon="2.63431">
        <ele>525.8</ele>
        <time>2022-06-21T07:38:05Z</time>
      </trkpt>
      <trkpt lat="43.40878" lon="2.63431">
        <ele>525.7</ele>
        <time>2022-06-21T07:38:06Z</time>
      </trkpt>
      <trkpt lat="43.40877" lon="2.63431">
        <ele>525.6</ele>
        <time>2022-06-21T07:38:07Z</time>
      </trkpt>
      <trkpt lat="43.40875" lon="2.63431">
        <ele>525.4</ele>
        <time>2022-06-21T07:38:08Z</time>
      </trkpt>
      <trkpt lat="43.40873" lon="2.63431">
        <ele>525.2</ele>
        <time>2022-06-21T07:38:09Z</time>
      </trkpt>
      <trkpt lat="43.40873" lon="2.63431">
        <ele>525.1</ele>
        <time>2022-06-21T07:38:10Z</time>
      </trkpt>
      <trkpt lat="43.40872" lon="2.63431">
        <ele>524.9</ele>
        <time>2022-06-21T07:38:11Z</time>
      </trkpt>
      <trkpt lat="43.4087" lon="2.63432">
        <ele>524.8</ele>
        <time>2022-06-21T07:38:12Z</time>
      </trkpt>
      <trkpt lat="43.4087" lon="2.63432">
        <ele>524.7</ele>
        <time>2022-06-21T07:38:13Z</time>
      </trkpt>
      <trkpt lat="43.40869" lon="2.63432">
        <ele>524.6</ele>
        <time>2022-06-21T07:38:14Z</time>
      </trkpt>
      <trkpt lat="43.40869" lon="2.63432">
        <ele>524.5</ele>
        <time>2022-06-21T07:38:15Z</time>
      </trkpt>
      <trkpt lat="43.40868" lon="2.63432">
        <ele>524.4</ele>
        <time>2022-06-21T07:38:16Z</time>
      </trkpt>
      <trkpt lat="43.40867" lon="2.63433">
        <ele>524.3</ele>
        <time>2022-06-21T07:38:17Z</time>
      </trkpt>
      <trkpt lat="43.40866" lon="2.63434">
        <ele>524.1</ele>
        <time>2022-06-21T07:38:18Z</time>
      </trkpt>
      <trkpt lat="43.40865" lon="2.63434">
        <ele>523.9</ele>
        <time>2022-06-21T07:38:19Z</time>
      </trkpt>
      <trkpt lat="43.40864" lon="2.63434">
        <ele>523.8</ele>
        <time>2022-06-21T07:38:20Z</time>
      </trkpt>
      <trkpt lat="43.40863" lon="2.63434">
        <ele>523.7</ele>
        <time>2022-06-21T07:38:21Z</time>
      </trkpt>
      <trkpt lat="43.40862" lon="2.63434">
        <ele>523.1</ele>
        <time>2022-06-21T07:38:22Z</time>
      </trkpt>
      <trkpt lat="43.40861" lon="2.63434">
        <ele>522.9</ele>
        <time>2022-06-21T07:38:23Z</time>
      </trkpt>
      <trkpt lat="43.40858" lon="2.63435">
        <ele>522.5</ele>
        <time>2022-06-21T07:38:24Z</time>
      </trkpt>
      <trkpt lat="43.40857" lon="2.63435">
        <ele>522.3</ele>
        <time>2022-06-21T07:38:25Z</time>
      </trkpt>
      <trkpt lat="43.40856" lon="2.63435">
        <ele>522</ele>
        <time>2022-06-21T07:38:26Z</time>
      </trkpt>
      <trkpt lat="43.40855" lon="2.63435">
        <ele>521.8</ele>
        <time>2022-06-21T07:38:27Z</time>
      </trkpt>
      <trkpt lat="43.40854" lon="2.63435">
        <ele>521.7</ele>
        <time>2022-06-21T07:38:28Z</time>
      </trkpt>
      <trkpt lat="43.40854" lon="2.63435">
        <ele>521.7</ele>
        <time>2022-06-21T07:38:29Z</time>
      </trkpt>
      <trkpt lat="43.40854" lon="2.63435">
        <ele>521.7</ele>
        <time>2022-06-21T07:38:30Z</time>
      </trkpt>
      <trkpt lat="43.40854" lon="2.63435">
        <ele>521.7</ele>
        <time>2022-06-21T07:38:31Z</time>
      </trkpt>
      <trkpt lat="43.40854" lon="2.63435">
        <ele>521.7</ele>
        <time>2022-06-21T07:38:32Z</time>
      </trkpt>
      <trkpt lat="43.40854" lon="2.63435">
        <ele>521.7</ele>
        <time>2022-06-21T07:38:33Z</time>
      </trkpt>
      <trkpt lat="43.40854" lon="2.63435">
        <ele>521.6</ele>
        <time>2022-06-21T07:38:34Z</time>
      </trkpt>
      <trkpt lat="43.40854" lon="2.63435">
        <ele>521.6</ele>
        <time>2022-06-21T07:38:35Z</time>
      </trkpt>
      <trkpt lat="43.40854" lon="2.63435">
        <ele>521.6</ele>
        <time>2022-06-21T07:38:36Z</time>
      </trkpt>
      <trkpt lat="43.40854" lon="2.63435">
        <ele>521.6</ele>
        <time>2022-06-21T07:38:37Z</time>
      </trkpt>
      <trkpt lat="43.40853" lon="2.63436">
        <ele>521.5</ele>
        <time>2022-06-21T07:38:38Z</time>
      </trkpt>
      <trkpt lat="43.40852" lon="2.63436">
        <ele>521.3</ele>
        <time>2022-06-21T07:38:39Z</time>
      </trkpt>
      <trkpt lat="43.40851" lon="2.63436">
        <ele>521.1</ele>
        <time>2022-06-21T07:38:40Z</time>
      </trkpt>
      <trkpt lat="43.40849" lon="2.63436">
        <ele>520.8</ele>
        <time>2022-06-21T07:38:41Z</time>
      </trkpt>
      <trkpt lat="43.40847" lon="2.63437">
        <ele>520.3</ele>
        <time>2022-06-21T07:38:42Z</time>
      </trkpt>
      <trkpt lat="43.40846" lon="2.63437">
        <ele>520.1</ele>
        <time>2022-06-21T07:38:43Z</time>
      </trkpt>
      <trkpt lat="43.40842" lon="2.63437">
        <ele>519.5</ele>
        <time>2022-06-21T07:38:44Z</time>
      </trkpt>
      <trkpt lat="43.40841" lon="2.63437">
        <ele>519.2</ele>
        <time>2022-06-21T07:38:45Z</time>
      </trkpt>
      <trkpt lat="43.4084" lon="2.63437">
        <ele>519.1</ele>
        <time>2022-06-21T07:38:46Z</time>
      </trkpt>
      <trkpt lat="43.40839" lon="2.63437">
        <ele>518.9</ele>
        <time>2022-06-21T07:38:47Z</time>
      </trkpt>
      <trkpt lat="43.40838" lon="2.63437">
        <ele>518.6</ele>
        <time>2022-06-21T07:38:48Z</time>
      </trkpt>
      <trkpt lat="43.40835" lon="2.63437">
        <ele>518.3</ele>
        <time>2022-06-21T07:38:49Z</time>
      </trkpt>
      <trkpt lat="43.40834" lon="2.63438">
        <ele>518</ele>
        <time>2022-06-21T07:38:50Z</time>
      </trkpt>
      <trkpt lat="43.40833" lon="2.63438">
        <ele>517.9</ele>
        <time>2022-06-21T07:38:51Z</time>
      </trkpt>
      <trkpt lat="43.40833" lon="2.63438">
        <ele>517.8</ele>
        <time>2022-06-21T07:38:52Z</time>
      </trkpt>
      <trkpt lat="43.40832" lon="2.63438">
        <ele>517.6</ele>
        <time>2022-06-21T07:38:53Z</time>
      </trkpt>
      <trkpt lat="43.4083" lon="2.63438">
        <ele>517.4</ele>
        <time>2022-06-21T07:38:55Z</time>
      </trkpt>
      <trkpt lat="43.40829" lon="2.63438">
        <ele>517.2</ele>
        <time>2022-06-21T07:38:56Z</time>
      </trkpt>
      <trkpt lat="43.40829" lon="2.63438">
        <ele>517.1</ele>
        <time>2022-06-21T07:38:57Z</time>
      </trkpt>
      <trkpt lat="43.40827" lon="2.63436">
        <ele>516.7</ele>
        <time>2022-06-21T07:38:58Z</time>
      </trkpt>
      <trkpt lat="43.40826" lon="2.63435">
        <ele>516.6</ele>
        <time>2022-06-21T07:38:59Z</time>
      </trkpt>
      <trkpt lat="43.40825" lon="2.63434">
        <ele>516.4</ele>
        <time>2022-06-21T07:39:00Z</time>
      </trkpt>
      <trkpt lat="43.40825" lon="2.63433">
        <ele>516.2</ele>
        <time>2022-06-21T07:39:01Z</time>
      </trkpt>
      <trkpt lat="43.40824" lon="2.63433">
        <ele>516.1</ele>
        <time>2022-06-21T07:39:02Z</time>
      </trkpt>
      <trkpt lat="43.40824" lon="2.63433">
        <ele>516</ele>
        <time>2022-06-21T07:39:03Z</time>
      </trkpt>
      <trkpt lat="43.40824" lon="2.63432">
        <ele>516</ele>
        <time>2022-06-21T07:39:04Z</time>
      </trkpt>
      <trkpt lat="43.40824" lon="2.63432">
        <ele>516</ele>
        <time>2022-06-21T07:39:05Z</time>
      </trkpt>
      <trkpt lat="43.40824" lon="2.63432">
        <ele>516</ele>
        <time>2022-06-21T07:39:06Z</time>
      </trkpt>
      <trkpt lat="43.40824" lon="2.63432">
        <ele>515.9</ele>
        <time>2022-06-21T07:39:07Z</time>
      </trkpt>
      <trkpt lat="43.40823" lon="2.63432">
        <ele>515.7</ele>
        <time>2022-06-21T07:39:08Z</time>
      </trkpt>
      <trkpt lat="43.40821" lon="2.63431">
        <ele>515.4</ele>
        <time>2022-06-21T07:39:09Z</time>
      </trkpt>
      <trkpt lat="43.4082" lon="2.63431">
        <ele>515.2</ele>
        <time>2022-06-21T07:39:10Z</time>
      </trkpt>
      <trkpt lat="43.40818" lon="2.63431">
        <ele>515</ele>
        <time>2022-06-21T07:39:11Z</time>
      </trkpt>
      <trkpt lat="43.40817" lon="2.63431">
        <ele>514.8</ele>
        <time>2022-06-21T07:39:12Z</time>
      </trkpt>
      <trkpt lat="43.40815" lon="2.6343">
        <ele>514.5</ele>
        <time>2022-06-21T07:39:13Z</time>
      </trkpt>
      <trkpt lat="43.40814" lon="2.63429">
        <ele>514.2</ele>
        <time>2022-06-21T07:39:14Z</time>
      </trkpt>
      <trkpt lat="43.40812" lon="2.63429">
        <ele>514</ele>
        <time>2022-06-21T07:39:15Z</time>
      </trkpt>
      <trkpt lat="43.40811" lon="2.63428">
        <ele>513.7</ele>
        <time>2022-06-21T07:39:16Z</time>
      </trkpt>
      <trkpt lat="43.40809" lon="2.63427">
        <ele>513.5</ele>
        <time>2022-06-21T07:39:17Z</time>
      </trkpt>
      <trkpt lat="43.40808" lon="2.63427">
        <ele>513.3</ele>
        <time>2022-06-21T07:39:18Z</time>
      </trkpt>
      <trkpt lat="43.40807" lon="2.63427">
        <ele>513.1</ele>
        <time>2022-06-21T07:39:19Z</time>
      </trkpt>
      <trkpt lat="43.40806" lon="2.63426">
        <ele>513</ele>
        <time>2022-06-21T07:39:20Z</time>
      </trkpt>
      <trkpt lat="43.40805" lon="2.63426">
        <ele>512.8</ele>
        <time>2022-06-21T07:39:21Z</time>
      </trkpt>
      <trkpt lat="43.40804" lon="2.63426">
        <ele>512.7</ele>
        <time>2022-06-21T07:39:22Z</time>
      </trkpt>
      <trkpt lat="43.40803" lon="2.63425">
        <ele>512.5</ele>
        <time>2022-06-21T07:39:23Z</time>
      </trkpt>
      <trkpt lat="43.40801" lon="2.63425">
        <ele>512.2</ele>
        <time>2022-06-21T07:39:24Z</time>
      </trkpt>
      <trkpt lat="43.40801" lon="2.63424">
        <ele>512.1</ele>
        <time>2022-06-21T07:39:25Z</time>
      </trkpt>
      <trkpt lat="43.408" lon="2.63424">
        <ele>512</ele>
        <time>2022-06-21T07:39:26Z</time>
      </trkpt>
      <trkpt lat="43.40798" lon="2.63423">
        <ele>511.7</ele>
        <time>2022-06-21T07:39:27Z</time>
      </trkpt>
      <trkpt lat="43.40797" lon="2.63421">
        <ele>511.5</ele>
        <time>2022-06-21T07:39:28Z</time>
      </trkpt>
      <trkpt lat="43.40797" lon="2.63421">
        <ele>511.4</ele>
        <time>2022-06-21T07:39:29Z</time>
      </trkpt>
      <trkpt lat="43.40796" lon="2.63421">
        <ele>511.3</ele>
        <time>2022-06-21T07:39:30Z</time>
      </trkpt>
      <trkpt lat="43.40795" lon="2.6342">
        <ele>511.2</ele>
        <time>2022-06-21T07:39:31Z</time>
      </trkpt>
      <trkpt lat="43.40795" lon="2.6342">
        <ele>511.2</ele>
        <time>2022-06-21T07:39:32Z</time>
      </trkpt>
      <trkpt lat="43.40793" lon="2.63419">
        <ele>510.9</ele>
        <time>2022-06-21T07:39:34Z</time>
      </trkpt>
      <trkpt lat="43.40792" lon="2.63419">
        <ele>510.8</ele>
        <time>2022-06-21T07:39:35Z</time>
      </trkpt>
      <trkpt lat="43.40791" lon="2.63419">
        <ele>510.6</ele>
        <time>2022-06-21T07:39:36Z</time>
      </trkpt>
      <trkpt lat="43.40791" lon="2.63418">
        <ele>510.5</ele>
        <time>2022-06-21T07:39:37Z</time>
      </trkpt>
      <trkpt lat="43.4079" lon="2.63418">
        <ele>510.4</ele>
        <time>2022-06-21T07:39:38Z</time>
      </trkpt>
      <trkpt lat="43.40789" lon="2.63418">
        <ele>510.2</ele>
        <time>2022-06-21T07:39:39Z</time>
      </trkpt>
      <trkpt lat="43.40788" lon="2.63418">
        <ele>510.1</ele>
        <time>2022-06-21T07:39:40Z</time>
      </trkpt>
      <trkpt lat="43.40784" lon="2.63417">
        <ele>509.6</ele>
        <time>2022-06-21T07:39:42Z</time>
      </trkpt>
      <trkpt lat="43.40783" lon="2.63417">
        <ele>509.4</ele>
        <time>2022-06-21T07:39:43Z</time>
      </trkpt>
      <trkpt lat="43.40782" lon="2.63417">
        <ele>509.3</ele>
        <time>2022-06-21T07:39:44Z</time>
      </trkpt>
      <trkpt lat="43.40782" lon="2.63416">
        <ele>509.3</ele>
        <time>2022-06-21T07:39:45Z</time>
      </trkpt>
      <trkpt lat="43.40781" lon="2.63416">
        <ele>509.1</ele>
        <time>2022-06-21T07:39:46Z</time>
      </trkpt>
      <trkpt lat="43.40779" lon="2.63416">
        <ele>508.9</ele>
        <time>2022-06-21T07:39:47Z</time>
      </trkpt>
      <trkpt lat="43.40779" lon="2.63416">
        <ele>508.8</ele>
        <time>2022-06-21T07:39:48Z</time>
      </trkpt>
      <trkpt lat="43.40778" lon="2.63416">
        <ele>508.8</ele>
        <time>2022-06-21T07:39:49Z</time>
      </trkpt>
      <trkpt lat="43.40778" lon="2.63416">
        <ele>508.7</ele>
        <time>2022-06-21T07:39:50Z</time>
      </trkpt>
      <trkpt lat="43.40777" lon="2.63416">
        <ele>508.6</ele>
        <time>2022-06-21T07:39:51Z</time>
      </trkpt>
      <trkpt lat="43.40777" lon="2.63416">
        <ele>508.6</ele>
        <time>2022-06-21T07:39:52Z</time>
      </trkpt>
      <trkpt lat="43.40774" lon="2.63416">
        <ele>508.2</ele>
        <time>2022-06-21T07:39:53Z</time>
      </trkpt>
      <trkpt lat="43.40773" lon="2.63416">
        <ele>508</ele>
        <time>2022-06-21T07:39:54Z</time>
      </trkpt>
      <trkpt lat="43.40772" lon="2.63416">
        <ele>507.8</ele>
        <time>2022-06-21T07:39:55Z</time>
      </trkpt>
      <trkpt lat="43.40771" lon="2.63416">
        <ele>507.7</ele>
        <time>2022-06-21T07:39:56Z</time>
      </trkpt>
      <trkpt lat="43.4077" lon="2.63416">
        <ele>507.5</ele>
        <time>2022-06-21T07:39:57Z</time>
      </trkpt>
      <trkpt lat="43.40769" lon="2.63415">
        <ele>507.4</ele>
        <time>2022-06-21T07:39:58Z</time>
      </trkpt>
      <trkpt lat="43.40768" lon="2.63415">
        <ele>507.3</ele>
        <time>2022-06-21T07:39:59Z</time>
      </trkpt>
      <trkpt lat="43.40768" lon="2.63415">
        <ele>507.3</ele>
        <time>2022-06-21T07:40:00Z</time>
      </trkpt>
      <trkpt lat="43.40768" lon="2.63415">
        <ele>507.2</ele>
        <time>2022-06-21T07:40:01Z</time>
      </trkpt>
      <trkpt lat="43.40766" lon="2.63415">
        <ele>507</ele>
        <time>2022-06-21T07:40:03Z</time>
      </trkpt>
      <trkpt lat="43.40765" lon="2.63415">
        <ele>506.8</ele>
        <time>2022-06-21T07:40:04Z</time>
      </trkpt>
      <trkpt lat="43.40763" lon="2.63415">
        <ele>506.5</ele>
        <time>2022-06-21T07:40:05Z</time>
      </trkpt>
      <trkpt lat="43.40762" lon="2.63415">
        <ele>506.3</ele>
        <time>2022-06-21T07:40:06Z</time>
      </trkpt>
      <trkpt lat="43.4076" lon="2.63415">
        <ele>506</ele>
        <time>2022-06-21T07:40:07Z</time>
      </trkpt>
      <trkpt lat="43.40759" lon="2.63415">
        <ele>505.8</ele>
        <time>2022-06-21T07:40:08Z</time>
      </trkpt>
      <trkpt lat="43.40757" lon="2.63415">
        <ele>505.5</ele>
        <time>2022-06-21T07:40:09Z</time>
      </trkpt>
      <trkpt lat="43.40755" lon="2.63415">
        <ele>505.3</ele>
        <time>2022-06-21T07:40:10Z</time>
      </trkpt>
      <trkpt lat="43.40753" lon="2.63415">
        <ele>504.9</ele>
        <time>2022-06-21T07:40:12Z</time>
      </trkpt>
      <trkpt lat="43.40752" lon="2.63415">
        <ele>504.8</ele>
        <time>2022-06-21T07:40:13Z</time>
      </trkpt>
      <trkpt lat="43.40752" lon="2.63415">
        <ele>504.7</ele>
        <time>2022-06-21T07:40:14Z</time>
      </trkpt>
      <trkpt lat="43.40752" lon="2.63415">
        <ele>504.7</ele>
        <time>2022-06-21T07:40:15Z</time>
      </trkpt>
      <trkpt lat="43.40751" lon="2.63414">
        <ele>504.5</ele>
        <time>2022-06-21T07:40:16Z</time>
      </trkpt>
      <trkpt lat="43.4075" lon="2.63414">
        <ele>504.4</ele>
        <time>2022-06-21T07:40:17Z</time>
      </trkpt>
      <trkpt lat="43.40749" lon="2.63414">
        <ele>504.2</ele>
        <time>2022-06-21T07:40:18Z</time>
      </trkpt>
      <trkpt lat="43.40748" lon="2.63413">
        <ele>504.1</ele>
        <time>2022-06-21T07:40:19Z</time>
      </trkpt>
      <trkpt lat="43.40748" lon="2.63413">
        <ele>504</ele>
        <time>2022-06-21T07:40:20Z</time>
      </trkpt>
      <trkpt lat="43.40747" lon="2.63413">
        <ele>503.8</ele>
        <time>2022-06-21T07:40:21Z</time>
      </trkpt>
      <trkpt lat="43.40746" lon="2.63413">
        <ele>503.7</ele>
        <time>2022-06-21T07:40:22Z</time>
      </trkpt>
      <trkpt lat="43.40745" lon="2.63412">
        <ele>503.5</ele>
        <time>2022-06-21T07:40:23Z</time>
      </trkpt>
      <trkpt lat="43.40744" lon="2.63412">
        <ele>503.2</ele>
        <time>2022-06-21T07:40:24Z</time>
      </trkpt>
      <trkpt lat="43.40742" lon="2.63411">
        <ele>503</ele>
        <time>2022-06-21T07:40:25Z</time>
      </trkpt>
      <trkpt lat="43.40741" lon="2.63411">
        <ele>502.7</ele>
        <time>2022-06-21T07:40:26Z</time>
      </trkpt>
      <trkpt lat="43.40739" lon="2.6341">
        <ele>502.4</ele>
        <time>2022-06-21T07:40:27Z</time>
      </trkpt>
      <trkpt lat="43.40737" lon="2.6341">
        <ele>502.1</ele>
        <time>2022-06-21T07:40:28Z</time>
      </trkpt>
      <trkpt lat="43.40736" lon="2.63409">
        <ele>501.9</ele>
        <time>2022-06-21T07:40:29Z</time>
      </trkpt>
      <trkpt lat="43.40735" lon="2.63409">
        <ele>501.8</ele>
        <time>2022-06-21T07:40:30Z</time>
      </trkpt>
      <trkpt lat="43.40735" lon="2.63409">
        <ele>501.7</ele>
        <time>2022-06-21T07:40:31Z</time>
      </trkpt>
      <trkpt lat="43.40734" lon="2.63409">
        <ele>501.6</ele>
        <time>2022-06-21T07:40:33Z</time>
      </trkpt>
      <trkpt lat="43.40733" lon="2.63409">
        <ele>501.4</ele>
        <time>2022-06-21T07:40:34Z</time>
      </trkpt>
      <trkpt lat="43.40732" lon="2.63409">
        <ele>501.3</ele>
        <time>2022-06-21T07:40:36Z</time>
      </trkpt>
      <trkpt lat="43.4073" lon="2.63409">
        <ele>500.9</ele>
        <time>2022-06-21T07:40:37Z</time>
      </trkpt>
      <trkpt lat="43.40729" lon="2.63408">
        <ele>500.7</ele>
        <time>2022-06-21T07:40:38Z</time>
      </trkpt>
      <trkpt lat="43.40726" lon="2.63408">
        <ele>500.2</ele>
        <time>2022-06-21T07:40:39Z</time>
      </trkpt>
      <trkpt lat="43.40725" lon="2.63408">
        <ele>500.2</ele>
        <time>2022-06-21T07:40:40Z</time>
      </trkpt>
      <trkpt lat="43.40724" lon="2.63408">
        <ele>500</ele>
        <time>2022-06-21T07:40:41Z</time>
      </trkpt>
      <trkpt lat="43.40723" lon="2.63407">
        <ele>499.8</ele>
        <time>2022-06-21T07:40:42Z</time>
      </trkpt>
      <trkpt lat="43.40722" lon="2.63407">
        <ele>499.7</ele>
        <time>2022-06-21T07:40:43Z</time>
      </trkpt>
      <trkpt lat="43.4072" lon="2.63405">
        <ele>499.3</ele>
        <time>2022-06-21T07:40:45Z</time>
      </trkpt>
      <trkpt lat="43.40719" lon="2.63405">
        <ele>499.2</ele>
        <time>2022-06-21T07:40:46Z</time>
      </trkpt>
      <trkpt lat="43.40717" lon="2.63404">
        <ele>499</ele>
        <time>2022-06-21T07:40:47Z</time>
      </trkpt>
      <trkpt lat="43.40717" lon="2.63403">
        <ele>498.9</ele>
        <time>2022-06-21T07:40:48Z</time>
      </trkpt>
      <trkpt lat="43.40716" lon="2.63403">
        <ele>498.7</ele>
        <time>2022-06-21T07:40:50Z</time>
      </trkpt>
      <trkpt lat="43.40715" lon="2.63402">
        <ele>498.6</ele>
        <time>2022-06-21T07:40:51Z</time>
      </trkpt>
      <trkpt lat="43.40714" lon="2.63402">
        <ele>498.5</ele>
        <time>2022-06-21T07:40:52Z</time>
      </trkpt>
      <trkpt lat="43.40713" lon="2.63401">
        <ele>498.3</ele>
        <time>2022-06-21T07:40:53Z</time>
      </trkpt>
      <trkpt lat="43.4071" lon="2.634">
        <ele>497.9</ele>
        <time>2022-06-21T07:40:54Z</time>
      </trkpt>
      <trkpt lat="43.40709" lon="2.634">
        <ele>497.8</ele>
        <time>2022-06-21T07:40:55Z</time>
      </trkpt>
      <trkpt lat="43.40708" lon="2.63399">
        <ele>497.6</ele>
        <time>2022-06-21T07:40:56Z</time>
      </trkpt>
      <trkpt lat="43.40707" lon="2.63399">
        <ele>497.5</ele>
        <time>2022-06-21T07:40:57Z</time>
      </trkpt>
      <trkpt lat="43.40706" lon="2.63399">
        <ele>497.4</ele>
        <time>2022-06-21T07:40:58Z</time>
      </trkpt>
      <trkpt lat="43.40705" lon="2.63399">
        <ele>497.3</ele>
        <time>2022-06-21T07:40:59Z</time>
      </trkpt>
      <trkpt lat="43.40701" lon="2.63397">
        <ele>496.8</ele>
        <time>2022-06-21T07:41:01Z</time>
      </trkpt>
      <trkpt lat="43.407" lon="2.63397">
        <ele>496.7</ele>
        <time>2022-06-21T07:41:02Z</time>
      </trkpt>
      <trkpt lat="43.40699" lon="2.63397">
        <ele>496.6</ele>
        <time>2022-06-21T07:41:03Z</time>
      </trkpt>
      <trkpt lat="43.40698" lon="2.63397">
        <ele>496.4</ele>
        <time>2022-06-21T07:41:04Z</time>
      </trkpt>
      <trkpt lat="43.40697" lon="2.63397">
        <ele>496.3</ele>
        <time>2022-06-21T07:41:05Z</time>
      </trkpt>
      <trkpt lat="43.40694" lon="2.63397">
        <ele>496</ele>
        <time>2022-06-21T07:41:06Z</time>
      </trkpt>
      <trkpt lat="43.40693" lon="2.63397">
        <ele>495.9</ele>
        <time>2022-06-21T07:41:07Z</time>
      </trkpt>
      <trkpt lat="43.40692" lon="2.63396">
        <ele>495.8</ele>
        <time>2022-06-21T07:41:08Z</time>
      </trkpt>
      <trkpt lat="43.40691" lon="2.63395">
        <ele>495.6</ele>
        <time>2022-06-21T07:41:10Z</time>
      </trkpt>
      <trkpt lat="43.4069" lon="2.63394">
        <ele>495.5</ele>
        <time>2022-06-21T07:41:11Z</time>
      </trkpt>
      <trkpt lat="43.40689" lon="2.63394">
        <ele>495.3</ele>
        <time>2022-06-21T07:41:12Z</time>
      </trkpt>
      <trkpt lat="43.40687" lon="2.63393">
        <ele>495.2</ele>
        <time>2022-06-21T07:41:13Z</time>
      </trkpt>
      <trkpt lat="43.40686" lon="2.63392">
        <ele>495</ele>
        <time>2022-06-21T07:41:14Z</time>
      </trkpt>
      <trkpt lat="43.40683" lon="2.6339">
        <ele>494.7</ele>
        <time>2022-06-21T07:41:15Z</time>
      </trkpt>
      <trkpt lat="43.40682" lon="2.6339">
        <ele>494.5</ele>
        <time>2022-06-21T07:41:16Z</time>
      </trkpt>
      <trkpt lat="43.40681" lon="2.63389">
        <ele>494.3</ele>
        <time>2022-06-21T07:41:17Z</time>
      </trkpt>
      <trkpt lat="43.4068" lon="2.63389">
        <ele>494.2</ele>
        <time>2022-06-21T07:41:18Z</time>
      </trkpt>
      <trkpt lat="43.40679" lon="2.63388">
        <ele>494.1</ele>
        <time>2022-06-21T07:41:19Z</time>
      </trkpt>
      <trkpt lat="43.40677" lon="2.63388">
        <ele>493.8</ele>
        <time>2022-06-21T07:41:20Z</time>
      </trkpt>
      <trkpt lat="43.40676" lon="2.63387">
        <ele>493.7</ele>
        <time>2022-06-21T07:41:21Z</time>
      </trkpt>
      <trkpt lat="43.40675" lon="2.63387">
        <ele>493.6</ele>
        <time>2022-06-21T07:41:22Z</time>
      </trkpt>
      <trkpt lat="43.40673" lon="2.63386">
        <ele>493.3</ele>
        <time>2022-06-21T07:41:23Z</time>
      </trkpt>
      <trkpt lat="43.40672" lon="2.63385">
        <ele>493.2</ele>
        <time>2022-06-21T07:41:24Z</time>
      </trkpt>
      <trkpt lat="43.40672" lon="2.63384">
        <ele>493.1</ele>
        <time>2022-06-21T07:41:25Z</time>
      </trkpt>
      <trkpt lat="43.4067" lon="2.63383">
        <ele>492.9</ele>
        <time>2022-06-21T07:41:26Z</time>
      </trkpt>
      <trkpt lat="43.40669" lon="2.63382">
        <ele>492.8</ele>
        <time>2022-06-21T07:41:27Z</time>
      </trkpt>
      <trkpt lat="43.40668" lon="2.63381">
        <ele>492.6</ele>
        <time>2022-06-21T07:41:28Z</time>
      </trkpt>
      <trkpt lat="43.40667" lon="2.6338">
        <ele>492.4</ele>
        <time>2022-06-21T07:41:29Z</time>
      </trkpt>
      <trkpt lat="43.40665" lon="2.63379">
        <ele>492.2</ele>
        <time>2022-06-21T07:41:30Z</time>
      </trkpt>
      <trkpt lat="43.40664" lon="2.63378">
        <ele>492</ele>
        <time>2022-06-21T07:41:31Z</time>
      </trkpt>
      <trkpt lat="43.40662" lon="2.63378">
        <ele>491.8</ele>
        <time>2022-06-21T07:41:32Z</time>
      </trkpt>
      <trkpt lat="43.4066" lon="2.63377">
        <ele>491.6</ele>
        <time>2022-06-21T07:41:33Z</time>
      </trkpt>
      <trkpt lat="43.40659" lon="2.63377">
        <ele>491.4</ele>
        <time>2022-06-21T07:41:34Z</time>
      </trkpt>
      <trkpt lat="43.40657" lon="2.63376">
        <ele>491.2</ele>
        <time>2022-06-21T07:41:35Z</time>
      </trkpt>
      <trkpt lat="43.40656" lon="2.63376">
        <ele>491</ele>
        <time>2022-06-21T07:41:36Z</time>
      </trkpt>
      <trkpt lat="43.40655" lon="2.63376">
        <ele>490.9</ele>
        <time>2022-06-21T07:41:37Z</time>
      </trkpt>
      <trkpt lat="43.40654" lon="2.63376">
        <ele>490.8</ele>
        <time>2022-06-21T07:41:38Z</time>
      </trkpt>
      <trkpt lat="43.40653" lon="2.63375">
        <ele>490.7</ele>
        <time>2022-06-21T07:41:39Z</time>
      </trkpt>
      <trkpt lat="43.40652" lon="2.63375">
        <ele>490.6</ele>
        <time>2022-06-21T07:41:40Z</time>
      </trkpt>
      <trkpt lat="43.40651" lon="2.63375">
        <ele>490.4</ele>
        <time>2022-06-21T07:41:41Z</time>
      </trkpt>
      <trkpt lat="43.4065" lon="2.63374">
        <ele>490.3</ele>
        <time>2022-06-21T07:41:42Z</time>
      </trkpt>
      <trkpt lat="43.40649" lon="2.63374">
        <ele>490.2</ele>
        <time>2022-06-21T07:41:43Z</time>
      </trkpt>
      <trkpt lat="43.40648" lon="2.63373">
        <ele>490</ele>
        <time>2022-06-21T07:41:44Z</time>
      </trkpt>
      <trkpt lat="43.40647" lon="2.63372">
        <ele>489.9</ele>
        <time>2022-06-21T07:41:45Z</time>
      </trkpt>
      <trkpt lat="43.40646" lon="2.63371">
        <ele>489.7</ele>
        <time>2022-06-21T07:41:46Z</time>
      </trkpt>
      <trkpt lat="43.40645" lon="2.63371">
        <ele>489.6</ele>
        <time>2022-06-21T07:41:47Z</time>
      </trkpt>
      <trkpt lat="43.40644" lon="2.6337">
        <ele>489.5</ele>
        <time>2022-06-21T07:41:48Z</time>
      </trkpt>
      <trkpt lat="43.40643" lon="2.63369">
        <ele>489.4</ele>
        <time>2022-06-21T07:41:49Z</time>
      </trkpt>
      <trkpt lat="43.40642" lon="2.63369">
        <ele>489.2</ele>
        <time>2022-06-21T07:41:50Z</time>
      </trkpt>
      <trkpt lat="43.40642" lon="2.63368">
        <ele>489.2</ele>
        <time>2022-06-21T07:41:51Z</time>
      </trkpt>
      <trkpt lat="43.40641" lon="2.63368">
        <ele>489.1</ele>
        <time>2022-06-21T07:41:52Z</time>
      </trkpt>
      <trkpt lat="43.4064" lon="2.63368">
        <ele>489</ele>
        <time>2022-06-21T07:41:53Z</time>
      </trkpt>
      <trkpt lat="43.40639" lon="2.63367">
        <ele>488.9</ele>
        <time>2022-06-21T07:41:54Z</time>
      </trkpt>
      <trkpt lat="43.40637" lon="2.63367">
        <ele>488.6</ele>
        <time>2022-06-21T07:41:55Z</time>
      </trkpt>
      <trkpt lat="43.40636" lon="2.63366">
        <ele>488.5</ele>
        <time>2022-06-21T07:41:56Z</time>
      </trkpt>
      <trkpt lat="43.40635" lon="2.63366">
        <ele>488.4</ele>
        <time>2022-06-21T07:41:57Z</time>
      </trkpt>
      <trkpt lat="43.40633" lon="2.63365">
        <ele>488.1</ele>
        <time>2022-06-21T07:41:58Z</time>
      </trkpt>
      <trkpt lat="43.40633" lon="2.63365">
        <ele>488</ele>
        <time>2022-06-21T07:41:59Z</time>
      </trkpt>
      <trkpt lat="43.40632" lon="2.63364">
        <ele>487.9</ele>
        <time>2022-06-21T07:42:00Z</time>
      </trkpt>
      <trkpt lat="43.4063" lon="2.63364">
        <ele>487.8</ele>
        <time>2022-06-21T07:42:01Z</time>
      </trkpt>
      <trkpt lat="43.40629" lon="2.63363">
        <ele>487.6</ele>
        <time>2022-06-21T07:42:02Z</time>
      </trkpt>
      <trkpt lat="43.40627" lon="2.63363">
        <ele>487.3</ele>
        <time>2022-06-21T07:42:03Z</time>
      </trkpt>
      <trkpt lat="43.40626" lon="2.63363">
        <ele>487.2</ele>
        <time>2022-06-21T07:42:04Z</time>
      </trkpt>
      <trkpt lat="43.40625" lon="2.63363">
        <ele>487.1</ele>
        <time>2022-06-21T07:42:05Z</time>
      </trkpt>
      <trkpt lat="43.40624" lon="2.63363">
        <ele>487</ele>
        <time>2022-06-21T07:42:06Z</time>
      </trkpt>
      <trkpt lat="43.40623" lon="2.63363">
        <ele>486.9</ele>
        <time>2022-06-21T07:42:07Z</time>
      </trkpt>
      <trkpt lat="43.40622" lon="2.63362">
        <ele>486.7</ele>
        <time>2022-06-21T07:42:08Z</time>
      </trkpt>
      <trkpt lat="43.4062" lon="2.63362">
        <ele>486.4</ele>
        <time>2022-06-21T07:42:09Z</time>
      </trkpt>
      <trkpt lat="43.40619" lon="2.63362">
        <ele>486.4</ele>
        <time>2022-06-21T07:42:10Z</time>
      </trkpt>
      <trkpt lat="43.40618" lon="2.63361">
        <ele>486.2</ele>
        <time>2022-06-21T07:42:11Z</time>
      </trkpt>
      <trkpt lat="43.40617" lon="2.63361">
        <ele>486.1</ele>
        <time>2022-06-21T07:42:12Z</time>
      </trkpt>
      <trkpt lat="43.40616" lon="2.6336">
        <ele>486</ele>
        <time>2022-06-21T07:42:13Z</time>
      </trkpt>
      <trkpt lat="43.40615" lon="2.6336">
        <ele>485.8</ele>
        <time>2022-06-21T07:42:14Z</time>
      </trkpt>
      <trkpt lat="43.40614" lon="2.63359">
        <ele>485.7</ele>
        <time>2022-06-21T07:42:15Z</time>
      </trkpt>
      <trkpt lat="43.40614" lon="2.63359">
        <ele>485.5</ele>
        <time>2022-06-21T07:42:16Z</time>
      </trkpt>
      <trkpt lat="43.40613" lon="2.63358">
        <ele>485.4</ele>
        <time>2022-06-21T07:42:17Z</time>
      </trkpt>
      <trkpt lat="43.40612" lon="2.63357">
        <ele>485.3</ele>
        <time>2022-06-21T07:42:18Z</time>
      </trkpt>
      <trkpt lat="43.40611" lon="2.63356">
        <ele>485.1</ele>
        <time>2022-06-21T07:42:19Z</time>
      </trkpt>
      <trkpt lat="43.4061" lon="2.63356">
        <ele>485</ele>
        <time>2022-06-21T07:42:20Z</time>
      </trkpt>
      <trkpt lat="43.40609" lon="2.63355">
        <ele>484.8</ele>
        <time>2022-06-21T07:42:21Z</time>
      </trkpt>
      <trkpt lat="43.40608" lon="2.63354">
        <ele>484.7</ele>
        <time>2022-06-21T07:42:22Z</time>
      </trkpt>
      <trkpt lat="43.40607" lon="2.63354">
        <ele>484.5</ele>
        <time>2022-06-21T07:42:23Z</time>
      </trkpt>
      <trkpt lat="43.40606" lon="2.63353">
        <ele>484.4</ele>
        <time>2022-06-21T07:42:24Z</time>
      </trkpt>
      <trkpt lat="43.40605" lon="2.63353">
        <ele>484.2</ele>
        <time>2022-06-21T07:42:25Z</time>
      </trkpt>
      <trkpt lat="43.40604" lon="2.63352">
        <ele>484</ele>
        <time>2022-06-21T07:42:26Z</time>
      </trkpt>
      <trkpt lat="43.40604" lon="2.63352">
        <ele>483.9</ele>
        <time>2022-06-21T07:42:27Z</time>
      </trkpt>
      <trkpt lat="43.40603" lon="2.63351">
        <ele>483.8</ele>
        <time>2022-06-21T07:42:28Z</time>
      </trkpt>
      <trkpt lat="43.40602" lon="2.6335">
        <ele>483.6</ele>
        <time>2022-06-21T07:42:29Z</time>
      </trkpt>
      <trkpt lat="43.40601" lon="2.6335">
        <ele>483.5</ele>
        <time>2022-06-21T07:42:30Z</time>
      </trkpt>
      <trkpt lat="43.406" lon="2.63349">
        <ele>483.2</ele>
        <time>2022-06-21T07:42:32Z</time>
      </trkpt>
      <trkpt lat="43.40599" lon="2.63348">
        <ele>483</ele>
        <time>2022-06-21T07:42:33Z</time>
      </trkpt>
      <trkpt lat="43.40598" lon="2.63348">
        <ele>482.9</ele>
        <time>2022-06-21T07:42:34Z</time>
      </trkpt>
      <trkpt lat="43.40597" lon="2.63347">
        <ele>482.7</ele>
        <time>2022-06-21T07:42:35Z</time>
      </trkpt>
      <trkpt lat="43.40595" lon="2.63347">
        <ele>482.5</ele>
        <time>2022-06-21T07:42:36Z</time>
      </trkpt>
      <trkpt lat="43.40594" lon="2.63346">
        <ele>482.2</ele>
        <time>2022-06-21T07:42:37Z</time>
      </trkpt>
      <trkpt lat="43.40593" lon="2.63346">
        <ele>482</ele>
        <time>2022-06-21T07:42:38Z</time>
      </trkpt>
      <trkpt lat="43.40592" lon="2.63345">
        <ele>481.9</ele>
        <time>2022-06-21T07:42:39Z</time>
      </trkpt>
      <trkpt lat="43.40591" lon="2.63344">
        <ele>481.7</ele>
        <time>2022-06-21T07:42:40Z</time>
      </trkpt>
      <trkpt lat="43.4059" lon="2.63344">
        <ele>481.6</ele>
        <time>2022-06-21T07:42:41Z</time>
      </trkpt>
      <trkpt lat="43.40589" lon="2.63344">
        <ele>481.4</ele>
        <time>2022-06-21T07:42:42Z</time>
      </trkpt>
      <trkpt lat="43.40588" lon="2.63343">
        <ele>481.3</ele>
        <time>2022-06-21T07:42:43Z</time>
      </trkpt>
      <trkpt lat="43.40587" lon="2.63343">
        <ele>481.1</ele>
        <time>2022-06-21T07:42:44Z</time>
      </trkpt>
      <trkpt lat="43.40587" lon="2.63342">
        <ele>481.1</ele>
        <time>2022-06-21T07:42:45Z</time>
      </trkpt>
      <trkpt lat="43.40586" lon="2.63342">
        <ele>481</ele>
        <time>2022-06-21T07:42:46Z</time>
      </trkpt>
      <trkpt lat="43.40585" lon="2.63342">
        <ele>480.8</ele>
        <time>2022-06-21T07:42:47Z</time>
      </trkpt>
      <trkpt lat="43.40584" lon="2.63341">
        <ele>480.7</ele>
        <time>2022-06-21T07:42:48Z</time>
      </trkpt>
      <trkpt lat="43.40583" lon="2.63341">
        <ele>480.5</ele>
        <time>2022-06-21T07:42:49Z</time>
      </trkpt>
      <trkpt lat="43.40582" lon="2.6334">
        <ele>480.4</ele>
        <time>2022-06-21T07:42:50Z</time>
      </trkpt>
      <trkpt lat="43.40581" lon="2.6334">
        <ele>480.2</ele>
        <time>2022-06-21T07:42:51Z</time>
      </trkpt>
      <trkpt lat="43.4058" lon="2.6334">
        <ele>480</ele>
        <time>2022-06-21T07:42:52Z</time>
      </trkpt>
      <trkpt lat="43.40578" lon="2.63338">
        <ele>479.8</ele>
        <time>2022-06-21T07:42:53Z</time>
      </trkpt>
      <trkpt lat="43.40577" lon="2.63338">
        <ele>479.7</ele>
        <time>2022-06-21T07:42:54Z</time>
      </trkpt>
      <trkpt lat="43.40577" lon="2.63337">
        <ele>479.5</ele>
        <time>2022-06-21T07:42:55Z</time>
      </trkpt>
      <trkpt lat="43.40575" lon="2.63336">
        <ele>479.3</ele>
        <time>2022-06-21T07:42:56Z</time>
      </trkpt>
      <trkpt lat="43.40574" lon="2.63335">
        <ele>479.1</ele>
        <time>2022-06-21T07:42:57Z</time>
      </trkpt>
      <trkpt lat="43.40573" lon="2.63335">
        <ele>478.9</ele>
        <time>2022-06-21T07:42:58Z</time>
      </trkpt>
      <trkpt lat="43.40571" lon="2.63333">
        <ele>478.6</ele>
        <time>2022-06-21T07:42:59Z</time>
      </trkpt>
      <trkpt lat="43.4057" lon="2.63332">
        <ele>478.4</ele>
        <time>2022-06-21T07:43:00Z</time>
      </trkpt>
      <trkpt lat="43.40569" lon="2.63332">
        <ele>478.3</ele>
        <time>2022-06-21T07:43:02Z</time>
      </trkpt>
      <trkpt lat="43.40569" lon="2.63331">
        <ele>478.2</ele>
        <time>2022-06-21T07:43:03Z</time>
      </trkpt>
      <trkpt lat="43.40568" lon="2.63331">
        <ele>478</ele>
        <time>2022-06-21T07:43:04Z</time>
      </trkpt>
      <trkpt lat="43.40568" lon="2.63329">
        <ele>477.8</ele>
        <time>2022-06-21T07:43:05Z</time>
      </trkpt>
      <trkpt lat="43.40567" lon="2.63328">
        <ele>477.6</ele>
        <time>2022-06-21T07:43:06Z</time>
      </trkpt>
      <trkpt lat="43.40566" lon="2.63327">
        <ele>477.4</ele>
        <time>2022-06-21T07:43:07Z</time>
      </trkpt>
      <trkpt lat="43.40566" lon="2.63326">
        <ele>477.3</ele>
        <time>2022-06-21T07:43:08Z</time>
      </trkpt>
      <trkpt lat="43.40565" lon="2.63326">
        <ele>477.2</ele>
        <time>2022-06-21T07:43:09Z</time>
      </trkpt>
      <trkpt lat="43.40563" lon="2.63325">
        <ele>476.9</ele>
        <time>2022-06-21T07:43:10Z</time>
      </trkpt>
      <trkpt lat="43.40562" lon="2.63324">
        <ele>476.7</ele>
        <time>2022-06-21T07:43:11Z</time>
      </trkpt>
      <trkpt lat="43.40562" lon="2.63323">
        <ele>476.5</ele>
        <time>2022-06-21T07:43:12Z</time>
      </trkpt>
      <trkpt lat="43.40561" lon="2.63322">
        <ele>476.4</ele>
        <time>2022-06-21T07:43:13Z</time>
      </trkpt>
      <trkpt lat="43.4056" lon="2.63321">
        <ele>476.2</ele>
        <time>2022-06-21T07:43:14Z</time>
      </trkpt>
      <trkpt lat="43.40559" lon="2.6332">
        <ele>476</ele>
        <time>2022-06-21T07:43:15Z</time>
      </trkpt>
      <trkpt lat="43.40558" lon="2.63319">
        <ele>475.8</ele>
        <time>2022-06-21T07:43:16Z</time>
      </trkpt>
      <trkpt lat="43.40556" lon="2.63318">
        <ele>475.5</ele>
        <time>2022-06-21T07:43:17Z</time>
      </trkpt>
      <trkpt lat="43.40556" lon="2.63317">
        <ele>475.3</ele>
        <time>2022-06-21T07:43:18Z</time>
      </trkpt>
      <trkpt lat="43.40555" lon="2.63316">
        <ele>475.2</ele>
        <time>2022-06-21T07:43:19Z</time>
      </trkpt>
      <trkpt lat="43.40553" lon="2.63315">
        <ele>474.9</ele>
        <time>2022-06-21T07:43:20Z</time>
      </trkpt>
      <trkpt lat="43.40553" lon="2.63314">
        <ele>474.8</ele>
        <time>2022-06-21T07:43:21Z</time>
      </trkpt>
      <trkpt lat="43.40552" lon="2.63313">
        <ele>474.7</ele>
        <time>2022-06-21T07:43:22Z</time>
      </trkpt>
      <trkpt lat="43.40552" lon="2.63312">
        <ele>474.5</ele>
        <time>2022-06-21T07:43:23Z</time>
      </trkpt>
      <trkpt lat="43.40551" lon="2.63311">
        <ele>474.4</ele>
        <time>2022-06-21T07:43:24Z</time>
      </trkpt>
      <trkpt lat="43.4055" lon="2.6331">
        <ele>474.2</ele>
        <time>2022-06-21T07:43:25Z</time>
      </trkpt>
      <trkpt lat="43.40549" lon="2.63309">
        <ele>474</ele>
        <time>2022-06-21T07:43:26Z</time>
      </trkpt>
      <trkpt lat="43.40548" lon="2.63309">
        <ele>473.9</ele>
        <time>2022-06-21T07:43:27Z</time>
      </trkpt>
      <trkpt lat="43.40548" lon="2.63308">
        <ele>473.8</ele>
        <time>2022-06-21T07:43:28Z</time>
      </trkpt>
      <trkpt lat="43.40547" lon="2.63307">
        <ele>473.7</ele>
        <time>2022-06-21T07:43:29Z</time>
      </trkpt>
      <trkpt lat="43.40547" lon="2.63307">
        <ele>473.5</ele>
        <time>2022-06-21T07:43:30Z</time>
      </trkpt>
      <trkpt lat="43.40546" lon="2.63306">
        <ele>473.4</ele>
        <time>2022-06-21T07:43:31Z</time>
      </trkpt>
      <trkpt lat="43.40543" lon="2.63303">
        <ele>472.9</ele>
        <time>2022-06-21T07:43:33Z</time>
      </trkpt>
      <trkpt lat="43.40543" lon="2.63303">
        <ele>472.8</ele>
        <time>2022-06-21T07:43:34Z</time>
      </trkpt>
      <trkpt lat="43.40542" lon="2.63302">
        <ele>472.7</ele>
        <time>2022-06-21T07:43:35Z</time>
      </trkpt>
      <trkpt lat="43.40541" lon="2.63301">
        <ele>472.5</ele>
        <time>2022-06-21T07:43:36Z</time>
      </trkpt>
      <trkpt lat="43.4054" lon="2.63301">
        <ele>472.3</ele>
        <time>2022-06-21T07:43:37Z</time>
      </trkpt>
      <trkpt lat="43.40539" lon="2.633">
        <ele>472.1</ele>
        <time>2022-06-21T07:43:38Z</time>
      </trkpt>
      <trkpt lat="43.40538" lon="2.63299">
        <ele>471.9</ele>
        <time>2022-06-21T07:43:39Z</time>
      </trkpt>
      <trkpt lat="43.40537" lon="2.63298">
        <ele>471.8</ele>
        <time>2022-06-21T07:43:40Z</time>
      </trkpt>
      <trkpt lat="43.40536" lon="2.63297">
        <ele>471.6</ele>
        <time>2022-06-21T07:43:41Z</time>
      </trkpt>
      <trkpt lat="43.40536" lon="2.63296">
        <ele>471.5</ele>
        <time>2022-06-21T07:43:42Z</time>
      </trkpt>
      <trkpt lat="43.40535" lon="2.63295">
        <ele>471.3</ele>
        <time>2022-06-21T07:43:43Z</time>
      </trkpt>
      <trkpt lat="43.40534" lon="2.63294">
        <ele>471.1</ele>
        <time>2022-06-21T07:43:44Z</time>
      </trkpt>
      <trkpt lat="43.40533" lon="2.63293">
        <ele>470.8</ele>
        <time>2022-06-21T07:43:45Z</time>
      </trkpt>
      <trkpt lat="43.40532" lon="2.63292">
        <ele>470.7</ele>
        <time>2022-06-21T07:43:47Z</time>
      </trkpt>
      <trkpt lat="43.40531" lon="2.63291">
        <ele>470.5</ele>
        <time>2022-06-21T07:43:48Z</time>
      </trkpt>
      <trkpt lat="43.4053" lon="2.6329">
        <ele>470.4</ele>
        <time>2022-06-21T07:43:49Z</time>
      </trkpt>
      <trkpt lat="43.4053" lon="2.63289">
        <ele>470.3</ele>
        <time>2022-06-21T07:43:50Z</time>
      </trkpt>
      <trkpt lat="43.4053" lon="2.63289">
        <ele>470.3</ele>
        <time>2022-06-21T07:43:51Z</time>
      </trkpt>
      <trkpt lat="43.4053" lon="2.63289">
        <ele>470.3</ele>
        <time>2022-06-21T07:43:52Z</time>
      </trkpt>
      <trkpt lat="43.4053" lon="2.63289">
        <ele>470.3</ele>
        <time>2022-06-21T07:43:53Z</time>
      </trkpt>
      <trkpt lat="43.40529" lon="2.63288">
        <ele>470.1</ele>
        <time>2022-06-21T07:43:54Z</time>
      </trkpt>
      <trkpt lat="43.40529" lon="2.63287">
        <ele>470</ele>
        <time>2022-06-21T07:43:55Z</time>
      </trkpt>
      <trkpt lat="43.40528" lon="2.63287">
        <ele>469.9</ele>
        <time>2022-06-21T07:43:56Z</time>
      </trkpt>
      <trkpt lat="43.40528" lon="2.63285">
        <ele>469.7</ele>
        <time>2022-06-21T07:43:57Z</time>
      </trkpt>
      <trkpt lat="43.40527" lon="2.63285">
        <ele>469.6</ele>
        <time>2022-06-21T07:43:58Z</time>
      </trkpt>
      <trkpt lat="43.40526" lon="2.63284">
        <ele>469.5</ele>
        <time>2022-06-21T07:43:59Z</time>
      </trkpt>
      <trkpt lat="43.40525" lon="2.63283">
        <ele>469.3</ele>
        <time>2022-06-21T07:44:00Z</time>
      </trkpt>
      <trkpt lat="43.40525" lon="2.63283">
        <ele>469.3</ele>
        <time>2022-06-21T07:44:01Z</time>
      </trkpt>
      <trkpt lat="43.40524" lon="2.63282">
        <ele>469.1</ele>
        <time>2022-06-21T07:44:02Z</time>
      </trkpt>
      <trkpt lat="43.40523" lon="2.63281">
        <ele>469</ele>
        <time>2022-06-21T07:44:03Z</time>
      </trkpt>
      <trkpt lat="43.40522" lon="2.6328">
        <ele>468.8</ele>
        <time>2022-06-21T07:44:04Z</time>
      </trkpt>
      <trkpt lat="43.40522" lon="2.63279">
        <ele>468.6</ele>
        <time>2022-06-21T07:44:05Z</time>
      </trkpt>
      <trkpt lat="43.40521" lon="2.63278">
        <ele>468.5</ele>
        <time>2022-06-21T07:44:06Z</time>
      </trkpt>
      <trkpt lat="43.4052" lon="2.63278">
        <ele>468.3</ele>
        <time>2022-06-21T07:44:07Z</time>
      </trkpt>
      <trkpt lat="43.40519" lon="2.63277">
        <ele>468.1</ele>
        <time>2022-06-21T07:44:08Z</time>
      </trkpt>
      <trkpt lat="43.40517" lon="2.63276">
        <ele>467.8</ele>
        <time>2022-06-21T07:44:09Z</time>
      </trkpt>
      <trkpt lat="43.40516" lon="2.63275">
        <ele>467.7</ele>
        <time>2022-06-21T07:44:10Z</time>
      </trkpt>
      <trkpt lat="43.40515" lon="2.63275">
        <ele>467.5</ele>
        <time>2022-06-21T07:44:11Z</time>
      </trkpt>
      <trkpt lat="43.40513" lon="2.63273">
        <ele>467.1</ele>
        <time>2022-06-21T07:44:12Z</time>
      </trkpt>
      <trkpt lat="43.40512" lon="2.63272">
        <ele>466.9</ele>
        <time>2022-06-21T07:44:13Z</time>
      </trkpt>
      <trkpt lat="43.40511" lon="2.63272">
        <ele>466.8</ele>
        <time>2022-06-21T07:44:14Z</time>
      </trkpt>
      <trkpt lat="43.40511" lon="2.63271">
        <ele>466.7</ele>
        <time>2022-06-21T07:44:15Z</time>
      </trkpt>
      <trkpt lat="43.4051" lon="2.63271">
        <ele>466.6</ele>
        <time>2022-06-21T07:44:16Z</time>
      </trkpt>
      <trkpt lat="43.40509" lon="2.6327">
        <ele>466.4</ele>
        <time>2022-06-21T07:44:17Z</time>
      </trkpt>
      <trkpt lat="43.40508" lon="2.63269">
        <ele>466.2</ele>
        <time>2022-06-21T07:44:18Z</time>
      </trkpt>
      <trkpt lat="43.40508" lon="2.63268">
        <ele>466.1</ele>
        <time>2022-06-21T07:44:19Z</time>
      </trkpt>
      <trkpt lat="43.40507" lon="2.63267">
        <ele>465.9</ele>
        <time>2022-06-21T07:44:20Z</time>
      </trkpt>
      <trkpt lat="43.40505" lon="2.63265">
        <ele>465.6</ele>
        <time>2022-06-21T07:44:21Z</time>
      </trkpt>
      <trkpt lat="43.40505" lon="2.63265">
        <ele>465.4</ele>
        <time>2022-06-21T07:44:22Z</time>
      </trkpt>
      <trkpt lat="43.40504" lon="2.63264">
        <ele>465.3</ele>
        <time>2022-06-21T07:44:23Z</time>
      </trkpt>
      <trkpt lat="43.40502" lon="2.63262">
        <ele>464.8</ele>
        <time>2022-06-21T07:44:24Z</time>
      </trkpt>
      <trkpt lat="43.40501" lon="2.63261">
        <ele>464.6</ele>
        <time>2022-06-21T07:44:25Z</time>
      </trkpt>
      <trkpt lat="43.405" lon="2.6326">
        <ele>464.4</ele>
        <time>2022-06-21T07:44:26Z</time>
      </trkpt>
      <trkpt lat="43.40499" lon="2.63259">
        <ele>464.3</ele>
        <time>2022-06-21T07:44:27Z</time>
      </trkpt>
      <trkpt lat="43.40499" lon="2.63259">
        <ele>464.1</ele>
        <time>2022-06-21T07:44:28Z</time>
      </trkpt>
      <trkpt lat="43.40498" lon="2.63258">
        <ele>464</ele>
        <time>2022-06-21T07:44:29Z</time>
      </trkpt>
      <trkpt lat="43.40497" lon="2.63258">
        <ele>463.8</ele>
        <time>2022-06-21T07:44:30Z</time>
      </trkpt>
      <trkpt lat="43.40496" lon="2.63257">
        <ele>463.6</ele>
        <time>2022-06-21T07:44:31Z</time>
      </trkpt>
      <trkpt lat="43.40495" lon="2.63256">
        <ele>463.5</ele>
        <time>2022-06-21T07:44:32Z</time>
      </trkpt>
      <trkpt lat="43.40494" lon="2.63255">
        <ele>463.2</ele>
        <time>2022-06-21T07:44:33Z</time>
      </trkpt>
      <trkpt lat="43.40493" lon="2.63253">
        <ele>462.9</ele>
        <time>2022-06-21T07:44:34Z</time>
      </trkpt>
      <trkpt lat="43.40492" lon="2.63252">
        <ele>462.7</ele>
        <time>2022-06-21T07:44:35Z</time>
      </trkpt>
      <trkpt lat="43.40491" lon="2.63251">
        <ele>462.6</ele>
        <time>2022-06-21T07:44:36Z</time>
      </trkpt>
      <trkpt lat="43.4049" lon="2.63248">
        <ele>462.1</ele>
        <time>2022-06-21T07:44:37Z</time>
      </trkpt>
      <trkpt lat="43.40489" lon="2.63247">
        <ele>461.9</ele>
        <time>2022-06-21T07:44:38Z</time>
      </trkpt>
      <trkpt lat="43.40488" lon="2.63245">
        <ele>461.7</ele>
        <time>2022-06-21T07:44:40Z</time>
      </trkpt>
      <trkpt lat="43.40488" lon="2.63244">
        <ele>461.6</ele>
        <time>2022-06-21T07:44:41Z</time>
      </trkpt>
      <trkpt lat="43.40487" lon="2.63243">
        <ele>461.4</ele>
        <time>2022-06-21T07:44:42Z</time>
      </trkpt>
      <trkpt lat="43.40487" lon="2.63242">
        <ele>461.3</ele>
        <time>2022-06-21T07:44:43Z</time>
      </trkpt>
      <trkpt lat="43.40486" lon="2.63242">
        <ele>461.1</ele>
        <time>2022-06-21T07:44:44Z</time>
      </trkpt>
      <trkpt lat="43.40486" lon="2.63241">
        <ele>461</ele>
        <time>2022-06-21T07:44:45Z</time>
      </trkpt>
      <trkpt lat="43.40485" lon="2.6324">
        <ele>460.9</ele>
        <time>2022-06-21T07:44:46Z</time>
      </trkpt>
      <trkpt lat="43.40484" lon="2.63239">
        <ele>460.7</ele>
        <time>2022-06-21T07:44:47Z</time>
      </trkpt>
      <trkpt lat="43.40484" lon="2.63238">
        <ele>460.5</ele>
        <time>2022-06-21T07:44:48Z</time>
      </trkpt>
      <trkpt lat="43.40483" lon="2.63238">
        <ele>460.5</ele>
        <time>2022-06-21T07:44:49Z</time>
      </trkpt>
      <trkpt lat="43.40483" lon="2.63237">
        <ele>460.4</ele>
        <time>2022-06-21T07:44:50Z</time>
      </trkpt>
      <trkpt lat="43.40482" lon="2.63237">
        <ele>460.3</ele>
        <time>2022-06-21T07:44:51Z</time>
      </trkpt>
      <trkpt lat="43.40481" lon="2.63235">
        <ele>460</ele>
        <time>2022-06-21T07:44:53Z</time>
      </trkpt>
      <trkpt lat="43.4048" lon="2.63234">
        <ele>459.8</ele>
        <time>2022-06-21T07:44:54Z</time>
      </trkpt>
      <trkpt lat="43.40479" lon="2.63232">
        <ele>459.5</ele>
        <time>2022-06-21T07:44:55Z</time>
      </trkpt>
      <trkpt lat="43.40478" lon="2.63231">
        <ele>459.3</ele>
        <time>2022-06-21T07:44:56Z</time>
      </trkpt>
      <trkpt lat="43.40477" lon="2.63229">
        <ele>459.1</ele>
        <time>2022-06-21T07:44:57Z</time>
      </trkpt>
      <trkpt lat="43.40476" lon="2.63229">
        <ele>459</ele>
        <time>2022-06-21T07:44:58Z</time>
      </trkpt>
      <trkpt lat="43.40475" lon="2.63228">
        <ele>458.8</ele>
        <time>2022-06-21T07:44:59Z</time>
      </trkpt>
      <trkpt lat="43.40475" lon="2.63228">
        <ele>458.7</ele>
        <time>2022-06-21T07:45:00Z</time>
      </trkpt>
      <trkpt lat="43.40474" lon="2.63228">
        <ele>458.6</ele>
        <time>2022-06-21T07:45:01Z</time>
      </trkpt>
      <trkpt lat="43.40473" lon="2.63227">
        <ele>458.4</ele>
        <time>2022-06-21T07:45:02Z</time>
      </trkpt>
      <trkpt lat="43.40472" lon="2.63227">
        <ele>458.3</ele>
        <time>2022-06-21T07:45:03Z</time>
      </trkpt>
      <trkpt lat="43.40471" lon="2.63226">
        <ele>458.2</ele>
        <time>2022-06-21T07:45:04Z</time>
      </trkpt>
      <trkpt lat="43.40471" lon="2.63226">
        <ele>458</ele>
        <time>2022-06-21T07:45:05Z</time>
      </trkpt>
      <trkpt lat="43.4047" lon="2.63225">
        <ele>457.9</ele>
        <time>2022-06-21T07:45:06Z</time>
      </trkpt>
      <trkpt lat="43.40469" lon="2.63225">
        <ele>457.7</ele>
        <time>2022-06-21T07:45:07Z</time>
      </trkpt>
      <trkpt lat="43.40468" lon="2.63224">
        <ele>457.6</ele>
        <time>2022-06-21T07:45:08Z</time>
      </trkpt>
      <trkpt lat="43.40467" lon="2.63224">
        <ele>457.5</ele>
        <time>2022-06-21T07:45:09Z</time>
      </trkpt>
      <trkpt lat="43.40467" lon="2.63223">
        <ele>457.4</ele>
        <time>2022-06-21T07:45:10Z</time>
      </trkpt>
      <trkpt lat="43.40466" lon="2.63222">
        <ele>457.2</ele>
        <time>2022-06-21T07:45:11Z</time>
      </trkpt>
      <trkpt lat="43.40465" lon="2.63222">
        <ele>457.1</ele>
        <time>2022-06-21T07:45:12Z</time>
      </trkpt>
      <trkpt lat="43.40464" lon="2.63221">
        <ele>456.9</ele>
        <time>2022-06-21T07:45:13Z</time>
      </trkpt>
      <trkpt lat="43.40462" lon="2.6322">
        <ele>456.6</ele>
        <time>2022-06-21T07:45:14Z</time>
      </trkpt>
      <trkpt lat="43.40461" lon="2.6322">
        <ele>456.5</ele>
        <time>2022-06-21T07:45:15Z</time>
      </trkpt>
      <trkpt lat="43.40461" lon="2.63219">
        <ele>456.3</ele>
        <time>2022-06-21T07:45:16Z</time>
      </trkpt>
      <trkpt lat="43.4046" lon="2.63219">
        <ele>456.2</ele>
        <time>2022-06-21T07:45:17Z</time>
      </trkpt>
      <trkpt lat="43.40459" lon="2.63218">
        <ele>456.1</ele>
        <time>2022-06-21T07:45:18Z</time>
      </trkpt>
      <trkpt lat="43.40458" lon="2.63218">
        <ele>456</ele>
        <time>2022-06-21T07:45:19Z</time>
      </trkpt>
      <trkpt lat="43.40457" lon="2.63217">
        <ele>455.8</ele>
        <time>2022-06-21T07:45:20Z</time>
      </trkpt>
      <trkpt lat="43.40456" lon="2.63216">
        <ele>455.6</ele>
        <time>2022-06-21T07:45:21Z</time>
      </trkpt>
      <trkpt lat="43.40455" lon="2.63216">
        <ele>455.5</ele>
        <time>2022-06-21T07:45:22Z</time>
      </trkpt>
      <trkpt lat="43.40454" lon="2.63215">
        <ele>455.3</ele>
        <time>2022-06-21T07:45:23Z</time>
      </trkpt>
      <trkpt lat="43.40452" lon="2.63215">
        <ele>455</ele>
        <time>2022-06-21T07:45:24Z</time>
      </trkpt>
      <trkpt lat="43.40451" lon="2.63216">
        <ele>454.9</ele>
        <time>2022-06-21T07:45:25Z</time>
      </trkpt>
      <trkpt lat="43.4045" lon="2.63216">
        <ele>454.9</ele>
        <time>2022-06-21T07:45:26Z</time>
      </trkpt>
      <trkpt lat="43.40449" lon="2.63215">
        <ele>454.8</ele>
        <time>2022-06-21T07:45:27Z</time>
      </trkpt>
      <trkpt lat="43.40448" lon="2.63214">
        <ele>454.8</ele>
        <time>2022-06-21T07:45:28Z</time>
      </trkpt>
      <trkpt lat="43.40447" lon="2.63214">
        <ele>454.8</ele>
        <time>2022-06-21T07:45:29Z</time>
      </trkpt>
      <trkpt lat="43.40445" lon="2.63213">
        <ele>454.7</ele>
        <time>2022-06-21T07:45:30Z</time>
      </trkpt>
      <trkpt lat="43.40444" lon="2.63212">
        <ele>454.7</ele>
        <time>2022-06-21T07:45:31Z</time>
      </trkpt>
      <trkpt lat="43.40444" lon="2.63212">
        <ele>454.6</ele>
        <time>2022-06-21T07:45:32Z</time>
      </trkpt>
      <trkpt lat="43.40443" lon="2.63211">
        <ele>454.6</ele>
        <time>2022-06-21T07:45:33Z</time>
      </trkpt>
      <trkpt lat="43.40442" lon="2.63211">
        <ele>454.6</ele>
        <time>2022-06-21T07:45:34Z</time>
      </trkpt>
      <trkpt lat="43.40441" lon="2.6321">
        <ele>454.5</ele>
        <time>2022-06-21T07:45:35Z</time>
      </trkpt>
      <trkpt lat="43.4044" lon="2.6321">
        <ele>454.5</ele>
        <time>2022-06-21T07:45:36Z</time>
      </trkpt>
      <trkpt lat="43.40439" lon="2.63209">
        <ele>454.5</ele>
        <time>2022-06-21T07:45:37Z</time>
      </trkpt>
      <trkpt lat="43.40438" lon="2.63209">
        <ele>454.4</ele>
        <time>2022-06-21T07:45:38Z</time>
      </trkpt>
      <trkpt lat="43.40438" lon="2.63208">
        <ele>454.4</ele>
        <time>2022-06-21T07:45:39Z</time>
      </trkpt>
      <trkpt lat="43.40437" lon="2.63207">
        <ele>454.4</ele>
        <time>2022-06-21T07:45:40Z</time>
      </trkpt>
      <trkpt lat="43.40436" lon="2.63206">
        <ele>454.4</ele>
        <time>2022-06-21T07:45:41Z</time>
      </trkpt>
      <trkpt lat="43.40436" lon="2.63205">
        <ele>454.3</ele>
        <time>2022-06-21T07:45:42Z</time>
      </trkpt>
      <trkpt lat="43.40435" lon="2.63205">
        <ele>454.3</ele>
        <time>2022-06-21T07:45:43Z</time>
      </trkpt>
      <trkpt lat="43.40434" lon="2.63204">
        <ele>454.3</ele>
        <time>2022-06-21T07:45:44Z</time>
      </trkpt>
      <trkpt lat="43.40432" lon="2.63205">
        <ele>454.2</ele>
        <time>2022-06-21T07:45:45Z</time>
      </trkpt>
      <trkpt lat="43.40431" lon="2.63205">
        <ele>454.2</ele>
        <time>2022-06-21T07:45:46Z</time>
      </trkpt>
      <trkpt lat="43.40431" lon="2.63205">
        <ele>454.2</ele>
        <time>2022-06-21T07:45:47Z</time>
      </trkpt>
      <trkpt lat="43.4043" lon="2.63205">
        <ele>454.1</ele>
        <time>2022-06-21T07:45:48Z</time>
      </trkpt>
      <trkpt lat="43.40429" lon="2.63205">
        <ele>454.1</ele>
        <time>2022-06-21T07:45:49Z</time>
      </trkpt>
      <trkpt lat="43.40428" lon="2.63205">
        <ele>454.1</ele>
        <time>2022-06-21T07:45:50Z</time>
      </trkpt>
      <trkpt lat="43.40428" lon="2.63205">
        <ele>454.1</ele>
        <time>2022-06-21T07:45:51Z</time>
      </trkpt>
      <trkpt lat="43.40427" lon="2.63205">
        <ele>454</ele>
        <time>2022-06-21T07:45:52Z</time>
      </trkpt>
      <trkpt lat="43.40427" lon="2.63205">
        <ele>454</ele>
        <time>2022-06-21T07:45:53Z</time>
      </trkpt>
      <trkpt lat="43.40426" lon="2.63204">
        <ele>454</ele>
        <time>2022-06-21T07:45:54Z</time>
      </trkpt>
      <trkpt lat="43.40426" lon="2.63204">
        <ele>454</ele>
        <time>2022-06-21T07:45:55Z</time>
      </trkpt>
      <trkpt lat="43.40425" lon="2.63204">
        <ele>453.9</ele>
        <time>2022-06-21T07:45:56Z</time>
      </trkpt>
      <trkpt lat="43.40424" lon="2.63204">
        <ele>453.9</ele>
        <time>2022-06-21T07:45:57Z</time>
      </trkpt>
      <trkpt lat="43.40423" lon="2.63204">
        <ele>453.9</ele>
        <time>2022-06-21T07:45:58Z</time>
      </trkpt>
      <trkpt lat="43.40423" lon="2.63204">
        <ele>453.9</ele>
        <time>2022-06-21T07:45:59Z</time>
      </trkpt>
      <trkpt lat="43.40423" lon="2.63204">
        <ele>453.9</ele>
        <time>2022-06-21T07:46:00Z</time>
      </trkpt>
      <trkpt lat="43.40422" lon="2.63204">
        <ele>453.9</ele>
        <time>2022-06-21T07:46:01Z</time>
      </trkpt>
      <trkpt lat="43.40422" lon="2.63204">
        <ele>453.9</ele>
        <time>2022-06-21T07:46:02Z</time>
      </trkpt>
      <trkpt lat="43.40422" lon="2.63204">
        <ele>453.8</ele>
        <time>2022-06-21T07:46:03Z</time>
      </trkpt>
      <trkpt lat="43.40422" lon="2.63203">
        <ele>453.8</ele>
        <time>2022-06-21T07:46:04Z</time>
      </trkpt>
      <trkpt lat="43.40422" lon="2.63203">
        <ele>453.8</ele>
        <time>2022-06-21T07:46:05Z</time>
      </trkpt>
      <trkpt lat="43.40421" lon="2.63203">
        <ele>453.8</ele>
        <time>2022-06-21T07:46:06Z</time>
      </trkpt>
      <trkpt lat="43.40421" lon="2.63202">
        <ele>453.8</ele>
        <time>2022-06-21T07:46:07Z</time>
      </trkpt>
      <trkpt lat="43.4042" lon="2.63202">
        <ele>453.8</ele>
        <time>2022-06-21T07:46:08Z</time>
      </trkpt>
      <trkpt lat="43.4042" lon="2.63201">
        <ele>453.7</ele>
        <time>2022-06-21T07:46:09Z</time>
      </trkpt>
      <trkpt lat="43.40419" lon="2.63199">
        <ele>453.7</ele>
        <time>2022-06-21T07:46:10Z</time>
      </trkpt>
      <trkpt lat="43.40419" lon="2.63198">
        <ele>453.6</ele>
        <time>2022-06-21T07:46:11Z</time>
      </trkpt>
      <trkpt lat="43.40419" lon="2.63197">
        <ele>453.6</ele>
        <time>2022-06-21T07:46:12Z</time>
      </trkpt>
      <trkpt lat="43.40419" lon="2.63197">
        <ele>453.6</ele>
        <time>2022-06-21T07:46:13Z</time>
      </trkpt>
      <trkpt lat="43.40419" lon="2.63197">
        <ele>453.6</ele>
        <time>2022-06-21T07:46:14Z</time>
      </trkpt>
      <trkpt lat="43.40419" lon="2.63197">
        <ele>453.6</ele>
        <time>2022-06-21T07:46:15Z</time>
      </trkpt>
      <trkpt lat="43.40419" lon="2.63197">
        <ele>453.6</ele>
        <time>2022-06-21T07:46:16Z</time>
      </trkpt>
      <trkpt lat="43.40419" lon="2.63197">
        <ele>453.6</ele>
        <time>2022-06-21T07:46:17Z</time>
      </trkpt>
      <trkpt lat="43.40419" lon="2.63197">
        <ele>453.6</ele>
        <time>2022-06-21T07:46:18Z</time>
      </trkpt>
      <trkpt lat="43.40419" lon="2.63197">
        <ele>453.6</ele>
        <time>2022-06-21T07:46:19Z</time>
      </trkpt>
      <trkpt lat="43.40419" lon="2.63197">
        <ele>453.6</ele>
        <time>2022-06-21T07:46:20Z</time>
      </trkpt>
      <trkpt lat="43.40419" lon="2.63197">
        <ele>453.6</ele>
        <time>2022-06-21T07:46:21Z</time>
      </trkpt>
      <trkpt lat="43.40419" lon="2.63197">
        <ele>453.6</ele>
        <time>2022-06-21T07:46:22Z</time>
      </trkpt>
      <trkpt lat="43.40419" lon="2.63197">
        <ele>453.6</ele>
        <time>2022-06-21T07:46:23Z</time>
      </trkpt>
      <trkpt lat="43.40419" lon="2.63197">
        <ele>453.6</ele>
        <time>2022-06-21T07:46:24Z</time>
      </trkpt>
      <trkpt lat="43.40419" lon="2.63197">
        <ele>453.6</ele>
        <time>2022-06-21T07:46:25Z</time>
      </trkpt>
      <trkpt lat="43.40419" lon="2.63197">
        <ele>453.6</ele>
        <time>2022-06-21T07:46:26Z</time>
      </trkpt>
      <trkpt lat="43.40419" lon="2.63197">
        <ele>453.6</ele>
        <time>2022-06-21T07:46:27Z</time>
      </trkpt>
      <trkpt lat="43.40419" lon="2.63197">
        <ele>453.6</ele>
        <time>2022-06-21T07:46:28Z</time>
      </trkpt>
      <trkpt lat="43.40419" lon="2.63197">
        <ele>453.6</ele>
        <time>2022-06-21T07:46:29Z</time>
      </trkpt>
      <trkpt lat="43.40419" lon="2.63197">
        <ele>453.6</ele>
        <time>2022-06-21T07:46:30Z</time>
      </trkpt>
      <trkpt lat="43.40419" lon="2.63197">
        <ele>453.6</ele>
        <time>2022-06-21T07:46:31Z</time>
      </trkpt>
      <trkpt lat="43.40419" lon="2.63197">
        <ele>453.6</ele>
        <time>2022-06-21T07:46:32Z</time>
      </trkpt>
      <trkpt lat="43.40419" lon="2.63197">
        <ele>453.6</ele>
        <time>2022-06-21T07:46:33Z</time>
      </trkpt>
      <trkpt lat="43.40419" lon="2.63197">
        <ele>453.6</ele>
        <time>2022-06-21T07:46:34Z</time>
      </trkpt>
      <trkpt lat="43.40419" lon="2.63197">
        <ele>453.6</ele>
        <time>2022-06-21T07:46:35Z</time>
      </trkpt>
      <trkpt lat="43.40419" lon="2.63197">
        <ele>453.6</ele>
        <time>2022-06-21T07:46:36Z</time>
      </trkpt>
      <trkpt lat="43.40419" lon="2.63197">
        <ele>453.6</ele>
        <time>2022-06-21T07:46:37Z</time>
      </trkpt>
      <trkpt lat="43.40419" lon="2.63197">
        <ele>453.6</ele>
        <time>2022-06-21T07:46:38Z</time>
      </trkpt>
      <trkpt lat="43.40419" lon="2.63197">
        <ele>453.6</ele>
        <time>2022-06-21T07:46:39Z</time>
      </trkpt>
      <trkpt lat="43.40419" lon="2.63197">
        <ele>453.6</ele>
        <time>2022-06-21T07:46:40Z</time>
      </trkpt>
      <trkpt lat="43.40419" lon="2.63197">
        <ele>453.6</ele>
        <time>2022-06-21T07:46:41Z</time>
      </trkpt>
      <trkpt lat="43.40419" lon="2.63197">
        <ele>453.6</ele>
        <time>2022-06-21T07:46:42Z</time>
      </trkpt>
      <trkpt lat="43.40419" lon="2.63197">
        <ele>453.6</ele>
        <time>2022-06-21T07:46:43Z</time>
      </trkpt>
      <trkpt lat="43.40419" lon="2.63197">
        <ele>453.6</ele>
        <time>2022-06-21T07:46:44Z</time>
      </trkpt>
      <trkpt lat="43.40419" lon="2.63197">
        <ele>453.6</ele>
        <time>2022-06-21T07:46:45Z</time>
      </trkpt>
      <trkpt lat="43.40419" lon="2.63197">
        <ele>453.6</ele>
        <time>2022-06-21T07:46:46Z</time>
      </trkpt>
      <trkpt lat="43.40419" lon="2.63197">
        <ele>453.6</ele>
        <time>2022-06-21T07:46:47Z</time>
      </trkpt>
      <trkpt lat="43.40419" lon="2.63197">
        <ele>453.6</ele>
        <time>2022-06-21T07:46:48Z</time>
      </trkpt>
      <trkpt lat="43.40419" lon="2.63197">
        <ele>453.6</ele>
        <time>2022-06-21T07:46:49Z</time>
      </trkpt>
      <trkpt lat="43.40419" lon="2.63197">
        <ele>453.6</ele>
        <time>2022-06-21T07:46:50Z</time>
      </trkpt>
      <trkpt lat="43.40419" lon="2.63197">
        <ele>453.6</ele>
        <time>2022-06-21T07:46:51Z</time>
      </trkpt>
      <trkpt lat="43.40419" lon="2.63197">
        <ele>453.6</ele>
        <time>2022-06-21T07:46:52Z</time>
      </trkpt>
      <trkpt lat="43.40419" lon="2.63197">
        <ele>453.6</ele>
        <time>2022-06-21T07:46:53Z</time>
      </trkpt>
      <trkpt lat="43.40419" lon="2.63197">
        <ele>453.6</ele>
        <time>2022-06-21T07:46:54Z</time>
      </trkpt>
      <trkpt lat="43.40419" lon="2.63197">
        <ele>453.6</ele>
        <time>2022-06-21T07:46:55Z</time>
      </trkpt>
      <trkpt lat="43.40419" lon="2.63197">
        <ele>453.6</ele>
        <time>2022-06-21T07:46:56Z</time>
      </trkpt>
      <trkpt lat="43.40419" lon="2.63197">
        <ele>453.6</ele>
        <time>2022-06-21T07:46:57Z</time>
      </trkpt>
      <trkpt lat="43.40419" lon="2.63197">
        <ele>453.6</ele>
        <time>2022-06-21T07:46:58Z</time>
      </trkpt>
      <trkpt lat="43.40419" lon="2.63197">
        <ele>453.6</ele>
        <time>2022-06-21T07:46:59Z</time>
      </trkpt>
      <trkpt lat="43.40419" lon="2.63197">
        <ele>453.6</ele>
        <time>2022-06-21T07:47:00Z</time>
      </trkpt>
      <trkpt lat="43.40419" lon="2.63197">
        <ele>453.6</ele>
        <time>2022-06-21T07:47:01Z</time>
      </trkpt>
      <trkpt lat="43.40419" lon="2.63197">
        <ele>453.6</ele>
        <time>2022-06-21T07:47:02Z</time>
      </trkpt>
      <trkpt lat="43.40419" lon="2.63197">
        <ele>453.6</ele>
        <time>2022-06-21T07:47:03Z</time>
      </trkpt>
      <trkpt lat="43.40419" lon="2.63197">
        <ele>453.6</ele>
        <time>2022-06-21T07:47:04Z</time>
      </trkpt>
      <trkpt lat="43.40419" lon="2.63197">
        <ele>453.6</ele>
        <time>2022-06-21T07:47:05Z</time>
      </trkpt>
      <trkpt lat="43.40419" lon="2.63197">
        <ele>453.6</ele>
        <time>2022-06-21T07:47:06Z</time>
      </trkpt>
      <trkpt lat="43.40419" lon="2.63197">
        <ele>453.6</ele>
        <time>2022-06-21T07:47:07Z</time>
      </trkpt>
      <trkpt lat="43.40419" lon="2.63197">
        <ele>453.6</ele>
        <time>2022-06-21T07:47:08Z</time>
      </trkpt>
      <trkpt lat="43.40419" lon="2.63197">
        <ele>453.6</ele>
        <time>2022-06-21T07:47:09Z</time>
      </trkpt>
      <trkpt lat="43.40419" lon="2.63197">
        <ele>453.6</ele>
        <time>2022-06-21T07:47:10Z</time>
      </trkpt>
      <trkpt lat="43.40419" lon="2.63197">
        <ele>453.6</ele>
        <time>2022-06-21T07:47:11Z</time>
      </trkpt>
      <trkpt lat="43.40419" lon="2.63197">
        <ele>453.6</ele>
        <time>2022-06-21T07:47:12Z</time>
      </trkpt>
      <trkpt lat="43.40419" lon="2.63197">
        <ele>453.6</ele>
        <time>2022-06-21T07:47:13Z</time>
      </trkpt>
      <trkpt lat="43.40419" lon="2.63197">
        <ele>453.6</ele>
        <time>2022-06-21T07:47:14Z</time>
      </trkpt>
      <trkpt lat="43.40419" lon="2.63197">
        <ele>453.6</ele>
        <time>2022-06-21T07:47:15Z</time>
      </trkpt>
      <trkpt lat="43.40419" lon="2.63197">
        <ele>453.6</ele>
        <time>2022-06-21T07:47:16Z</time>
      </trkpt>
      <trkpt lat="43.40419" lon="2.63197">
        <ele>453.6</ele>
        <time>2022-06-21T07:47:17Z</time>
      </trkpt>
      <trkpt lat="43.40419" lon="2.63197">
        <ele>453.6</ele>
        <time>2022-06-21T07:47:18Z</time>
      </trkpt>
      <trkpt lat="43.40419" lon="2.63197">
        <ele>453.6</ele>
        <time>2022-06-21T07:47:19Z</time>
      </trkpt>
      <trkpt lat="43.40419" lon="2.63197">
        <ele>453.6</ele>
        <time>2022-06-21T07:47:20Z</time>
      </trkpt>
      <trkpt lat="43.40419" lon="2.63197">
        <ele>453.6</ele>
        <time>2022-06-21T07:47:21Z</time>
      </trkpt>
      <trkpt lat="43.40419" lon="2.63197">
        <ele>453.6</ele>
        <time>2022-06-21T07:47:22Z</time>
      </trkpt>
      <trkpt lat="43.40419" lon="2.63197">
        <ele>453.6</ele>
        <time>2022-06-21T07:47:23Z</time>
      </trkpt>
      <trkpt lat="43.40419" lon="2.63197">
        <ele>453.6</ele>
        <time>2022-06-21T07:47:24Z</time>
      </trkpt>
      <trkpt lat="43.40419" lon="2.63197">
        <ele>453.6</ele>
        <time>2022-06-21T07:47:25Z</time>
      </trkpt>
      <trkpt lat="43.40419" lon="2.63197">
        <ele>453.6</ele>
        <time>2022-06-21T07:47:26Z</time>
      </trkpt>
      <trkpt lat="43.40419" lon="2.63197">
        <ele>453.6</ele>
        <time>2022-06-21T07:47:27Z</time>
      </trkpt>
      <trkpt lat="43.40419" lon="2.63197">
        <ele>453.6</ele>
        <time>2022-06-21T07:47:28Z</time>
      </trkpt>
      <trkpt lat="43.40419" lon="2.63197">
        <ele>453.6</ele>
        <time>2022-06-21T07:47:29Z</time>
      </trkpt>
      <trkpt lat="43.40419" lon="2.63197">
        <ele>453.6</ele>
        <time>2022-06-21T07:47:30Z</time>
      </trkpt>
      <trkpt lat="43.40419" lon="2.63197">
        <ele>453.6</ele>
        <time>2022-06-21T07:47:31Z</time>
      </trkpt>
      <trkpt lat="43.40419" lon="2.63197">
        <ele>453.6</ele>
        <time>2022-06-21T07:47:32Z</time>
      </trkpt>
      <trkpt lat="43.40419" lon="2.63197">
        <ele>453.6</ele>
        <time>2022-06-21T07:47:33Z</time>
      </trkpt>
      <trkpt lat="43.40419" lon="2.63197">
        <ele>453.6</ele>
        <time>2022-06-21T07:47:34Z</time>
      </trkpt>
      <trkpt lat="43.40419" lon="2.63197">
        <ele>453.6</ele>
        <time>2022-06-21T07:47:35Z</time>
      </trkpt>
      <trkpt lat="43.40419" lon="2.63197">
        <ele>453.6</ele>
        <time>2022-06-21T07:47:36Z</time>
      </trkpt>
      <trkpt lat="43.40419" lon="2.63197">
        <ele>453.6</ele>
        <time>2022-06-21T07:47:37Z</time>
      </trkpt>
      <trkpt lat="43.40419" lon="2.63197">
        <ele>453.6</ele>
        <time>2022-06-21T07:47:38Z</time>
      </trkpt>
      <trkpt lat="43.40419" lon="2.63197">
        <ele>453.6</ele>
        <time>2022-06-21T07:47:39Z</time>
      </trkpt>
      <trkpt lat="43.40419" lon="2.63197">
        <ele>453.6</ele>
        <time>2022-06-21T07:47:40Z</time>
      </trkpt>
      <trkpt lat="43.40419" lon="2.63197">
        <ele>453.6</ele>
        <time>2022-06-21T07:47:41Z</time>
      </trkpt>
      <trkpt lat="43.40419" lon="2.63197">
        <ele>453.6</ele>
        <time>2022-06-21T07:47:42Z</time>
      </trkpt>
      <trkpt lat="43.40419" lon="2.63197">
        <ele>453.6</ele>
        <time>2022-06-21T07:47:43Z</time>
      </trkpt>
      <trkpt lat="43.40419" lon="2.63197">
        <ele>453.6</ele>
        <time>2022-06-21T07:47:44Z</time>
      </trkpt>
      <trkpt lat="43.40419" lon="2.63197">
        <ele>453.6</ele>
        <time>2022-06-21T07:47:45Z</time>
      </trkpt>
      <trkpt lat="43.40419" lon="2.63197">
        <ele>453.6</ele>
        <time>2022-06-21T07:47:46Z</time>
      </trkpt>
      <trkpt lat="43.40419" lon="2.63197">
        <ele>453.6</ele>
        <time>2022-06-21T07:47:47Z</time>
      </trkpt>
      <trkpt lat="43.40419" lon="2.63197">
        <ele>453.6</ele>
        <time>2022-06-21T07:47:48Z</time>
      </trkpt>
      <trkpt lat="43.40419" lon="2.63197">
        <ele>453.6</ele>
        <time>2022-06-21T07:47:49Z</time>
      </trkpt>
      <trkpt lat="43.40419" lon="2.63197">
        <ele>453.6</ele>
        <time>2022-06-21T07:47:50Z</time>
      </trkpt>
      <trkpt lat="43.40419" lon="2.63197">
        <ele>453.6</ele>
        <time>2022-06-21T07:47:51Z</time>
      </trkpt>
      <trkpt lat="43.40419" lon="2.63197">
        <ele>453.6</ele>
        <time>2022-06-21T07:47:52Z</time>
      </trkpt>
      <trkpt lat="43.40419" lon="2.63197">
        <ele>453.6</ele>
        <time>2022-06-21T07:47:53Z</time>
      </trkpt>
      <trkpt lat="43.40419" lon="2.63197">
        <ele>453.6</ele>
        <time>2022-06-21T07:47:54Z</time>
      </trkpt>
      <trkpt lat="43.40419" lon="2.63197">
        <ele>453.6</ele>
        <time>2022-06-21T07:47:55Z</time>
      </trkpt>
      <trkpt lat="43.40419" lon="2.63197">
        <ele>453.6</ele>
        <time>2022-06-21T07:47:56Z</time>
      </trkpt>
      <trkpt lat="43.40419" lon="2.63197">
        <ele>453.6</ele>
        <time>2022-06-21T07:47:57Z</time>
      </trkpt>
      <trkpt lat="43.40419" lon="2.63197">
        <ele>453.6</ele>
        <time>2022-06-21T07:47:58Z</time>
      </trkpt>
      <trkpt lat="43.40419" lon="2.63197">
        <ele>453.6</ele>
        <time>2022-06-21T07:47:59Z</time>
      </trkpt>
      <trkpt lat="43.40419" lon="2.63197">
        <ele>453.6</ele>
        <time>2022-06-21T07:48:00Z</time>
      </trkpt>
      <trkpt lat="43.40419" lon="2.63197">
        <ele>453.6</ele>
        <time>2022-06-21T07:48:01Z</time>
      </trkpt>
      <trkpt lat="43.40419" lon="2.63197">
        <ele>453.6</ele>
        <time>2022-06-21T07:48:02Z</time>
      </trkpt>
      <trkpt lat="43.40419" lon="2.63197">
        <ele>453.6</ele>
        <time>2022-06-21T07:48:03Z</time>
      </trkpt>
      <trkpt lat="43.40419" lon="2.63197">
        <ele>453.6</ele>
        <time>2022-06-21T07:48:04Z</time>
      </trkpt>
      <trkpt lat="43.40419" lon="2.63197">
        <ele>453.6</ele>
        <time>2022-06-21T07:48:05Z</time>
      </trkpt>
      <trkpt lat="43.40419" lon="2.63197">
        <ele>453.6</ele>
        <time>2022-06-21T07:48:06Z</time>
      </trkpt>
      <trkpt lat="43.40419" lon="2.63197">
        <ele>453.6</ele>
        <time>2022-06-21T07:48:07Z</time>
      </trkpt>
      <trkpt lat="43.40419" lon="2.63197">
        <ele>453.6</ele>
        <time>2022-06-21T07:48:08Z</time>
      </trkpt>
      <trkpt lat="43.40419" lon="2.63197">
        <ele>453.6</ele>
        <time>2022-06-21T07:48:09Z</time>
      </trkpt>
      <trkpt lat="43.40419" lon="2.63197">
        <ele>453.6</ele>
        <time>2022-06-21T07:48:10Z</time>
      </trkpt>
      <trkpt lat="43.40419" lon="2.63197">
        <ele>453.6</ele>
        <time>2022-06-21T07:48:11Z</time>
      </trkpt>
      <trkpt lat="43.40419" lon="2.63197">
        <ele>453.6</ele>
        <time>2022-06-21T07:48:12Z</time>
      </trkpt>
      <trkpt lat="43.40419" lon="2.63197">
        <ele>453.6</ele>
        <time>2022-06-21T07:48:13Z</time>
      </trkpt>
      <trkpt lat="43.40419" lon="2.63197">
        <ele>453.6</ele>
        <time>2022-06-21T07:48:14Z</time>
      </trkpt>
      <trkpt lat="43.40419" lon="2.63197">
        <ele>453.6</ele>
        <time>2022-06-21T07:48:15Z</time>
      </trkpt>
      <trkpt lat="43.40419" lon="2.63197">
        <ele>453.6</ele>
        <time>2022-06-21T07:48:16Z</time>
      </trkpt>
      <trkpt lat="43.40419" lon="2.63197">
        <ele>453.6</ele>
        <time>2022-06-21T07:48:17Z</time>
      </trkpt>
      <trkpt lat="43.40419" lon="2.63197">
        <ele>453.6</ele>
        <time>2022-06-21T07:48:18Z</time>
      </trkpt>
      <trkpt lat="43.40419" lon="2.63197">
        <ele>453.6</ele>
        <time>2022-06-21T07:48:19Z</time>
      </trkpt>
      <trkpt lat="43.40419" lon="2.63197">
        <ele>453.6</ele>
        <time>2022-06-21T07:48:20Z</time>
      </trkpt>
      <trkpt lat="43.40419" lon="2.63197">
        <ele>453.6</ele>
        <time>2022-06-21T07:48:21Z</time>
      </trkpt>
      <trkpt lat="43.40419" lon="2.63197">
        <ele>453.6</ele>
        <time>2022-06-21T07:48:22Z</time>
      </trkpt>
      <trkpt lat="43.40419" lon="2.63197">
        <ele>453.6</ele>
        <time>2022-06-21T07:48:23Z</time>
      </trkpt>
      <trkpt lat="43.40419" lon="2.63197">
        <ele>453.6</ele>
        <time>2022-06-21T07:48:24Z</time>
      </trkpt>
      <trkpt lat="43.40419" lon="2.63197">
        <ele>453.6</ele>
        <time>2022-06-21T07:48:25Z</time>
      </trkpt>
      <trkpt lat="43.40419" lon="2.63197">
        <ele>453.6</ele>
        <time>2022-06-21T07:48:26Z</time>
      </trkpt>
      <trkpt lat="43.40419" lon="2.63197">
        <ele>453.6</ele>
        <time>2022-06-21T07:48:27Z</time>
      </trkpt>
      <trkpt lat="43.40419" lon="2.63197">
        <ele>453.6</ele>
        <time>2022-06-21T07:48:28Z</time>
      </trkpt>
      <trkpt lat="43.40419" lon="2.63197">
        <ele>453.6</ele>
        <time>2022-06-21T07:48:29Z</time>
      </trkpt>
      <trkpt lat="43.40419" lon="2.63197">
        <ele>453.6</ele>
        <time>2022-06-21T07:48:30Z</time>
      </trkpt>
      <trkpt lat="43.40419" lon="2.63197">
        <ele>453.6</ele>
        <time>2022-06-21T07:48:31Z</time>
      </trkpt>
      <trkpt lat="43.40419" lon="2.63197">
        <ele>453.6</ele>
        <time>2022-06-21T07:48:32Z</time>
      </trkpt>
      <trkpt lat="43.40419" lon="2.63197">
        <ele>453.6</ele>
        <time>2022-06-21T07:48:33Z</time>
      </trkpt>
      <trkpt lat="43.40419" lon="2.63197">
        <ele>453.6</ele>
        <time>2022-06-21T07:48:34Z</time>
      </trkpt>
      <trkpt lat="43.40419" lon="2.63197">
        <ele>453.6</ele>
        <time>2022-06-21T07:48:35Z</time>
      </trkpt>
      <trkpt lat="43.40419" lon="2.63197">
        <ele>453.6</ele>
        <time>2022-06-21T07:48:36Z</time>
      </trkpt>
      <trkpt lat="43.40419" lon="2.63197">
        <ele>453.6</ele>
        <time>2022-06-21T07:48:37Z</time>
      </trkpt>
      <trkpt lat="43.40419" lon="2.63197">
        <ele>453.6</ele>
        <time>2022-06-21T07:48:38Z</time>
      </trkpt>
      <trkpt lat="43.40419" lon="2.63197">
        <ele>453.6</ele>
        <time>2022-06-21T07:48:39Z</time>
      </trkpt>
      <trkpt lat="43.40419" lon="2.63197">
        <ele>453.6</ele>
        <time>2022-06-21T07:48:40Z</time>
      </trkpt>
      <trkpt lat="43.40419" lon="2.63197">
        <ele>453.6</ele>
        <time>2022-06-21T07:48:41Z</time>
      </trkpt>
      <trkpt lat="43.40419" lon="2.63197">
        <ele>453.6</ele>
        <time>2022-06-21T07:48:42Z</time>
      </trkpt>
      <trkpt lat="43.40419" lon="2.63197">
        <ele>453.6</ele>
        <time>2022-06-21T07:48:43Z</time>
      </trkpt>
      <trkpt lat="43.40419" lon="2.63197">
        <ele>453.6</ele>
        <time>2022-06-21T07:48:44Z</time>
      </trkpt>
      <trkpt lat="43.40419" lon="2.63197">
        <ele>453.6</ele>
        <time>2022-06-21T07:48:45Z</time>
      </trkpt>
      <trkpt lat="43.40419" lon="2.63197">
        <ele>453.6</ele>
        <time>2022-06-21T07:48:46Z</time>
      </trkpt>
      <trkpt lat="43.40419" lon="2.63197">
        <ele>453.6</ele>
        <time>2022-06-21T07:48:47Z</time>
      </trkpt>
      <trkpt lat="43.40419" lon="2.63197">
        <ele>453.6</ele>
        <time>2022-06-21T07:48:48Z</time>
      </trkpt>
      <trkpt lat="43.40419" lon="2.63197">
        <ele>453.6</ele>
        <time>2022-06-21T07:48:49Z</time>
      </trkpt>
      <trkpt lat="43.40419" lon="2.63197">
        <ele>453.6</ele>
        <time>2022-06-21T07:48:50Z</time>
      </trkpt>
      <trkpt lat="43.40419" lon="2.63197">
        <ele>453.6</ele>
        <time>2022-06-21T07:48:51Z</time>
      </trkpt>
      <trkpt lat="43.40419" lon="2.63197">
        <ele>453.6</ele>
        <time>2022-06-21T07:48:52Z</time>
      </trkpt>
      <trkpt lat="43.40419" lon="2.63197">
        <ele>453.6</ele>
        <time>2022-06-21T07:48:53Z</time>
      </trkpt>
      <trkpt lat="43.40419" lon="2.63197">
        <ele>453.6</ele>
        <time>2022-06-21T07:48:54Z</time>
      </trkpt>
      <trkpt lat="43.40419" lon="2.63197">
        <ele>453.6</ele>
        <time>2022-06-21T07:48:55Z</time>
      </trkpt>
      <trkpt lat="43.40419" lon="2.63197">
        <ele>453.6</ele>
        <time>2022-06-21T07:48:56Z</time>
      </trkpt>
      <trkpt lat="43.40419" lon="2.63197">
        <ele>453.6</ele>
        <time>2022-06-21T07:48:57Z</time>
      </trkpt>
      <trkpt lat="43.40419" lon="2.63197">
        <ele>453.6</ele>
        <time>2022-06-21T07:48:58Z</time>
      </trkpt>
      <trkpt lat="43.40419" lon="2.63197">
        <ele>453.6</ele>
        <time>2022-06-21T07:48:59Z</time>
      </trkpt>
      <trkpt lat="43.40419" lon="2.63197">
        <ele>453.6</ele>
        <time>2022-06-21T07:49:00Z</time>
      </trkpt>
      <trkpt lat="43.40419" lon="2.63197">
        <ele>453.6</ele>
        <time>2022-06-21T07:49:01Z</time>
      </trkpt>
      <trkpt lat="43.40419" lon="2.63197">
        <ele>453.6</ele>
        <time>2022-06-21T07:49:02Z</time>
      </trkpt>
      <trkpt lat="43.40419" lon="2.63197">
        <ele>453.6</ele>
        <time>2022-06-21T07:49:03Z</time>
      </trkpt>
      <trkpt lat="43.40419" lon="2.63197">
        <ele>453.6</ele>
        <time>2022-06-21T07:49:04Z</time>
      </trkpt>
      <trkpt lat="43.40419" lon="2.63197">
        <ele>453.6</ele>
        <time>2022-06-21T07:49:05Z</time>
      </trkpt>
      <trkpt lat="43.40419" lon="2.63197">
        <ele>453.6</ele>
        <time>2022-06-21T07:49:06Z</time>
      </trkpt>
      <trkpt lat="43.40419" lon="2.63197">
        <ele>453.6</ele>
        <time>2022-06-21T07:49:07Z</time>
      </trkpt>
      <trkpt lat="43.40419" lon="2.63197">
        <ele>453.6</ele>
        <time>2022-06-21T07:49:08Z</time>
      </trkpt>
      <trkpt lat="43.40419" lon="2.63197">
        <ele>453.6</ele>
        <time>2022-06-21T07:49:09Z</time>
      </trkpt>
      <trkpt lat="43.40419" lon="2.63197">
        <ele>453.6</ele>
        <time>2022-06-21T07:49:10Z</time>
      </trkpt>
      <trkpt lat="43.40419" lon="2.63197">
        <ele>453.6</ele>
        <time>2022-06-21T07:49:11Z</time>
      </trkpt>
      <trkpt lat="43.40419" lon="2.63197">
        <ele>453.6</ele>
        <time>2022-06-21T07:49:12Z</time>
      </trkpt>
      <trkpt lat="43.40419" lon="2.63197">
        <ele>453.6</ele>
        <time>2022-06-21T07:49:13Z</time>
      </trkpt>
      <trkpt lat="43.40419" lon="2.63197">
        <ele>453.6</ele>
        <time>2022-06-21T07:49:14Z</time>
      </trkpt>
      <trkpt lat="43.40419" lon="2.63197">
        <ele>453.6</ele>
        <time>2022-06-21T07:49:15Z</time>
      </trkpt>
      <trkpt lat="43.40419" lon="2.63197">
        <ele>453.6</ele>
        <time>2022-06-21T07:49:16Z</time>
      </trkpt>
      <trkpt lat="43.40419" lon="2.63197">
        <ele>453.6</ele>
        <time>2022-06-21T07:49:17Z</time>
      </trkpt>
      <trkpt lat="43.40419" lon="2.63197">
        <ele>453.6</ele>
        <time>2022-06-21T07:49:18Z</time>
      </trkpt>
      <trkpt lat="43.40419" lon="2.63197">
        <ele>453.6</ele>
        <time>2022-06-21T07:49:19Z</time>
      </trkpt>
      <trkpt lat="43.40419" lon="2.63197">
        <ele>453.6</ele>
        <time>2022-06-21T07:49:20Z</time>
      </trkpt>
      <trkpt lat="43.40419" lon="2.63197">
        <ele>453.6</ele>
        <time>2022-06-21T07:49:21Z</time>
      </trkpt>
      <trkpt lat="43.40419" lon="2.63197">
        <ele>453.6</ele>
        <time>2022-06-21T07:49:22Z</time>
      </trkpt>
      <trkpt lat="43.40419" lon="2.63197">
        <ele>453.6</ele>
        <time>2022-06-21T07:49:23Z</time>
      </trkpt>
      <trkpt lat="43.40419" lon="2.63197">
        <ele>453.6</ele>
        <time>2022-06-21T07:49:24Z</time>
      </trkpt>
      <trkpt lat="43.40419" lon="2.63197">
        <ele>453.6</ele>
        <time>2022-06-21T07:49:25Z</time>
      </trkpt>
      <trkpt lat="43.40419" lon="2.63197">
        <ele>453.6</ele>
        <time>2022-06-21T07:49:26Z</time>
      </trkpt>
      <trkpt lat="43.40419" lon="2.63197">
        <ele>453.6</ele>
        <time>2022-06-21T07:49:27Z</time>
      </trkpt>
      <trkpt lat="43.40419" lon="2.63197">
        <ele>453.6</ele>
        <time>2022-06-21T07:49:28Z</time>
      </trkpt>
      <trkpt lat="43.40419" lon="2.63197">
        <ele>453.6</ele>
        <time>2022-06-21T07:49:29Z</time>
      </trkpt>
      <trkpt lat="43.40419" lon="2.63197">
        <ele>453.6</ele>
        <time>2022-06-21T07:49:30Z</time>
      </trkpt>
      <trkpt lat="43.40419" lon="2.63197">
        <ele>453.6</ele>
        <time>2022-06-21T07:49:31Z</time>
      </trkpt>
      <trkpt lat="43.40419" lon="2.63197">
        <ele>453.6</ele>
        <time>2022-06-21T07:49:32Z</time>
      </trkpt>
      <trkpt lat="43.40419" lon="2.63197">
        <ele>453.6</ele>
        <time>2022-06-21T07:49:33Z</time>
      </trkpt>
      <trkpt lat="43.40419" lon="2.63197">
        <ele>453.6</ele>
        <time>2022-06-21T07:49:34Z</time>
      </trkpt>
      <trkpt lat="43.40419" lon="2.63197">
        <ele>453.6</ele>
        <time>2022-06-21T07:49:35Z</time>
      </trkpt>
      <trkpt lat="43.40419" lon="2.63197">
        <ele>453.6</ele>
        <time>2022-06-21T07:49:36Z</time>
      </trkpt>
      <trkpt lat="43.40419" lon="2.63197">
        <ele>453.6</ele>
        <time>2022-06-21T07:49:37Z</time>
      </trkpt>
      <trkpt lat="43.40419" lon="2.63197">
        <ele>453.6</ele>
        <time>2022-06-21T07:49:38Z</time>
      </trkpt>
      <trkpt lat="43.40419" lon="2.63197">
        <ele>453.6</ele>
        <time>2022-06-21T07:49:39Z</time>
      </trkpt>
      <trkpt lat="43.40419" lon="2.63197">
        <ele>453.6</ele>
        <time>2022-06-21T07:49:40Z</time>
      </trkpt>
      <trkpt lat="43.40419" lon="2.63197">
        <ele>453.6</ele>
        <time>2022-06-21T07:49:41Z</time>
      </trkpt>
      <trkpt lat="43.40419" lon="2.63197">
        <ele>453.6</ele>
        <time>2022-06-21T07:49:42Z</time>
      </trkpt>
      <trkpt lat="43.40419" lon="2.63197">
        <ele>453.6</ele>
        <time>2022-06-21T07:49:43Z</time>
      </trkpt>
      <trkpt lat="43.40419" lon="2.63197">
        <ele>453.6</ele>
        <time>2022-06-21T07:49:44Z</time>
      </trkpt>
      <trkpt lat="43.40419" lon="2.63197">
        <ele>453.6</ele>
        <time>2022-06-21T07:49:45Z</time>
      </trkpt>
      <trkpt lat="43.40419" lon="2.63197">
        <ele>453.6</ele>
        <time>2022-06-21T07:49:46Z</time>
      </trkpt>
      <trkpt lat="43.40419" lon="2.63197">
        <ele>453.6</ele>
        <time>2022-06-21T07:49:47Z</time>
      </trkpt>
      <trkpt lat="43.40419" lon="2.63197">
        <ele>453.6</ele>
        <time>2022-06-21T07:49:48Z</time>
      </trkpt>
      <trkpt lat="43.40419" lon="2.63197">
        <ele>453.6</ele>
        <time>2022-06-21T07:49:49Z</time>
      </trkpt>
      <trkpt lat="43.40419" lon="2.63197">
        <ele>453.6</ele>
        <time>2022-06-21T07:49:50Z</time>
      </trkpt>
      <trkpt lat="43.40419" lon="2.63197">
        <ele>453.6</ele>
        <time>2022-06-21T07:49:51Z</time>
      </trkpt>
      <trkpt lat="43.40419" lon="2.63197">
        <ele>453.6</ele>
        <time>2022-06-21T07:49:52Z</time>
      </trkpt>
      <trkpt lat="43.40419" lon="2.63197">
        <ele>453.6</ele>
        <time>2022-06-21T07:49:53Z</time>
      </trkpt>
      <trkpt lat="43.40419" lon="2.63197">
        <ele>453.6</ele>
        <time>2022-06-21T07:49:54Z</time>
      </trkpt>
      <trkpt lat="43.40419" lon="2.63197">
        <ele>453.6</ele>
        <time>2022-06-21T07:49:55Z</time>
      </trkpt>
      <trkpt lat="43.40419" lon="2.63197">
        <ele>453.6</ele>
        <time>2022-06-21T07:49:56Z</time>
      </trkpt>
      <trkpt lat="43.40419" lon="2.63197">
        <ele>453.6</ele>
        <time>2022-06-21T07:49:57Z</time>
      </trkpt>
      <trkpt lat="43.40419" lon="2.63197">
        <ele>453.6</ele>
        <time>2022-06-21T07:49:58Z</time>
      </trkpt>
      <trkpt lat="43.40419" lon="2.63197">
        <ele>453.6</ele>
        <time>2022-06-21T07:49:59Z</time>
      </trkpt>
      <trkpt lat="43.40419" lon="2.63197">
        <ele>453.6</ele>
        <time>2022-06-21T07:50:00Z</time>
      </trkpt>
      <trkpt lat="43.40419" lon="2.63197">
        <ele>453.6</ele>
        <time>2022-06-21T07:50:01Z</time>
      </trkpt>
      <trkpt lat="43.40419" lon="2.63197">
        <ele>453.6</ele>
        <time>2022-06-21T07:50:02Z</time>
      </trkpt>
      <trkpt lat="43.40419" lon="2.63197">
        <ele>453.6</ele>
        <time>2022-06-21T07:50:03Z</time>
      </trkpt>
      <trkpt lat="43.40419" lon="2.63197">
        <ele>453.6</ele>
        <time>2022-06-21T07:50:04Z</time>
      </trkpt>
      <trkpt lat="43.40419" lon="2.63197">
        <ele>453.6</ele>
        <time>2022-06-21T07:50:05Z</time>
      </trkpt>
      <trkpt lat="43.40419" lon="2.63197">
        <ele>453.6</ele>
        <time>2022-06-21T07:50:06Z</time>
      </trkpt>
      <trkpt lat="43.40419" lon="2.63197">
        <ele>453.6</ele>
        <time>2022-06-21T07:50:07Z</time>
      </trkpt>
      <trkpt lat="43.40419" lon="2.63197">
        <ele>453.6</ele>
        <time>2022-06-21T07:50:08Z</time>
      </trkpt>
      <trkpt lat="43.40419" lon="2.63197">
        <ele>453.6</ele>
        <time>2022-06-21T07:50:09Z</time>
      </trkpt>
      <trkpt lat="43.40419" lon="2.63197">
        <ele>453.6</ele>
        <time>2022-06-21T07:50:10Z</time>
      </trkpt>
      <trkpt lat="43.40419" lon="2.63197">
        <ele>453.6</ele>
        <time>2022-06-21T07:50:11Z</time>
      </trkpt>
      <trkpt lat="43.40419" lon="2.63197">
        <ele>453.6</ele>
        <time>2022-06-21T07:50:12Z</time>
      </trkpt>
      <trkpt lat="43.40419" lon="2.63197">
        <ele>453.6</ele>
        <time>2022-06-21T07:50:13Z</time>
      </trkpt>
      <trkpt lat="43.40419" lon="2.63197">
        <ele>453.6</ele>
        <time>2022-06-21T07:50:14Z</time>
      </trkpt>
      <trkpt lat="43.40419" lon="2.63197">
        <ele>453.6</ele>
        <time>2022-06-21T07:50:15Z</time>
      </trkpt>
      <trkpt lat="43.40419" lon="2.63197">
        <ele>453.6</ele>
        <time>2022-06-21T07:50:16Z</time>
      </trkpt>
      <trkpt lat="43.40419" lon="2.63197">
        <ele>453.6</ele>
        <time>2022-06-21T07:50:17Z</time>
      </trkpt>
      <trkpt lat="43.40419" lon="2.63197">
        <ele>453.6</ele>
        <time>2022-06-21T07:50:18Z</time>
      </trkpt>
      <trkpt lat="43.40419" lon="2.63197">
        <ele>453.6</ele>
        <time>2022-06-21T07:50:19Z</time>
      </trkpt>
      <trkpt lat="43.40419" lon="2.63197">
        <ele>453.6</ele>
        <time>2022-06-21T07:50:20Z</time>
      </trkpt>
      <trkpt lat="43.40419" lon="2.63197">
        <ele>453.6</ele>
        <time>2022-06-21T07:50:21Z</time>
      </trkpt>
      <trkpt lat="43.40419" lon="2.63197">
        <ele>453.6</ele>
        <time>2022-06-21T07:50:22Z</time>
      </trkpt>
      <trkpt lat="43.40419" lon="2.63197">
        <ele>453.6</ele>
        <time>2022-06-21T07:50:23Z</time>
      </trkpt>
      <trkpt lat="43.40419" lon="2.63197">
        <ele>453.6</ele>
        <time>2022-06-21T07:50:24Z</time>
      </trkpt>
      <trkpt lat="43.40419" lon="2.63197">
        <ele>453.6</ele>
        <time>2022-06-21T07:50:25Z</time>
      </trkpt>
      <trkpt lat="43.40419" lon="2.63197">
        <ele>453.6</ele>
        <time>2022-06-21T07:50:26Z</time>
      </trkpt>
      <trkpt lat="43.40419" lon="2.63197">
        <ele>453.6</ele>
        <time>2022-06-21T07:50:27Z</time>
      </trkpt>
      <trkpt lat="43.40419" lon="2.63197">
        <ele>453.6</ele>
        <time>2022-06-21T07:50:28Z</time>
      </trkpt>
      <trkpt lat="43.40418" lon="2.63196">
        <ele>453.6</ele>
        <time>2022-06-21T07:50:29Z</time>
      </trkpt>
      <trkpt lat="43.40418" lon="2.63196">
        <ele>453.5</ele>
        <time>2022-06-21T07:50:30Z</time>
      </trkpt>
      <trkpt lat="43.40417" lon="2.63195">
        <ele>453.5</ele>
        <time>2022-06-21T07:50:31Z</time>
      </trkpt>
      <trkpt lat="43.40417" lon="2.63194">
        <ele>453.5</ele>
        <time>2022-06-21T07:50:32Z</time>
      </trkpt>
      <trkpt lat="43.40416" lon="2.63193">
        <ele>453.4</ele>
        <time>2022-06-21T07:50:33Z</time>
      </trkpt>
      <trkpt lat="43.40415" lon="2.63193">
        <ele>453.4</ele>
        <time>2022-06-21T07:50:34Z</time>
      </trkpt>
      <trkpt lat="43.40414" lon="2.63192">
        <ele>453.4</ele>
        <time>2022-06-21T07:50:35Z</time>
      </trkpt>
      <trkpt lat="43.40413" lon="2.63191">
        <ele>453.4</ele>
        <time>2022-06-21T07:50:36Z</time>
      </trkpt>
      <trkpt lat="43.40413" lon="2.63191">
        <ele>453.3</ele>
        <time>2022-06-21T07:50:37Z</time>
      </trkpt>
      <trkpt lat="43.40412" lon="2.63191">
        <ele>453.3</ele>
        <time>2022-06-21T07:50:38Z</time>
      </trkpt>
      <trkpt lat="43.40412" lon="2.63191">
        <ele>453.3</ele>
        <time>2022-06-21T07:50:39Z</time>
      </trkpt>
      <trkpt lat="43.40412" lon="2.6319">
        <ele>453.3</ele>
        <time>2022-06-21T07:50:40Z</time>
      </trkpt>
      <trkpt lat="43.40411" lon="2.6319">
        <ele>453.3</ele>
        <time>2022-06-21T07:50:41Z</time>
      </trkpt>
      <trkpt lat="43.40411" lon="2.63189">
        <ele>453.2</ele>
        <time>2022-06-21T07:50:42Z</time>
      </trkpt>
      <trkpt lat="43.40411" lon="2.63188">
        <ele>453.2</ele>
        <time>2022-06-21T07:50:43Z</time>
      </trkpt>
      <trkpt lat="43.40411" lon="2.63188">
        <ele>453.2</ele>
        <time>2022-06-21T07:50:44Z</time>
      </trkpt>
      <trkpt lat="43.40411" lon="2.63188">
        <ele>453.2</ele>
        <time>2022-06-21T07:50:45Z</time>
      </trkpt>
      <trkpt lat="43.4041" lon="2.63188">
        <ele>453.2</ele>
        <time>2022-06-21T07:50:46Z</time>
      </trkpt>
      <trkpt lat="43.4041" lon="2.63187">
        <ele>453.2</ele>
        <time>2022-06-21T07:50:47Z</time>
      </trkpt>
      <trkpt lat="43.4041" lon="2.63187">
        <ele>453.2</ele>
        <time>2022-06-21T07:50:48Z</time>
      </trkpt>
      <trkpt lat="43.4041" lon="2.63187">
        <ele>453.2</ele>
        <time>2022-06-21T07:50:49Z</time>
      </trkpt>
      <trkpt lat="43.4041" lon="2.63187">
        <ele>453.2</ele>
        <time>2022-06-21T07:50:50Z</time>
      </trkpt>
      <trkpt lat="43.4041" lon="2.63187">
        <ele>453.2</ele>
        <time>2022-06-21T07:50:51Z</time>
      </trkpt>
      <trkpt lat="43.4041" lon="2.63187">
        <ele>453.2</ele>
        <time>2022-06-21T07:50:52Z</time>
      </trkpt>
      <trkpt lat="43.4041" lon="2.63187">
        <ele>453.2</ele>
        <time>2022-06-21T07:50:53Z</time>
      </trkpt>
      <trkpt lat="43.4041" lon="2.63187">
        <ele>453.2</ele>
        <time>2022-06-21T07:50:54Z</time>
      </trkpt>
      <trkpt lat="43.4041" lon="2.63187">
        <ele>453.2</ele>
        <time>2022-06-21T07:50:55Z</time>
      </trkpt>
      <trkpt lat="43.4041" lon="2.63187">
        <ele>453.2</ele>
        <time>2022-06-21T07:50:56Z</time>
      </trkpt>
      <trkpt lat="43.4041" lon="2.63187">
        <ele>453.2</ele>
        <time>2022-06-21T07:50:57Z</time>
      </trkpt>
      <trkpt lat="43.4041" lon="2.63187">
        <ele>453.2</ele>
        <time>2022-06-21T07:50:58Z</time>
      </trkpt>
      <trkpt lat="43.40409" lon="2.63187">
        <ele>453.1</ele>
        <time>2022-06-21T07:50:59Z</time>
      </trkpt>
      <trkpt lat="43.40408" lon="2.63187">
        <ele>453.1</ele>
        <time>2022-06-21T07:51:00Z</time>
      </trkpt>
      <trkpt lat="43.40407" lon="2.63187">
        <ele>453.1</ele>
        <time>2022-06-21T07:51:01Z</time>
      </trkpt>
      <trkpt lat="43.40406" lon="2.63187">
        <ele>453</ele>
        <time>2022-06-21T07:51:02Z</time>
      </trkpt>
      <trkpt lat="43.40406" lon="2.63187">
        <ele>453</ele>
        <time>2022-06-21T07:51:03Z</time>
      </trkpt>
      <trkpt lat="43.40405" lon="2.63186">
        <ele>453</ele>
        <time>2022-06-21T07:51:04Z</time>
      </trkpt>
      <trkpt lat="43.40405" lon="2.63186">
        <ele>453</ele>
        <time>2022-06-21T07:51:05Z</time>
      </trkpt>
      <trkpt lat="43.40405" lon="2.63186">
        <ele>453</ele>
        <time>2022-06-21T07:51:06Z</time>
      </trkpt>
      <trkpt lat="43.40405" lon="2.63186">
        <ele>453</ele>
        <time>2022-06-21T07:51:07Z</time>
      </trkpt>
      <trkpt lat="43.40405" lon="2.63186">
        <ele>453</ele>
        <time>2022-06-21T07:51:08Z</time>
      </trkpt>
      <trkpt lat="43.40405" lon="2.63186">
        <ele>453</ele>
        <time>2022-06-21T07:51:09Z</time>
      </trkpt>
      <trkpt lat="43.40405" lon="2.63186">
        <ele>453</ele>
        <time>2022-06-21T07:51:10Z</time>
      </trkpt>
      <trkpt lat="43.40405" lon="2.63186">
        <ele>453</ele>
        <time>2022-06-21T07:51:11Z</time>
      </trkpt>
      <trkpt lat="43.40405" lon="2.63186">
        <ele>453</ele>
        <time>2022-06-21T07:51:12Z</time>
      </trkpt>
      <trkpt lat="43.40405" lon="2.63186">
        <ele>453</ele>
        <time>2022-06-21T07:51:13Z</time>
      </trkpt>
      <trkpt lat="43.40405" lon="2.63186">
        <ele>453</ele>
        <time>2022-06-21T07:51:14Z</time>
      </trkpt>
      <trkpt lat="43.40405" lon="2.63186">
        <ele>453</ele>
        <time>2022-06-21T07:51:15Z</time>
      </trkpt>
      <trkpt lat="43.40405" lon="2.63186">
        <ele>453</ele>
        <time>2022-06-21T07:51:16Z</time>
      </trkpt>
      <trkpt lat="43.40405" lon="2.63186">
        <ele>453</ele>
        <time>2022-06-21T07:51:17Z</time>
      </trkpt>
      <trkpt lat="43.40405" lon="2.63186">
        <ele>453</ele>
        <time>2022-06-21T07:51:18Z</time>
      </trkpt>
      <trkpt lat="43.40405" lon="2.63186">
        <ele>453</ele>
        <time>2022-06-21T07:51:19Z</time>
      </trkpt>
      <trkpt lat="43.40405" lon="2.63186">
        <ele>453</ele>
        <time>2022-06-21T07:51:20Z</time>
      </trkpt>
      <trkpt lat="43.40405" lon="2.63185">
        <ele>453</ele>
        <time>2022-06-21T07:51:21Z</time>
      </trkpt>
      <trkpt lat="43.40404" lon="2.63185">
        <ele>452.9</ele>
        <time>2022-06-21T07:51:22Z</time>
      </trkpt>
      <trkpt lat="43.40404" lon="2.63185">
        <ele>452.9</ele>
        <time>2022-06-21T07:51:23Z</time>
      </trkpt>
      <trkpt lat="43.40403" lon="2.63185">
        <ele>452.9</ele>
        <time>2022-06-21T07:51:24Z</time>
      </trkpt>
      <trkpt lat="43.40403" lon="2.63185">
        <ele>452.9</ele>
        <time>2022-06-21T07:51:25Z</time>
      </trkpt>
      <trkpt lat="43.40403" lon="2.63185">
        <ele>452.9</ele>
        <time>2022-06-21T07:51:26Z</time>
      </trkpt>
      <trkpt lat="43.40403" lon="2.63185">
        <ele>452.9</ele>
        <time>2022-06-21T07:51:27Z</time>
      </trkpt>
      <trkpt lat="43.40403" lon="2.63184">
        <ele>452.9</ele>
        <time>2022-06-21T07:51:28Z</time>
      </trkpt>
      <trkpt lat="43.40403" lon="2.63184">
        <ele>452.9</ele>
        <time>2022-06-21T07:51:29Z</time>
      </trkpt>
      <trkpt lat="43.40402" lon="2.63184">
        <ele>452.9</ele>
        <time>2022-06-21T07:51:30Z</time>
      </trkpt>
      <trkpt lat="43.404" lon="2.63185">
        <ele>452.8</ele>
        <time>2022-06-21T07:51:31Z</time>
      </trkpt>
      <trkpt lat="43.40399" lon="2.63185">
        <ele>452.7</ele>
        <time>2022-06-21T07:51:32Z</time>
      </trkpt>
      <trkpt lat="43.40395" lon="2.63186">
        <ele>452.6</ele>
        <time>2022-06-21T07:51:33Z</time>
      </trkpt>
      <trkpt lat="43.40394" lon="2.63186">
        <ele>452.6</ele>
        <time>2022-06-21T07:51:34Z</time>
      </trkpt>
      <trkpt lat="43.40393" lon="2.63186">
        <ele>452.5</ele>
        <time>2022-06-21T07:51:35Z</time>
      </trkpt>
      <trkpt lat="43.40392" lon="2.63186">
        <ele>452.5</ele>
        <time>2022-06-21T07:51:36Z</time>
      </trkpt>
      <trkpt lat="43.40391" lon="2.63185">
        <ele>452.5</ele>
        <time>2022-06-21T07:51:37Z</time>
      </trkpt>
      <trkpt lat="43.4039" lon="2.63185">
        <ele>452.4</ele>
        <time>2022-06-21T07:51:38Z</time>
      </trkpt>
      <trkpt lat="43.40389" lon="2.63184">
        <ele>452.4</ele>
        <time>2022-06-21T07:51:39Z</time>
      </trkpt>
      <trkpt lat="43.40388" lon="2.63184">
        <ele>452.4</ele>
        <time>2022-06-21T07:51:40Z</time>
      </trkpt>
      <trkpt lat="43.40386" lon="2.63182">
        <ele>452.3</ele>
        <time>2022-06-21T07:51:41Z</time>
      </trkpt>
      <trkpt lat="43.40385" lon="2.63182">
        <ele>452.3</ele>
        <time>2022-06-21T07:51:42Z</time>
      </trkpt>
      <trkpt lat="43.40384" lon="2.63182">
        <ele>452.2</ele>
        <time>2022-06-21T07:51:43Z</time>
      </trkpt>
      <trkpt lat="43.40383" lon="2.63181">
        <ele>452.2</ele>
        <time>2022-06-21T07:51:44Z</time>
      </trkpt>
      <trkpt lat="43.40383" lon="2.63181">
        <ele>452.2</ele>
        <time>2022-06-21T07:51:45Z</time>
      </trkpt>
      <trkpt lat="43.40383" lon="2.63181">
        <ele>452.2</ele>
        <time>2022-06-21T07:51:46Z</time>
      </trkpt>
      <trkpt lat="43.40383" lon="2.63181">
        <ele>452.2</ele>
        <time>2022-06-21T07:51:47Z</time>
      </trkpt>
      <trkpt lat="43.40382" lon="2.63181">
        <ele>452.2</ele>
        <time>2022-06-21T07:51:48Z</time>
      </trkpt>
      <trkpt lat="43.40381" lon="2.6318">
        <ele>452.1</ele>
        <time>2022-06-21T07:51:49Z</time>
      </trkpt>
      <trkpt lat="43.4038" lon="2.6318">
        <ele>452.1</ele>
        <time>2022-06-21T07:51:50Z</time>
      </trkpt>
      <trkpt lat="43.40379" lon="2.6318">
        <ele>452.1</ele>
        <time>2022-06-21T07:51:51Z</time>
      </trkpt>
      <trkpt lat="43.40378" lon="2.63179">
        <ele>452</ele>
        <time>2022-06-21T07:51:52Z</time>
      </trkpt>
      <trkpt lat="43.40377" lon="2.63179">
        <ele>452</ele>
        <time>2022-06-21T07:51:53Z</time>
      </trkpt>
      <trkpt lat="43.40376" lon="2.63179">
        <ele>452</ele>
        <time>2022-06-21T07:51:54Z</time>
      </trkpt>
      <trkpt lat="43.40375" lon="2.63179">
        <ele>452</ele>
        <time>2022-06-21T07:51:55Z</time>
      </trkpt>
      <trkpt lat="43.40374" lon="2.63178">
        <ele>451.9</ele>
        <time>2022-06-21T07:51:56Z</time>
      </trkpt>
      <trkpt lat="43.40373" lon="2.63178">
        <ele>451.9</ele>
        <time>2022-06-21T07:51:57Z</time>
      </trkpt>
      <trkpt lat="43.40372" lon="2.63177">
        <ele>451.9</ele>
        <time>2022-06-21T07:51:58Z</time>
      </trkpt>
      <trkpt lat="43.40371" lon="2.63176">
        <ele>451.8</ele>
        <time>2022-06-21T07:51:59Z</time>
      </trkpt>
      <trkpt lat="43.4037" lon="2.63176">
        <ele>451.8</ele>
        <time>2022-06-21T07:52:00Z</time>
      </trkpt>
      <trkpt lat="43.40369" lon="2.63175">
        <ele>451.8</ele>
        <time>2022-06-21T07:52:01Z</time>
      </trkpt>
      <trkpt lat="43.40369" lon="2.63174">
        <ele>451.7</ele>
        <time>2022-06-21T07:52:02Z</time>
      </trkpt>
      <trkpt lat="43.40368" lon="2.63173">
        <ele>451.7</ele>
        <time>2022-06-21T07:52:03Z</time>
      </trkpt>
      <trkpt lat="43.40367" lon="2.63172">
        <ele>451.7</ele>
        <time>2022-06-21T07:52:04Z</time>
      </trkpt>
      <trkpt lat="43.40367" lon="2.63171">
        <ele>451.7</ele>
        <time>2022-06-21T07:52:05Z</time>
      </trkpt>
      <trkpt lat="43.40366" lon="2.63171">
        <ele>451.6</ele>
        <time>2022-06-21T07:52:06Z</time>
      </trkpt>
      <trkpt lat="43.40365" lon="2.6317">
        <ele>451.6</ele>
        <time>2022-06-21T07:52:07Z</time>
      </trkpt>
      <trkpt lat="43.40364" lon="2.6317">
        <ele>451.6</ele>
        <time>2022-06-21T07:52:08Z</time>
      </trkpt>
      <trkpt lat="43.40363" lon="2.63169">
        <ele>451.5</ele>
        <time>2022-06-21T07:52:09Z</time>
      </trkpt>
      <trkpt lat="43.40362" lon="2.63169">
        <ele>451.5</ele>
        <time>2022-06-21T07:52:10Z</time>
      </trkpt>
      <trkpt lat="43.40361" lon="2.63168">
        <ele>451.5</ele>
        <time>2022-06-21T07:52:11Z</time>
      </trkpt>
      <trkpt lat="43.4036" lon="2.63168">
        <ele>451.5</ele>
        <time>2022-06-21T07:52:12Z</time>
      </trkpt>
      <trkpt lat="43.40359" lon="2.63167">
        <ele>451.4</ele>
        <time>2022-06-21T07:52:13Z</time>
      </trkpt>
      <trkpt lat="43.40358" lon="2.63167">
        <ele>451.4</ele>
        <time>2022-06-21T07:52:14Z</time>
      </trkpt>
      <trkpt lat="43.40357" lon="2.63167">
        <ele>451.4</ele>
        <time>2022-06-21T07:52:15Z</time>
      </trkpt>
      <trkpt lat="43.40356" lon="2.63167">
        <ele>451.4</ele>
        <time>2022-06-21T07:52:16Z</time>
      </trkpt>
      <trkpt lat="43.40354" lon="2.63166">
        <ele>451.3</ele>
        <time>2022-06-21T07:52:17Z</time>
      </trkpt>
      <trkpt lat="43.40353" lon="2.63166">
        <ele>451.3</ele>
        <time>2022-06-21T07:52:18Z</time>
      </trkpt>
      <trkpt lat="43.40353" lon="2.63166">
        <ele>451.3</ele>
        <time>2022-06-21T07:52:19Z</time>
      </trkpt>
      <trkpt lat="43.40352" lon="2.63165">
        <ele>451.3</ele>
        <time>2022-06-21T07:52:20Z</time>
      </trkpt>
      <trkpt lat="43.40352" lon="2.63165">
        <ele>451.3</ele>
        <time>2022-06-21T07:52:21Z</time>
      </trkpt>
      <trkpt lat="43.40352" lon="2.63165">
        <ele>451.3</ele>
        <time>2022-06-21T07:52:22Z</time>
      </trkpt>
      <trkpt lat="43.40351" lon="2.63165">
        <ele>451.2</ele>
        <time>2022-06-21T07:52:23Z</time>
      </trkpt>
      <trkpt lat="43.4035" lon="2.63164">
        <ele>451.2</ele>
        <time>2022-06-21T07:52:24Z</time>
      </trkpt>
      <trkpt lat="43.40349" lon="2.63164">
        <ele>451.2</ele>
        <time>2022-06-21T07:52:25Z</time>
      </trkpt>
      <trkpt lat="43.40348" lon="2.63164">
        <ele>451.2</ele>
        <time>2022-06-21T07:52:26Z</time>
      </trkpt>
      <trkpt lat="43.40347" lon="2.63164">
        <ele>451.1</ele>
        <time>2022-06-21T07:52:27Z</time>
      </trkpt>
      <trkpt lat="43.40345" lon="2.63163">
        <ele>451.1</ele>
        <time>2022-06-21T07:52:28Z</time>
      </trkpt>
      <trkpt lat="43.40344" lon="2.63163">
        <ele>451.1</ele>
        <time>2022-06-21T07:52:29Z</time>
      </trkpt>
      <trkpt lat="43.40343" lon="2.63163">
        <ele>451</ele>
        <time>2022-06-21T07:52:30Z</time>
      </trkpt>
      <trkpt lat="43.40342" lon="2.63163">
        <ele>451</ele>
        <time>2022-06-21T07:52:31Z</time>
      </trkpt>
      <trkpt lat="43.40341" lon="2.63164">
        <ele>451</ele>
        <time>2022-06-21T07:52:32Z</time>
      </trkpt>
      <trkpt lat="43.4034" lon="2.63164">
        <ele>451</ele>
        <time>2022-06-21T07:52:33Z</time>
      </trkpt>
      <trkpt lat="43.40339" lon="2.63164">
        <ele>451</ele>
        <time>2022-06-21T07:52:34Z</time>
      </trkpt>
      <trkpt lat="43.40338" lon="2.63164">
        <ele>450.9</ele>
        <time>2022-06-21T07:52:35Z</time>
      </trkpt>
      <trkpt lat="43.40337" lon="2.63163">
        <ele>450.9</ele>
        <time>2022-06-21T07:52:36Z</time>
      </trkpt>
      <trkpt lat="43.40337" lon="2.63163">
        <ele>450.9</ele>
        <time>2022-06-21T07:52:37Z</time>
      </trkpt>
      <trkpt lat="43.40336" lon="2.63163">
        <ele>450.9</ele>
        <time>2022-06-21T07:52:38Z</time>
      </trkpt>
      <trkpt lat="43.40336" lon="2.63162">
        <ele>450.9</ele>
        <time>2022-06-21T07:52:39Z</time>
      </trkpt>
      <trkpt lat="43.40335" lon="2.63162">
        <ele>450.8</ele>
        <time>2022-06-21T07:52:40Z</time>
      </trkpt>
      <trkpt lat="43.40335" lon="2.63162">
        <ele>450.8</ele>
        <time>2022-06-21T07:52:41Z</time>
      </trkpt>
      <trkpt lat="43.40334" lon="2.63162">
        <ele>450.8</ele>
        <time>2022-06-21T07:52:42Z</time>
      </trkpt>
      <trkpt lat="43.40334" lon="2.63162">
        <ele>450.8</ele>
        <time>2022-06-21T07:52:43Z</time>
      </trkpt>
      <trkpt lat="43.40334" lon="2.63162">
        <ele>450.8</ele>
        <time>2022-06-21T07:52:44Z</time>
      </trkpt>
      <trkpt lat="43.40334" lon="2.63162">
        <ele>450.8</ele>
        <time>2022-06-21T07:52:45Z</time>
      </trkpt>
      <trkpt lat="43.40334" lon="2.63162">
        <ele>450.8</ele>
        <time>2022-06-21T07:52:46Z</time>
      </trkpt>
      <trkpt lat="43.40333" lon="2.63162">
        <ele>450.8</ele>
        <time>2022-06-21T07:52:47Z</time>
      </trkpt>
      <trkpt lat="43.40332" lon="2.63162">
        <ele>450.8</ele>
        <time>2022-06-21T07:52:48Z</time>
      </trkpt>
      <trkpt lat="43.4033" lon="2.63162">
        <ele>450.7</ele>
        <time>2022-06-21T07:52:49Z</time>
      </trkpt>
      <trkpt lat="43.40329" lon="2.63162">
        <ele>450.7</ele>
        <time>2022-06-21T07:52:50Z</time>
      </trkpt>
      <trkpt lat="43.40328" lon="2.63162">
        <ele>450.6</ele>
        <time>2022-06-21T07:52:51Z</time>
      </trkpt>
      <trkpt lat="43.40326" lon="2.63162">
        <ele>450.6</ele>
        <time>2022-06-21T07:52:52Z</time>
      </trkpt>
      <trkpt lat="43.40325" lon="2.63162">
        <ele>450.6</ele>
        <time>2022-06-21T07:52:53Z</time>
      </trkpt>
      <trkpt lat="43.40324" lon="2.63163">
        <ele>450.5</ele>
        <time>2022-06-21T07:52:54Z</time>
      </trkpt>
      <trkpt lat="43.40322" lon="2.63163">
        <ele>450.5</ele>
        <time>2022-06-21T07:52:55Z</time>
      </trkpt>
      <trkpt lat="43.40321" lon="2.63163">
        <ele>450.5</ele>
        <time>2022-06-21T07:52:56Z</time>
      </trkpt>
      <trkpt lat="43.40319" lon="2.63164">
        <ele>450.4</ele>
        <time>2022-06-21T07:52:57Z</time>
      </trkpt>
      <trkpt lat="43.40318" lon="2.63164">
        <ele>450.4</ele>
        <time>2022-06-21T07:52:58Z</time>
      </trkpt>
      <trkpt lat="43.40317" lon="2.63164">
        <ele>450.4</ele>
        <time>2022-06-21T07:52:59Z</time>
      </trkpt>
      <trkpt lat="43.40316" lon="2.63164">
        <ele>450.3</ele>
        <time>2022-06-21T07:53:00Z</time>
      </trkpt>
      <trkpt lat="43.40315" lon="2.63165">
        <ele>450.3</ele>
        <time>2022-06-21T07:53:01Z</time>
      </trkpt>
      <trkpt lat="43.40313" lon="2.63165">
        <ele>450.3</ele>
        <time>2022-06-21T07:53:02Z</time>
      </trkpt>
      <trkpt lat="43.40312" lon="2.63166">
        <ele>450.2</ele>
        <time>2022-06-21T07:53:03Z</time>
      </trkpt>
      <trkpt lat="43.4031" lon="2.63166">
        <ele>450.2</ele>
        <time>2022-06-21T07:53:04Z</time>
      </trkpt>
      <trkpt lat="43.40309" lon="2.63166">
        <ele>450.1</ele>
        <time>2022-06-21T07:53:05Z</time>
      </trkpt>
      <trkpt lat="43.40308" lon="2.63166">
        <ele>450.1</ele>
        <time>2022-06-21T07:53:06Z</time>
      </trkpt>
      <trkpt lat="43.40307" lon="2.63166">
        <ele>450.1</ele>
        <time>2022-06-21T07:53:07Z</time>
      </trkpt>
      <trkpt lat="43.40307" lon="2.63165">
        <ele>450.1</ele>
        <time>2022-06-21T07:53:08Z</time>
      </trkpt>
      <trkpt lat="43.40306" lon="2.63165">
        <ele>450</ele>
        <time>2022-06-21T07:53:09Z</time>
      </trkpt>
      <trkpt lat="43.40305" lon="2.63166">
        <ele>450</ele>
        <time>2022-06-21T07:53:10Z</time>
      </trkpt>
      <trkpt lat="43.40303" lon="2.63167">
        <ele>449.9</ele>
        <time>2022-06-21T07:53:11Z</time>
      </trkpt>
      <trkpt lat="43.40302" lon="2.63167">
        <ele>449.9</ele>
        <time>2022-06-21T07:53:12Z</time>
      </trkpt>
      <trkpt lat="43.40301" lon="2.63168">
        <ele>449.9</ele>
        <time>2022-06-21T07:53:13Z</time>
      </trkpt>
      <trkpt lat="43.403" lon="2.63168">
        <ele>449.8</ele>
        <time>2022-06-21T07:53:14Z</time>
      </trkpt>
      <trkpt lat="43.40299" lon="2.63168">
        <ele>449.8</ele>
        <time>2022-06-21T07:53:15Z</time>
      </trkpt>
      <trkpt lat="43.40298" lon="2.63168">
        <ele>449.8</ele>
        <time>2022-06-21T07:53:16Z</time>
      </trkpt>
      <trkpt lat="43.40298" lon="2.63168">
        <ele>449.8</ele>
        <time>2022-06-21T07:53:17Z</time>
      </trkpt>
      <trkpt lat="43.40297" lon="2.63167">
        <ele>449.7</ele>
        <time>2022-06-21T07:53:18Z</time>
      </trkpt>
      <trkpt lat="43.40296" lon="2.63167">
        <ele>449.7</ele>
        <time>2022-06-21T07:53:19Z</time>
      </trkpt>
      <trkpt lat="43.40295" lon="2.63167">
        <ele>449.7</ele>
        <time>2022-06-21T07:53:20Z</time>
      </trkpt>
      <trkpt lat="43.40293" lon="2.63168">
        <ele>449.6</ele>
        <time>2022-06-21T07:53:21Z</time>
      </trkpt>
      <trkpt lat="43.40292" lon="2.63168">
        <ele>449.6</ele>
        <time>2022-06-21T07:53:22Z</time>
      </trkpt>
      <trkpt lat="43.40291" lon="2.63168">
        <ele>449.6</ele>
        <time>2022-06-21T07:53:23Z</time>
      </trkpt>
      <trkpt lat="43.4029" lon="2.63168">
        <ele>449.5</ele>
        <time>2022-06-21T07:53:24Z</time>
      </trkpt>
      <trkpt lat="43.40289" lon="2.63168">
        <ele>449.5</ele>
        <time>2022-06-21T07:53:25Z</time>
      </trkpt>
      <trkpt lat="43.40288" lon="2.63168">
        <ele>449.5</ele>
        <time>2022-06-21T07:53:26Z</time>
      </trkpt>
      <trkpt lat="43.40287" lon="2.63168">
        <ele>449.4</ele>
        <time>2022-06-21T07:53:27Z</time>
      </trkpt>
      <trkpt lat="43.40286" lon="2.63168">
        <ele>449.4</ele>
        <time>2022-06-21T07:53:28Z</time>
      </trkpt>
      <trkpt lat="43.40285" lon="2.63168">
        <ele>449.4</ele>
        <time>2022-06-21T07:53:29Z</time>
      </trkpt>
      <trkpt lat="43.40284" lon="2.63168">
        <ele>449.3</ele>
        <time>2022-06-21T07:53:30Z</time>
      </trkpt>
      <trkpt lat="43.40283" lon="2.63168">
        <ele>449.3</ele>
        <time>2022-06-21T07:53:31Z</time>
      </trkpt>
      <trkpt lat="43.40282" lon="2.63168">
        <ele>449.3</ele>
        <time>2022-06-21T07:53:32Z</time>
      </trkpt>
      <trkpt lat="43.40281" lon="2.63167">
        <ele>449.2</ele>
        <time>2022-06-21T07:53:33Z</time>
      </trkpt>
      <trkpt lat="43.4028" lon="2.63167">
        <ele>449.2</ele>
        <time>2022-06-21T07:53:34Z</time>
      </trkpt>
      <trkpt lat="43.40278" lon="2.63167">
        <ele>449.1</ele>
        <time>2022-06-21T07:53:35Z</time>
      </trkpt>
      <trkpt lat="43.40277" lon="2.63166">
        <ele>449.1</ele>
        <time>2022-06-21T07:53:36Z</time>
      </trkpt>
      <trkpt lat="43.40276" lon="2.63166">
        <ele>449.1</ele>
        <time>2022-06-21T07:53:37Z</time>
      </trkpt>
      <trkpt lat="43.40275" lon="2.63166">
        <ele>449</ele>
        <time>2022-06-21T07:53:38Z</time>
      </trkpt>
      <trkpt lat="43.40274" lon="2.63166">
        <ele>449</ele>
        <time>2022-06-21T07:53:39Z</time>
      </trkpt>
      <trkpt lat="43.40273" lon="2.63166">
        <ele>449</ele>
        <time>2022-06-21T07:53:40Z</time>
      </trkpt>
      <trkpt lat="43.40272" lon="2.63166">
        <ele>448.9</ele>
        <time>2022-06-21T07:53:41Z</time>
      </trkpt>
      <trkpt lat="43.40271" lon="2.63166">
        <ele>448.9</ele>
        <time>2022-06-21T07:53:42Z</time>
      </trkpt>
      <trkpt lat="43.4027" lon="2.63166">
        <ele>448.9</ele>
        <time>2022-06-21T07:53:43Z</time>
      </trkpt>
      <trkpt lat="43.40269" lon="2.63166">
        <ele>448.8</ele>
        <time>2022-06-21T07:53:44Z</time>
      </trkpt>
      <trkpt lat="43.40268" lon="2.63166">
        <ele>448.8</ele>
        <time>2022-06-21T07:53:45Z</time>
      </trkpt>
      <trkpt lat="43.40267" lon="2.63166">
        <ele>448.8</ele>
        <time>2022-06-21T07:53:46Z</time>
      </trkpt>
      <trkpt lat="43.40266" lon="2.63166">
        <ele>448.7</ele>
        <time>2022-06-21T07:53:47Z</time>
      </trkpt>
      <trkpt lat="43.40265" lon="2.63166">
        <ele>448.7</ele>
        <time>2022-06-21T07:53:48Z</time>
      </trkpt>
      <trkpt lat="43.40264" lon="2.63166">
        <ele>448.7</ele>
        <time>2022-06-21T07:53:49Z</time>
      </trkpt>
      <trkpt lat="43.40263" lon="2.63166">
        <ele>448.6</ele>
        <time>2022-06-21T07:53:50Z</time>
      </trkpt>
      <trkpt lat="43.40262" lon="2.63166">
        <ele>448.6</ele>
        <time>2022-06-21T07:53:51Z</time>
      </trkpt>
      <trkpt lat="43.40261" lon="2.63166">
        <ele>448.6</ele>
        <time>2022-06-21T07:53:52Z</time>
      </trkpt>
      <trkpt lat="43.4026" lon="2.63166">
        <ele>448.5</ele>
        <time>2022-06-21T07:53:53Z</time>
      </trkpt>
      <trkpt lat="43.40259" lon="2.63166">
        <ele>448.5</ele>
        <time>2022-06-21T07:53:54Z</time>
      </trkpt>
      <trkpt lat="43.40258" lon="2.63166">
        <ele>448.5</ele>
        <time>2022-06-21T07:53:55Z</time>
      </trkpt>
      <trkpt lat="43.40258" lon="2.63166">
        <ele>448.4</ele>
        <time>2022-06-21T07:53:56Z</time>
      </trkpt>
      <trkpt lat="43.40257" lon="2.63166">
        <ele>448.4</ele>
        <time>2022-06-21T07:53:57Z</time>
      </trkpt>
      <trkpt lat="43.40256" lon="2.63166">
        <ele>448.4</ele>
        <time>2022-06-21T07:53:58Z</time>
      </trkpt>
      <trkpt lat="43.40255" lon="2.63166">
        <ele>448.3</ele>
        <time>2022-06-21T07:53:59Z</time>
      </trkpt>
      <trkpt lat="43.40254" lon="2.63166">
        <ele>448.3</ele>
        <time>2022-06-21T07:54:00Z</time>
      </trkpt>
      <trkpt lat="43.40253" lon="2.63166">
        <ele>448.3</ele>
        <time>2022-06-21T07:54:01Z</time>
      </trkpt>
      <trkpt lat="43.40252" lon="2.63166">
        <ele>448.3</ele>
        <time>2022-06-21T07:54:02Z</time>
      </trkpt>
      <trkpt lat="43.40251" lon="2.63166">
        <ele>448.2</ele>
        <time>2022-06-21T07:54:03Z</time>
      </trkpt>
      <trkpt lat="43.4025" lon="2.63166">
        <ele>448.2</ele>
        <time>2022-06-21T07:54:04Z</time>
      </trkpt>
      <trkpt lat="43.40249" lon="2.63166">
        <ele>448.2</ele>
        <time>2022-06-21T07:54:05Z</time>
      </trkpt>
      <trkpt lat="43.40248" lon="2.63166">
        <ele>448.1</ele>
        <time>2022-06-21T07:54:06Z</time>
      </trkpt>
      <trkpt lat="43.40247" lon="2.63166">
        <ele>448.1</ele>
        <time>2022-06-21T07:54:07Z</time>
      </trkpt>
      <trkpt lat="43.40246" lon="2.63166">
        <ele>448.1</ele>
        <time>2022-06-21T07:54:08Z</time>
      </trkpt>
      <trkpt lat="43.40245" lon="2.63166">
        <ele>448</ele>
        <time>2022-06-21T07:54:09Z</time>
      </trkpt>
      <trkpt lat="43.40244" lon="2.63165">
        <ele>448</ele>
        <time>2022-06-21T07:54:10Z</time>
      </trkpt>
      <trkpt lat="43.40243" lon="2.63165">
        <ele>448</ele>
        <time>2022-06-21T07:54:11Z</time>
      </trkpt>
      <trkpt lat="43.40242" lon="2.63165">
        <ele>447.9</ele>
        <time>2022-06-21T07:54:12Z</time>
      </trkpt>
      <trkpt lat="43.40241" lon="2.63165">
        <ele>447.9</ele>
        <time>2022-06-21T07:54:13Z</time>
      </trkpt>
      <trkpt lat="43.4024" lon="2.63165">
        <ele>447.9</ele>
        <time>2022-06-21T07:54:14Z</time>
      </trkpt>
      <trkpt lat="43.40238" lon="2.63165">
        <ele>447.8</ele>
        <time>2022-06-21T07:54:15Z</time>
      </trkpt>
      <trkpt lat="43.40237" lon="2.63164">
        <ele>447.8</ele>
        <time>2022-06-21T07:54:16Z</time>
      </trkpt>
      <trkpt lat="43.40235" lon="2.63164">
        <ele>447.7</ele>
        <time>2022-06-21T07:54:17Z</time>
      </trkpt>
      <trkpt lat="43.40234" lon="2.63164">
        <ele>447.7</ele>
        <time>2022-06-21T07:54:18Z</time>
      </trkpt>
      <trkpt lat="43.40234" lon="2.63164">
        <ele>447.7</ele>
        <time>2022-06-21T07:54:19Z</time>
      </trkpt>
      <trkpt lat="43.40232" lon="2.63163">
        <ele>447.6</ele>
        <time>2022-06-21T07:54:20Z</time>
      </trkpt>
      <trkpt lat="43.40231" lon="2.63163">
        <ele>447.6</ele>
        <time>2022-06-21T07:54:21Z</time>
      </trkpt>
      <trkpt lat="43.4023" lon="2.63163">
        <ele>447.6</ele>
        <time>2022-06-21T07:54:22Z</time>
      </trkpt>
      <trkpt lat="43.40229" lon="2.63163">
        <ele>447.5</ele>
        <time>2022-06-21T07:54:23Z</time>
      </trkpt>
      <trkpt lat="43.40228" lon="2.63163">
        <ele>447.5</ele>
        <time>2022-06-21T07:54:24Z</time>
      </trkpt>
      <trkpt lat="43.40226" lon="2.63164">
        <ele>447.4</ele>
        <time>2022-06-21T07:54:25Z</time>
      </trkpt>
      <trkpt lat="43.40225" lon="2.63164">
        <ele>447.4</ele>
        <time>2022-06-21T07:54:26Z</time>
      </trkpt>
      <trkpt lat="43.40224" lon="2.63164">
        <ele>447.4</ele>
        <time>2022-06-21T07:54:27Z</time>
      </trkpt>
      <trkpt lat="43.40223" lon="2.63164">
        <ele>447.3</ele>
        <time>2022-06-21T07:54:28Z</time>
      </trkpt>
      <trkpt lat="43.40222" lon="2.63164">
        <ele>447.3</ele>
        <time>2022-06-21T07:54:29Z</time>
      </trkpt>
      <trkpt lat="43.40221" lon="2.63163">
        <ele>447.3</ele>
        <time>2022-06-21T07:54:30Z</time>
      </trkpt>
      <trkpt lat="43.4022" lon="2.63163">
        <ele>447.2</ele>
        <time>2022-06-21T07:54:31Z</time>
      </trkpt>
      <trkpt lat="43.40219" lon="2.63163">
        <ele>447.2</ele>
        <time>2022-06-21T07:54:32Z</time>
      </trkpt>
      <trkpt lat="43.40218" lon="2.63163">
        <ele>447.2</ele>
        <time>2022-06-21T07:54:33Z</time>
      </trkpt>
      <trkpt lat="43.40217" lon="2.63163">
        <ele>447.1</ele>
        <time>2022-06-21T07:54:34Z</time>
      </trkpt>
      <trkpt lat="43.40217" lon="2.63163">
        <ele>447.1</ele>
        <time>2022-06-21T07:54:35Z</time>
      </trkpt>
      <trkpt lat="43.40216" lon="2.63162">
        <ele>447.1</ele>
        <time>2022-06-21T07:54:36Z</time>
      </trkpt>
      <trkpt lat="43.40215" lon="2.63162">
        <ele>447.1</ele>
        <time>2022-06-21T07:54:37Z</time>
      </trkpt>
      <trkpt lat="43.40214" lon="2.63163">
        <ele>446.6</ele>
        <time>2022-06-21T07:54:38Z</time>
      </trkpt>
      <trkpt lat="43.40213" lon="2.63163">
        <ele>446.3</ele>
        <time>2022-06-21T07:54:39Z</time>
      </trkpt>
      <trkpt lat="43.40213" lon="2.63164">
        <ele>446.2</ele>
        <time>2022-06-21T07:54:40Z</time>
      </trkpt>
      <trkpt lat="43.40212" lon="2.63164">
        <ele>446.2</ele>
        <time>2022-06-21T07:54:41Z</time>
      </trkpt>
      <trkpt lat="43.40212" lon="2.63164">
        <ele>446.1</ele>
        <time>2022-06-21T07:54:42Z</time>
      </trkpt>
      <trkpt lat="43.40212" lon="2.63165">
        <ele>446</ele>
        <time>2022-06-21T07:54:43Z</time>
      </trkpt>
      <trkpt lat="43.40212" lon="2.63165">
        <ele>445.9</ele>
        <time>2022-06-21T07:54:44Z</time>
      </trkpt>
      <trkpt lat="43.40211" lon="2.63165">
        <ele>445.8</ele>
        <time>2022-06-21T07:54:45Z</time>
      </trkpt>
      <trkpt lat="43.40211" lon="2.63166">
        <ele>445.7</ele>
        <time>2022-06-21T07:54:46Z</time>
      </trkpt>
      <trkpt lat="43.40211" lon="2.63166">
        <ele>445.6</ele>
        <time>2022-06-21T07:54:47Z</time>
      </trkpt>
      <trkpt lat="43.40211" lon="2.63166">
        <ele>445.6</ele>
        <time>2022-06-21T07:54:48Z</time>
      </trkpt>
      <trkpt lat="43.4021" lon="2.63168">
        <ele>445.3</ele>
        <time>2022-06-21T07:54:49Z</time>
      </trkpt>
      <trkpt lat="43.4021" lon="2.63168">
        <ele>445.2</ele>
        <time>2022-06-21T07:54:50Z</time>
      </trkpt>
      <trkpt lat="43.4021" lon="2.63169">
        <ele>445.1</ele>
        <time>2022-06-21T07:54:51Z</time>
      </trkpt>
      <trkpt lat="43.4021" lon="2.63169">
        <ele>445</ele>
        <time>2022-06-21T07:54:52Z</time>
      </trkpt>
      <trkpt lat="43.40209" lon="2.63169">
        <ele>444.9</ele>
        <time>2022-06-21T07:54:53Z</time>
      </trkpt>
      <trkpt lat="43.40209" lon="2.6317">
        <ele>444.8</ele>
        <time>2022-06-21T07:54:54Z</time>
      </trkpt>
      <trkpt lat="43.40209" lon="2.63171">
        <ele>444.5</ele>
        <time>2022-06-21T07:54:55Z</time>
      </trkpt>
      <trkpt lat="43.4021" lon="2.63172">
        <ele>444.4</ele>
        <time>2022-06-21T07:54:56Z</time>
      </trkpt>
      <trkpt lat="43.4021" lon="2.63172">
        <ele>444.4</ele>
        <time>2022-06-21T07:54:57Z</time>
      </trkpt>
      <trkpt lat="43.4021" lon="2.63172">
        <ele>444.4</ele>
        <time>2022-06-21T07:54:58Z</time>
      </trkpt>
      <trkpt lat="43.4021" lon="2.63172">
        <ele>444.3</ele>
        <time>2022-06-21T07:54:59Z</time>
      </trkpt>
      <trkpt lat="43.4021" lon="2.63173">
        <ele>444.2</ele>
        <time>2022-06-21T07:55:00Z</time>
      </trkpt>
      <trkpt lat="43.4021" lon="2.63173">
        <ele>444.2</ele>
        <time>2022-06-21T07:55:01Z</time>
      </trkpt>
      <trkpt lat="43.40211" lon="2.63173">
        <ele>444</ele>
        <time>2022-06-21T07:55:02Z</time>
      </trkpt>
      <trkpt lat="43.40211" lon="2.63173">
        <ele>443.9</ele>
        <time>2022-06-21T07:55:03Z</time>
      </trkpt>
      <trkpt lat="43.40212" lon="2.63173">
        <ele>443.7</ele>
        <time>2022-06-21T07:55:04Z</time>
      </trkpt>
      <trkpt lat="43.40213" lon="2.63174">
        <ele>443.5</ele>
        <time>2022-06-21T07:55:05Z</time>
      </trkpt>
      <trkpt lat="43.40214" lon="2.63174">
        <ele>443.3</ele>
        <time>2022-06-21T07:55:06Z</time>
      </trkpt>
      <trkpt lat="43.40214" lon="2.63175">
        <ele>443</ele>
        <time>2022-06-21T07:55:07Z</time>
      </trkpt>
      <trkpt lat="43.40215" lon="2.63176">
        <ele>442.7</ele>
        <time>2022-06-21T07:55:08Z</time>
      </trkpt>
      <trkpt lat="43.40216" lon="2.63176">
        <ele>442.5</ele>
        <time>2022-06-21T07:55:09Z</time>
      </trkpt>
      <trkpt lat="43.40217" lon="2.63177">
        <ele>442.3</ele>
        <time>2022-06-21T07:55:10Z</time>
      </trkpt>
      <trkpt lat="43.40218" lon="2.63178">
        <ele>442.1</ele>
        <time>2022-06-21T07:55:11Z</time>
      </trkpt>
      <trkpt lat="43.40218" lon="2.63179">
        <ele>441.8</ele>
        <time>2022-06-21T07:55:12Z</time>
      </trkpt>
      <trkpt lat="43.40219" lon="2.6318">
        <ele>441.6</ele>
        <time>2022-06-21T07:55:13Z</time>
      </trkpt>
      <trkpt lat="43.4022" lon="2.63181">
        <ele>441.3</ele>
        <time>2022-06-21T07:55:14Z</time>
      </trkpt>
      <trkpt lat="43.40221" lon="2.63181">
        <ele>441.1</ele>
        <time>2022-06-21T07:55:15Z</time>
      </trkpt>
      <trkpt lat="43.40222" lon="2.63182">
        <ele>441</ele>
        <time>2022-06-21T07:55:16Z</time>
      </trkpt>
      <trkpt lat="43.40222" lon="2.63183">
        <ele>440.7</ele>
        <time>2022-06-21T07:55:17Z</time>
      </trkpt>
      <trkpt lat="43.40223" lon="2.63183">
        <ele>440.6</ele>
        <time>2022-06-21T07:55:18Z</time>
      </trkpt>
      <trkpt lat="43.40224" lon="2.63184">
        <ele>440.4</ele>
        <time>2022-06-21T07:55:19Z</time>
      </trkpt>
      <trkpt lat="43.40224" lon="2.63184">
        <ele>440.2</ele>
        <time>2022-06-21T07:55:20Z</time>
      </trkpt>
      <trkpt lat="43.40225" lon="2.63185">
        <ele>440</ele>
        <time>2022-06-21T07:55:21Z</time>
      </trkpt>
      <trkpt lat="43.40226" lon="2.63186">
        <ele>439.9</ele>
        <time>2022-06-21T07:55:22Z</time>
      </trkpt>
      <trkpt lat="43.40227" lon="2.63186">
        <ele>439.7</ele>
        <time>2022-06-21T07:55:23Z</time>
      </trkpt>
      <trkpt lat="43.40227" lon="2.63186">
        <ele>439.5</ele>
        <time>2022-06-21T07:55:24Z</time>
      </trkpt>
      <trkpt lat="43.40228" lon="2.63186">
        <ele>439.4</ele>
        <time>2022-06-21T07:55:25Z</time>
      </trkpt>
      <trkpt lat="43.40229" lon="2.63187">
        <ele>439.2</ele>
        <time>2022-06-21T07:55:26Z</time>
      </trkpt>
      <trkpt lat="43.4023" lon="2.63187">
        <ele>439</ele>
        <time>2022-06-21T07:55:27Z</time>
      </trkpt>
      <trkpt lat="43.4023" lon="2.63188">
        <ele>438.9</ele>
        <time>2022-06-21T07:55:28Z</time>
      </trkpt>
      <trkpt lat="43.40231" lon="2.63189">
        <ele>438.7</ele>
        <time>2022-06-21T07:55:29Z</time>
      </trkpt>
      <trkpt lat="43.40231" lon="2.63189">
        <ele>438.5</ele>
        <time>2022-06-21T07:55:30Z</time>
      </trkpt>
      <trkpt lat="43.40232" lon="2.6319">
        <ele>438.4</ele>
        <time>2022-06-21T07:55:31Z</time>
      </trkpt>
      <trkpt lat="43.40233" lon="2.6319">
        <ele>438.2</ele>
        <time>2022-06-21T07:55:32Z</time>
      </trkpt>
      <trkpt lat="43.40233" lon="2.6319">
        <ele>438.1</ele>
        <time>2022-06-21T07:55:33Z</time>
      </trkpt>
      <trkpt lat="43.40234" lon="2.6319">
        <ele>437.9</ele>
        <time>2022-06-21T07:55:34Z</time>
      </trkpt>
      <trkpt lat="43.40236" lon="2.6319">
        <ele>437.6</ele>
        <time>2022-06-21T07:55:35Z</time>
      </trkpt>
      <trkpt lat="43.40236" lon="2.63191">
        <ele>437.4</ele>
        <time>2022-06-21T07:55:36Z</time>
      </trkpt>
      <trkpt lat="43.40237" lon="2.63191">
        <ele>437.3</ele>
        <time>2022-06-21T07:55:37Z</time>
      </trkpt>
      <trkpt lat="43.40238" lon="2.63191">
        <ele>437.2</ele>
        <time>2022-06-21T07:55:38Z</time>
      </trkpt>
      <trkpt lat="43.40238" lon="2.63191">
        <ele>437.2</ele>
        <time>2022-06-21T07:55:39Z</time>
      </trkpt>
      <trkpt lat="43.40239" lon="2.63191">
        <ele>437.2</ele>
        <time>2022-06-21T07:55:40Z</time>
      </trkpt>
      <trkpt lat="43.4024" lon="2.63192">
        <ele>437.2</ele>
        <time>2022-06-21T07:55:41Z</time>
      </trkpt>
      <trkpt lat="43.4024" lon="2.63193">
        <ele>437.2</ele>
        <time>2022-06-21T07:55:42Z</time>
      </trkpt>
      <trkpt lat="43.40241" lon="2.63194">
        <ele>437.1</ele>
        <time>2022-06-21T07:55:43Z</time>
      </trkpt>
      <trkpt lat="43.40242" lon="2.63195">
        <ele>437.1</ele>
        <time>2022-06-21T07:55:44Z</time>
      </trkpt>
      <trkpt lat="43.40242" lon="2.63197">
        <ele>437.1</ele>
        <time>2022-06-21T07:55:45Z</time>
      </trkpt>
      <trkpt lat="43.40243" lon="2.63198">
        <ele>437.1</ele>
        <time>2022-06-21T07:55:46Z</time>
      </trkpt>
      <trkpt lat="43.40243" lon="2.63199">
        <ele>437.1</ele>
        <time>2022-06-21T07:55:47Z</time>
      </trkpt>
      <trkpt lat="43.40244" lon="2.63201">
        <ele>437</ele>
        <time>2022-06-21T07:55:48Z</time>
      </trkpt>
      <trkpt lat="43.40244" lon="2.63202">
        <ele>437</ele>
        <time>2022-06-21T07:55:49Z</time>
      </trkpt>
      <trkpt lat="43.40244" lon="2.63204">
        <ele>437</ele>
        <time>2022-06-21T07:55:50Z</time>
      </trkpt>
      <trkpt lat="43.40245" lon="2.63205">
        <ele>437</ele>
        <time>2022-06-21T07:55:51Z</time>
      </trkpt>
      <trkpt lat="43.40246" lon="2.63206">
        <ele>437</ele>
        <time>2022-06-21T07:55:52Z</time>
      </trkpt>
      <trkpt lat="43.40246" lon="2.63207">
        <ele>437</ele>
        <time>2022-06-21T07:55:53Z</time>
      </trkpt>
      <trkpt lat="43.40247" lon="2.63208">
        <ele>437</ele>
        <time>2022-06-21T07:55:54Z</time>
      </trkpt>
      <trkpt lat="43.40248" lon="2.63208">
        <ele>436.9</ele>
        <time>2022-06-21T07:55:55Z</time>
      </trkpt>
      <trkpt lat="43.40249" lon="2.63208">
        <ele>436.9</ele>
        <time>2022-06-21T07:55:56Z</time>
      </trkpt>
      <trkpt lat="43.40251" lon="2.63207">
        <ele>436.9</ele>
        <time>2022-06-21T07:55:57Z</time>
      </trkpt>
      <trkpt lat="43.40252" lon="2.63206">
        <ele>436.9</ele>
        <time>2022-06-21T07:55:58Z</time>
      </trkpt>
      <trkpt lat="43.40253" lon="2.63205">
        <ele>436.9</ele>
        <time>2022-06-21T07:55:59Z</time>
      </trkpt>
      <trkpt lat="43.40255" lon="2.63204">
        <ele>436.9</ele>
        <time>2022-06-21T07:56:00Z</time>
      </trkpt>
      <trkpt lat="43.40256" lon="2.63203">
        <ele>436.9</ele>
        <time>2022-06-21T07:56:01Z</time>
      </trkpt>
      <trkpt lat="43.40257" lon="2.63202">
        <ele>436.9</ele>
        <time>2022-06-21T07:56:02Z</time>
      </trkpt>
      <trkpt lat="43.40258" lon="2.63201">
        <ele>436.9</ele>
        <time>2022-06-21T07:56:03Z</time>
      </trkpt>
      <trkpt lat="43.40261" lon="2.63198">
        <ele>436.9</ele>
        <time>2022-06-21T07:56:04Z</time>
      </trkpt>
      <trkpt lat="43.40261" lon="2.63197">
        <ele>436.9</ele>
        <time>2022-06-21T07:56:05Z</time>
      </trkpt>
      <trkpt lat="43.40261" lon="2.63197">
        <ele>436.9</ele>
        <time>2022-06-21T07:56:06Z</time>
      </trkpt>
      <trkpt lat="43.40261" lon="2.63196">
        <ele>436.9</ele>
        <time>2022-06-21T07:56:07Z</time>
      </trkpt>
      <trkpt lat="43.40261" lon="2.63196">
        <ele>436.9</ele>
        <time>2022-06-21T07:56:08Z</time>
      </trkpt>
      <trkpt lat="43.40262" lon="2.63197">
        <ele>436.9</ele>
        <time>2022-06-21T07:56:09Z</time>
      </trkpt>
      <trkpt lat="43.40263" lon="2.63197">
        <ele>436.9</ele>
        <time>2022-06-21T07:56:10Z</time>
      </trkpt>
      <trkpt lat="43.40264" lon="2.63198">
        <ele>436.9</ele>
        <time>2022-06-21T07:56:11Z</time>
      </trkpt>
      <trkpt lat="43.40264" lon="2.63198">
        <ele>436.9</ele>
        <time>2022-06-21T07:56:12Z</time>
      </trkpt>
      <trkpt lat="43.40264" lon="2.63198">
        <ele>436.9</ele>
        <time>2022-06-21T07:56:13Z</time>
      </trkpt>
      <trkpt lat="43.40264" lon="2.63198">
        <ele>436.9</ele>
        <time>2022-06-21T07:56:14Z</time>
      </trkpt>
      <trkpt lat="43.40264" lon="2.63198">
        <ele>436.9</ele>
        <time>2022-06-21T07:56:15Z</time>
      </trkpt>
      <trkpt lat="43.40264" lon="2.63198">
        <ele>436.9</ele>
        <time>2022-06-21T07:56:16Z</time>
      </trkpt>
      <trkpt lat="43.40264" lon="2.63198">
        <ele>436.9</ele>
        <time>2022-06-21T07:56:17Z</time>
      </trkpt>
      <trkpt lat="43.40264" lon="2.63198">
        <ele>436.9</ele>
        <time>2022-06-21T07:56:18Z</time>
      </trkpt>
      <trkpt lat="43.40264" lon="2.63198">
        <ele>436.9</ele>
        <time>2022-06-21T07:56:19Z</time>
      </trkpt>
      <trkpt lat="43.40265" lon="2.63199">
        <ele>436.9</ele>
        <time>2022-06-21T07:56:20Z</time>
      </trkpt>
      <trkpt lat="43.40265" lon="2.632">
        <ele>436.9</ele>
        <time>2022-06-21T07:56:21Z</time>
      </trkpt>
      <trkpt lat="43.40266" lon="2.63201">
        <ele>436.9</ele>
        <time>2022-06-21T07:56:22Z</time>
      </trkpt>
      <trkpt lat="43.40266" lon="2.63202">
        <ele>436.9</ele>
        <time>2022-06-21T07:56:23Z</time>
      </trkpt>
      <trkpt lat="43.40266" lon="2.63203">
        <ele>436.9</ele>
        <time>2022-06-21T07:56:24Z</time>
      </trkpt>
      <trkpt lat="43.40267" lon="2.63205">
        <ele>436.9</ele>
        <time>2022-06-21T07:56:25Z</time>
      </trkpt>
      <trkpt lat="43.40267" lon="2.63206">
        <ele>437</ele>
        <time>2022-06-21T07:56:26Z</time>
      </trkpt>
      <trkpt lat="43.40267" lon="2.63207">
        <ele>437</ele>
        <time>2022-06-21T07:56:27Z</time>
      </trkpt>
      <trkpt lat="43.40268" lon="2.63209">
        <ele>437</ele>
        <time>2022-06-21T07:56:28Z</time>
      </trkpt>
      <trkpt lat="43.40268" lon="2.63211">
        <ele>437</ele>
        <time>2022-06-21T07:56:29Z</time>
      </trkpt>
      <trkpt lat="43.40269" lon="2.63214">
        <ele>437</ele>
        <time>2022-06-21T07:56:30Z</time>
      </trkpt>
      <trkpt lat="43.40269" lon="2.63215">
        <ele>437</ele>
        <time>2022-06-21T07:56:31Z</time>
      </trkpt>
      <trkpt lat="43.40269" lon="2.63216">
        <ele>437</ele>
        <time>2022-06-21T07:56:32Z</time>
      </trkpt>
      <trkpt lat="43.4027" lon="2.63216">
        <ele>437</ele>
        <time>2022-06-21T07:56:33Z</time>
      </trkpt>
      <trkpt lat="43.40271" lon="2.63216">
        <ele>437</ele>
        <time>2022-06-21T07:56:34Z</time>
      </trkpt>
      <trkpt lat="43.40271" lon="2.63216">
        <ele>437</ele>
        <time>2022-06-21T07:56:35Z</time>
      </trkpt>
      <trkpt lat="43.40272" lon="2.63216">
        <ele>437</ele>
        <time>2022-06-21T07:56:36Z</time>
      </trkpt>
      <trkpt lat="43.40272" lon="2.63216">
        <ele>437</ele>
        <time>2022-06-21T07:56:37Z</time>
      </trkpt>
      <trkpt lat="43.40272" lon="2.63217">
        <ele>437</ele>
        <time>2022-06-21T07:56:38Z</time>
      </trkpt>
      <trkpt lat="43.40272" lon="2.63216">
        <ele>437</ele>
        <time>2022-06-21T07:56:39Z</time>
      </trkpt>
      <trkpt lat="43.40272" lon="2.63216">
        <ele>437</ele>
        <time>2022-06-21T07:56:40Z</time>
      </trkpt>
      <trkpt lat="43.40272" lon="2.63216">
        <ele>437</ele>
        <time>2022-06-21T07:56:41Z</time>
      </trkpt>
      <trkpt lat="43.40272" lon="2.63216">
        <ele>437</ele>
        <time>2022-06-21T07:56:42Z</time>
      </trkpt>
      <trkpt lat="43.40272" lon="2.63216">
        <ele>437</ele>
        <time>2022-06-21T07:56:43Z</time>
      </trkpt>
      <trkpt lat="43.40272" lon="2.63217">
        <ele>437</ele>
        <time>2022-06-21T07:56:44Z</time>
      </trkpt>
      <trkpt lat="43.40272" lon="2.63217">
        <ele>437</ele>
        <time>2022-06-21T07:56:45Z</time>
      </trkpt>
      <trkpt lat="43.40272" lon="2.63218">
        <ele>437</ele>
        <time>2022-06-21T07:56:46Z</time>
      </trkpt>
      <trkpt lat="43.40272" lon="2.63219">
        <ele>437</ele>
        <time>2022-06-21T07:56:47Z</time>
      </trkpt>
      <trkpt lat="43.40272" lon="2.6322">
        <ele>437</ele>
        <time>2022-06-21T07:56:48Z</time>
      </trkpt>
      <trkpt lat="43.40272" lon="2.6322">
        <ele>437</ele>
        <time>2022-06-21T07:56:49Z</time>
      </trkpt>
      <trkpt lat="43.40272" lon="2.6322">
        <ele>437</ele>
        <time>2022-06-21T07:56:50Z</time>
      </trkpt>
      <trkpt lat="43.40272" lon="2.63221">
        <ele>437</ele>
        <time>2022-06-21T07:56:51Z</time>
      </trkpt>
      <trkpt lat="43.40273" lon="2.63221">
        <ele>437</ele>
        <time>2022-06-21T07:56:52Z</time>
      </trkpt>
      <trkpt lat="43.40273" lon="2.63222">
        <ele>437</ele>
        <time>2022-06-21T07:56:53Z</time>
      </trkpt>
      <trkpt lat="43.40274" lon="2.63223">
        <ele>437</ele>
        <time>2022-06-21T07:56:54Z</time>
      </trkpt>
      <trkpt lat="43.40274" lon="2.63223">
        <ele>437</ele>
        <time>2022-06-21T07:56:55Z</time>
      </trkpt>
      <trkpt lat="43.40276" lon="2.63225">
        <ele>437</ele>
        <time>2022-06-21T07:56:56Z</time>
      </trkpt>
      <trkpt lat="43.40277" lon="2.63225">
        <ele>437</ele>
        <time>2022-06-21T07:56:57Z</time>
      </trkpt>
      <trkpt lat="43.40277" lon="2.63226">
        <ele>437</ele>
        <time>2022-06-21T07:56:58Z</time>
      </trkpt>
      <trkpt lat="43.40277" lon="2.63226">
        <ele>437</ele>
        <time>2022-06-21T07:56:59Z</time>
      </trkpt>
      <trkpt lat="43.40278" lon="2.63227">
        <ele>437</ele>
        <time>2022-06-21T07:57:00Z</time>
      </trkpt>
      <trkpt lat="43.40278" lon="2.63228">
        <ele>437.1</ele>
        <time>2022-06-21T07:57:01Z</time>
      </trkpt>
      <trkpt lat="43.40279" lon="2.63229">
        <ele>437.1</ele>
        <time>2022-06-21T07:57:02Z</time>
      </trkpt>
      <trkpt lat="43.40279" lon="2.6323">
        <ele>437.1</ele>
        <time>2022-06-21T07:57:03Z</time>
      </trkpt>
      <trkpt lat="43.4028" lon="2.6323">
        <ele>437.1</ele>
        <time>2022-06-21T07:57:04Z</time>
      </trkpt>
      <trkpt lat="43.40281" lon="2.63231">
        <ele>437.1</ele>
        <time>2022-06-21T07:57:05Z</time>
      </trkpt>
      <trkpt lat="43.40281" lon="2.63232">
        <ele>437.1</ele>
        <time>2022-06-21T07:57:06Z</time>
      </trkpt>
      <trkpt lat="43.40282" lon="2.63234">
        <ele>437.1</ele>
        <time>2022-06-21T07:57:07Z</time>
      </trkpt>
      <trkpt lat="43.40283" lon="2.63235">
        <ele>437.1</ele>
        <time>2022-06-21T07:57:08Z</time>
      </trkpt>
      <trkpt lat="43.40283" lon="2.63237">
        <ele>437.1</ele>
        <time>2022-06-21T07:57:09Z</time>
      </trkpt>
      <trkpt lat="43.40283" lon="2.63238">
        <ele>437.1</ele>
        <time>2022-06-21T07:57:10Z</time>
      </trkpt>
      <trkpt lat="43.40284" lon="2.6324">
        <ele>437.1</ele>
        <time>2022-06-21T07:57:11Z</time>
      </trkpt>
      <trkpt lat="43.40284" lon="2.63241">
        <ele>438.4</ele>
        <time>2022-06-21T07:57:12Z</time>
      </trkpt>
      <trkpt lat="43.40284" lon="2.63242">
        <ele>438.6</ele>
        <time>2022-06-21T07:57:13Z</time>
      </trkpt>
      <trkpt lat="43.40284" lon="2.63244">
        <ele>438.7</ele>
        <time>2022-06-21T07:57:14Z</time>
      </trkpt>
      <trkpt lat="43.40284" lon="2.63245">
        <ele>438.9</ele>
        <time>2022-06-21T07:57:15Z</time>
      </trkpt>
      <trkpt lat="43.40284" lon="2.63246">
        <ele>439</ele>
        <time>2022-06-21T07:57:16Z</time>
      </trkpt>
      <trkpt lat="43.40284" lon="2.63247">
        <ele>439.1</ele>
        <time>2022-06-21T07:57:17Z</time>
      </trkpt>
      <trkpt lat="43.40284" lon="2.63248">
        <ele>439.2</ele>
        <time>2022-06-21T07:57:18Z</time>
      </trkpt>
      <trkpt lat="43.40284" lon="2.63249">
        <ele>439.4</ele>
        <time>2022-06-21T07:57:19Z</time>
      </trkpt>
      <trkpt lat="43.40283" lon="2.6325">
        <ele>439.5</ele>
        <time>2022-06-21T07:57:20Z</time>
      </trkpt>
      <trkpt lat="43.40283" lon="2.63251">
        <ele>439.6</ele>
        <time>2022-06-21T07:57:21Z</time>
      </trkpt>
      <trkpt lat="43.40282" lon="2.63252">
        <ele>439.8</ele>
        <time>2022-06-21T07:57:22Z</time>
      </trkpt>
      <trkpt lat="43.40281" lon="2.63253">
        <ele>439.9</ele>
        <time>2022-06-21T07:57:23Z</time>
      </trkpt>
      <trkpt lat="43.40281" lon="2.63254">
        <ele>440.1</ele>
        <time>2022-06-21T07:57:24Z</time>
      </trkpt>
      <trkpt lat="43.4028" lon="2.63254">
        <ele>440.2</ele>
        <time>2022-06-21T07:57:25Z</time>
      </trkpt>
      <trkpt lat="43.4028" lon="2.63255">
        <ele>440.3</ele>
        <time>2022-06-21T07:57:26Z</time>
      </trkpt>
      <trkpt lat="43.40279" lon="2.63255">
        <ele>440.4</ele>
        <time>2022-06-21T07:57:27Z</time>
      </trkpt>
      <trkpt lat="43.40278" lon="2.63255">
        <ele>440.5</ele>
        <time>2022-06-21T07:57:28Z</time>
      </trkpt>
      <trkpt lat="43.40278" lon="2.63255">
        <ele>440.6</ele>
        <time>2022-06-21T07:57:29Z</time>
      </trkpt>
      <trkpt lat="43.40277" lon="2.63255">
        <ele>440.7</ele>
        <time>2022-06-21T07:57:30Z</time>
      </trkpt>
      <trkpt lat="43.40276" lon="2.63255">
        <ele>440.8</ele>
        <time>2022-06-21T07:57:31Z</time>
      </trkpt>
      <trkpt lat="43.40275" lon="2.63255">
        <ele>440.9</ele>
        <time>2022-06-21T07:57:32Z</time>
      </trkpt>
      <trkpt lat="43.40275" lon="2.63255">
        <ele>441</ele>
        <time>2022-06-21T07:57:33Z</time>
      </trkpt>
      <trkpt lat="43.40274" lon="2.63254">
        <ele>441.2</ele>
        <time>2022-06-21T07:57:34Z</time>
      </trkpt>
      <trkpt lat="43.40272" lon="2.63254">
        <ele>441.4</ele>
        <time>2022-06-21T07:57:35Z</time>
      </trkpt>
      <trkpt lat="43.40272" lon="2.63254">
        <ele>441.5</ele>
        <time>2022-06-21T07:57:36Z</time>
      </trkpt>
      <trkpt lat="43.40271" lon="2.63254">
        <ele>441.6</ele>
        <time>2022-06-21T07:57:37Z</time>
      </trkpt>
      <trkpt lat="43.4027" lon="2.63254">
        <ele>441.7</ele>
        <time>2022-06-21T07:57:38Z</time>
      </trkpt>
      <trkpt lat="43.4027" lon="2.63255">
        <ele>441.8</ele>
        <time>2022-06-21T07:57:39Z</time>
      </trkpt>
      <trkpt lat="43.40269" lon="2.63255">
        <ele>441.9</ele>
        <time>2022-06-21T07:57:40Z</time>
      </trkpt>
      <trkpt lat="43.40268" lon="2.63255">
        <ele>442</ele>
        <time>2022-06-21T07:57:41Z</time>
      </trkpt>
      <trkpt lat="43.40268" lon="2.63255">
        <ele>442.1</ele>
        <time>2022-06-21T07:57:42Z</time>
      </trkpt>
      <trkpt lat="43.40267" lon="2.63255">
        <ele>442.2</ele>
        <time>2022-06-21T07:57:43Z</time>
      </trkpt>
      <trkpt lat="43.40266" lon="2.63255">
        <ele>442.3</ele>
        <time>2022-06-21T07:57:44Z</time>
      </trkpt>
      <trkpt lat="43.40265" lon="2.63256">
        <ele>442.4</ele>
        <time>2022-06-21T07:57:45Z</time>
      </trkpt>
      <trkpt lat="43.40265" lon="2.63256">
        <ele>442.5</ele>
        <time>2022-06-21T07:57:46Z</time>
      </trkpt>
      <trkpt lat="43.40264" lon="2.63257">
        <ele>442.6</ele>
        <time>2022-06-21T07:57:47Z</time>
      </trkpt>
      <trkpt lat="43.40263" lon="2.63257">
        <ele>442.7</ele>
        <time>2022-06-21T07:57:48Z</time>
      </trkpt>
      <trkpt lat="43.40263" lon="2.63257">
        <ele>442.8</ele>
        <time>2022-06-21T07:57:49Z</time>
      </trkpt>
      <trkpt lat="43.40262" lon="2.63257">
        <ele>442.9</ele>
        <time>2022-06-21T07:57:50Z</time>
      </trkpt>
      <trkpt lat="43.40262" lon="2.63258">
        <ele>443</ele>
        <time>2022-06-21T07:57:51Z</time>
      </trkpt>
      <trkpt lat="43.40261" lon="2.63258">
        <ele>443</ele>
        <time>2022-06-21T07:57:52Z</time>
      </trkpt>
      <trkpt lat="43.40261" lon="2.63258">
        <ele>443.1</ele>
        <time>2022-06-21T07:57:53Z</time>
      </trkpt>
      <trkpt lat="43.4026" lon="2.63258">
        <ele>443.2</ele>
        <time>2022-06-21T07:57:54Z</time>
      </trkpt>
      <trkpt lat="43.4026" lon="2.63258">
        <ele>443.3</ele>
        <time>2022-06-21T07:57:55Z</time>
      </trkpt>
      <trkpt lat="43.40258" lon="2.63257">
        <ele>443.5</ele>
        <time>2022-06-21T07:57:56Z</time>
      </trkpt>
      <trkpt lat="43.40258" lon="2.63257">
        <ele>443.6</ele>
        <time>2022-06-21T07:57:57Z</time>
      </trkpt>
      <trkpt lat="43.40257" lon="2.63257">
        <ele>443.6</ele>
        <time>2022-06-21T07:57:58Z</time>
      </trkpt>
      <trkpt lat="43.40256" lon="2.63257">
        <ele>443.7</ele>
        <time>2022-06-21T07:57:59Z</time>
      </trkpt>
      <trkpt lat="43.40256" lon="2.63257">
        <ele>443.8</ele>
        <time>2022-06-21T07:58:00Z</time>
      </trkpt>
      <trkpt lat="43.40254" lon="2.63257">
        <ele>444.1</ele>
        <time>2022-06-21T07:58:01Z</time>
      </trkpt>
      <trkpt lat="43.40254" lon="2.63257">
        <ele>444.2</ele>
        <time>2022-06-21T07:58:02Z</time>
      </trkpt>
      <trkpt lat="43.40253" lon="2.63257">
        <ele>444.2</ele>
        <time>2022-06-21T07:58:03Z</time>
      </trkpt>
      <trkpt lat="43.40253" lon="2.63257">
        <ele>444.2</ele>
        <time>2022-06-21T07:58:04Z</time>
      </trkpt>
      <trkpt lat="43.40253" lon="2.63257">
        <ele>444.3</ele>
        <time>2022-06-21T07:58:05Z</time>
      </trkpt>
      <trkpt lat="43.40251" lon="2.63258">
        <ele>444.6</ele>
        <time>2022-06-21T07:58:06Z</time>
      </trkpt>
      <trkpt lat="43.4025" lon="2.63259">
        <ele>444.8</ele>
        <time>2022-06-21T07:58:07Z</time>
      </trkpt>
      <trkpt lat="43.40249" lon="2.63259">
        <ele>444.8</ele>
        <time>2022-06-21T07:58:08Z</time>
      </trkpt>
      <trkpt lat="43.40249" lon="2.63259">
        <ele>444.9</ele>
        <time>2022-06-21T07:58:09Z</time>
      </trkpt>
      <trkpt lat="43.40248" lon="2.63259">
        <ele>445</ele>
        <time>2022-06-21T07:58:10Z</time>
      </trkpt>
      <trkpt lat="43.40248" lon="2.63259">
        <ele>445</ele>
        <time>2022-06-21T07:58:11Z</time>
      </trkpt>
      <trkpt lat="43.40247" lon="2.63259">
        <ele>445.1</ele>
        <time>2022-06-21T07:58:12Z</time>
      </trkpt>
      <trkpt lat="43.40247" lon="2.63259">
        <ele>445.2</ele>
        <time>2022-06-21T07:58:13Z</time>
      </trkpt>
      <trkpt lat="43.40246" lon="2.63259">
        <ele>445.2</ele>
        <time>2022-06-21T07:58:14Z</time>
      </trkpt>
      <trkpt lat="43.40246" lon="2.63259">
        <ele>445.3</ele>
        <time>2022-06-21T07:58:15Z</time>
      </trkpt>
      <trkpt lat="43.40246" lon="2.63259">
        <ele>445.4</ele>
        <time>2022-06-21T07:58:16Z</time>
      </trkpt>
      <trkpt lat="43.40244" lon="2.63259">
        <ele>445.6</ele>
        <time>2022-06-21T07:58:17Z</time>
      </trkpt>
      <trkpt lat="43.40243" lon="2.63259">
        <ele>445.7</ele>
        <time>2022-06-21T07:58:18Z</time>
      </trkpt>
      <trkpt lat="43.40243" lon="2.63259">
        <ele>445.7</ele>
        <time>2022-06-21T07:58:19Z</time>
      </trkpt>
      <trkpt lat="43.40243" lon="2.63259">
        <ele>445.8</ele>
        <time>2022-06-21T07:58:20Z</time>
      </trkpt>
      <trkpt lat="43.40241" lon="2.6326">
        <ele>446</ele>
        <time>2022-06-21T07:58:21Z</time>
      </trkpt>
      <trkpt lat="43.40241" lon="2.6326">
        <ele>446.1</ele>
        <time>2022-06-21T07:58:22Z</time>
      </trkpt>
      <trkpt lat="43.40241" lon="2.6326">
        <ele>446.1</ele>
        <time>2022-06-21T07:58:23Z</time>
      </trkpt>
      <trkpt lat="43.4024" lon="2.6326">
        <ele>446.1</ele>
        <time>2022-06-21T07:58:24Z</time>
      </trkpt>
      <trkpt lat="43.4024" lon="2.6326">
        <ele>446.3</ele>
        <time>2022-06-21T07:58:25Z</time>
      </trkpt>
      <trkpt lat="43.40239" lon="2.6326">
        <ele>446.4</ele>
        <time>2022-06-21T07:58:26Z</time>
      </trkpt>
      <trkpt lat="43.40238" lon="2.63261">
        <ele>446.5</ele>
        <time>2022-06-21T07:58:27Z</time>
      </trkpt>
      <trkpt lat="43.40238" lon="2.63261">
        <ele>446.5</ele>
        <time>2022-06-21T07:58:28Z</time>
      </trkpt>
      <trkpt lat="43.40238" lon="2.63261">
        <ele>446.5</ele>
        <time>2022-06-21T07:58:29Z</time>
      </trkpt>
      <trkpt lat="43.40238" lon="2.63261">
        <ele>446.5</ele>
        <time>2022-06-21T07:58:30Z</time>
      </trkpt>
      <trkpt lat="43.40238" lon="2.63261">
        <ele>446.5</ele>
        <time>2022-06-21T07:58:31Z</time>
      </trkpt>
      <trkpt lat="43.40238" lon="2.63261">
        <ele>446.5</ele>
        <time>2022-06-21T07:58:32Z</time>
      </trkpt>
      <trkpt lat="43.40238" lon="2.63261">
        <ele>446.5</ele>
        <time>2022-06-21T07:58:33Z</time>
      </trkpt>
      <trkpt lat="43.40238" lon="2.63261">
        <ele>446.5</ele>
        <time>2022-06-21T07:58:34Z</time>
      </trkpt>
      <trkpt lat="43.40238" lon="2.63261">
        <ele>446.5</ele>
        <time>2022-06-21T07:58:35Z</time>
      </trkpt>
      <trkpt lat="43.40238" lon="2.63261">
        <ele>446.5</ele>
        <time>2022-06-21T07:58:36Z</time>
      </trkpt>
      <trkpt lat="43.40237" lon="2.63261">
        <ele>446.7</ele>
        <time>2022-06-21T07:58:37Z</time>
      </trkpt>
      <trkpt lat="43.40236" lon="2.63261">
        <ele>446.9</ele>
        <time>2022-06-21T07:58:38Z</time>
      </trkpt>
      <trkpt lat="43.40235" lon="2.63261">
        <ele>447</ele>
        <time>2022-06-21T07:58:39Z</time>
      </trkpt>
      <trkpt lat="43.40235" lon="2.63261">
        <ele>447</ele>
        <time>2022-06-21T07:58:40Z</time>
      </trkpt>
      <trkpt lat="43.40235" lon="2.63261">
        <ele>447</ele>
        <time>2022-06-21T07:58:41Z</time>
      </trkpt>
      <trkpt lat="43.40233" lon="2.63262">
        <ele>447.2</ele>
        <time>2022-06-21T07:58:42Z</time>
      </trkpt>
      <trkpt lat="43.40232" lon="2.63262">
        <ele>447.4</ele>
        <time>2022-06-21T07:58:43Z</time>
      </trkpt>
      <trkpt lat="43.40232" lon="2.63262">
        <ele>447.4</ele>
        <time>2022-06-21T07:58:44Z</time>
      </trkpt>
      <trkpt lat="43.40231" lon="2.63263">
        <ele>447.5</ele>
        <time>2022-06-21T07:58:45Z</time>
      </trkpt>
      <trkpt lat="43.40231" lon="2.63263">
        <ele>447.5</ele>
        <time>2022-06-21T07:58:46Z</time>
      </trkpt>
      <trkpt lat="43.40231" lon="2.63263">
        <ele>447.5</ele>
        <time>2022-06-21T07:58:47Z</time>
      </trkpt>
      <trkpt lat="43.4023" lon="2.63263">
        <ele>447.6</ele>
        <time>2022-06-21T07:58:48Z</time>
      </trkpt>
      <trkpt lat="43.4023" lon="2.63263">
        <ele>447.6</ele>
        <time>2022-06-21T07:58:49Z</time>
      </trkpt>
      <trkpt lat="43.4023" lon="2.63263">
        <ele>447.7</ele>
        <time>2022-06-21T07:58:50Z</time>
      </trkpt>
      <trkpt lat="43.40228" lon="2.63264">
        <ele>447.9</ele>
        <time>2022-06-21T07:58:51Z</time>
      </trkpt>
      <trkpt lat="43.40227" lon="2.63264">
        <ele>448</ele>
        <time>2022-06-21T07:58:52Z</time>
      </trkpt>
      <trkpt lat="43.40227" lon="2.63264">
        <ele>448.1</ele>
        <time>2022-06-21T07:58:53Z</time>
      </trkpt>
      <trkpt lat="43.40227" lon="2.63264">
        <ele>448.1</ele>
        <time>2022-06-21T07:58:54Z</time>
      </trkpt>
      <trkpt lat="43.40227" lon="2.63264">
        <ele>448.1</ele>
        <time>2022-06-21T07:58:55Z</time>
      </trkpt>
      <trkpt lat="43.40227" lon="2.63264">
        <ele>448.1</ele>
        <time>2022-06-21T07:58:56Z</time>
      </trkpt>
      <trkpt lat="43.40227" lon="2.63264">
        <ele>448.1</ele>
        <time>2022-06-21T07:58:57Z</time>
      </trkpt>
      <trkpt lat="43.40227" lon="2.63264">
        <ele>448.1</ele>
        <time>2022-06-21T07:58:58Z</time>
      </trkpt>
      <trkpt lat="43.40227" lon="2.63264">
        <ele>448.1</ele>
        <time>2022-06-21T07:58:59Z</time>
      </trkpt>
      <trkpt lat="43.40227" lon="2.63264">
        <ele>448.1</ele>
        <time>2022-06-21T07:59:00Z</time>
      </trkpt>
      <trkpt lat="43.40227" lon="2.63264">
        <ele>448.1</ele>
        <time>2022-06-21T07:59:01Z</time>
      </trkpt>
      <trkpt lat="43.40227" lon="2.63264">
        <ele>448.1</ele>
        <time>2022-06-21T07:59:02Z</time>
      </trkpt>
      <trkpt lat="43.40227" lon="2.63264">
        <ele>448.1</ele>
        <time>2022-06-21T07:59:03Z</time>
      </trkpt>
      <trkpt lat="43.40224" lon="2.63265">
        <ele>448.5</ele>
        <time>2022-06-21T07:59:04Z</time>
      </trkpt>
      <trkpt lat="43.40221" lon="2.63266">
        <ele>448.9</ele>
        <time>2022-06-21T07:59:05Z</time>
      </trkpt>
      <trkpt lat="43.40219" lon="2.63267">
        <ele>449.2</ele>
        <time>2022-06-21T07:59:06Z</time>
      </trkpt>
      <trkpt lat="43.40216" lon="2.63267">
        <ele>449.5</ele>
        <time>2022-06-21T07:59:07Z</time>
      </trkpt>
      <trkpt lat="43.40216" lon="2.63267">
        <ele>449.6</ele>
        <time>2022-06-21T07:59:08Z</time>
      </trkpt>
      <trkpt lat="43.40212" lon="2.63268">
        <ele>450.1</ele>
        <time>2022-06-21T07:59:09Z</time>
      </trkpt>
      <trkpt lat="43.40209" lon="2.63269">
        <ele>450.5</ele>
        <time>2022-06-21T07:59:10Z</time>
      </trkpt>
      <trkpt lat="43.40208" lon="2.63269">
        <ele>450.7</ele>
        <time>2022-06-21T07:59:11Z</time>
      </trkpt>
      <trkpt lat="43.40205" lon="2.6327">
        <ele>451.1</ele>
        <time>2022-06-21T07:59:12Z</time>
      </trkpt>
      <trkpt lat="43.40204" lon="2.6327">
        <ele>451.3</ele>
        <time>2022-06-21T07:59:13Z</time>
      </trkpt>
      <trkpt lat="43.40204" lon="2.6327">
        <ele>451.4</ele>
        <time>2022-06-21T07:59:14Z</time>
      </trkpt>
      <trkpt lat="43.40201" lon="2.63271">
        <ele>451.8</ele>
        <time>2022-06-21T07:59:15Z</time>
      </trkpt>
      <trkpt lat="43.40199" lon="2.63271">
        <ele>452.1</ele>
        <time>2022-06-21T07:59:16Z</time>
      </trkpt>
      <trkpt lat="43.40198" lon="2.63271">
        <ele>452.2</ele>
        <time>2022-06-21T07:59:17Z</time>
      </trkpt>
      <trkpt lat="43.40198" lon="2.63271">
        <ele>452.2</ele>
        <time>2022-06-21T07:59:18Z</time>
      </trkpt>
      <trkpt lat="43.40198" lon="2.63271">
        <ele>452.3</ele>
        <time>2022-06-21T07:59:19Z</time>
      </trkpt>
      <trkpt lat="43.40198" lon="2.63271">
        <ele>452.3</ele>
        <time>2022-06-21T07:59:20Z</time>
      </trkpt>
      <trkpt lat="43.40198" lon="2.63271">
        <ele>452.3</ele>
        <time>2022-06-21T07:59:21Z</time>
      </trkpt>
      <trkpt lat="43.40197" lon="2.63271">
        <ele>452.5</ele>
        <time>2022-06-21T07:59:22Z</time>
      </trkpt>
      <trkpt lat="43.40196" lon="2.63271">
        <ele>452.6</ele>
        <time>2022-06-21T07:59:23Z</time>
      </trkpt>
      <trkpt lat="43.40195" lon="2.63271">
        <ele>452.7</ele>
        <time>2022-06-21T07:59:24Z</time>
      </trkpt>
      <trkpt lat="43.40195" lon="2.63271">
        <ele>452.7</ele>
        <time>2022-06-21T07:59:25Z</time>
      </trkpt>
      <trkpt lat="43.40195" lon="2.63271">
        <ele>452.7</ele>
        <time>2022-06-21T07:59:26Z</time>
      </trkpt>
      <trkpt lat="43.40195" lon="2.63271">
        <ele>452.7</ele>
        <time>2022-06-21T07:59:27Z</time>
      </trkpt>
      <trkpt lat="43.40195" lon="2.63271">
        <ele>452.7</ele>
        <time>2022-06-21T07:59:28Z</time>
      </trkpt>
      <trkpt lat="43.40195" lon="2.63271">
        <ele>452.7</ele>
        <time>2022-06-21T07:59:29Z</time>
      </trkpt>
      <trkpt lat="43.40195" lon="2.63271">
        <ele>452.7</ele>
        <time>2022-06-21T07:59:30Z</time>
      </trkpt>
      <trkpt lat="43.40195" lon="2.63271">
        <ele>452.7</ele>
        <time>2022-06-21T07:59:31Z</time>
      </trkpt>
      <trkpt lat="43.40195" lon="2.63271">
        <ele>452.7</ele>
        <time>2022-06-21T07:59:32Z</time>
      </trkpt>
      <trkpt lat="43.40195" lon="2.63271">
        <ele>452.7</ele>
        <time>2022-06-21T07:59:33Z</time>
      </trkpt>
      <trkpt lat="43.40195" lon="2.63271">
        <ele>452.7</ele>
        <time>2022-06-21T07:59:34Z</time>
      </trkpt>
      <trkpt lat="43.40195" lon="2.63271">
        <ele>452.7</ele>
        <time>2022-06-21T07:59:35Z</time>
      </trkpt>
      <trkpt lat="43.40195" lon="2.63271">
        <ele>452.7</ele>
        <time>2022-06-21T07:59:36Z</time>
      </trkpt>
      <trkpt lat="43.40195" lon="2.63271">
        <ele>452.7</ele>
        <time>2022-06-21T07:59:37Z</time>
      </trkpt>
      <trkpt lat="43.40195" lon="2.63271">
        <ele>452.7</ele>
        <time>2022-06-21T07:59:38Z</time>
      </trkpt>
      <trkpt lat="43.40195" lon="2.63271">
        <ele>452.7</ele>
        <time>2022-06-21T07:59:39Z</time>
      </trkpt>
      <trkpt lat="43.40195" lon="2.63271">
        <ele>452.7</ele>
        <time>2022-06-21T07:59:40Z</time>
      </trkpt>
      <trkpt lat="43.40195" lon="2.63271">
        <ele>452.7</ele>
        <time>2022-06-21T07:59:41Z</time>
      </trkpt>
      <trkpt lat="43.40195" lon="2.63271">
        <ele>452.7</ele>
        <time>2022-06-21T07:59:42Z</time>
      </trkpt>
      <trkpt lat="43.40195" lon="2.63271">
        <ele>452.7</ele>
        <time>2022-06-21T07:59:43Z</time>
      </trkpt>
      <trkpt lat="43.40195" lon="2.63271">
        <ele>452.7</ele>
        <time>2022-06-21T07:59:44Z</time>
      </trkpt>
      <trkpt lat="43.40195" lon="2.63271">
        <ele>452.7</ele>
        <time>2022-06-21T07:59:45Z</time>
      </trkpt>
      <trkpt lat="43.40195" lon="2.63271">
        <ele>452.7</ele>
        <time>2022-06-21T07:59:46Z</time>
      </trkpt>
      <trkpt lat="43.40195" lon="2.63271">
        <ele>452.7</ele>
        <time>2022-06-21T07:59:47Z</time>
      </trkpt>
      <trkpt lat="43.40195" lon="2.63271">
        <ele>452.7</ele>
        <time>2022-06-21T07:59:48Z</time>
      </trkpt>
      <trkpt lat="43.40195" lon="2.63271">
        <ele>452.7</ele>
        <time>2022-06-21T07:59:49Z</time>
      </trkpt>
      <trkpt lat="43.40195" lon="2.63271">
        <ele>452.7</ele>
        <time>2022-06-21T07:59:50Z</time>
      </trkpt>
      <trkpt lat="43.40195" lon="2.63271">
        <ele>452.7</ele>
        <time>2022-06-21T07:59:51Z</time>
      </trkpt>
      <trkpt lat="43.40195" lon="2.63272">
        <ele>452.8</ele>
        <time>2022-06-21T07:59:52Z</time>
      </trkpt>
      <trkpt lat="43.40194" lon="2.63271">
        <ele>452.9</ele>
        <time>2022-06-21T07:59:53Z</time>
      </trkpt>
      <trkpt lat="43.40193" lon="2.63271">
        <ele>453.1</ele>
        <time>2022-06-21T07:59:54Z</time>
      </trkpt>
      <trkpt lat="43.40192" lon="2.63271">
        <ele>453.3</ele>
        <time>2022-06-21T07:59:55Z</time>
      </trkpt>
      <trkpt lat="43.40188" lon="2.6327">
        <ele>453.9</ele>
        <time>2022-06-21T07:59:56Z</time>
      </trkpt>
      <trkpt lat="43.40185" lon="2.6327">
        <ele>454.3</ele>
        <time>2022-06-21T07:59:57Z</time>
      </trkpt>
      <trkpt lat="43.40182" lon="2.63269">
        <ele>454.6</ele>
        <time>2022-06-21T07:59:58Z</time>
      </trkpt>
      <trkpt lat="43.40182" lon="2.63269">
        <ele>454.7</ele>
        <time>2022-06-21T07:59:59Z</time>
      </trkpt>
      <trkpt lat="43.40181" lon="2.63269">
        <ele>454.8</ele>
        <time>2022-06-21T08:00:00Z</time>
      </trkpt>
      <trkpt lat="43.40181" lon="2.63269">
        <ele>454.8</ele>
        <time>2022-06-21T08:00:01Z</time>
      </trkpt>
      <trkpt lat="43.40181" lon="2.63269">
        <ele>454.8</ele>
        <time>2022-06-21T08:00:02Z</time>
      </trkpt>
      <trkpt lat="43.40181" lon="2.63269">
        <ele>454.8</ele>
        <time>2022-06-21T08:00:03Z</time>
      </trkpt>
      <trkpt lat="43.40181" lon="2.63269">
        <ele>454.8</ele>
        <time>2022-06-21T08:00:04Z</time>
      </trkpt>
      <trkpt lat="43.40181" lon="2.63269">
        <ele>454.8</ele>
        <time>2022-06-21T08:00:05Z</time>
      </trkpt>
      <trkpt lat="43.40181" lon="2.63269">
        <ele>454.8</ele>
        <time>2022-06-21T08:00:06Z</time>
      </trkpt>
      <trkpt lat="43.40181" lon="2.63269">
        <ele>454.8</ele>
        <time>2022-06-21T08:00:07Z</time>
      </trkpt>
      <trkpt lat="43.40181" lon="2.63269">
        <ele>454.8</ele>
        <time>2022-06-21T08:00:08Z</time>
      </trkpt>
      <trkpt lat="43.40181" lon="2.63269">
        <ele>454.8</ele>
        <time>2022-06-21T08:00:09Z</time>
      </trkpt>
      <trkpt lat="43.40181" lon="2.63269">
        <ele>454.8</ele>
        <time>2022-06-21T08:00:10Z</time>
      </trkpt>
      <trkpt lat="43.40181" lon="2.63269">
        <ele>454.8</ele>
        <time>2022-06-21T08:00:11Z</time>
      </trkpt>
      <trkpt lat="43.40181" lon="2.63269">
        <ele>454.8</ele>
        <time>2022-06-21T08:00:12Z</time>
      </trkpt>
      <trkpt lat="43.40181" lon="2.63269">
        <ele>454.8</ele>
        <time>2022-06-21T08:00:13Z</time>
      </trkpt>
      <trkpt lat="43.40181" lon="2.63269">
        <ele>454.8</ele>
        <time>2022-06-21T08:00:14Z</time>
      </trkpt>
      <trkpt lat="43.40181" lon="2.63269">
        <ele>454.8</ele>
        <time>2022-06-21T08:00:15Z</time>
      </trkpt>
      <trkpt lat="43.40181" lon="2.63269">
        <ele>454.8</ele>
        <time>2022-06-21T08:00:16Z</time>
      </trkpt>
      <trkpt lat="43.40181" lon="2.63269">
        <ele>454.8</ele>
        <time>2022-06-21T08:00:17Z</time>
      </trkpt>
      <trkpt lat="43.40181" lon="2.63269">
        <ele>454.8</ele>
        <time>2022-06-21T08:00:18Z</time>
      </trkpt>
      <trkpt lat="43.40181" lon="2.63269">
        <ele>454.8</ele>
        <time>2022-06-21T08:00:19Z</time>
      </trkpt>
      <trkpt lat="43.40181" lon="2.63269">
        <ele>454.8</ele>
        <time>2022-06-21T08:00:20Z</time>
      </trkpt>
      <trkpt lat="43.40181" lon="2.63269">
        <ele>454.8</ele>
        <time>2022-06-21T08:00:21Z</time>
      </trkpt>
      <trkpt lat="43.40181" lon="2.63269">
        <ele>454.8</ele>
        <time>2022-06-21T08:00:22Z</time>
      </trkpt>
      <trkpt lat="43.40181" lon="2.63269">
        <ele>454.8</ele>
        <time>2022-06-21T08:00:23Z</time>
      </trkpt>
      <trkpt lat="43.40181" lon="2.63269">
        <ele>454.8</ele>
        <time>2022-06-21T08:00:24Z</time>
      </trkpt>
      <trkpt lat="43.40181" lon="2.63269">
        <ele>454.8</ele>
        <time>2022-06-21T08:00:25Z</time>
      </trkpt>
      <trkpt lat="43.40181" lon="2.63269">
        <ele>454.8</ele>
        <time>2022-06-21T08:00:26Z</time>
      </trkpt>
      <trkpt lat="43.40181" lon="2.63269">
        <ele>454.8</ele>
        <time>2022-06-21T08:00:27Z</time>
      </trkpt>
      <trkpt lat="43.40181" lon="2.63269">
        <ele>454.8</ele>
        <time>2022-06-21T08:00:28Z</time>
      </trkpt>
      <trkpt lat="43.40181" lon="2.63269">
        <ele>454.8</ele>
        <time>2022-06-21T08:00:29Z</time>
      </trkpt>
      <trkpt lat="43.40181" lon="2.63269">
        <ele>454.8</ele>
        <time>2022-06-21T08:00:30Z</time>
      </trkpt>
      <trkpt lat="43.40181" lon="2.63269">
        <ele>454.8</ele>
        <time>2022-06-21T08:00:31Z</time>
      </trkpt>
      <trkpt lat="43.40181" lon="2.63269">
        <ele>454.8</ele>
        <time>2022-06-21T08:00:32Z</time>
      </trkpt>
      <trkpt lat="43.40181" lon="2.63269">
        <ele>454.8</ele>
        <time>2022-06-21T08:00:33Z</time>
      </trkpt>
      <trkpt lat="43.40181" lon="2.63269">
        <ele>454.8</ele>
        <time>2022-06-21T08:00:34Z</time>
      </trkpt>
      <trkpt lat="43.40181" lon="2.63269">
        <ele>454.8</ele>
        <time>2022-06-21T08:00:35Z</time>
      </trkpt>
      <trkpt lat="43.40181" lon="2.63269">
        <ele>454.8</ele>
        <time>2022-06-21T08:00:36Z</time>
      </trkpt>
      <trkpt lat="43.40181" lon="2.63269">
        <ele>454.8</ele>
        <time>2022-06-21T08:00:37Z</time>
      </trkpt>
      <trkpt lat="43.40181" lon="2.63269">
        <ele>454.8</ele>
        <time>2022-06-21T08:00:38Z</time>
      </trkpt>
      <trkpt lat="43.40181" lon="2.63269">
        <ele>454.8</ele>
        <time>2022-06-21T08:00:39Z</time>
      </trkpt>
      <trkpt lat="43.40181" lon="2.63269">
        <ele>454.8</ele>
        <time>2022-06-21T08:00:40Z</time>
      </trkpt>
      <trkpt lat="43.40181" lon="2.63269">
        <ele>454.8</ele>
        <time>2022-06-21T08:00:41Z</time>
      </trkpt>
      <trkpt lat="43.40181" lon="2.63269">
        <ele>454.8</ele>
        <time>2022-06-21T08:00:42Z</time>
      </trkpt>
      <trkpt lat="43.40181" lon="2.63269">
        <ele>454.8</ele>
        <time>2022-06-21T08:00:43Z</time>
      </trkpt>
      <trkpt lat="43.40181" lon="2.63269">
        <ele>454.8</ele>
        <time>2022-06-21T08:00:44Z</time>
      </trkpt>
      <trkpt lat="43.40181" lon="2.63269">
        <ele>454.8</ele>
        <time>2022-06-21T08:00:45Z</time>
      </trkpt>
      <trkpt lat="43.40181" lon="2.63269">
        <ele>454.8</ele>
        <time>2022-06-21T08:00:46Z</time>
      </trkpt>
      <trkpt lat="43.40181" lon="2.63269">
        <ele>454.8</ele>
        <time>2022-06-21T08:00:47Z</time>
      </trkpt>
      <trkpt lat="43.40181" lon="2.63269">
        <ele>454.8</ele>
        <time>2022-06-21T08:00:48Z</time>
      </trkpt>
      <trkpt lat="43.40181" lon="2.63269">
        <ele>454.8</ele>
        <time>2022-06-21T08:00:49Z</time>
      </trkpt>
      <trkpt lat="43.40181" lon="2.63269">
        <ele>454.8</ele>
        <time>2022-06-21T08:00:50Z</time>
      </trkpt>
      <trkpt lat="43.40181" lon="2.63269">
        <ele>454.8</ele>
        <time>2022-06-21T08:00:51Z</time>
      </trkpt>
      <trkpt lat="43.40181" lon="2.63269">
        <ele>454.8</ele>
        <time>2022-06-21T08:00:52Z</time>
      </trkpt>
      <trkpt lat="43.40181" lon="2.63269">
        <ele>454.8</ele>
        <time>2022-06-21T08:00:53Z</time>
      </trkpt>
      <trkpt lat="43.40181" lon="2.63269">
        <ele>454.8</ele>
        <time>2022-06-21T08:00:54Z</time>
      </trkpt>
      <trkpt lat="43.40181" lon="2.63269">
        <ele>454.8</ele>
        <time>2022-06-21T08:00:55Z</time>
      </trkpt>
      <trkpt lat="43.40181" lon="2.63269">
        <ele>454.8</ele>
        <time>2022-06-21T08:00:56Z</time>
      </trkpt>
      <trkpt lat="43.40181" lon="2.63269">
        <ele>454.8</ele>
        <time>2022-06-21T08:00:57Z</time>
      </trkpt>
      <trkpt lat="43.40181" lon="2.63269">
        <ele>454.8</ele>
        <time>2022-06-21T08:00:58Z</time>
      </trkpt>
      <trkpt lat="43.40181" lon="2.63269">
        <ele>454.8</ele>
        <time>2022-06-21T08:00:59Z</time>
      </trkpt>
      <trkpt lat="43.40181" lon="2.63269">
        <ele>454.8</ele>
        <time>2022-06-21T08:01:00Z</time>
      </trkpt>
      <trkpt lat="43.40181" lon="2.63269">
        <ele>454.8</ele>
        <time>2022-06-21T08:01:01Z</time>
      </trkpt>
      <trkpt lat="43.40181" lon="2.63269">
        <ele>454.8</ele>
        <time>2022-06-21T08:01:02Z</time>
      </trkpt>
      <trkpt lat="43.40181" lon="2.63269">
        <ele>454.8</ele>
        <time>2022-06-21T08:01:03Z</time>
      </trkpt>
      <trkpt lat="43.40181" lon="2.63269">
        <ele>454.8</ele>
        <time>2022-06-21T08:01:04Z</time>
      </trkpt>
      <trkpt lat="43.40181" lon="2.63269">
        <ele>454.8</ele>
        <time>2022-06-21T08:01:05Z</time>
      </trkpt>
      <trkpt lat="43.40181" lon="2.63269">
        <ele>454.8</ele>
        <time>2022-06-21T08:01:06Z</time>
      </trkpt>
      <trkpt lat="43.40181" lon="2.63269">
        <ele>454.8</ele>
        <time>2022-06-21T08:01:07Z</time>
      </trkpt>
      <trkpt lat="43.40181" lon="2.63269">
        <ele>454.8</ele>
        <time>2022-06-21T08:01:08Z</time>
      </trkpt>
      <trkpt lat="43.40181" lon="2.63269">
        <ele>454.8</ele>
        <time>2022-06-21T08:01:09Z</time>
      </trkpt>
      <trkpt lat="43.40181" lon="2.63269">
        <ele>454.8</ele>
        <time>2022-06-21T08:01:10Z</time>
      </trkpt>
      <trkpt lat="43.40181" lon="2.63269">
        <ele>454.8</ele>
        <time>2022-06-21T08:01:11Z</time>
      </trkpt>
      <trkpt lat="43.40181" lon="2.63269">
        <ele>454.8</ele>
        <time>2022-06-21T08:01:12Z</time>
      </trkpt>
      <trkpt lat="43.40181" lon="2.63269">
        <ele>454.8</ele>
        <time>2022-06-21T08:01:13Z</time>
      </trkpt>
      <trkpt lat="43.40181" lon="2.63269">
        <ele>454.8</ele>
        <time>2022-06-21T08:01:14Z</time>
      </trkpt>
      <trkpt lat="43.40181" lon="2.63269">
        <ele>454.8</ele>
        <time>2022-06-21T08:01:15Z</time>
      </trkpt>
      <trkpt lat="43.40181" lon="2.63269">
        <ele>454.8</ele>
        <time>2022-06-21T08:01:16Z</time>
      </trkpt>
      <trkpt lat="43.40181" lon="2.63269">
        <ele>454.8</ele>
        <time>2022-06-21T08:01:17Z</time>
      </trkpt>
      <trkpt lat="43.40181" lon="2.63269">
        <ele>454.8</ele>
        <time>2022-06-21T08:01:18Z</time>
      </trkpt>
      <trkpt lat="43.40181" lon="2.63269">
        <ele>454.8</ele>
        <time>2022-06-21T08:01:19Z</time>
      </trkpt>
      <trkpt lat="43.40181" lon="2.63269">
        <ele>454.8</ele>
        <time>2022-06-21T08:01:20Z</time>
      </trkpt>
      <trkpt lat="43.40181" lon="2.63269">
        <ele>454.8</ele>
        <time>2022-06-21T08:01:21Z</time>
      </trkpt>
      <trkpt lat="43.40181" lon="2.63269">
        <ele>454.8</ele>
        <time>2022-06-21T08:01:22Z</time>
      </trkpt>
      <trkpt lat="43.40181" lon="2.63269">
        <ele>454.8</ele>
        <time>2022-06-21T08:01:23Z</time>
      </trkpt>
      <trkpt lat="43.40181" lon="2.63269">
        <ele>454.8</ele>
        <time>2022-06-21T08:01:24Z</time>
      </trkpt>
      <trkpt lat="43.40181" lon="2.63269">
        <ele>454.8</ele>
        <time>2022-06-21T08:01:25Z</time>
      </trkpt>
      <trkpt lat="43.40181" lon="2.63269">
        <ele>454.8</ele>
        <time>2022-06-21T08:01:26Z</time>
      </trkpt>
      <trkpt lat="43.40181" lon="2.63269">
        <ele>454.8</ele>
        <time>2022-06-21T08:01:27Z</time>
      </trkpt>
      <trkpt lat="43.40181" lon="2.63269">
        <ele>454.8</ele>
        <time>2022-06-21T08:01:28Z</time>
      </trkpt>
      <trkpt lat="43.40181" lon="2.63269">
        <ele>454.8</ele>
        <time>2022-06-21T08:01:29Z</time>
      </trkpt>
      <trkpt lat="43.40181" lon="2.63269">
        <ele>454.8</ele>
        <time>2022-06-21T08:01:30Z</time>
      </trkpt>
      <trkpt lat="43.40181" lon="2.63269">
        <ele>454.8</ele>
        <time>2022-06-21T08:01:31Z</time>
      </trkpt>
      <trkpt lat="43.40181" lon="2.63269">
        <ele>454.8</ele>
        <time>2022-06-21T08:01:32Z</time>
      </trkpt>
      <trkpt lat="43.40181" lon="2.63269">
        <ele>454.8</ele>
        <time>2022-06-21T08:01:33Z</time>
      </trkpt>
      <trkpt lat="43.40181" lon="2.63269">
        <ele>454.8</ele>
        <time>2022-06-21T08:01:34Z</time>
      </trkpt>
      <trkpt lat="43.40181" lon="2.63269">
        <ele>454.8</ele>
        <time>2022-06-21T08:01:35Z</time>
      </trkpt>
      <trkpt lat="43.40181" lon="2.63269">
        <ele>454.8</ele>
        <time>2022-06-21T08:01:36Z</time>
      </trkpt>
      <trkpt lat="43.40181" lon="2.63269">
        <ele>454.8</ele>
        <time>2022-06-21T08:01:37Z</time>
      </trkpt>
      <trkpt lat="43.40181" lon="2.63269">
        <ele>454.8</ele>
        <time>2022-06-21T08:01:38Z</time>
      </trkpt>
      <trkpt lat="43.40181" lon="2.63269">
        <ele>454.8</ele>
        <time>2022-06-21T08:01:39Z</time>
      </trkpt>
      <trkpt lat="43.40181" lon="2.63269">
        <ele>454.8</ele>
        <time>2022-06-21T08:01:40Z</time>
      </trkpt>
      <trkpt lat="43.40181" lon="2.63269">
        <ele>454.9</ele>
        <time>2022-06-21T08:01:41Z</time>
      </trkpt>
      <trkpt lat="43.4018" lon="2.63269">
        <ele>455</ele>
        <time>2022-06-21T08:01:42Z</time>
      </trkpt>
      <trkpt lat="43.4018" lon="2.63269">
        <ele>455</ele>
        <time>2022-06-21T08:01:43Z</time>
      </trkpt>
      <trkpt lat="43.40179" lon="2.63269">
        <ele>455.2</ele>
        <time>2022-06-21T08:01:44Z</time>
      </trkpt>
      <trkpt lat="43.40176" lon="2.63268">
        <ele>455.5</ele>
        <time>2022-06-21T08:01:45Z</time>
      </trkpt>
      <trkpt lat="43.40175" lon="2.63268">
        <ele>455.7</ele>
        <time>2022-06-21T08:01:46Z</time>
      </trkpt>
      <trkpt lat="43.40174" lon="2.63268">
        <ele>455.8</ele>
        <time>2022-06-21T08:01:47Z</time>
      </trkpt>
      <trkpt lat="43.40172" lon="2.63267">
        <ele>456</ele>
        <time>2022-06-21T08:01:48Z</time>
      </trkpt>
      <trkpt lat="43.40172" lon="2.63267">
        <ele>456.1</ele>
        <time>2022-06-21T08:01:49Z</time>
      </trkpt>
      <trkpt lat="43.40171" lon="2.63268">
        <ele>456.2</ele>
        <time>2022-06-21T08:01:50Z</time>
      </trkpt>
      <trkpt lat="43.4017" lon="2.63268">
        <ele>456.3</ele>
        <time>2022-06-21T08:01:51Z</time>
      </trkpt>
      <trkpt lat="43.40169" lon="2.63268">
        <ele>456.3</ele>
        <time>2022-06-21T08:01:52Z</time>
      </trkpt>
      <trkpt lat="43.40169" lon="2.63268">
        <ele>456.3</ele>
        <time>2022-06-21T08:01:53Z</time>
      </trkpt>
      <trkpt lat="43.40169" lon="2.63268">
        <ele>456.4</ele>
        <time>2022-06-21T08:01:54Z</time>
      </trkpt>
      <trkpt lat="43.40169" lon="2.63268">
        <ele>456.4</ele>
        <time>2022-06-21T08:01:55Z</time>
      </trkpt>
      <trkpt lat="43.40169" lon="2.63268">
        <ele>456.4</ele>
        <time>2022-06-21T08:01:56Z</time>
      </trkpt>
      <trkpt lat="43.40169" lon="2.63268">
        <ele>456.4</ele>
        <time>2022-06-21T08:01:57Z</time>
      </trkpt>
      <trkpt lat="43.40168" lon="2.63268">
        <ele>456.4</ele>
        <time>2022-06-21T08:01:58Z</time>
      </trkpt>
      <trkpt lat="43.40168" lon="2.63269">
        <ele>456.6</ele>
        <time>2022-06-21T08:01:59Z</time>
      </trkpt>
      <trkpt lat="43.40167" lon="2.63269">
        <ele>456.6</ele>
        <time>2022-06-21T08:02:00Z</time>
      </trkpt>
      <trkpt lat="43.40167" lon="2.63269">
        <ele>456.6</ele>
        <time>2022-06-21T08:02:01Z</time>
      </trkpt>
      <trkpt lat="43.40167" lon="2.63269">
        <ele>456.6</ele>
        <time>2022-06-21T08:02:02Z</time>
      </trkpt>
      <trkpt lat="43.40167" lon="2.63269">
        <ele>456.6</ele>
        <time>2022-06-21T08:02:03Z</time>
      </trkpt>
      <trkpt lat="43.40167" lon="2.63269">
        <ele>456.6</ele>
        <time>2022-06-21T08:02:04Z</time>
      </trkpt>
      <trkpt lat="43.40167" lon="2.63269">
        <ele>456.6</ele>
        <time>2022-06-21T08:02:05Z</time>
      </trkpt>
      <trkpt lat="43.40167" lon="2.63269">
        <ele>456.6</ele>
        <time>2022-06-21T08:02:06Z</time>
      </trkpt>
      <trkpt lat="43.40167" lon="2.63269">
        <ele>456.6</ele>
        <time>2022-06-21T08:02:07Z</time>
      </trkpt>
      <trkpt lat="43.40167" lon="2.63269">
        <ele>456.6</ele>
        <time>2022-06-21T08:02:08Z</time>
      </trkpt>
      <trkpt lat="43.40167" lon="2.63269">
        <ele>456.6</ele>
        <time>2022-06-21T08:02:09Z</time>
      </trkpt>
      <trkpt lat="43.40167" lon="2.63269">
        <ele>456.6</ele>
        <time>2022-06-21T08:02:10Z</time>
      </trkpt>
      <trkpt lat="43.40167" lon="2.63269">
        <ele>456.6</ele>
        <time>2022-06-21T08:02:11Z</time>
      </trkpt>
      <trkpt lat="43.40167" lon="2.63269">
        <ele>456.6</ele>
        <time>2022-06-21T08:02:12Z</time>
      </trkpt>
      <trkpt lat="43.40167" lon="2.63269">
        <ele>456.6</ele>
        <time>2022-06-21T08:02:13Z</time>
      </trkpt>
      <trkpt lat="43.40167" lon="2.63269">
        <ele>456.6</ele>
        <time>2022-06-21T08:02:14Z</time>
      </trkpt>
      <trkpt lat="43.40167" lon="2.6327">
        <ele>456.7</ele>
        <time>2022-06-21T08:02:15Z</time>
      </trkpt>
      <trkpt lat="43.40166" lon="2.6327">
        <ele>456.8</ele>
        <time>2022-06-21T08:02:16Z</time>
      </trkpt>
      <trkpt lat="43.40166" lon="2.63271">
        <ele>456.8</ele>
        <time>2022-06-21T08:02:17Z</time>
      </trkpt>
      <trkpt lat="43.40166" lon="2.63271">
        <ele>456.9</ele>
        <time>2022-06-21T08:02:18Z</time>
      </trkpt>
      <trkpt lat="43.40166" lon="2.63271">
        <ele>456.9</ele>
        <time>2022-06-21T08:02:19Z</time>
      </trkpt>
      <trkpt lat="43.40166" lon="2.63271">
        <ele>456.9</ele>
        <time>2022-06-21T08:02:20Z</time>
      </trkpt>
      <trkpt lat="43.40166" lon="2.63271">
        <ele>456.9</ele>
        <time>2022-06-21T08:02:21Z</time>
      </trkpt>
      <trkpt lat="43.40166" lon="2.63271">
        <ele>456.9</ele>
        <time>2022-06-21T08:02:22Z</time>
      </trkpt>
      <trkpt lat="43.40165" lon="2.63272">
        <ele>457</ele>
        <time>2022-06-21T08:02:23Z</time>
      </trkpt>
      <trkpt lat="43.40164" lon="2.63273">
        <ele>457.2</ele>
        <time>2022-06-21T08:02:24Z</time>
      </trkpt>
      <trkpt lat="43.40162" lon="2.63275">
        <ele>457.5</ele>
        <time>2022-06-21T08:02:25Z</time>
      </trkpt>
      <trkpt lat="43.40161" lon="2.63275">
        <ele>457.6</ele>
        <time>2022-06-21T08:02:26Z</time>
      </trkpt>
      <trkpt lat="43.4016" lon="2.63276">
        <ele>457.7</ele>
        <time>2022-06-21T08:02:27Z</time>
      </trkpt>
      <trkpt lat="43.40158" lon="2.63278">
        <ele>458</ele>
        <time>2022-06-21T08:02:28Z</time>
      </trkpt>
      <trkpt lat="43.40158" lon="2.63278">
        <ele>458.1</ele>
        <time>2022-06-21T08:02:29Z</time>
      </trkpt>
      <trkpt lat="43.40157" lon="2.63279">
        <ele>458.2</ele>
        <time>2022-06-21T08:02:30Z</time>
      </trkpt>
      <trkpt lat="43.40155" lon="2.63281">
        <ele>458.5</ele>
        <time>2022-06-21T08:02:31Z</time>
      </trkpt>
      <trkpt lat="43.40154" lon="2.63282">
        <ele>458.6</ele>
        <time>2022-06-21T08:02:32Z</time>
      </trkpt>
      <trkpt lat="43.40153" lon="2.63282">
        <ele>458.7</ele>
        <time>2022-06-21T08:02:33Z</time>
      </trkpt>
      <trkpt lat="43.40152" lon="2.63283">
        <ele>458.8</ele>
        <time>2022-06-21T08:02:34Z</time>
      </trkpt>
      <trkpt lat="43.40151" lon="2.63284">
        <ele>459</ele>
        <time>2022-06-21T08:02:35Z</time>
      </trkpt>
      <trkpt lat="43.4015" lon="2.63285">
        <ele>459.1</ele>
        <time>2022-06-21T08:02:36Z</time>
      </trkpt>
      <trkpt lat="43.40149" lon="2.63285">
        <ele>459.2</ele>
        <time>2022-06-21T08:02:37Z</time>
      </trkpt>
      <trkpt lat="43.40148" lon="2.63285">
        <ele>459.2</ele>
        <time>2022-06-21T08:02:38Z</time>
      </trkpt>
      <trkpt lat="43.40148" lon="2.63286">
        <ele>459.3</ele>
        <time>2022-06-21T08:02:39Z</time>
      </trkpt>
      <trkpt lat="43.40147" lon="2.63286">
        <ele>459.4</ele>
        <time>2022-06-21T08:02:40Z</time>
      </trkpt>
      <trkpt lat="43.40146" lon="2.63287">
        <ele>459.4</ele>
        <time>2022-06-21T08:02:41Z</time>
      </trkpt>
      <trkpt lat="43.40145" lon="2.63287">
        <ele>459.5</ele>
        <time>2022-06-21T08:02:42Z</time>
      </trkpt>
      <trkpt lat="43.40144" lon="2.63289">
        <ele>459.6</ele>
        <time>2022-06-21T08:02:43Z</time>
      </trkpt>
      <trkpt lat="43.40143" lon="2.6329">
        <ele>459.7</ele>
        <time>2022-06-21T08:02:44Z</time>
      </trkpt>
      <trkpt lat="43.40142" lon="2.63291">
        <ele>459.8</ele>
        <time>2022-06-21T08:02:45Z</time>
      </trkpt>
      <trkpt lat="43.40141" lon="2.63292">
        <ele>459.8</ele>
        <time>2022-06-21T08:02:46Z</time>
      </trkpt>
      <trkpt lat="43.40141" lon="2.63292">
        <ele>459.9</ele>
        <time>2022-06-21T08:02:47Z</time>
      </trkpt>
      <trkpt lat="43.40141" lon="2.63292">
        <ele>459.9</ele>
        <time>2022-06-21T08:02:48Z</time>
      </trkpt>
      <trkpt lat="43.40141" lon="2.63292">
        <ele>459.9</ele>
        <time>2022-06-21T08:02:49Z</time>
      </trkpt>
      <trkpt lat="43.40141" lon="2.63292">
        <ele>459.9</ele>
        <time>2022-06-21T08:02:50Z</time>
      </trkpt>
      <trkpt lat="43.4014" lon="2.63292">
        <ele>459.9</ele>
        <time>2022-06-21T08:02:51Z</time>
      </trkpt>
      <trkpt lat="43.40139" lon="2.63293">
        <ele>460</ele>
        <time>2022-06-21T08:02:52Z</time>
      </trkpt>
      <trkpt lat="43.40139" lon="2.63294">
        <ele>460</ele>
        <time>2022-06-21T08:02:53Z</time>
      </trkpt>
      <trkpt lat="43.40138" lon="2.63294">
        <ele>460.1</ele>
        <time>2022-06-21T08:02:54Z</time>
      </trkpt>
      <trkpt lat="43.40138" lon="2.63296">
        <ele>460.1</ele>
        <time>2022-06-21T08:02:55Z</time>
      </trkpt>
      <trkpt lat="43.40137" lon="2.63297">
        <ele>460.2</ele>
        <time>2022-06-21T08:02:56Z</time>
      </trkpt>
      <trkpt lat="43.40136" lon="2.633">
        <ele>460.3</ele>
        <time>2022-06-21T08:02:57Z</time>
      </trkpt>
      <trkpt lat="43.40134" lon="2.63302">
        <ele>460.5</ele>
        <time>2022-06-21T08:03:00Z</time>
      </trkpt>
      <trkpt lat="43.40133" lon="2.63303">
        <ele>460.6</ele>
        <time>2022-06-21T08:03:01Z</time>
      </trkpt>
      <trkpt lat="43.40133" lon="2.63304">
        <ele>460.7</ele>
        <time>2022-06-21T08:03:02Z</time>
      </trkpt>
      <trkpt lat="43.40133" lon="2.63305">
        <ele>460.8</ele>
        <time>2022-06-21T08:03:03Z</time>
      </trkpt>
      <trkpt lat="43.40133" lon="2.63306">
        <ele>460.8</ele>
        <time>2022-06-21T08:03:04Z</time>
      </trkpt>
      <trkpt lat="43.40132" lon="2.63307">
        <ele>460.9</ele>
        <time>2022-06-21T08:03:05Z</time>
      </trkpt>
      <trkpt lat="43.40132" lon="2.63308">
        <ele>461</ele>
        <time>2022-06-21T08:03:06Z</time>
      </trkpt>
      <trkpt lat="43.40131" lon="2.6331">
        <ele>461.1</ele>
        <time>2022-06-21T08:03:07Z</time>
      </trkpt>
      <trkpt lat="43.4013" lon="2.63311">
        <ele>461.2</ele>
        <time>2022-06-21T08:03:08Z</time>
      </trkpt>
      <trkpt lat="43.4013" lon="2.63313">
        <ele>461.3</ele>
        <time>2022-06-21T08:03:09Z</time>
      </trkpt>
      <trkpt lat="43.4013" lon="2.63313">
        <ele>461.3</ele>
        <time>2022-06-21T08:03:10Z</time>
      </trkpt>
      <trkpt lat="43.4013" lon="2.63314">
        <ele>461.4</ele>
        <time>2022-06-21T08:03:11Z</time>
      </trkpt>
      <trkpt lat="43.4013" lon="2.63315">
        <ele>461.4</ele>
        <time>2022-06-21T08:03:12Z</time>
      </trkpt>
      <trkpt lat="43.40129" lon="2.63316">
        <ele>461.5</ele>
        <time>2022-06-21T08:03:13Z</time>
      </trkpt>
      <trkpt lat="43.40129" lon="2.63319">
        <ele>461.7</ele>
        <time>2022-06-21T08:03:14Z</time>
      </trkpt>
      <trkpt lat="43.40128" lon="2.63321">
        <ele>461.9</ele>
        <time>2022-06-21T08:03:15Z</time>
      </trkpt>
      <trkpt lat="43.40127" lon="2.63323">
        <ele>462</ele>
        <time>2022-06-21T08:03:16Z</time>
      </trkpt>
      <trkpt lat="43.40127" lon="2.63324">
        <ele>462.1</ele>
        <time>2022-06-21T08:03:17Z</time>
      </trkpt>
      <trkpt lat="43.40127" lon="2.63325">
        <ele>462.2</ele>
        <time>2022-06-21T08:03:18Z</time>
      </trkpt>
      <trkpt lat="43.40127" lon="2.63325">
        <ele>462.2</ele>
        <time>2022-06-21T08:03:19Z</time>
      </trkpt>
      <trkpt lat="43.40126" lon="2.63326">
        <ele>462.3</ele>
        <time>2022-06-21T08:03:20Z</time>
      </trkpt>
      <trkpt lat="43.40126" lon="2.63326">
        <ele>462.3</ele>
        <time>2022-06-21T08:03:21Z</time>
      </trkpt>
      <trkpt lat="43.40126" lon="2.63326">
        <ele>462.3</ele>
        <time>2022-06-21T08:03:22Z</time>
      </trkpt>
      <trkpt lat="43.40126" lon="2.63327">
        <ele>462.4</ele>
        <time>2022-06-21T08:03:23Z</time>
      </trkpt>
      <trkpt lat="43.40126" lon="2.63327">
        <ele>462.5</ele>
        <time>2022-06-21T08:03:24Z</time>
      </trkpt>
      <trkpt lat="43.40126" lon="2.6333">
        <ele>462.7</ele>
        <time>2022-06-21T08:03:25Z</time>
      </trkpt>
      <trkpt lat="43.40126" lon="2.63331">
        <ele>462.8</ele>
        <time>2022-06-21T08:03:26Z</time>
      </trkpt>
      <trkpt lat="43.40126" lon="2.63331">
        <ele>462.8</ele>
        <time>2022-06-21T08:03:27Z</time>
      </trkpt>
      <trkpt lat="43.40126" lon="2.63331">
        <ele>462.8</ele>
        <time>2022-06-21T08:03:28Z</time>
      </trkpt>
      <trkpt lat="43.40126" lon="2.63331">
        <ele>462.8</ele>
        <time>2022-06-21T08:03:29Z</time>
      </trkpt>
      <trkpt lat="43.40126" lon="2.63331">
        <ele>462.8</ele>
        <time>2022-06-21T08:03:30Z</time>
      </trkpt>
      <trkpt lat="43.40126" lon="2.63331">
        <ele>462.8</ele>
        <time>2022-06-21T08:03:31Z</time>
      </trkpt>
      <trkpt lat="43.40126" lon="2.63331">
        <ele>462.8</ele>
        <time>2022-06-21T08:03:32Z</time>
      </trkpt>
      <trkpt lat="43.40126" lon="2.63331">
        <ele>462.8</ele>
        <time>2022-06-21T08:03:33Z</time>
      </trkpt>
      <trkpt lat="43.40126" lon="2.63331">
        <ele>462.8</ele>
        <time>2022-06-21T08:03:34Z</time>
      </trkpt>
      <trkpt lat="43.40126" lon="2.63331">
        <ele>462.9</ele>
        <time>2022-06-21T08:03:35Z</time>
      </trkpt>
      <trkpt lat="43.40126" lon="2.63331">
        <ele>462.9</ele>
        <time>2022-06-21T08:03:36Z</time>
      </trkpt>
      <trkpt lat="43.40126" lon="2.63331">
        <ele>462.9</ele>
        <time>2022-06-21T08:03:37Z</time>
      </trkpt>
      <trkpt lat="43.40127" lon="2.63332">
        <ele>463</ele>
        <time>2022-06-21T08:03:38Z</time>
      </trkpt>
      <trkpt lat="43.40127" lon="2.63333">
        <ele>463.1</ele>
        <time>2022-06-21T08:03:39Z</time>
      </trkpt>
      <trkpt lat="43.40128" lon="2.63334">
        <ele>463.1</ele>
        <time>2022-06-21T08:03:40Z</time>
      </trkpt>
      <trkpt lat="43.40128" lon="2.63334">
        <ele>463.1</ele>
        <time>2022-06-21T08:03:41Z</time>
      </trkpt>
      <trkpt lat="43.40128" lon="2.63334">
        <ele>463.2</ele>
        <time>2022-06-21T08:03:42Z</time>
      </trkpt>
      <trkpt lat="43.40128" lon="2.63334">
        <ele>463.2</ele>
        <time>2022-06-21T08:03:43Z</time>
      </trkpt>
      <trkpt lat="43.40128" lon="2.63334">
        <ele>463.2</ele>
        <time>2022-06-21T08:03:44Z</time>
      </trkpt>
      <trkpt lat="43.40128" lon="2.63334">
        <ele>463.2</ele>
        <time>2022-06-21T08:03:45Z</time>
      </trkpt>
      <trkpt lat="43.40128" lon="2.63334">
        <ele>463.2</ele>
        <time>2022-06-21T08:03:46Z</time>
      </trkpt>
      <trkpt lat="43.40128" lon="2.63335">
        <ele>463.3</ele>
        <time>2022-06-21T08:03:47Z</time>
      </trkpt>
      <trkpt lat="43.40128" lon="2.63336">
        <ele>463.5</ele>
        <time>2022-06-21T08:03:48Z</time>
      </trkpt>
      <trkpt lat="43.40129" lon="2.63337">
        <ele>463.5</ele>
        <time>2022-06-21T08:03:49Z</time>
      </trkpt>
      <trkpt lat="43.40129" lon="2.63337">
        <ele>463.6</ele>
        <time>2022-06-21T08:03:50Z</time>
      </trkpt>
      <trkpt lat="43.40129" lon="2.63337">
        <ele>463.6</ele>
        <time>2022-06-21T08:03:51Z</time>
      </trkpt>
      <trkpt lat="43.40129" lon="2.63337">
        <ele>463.6</ele>
        <time>2022-06-21T08:03:52Z</time>
      </trkpt>
      <trkpt lat="43.40129" lon="2.63337">
        <ele>463.6</ele>
        <time>2022-06-21T08:03:53Z</time>
      </trkpt>
      <trkpt lat="43.40129" lon="2.63337">
        <ele>463.6</ele>
        <time>2022-06-21T08:03:54Z</time>
      </trkpt>
      <trkpt lat="43.40129" lon="2.63337">
        <ele>463.6</ele>
        <time>2022-06-21T08:03:55Z</time>
      </trkpt>
      <trkpt lat="43.40129" lon="2.63337">
        <ele>463.7</ele>
        <time>2022-06-21T08:03:56Z</time>
      </trkpt>
      <trkpt lat="43.40129" lon="2.63338">
        <ele>463.7</ele>
        <time>2022-06-21T08:03:57Z</time>
      </trkpt>
      <trkpt lat="43.40129" lon="2.63338">
        <ele>463.8</ele>
        <time>2022-06-21T08:03:58Z</time>
      </trkpt>
      <trkpt lat="43.40129" lon="2.6334">
        <ele>463.9</ele>
        <time>2022-06-21T08:03:59Z</time>
      </trkpt>
      <trkpt lat="43.4013" lon="2.63345">
        <ele>464.5</ele>
        <time>2022-06-21T08:04:00Z</time>
      </trkpt>
      <trkpt lat="43.4013" lon="2.63349">
        <ele>465</ele>
        <time>2022-06-21T08:04:01Z</time>
      </trkpt>
      <trkpt lat="43.4013" lon="2.63352">
        <ele>465.2</ele>
        <time>2022-06-21T08:04:02Z</time>
      </trkpt>
      <trkpt lat="43.4013" lon="2.63352">
        <ele>465.3</ele>
        <time>2022-06-21T08:04:03Z</time>
      </trkpt>
      <trkpt lat="43.4013" lon="2.63353">
        <ele>465.4</ele>
        <time>2022-06-21T08:04:04Z</time>
      </trkpt>
      <trkpt lat="43.4013" lon="2.63355">
        <ele>465.6</ele>
        <time>2022-06-21T08:04:05Z</time>
      </trkpt>
      <trkpt lat="43.40131" lon="2.63356">
        <ele>465.7</ele>
        <time>2022-06-21T08:04:06Z</time>
      </trkpt>
      <trkpt lat="43.40131" lon="2.63357">
        <ele>465.8</ele>
        <time>2022-06-21T08:04:07Z</time>
      </trkpt>
      <trkpt lat="43.40132" lon="2.63362">
        <ele>466.4</ele>
        <time>2022-06-21T08:04:08Z</time>
      </trkpt>
      <trkpt lat="43.40133" lon="2.63364">
        <ele>466.7</ele>
        <time>2022-06-21T08:04:09Z</time>
      </trkpt>
      <trkpt lat="43.40133" lon="2.63365">
        <ele>466.8</ele>
        <time>2022-06-21T08:04:10Z</time>
      </trkpt>
      <trkpt lat="43.40133" lon="2.63365">
        <ele>466.8</ele>
        <time>2022-06-21T08:04:11Z</time>
      </trkpt>
      <trkpt lat="43.40133" lon="2.63365">
        <ele>466.8</ele>
        <time>2022-06-21T08:04:12Z</time>
      </trkpt>
      <trkpt lat="43.40133" lon="2.63365">
        <ele>466.8</ele>
        <time>2022-06-21T08:04:13Z</time>
      </trkpt>
      <trkpt lat="43.40133" lon="2.63365">
        <ele>466.8</ele>
        <time>2022-06-21T08:04:14Z</time>
      </trkpt>
      <trkpt lat="43.40133" lon="2.63366">
        <ele>466.9</ele>
        <time>2022-06-21T08:04:15Z</time>
      </trkpt>
      <trkpt lat="43.40133" lon="2.63366">
        <ele>467</ele>
        <time>2022-06-21T08:04:16Z</time>
      </trkpt>
      <trkpt lat="43.40133" lon="2.63367">
        <ele>467.1</ele>
        <time>2022-06-21T08:04:17Z</time>
      </trkpt>
      <trkpt lat="43.40133" lon="2.63369">
        <ele>467.2</ele>
        <time>2022-06-21T08:04:18Z</time>
      </trkpt>
      <trkpt lat="43.40133" lon="2.63371">
        <ele>467.5</ele>
        <time>2022-06-21T08:04:19Z</time>
      </trkpt>
      <trkpt lat="43.40134" lon="2.63372">
        <ele>467.7</ele>
        <time>2022-06-21T08:04:20Z</time>
      </trkpt>
      <trkpt lat="43.40134" lon="2.63375">
        <ele>467.9</ele>
        <time>2022-06-21T08:04:21Z</time>
      </trkpt>
      <trkpt lat="43.40134" lon="2.63377">
        <ele>468.1</ele>
        <time>2022-06-21T08:04:22Z</time>
      </trkpt>
      <trkpt lat="43.40135" lon="2.63379">
        <ele>468.4</ele>
        <time>2022-06-21T08:04:23Z</time>
      </trkpt>
      <trkpt lat="43.40135" lon="2.63381">
        <ele>468.6</ele>
        <time>2022-06-21T08:04:24Z</time>
      </trkpt>
      <trkpt lat="43.40135" lon="2.63384">
        <ele>468.8</ele>
        <time>2022-06-21T08:04:25Z</time>
      </trkpt>
      <trkpt lat="43.40136" lon="2.63389">
        <ele>469.3</ele>
        <time>2022-06-21T08:04:26Z</time>
      </trkpt>
      <trkpt lat="43.40136" lon="2.63392">
        <ele>469.6</ele>
        <time>2022-06-21T08:04:27Z</time>
      </trkpt>
      <trkpt lat="43.40137" lon="2.63394">
        <ele>469.8</ele>
        <time>2022-06-21T08:04:28Z</time>
      </trkpt>
      <trkpt lat="43.40137" lon="2.63395">
        <ele>469.9</ele>
        <time>2022-06-21T08:04:29Z</time>
      </trkpt>
      <trkpt lat="43.40137" lon="2.63396">
        <ele>470</ele>
        <time>2022-06-21T08:04:30Z</time>
      </trkpt>
      <trkpt lat="43.40138" lon="2.63399">
        <ele>470.3</ele>
        <time>2022-06-21T08:04:31Z</time>
      </trkpt>
      <trkpt lat="43.40139" lon="2.634">
        <ele>470.5</ele>
        <time>2022-06-21T08:04:32Z</time>
      </trkpt>
      <trkpt lat="43.40139" lon="2.63402">
        <ele>470.7</ele>
        <time>2022-06-21T08:04:33Z</time>
      </trkpt>
      <trkpt lat="43.4014" lon="2.63404">
        <ele>470.8</ele>
        <time>2022-06-21T08:04:34Z</time>
      </trkpt>
      <trkpt lat="43.4014" lon="2.63404">
        <ele>470.9</ele>
        <time>2022-06-21T08:04:35Z</time>
      </trkpt>
      <trkpt lat="43.40141" lon="2.63404">
        <ele>471</ele>
        <time>2022-06-21T08:04:36Z</time>
      </trkpt>
      <trkpt lat="43.40141" lon="2.63405">
        <ele>471</ele>
        <time>2022-06-21T08:04:37Z</time>
      </trkpt>
      <trkpt lat="43.40141" lon="2.63404">
        <ele>471</ele>
        <time>2022-06-21T08:04:38Z</time>
      </trkpt>
      <trkpt lat="43.40141" lon="2.63404">
        <ele>471</ele>
        <time>2022-06-21T08:04:39Z</time>
      </trkpt>
      <trkpt lat="43.40141" lon="2.63404">
        <ele>471</ele>
        <time>2022-06-21T08:04:40Z</time>
      </trkpt>
      <trkpt lat="43.40141" lon="2.63405">
        <ele>471</ele>
        <time>2022-06-21T08:04:41Z</time>
      </trkpt>
      <trkpt lat="43.40141" lon="2.63406">
        <ele>471.1</ele>
        <time>2022-06-21T08:04:42Z</time>
      </trkpt>
      <trkpt lat="43.40141" lon="2.63407">
        <ele>471.2</ele>
        <time>2022-06-21T08:04:43Z</time>
      </trkpt>
      <trkpt lat="43.40141" lon="2.63408">
        <ele>471.3</ele>
        <time>2022-06-21T08:04:44Z</time>
      </trkpt>
      <trkpt lat="43.40141" lon="2.63409">
        <ele>471.4</ele>
        <time>2022-06-21T08:04:45Z</time>
      </trkpt>
      <trkpt lat="43.40141" lon="2.6341">
        <ele>471.5</ele>
        <time>2022-06-21T08:04:46Z</time>
      </trkpt>
      <trkpt lat="43.40142" lon="2.63414">
        <ele>471.9</ele>
        <time>2022-06-21T08:04:47Z</time>
      </trkpt>
      <trkpt lat="43.40142" lon="2.63416">
        <ele>472</ele>
        <time>2022-06-21T08:04:48Z</time>
      </trkpt>
      <trkpt lat="43.40142" lon="2.63416">
        <ele>472.1</ele>
        <time>2022-06-21T08:04:49Z</time>
      </trkpt>
      <trkpt lat="43.40142" lon="2.63416">
        <ele>472.1</ele>
        <time>2022-06-21T08:04:50Z</time>
      </trkpt>
      <trkpt lat="43.40142" lon="2.63417">
        <ele>472.2</ele>
        <time>2022-06-21T08:04:51Z</time>
      </trkpt>
      <trkpt lat="43.40142" lon="2.63418">
        <ele>472.2</ele>
        <time>2022-06-21T08:04:52Z</time>
      </trkpt>
      <trkpt lat="43.40142" lon="2.63419">
        <ele>472.3</ele>
        <time>2022-06-21T08:04:53Z</time>
      </trkpt>
      <trkpt lat="43.40143" lon="2.6342">
        <ele>472.5</ele>
        <time>2022-06-21T08:04:54Z</time>
      </trkpt>
      <trkpt lat="43.40144" lon="2.63421">
        <ele>472.5</ele>
        <time>2022-06-21T08:04:55Z</time>
      </trkpt>
      <trkpt lat="43.40144" lon="2.63421">
        <ele>472.6</ele>
        <time>2022-06-21T08:04:56Z</time>
      </trkpt>
      <trkpt lat="43.40144" lon="2.63421">
        <ele>472.6</ele>
        <time>2022-06-21T08:04:57Z</time>
      </trkpt>
      <trkpt lat="43.40144" lon="2.63422">
        <ele>472.6</ele>
        <time>2022-06-21T08:04:58Z</time>
      </trkpt>
      <trkpt lat="43.40144" lon="2.63422">
        <ele>472.6</ele>
        <time>2022-06-21T08:04:59Z</time>
      </trkpt>
      <trkpt lat="43.40144" lon="2.63422">
        <ele>472.6</ele>
        <time>2022-06-21T08:05:00Z</time>
      </trkpt>
      <trkpt lat="43.40144" lon="2.63422">
        <ele>472.6</ele>
        <time>2022-06-21T08:05:01Z</time>
      </trkpt>
      <trkpt lat="43.40144" lon="2.63422">
        <ele>472.7</ele>
        <time>2022-06-21T08:05:02Z</time>
      </trkpt>
      <trkpt lat="43.40144" lon="2.63424">
        <ele>472.8</ele>
        <time>2022-06-21T08:05:03Z</time>
      </trkpt>
      <trkpt lat="43.40144" lon="2.63425">
        <ele>472.9</ele>
        <time>2022-06-21T08:05:04Z</time>
      </trkpt>
      <trkpt lat="43.40145" lon="2.63426">
        <ele>473</ele>
        <time>2022-06-21T08:05:05Z</time>
      </trkpt>
      <trkpt lat="43.40145" lon="2.63427">
        <ele>473</ele>
        <time>2022-06-21T08:05:06Z</time>
      </trkpt>
      <trkpt lat="43.40144" lon="2.63427">
        <ele>473.1</ele>
        <time>2022-06-21T08:05:07Z</time>
      </trkpt>
      <trkpt lat="43.40144" lon="2.63428">
        <ele>473.2</ele>
        <time>2022-06-21T08:05:08Z</time>
      </trkpt>
      <trkpt lat="43.40144" lon="2.63429">
        <ele>473.2</ele>
        <time>2022-06-21T08:05:09Z</time>
      </trkpt>
      <trkpt lat="43.40144" lon="2.6343">
        <ele>473.3</ele>
        <time>2022-06-21T08:05:10Z</time>
      </trkpt>
      <trkpt lat="43.40144" lon="2.6343">
        <ele>473.3</ele>
        <time>2022-06-21T08:05:11Z</time>
      </trkpt>
      <trkpt lat="43.40144" lon="2.63435">
        <ele>473.8</ele>
        <time>2022-06-21T08:05:12Z</time>
      </trkpt>
      <trkpt lat="43.40144" lon="2.63439">
        <ele>474.1</ele>
        <time>2022-06-21T08:05:13Z</time>
      </trkpt>
      <trkpt lat="43.40144" lon="2.63441">
        <ele>474.2</ele>
        <time>2022-06-21T08:05:14Z</time>
      </trkpt>
      <trkpt lat="43.40144" lon="2.63443">
        <ele>474.4</ele>
        <time>2022-06-21T08:05:15Z</time>
      </trkpt>
      <trkpt lat="43.40144" lon="2.63444">
        <ele>474.5</ele>
        <time>2022-06-21T08:05:16Z</time>
      </trkpt>
      <trkpt lat="43.40144" lon="2.63446">
        <ele>474.6</ele>
        <time>2022-06-21T08:05:17Z</time>
      </trkpt>
      <trkpt lat="43.40144" lon="2.63447">
        <ele>474.7</ele>
        <time>2022-06-21T08:05:18Z</time>
      </trkpt>
      <trkpt lat="43.40144" lon="2.63447">
        <ele>474.7</ele>
        <time>2022-06-21T08:05:19Z</time>
      </trkpt>
      <trkpt lat="43.40144" lon="2.63448">
        <ele>474.8</ele>
        <time>2022-06-21T08:05:20Z</time>
      </trkpt>
      <trkpt lat="43.40144" lon="2.63448">
        <ele>474.8</ele>
        <time>2022-06-21T08:05:21Z</time>
      </trkpt>
      <trkpt lat="43.40144" lon="2.63448">
        <ele>474.8</ele>
        <time>2022-06-21T08:05:22Z</time>
      </trkpt>
      <trkpt lat="43.40144" lon="2.63448">
        <ele>474.8</ele>
        <time>2022-06-21T08:05:23Z</time>
      </trkpt>
      <trkpt lat="43.40144" lon="2.6345">
        <ele>475</ele>
        <time>2022-06-21T08:05:24Z</time>
      </trkpt>
      <trkpt lat="43.40144" lon="2.63451">
        <ele>475</ele>
        <time>2022-06-21T08:05:25Z</time>
      </trkpt>
      <trkpt lat="43.40144" lon="2.63452">
        <ele>475.1</ele>
        <time>2022-06-21T08:05:26Z</time>
      </trkpt>
      <trkpt lat="43.40144" lon="2.63454">
        <ele>475.3</ele>
        <time>2022-06-21T08:05:27Z</time>
      </trkpt>
      <trkpt lat="43.40144" lon="2.63455">
        <ele>475.4</ele>
        <time>2022-06-21T08:05:28Z</time>
      </trkpt>
      <trkpt lat="43.40145" lon="2.63456">
        <ele>475.5</ele>
        <time>2022-06-21T08:05:29Z</time>
      </trkpt>
      <trkpt lat="43.40145" lon="2.63457">
        <ele>475.5</ele>
        <time>2022-06-21T08:05:30Z</time>
      </trkpt>
      <trkpt lat="43.40145" lon="2.63457">
        <ele>475.6</ele>
        <time>2022-06-21T08:05:31Z</time>
      </trkpt>
      <trkpt lat="43.40145" lon="2.63458">
        <ele>475.7</ele>
        <time>2022-06-21T08:05:32Z</time>
      </trkpt>
      <trkpt lat="43.40145" lon="2.63459">
        <ele>475.7</ele>
        <time>2022-06-21T08:05:33Z</time>
      </trkpt>
      <trkpt lat="43.40145" lon="2.6346">
        <ele>475.8</ele>
        <time>2022-06-21T08:05:34Z</time>
      </trkpt>
      <trkpt lat="43.40146" lon="2.6346">
        <ele>475.9</ele>
        <time>2022-06-21T08:05:35Z</time>
      </trkpt>
      <trkpt lat="43.40146" lon="2.63462">
        <ele>476</ele>
        <time>2022-06-21T08:05:36Z</time>
      </trkpt>
      <trkpt lat="43.40146" lon="2.63462">
        <ele>476</ele>
        <time>2022-06-21T08:05:37Z</time>
      </trkpt>
      <trkpt lat="43.40146" lon="2.63462">
        <ele>476</ele>
        <time>2022-06-21T08:05:38Z</time>
      </trkpt>
      <trkpt lat="43.40146" lon="2.63462">
        <ele>476</ele>
        <time>2022-06-21T08:05:39Z</time>
      </trkpt>
      <trkpt lat="43.40146" lon="2.63462">
        <ele>476</ele>
        <time>2022-06-21T08:05:40Z</time>
      </trkpt>
      <trkpt lat="43.40146" lon="2.63462">
        <ele>476.1</ele>
        <time>2022-06-21T08:05:41Z</time>
      </trkpt>
      <trkpt lat="43.40146" lon="2.63463">
        <ele>476.1</ele>
        <time>2022-06-21T08:05:42Z</time>
      </trkpt>
      <trkpt lat="43.40147" lon="2.63463">
        <ele>476.1</ele>
        <time>2022-06-21T08:05:43Z</time>
      </trkpt>
      <trkpt lat="43.40147" lon="2.63463">
        <ele>476.1</ele>
        <time>2022-06-21T08:05:44Z</time>
      </trkpt>
      <trkpt lat="43.40147" lon="2.63463">
        <ele>476.1</ele>
        <time>2022-06-21T08:05:45Z</time>
      </trkpt>
      <trkpt lat="43.40147" lon="2.63463">
        <ele>476.1</ele>
        <time>2022-06-21T08:05:46Z</time>
      </trkpt>
      <trkpt lat="43.40147" lon="2.63463">
        <ele>476.2</ele>
        <time>2022-06-21T08:05:47Z</time>
      </trkpt>
      <trkpt lat="43.40147" lon="2.63464">
        <ele>476.2</ele>
        <time>2022-06-21T08:05:48Z</time>
      </trkpt>
      <trkpt lat="43.40147" lon="2.63464">
        <ele>476.2</ele>
        <time>2022-06-21T08:05:49Z</time>
      </trkpt>
      <trkpt lat="43.40147" lon="2.63464">
        <ele>476.2</ele>
        <time>2022-06-21T08:05:50Z</time>
      </trkpt>
      <trkpt lat="43.40147" lon="2.63464">
        <ele>476.2</ele>
        <time>2022-06-21T08:05:51Z</time>
      </trkpt>
      <trkpt lat="43.40147" lon="2.63464">
        <ele>476.3</ele>
        <time>2022-06-21T08:05:52Z</time>
      </trkpt>
      <trkpt lat="43.40147" lon="2.63465">
        <ele>476.3</ele>
        <time>2022-06-21T08:05:53Z</time>
      </trkpt>
      <trkpt lat="43.40147" lon="2.63465">
        <ele>476.3</ele>
        <time>2022-06-21T08:05:54Z</time>
      </trkpt>
      <trkpt lat="43.40148" lon="2.63466">
        <ele>476.4</ele>
        <time>2022-06-21T08:05:55Z</time>
      </trkpt>
      <trkpt lat="43.40148" lon="2.63467">
        <ele>476.5</ele>
        <time>2022-06-21T08:05:56Z</time>
      </trkpt>
      <trkpt lat="43.40148" lon="2.63468">
        <ele>476.6</ele>
        <time>2022-06-21T08:05:57Z</time>
      </trkpt>
      <trkpt lat="43.40148" lon="2.63469">
        <ele>476.7</ele>
        <time>2022-06-21T08:05:58Z</time>
      </trkpt>
      <trkpt lat="43.40149" lon="2.6347">
        <ele>476.7</ele>
        <time>2022-06-21T08:05:59Z</time>
      </trkpt>
      <trkpt lat="43.4015" lon="2.63476">
        <ele>477.3</ele>
        <time>2022-06-21T08:06:00Z</time>
      </trkpt>
      <trkpt lat="43.4015" lon="2.6348">
        <ele>477.6</ele>
        <time>2022-06-21T08:06:01Z</time>
      </trkpt>
      <trkpt lat="43.40151" lon="2.63482">
        <ele>477.9</ele>
        <time>2022-06-21T08:06:02Z</time>
      </trkpt>
      <trkpt lat="43.40151" lon="2.63484">
        <ele>478.1</ele>
        <time>2022-06-21T08:06:03Z</time>
      </trkpt>
      <trkpt lat="43.40151" lon="2.63485">
        <ele>478.1</ele>
        <time>2022-06-21T08:06:04Z</time>
      </trkpt>
      <trkpt lat="43.40151" lon="2.63486">
        <ele>478.2</ele>
        <time>2022-06-21T08:06:05Z</time>
      </trkpt>
      <trkpt lat="43.40151" lon="2.63487">
        <ele>478.3</ele>
        <time>2022-06-21T08:06:06Z</time>
      </trkpt>
      <trkpt lat="43.40151" lon="2.63488">
        <ele>478.4</ele>
        <time>2022-06-21T08:06:07Z</time>
      </trkpt>
      <trkpt lat="43.40151" lon="2.63489">
        <ele>478.5</ele>
        <time>2022-06-21T08:06:08Z</time>
      </trkpt>
      <trkpt lat="43.40151" lon="2.6349">
        <ele>478.7</ele>
        <time>2022-06-21T08:06:09Z</time>
      </trkpt>
      <trkpt lat="43.40151" lon="2.63492">
        <ele>478.8</ele>
        <time>2022-06-21T08:06:10Z</time>
      </trkpt>
      <trkpt lat="43.40151" lon="2.63493">
        <ele>479</ele>
        <time>2022-06-21T08:06:11Z</time>
      </trkpt>
      <trkpt lat="43.40151" lon="2.63495">
        <ele>479.1</ele>
        <time>2022-06-21T08:06:12Z</time>
      </trkpt>
      <trkpt lat="43.40151" lon="2.63496">
        <ele>479.3</ele>
        <time>2022-06-21T08:06:13Z</time>
      </trkpt>
      <trkpt lat="43.40151" lon="2.63498">
        <ele>479.4</ele>
        <time>2022-06-21T08:06:14Z</time>
      </trkpt>
      <trkpt lat="43.40151" lon="2.63501">
        <ele>479.7</ele>
        <time>2022-06-21T08:06:15Z</time>
      </trkpt>
      <trkpt lat="43.40151" lon="2.63503">
        <ele>479.9</ele>
        <time>2022-06-21T08:06:16Z</time>
      </trkpt>
      <trkpt lat="43.40152" lon="2.63505">
        <ele>480.1</ele>
        <time>2022-06-21T08:06:17Z</time>
      </trkpt>
      <trkpt lat="43.40152" lon="2.63506">
        <ele>480.2</ele>
        <time>2022-06-21T08:06:18Z</time>
      </trkpt>
      <trkpt lat="43.40152" lon="2.63507">
        <ele>480.2</ele>
        <time>2022-06-21T08:06:19Z</time>
      </trkpt>
      <trkpt lat="43.40152" lon="2.63507">
        <ele>480.3</ele>
        <time>2022-06-21T08:06:20Z</time>
      </trkpt>
      <trkpt lat="43.40152" lon="2.63508">
        <ele>480.3</ele>
        <time>2022-06-21T08:06:21Z</time>
      </trkpt>
      <trkpt lat="43.40152" lon="2.63509">
        <ele>480.4</ele>
        <time>2022-06-21T08:06:22Z</time>
      </trkpt>
      <trkpt lat="43.40152" lon="2.6351">
        <ele>480.5</ele>
        <time>2022-06-21T08:06:23Z</time>
      </trkpt>
      <trkpt lat="43.40152" lon="2.63511">
        <ele>480.6</ele>
        <time>2022-06-21T08:06:24Z</time>
      </trkpt>
      <trkpt lat="43.40152" lon="2.63512">
        <ele>480.7</ele>
        <time>2022-06-21T08:06:25Z</time>
      </trkpt>
      <trkpt lat="43.40152" lon="2.63513">
        <ele>480.8</ele>
        <time>2022-06-21T08:06:26Z</time>
      </trkpt>
      <trkpt lat="43.40151" lon="2.63514">
        <ele>480.9</ele>
        <time>2022-06-21T08:06:27Z</time>
      </trkpt>
      <trkpt lat="43.4015" lon="2.63516">
        <ele>481.2</ele>
        <time>2022-06-21T08:06:28Z</time>
      </trkpt>
      <trkpt lat="43.4015" lon="2.63517">
        <ele>481.3</ele>
        <time>2022-06-21T08:06:29Z</time>
      </trkpt>
      <trkpt lat="43.4015" lon="2.63518">
        <ele>481.3</ele>
        <time>2022-06-21T08:06:30Z</time>
      </trkpt>
      <trkpt lat="43.4015" lon="2.63519">
        <ele>481.4</ele>
        <time>2022-06-21T08:06:31Z</time>
      </trkpt>
      <trkpt lat="43.4015" lon="2.6352">
        <ele>481.5</ele>
        <time>2022-06-21T08:06:32Z</time>
      </trkpt>
      <trkpt lat="43.4015" lon="2.63521">
        <ele>481.6</ele>
        <time>2022-06-21T08:06:33Z</time>
      </trkpt>
      <trkpt lat="43.4015" lon="2.63522">
        <ele>481.7</ele>
        <time>2022-06-21T08:06:34Z</time>
      </trkpt>
      <trkpt lat="43.4015" lon="2.63523">
        <ele>481.9</ele>
        <time>2022-06-21T08:06:35Z</time>
      </trkpt>
      <trkpt lat="43.4015" lon="2.63525">
        <ele>482</ele>
        <time>2022-06-21T08:06:36Z</time>
      </trkpt>
      <trkpt lat="43.4015" lon="2.63526">
        <ele>482.1</ele>
        <time>2022-06-21T08:06:37Z</time>
      </trkpt>
      <trkpt lat="43.4015" lon="2.63527">
        <ele>482.2</ele>
        <time>2022-06-21T08:06:38Z</time>
      </trkpt>
      <trkpt lat="43.4015" lon="2.63529">
        <ele>482.3</ele>
        <time>2022-06-21T08:06:39Z</time>
      </trkpt>
      <trkpt lat="43.40151" lon="2.63531">
        <ele>482.6</ele>
        <time>2022-06-21T08:06:40Z</time>
      </trkpt>
      <trkpt lat="43.40151" lon="2.63532">
        <ele>482.6</ele>
        <time>2022-06-21T08:06:41Z</time>
      </trkpt>
      <trkpt lat="43.40151" lon="2.63532">
        <ele>482.7</ele>
        <time>2022-06-21T08:06:42Z</time>
      </trkpt>
      <trkpt lat="43.40151" lon="2.63532">
        <ele>482.7</ele>
        <time>2022-06-21T08:06:43Z</time>
      </trkpt>
      <trkpt lat="43.40151" lon="2.63533">
        <ele>482.8</ele>
        <time>2022-06-21T08:06:44Z</time>
      </trkpt>
      <trkpt lat="43.40151" lon="2.63534">
        <ele>482.9</ele>
        <time>2022-06-21T08:06:45Z</time>
      </trkpt>
      <trkpt lat="43.40151" lon="2.63535">
        <ele>482.9</ele>
        <time>2022-06-21T08:06:46Z</time>
      </trkpt>
      <trkpt lat="43.40151" lon="2.63537">
        <ele>483.1</ele>
        <time>2022-06-21T08:06:48Z</time>
      </trkpt>
      <trkpt lat="43.4015" lon="2.63538">
        <ele>483.2</ele>
        <time>2022-06-21T08:06:49Z</time>
      </trkpt>
      <trkpt lat="43.4015" lon="2.63539">
        <ele>483.3</ele>
        <time>2022-06-21T08:06:50Z</time>
      </trkpt>
      <trkpt lat="43.4015" lon="2.63541">
        <ele>483.5</ele>
        <time>2022-06-21T08:06:51Z</time>
      </trkpt>
      <trkpt lat="43.4015" lon="2.63542">
        <ele>483.6</ele>
        <time>2022-06-21T08:06:52Z</time>
      </trkpt>
      <trkpt lat="43.40149" lon="2.63543">
        <ele>483.8</ele>
        <time>2022-06-21T08:06:53Z</time>
      </trkpt>
      <trkpt lat="43.40149" lon="2.63544">
        <ele>483.9</ele>
        <time>2022-06-21T08:06:54Z</time>
      </trkpt>
      <trkpt lat="43.40149" lon="2.63545">
        <ele>484</ele>
        <time>2022-06-21T08:06:55Z</time>
      </trkpt>
      <trkpt lat="43.40149" lon="2.63546">
        <ele>484.1</ele>
        <time>2022-06-21T08:06:56Z</time>
      </trkpt>
      <trkpt lat="43.40148" lon="2.63547">
        <ele>484.2</ele>
        <time>2022-06-21T08:06:57Z</time>
      </trkpt>
      <trkpt lat="43.40148" lon="2.63547">
        <ele>484.2</ele>
        <time>2022-06-21T08:06:58Z</time>
      </trkpt>
      <trkpt lat="43.40148" lon="2.63547">
        <ele>484.2</ele>
        <time>2022-06-21T08:06:59Z</time>
      </trkpt>
      <trkpt lat="43.40148" lon="2.63548">
        <ele>484.3</ele>
        <time>2022-06-21T08:07:00Z</time>
      </trkpt>
      <trkpt lat="43.40148" lon="2.63549">
        <ele>484.4</ele>
        <time>2022-06-21T08:07:01Z</time>
      </trkpt>
      <trkpt lat="43.40148" lon="2.6355">
        <ele>484.5</ele>
        <time>2022-06-21T08:07:02Z</time>
      </trkpt>
      <trkpt lat="43.40148" lon="2.63551">
        <ele>484.6</ele>
        <time>2022-06-21T08:07:03Z</time>
      </trkpt>
      <trkpt lat="43.40148" lon="2.63552">
        <ele>484.7</ele>
        <time>2022-06-21T08:07:04Z</time>
      </trkpt>
      <trkpt lat="43.40148" lon="2.63553">
        <ele>484.8</ele>
        <time>2022-06-21T08:07:05Z</time>
      </trkpt>
      <trkpt lat="43.40148" lon="2.63554">
        <ele>484.9</ele>
        <time>2022-06-21T08:07:06Z</time>
      </trkpt>
      <trkpt lat="43.40148" lon="2.63554">
        <ele>484.9</ele>
        <time>2022-06-21T08:07:07Z</time>
      </trkpt>
      <trkpt lat="43.40148" lon="2.63555">
        <ele>485</ele>
        <time>2022-06-21T08:07:08Z</time>
      </trkpt>
      <trkpt lat="43.40148" lon="2.63556">
        <ele>485.1</ele>
        <time>2022-06-21T08:07:09Z</time>
      </trkpt>
      <trkpt lat="43.40148" lon="2.63557">
        <ele>485.2</ele>
        <time>2022-06-21T08:07:10Z</time>
      </trkpt>
      <trkpt lat="43.40148" lon="2.63558">
        <ele>485.3</ele>
        <time>2022-06-21T08:07:11Z</time>
      </trkpt>
      <trkpt lat="43.40148" lon="2.63559">
        <ele>485.4</ele>
        <time>2022-06-21T08:07:12Z</time>
      </trkpt>
      <trkpt lat="43.40148" lon="2.6356">
        <ele>485.5</ele>
        <time>2022-06-21T08:07:13Z</time>
      </trkpt>
      <trkpt lat="43.40147" lon="2.63561">
        <ele>485.6</ele>
        <time>2022-06-21T08:07:14Z</time>
      </trkpt>
      <trkpt lat="43.40147" lon="2.63562">
        <ele>485.7</ele>
        <time>2022-06-21T08:07:15Z</time>
      </trkpt>
      <trkpt lat="43.40147" lon="2.63562">
        <ele>485.7</ele>
        <time>2022-06-21T08:07:16Z</time>
      </trkpt>
      <trkpt lat="43.40147" lon="2.63563">
        <ele>485.8</ele>
        <time>2022-06-21T08:07:17Z</time>
      </trkpt>
      <trkpt lat="43.40147" lon="2.63564">
        <ele>485.9</ele>
        <time>2022-06-21T08:07:18Z</time>
      </trkpt>
      <trkpt lat="43.40147" lon="2.63565">
        <ele>486</ele>
        <time>2022-06-21T08:07:19Z</time>
      </trkpt>
      <trkpt lat="43.40147" lon="2.63568">
        <ele>486.3</ele>
        <time>2022-06-21T08:07:20Z</time>
      </trkpt>
      <trkpt lat="43.40147" lon="2.63569">
        <ele>486.4</ele>
        <time>2022-06-21T08:07:21Z</time>
      </trkpt>
      <trkpt lat="43.40146" lon="2.6357">
        <ele>486.5</ele>
        <time>2022-06-21T08:07:22Z</time>
      </trkpt>
      <trkpt lat="43.40146" lon="2.63571">
        <ele>486.6</ele>
        <time>2022-06-21T08:07:23Z</time>
      </trkpt>
      <trkpt lat="43.40146" lon="2.63572">
        <ele>486.7</ele>
        <time>2022-06-21T08:07:24Z</time>
      </trkpt>
      <trkpt lat="43.40146" lon="2.63573">
        <ele>486.8</ele>
        <time>2022-06-21T08:07:25Z</time>
      </trkpt>
      <trkpt lat="43.40145" lon="2.63574">
        <ele>486.9</ele>
        <time>2022-06-21T08:07:26Z</time>
      </trkpt>
      <trkpt lat="43.40145" lon="2.63574">
        <ele>487</ele>
        <time>2022-06-21T08:07:27Z</time>
      </trkpt>
      <trkpt lat="43.40145" lon="2.63575">
        <ele>487</ele>
        <time>2022-06-21T08:07:28Z</time>
      </trkpt>
      <trkpt lat="43.40144" lon="2.63576">
        <ele>487.2</ele>
        <time>2022-06-21T08:07:29Z</time>
      </trkpt>
      <trkpt lat="43.40144" lon="2.63577">
        <ele>487.3</ele>
        <time>2022-06-21T08:07:30Z</time>
      </trkpt>
      <trkpt lat="43.40144" lon="2.63578">
        <ele>487.4</ele>
        <time>2022-06-21T08:07:31Z</time>
      </trkpt>
      <trkpt lat="43.40144" lon="2.63579">
        <ele>487.5</ele>
        <time>2022-06-21T08:07:32Z</time>
      </trkpt>
      <trkpt lat="43.40143" lon="2.6358">
        <ele>487.6</ele>
        <time>2022-06-21T08:07:33Z</time>
      </trkpt>
      <trkpt lat="43.40143" lon="2.63581">
        <ele>487.7</ele>
        <time>2022-06-21T08:07:34Z</time>
      </trkpt>
      <trkpt lat="43.40143" lon="2.63582">
        <ele>487.8</ele>
        <time>2022-06-21T08:07:35Z</time>
      </trkpt>
      <trkpt lat="43.40143" lon="2.63582">
        <ele>487.8</ele>
        <time>2022-06-21T08:07:36Z</time>
      </trkpt>
      <trkpt lat="43.40143" lon="2.63583">
        <ele>487.9</ele>
        <time>2022-06-21T08:07:37Z</time>
      </trkpt>
      <trkpt lat="43.40143" lon="2.63584">
        <ele>488</ele>
        <time>2022-06-21T08:07:38Z</time>
      </trkpt>
      <trkpt lat="43.40142" lon="2.63587">
        <ele>488.2</ele>
        <time>2022-06-21T08:07:39Z</time>
      </trkpt>
      <trkpt lat="43.40142" lon="2.63589">
        <ele>488.4</ele>
        <time>2022-06-21T08:07:40Z</time>
      </trkpt>
      <trkpt lat="43.40142" lon="2.6359">
        <ele>488.6</ele>
        <time>2022-06-21T08:07:41Z</time>
      </trkpt>
      <trkpt lat="43.40141" lon="2.63592">
        <ele>488.7</ele>
        <time>2022-06-21T08:07:42Z</time>
      </trkpt>
      <trkpt lat="43.40141" lon="2.63593">
        <ele>488.8</ele>
        <time>2022-06-21T08:07:43Z</time>
      </trkpt>
      <trkpt lat="43.40141" lon="2.63594">
        <ele>488.9</ele>
        <time>2022-06-21T08:07:44Z</time>
      </trkpt>
      <trkpt lat="43.4014" lon="2.63595">
        <ele>489</ele>
        <time>2022-06-21T08:07:45Z</time>
      </trkpt>
      <trkpt lat="43.4014" lon="2.63595">
        <ele>489.1</ele>
        <time>2022-06-21T08:07:46Z</time>
      </trkpt>
      <trkpt lat="43.4014" lon="2.63596">
        <ele>489.1</ele>
        <time>2022-06-21T08:07:47Z</time>
      </trkpt>
      <trkpt lat="43.40139" lon="2.63597">
        <ele>489.2</ele>
        <time>2022-06-21T08:07:48Z</time>
      </trkpt>
      <trkpt lat="43.40139" lon="2.63598">
        <ele>489.3</ele>
        <time>2022-06-21T08:07:49Z</time>
      </trkpt>
      <trkpt lat="43.40139" lon="2.63599">
        <ele>489.4</ele>
        <time>2022-06-21T08:07:50Z</time>
      </trkpt>
      <trkpt lat="43.40139" lon="2.636">
        <ele>489.5</ele>
        <time>2022-06-21T08:07:51Z</time>
      </trkpt>
      <trkpt lat="43.40139" lon="2.63601">
        <ele>489.6</ele>
        <time>2022-06-21T08:07:52Z</time>
      </trkpt>
      <trkpt lat="43.40139" lon="2.63602">
        <ele>489.7</ele>
        <time>2022-06-21T08:07:53Z</time>
      </trkpt>
      <trkpt lat="43.40139" lon="2.63603">
        <ele>489.8</ele>
        <time>2022-06-21T08:07:54Z</time>
      </trkpt>
      <trkpt lat="43.40139" lon="2.63603">
        <ele>489.8</ele>
        <time>2022-06-21T08:07:55Z</time>
      </trkpt>
      <trkpt lat="43.40138" lon="2.63604">
        <ele>489.9</ele>
        <time>2022-06-21T08:07:56Z</time>
      </trkpt>
      <trkpt lat="43.40138" lon="2.63605">
        <ele>490</ele>
        <time>2022-06-21T08:07:57Z</time>
      </trkpt>
      <trkpt lat="43.40138" lon="2.63606">
        <ele>490.1</ele>
        <time>2022-06-21T08:07:58Z</time>
      </trkpt>
      <trkpt lat="43.40138" lon="2.63607">
        <ele>490.2</ele>
        <time>2022-06-21T08:07:59Z</time>
      </trkpt>
      <trkpt lat="43.40138" lon="2.63608">
        <ele>490.3</ele>
        <time>2022-06-21T08:08:00Z</time>
      </trkpt>
      <trkpt lat="43.40138" lon="2.63608">
        <ele>490.4</ele>
        <time>2022-06-21T08:08:01Z</time>
      </trkpt>
      <trkpt lat="43.40137" lon="2.6361">
        <ele>490.6</ele>
        <time>2022-06-21T08:08:02Z</time>
      </trkpt>
      <trkpt lat="43.40137" lon="2.63611">
        <ele>490.7</ele>
        <time>2022-06-21T08:08:03Z</time>
      </trkpt>
      <trkpt lat="43.40136" lon="2.63611">
        <ele>490.7</ele>
        <time>2022-06-21T08:08:04Z</time>
      </trkpt>
      <trkpt lat="43.40136" lon="2.63612">
        <ele>490.8</ele>
        <time>2022-06-21T08:08:05Z</time>
      </trkpt>
      <trkpt lat="43.40136" lon="2.63612">
        <ele>490.9</ele>
        <time>2022-06-21T08:08:06Z</time>
      </trkpt>
      <trkpt lat="43.40135" lon="2.63615">
        <ele>491.1</ele>
        <time>2022-06-21T08:08:07Z</time>
      </trkpt>
      <trkpt lat="43.40135" lon="2.63615">
        <ele>491.2</ele>
        <time>2022-06-21T08:08:08Z</time>
      </trkpt>
      <trkpt lat="43.40135" lon="2.63616">
        <ele>491.3</ele>
        <time>2022-06-21T08:08:09Z</time>
      </trkpt>
      <trkpt lat="43.40135" lon="2.63617">
        <ele>491.4</ele>
        <time>2022-06-21T08:08:10Z</time>
      </trkpt>
      <trkpt lat="43.40135" lon="2.63618">
        <ele>491.5</ele>
        <time>2022-06-21T08:08:11Z</time>
      </trkpt>
      <trkpt lat="43.40135" lon="2.63619">
        <ele>491.6</ele>
        <time>2022-06-21T08:08:12Z</time>
      </trkpt>
      <trkpt lat="43.40135" lon="2.63619">
        <ele>491.6</ele>
        <time>2022-06-21T08:08:13Z</time>
      </trkpt>
      <trkpt lat="43.40135" lon="2.6362">
        <ele>491.7</ele>
        <time>2022-06-21T08:08:14Z</time>
      </trkpt>
      <trkpt lat="43.40135" lon="2.63621">
        <ele>491.8</ele>
        <time>2022-06-21T08:08:15Z</time>
      </trkpt>
      <trkpt lat="43.40135" lon="2.63622">
        <ele>492</ele>
        <time>2022-06-21T08:08:16Z</time>
      </trkpt>
      <trkpt lat="43.40134" lon="2.63623">
        <ele>492</ele>
        <time>2022-06-21T08:08:17Z</time>
      </trkpt>
      <trkpt lat="43.40134" lon="2.63624">
        <ele>492.1</ele>
        <time>2022-06-21T08:08:18Z</time>
      </trkpt>
      <trkpt lat="43.40135" lon="2.63625">
        <ele>492.2</ele>
        <time>2022-06-21T08:08:19Z</time>
      </trkpt>
      <trkpt lat="43.40135" lon="2.63626">
        <ele>492.3</ele>
        <time>2022-06-21T08:08:20Z</time>
      </trkpt>
      <trkpt lat="43.40135" lon="2.63627">
        <ele>492.4</ele>
        <time>2022-06-21T08:08:21Z</time>
      </trkpt>
      <trkpt lat="43.40135" lon="2.63628">
        <ele>492.5</ele>
        <time>2022-06-21T08:08:22Z</time>
      </trkpt>
      <trkpt lat="43.40135" lon="2.63629">
        <ele>492.6</ele>
        <time>2022-06-21T08:08:23Z</time>
      </trkpt>
      <trkpt lat="43.40135" lon="2.6363">
        <ele>492.7</ele>
        <time>2022-06-21T08:08:24Z</time>
      </trkpt>
      <trkpt lat="43.40135" lon="2.63631">
        <ele>492.9</ele>
        <time>2022-06-21T08:08:25Z</time>
      </trkpt>
      <trkpt lat="43.40134" lon="2.63632">
        <ele>493</ele>
        <time>2022-06-21T08:08:26Z</time>
      </trkpt>
      <trkpt lat="43.40134" lon="2.63634">
        <ele>493.1</ele>
        <time>2022-06-21T08:08:27Z</time>
      </trkpt>
      <trkpt lat="43.40133" lon="2.63636">
        <ele>493.3</ele>
        <time>2022-06-21T08:08:28Z</time>
      </trkpt>
      <trkpt lat="43.40133" lon="2.63637">
        <ele>493.4</ele>
        <time>2022-06-21T08:08:29Z</time>
      </trkpt>
      <trkpt lat="43.40133" lon="2.63638">
        <ele>493.5</ele>
        <time>2022-06-21T08:08:30Z</time>
      </trkpt>
      <trkpt lat="43.40133" lon="2.63639">
        <ele>493.6</ele>
        <time>2022-06-21T08:08:31Z</time>
      </trkpt>
      <trkpt lat="43.40133" lon="2.63639">
        <ele>493.7</ele>
        <time>2022-06-21T08:08:32Z</time>
      </trkpt>
      <trkpt lat="43.40133" lon="2.63639">
        <ele>493.7</ele>
        <time>2022-06-21T08:08:33Z</time>
      </trkpt>
      <trkpt lat="43.40133" lon="2.6364">
        <ele>493.7</ele>
        <time>2022-06-21T08:08:34Z</time>
      </trkpt>
      <trkpt lat="43.40133" lon="2.63641">
        <ele>493.8</ele>
        <time>2022-06-21T08:08:35Z</time>
      </trkpt>
      <trkpt lat="43.40133" lon="2.63642">
        <ele>493.9</ele>
        <time>2022-06-21T08:08:36Z</time>
      </trkpt>
      <trkpt lat="43.40133" lon="2.63643">
        <ele>494</ele>
        <time>2022-06-21T08:08:37Z</time>
      </trkpt>
      <trkpt lat="43.40132" lon="2.63644">
        <ele>494.1</ele>
        <time>2022-06-21T08:08:38Z</time>
      </trkpt>
      <trkpt lat="43.40132" lon="2.63646">
        <ele>494.3</ele>
        <time>2022-06-21T08:08:39Z</time>
      </trkpt>
      <trkpt lat="43.40132" lon="2.63647">
        <ele>494.4</ele>
        <time>2022-06-21T08:08:40Z</time>
      </trkpt>
      <trkpt lat="43.40132" lon="2.63649">
        <ele>494.5</ele>
        <time>2022-06-21T08:08:41Z</time>
      </trkpt>
      <trkpt lat="43.40132" lon="2.6365">
        <ele>494.6</ele>
        <time>2022-06-21T08:08:42Z</time>
      </trkpt>
      <trkpt lat="43.40131" lon="2.63651">
        <ele>494.8</ele>
        <time>2022-06-21T08:08:43Z</time>
      </trkpt>
      <trkpt lat="43.40131" lon="2.63652">
        <ele>494.9</ele>
        <time>2022-06-21T08:08:44Z</time>
      </trkpt>
      <trkpt lat="43.40131" lon="2.63655">
        <ele>495.1</ele>
        <time>2022-06-21T08:08:45Z</time>
      </trkpt>
      <trkpt lat="43.4013" lon="2.63656">
        <ele>495.2</ele>
        <time>2022-06-21T08:08:46Z</time>
      </trkpt>
      <trkpt lat="43.4013" lon="2.63657">
        <ele>495.3</ele>
        <time>2022-06-21T08:08:47Z</time>
      </trkpt>
      <trkpt lat="43.4013" lon="2.63657">
        <ele>495.4</ele>
        <time>2022-06-21T08:08:48Z</time>
      </trkpt>
      <trkpt lat="43.4013" lon="2.63658">
        <ele>495.4</ele>
        <time>2022-06-21T08:08:49Z</time>
      </trkpt>
      <trkpt lat="43.4013" lon="2.63659">
        <ele>495.5</ele>
        <time>2022-06-21T08:08:50Z</time>
      </trkpt>
      <trkpt lat="43.4013" lon="2.63659">
        <ele>495.5</ele>
        <time>2022-06-21T08:08:51Z</time>
      </trkpt>
      <trkpt lat="43.4013" lon="2.6366">
        <ele>495.6</ele>
        <time>2022-06-21T08:08:52Z</time>
      </trkpt>
      <trkpt lat="43.4013" lon="2.63661">
        <ele>495.7</ele>
        <time>2022-06-21T08:08:53Z</time>
      </trkpt>
      <trkpt lat="43.40129" lon="2.63662">
        <ele>495.8</ele>
        <time>2022-06-21T08:08:54Z</time>
      </trkpt>
      <trkpt lat="43.40129" lon="2.63663">
        <ele>495.9</ele>
        <time>2022-06-21T08:08:55Z</time>
      </trkpt>
      <trkpt lat="43.40128" lon="2.63664">
        <ele>496</ele>
        <time>2022-06-21T08:08:56Z</time>
      </trkpt>
      <trkpt lat="43.40128" lon="2.63664">
        <ele>496.1</ele>
        <time>2022-06-21T08:08:57Z</time>
      </trkpt>
      <trkpt lat="43.40128" lon="2.63665">
        <ele>496.1</ele>
        <time>2022-06-21T08:08:58Z</time>
      </trkpt>
      <trkpt lat="43.40128" lon="2.63665">
        <ele>496.1</ele>
        <time>2022-06-21T08:08:59Z</time>
      </trkpt>
      <trkpt lat="43.40128" lon="2.63665">
        <ele>496.2</ele>
        <time>2022-06-21T08:09:00Z</time>
      </trkpt>
      <trkpt lat="43.40128" lon="2.63666">
        <ele>496.3</ele>
        <time>2022-06-21T08:09:01Z</time>
      </trkpt>
      <trkpt lat="43.40128" lon="2.63668">
        <ele>496.5</ele>
        <time>2022-06-21T08:09:02Z</time>
      </trkpt>
      <trkpt lat="43.40128" lon="2.63669">
        <ele>496.6</ele>
        <time>2022-06-21T08:09:03Z</time>
      </trkpt>
      <trkpt lat="43.40128" lon="2.6367">
        <ele>496.6</ele>
        <time>2022-06-21T08:09:04Z</time>
      </trkpt>
      <trkpt lat="43.40128" lon="2.63671">
        <ele>496.7</ele>
        <time>2022-06-21T08:09:05Z</time>
      </trkpt>
      <trkpt lat="43.40127" lon="2.63672">
        <ele>496.9</ele>
        <time>2022-06-21T08:09:06Z</time>
      </trkpt>
      <trkpt lat="43.40127" lon="2.63674">
        <ele>497</ele>
        <time>2022-06-21T08:09:07Z</time>
      </trkpt>
      <trkpt lat="43.40127" lon="2.63677">
        <ele>497.3</ele>
        <time>2022-06-21T08:09:08Z</time>
      </trkpt>
      <trkpt lat="43.40127" lon="2.63678">
        <ele>497.5</ele>
        <time>2022-06-21T08:09:09Z</time>
      </trkpt>
      <trkpt lat="43.40126" lon="2.63679">
        <ele>497.6</ele>
        <time>2022-06-21T08:09:10Z</time>
      </trkpt>
      <trkpt lat="43.40126" lon="2.6368">
        <ele>497.7</ele>
        <time>2022-06-21T08:09:11Z</time>
      </trkpt>
      <trkpt lat="43.40126" lon="2.63681">
        <ele>497.8</ele>
        <time>2022-06-21T08:09:12Z</time>
      </trkpt>
      <trkpt lat="43.40125" lon="2.63682">
        <ele>497.9</ele>
        <time>2022-06-21T08:09:13Z</time>
      </trkpt>
      <trkpt lat="43.40125" lon="2.63683">
        <ele>498.1</ele>
        <time>2022-06-21T08:09:14Z</time>
      </trkpt>
      <trkpt lat="43.40124" lon="2.63685">
        <ele>498.2</ele>
        <time>2022-06-21T08:09:15Z</time>
      </trkpt>
      <trkpt lat="43.40124" lon="2.63686">
        <ele>498.4</ele>
        <time>2022-06-21T08:09:16Z</time>
      </trkpt>
      <trkpt lat="43.40123" lon="2.63687">
        <ele>498.5</ele>
        <time>2022-06-21T08:09:17Z</time>
      </trkpt>
      <trkpt lat="43.40123" lon="2.63688">
        <ele>498.7</ele>
        <time>2022-06-21T08:09:18Z</time>
      </trkpt>
      <trkpt lat="43.40122" lon="2.63689">
        <ele>498.8</ele>
        <time>2022-06-21T08:09:19Z</time>
      </trkpt>
      <trkpt lat="43.40122" lon="2.6369">
        <ele>498.9</ele>
        <time>2022-06-21T08:09:20Z</time>
      </trkpt>
      <trkpt lat="43.40122" lon="2.63691">
        <ele>499</ele>
        <time>2022-06-21T08:09:21Z</time>
      </trkpt>
      <trkpt lat="43.40121" lon="2.63692">
        <ele>499.1</ele>
        <time>2022-06-21T08:09:22Z</time>
      </trkpt>
      <trkpt lat="43.40121" lon="2.63692">
        <ele>499.2</ele>
        <time>2022-06-21T08:09:23Z</time>
      </trkpt>
      <trkpt lat="43.40121" lon="2.63693">
        <ele>499.2</ele>
        <time>2022-06-21T08:09:24Z</time>
      </trkpt>
      <trkpt lat="43.40121" lon="2.63694">
        <ele>499.3</ele>
        <time>2022-06-21T08:09:25Z</time>
      </trkpt>
      <trkpt lat="43.40121" lon="2.63695">
        <ele>499.4</ele>
        <time>2022-06-21T08:09:26Z</time>
      </trkpt>
      <trkpt lat="43.40121" lon="2.63695">
        <ele>499.5</ele>
        <time>2022-06-21T08:09:27Z</time>
      </trkpt>
      <trkpt lat="43.40121" lon="2.63696">
        <ele>499.6</ele>
        <time>2022-06-21T08:09:28Z</time>
      </trkpt>
      <trkpt lat="43.4012" lon="2.63697">
        <ele>499.7</ele>
        <time>2022-06-21T08:09:29Z</time>
      </trkpt>
      <trkpt lat="43.4012" lon="2.63699">
        <ele>499.8</ele>
        <time>2022-06-21T08:09:30Z</time>
      </trkpt>
      <trkpt lat="43.4012" lon="2.637">
        <ele>499.9</ele>
        <time>2022-06-21T08:09:31Z</time>
      </trkpt>
      <trkpt lat="43.40118" lon="2.63701">
        <ele>500.2</ele>
        <time>2022-06-21T08:09:32Z</time>
      </trkpt>
      <trkpt lat="43.40118" lon="2.63702">
        <ele>500.3</ele>
        <time>2022-06-21T08:09:33Z</time>
      </trkpt>
      <trkpt lat="43.40117" lon="2.63703">
        <ele>500.4</ele>
        <time>2022-06-21T08:09:34Z</time>
      </trkpt>
      <trkpt lat="43.40117" lon="2.63704">
        <ele>500.5</ele>
        <time>2022-06-21T08:09:35Z</time>
      </trkpt>
      <trkpt lat="43.40117" lon="2.63704">
        <ele>500.5</ele>
        <time>2022-06-21T08:09:36Z</time>
      </trkpt>
      <trkpt lat="43.40117" lon="2.63705">
        <ele>500.6</ele>
        <time>2022-06-21T08:09:37Z</time>
      </trkpt>
      <trkpt lat="43.40116" lon="2.63705">
        <ele>500.7</ele>
        <time>2022-06-21T08:09:38Z</time>
      </trkpt>
      <trkpt lat="43.40115" lon="2.63706">
        <ele>500.8</ele>
        <time>2022-06-21T08:09:39Z</time>
      </trkpt>
      <trkpt lat="43.40115" lon="2.63707">
        <ele>500.9</ele>
        <time>2022-06-21T08:09:40Z</time>
      </trkpt>
      <trkpt lat="43.40114" lon="2.63709">
        <ele>501.1</ele>
        <time>2022-06-21T08:09:41Z</time>
      </trkpt>
      <trkpt lat="43.40114" lon="2.6371">
        <ele>501.2</ele>
        <time>2022-06-21T08:09:42Z</time>
      </trkpt>
      <trkpt lat="43.40114" lon="2.6371">
        <ele>501.3</ele>
        <time>2022-06-21T08:09:43Z</time>
      </trkpt>
      <trkpt lat="43.40113" lon="2.63711">
        <ele>501.3</ele>
        <time>2022-06-21T08:09:44Z</time>
      </trkpt>
      <trkpt lat="43.40113" lon="2.63712">
        <ele>501.4</ele>
        <time>2022-06-21T08:09:45Z</time>
      </trkpt>
      <trkpt lat="43.40113" lon="2.63713">
        <ele>501.5</ele>
        <time>2022-06-21T08:09:46Z</time>
      </trkpt>
      <trkpt lat="43.40113" lon="2.63713">
        <ele>501.5</ele>
        <time>2022-06-21T08:09:47Z</time>
      </trkpt>
      <trkpt lat="43.40113" lon="2.63714">
        <ele>501.6</ele>
        <time>2022-06-21T08:09:48Z</time>
      </trkpt>
      <trkpt lat="43.40113" lon="2.63715">
        <ele>501.7</ele>
        <time>2022-06-21T08:09:49Z</time>
      </trkpt>
      <trkpt lat="43.40113" lon="2.63716">
        <ele>501.8</ele>
        <time>2022-06-21T08:09:50Z</time>
      </trkpt>
      <trkpt lat="43.40112" lon="2.63717">
        <ele>501.9</ele>
        <time>2022-06-21T08:09:51Z</time>
      </trkpt>
      <trkpt lat="43.40112" lon="2.63717">
        <ele>502</ele>
        <time>2022-06-21T08:09:52Z</time>
      </trkpt>
      <trkpt lat="43.40112" lon="2.63718">
        <ele>502</ele>
        <time>2022-06-21T08:09:53Z</time>
      </trkpt>
      <trkpt lat="43.40112" lon="2.63719">
        <ele>502.1</ele>
        <time>2022-06-21T08:09:54Z</time>
      </trkpt>
      <trkpt lat="43.40111" lon="2.6372">
        <ele>502.2</ele>
        <time>2022-06-21T08:09:55Z</time>
      </trkpt>
      <trkpt lat="43.40111" lon="2.63721">
        <ele>502.3</ele>
        <time>2022-06-21T08:09:56Z</time>
      </trkpt>
      <trkpt lat="43.40111" lon="2.63722">
        <ele>502.4</ele>
        <time>2022-06-21T08:09:57Z</time>
      </trkpt>
      <trkpt lat="43.40111" lon="2.63723">
        <ele>502.5</ele>
        <time>2022-06-21T08:09:58Z</time>
      </trkpt>
      <trkpt lat="43.4011" lon="2.63724">
        <ele>502.6</ele>
        <time>2022-06-21T08:09:59Z</time>
      </trkpt>
      <trkpt lat="43.4011" lon="2.63725">
        <ele>502.7</ele>
        <time>2022-06-21T08:10:00Z</time>
      </trkpt>
      <trkpt lat="43.40109" lon="2.63726">
        <ele>502.8</ele>
        <time>2022-06-21T08:10:01Z</time>
      </trkpt>
      <trkpt lat="43.40109" lon="2.63727">
        <ele>502.9</ele>
        <time>2022-06-21T08:10:02Z</time>
      </trkpt>
      <trkpt lat="43.40108" lon="2.63728">
        <ele>503.1</ele>
        <time>2022-06-21T08:10:03Z</time>
      </trkpt>
      <trkpt lat="43.40108" lon="2.63729">
        <ele>503.2</ele>
        <time>2022-06-21T08:10:04Z</time>
      </trkpt>
      <trkpt lat="43.40107" lon="2.63731">
        <ele>503.3</ele>
        <time>2022-06-21T08:10:05Z</time>
      </trkpt>
      <trkpt lat="43.40107" lon="2.63732">
        <ele>503.4</ele>
        <time>2022-06-21T08:10:06Z</time>
      </trkpt>
      <trkpt lat="43.40107" lon="2.63733">
        <ele>503.6</ele>
        <time>2022-06-21T08:10:07Z</time>
      </trkpt>
      <trkpt lat="43.40106" lon="2.63735">
        <ele>503.8</ele>
        <time>2022-06-21T08:10:08Z</time>
      </trkpt>
      <trkpt lat="43.40106" lon="2.63736">
        <ele>503.9</ele>
        <time>2022-06-21T08:10:09Z</time>
      </trkpt>
      <trkpt lat="43.40105" lon="2.63738">
        <ele>504</ele>
        <time>2022-06-21T08:10:10Z</time>
      </trkpt>
      <trkpt lat="43.40105" lon="2.63739">
        <ele>504.1</ele>
        <time>2022-06-21T08:10:11Z</time>
      </trkpt>
      <trkpt lat="43.40105" lon="2.6374">
        <ele>504.2</ele>
        <time>2022-06-21T08:10:12Z</time>
      </trkpt>
      <trkpt lat="43.40104" lon="2.63742">
        <ele>504.3</ele>
        <time>2022-06-21T08:10:13Z</time>
      </trkpt>
      <trkpt lat="43.40104" lon="2.63743">
        <ele>504.4</ele>
        <time>2022-06-21T08:10:14Z</time>
      </trkpt>
      <trkpt lat="43.40103" lon="2.63744">
        <ele>504.6</ele>
        <time>2022-06-21T08:10:15Z</time>
      </trkpt>
      <trkpt lat="43.40103" lon="2.63746">
        <ele>504.7</ele>
        <time>2022-06-21T08:10:16Z</time>
      </trkpt>
      <trkpt lat="43.40102" lon="2.63747">
        <ele>504.8</ele>
        <time>2022-06-21T08:10:17Z</time>
      </trkpt>
      <trkpt lat="43.40102" lon="2.63748">
        <ele>504.9</ele>
        <time>2022-06-21T08:10:18Z</time>
      </trkpt>
      <trkpt lat="43.40102" lon="2.6375">
        <ele>505</ele>
        <time>2022-06-21T08:10:19Z</time>
      </trkpt>
      <trkpt lat="43.40102" lon="2.63751">
        <ele>505.1</ele>
        <time>2022-06-21T08:10:20Z</time>
      </trkpt>
      <trkpt lat="43.40101" lon="2.63752">
        <ele>505.2</ele>
        <time>2022-06-21T08:10:21Z</time>
      </trkpt>
      <trkpt lat="43.40101" lon="2.63753">
        <ele>505.3</ele>
        <time>2022-06-21T08:10:22Z</time>
      </trkpt>
      <trkpt lat="43.40101" lon="2.63754">
        <ele>505.4</ele>
        <time>2022-06-21T08:10:23Z</time>
      </trkpt>
      <trkpt lat="43.40101" lon="2.63755">
        <ele>505.4</ele>
        <time>2022-06-21T08:10:24Z</time>
      </trkpt>
      <trkpt lat="43.401" lon="2.63756">
        <ele>505.5</ele>
        <time>2022-06-21T08:10:25Z</time>
      </trkpt>
      <trkpt lat="43.401" lon="2.63756">
        <ele>505.5</ele>
        <time>2022-06-21T08:10:26Z</time>
      </trkpt>
      <trkpt lat="43.401" lon="2.63757">
        <ele>505.6</ele>
        <time>2022-06-21T08:10:27Z</time>
      </trkpt>
      <trkpt lat="43.40099" lon="2.63757">
        <ele>505.7</ele>
        <time>2022-06-21T08:10:28Z</time>
      </trkpt>
      <trkpt lat="43.40099" lon="2.63758">
        <ele>505.7</ele>
        <time>2022-06-21T08:10:29Z</time>
      </trkpt>
      <trkpt lat="43.40098" lon="2.63758">
        <ele>505.8</ele>
        <time>2022-06-21T08:10:30Z</time>
      </trkpt>
      <trkpt lat="43.40098" lon="2.63758">
        <ele>505.8</ele>
        <time>2022-06-21T08:10:31Z</time>
      </trkpt>
      <trkpt lat="43.40098" lon="2.63758">
        <ele>505.8</ele>
        <time>2022-06-21T08:10:32Z</time>
      </trkpt>
      <trkpt lat="43.40098" lon="2.63758">
        <ele>505.8</ele>
        <time>2022-06-21T08:10:33Z</time>
      </trkpt>
      <trkpt lat="43.40098" lon="2.63758">
        <ele>505.8</ele>
        <time>2022-06-21T08:10:34Z</time>
      </trkpt>
      <trkpt lat="43.40098" lon="2.63758">
        <ele>505.8</ele>
        <time>2022-06-21T08:10:35Z</time>
      </trkpt>
      <trkpt lat="43.40098" lon="2.63759">
        <ele>505.9</ele>
        <time>2022-06-21T08:10:36Z</time>
      </trkpt>
      <trkpt lat="43.40098" lon="2.6376">
        <ele>506</ele>
        <time>2022-06-21T08:10:37Z</time>
      </trkpt>
      <trkpt lat="43.40097" lon="2.6376">
        <ele>506</ele>
        <time>2022-06-21T08:10:38Z</time>
      </trkpt>
      <trkpt lat="43.40097" lon="2.63761">
        <ele>506.1</ele>
        <time>2022-06-21T08:10:39Z</time>
      </trkpt>
      <trkpt lat="43.40097" lon="2.63762">
        <ele>506.2</ele>
        <time>2022-06-21T08:10:40Z</time>
      </trkpt>
      <trkpt lat="43.40096" lon="2.63763">
        <ele>506.3</ele>
        <time>2022-06-21T08:10:41Z</time>
      </trkpt>
      <trkpt lat="43.40096" lon="2.63764">
        <ele>506.4</ele>
        <time>2022-06-21T08:10:42Z</time>
      </trkpt>
      <trkpt lat="43.40096" lon="2.63765">
        <ele>506.5</ele>
        <time>2022-06-21T08:10:43Z</time>
      </trkpt>
      <trkpt lat="43.40096" lon="2.63765">
        <ele>506.5</ele>
        <time>2022-06-21T08:10:44Z</time>
      </trkpt>
      <trkpt lat="43.40095" lon="2.63767">
        <ele>506.7</ele>
        <time>2022-06-21T08:10:45Z</time>
      </trkpt>
      <trkpt lat="43.40095" lon="2.63768">
        <ele>506.8</ele>
        <time>2022-06-21T08:10:46Z</time>
      </trkpt>
      <trkpt lat="43.40095" lon="2.63769">
        <ele>506.9</ele>
        <time>2022-06-21T08:10:47Z</time>
      </trkpt>
      <trkpt lat="43.40095" lon="2.6377">
        <ele>506.9</ele>
        <time>2022-06-21T08:10:48Z</time>
      </trkpt>
      <trkpt lat="43.40094" lon="2.63771">
        <ele>507.1</ele>
        <time>2022-06-21T08:10:49Z</time>
      </trkpt>
      <trkpt lat="43.40094" lon="2.63772">
        <ele>507.2</ele>
        <time>2022-06-21T08:10:50Z</time>
      </trkpt>
      <trkpt lat="43.40094" lon="2.63773">
        <ele>507.3</ele>
        <time>2022-06-21T08:10:51Z</time>
      </trkpt>
      <trkpt lat="43.40093" lon="2.63775">
        <ele>507.4</ele>
        <time>2022-06-21T08:10:52Z</time>
      </trkpt>
      <trkpt lat="43.40093" lon="2.63776">
        <ele>507.6</ele>
        <time>2022-06-21T08:10:53Z</time>
      </trkpt>
      <trkpt lat="43.40092" lon="2.63777">
        <ele>507.7</ele>
        <time>2022-06-21T08:10:54Z</time>
      </trkpt>
      <trkpt lat="43.40092" lon="2.63779">
        <ele>507.9</ele>
        <time>2022-06-21T08:10:55Z</time>
      </trkpt>
      <trkpt lat="43.40091" lon="2.6378">
        <ele>508.1</ele>
        <time>2022-06-21T08:10:56Z</time>
      </trkpt>
      <trkpt lat="43.40091" lon="2.63781">
        <ele>508.2</ele>
        <time>2022-06-21T08:10:57Z</time>
      </trkpt>
      <trkpt lat="43.40091" lon="2.63782">
        <ele>508.3</ele>
        <time>2022-06-21T08:10:58Z</time>
      </trkpt>
      <trkpt lat="43.4009" lon="2.63783">
        <ele>508.3</ele>
        <time>2022-06-21T08:10:59Z</time>
      </trkpt>
      <trkpt lat="43.4009" lon="2.63784">
        <ele>508.4</ele>
        <time>2022-06-21T08:11:00Z</time>
      </trkpt>
      <trkpt lat="43.4009" lon="2.63784">
        <ele>508.5</ele>
        <time>2022-06-21T08:11:01Z</time>
      </trkpt>
      <trkpt lat="43.4009" lon="2.63785">
        <ele>508.6</ele>
        <time>2022-06-21T08:11:02Z</time>
      </trkpt>
      <trkpt lat="43.40089" lon="2.63787">
        <ele>508.7</ele>
        <time>2022-06-21T08:11:03Z</time>
      </trkpt>
      <trkpt lat="43.40089" lon="2.63788">
        <ele>508.8</ele>
        <time>2022-06-21T08:11:04Z</time>
      </trkpt>
      <trkpt lat="43.40089" lon="2.63789">
        <ele>509</ele>
        <time>2022-06-21T08:11:05Z</time>
      </trkpt>
      <trkpt lat="43.40088" lon="2.6379">
        <ele>509.1</ele>
        <time>2022-06-21T08:11:06Z</time>
      </trkpt>
      <trkpt lat="43.40088" lon="2.63791">
        <ele>509.2</ele>
        <time>2022-06-21T08:11:07Z</time>
      </trkpt>
      <trkpt lat="43.40088" lon="2.63792">
        <ele>509.2</ele>
        <time>2022-06-21T08:11:08Z</time>
      </trkpt>
      <trkpt lat="43.40088" lon="2.63793">
        <ele>509.3</ele>
        <time>2022-06-21T08:11:09Z</time>
      </trkpt>
      <trkpt lat="43.40087" lon="2.63794">
        <ele>509.5</ele>
        <time>2022-06-21T08:11:10Z</time>
      </trkpt>
      <trkpt lat="43.40087" lon="2.63795">
        <ele>509.6</ele>
        <time>2022-06-21T08:11:11Z</time>
      </trkpt>
      <trkpt lat="43.40086" lon="2.63797">
        <ele>509.7</ele>
        <time>2022-06-21T08:11:12Z</time>
      </trkpt>
      <trkpt lat="43.40086" lon="2.63798">
        <ele>509.8</ele>
        <time>2022-06-21T08:11:13Z</time>
      </trkpt>
      <trkpt lat="43.40086" lon="2.63799">
        <ele>509.9</ele>
        <time>2022-06-21T08:11:14Z</time>
      </trkpt>
      <trkpt lat="43.40086" lon="2.638">
        <ele>510</ele>
        <time>2022-06-21T08:11:15Z</time>
      </trkpt>
      <trkpt lat="43.40086" lon="2.63801">
        <ele>510.1</ele>
        <time>2022-06-21T08:11:16Z</time>
      </trkpt>
      <trkpt lat="43.40086" lon="2.63802">
        <ele>510.2</ele>
        <time>2022-06-21T08:11:17Z</time>
      </trkpt>
      <trkpt lat="43.40085" lon="2.63803">
        <ele>510.3</ele>
        <time>2022-06-21T08:11:18Z</time>
      </trkpt>
      <trkpt lat="43.40085" lon="2.63804">
        <ele>510.4</ele>
        <time>2022-06-21T08:11:19Z</time>
      </trkpt>
      <trkpt lat="43.40085" lon="2.63805">
        <ele>510.5</ele>
        <time>2022-06-21T08:11:20Z</time>
      </trkpt>
      <trkpt lat="43.40085" lon="2.63807">
        <ele>510.7</ele>
        <time>2022-06-21T08:11:21Z</time>
      </trkpt>
      <trkpt lat="43.40084" lon="2.63809">
        <ele>510.9</ele>
        <time>2022-06-21T08:11:22Z</time>
      </trkpt>
      <trkpt lat="43.40084" lon="2.6381">
        <ele>511</ele>
        <time>2022-06-21T08:11:23Z</time>
      </trkpt>
      <trkpt lat="43.40084" lon="2.63812">
        <ele>511.1</ele>
        <time>2022-06-21T08:11:24Z</time>
      </trkpt>
      <trkpt lat="43.40084" lon="2.63812">
        <ele>511.2</ele>
        <time>2022-06-21T08:11:25Z</time>
      </trkpt>
      <trkpt lat="43.40084" lon="2.63813">
        <ele>511.2</ele>
        <time>2022-06-21T08:11:26Z</time>
      </trkpt>
      <trkpt lat="43.40084" lon="2.63814">
        <ele>511.3</ele>
        <time>2022-06-21T08:11:27Z</time>
      </trkpt>
      <trkpt lat="43.40084" lon="2.63816">
        <ele>511.5</ele>
        <time>2022-06-21T08:11:28Z</time>
      </trkpt>
      <trkpt lat="43.40084" lon="2.63817">
        <ele>511.6</ele>
        <time>2022-06-21T08:11:29Z</time>
      </trkpt>
      <trkpt lat="43.40084" lon="2.63818">
        <ele>511.7</ele>
        <time>2022-06-21T08:11:30Z</time>
      </trkpt>
      <trkpt lat="43.40084" lon="2.6382">
        <ele>511.9</ele>
        <time>2022-06-21T08:11:31Z</time>
      </trkpt>
      <trkpt lat="43.40084" lon="2.63821">
        <ele>512</ele>
        <time>2022-06-21T08:11:32Z</time>
      </trkpt>
      <trkpt lat="43.40084" lon="2.63823">
        <ele>512.1</ele>
        <time>2022-06-21T08:11:33Z</time>
      </trkpt>
      <trkpt lat="43.40083" lon="2.63824">
        <ele>512.2</ele>
        <time>2022-06-21T08:11:34Z</time>
      </trkpt>
      <trkpt lat="43.40083" lon="2.63825">
        <ele>512.3</ele>
        <time>2022-06-21T08:11:35Z</time>
      </trkpt>
      <trkpt lat="43.40083" lon="2.63826">
        <ele>512.4</ele>
        <time>2022-06-21T08:11:36Z</time>
      </trkpt>
      <trkpt lat="43.40083" lon="2.63827">
        <ele>512.5</ele>
        <time>2022-06-21T08:11:37Z</time>
      </trkpt>
      <trkpt lat="43.40083" lon="2.63828">
        <ele>512.6</ele>
        <time>2022-06-21T08:11:38Z</time>
      </trkpt>
      <trkpt lat="43.40083" lon="2.63829">
        <ele>512.7</ele>
        <time>2022-06-21T08:11:39Z</time>
      </trkpt>
      <trkpt lat="43.40083" lon="2.6383">
        <ele>512.7</ele>
        <time>2022-06-21T08:11:40Z</time>
      </trkpt>
      <trkpt lat="43.40082" lon="2.6383">
        <ele>512.8</ele>
        <time>2022-06-21T08:11:41Z</time>
      </trkpt>
      <trkpt lat="43.40082" lon="2.63831">
        <ele>512.8</ele>
        <time>2022-06-21T08:11:42Z</time>
      </trkpt>
      <trkpt lat="43.40082" lon="2.63832">
        <ele>512.9</ele>
        <time>2022-06-21T08:11:43Z</time>
      </trkpt>
      <trkpt lat="43.40081" lon="2.63833">
        <ele>513.1</ele>
        <time>2022-06-21T08:11:44Z</time>
      </trkpt>
      <trkpt lat="43.40081" lon="2.63834">
        <ele>513.2</ele>
        <time>2022-06-21T08:11:45Z</time>
      </trkpt>
      <trkpt lat="43.4008" lon="2.63835">
        <ele>513.3</ele>
        <time>2022-06-21T08:11:46Z</time>
      </trkpt>
      <trkpt lat="43.4008" lon="2.63836">
        <ele>513.4</ele>
        <time>2022-06-21T08:11:47Z</time>
      </trkpt>
      <trkpt lat="43.4008" lon="2.63837">
        <ele>513.5</ele>
        <time>2022-06-21T08:11:48Z</time>
      </trkpt>
      <trkpt lat="43.40079" lon="2.63838">
        <ele>513.6</ele>
        <time>2022-06-21T08:11:49Z</time>
      </trkpt>
      <trkpt lat="43.40079" lon="2.63839">
        <ele>513.6</ele>
        <time>2022-06-21T08:11:50Z</time>
      </trkpt>
      <trkpt lat="43.40079" lon="2.63839">
        <ele>513.6</ele>
        <time>2022-06-21T08:11:51Z</time>
      </trkpt>
      <trkpt lat="43.40079" lon="2.63839">
        <ele>513.6</ele>
        <time>2022-06-21T08:11:52Z</time>
      </trkpt>
      <trkpt lat="43.40079" lon="2.63839">
        <ele>513.6</ele>
        <time>2022-06-21T08:11:53Z</time>
      </trkpt>
      <trkpt lat="43.40079" lon="2.63839">
        <ele>513.6</ele>
        <time>2022-06-21T08:11:54Z</time>
      </trkpt>
      <trkpt lat="43.40079" lon="2.63839">
        <ele>513.6</ele>
        <time>2022-06-21T08:11:55Z</time>
      </trkpt>
      <trkpt lat="43.40079" lon="2.63839">
        <ele>513.6</ele>
        <time>2022-06-21T08:11:56Z</time>
      </trkpt>
      <trkpt lat="43.40079" lon="2.63839">
        <ele>513.6</ele>
        <time>2022-06-21T08:11:57Z</time>
      </trkpt>
      <trkpt lat="43.40079" lon="2.63839">
        <ele>513.6</ele>
        <time>2022-06-21T08:11:58Z</time>
      </trkpt>
      <trkpt lat="43.40079" lon="2.63839">
        <ele>513.7</ele>
        <time>2022-06-21T08:11:59Z</time>
      </trkpt>
      <trkpt lat="43.40079" lon="2.63839">
        <ele>513.7</ele>
        <time>2022-06-21T08:12:00Z</time>
      </trkpt>
      <trkpt lat="43.40079" lon="2.63839">
        <ele>513.7</ele>
        <time>2022-06-21T08:12:01Z</time>
      </trkpt>
      <trkpt lat="43.40079" lon="2.63839">
        <ele>513.7</ele>
        <time>2022-06-21T08:12:02Z</time>
      </trkpt>
      <trkpt lat="43.40079" lon="2.63839">
        <ele>513.7</ele>
        <time>2022-06-21T08:12:03Z</time>
      </trkpt>
      <trkpt lat="43.40079" lon="2.63839">
        <ele>513.7</ele>
        <time>2022-06-21T08:12:04Z</time>
      </trkpt>
      <trkpt lat="43.40079" lon="2.63839">
        <ele>513.7</ele>
        <time>2022-06-21T08:12:05Z</time>
      </trkpt>
      <trkpt lat="43.40079" lon="2.63839">
        <ele>513.7</ele>
        <time>2022-06-21T08:12:06Z</time>
      </trkpt>
      <trkpt lat="43.40079" lon="2.63839">
        <ele>513.7</ele>
        <time>2022-06-21T08:12:07Z</time>
      </trkpt>
      <trkpt lat="43.40079" lon="2.63839">
        <ele>513.7</ele>
        <time>2022-06-21T08:12:08Z</time>
      </trkpt>
      <trkpt lat="43.4008" lon="2.63839">
        <ele>513.8</ele>
        <time>2022-06-21T08:12:09Z</time>
      </trkpt>
      <trkpt lat="43.40081" lon="2.63839">
        <ele>513.9</ele>
        <time>2022-06-21T08:12:10Z</time>
      </trkpt>
      <trkpt lat="43.40081" lon="2.63839">
        <ele>513.9</ele>
        <time>2022-06-21T08:12:11Z</time>
      </trkpt>
      <trkpt lat="43.40082" lon="2.63839">
        <ele>513.9</ele>
        <time>2022-06-21T08:12:12Z</time>
      </trkpt>
      <trkpt lat="43.40082" lon="2.63839">
        <ele>513.9</ele>
        <time>2022-06-21T08:12:13Z</time>
      </trkpt>
      <trkpt lat="43.40082" lon="2.63839">
        <ele>513.9</ele>
        <time>2022-06-21T08:12:14Z</time>
      </trkpt>
      <trkpt lat="43.40082" lon="2.63839">
        <ele>513.9</ele>
        <time>2022-06-21T08:12:15Z</time>
      </trkpt>
      <trkpt lat="43.40082" lon="2.63839">
        <ele>513.9</ele>
        <time>2022-06-21T08:12:16Z</time>
      </trkpt>
      <trkpt lat="43.40082" lon="2.63839">
        <ele>513.9</ele>
        <time>2022-06-21T08:12:17Z</time>
      </trkpt>
      <trkpt lat="43.40082" lon="2.63839">
        <ele>513.9</ele>
        <time>2022-06-21T08:12:18Z</time>
      </trkpt>
      <trkpt lat="43.40082" lon="2.63839">
        <ele>513.9</ele>
        <time>2022-06-21T08:12:19Z</time>
      </trkpt>
      <trkpt lat="43.40082" lon="2.63839">
        <ele>513.9</ele>
        <time>2022-06-21T08:12:20Z</time>
      </trkpt>
      <trkpt lat="43.40082" lon="2.63839">
        <ele>513.9</ele>
        <time>2022-06-21T08:12:21Z</time>
      </trkpt>
      <trkpt lat="43.40082" lon="2.63839">
        <ele>513.9</ele>
        <time>2022-06-21T08:12:22Z</time>
      </trkpt>
      <trkpt lat="43.40082" lon="2.63839">
        <ele>513.9</ele>
        <time>2022-06-21T08:12:23Z</time>
      </trkpt>
      <trkpt lat="43.40082" lon="2.6384">
        <ele>514</ele>
        <time>2022-06-21T08:12:24Z</time>
      </trkpt>
      <trkpt lat="43.40082" lon="2.6384">
        <ele>514</ele>
        <time>2022-06-21T08:12:25Z</time>
      </trkpt>
      <trkpt lat="43.40082" lon="2.6384">
        <ele>514</ele>
        <time>2022-06-21T08:12:26Z</time>
      </trkpt>
      <trkpt lat="43.40082" lon="2.63841">
        <ele>514.1</ele>
        <time>2022-06-21T08:12:27Z</time>
      </trkpt>
      <trkpt lat="43.40082" lon="2.63842">
        <ele>514.2</ele>
        <time>2022-06-21T08:12:28Z</time>
      </trkpt>
      <trkpt lat="43.40082" lon="2.63843">
        <ele>514.2</ele>
        <time>2022-06-21T08:12:29Z</time>
      </trkpt>
      <trkpt lat="43.40082" lon="2.63844">
        <ele>514.3</ele>
        <time>2022-06-21T08:12:30Z</time>
      </trkpt>
      <trkpt lat="43.40083" lon="2.63845">
        <ele>514.4</ele>
        <time>2022-06-21T08:12:31Z</time>
      </trkpt>
      <trkpt lat="43.40083" lon="2.63845">
        <ele>514.5</ele>
        <time>2022-06-21T08:12:32Z</time>
      </trkpt>
      <trkpt lat="43.40083" lon="2.63846">
        <ele>514.5</ele>
        <time>2022-06-21T08:12:33Z</time>
      </trkpt>
      <trkpt lat="43.40083" lon="2.63846">
        <ele>514.5</ele>
        <time>2022-06-21T08:12:34Z</time>
      </trkpt>
      <trkpt lat="43.40083" lon="2.63846">
        <ele>514.5</ele>
        <time>2022-06-21T08:12:35Z</time>
      </trkpt>
      <trkpt lat="43.40083" lon="2.63846">
        <ele>514.6</ele>
        <time>2022-06-21T08:12:36Z</time>
      </trkpt>
      <trkpt lat="43.40083" lon="2.63846">
        <ele>514.6</ele>
        <time>2022-06-21T08:12:37Z</time>
      </trkpt>
      <trkpt lat="43.40083" lon="2.63845">
        <ele>514.7</ele>
        <time>2022-06-21T08:12:38Z</time>
      </trkpt>
      <trkpt lat="43.40083" lon="2.63845">
        <ele>514.7</ele>
        <time>2022-06-21T08:12:39Z</time>
      </trkpt>
      <trkpt lat="43.40083" lon="2.63845">
        <ele>514.7</ele>
        <time>2022-06-21T08:12:40Z</time>
      </trkpt>
      <trkpt lat="43.40083" lon="2.63845">
        <ele>514.7</ele>
        <time>2022-06-21T08:12:41Z</time>
      </trkpt>
      <trkpt lat="43.40083" lon="2.63845">
        <ele>514.7</ele>
        <time>2022-06-21T08:12:42Z</time>
      </trkpt>
      <trkpt lat="43.40083" lon="2.63845">
        <ele>514.7</ele>
        <time>2022-06-21T08:12:43Z</time>
      </trkpt>
      <trkpt lat="43.40083" lon="2.63845">
        <ele>514.7</ele>
        <time>2022-06-21T08:12:44Z</time>
      </trkpt>
      <trkpt lat="43.40083" lon="2.63845">
        <ele>514.7</ele>
        <time>2022-06-21T08:12:45Z</time>
      </trkpt>
      <trkpt lat="43.40083" lon="2.63845">
        <ele>514.7</ele>
        <time>2022-06-21T08:12:46Z</time>
      </trkpt>
      <trkpt lat="43.40083" lon="2.63845">
        <ele>514.7</ele>
        <time>2022-06-21T08:12:47Z</time>
      </trkpt>
      <trkpt lat="43.40083" lon="2.63845">
        <ele>514.7</ele>
        <time>2022-06-21T08:12:48Z</time>
      </trkpt>
      <trkpt lat="43.40083" lon="2.63845">
        <ele>514.7</ele>
        <time>2022-06-21T08:12:49Z</time>
      </trkpt>
      <trkpt lat="43.40083" lon="2.63845">
        <ele>514.7</ele>
        <time>2022-06-21T08:12:50Z</time>
      </trkpt>
      <trkpt lat="43.40083" lon="2.63845">
        <ele>514.7</ele>
        <time>2022-06-21T08:12:51Z</time>
      </trkpt>
      <trkpt lat="43.40083" lon="2.63845">
        <ele>514.7</ele>
        <time>2022-06-21T08:12:52Z</time>
      </trkpt>
      <trkpt lat="43.40083" lon="2.63845">
        <ele>514.7</ele>
        <time>2022-06-21T08:12:53Z</time>
      </trkpt>
      <trkpt lat="43.40083" lon="2.63845">
        <ele>514.7</ele>
        <time>2022-06-21T08:12:54Z</time>
      </trkpt>
      <trkpt lat="43.40083" lon="2.63845">
        <ele>514.7</ele>
        <time>2022-06-21T08:12:55Z</time>
      </trkpt>
      <trkpt lat="43.40083" lon="2.63845">
        <ele>514.7</ele>
        <time>2022-06-21T08:12:56Z</time>
      </trkpt>
      <trkpt lat="43.40083" lon="2.63845">
        <ele>514.7</ele>
        <time>2022-06-21T08:12:57Z</time>
      </trkpt>
      <trkpt lat="43.40083" lon="2.63845">
        <ele>514.7</ele>
        <time>2022-06-21T08:12:58Z</time>
      </trkpt>
      <trkpt lat="43.40083" lon="2.63845">
        <ele>514.7</ele>
        <time>2022-06-21T08:12:59Z</time>
      </trkpt>
      <trkpt lat="43.40083" lon="2.63845">
        <ele>514.7</ele>
        <time>2022-06-21T08:13:00Z</time>
      </trkpt>
      <trkpt lat="43.40083" lon="2.63845">
        <ele>514.7</ele>
        <time>2022-06-21T08:13:01Z</time>
      </trkpt>
      <trkpt lat="43.40083" lon="2.63845">
        <ele>514.7</ele>
        <time>2022-06-21T08:13:02Z</time>
      </trkpt>
      <trkpt lat="43.40083" lon="2.63845">
        <ele>514.7</ele>
        <time>2022-06-21T08:13:03Z</time>
      </trkpt>
      <trkpt lat="43.40083" lon="2.63845">
        <ele>514.7</ele>
        <time>2022-06-21T08:13:04Z</time>
      </trkpt>
      <trkpt lat="43.40083" lon="2.63845">
        <ele>514.7</ele>
        <time>2022-06-21T08:13:05Z</time>
      </trkpt>
      <trkpt lat="43.40083" lon="2.63845">
        <ele>514.7</ele>
        <time>2022-06-21T08:13:06Z</time>
      </trkpt>
      <trkpt lat="43.40083" lon="2.63845">
        <ele>514.7</ele>
        <time>2022-06-21T08:13:07Z</time>
      </trkpt>
      <trkpt lat="43.40083" lon="2.63845">
        <ele>514.7</ele>
        <time>2022-06-21T08:13:08Z</time>
      </trkpt>
      <trkpt lat="43.40083" lon="2.63844">
        <ele>514.7</ele>
        <time>2022-06-21T08:13:09Z</time>
      </trkpt>
      <trkpt lat="43.40083" lon="2.63844">
        <ele>514.7</ele>
        <time>2022-06-21T08:13:10Z</time>
      </trkpt>
      <trkpt lat="43.40083" lon="2.63844">
        <ele>514.7</ele>
        <time>2022-06-21T08:13:11Z</time>
      </trkpt>
      <trkpt lat="43.40083" lon="2.63844">
        <ele>514.7</ele>
        <time>2022-06-21T08:13:12Z</time>
      </trkpt>
      <trkpt lat="43.40083" lon="2.63844">
        <ele>514.7</ele>
        <time>2022-06-21T08:13:13Z</time>
      </trkpt>
      <trkpt lat="43.40083" lon="2.63844">
        <ele>514.7</ele>
        <time>2022-06-21T08:13:14Z</time>
      </trkpt>
      <trkpt lat="43.40083" lon="2.63844">
        <ele>514.7</ele>
        <time>2022-06-21T08:13:15Z</time>
      </trkpt>
      <trkpt lat="43.40083" lon="2.63844">
        <ele>514.7</ele>
        <time>2022-06-21T08:13:16Z</time>
      </trkpt>
      <trkpt lat="43.40083" lon="2.63844">
        <ele>514.7</ele>
        <time>2022-06-21T08:13:17Z</time>
      </trkpt>
      <trkpt lat="43.40083" lon="2.63844">
        <ele>514.7</ele>
        <time>2022-06-21T08:13:18Z</time>
      </trkpt>
      <trkpt lat="43.40083" lon="2.63844">
        <ele>514.7</ele>
        <time>2022-06-21T08:13:19Z</time>
      </trkpt>
      <trkpt lat="43.40083" lon="2.63844">
        <ele>514.7</ele>
        <time>2022-06-21T08:13:20Z</time>
      </trkpt>
      <trkpt lat="43.40083" lon="2.63844">
        <ele>514.7</ele>
        <time>2022-06-21T08:13:21Z</time>
      </trkpt>
      <trkpt lat="43.40083" lon="2.63844">
        <ele>514.7</ele>
        <time>2022-06-21T08:13:22Z</time>
      </trkpt>
      <trkpt lat="43.40083" lon="2.63844">
        <ele>514.7</ele>
        <time>2022-06-21T08:13:23Z</time>
      </trkpt>
      <trkpt lat="43.40083" lon="2.63844">
        <ele>514.7</ele>
        <time>2022-06-21T08:13:24Z</time>
      </trkpt>
      <trkpt lat="43.40083" lon="2.63844">
        <ele>514.7</ele>
        <time>2022-06-21T08:13:25Z</time>
      </trkpt>
      <trkpt lat="43.40083" lon="2.63844">
        <ele>514.7</ele>
        <time>2022-06-21T08:13:26Z</time>
      </trkpt>
      <trkpt lat="43.40083" lon="2.63844">
        <ele>514.7</ele>
        <time>2022-06-21T08:13:27Z</time>
      </trkpt>
      <trkpt lat="43.40083" lon="2.63844">
        <ele>514.7</ele>
        <time>2022-06-21T08:13:28Z</time>
      </trkpt>
      <trkpt lat="43.40083" lon="2.63844">
        <ele>514.7</ele>
        <time>2022-06-21T08:13:29Z</time>
      </trkpt>
      <trkpt lat="43.40083" lon="2.63844">
        <ele>514.7</ele>
        <time>2022-06-21T08:13:30Z</time>
      </trkpt>
      <trkpt lat="43.40083" lon="2.63844">
        <ele>514.7</ele>
        <time>2022-06-21T08:13:31Z</time>
      </trkpt>
      <trkpt lat="43.40083" lon="2.63844">
        <ele>514.7</ele>
        <time>2022-06-21T08:13:32Z</time>
      </trkpt>
      <trkpt lat="43.40083" lon="2.63844">
        <ele>514.7</ele>
        <time>2022-06-21T08:13:33Z</time>
      </trkpt>
      <trkpt lat="43.40083" lon="2.63844">
        <ele>514.7</ele>
        <time>2022-06-21T08:13:34Z</time>
      </trkpt>
      <trkpt lat="43.40083" lon="2.63844">
        <ele>514.7</ele>
        <time>2022-06-21T08:13:35Z</time>
      </trkpt>
      <trkpt lat="43.40083" lon="2.63844">
        <ele>514.7</ele>
        <time>2022-06-21T08:13:36Z</time>
      </trkpt>
      <trkpt lat="43.40083" lon="2.63844">
        <ele>514.7</ele>
        <time>2022-06-21T08:13:37Z</time>
      </trkpt>
      <trkpt lat="43.40083" lon="2.63844">
        <ele>514.7</ele>
        <time>2022-06-21T08:13:38Z</time>
      </trkpt>
      <trkpt lat="43.40083" lon="2.63844">
        <ele>514.7</ele>
        <time>2022-06-21T08:13:39Z</time>
      </trkpt>
      <trkpt lat="43.40083" lon="2.63844">
        <ele>514.7</ele>
        <time>2022-06-21T08:13:40Z</time>
      </trkpt>
      <trkpt lat="43.40083" lon="2.63844">
        <ele>514.7</ele>
        <time>2022-06-21T08:13:41Z</time>
      </trkpt>
      <trkpt lat="43.40083" lon="2.63844">
        <ele>514.7</ele>
        <time>2022-06-21T08:13:42Z</time>
      </trkpt>
      <trkpt lat="43.40083" lon="2.63844">
        <ele>514.7</ele>
        <time>2022-06-21T08:13:43Z</time>
      </trkpt>
      <trkpt lat="43.40083" lon="2.63844">
        <ele>514.7</ele>
        <time>2022-06-21T08:13:44Z</time>
      </trkpt>
      <trkpt lat="43.40083" lon="2.63844">
        <ele>514.7</ele>
        <time>2022-06-21T08:13:45Z</time>
      </trkpt>
      <trkpt lat="43.40083" lon="2.63844">
        <ele>514.7</ele>
        <time>2022-06-21T08:13:46Z</time>
      </trkpt>
      <trkpt lat="43.40083" lon="2.63844">
        <ele>514.7</ele>
        <time>2022-06-21T08:13:47Z</time>
      </trkpt>
      <trkpt lat="43.40083" lon="2.63844">
        <ele>514.7</ele>
        <time>2022-06-21T08:13:48Z</time>
      </trkpt>
      <trkpt lat="43.40083" lon="2.63844">
        <ele>514.7</ele>
        <time>2022-06-21T08:13:49Z</time>
      </trkpt>
      <trkpt lat="43.40083" lon="2.63844">
        <ele>514.7</ele>
        <time>2022-06-21T08:13:50Z</time>
      </trkpt>
      <trkpt lat="43.40083" lon="2.63844">
        <ele>514.7</ele>
        <time>2022-06-21T08:13:51Z</time>
      </trkpt>
      <trkpt lat="43.40083" lon="2.63844">
        <ele>514.7</ele>
        <time>2022-06-21T08:13:52Z</time>
      </trkpt>
      <trkpt lat="43.40083" lon="2.63844">
        <ele>514.7</ele>
        <time>2022-06-21T08:13:53Z</time>
      </trkpt>
      <trkpt lat="43.40083" lon="2.63844">
        <ele>514.7</ele>
        <time>2022-06-21T08:13:54Z</time>
      </trkpt>
      <trkpt lat="43.40083" lon="2.63844">
        <ele>514.7</ele>
        <time>2022-06-21T08:13:55Z</time>
      </trkpt>
      <trkpt lat="43.40083" lon="2.63844">
        <ele>514.7</ele>
        <time>2022-06-21T08:13:56Z</time>
      </trkpt>
      <trkpt lat="43.40083" lon="2.63844">
        <ele>514.7</ele>
        <time>2022-06-21T08:13:57Z</time>
      </trkpt>
      <trkpt lat="43.40083" lon="2.63844">
        <ele>514.7</ele>
        <time>2022-06-21T08:13:58Z</time>
      </trkpt>
      <trkpt lat="43.40083" lon="2.63844">
        <ele>514.7</ele>
        <time>2022-06-21T08:13:59Z</time>
      </trkpt>
      <trkpt lat="43.40083" lon="2.63844">
        <ele>514.7</ele>
        <time>2022-06-21T08:14:00Z</time>
      </trkpt>
      <trkpt lat="43.40083" lon="2.63844">
        <ele>514.7</ele>
        <time>2022-06-21T08:14:01Z</time>
      </trkpt>
      <trkpt lat="43.40083" lon="2.63844">
        <ele>514.7</ele>
        <time>2022-06-21T08:14:02Z</time>
      </trkpt>
      <trkpt lat="43.40083" lon="2.63844">
        <ele>514.7</ele>
        <time>2022-06-21T08:14:03Z</time>
      </trkpt>
      <trkpt lat="43.40083" lon="2.63844">
        <ele>514.7</ele>
        <time>2022-06-21T08:14:04Z</time>
      </trkpt>
      <trkpt lat="43.40083" lon="2.63844">
        <ele>514.7</ele>
        <time>2022-06-21T08:14:05Z</time>
      </trkpt>
      <trkpt lat="43.40083" lon="2.63844">
        <ele>514.7</ele>
        <time>2022-06-21T08:14:06Z</time>
      </trkpt>
      <trkpt lat="43.40083" lon="2.63844">
        <ele>514.7</ele>
        <time>2022-06-21T08:14:07Z</time>
      </trkpt>
      <trkpt lat="43.40083" lon="2.63844">
        <ele>514.7</ele>
        <time>2022-06-21T08:14:08Z</time>
      </trkpt>
      <trkpt lat="43.40083" lon="2.63844">
        <ele>514.7</ele>
        <time>2022-06-21T08:14:09Z</time>
      </trkpt>
      <trkpt lat="43.40083" lon="2.63844">
        <ele>514.7</ele>
        <time>2022-06-21T08:14:10Z</time>
      </trkpt>
      <trkpt lat="43.40083" lon="2.63844">
        <ele>514.7</ele>
        <time>2022-06-21T08:14:11Z</time>
      </trkpt>
      <trkpt lat="43.40083" lon="2.63844">
        <ele>514.7</ele>
        <time>2022-06-21T08:14:12Z</time>
      </trkpt>
      <trkpt lat="43.40083" lon="2.63844">
        <ele>514.7</ele>
        <time>2022-06-21T08:14:13Z</time>
      </trkpt>
      <trkpt lat="43.40083" lon="2.63844">
        <ele>514.7</ele>
        <time>2022-06-21T08:14:14Z</time>
      </trkpt>
      <trkpt lat="43.40083" lon="2.63844">
        <ele>514.7</ele>
        <time>2022-06-21T08:14:15Z</time>
      </trkpt>
      <trkpt lat="43.40083" lon="2.63844">
        <ele>514.7</ele>
        <time>2022-06-21T08:14:16Z</time>
      </trkpt>
      <trkpt lat="43.40083" lon="2.63844">
        <ele>514.7</ele>
        <time>2022-06-21T08:14:17Z</time>
      </trkpt>
      <trkpt lat="43.40083" lon="2.63844">
        <ele>514.7</ele>
        <time>2022-06-21T08:14:18Z</time>
      </trkpt>
      <trkpt lat="43.40083" lon="2.63844">
        <ele>514.7</ele>
        <time>2022-06-21T08:14:19Z</time>
      </trkpt>
      <trkpt lat="43.40083" lon="2.63844">
        <ele>514.7</ele>
        <time>2022-06-21T08:14:20Z</time>
      </trkpt>
      <trkpt lat="43.40083" lon="2.63844">
        <ele>514.7</ele>
        <time>2022-06-21T08:14:21Z</time>
      </trkpt>
      <trkpt lat="43.40083" lon="2.63844">
        <ele>514.7</ele>
        <time>2022-06-21T08:14:22Z</time>
      </trkpt>
      <trkpt lat="43.40083" lon="2.63844">
        <ele>514.7</ele>
        <time>2022-06-21T08:14:23Z</time>
      </trkpt>
      <trkpt lat="43.40083" lon="2.63844">
        <ele>514.7</ele>
        <time>2022-06-21T08:14:24Z</time>
      </trkpt>
      <trkpt lat="43.40083" lon="2.63844">
        <ele>514.7</ele>
        <time>2022-06-21T08:14:25Z</time>
      </trkpt>
      <trkpt lat="43.40083" lon="2.63844">
        <ele>514.7</ele>
        <time>2022-06-21T08:14:26Z</time>
      </trkpt>
      <trkpt lat="43.40083" lon="2.63844">
        <ele>514.7</ele>
        <time>2022-06-21T08:14:27Z</time>
      </trkpt>
      <trkpt lat="43.40083" lon="2.63844">
        <ele>514.7</ele>
        <time>2022-06-21T08:14:28Z</time>
      </trkpt>
      <trkpt lat="43.40083" lon="2.63844">
        <ele>514.7</ele>
        <time>2022-06-21T08:14:29Z</time>
      </trkpt>
      <trkpt lat="43.40083" lon="2.63844">
        <ele>514.7</ele>
        <time>2022-06-21T08:14:30Z</time>
      </trkpt>
      <trkpt lat="43.40083" lon="2.63844">
        <ele>514.7</ele>
        <time>2022-06-21T08:14:31Z</time>
      </trkpt>
      <trkpt lat="43.40083" lon="2.63844">
        <ele>514.7</ele>
        <time>2022-06-21T08:14:32Z</time>
      </trkpt>
      <trkpt lat="43.40083" lon="2.63844">
        <ele>514.7</ele>
        <time>2022-06-21T08:14:33Z</time>
      </trkpt>
      <trkpt lat="43.40083" lon="2.63844">
        <ele>514.7</ele>
        <time>2022-06-21T08:14:34Z</time>
      </trkpt>
      <trkpt lat="43.40083" lon="2.63844">
        <ele>514.7</ele>
        <time>2022-06-21T08:14:35Z</time>
      </trkpt>
      <trkpt lat="43.40083" lon="2.63844">
        <ele>514.7</ele>
        <time>2022-06-21T08:14:36Z</time>
      </trkpt>
      <trkpt lat="43.40083" lon="2.63844">
        <ele>514.7</ele>
        <time>2022-06-21T08:14:37Z</time>
      </trkpt>
      <trkpt lat="43.40083" lon="2.63844">
        <ele>514.7</ele>
        <time>2022-06-21T08:14:38Z</time>
      </trkpt>
      <trkpt lat="43.40083" lon="2.63844">
        <ele>514.7</ele>
        <time>2022-06-21T08:14:39Z</time>
      </trkpt>
      <trkpt lat="43.40083" lon="2.63844">
        <ele>514.7</ele>
        <time>2022-06-21T08:14:40Z</time>
      </trkpt>
      <trkpt lat="43.40083" lon="2.63844">
        <ele>514.7</ele>
        <time>2022-06-21T08:14:41Z</time>
      </trkpt>
      <trkpt lat="43.40083" lon="2.63844">
        <ele>514.7</ele>
        <time>2022-06-21T08:14:42Z</time>
      </trkpt>
      <trkpt lat="43.40083" lon="2.63844">
        <ele>514.7</ele>
        <time>2022-06-21T08:14:43Z</time>
      </trkpt>
      <trkpt lat="43.40083" lon="2.63844">
        <ele>514.7</ele>
        <time>2022-06-21T08:14:44Z</time>
      </trkpt>
      <trkpt lat="43.40083" lon="2.63844">
        <ele>514.7</ele>
        <time>2022-06-21T08:14:45Z</time>
      </trkpt>
      <trkpt lat="43.40083" lon="2.63844">
        <ele>514.7</ele>
        <time>2022-06-21T08:14:46Z</time>
      </trkpt>
      <trkpt lat="43.40083" lon="2.63844">
        <ele>514.7</ele>
        <time>2022-06-21T08:14:47Z</time>
      </trkpt>
      <trkpt lat="43.40083" lon="2.63844">
        <ele>514.7</ele>
        <time>2022-06-21T08:14:48Z</time>
      </trkpt>
      <trkpt lat="43.40083" lon="2.63844">
        <ele>514.7</ele>
        <time>2022-06-21T08:14:49Z</time>
      </trkpt>
      <trkpt lat="43.40083" lon="2.63844">
        <ele>514.7</ele>
        <time>2022-06-21T08:14:50Z</time>
      </trkpt>
      <trkpt lat="43.40083" lon="2.63844">
        <ele>514.7</ele>
        <time>2022-06-21T08:14:51Z</time>
      </trkpt>
      <trkpt lat="43.40083" lon="2.63844">
        <ele>514.7</ele>
        <time>2022-06-21T08:14:52Z</time>
      </trkpt>
      <trkpt lat="43.40083" lon="2.63844">
        <ele>514.7</ele>
        <time>2022-06-21T08:14:53Z</time>
      </trkpt>
      <trkpt lat="43.40083" lon="2.63844">
        <ele>514.7</ele>
        <time>2022-06-21T08:14:54Z</time>
      </trkpt>
      <trkpt lat="43.40083" lon="2.63844">
        <ele>514.7</ele>
        <time>2022-06-21T08:14:55Z</time>
      </trkpt>
      <trkpt lat="43.40083" lon="2.63844">
        <ele>514.7</ele>
        <time>2022-06-21T08:14:56Z</time>
      </trkpt>
      <trkpt lat="43.40083" lon="2.63844">
        <ele>514.7</ele>
        <time>2022-06-21T08:14:57Z</time>
      </trkpt>
      <trkpt lat="43.40083" lon="2.63844">
        <ele>514.7</ele>
        <time>2022-06-21T08:14:58Z</time>
      </trkpt>
      <trkpt lat="43.40083" lon="2.63844">
        <ele>514.7</ele>
        <time>2022-06-21T08:14:59Z</time>
      </trkpt>
      <trkpt lat="43.40083" lon="2.63844">
        <ele>514.7</ele>
        <time>2022-06-21T08:15:00Z</time>
      </trkpt>
      <trkpt lat="43.40083" lon="2.63844">
        <ele>514.7</ele>
        <time>2022-06-21T08:15:01Z</time>
      </trkpt>
      <trkpt lat="43.40083" lon="2.63844">
        <ele>514.7</ele>
        <time>2022-06-21T08:15:02Z</time>
      </trkpt>
      <trkpt lat="43.40083" lon="2.63844">
        <ele>514.7</ele>
        <time>2022-06-21T08:15:03Z</time>
      </trkpt>
      <trkpt lat="43.40083" lon="2.63844">
        <ele>514.7</ele>
        <time>2022-06-21T08:15:04Z</time>
      </trkpt>
      <trkpt lat="43.40083" lon="2.63844">
        <ele>514.7</ele>
        <time>2022-06-21T08:15:05Z</time>
      </trkpt>
      <trkpt lat="43.40083" lon="2.63844">
        <ele>514.7</ele>
        <time>2022-06-21T08:15:06Z</time>
      </trkpt>
      <trkpt lat="43.40083" lon="2.63844">
        <ele>514.7</ele>
        <time>2022-06-21T08:15:07Z</time>
      </trkpt>
      <trkpt lat="43.40083" lon="2.63844">
        <ele>514.7</ele>
        <time>2022-06-21T08:15:08Z</time>
      </trkpt>
      <trkpt lat="43.40083" lon="2.63844">
        <ele>514.7</ele>
        <time>2022-06-21T08:15:09Z</time>
      </trkpt>
      <trkpt lat="43.40083" lon="2.63844">
        <ele>514.7</ele>
        <time>2022-06-21T08:15:10Z</time>
      </trkpt>
      <trkpt lat="43.40083" lon="2.63844">
        <ele>514.7</ele>
        <time>2022-06-21T08:15:11Z</time>
      </trkpt>
      <trkpt lat="43.40083" lon="2.63844">
        <ele>514.7</ele>
        <time>2022-06-21T08:15:12Z</time>
      </trkpt>
      <trkpt lat="43.40083" lon="2.63844">
        <ele>514.7</ele>
        <time>2022-06-21T08:15:13Z</time>
      </trkpt>
      <trkpt lat="43.40083" lon="2.63844">
        <ele>514.7</ele>
        <time>2022-06-21T08:15:14Z</time>
      </trkpt>
      <trkpt lat="43.40083" lon="2.63844">
        <ele>514.7</ele>
        <time>2022-06-21T08:15:15Z</time>
      </trkpt>
      <trkpt lat="43.40083" lon="2.63844">
        <ele>514.7</ele>
        <time>2022-06-21T08:15:16Z</time>
      </trkpt>
      <trkpt lat="43.40083" lon="2.63844">
        <ele>514.7</ele>
        <time>2022-06-21T08:15:17Z</time>
      </trkpt>
      <trkpt lat="43.40083" lon="2.63844">
        <ele>514.7</ele>
        <time>2022-06-21T08:15:18Z</time>
      </trkpt>
      <trkpt lat="43.40083" lon="2.63844">
        <ele>514.7</ele>
        <time>2022-06-21T08:15:19Z</time>
      </trkpt>
      <trkpt lat="43.40083" lon="2.63844">
        <ele>514.7</ele>
        <time>2022-06-21T08:15:20Z</time>
      </trkpt>
      <trkpt lat="43.40083" lon="2.63844">
        <ele>514.7</ele>
        <time>2022-06-21T08:15:21Z</time>
      </trkpt>
      <trkpt lat="43.40083" lon="2.63844">
        <ele>514.7</ele>
        <time>2022-06-21T08:15:22Z</time>
      </trkpt>
      <trkpt lat="43.40083" lon="2.63844">
        <ele>514.7</ele>
        <time>2022-06-21T08:15:23Z</time>
      </trkpt>
      <trkpt lat="43.40083" lon="2.63844">
        <ele>514.7</ele>
        <time>2022-06-21T08:15:24Z</time>
      </trkpt>
      <trkpt lat="43.40083" lon="2.63844">
        <ele>514.7</ele>
        <time>2022-06-21T08:15:25Z</time>
      </trkpt>
      <trkpt lat="43.40083" lon="2.63844">
        <ele>514.7</ele>
        <time>2022-06-21T08:15:26Z</time>
      </trkpt>
      <trkpt lat="43.40083" lon="2.63844">
        <ele>514.7</ele>
        <time>2022-06-21T08:15:27Z</time>
      </trkpt>
      <trkpt lat="43.40083" lon="2.63844">
        <ele>514.7</ele>
        <time>2022-06-21T08:15:28Z</time>
      </trkpt>
      <trkpt lat="43.40083" lon="2.63844">
        <ele>514.7</ele>
        <time>2022-06-21T08:15:29Z</time>
      </trkpt>
      <trkpt lat="43.40083" lon="2.63844">
        <ele>514.7</ele>
        <time>2022-06-21T08:15:30Z</time>
      </trkpt>
      <trkpt lat="43.40083" lon="2.63844">
        <ele>514.7</ele>
        <time>2022-06-21T08:15:31Z</time>
      </trkpt>
      <trkpt lat="43.40083" lon="2.63844">
        <ele>514.7</ele>
        <time>2022-06-21T08:15:32Z</time>
      </trkpt>
      <trkpt lat="43.40083" lon="2.63844">
        <ele>514.7</ele>
        <time>2022-06-21T08:15:33Z</time>
      </trkpt>
      <trkpt lat="43.40083" lon="2.63844">
        <ele>514.7</ele>
        <time>2022-06-21T08:15:34Z</time>
      </trkpt>
      <trkpt lat="43.40083" lon="2.63844">
        <ele>514.7</ele>
        <time>2022-06-21T08:15:35Z</time>
      </trkpt>
      <trkpt lat="43.40083" lon="2.63844">
        <ele>514.7</ele>
        <time>2022-06-21T08:15:36Z</time>
      </trkpt>
      <trkpt lat="43.40083" lon="2.63844">
        <ele>514.7</ele>
        <time>2022-06-21T08:15:37Z</time>
      </trkpt>
      <trkpt lat="43.40083" lon="2.63844">
        <ele>514.7</ele>
        <time>2022-06-21T08:15:38Z</time>
      </trkpt>
      <trkpt lat="43.40083" lon="2.63844">
        <ele>514.7</ele>
        <time>2022-06-21T08:15:39Z</time>
      </trkpt>
      <trkpt lat="43.40083" lon="2.63844">
        <ele>514.7</ele>
        <time>2022-06-21T08:15:40Z</time>
      </trkpt>
      <trkpt lat="43.40083" lon="2.63844">
        <ele>514.7</ele>
        <time>2022-06-21T08:15:41Z</time>
      </trkpt>
      <trkpt lat="43.40083" lon="2.63844">
        <ele>514.7</ele>
        <time>2022-06-21T08:15:42Z</time>
      </trkpt>
      <trkpt lat="43.40083" lon="2.63844">
        <ele>514.7</ele>
        <time>2022-06-21T08:15:43Z</time>
      </trkpt>
      <trkpt lat="43.40083" lon="2.63844">
        <ele>514.7</ele>
        <time>2022-06-21T08:15:44Z</time>
      </trkpt>
      <trkpt lat="43.40083" lon="2.63844">
        <ele>514.7</ele>
        <time>2022-06-21T08:15:45Z</time>
      </trkpt>
      <trkpt lat="43.40083" lon="2.63844">
        <ele>514.7</ele>
        <time>2022-06-21T08:15:46Z</time>
      </trkpt>
      <trkpt lat="43.40083" lon="2.63844">
        <ele>514.7</ele>
        <time>2022-06-21T08:15:47Z</time>
      </trkpt>
      <trkpt lat="43.40083" lon="2.63844">
        <ele>514.7</ele>
        <time>2022-06-21T08:15:48Z</time>
      </trkpt>
      <trkpt lat="43.40083" lon="2.63844">
        <ele>514.7</ele>
        <time>2022-06-21T08:15:49Z</time>
      </trkpt>
      <trkpt lat="43.40083" lon="2.63844">
        <ele>514.7</ele>
        <time>2022-06-21T08:15:50Z</time>
      </trkpt>
      <trkpt lat="43.40083" lon="2.63844">
        <ele>514.7</ele>
        <time>2022-06-21T08:15:51Z</time>
      </trkpt>
      <trkpt lat="43.40083" lon="2.63844">
        <ele>514.7</ele>
        <time>2022-06-21T08:15:52Z</time>
      </trkpt>
      <trkpt lat="43.40083" lon="2.63844">
        <ele>514.7</ele>
        <time>2022-06-21T08:15:53Z</time>
      </trkpt>
      <trkpt lat="43.40083" lon="2.63844">
        <ele>514.7</ele>
        <time>2022-06-21T08:15:54Z</time>
      </trkpt>
      <trkpt lat="43.40083" lon="2.63844">
        <ele>514.7</ele>
        <time>2022-06-21T08:15:55Z</time>
      </trkpt>
      <trkpt lat="43.40083" lon="2.63844">
        <ele>514.7</ele>
        <time>2022-06-21T08:15:56Z</time>
      </trkpt>
      <trkpt lat="43.40083" lon="2.63844">
        <ele>514.7</ele>
        <time>2022-06-21T08:15:57Z</time>
      </trkpt>
      <trkpt lat="43.40083" lon="2.63844">
        <ele>514.7</ele>
        <time>2022-06-21T08:15:58Z</time>
      </trkpt>
      <trkpt lat="43.40083" lon="2.63844">
        <ele>514.7</ele>
        <time>2022-06-21T08:15:59Z</time>
      </trkpt>
      <trkpt lat="43.40083" lon="2.63844">
        <ele>514.7</ele>
        <time>2022-06-21T08:16:00Z</time>
      </trkpt>
      <trkpt lat="43.40083" lon="2.63844">
        <ele>514.7</ele>
        <time>2022-06-21T08:16:01Z</time>
      </trkpt>
      <trkpt lat="43.40083" lon="2.63844">
        <ele>514.7</ele>
        <time>2022-06-21T08:16:02Z</time>
      </trkpt>
      <trkpt lat="43.40083" lon="2.63844">
        <ele>514.7</ele>
        <time>2022-06-21T08:16:04Z</time>
      </trkpt>
      <trkpt lat="43.40083" lon="2.63844">
        <ele>514.7</ele>
        <time>2022-06-21T08:16:05Z</time>
      </trkpt>
      <trkpt lat="43.40083" lon="2.63845">
        <ele>514.7</ele>
        <time>2022-06-21T08:16:06Z</time>
      </trkpt>
      <trkpt lat="43.40083" lon="2.63845">
        <ele>514.8</ele>
        <time>2022-06-21T08:16:07Z</time>
      </trkpt>
      <trkpt lat="43.40083" lon="2.63845">
        <ele>514.8</ele>
        <time>2022-06-21T08:16:08Z</time>
      </trkpt>
      <trkpt lat="43.40083" lon="2.63845">
        <ele>514.8</ele>
        <time>2022-06-21T08:16:09Z</time>
      </trkpt>
      <trkpt lat="43.40083" lon="2.63844">
        <ele>514.8</ele>
        <time>2022-06-21T08:16:11Z</time>
      </trkpt>
      <trkpt lat="43.40083" lon="2.63844">
        <ele>514.8</ele>
        <time>2022-06-21T08:16:12Z</time>
      </trkpt>
      <trkpt lat="43.40083" lon="2.63844">
        <ele>514.8</ele>
        <time>2022-06-21T08:16:13Z</time>
      </trkpt>
      <trkpt lat="43.40083" lon="2.63844">
        <ele>514.8</ele>
        <time>2022-06-21T08:16:14Z</time>
      </trkpt>
      <trkpt lat="43.40083" lon="2.63844">
        <ele>514.8</ele>
        <time>2022-06-21T08:16:15Z</time>
      </trkpt>
      <trkpt lat="43.40083" lon="2.63844">
        <ele>514.8</ele>
        <time>2022-06-21T08:16:16Z</time>
      </trkpt>
      <trkpt lat="43.40083" lon="2.63844">
        <ele>514.8</ele>
        <time>2022-06-21T08:16:17Z</time>
      </trkpt>
      <trkpt lat="43.40083" lon="2.63844">
        <ele>514.8</ele>
        <time>2022-06-21T08:16:18Z</time>
      </trkpt>
      <trkpt lat="43.40083" lon="2.63845">
        <ele>514.8</ele>
        <time>2022-06-21T08:16:19Z</time>
      </trkpt>
      <trkpt lat="43.40084" lon="2.63846">
        <ele>514.9</ele>
        <time>2022-06-21T08:16:20Z</time>
      </trkpt>
      <trkpt lat="43.40084" lon="2.63846">
        <ele>515</ele>
        <time>2022-06-21T08:16:21Z</time>
      </trkpt>
      <trkpt lat="43.40084" lon="2.63847">
        <ele>515</ele>
        <time>2022-06-21T08:16:22Z</time>
      </trkpt>
      <trkpt lat="43.40085" lon="2.63847">
        <ele>515.1</ele>
        <time>2022-06-21T08:16:23Z</time>
      </trkpt>
      <trkpt lat="43.40085" lon="2.63847">
        <ele>515.1</ele>
        <time>2022-06-21T08:16:24Z</time>
      </trkpt>
      <trkpt lat="43.40085" lon="2.63847">
        <ele>515.1</ele>
        <time>2022-06-21T08:16:25Z</time>
      </trkpt>
      <trkpt lat="43.40085" lon="2.63847">
        <ele>515.1</ele>
        <time>2022-06-21T08:16:26Z</time>
      </trkpt>
      <trkpt lat="43.40085" lon="2.63847">
        <ele>515.1</ele>
        <time>2022-06-21T08:16:27Z</time>
      </trkpt>
      <trkpt lat="43.40085" lon="2.63847">
        <ele>515.1</ele>
        <time>2022-06-21T08:16:28Z</time>
      </trkpt>
      <trkpt lat="43.40085" lon="2.63847">
        <ele>515.1</ele>
        <time>2022-06-21T08:16:29Z</time>
      </trkpt>
      <trkpt lat="43.40085" lon="2.63847">
        <ele>515.1</ele>
        <time>2022-06-21T08:16:30Z</time>
      </trkpt>
      <trkpt lat="43.40085" lon="2.63848">
        <ele>516.3</ele>
        <time>2022-06-21T08:16:31Z</time>
      </trkpt>
      <trkpt lat="43.40085" lon="2.63848">
        <ele>516.3</ele>
        <time>2022-06-21T08:16:32Z</time>
      </trkpt>
      <trkpt lat="43.40085" lon="2.63848">
        <ele>516.3</ele>
        <time>2022-06-21T08:16:33Z</time>
      </trkpt>
      <trkpt lat="43.40085" lon="2.63848">
        <ele>516.3</ele>
        <time>2022-06-21T08:16:34Z</time>
      </trkpt>
      <trkpt lat="43.40085" lon="2.63848">
        <ele>516.3</ele>
        <time>2022-06-21T08:16:35Z</time>
      </trkpt>
      <trkpt lat="43.40085" lon="2.63848">
        <ele>516.3</ele>
        <time>2022-06-21T08:16:36Z</time>
      </trkpt>
      <trkpt lat="43.40085" lon="2.63848">
        <ele>516.3</ele>
        <time>2022-06-21T08:16:37Z</time>
      </trkpt>
      <trkpt lat="43.40085" lon="2.63848">
        <ele>516.3</ele>
        <time>2022-06-21T08:16:38Z</time>
      </trkpt>
      <trkpt lat="43.40085" lon="2.63848">
        <ele>516.3</ele>
        <time>2022-06-21T08:16:39Z</time>
      </trkpt>
      <trkpt lat="43.40085" lon="2.63848">
        <ele>516.3</ele>
        <time>2022-06-21T08:16:40Z</time>
      </trkpt>
      <trkpt lat="43.40085" lon="2.63848">
        <ele>516.3</ele>
        <time>2022-06-21T08:16:41Z</time>
      </trkpt>
      <trkpt lat="43.40085" lon="2.63849">
        <ele>516.3</ele>
        <time>2022-06-21T08:16:42Z</time>
      </trkpt>
      <trkpt lat="43.40085" lon="2.63849">
        <ele>516.3</ele>
        <time>2022-06-21T08:16:43Z</time>
      </trkpt>
      <trkpt lat="43.40085" lon="2.63849">
        <ele>516.4</ele>
        <time>2022-06-21T08:16:44Z</time>
      </trkpt>
      <trkpt lat="43.40085" lon="2.63849">
        <ele>516.4</ele>
        <time>2022-06-21T08:16:45Z</time>
      </trkpt>
      <trkpt lat="43.40085" lon="2.63849">
        <ele>516.4</ele>
        <time>2022-06-21T08:16:46Z</time>
      </trkpt>
      <trkpt lat="43.40086" lon="2.63849">
        <ele>516.4</ele>
        <time>2022-06-21T08:16:47Z</time>
      </trkpt>
      <trkpt lat="43.40086" lon="2.63849">
        <ele>516.4</ele>
        <time>2022-06-21T08:16:48Z</time>
      </trkpt>
      <trkpt lat="43.40086" lon="2.63849">
        <ele>516.4</ele>
        <time>2022-06-21T08:16:49Z</time>
      </trkpt>
      <trkpt lat="43.40086" lon="2.63849">
        <ele>516.4</ele>
        <time>2022-06-21T08:16:50Z</time>
      </trkpt>
      <trkpt lat="43.40086" lon="2.63849">
        <ele>516.4</ele>
        <time>2022-06-21T08:16:51Z</time>
      </trkpt>
      <trkpt lat="43.40086" lon="2.63849">
        <ele>516.4</ele>
        <time>2022-06-21T08:16:52Z</time>
      </trkpt>
      <trkpt lat="43.40086" lon="2.6385">
        <ele>516.4</ele>
        <time>2022-06-21T08:16:53Z</time>
      </trkpt>
      <trkpt lat="43.40086" lon="2.6385">
        <ele>516.4</ele>
        <time>2022-06-21T08:16:54Z</time>
      </trkpt>
      <trkpt lat="43.40086" lon="2.6385">
        <ele>516.4</ele>
        <time>2022-06-21T08:16:55Z</time>
      </trkpt>
      <trkpt lat="43.40086" lon="2.6385">
        <ele>516.4</ele>
        <time>2022-06-21T08:16:56Z</time>
      </trkpt>
      <trkpt lat="43.40086" lon="2.6385">
        <ele>516.4</ele>
        <time>2022-06-21T08:16:57Z</time>
      </trkpt>
      <trkpt lat="43.40086" lon="2.6385">
        <ele>516.4</ele>
        <time>2022-06-21T08:16:58Z</time>
      </trkpt>
      <trkpt lat="43.40086" lon="2.6385">
        <ele>516.4</ele>
        <time>2022-06-21T08:16:59Z</time>
      </trkpt>
      <trkpt lat="43.40086" lon="2.6385">
        <ele>516.4</ele>
        <time>2022-06-21T08:17:00Z</time>
      </trkpt>
      <trkpt lat="43.40086" lon="2.6385">
        <ele>516.5</ele>
        <time>2022-06-21T08:17:01Z</time>
      </trkpt>
      <trkpt lat="43.40086" lon="2.6385">
        <ele>516.5</ele>
        <time>2022-06-21T08:17:02Z</time>
      </trkpt>
      <trkpt lat="43.40086" lon="2.6385">
        <ele>516.5</ele>
        <time>2022-06-21T08:17:03Z</time>
      </trkpt>
      <trkpt lat="43.40086" lon="2.6385">
        <ele>516.5</ele>
        <time>2022-06-21T08:17:04Z</time>
      </trkpt>
      <trkpt lat="43.40086" lon="2.63851">
        <ele>516.5</ele>
        <time>2022-06-21T08:17:05Z</time>
      </trkpt>
      <trkpt lat="43.40086" lon="2.63851">
        <ele>516.5</ele>
        <time>2022-06-21T08:17:06Z</time>
      </trkpt>
      <trkpt lat="43.40086" lon="2.63851">
        <ele>516.5</ele>
        <time>2022-06-21T08:17:07Z</time>
      </trkpt>
      <trkpt lat="43.40086" lon="2.63851">
        <ele>516.5</ele>
        <time>2022-06-21T08:17:08Z</time>
      </trkpt>
      <trkpt lat="43.40086" lon="2.63852">
        <ele>516.6</ele>
        <time>2022-06-21T08:17:09Z</time>
      </trkpt>
      <trkpt lat="43.40086" lon="2.63854">
        <ele>516.6</ele>
        <time>2022-06-21T08:17:10Z</time>
      </trkpt>
      <trkpt lat="43.40086" lon="2.63855">
        <ele>516.7</ele>
        <time>2022-06-21T08:17:11Z</time>
      </trkpt>
      <trkpt lat="43.40086" lon="2.63857">
        <ele>516.8</ele>
        <time>2022-06-21T08:17:12Z</time>
      </trkpt>
      <trkpt lat="43.40085" lon="2.63858">
        <ele>516.9</ele>
        <time>2022-06-21T08:17:13Z</time>
      </trkpt>
      <trkpt lat="43.40085" lon="2.63859">
        <ele>516.9</ele>
        <time>2022-06-21T08:17:14Z</time>
      </trkpt>
      <trkpt lat="43.40085" lon="2.6386">
        <ele>517</ele>
        <time>2022-06-21T08:17:15Z</time>
      </trkpt>
      <trkpt lat="43.40086" lon="2.63861">
        <ele>517</ele>
        <time>2022-06-21T08:17:16Z</time>
      </trkpt>
      <trkpt lat="43.40086" lon="2.63863">
        <ele>517.1</ele>
        <time>2022-06-21T08:17:17Z</time>
      </trkpt>
      <trkpt lat="43.40086" lon="2.63864">
        <ele>517.2</ele>
        <time>2022-06-21T08:17:18Z</time>
      </trkpt>
      <trkpt lat="43.40086" lon="2.63865">
        <ele>517.2</ele>
        <time>2022-06-21T08:17:19Z</time>
      </trkpt>
      <trkpt lat="43.40086" lon="2.63867">
        <ele>517.3</ele>
        <time>2022-06-21T08:17:20Z</time>
      </trkpt>
      <trkpt lat="43.40086" lon="2.63868">
        <ele>517.4</ele>
        <time>2022-06-21T08:17:21Z</time>
      </trkpt>
      <trkpt lat="43.40086" lon="2.63869">
        <ele>517.4</ele>
        <time>2022-06-21T08:17:22Z</time>
      </trkpt>
      <trkpt lat="43.40086" lon="2.6387">
        <ele>517.5</ele>
        <time>2022-06-21T08:17:23Z</time>
      </trkpt>
      <trkpt lat="43.40086" lon="2.63872">
        <ele>517.6</ele>
        <time>2022-06-21T08:17:24Z</time>
      </trkpt>
      <trkpt lat="43.40086" lon="2.63873">
        <ele>517.6</ele>
        <time>2022-06-21T08:17:25Z</time>
      </trkpt>
      <trkpt lat="43.40086" lon="2.63874">
        <ele>517.7</ele>
        <time>2022-06-21T08:17:26Z</time>
      </trkpt>
      <trkpt lat="43.40086" lon="2.63875">
        <ele>517.8</ele>
        <time>2022-06-21T08:17:27Z</time>
      </trkpt>
      <trkpt lat="43.40086" lon="2.63877">
        <ele>517.8</ele>
        <time>2022-06-21T08:17:28Z</time>
      </trkpt>
      <trkpt lat="43.40086" lon="2.63878">
        <ele>517.9</ele>
        <time>2022-06-21T08:17:29Z</time>
      </trkpt>
      <trkpt lat="43.40086" lon="2.6388">
        <ele>518</ele>
        <time>2022-06-21T08:17:30Z</time>
      </trkpt>
      <trkpt lat="43.40086" lon="2.63881">
        <ele>518.1</ele>
        <time>2022-06-21T08:17:31Z</time>
      </trkpt>
      <trkpt lat="43.40086" lon="2.63883">
        <ele>518.2</ele>
        <time>2022-06-21T08:17:32Z</time>
      </trkpt>
      <trkpt lat="43.40086" lon="2.63884">
        <ele>518.2</ele>
        <time>2022-06-21T08:17:33Z</time>
      </trkpt>
      <trkpt lat="43.40086" lon="2.63886">
        <ele>518.3</ele>
        <time>2022-06-21T08:17:34Z</time>
      </trkpt>
      <trkpt lat="43.40086" lon="2.63887">
        <ele>518.4</ele>
        <time>2022-06-21T08:17:35Z</time>
      </trkpt>
      <trkpt lat="43.40086" lon="2.63888">
        <ele>518.5</ele>
        <time>2022-06-21T08:17:36Z</time>
      </trkpt>
      <trkpt lat="43.40086" lon="2.6389">
        <ele>518.6</ele>
        <time>2022-06-21T08:17:37Z</time>
      </trkpt>
      <trkpt lat="43.40086" lon="2.63891">
        <ele>518.6</ele>
        <time>2022-06-21T08:17:38Z</time>
      </trkpt>
      <trkpt lat="43.40086" lon="2.63892">
        <ele>518.7</ele>
        <time>2022-06-21T08:17:39Z</time>
      </trkpt>
      <trkpt lat="43.40086" lon="2.63893">
        <ele>518.8</ele>
        <time>2022-06-21T08:17:40Z</time>
      </trkpt>
      <trkpt lat="43.40086" lon="2.63895">
        <ele>518.9</ele>
        <time>2022-06-21T08:17:41Z</time>
      </trkpt>
      <trkpt lat="43.40086" lon="2.63896">
        <ele>518.9</ele>
        <time>2022-06-21T08:17:42Z</time>
      </trkpt>
      <trkpt lat="43.40085" lon="2.63897">
        <ele>519</ele>
        <time>2022-06-21T08:17:43Z</time>
      </trkpt>
      <trkpt lat="43.40085" lon="2.63897">
        <ele>519</ele>
        <time>2022-06-21T08:17:44Z</time>
      </trkpt>
      <trkpt lat="43.40085" lon="2.63898">
        <ele>519.1</ele>
        <time>2022-06-21T08:17:45Z</time>
      </trkpt>
      <trkpt lat="43.40085" lon="2.63899">
        <ele>519.1</ele>
        <time>2022-06-21T08:17:46Z</time>
      </trkpt>
      <trkpt lat="43.40085" lon="2.63899">
        <ele>519.2</ele>
        <time>2022-06-21T08:17:47Z</time>
      </trkpt>
      <trkpt lat="43.40085" lon="2.639">
        <ele>519.2</ele>
        <time>2022-06-21T08:17:48Z</time>
      </trkpt>
      <trkpt lat="43.40086" lon="2.63901">
        <ele>519.3</ele>
        <time>2022-06-21T08:17:49Z</time>
      </trkpt>
      <trkpt lat="43.40086" lon="2.63901">
        <ele>519.3</ele>
        <time>2022-06-21T08:17:50Z</time>
      </trkpt>
      <trkpt lat="43.40086" lon="2.63902">
        <ele>519.4</ele>
        <time>2022-06-21T08:17:51Z</time>
      </trkpt>
      <trkpt lat="43.40087" lon="2.63903">
        <ele>519.5</ele>
        <time>2022-06-21T08:17:52Z</time>
      </trkpt>
      <trkpt lat="43.40087" lon="2.63904">
        <ele>519.6</ele>
        <time>2022-06-21T08:17:53Z</time>
      </trkpt>
      <trkpt lat="43.40088" lon="2.63906">
        <ele>519.6</ele>
        <time>2022-06-21T08:17:54Z</time>
      </trkpt>
      <trkpt lat="43.40088" lon="2.63907">
        <ele>519.7</ele>
        <time>2022-06-21T08:17:55Z</time>
      </trkpt>
      <trkpt lat="43.40088" lon="2.63908">
        <ele>519.8</ele>
        <time>2022-06-21T08:17:56Z</time>
      </trkpt>
      <trkpt lat="43.40088" lon="2.6391">
        <ele>519.9</ele>
        <time>2022-06-21T08:17:57Z</time>
      </trkpt>
      <trkpt lat="43.40089" lon="2.63911">
        <ele>520</ele>
        <time>2022-06-21T08:17:58Z</time>
      </trkpt>
      <trkpt lat="43.40089" lon="2.63913">
        <ele>520.1</ele>
        <time>2022-06-21T08:17:59Z</time>
      </trkpt>
      <trkpt lat="43.40089" lon="2.63914">
        <ele>520.2</ele>
        <time>2022-06-21T08:18:00Z</time>
      </trkpt>
      <trkpt lat="43.40089" lon="2.63916">
        <ele>520.3</ele>
        <time>2022-06-21T08:18:01Z</time>
      </trkpt>
      <trkpt lat="43.40089" lon="2.63917">
        <ele>520.4</ele>
        <time>2022-06-21T08:18:02Z</time>
      </trkpt>
      <trkpt lat="43.40089" lon="2.63918">
        <ele>520.5</ele>
        <time>2022-06-21T08:18:03Z</time>
      </trkpt>
      <trkpt lat="43.40089" lon="2.6392">
        <ele>520.6</ele>
        <time>2022-06-21T08:18:04Z</time>
      </trkpt>
      <trkpt lat="43.40089" lon="2.63921">
        <ele>520.7</ele>
        <time>2022-06-21T08:18:05Z</time>
      </trkpt>
      <trkpt lat="43.40089" lon="2.63922">
        <ele>520.8</ele>
        <time>2022-06-21T08:18:06Z</time>
      </trkpt>
      <trkpt lat="43.40088" lon="2.63923">
        <ele>520.9</ele>
        <time>2022-06-21T08:18:07Z</time>
      </trkpt>
      <trkpt lat="43.40088" lon="2.63925">
        <ele>521</ele>
        <time>2022-06-21T08:18:08Z</time>
      </trkpt>
      <trkpt lat="43.40088" lon="2.63926">
        <ele>521.1</ele>
        <time>2022-06-21T08:18:09Z</time>
      </trkpt>
      <trkpt lat="43.40088" lon="2.63928">
        <ele>521.2</ele>
        <time>2022-06-21T08:18:10Z</time>
      </trkpt>
      <trkpt lat="43.40089" lon="2.63929">
        <ele>521.3</ele>
        <time>2022-06-21T08:18:11Z</time>
      </trkpt>
      <trkpt lat="43.40089" lon="2.6393">
        <ele>521.4</ele>
        <time>2022-06-21T08:18:12Z</time>
      </trkpt>
      <trkpt lat="43.40089" lon="2.63931">
        <ele>521.5</ele>
        <time>2022-06-21T08:18:13Z</time>
      </trkpt>
      <trkpt lat="43.40089" lon="2.63933">
        <ele>521.6</ele>
        <time>2022-06-21T08:18:14Z</time>
      </trkpt>
      <trkpt lat="43.40089" lon="2.63934">
        <ele>521.7</ele>
        <time>2022-06-21T08:18:15Z</time>
      </trkpt>
      <trkpt lat="43.40089" lon="2.63935">
        <ele>521.8</ele>
        <time>2022-06-21T08:18:16Z</time>
      </trkpt>
      <trkpt lat="43.4009" lon="2.63937">
        <ele>521.9</ele>
        <time>2022-06-21T08:18:17Z</time>
      </trkpt>
      <trkpt lat="43.4009" lon="2.63938">
        <ele>522</ele>
        <time>2022-06-21T08:18:18Z</time>
      </trkpt>
      <trkpt lat="43.4009" lon="2.63939">
        <ele>522.1</ele>
        <time>2022-06-21T08:18:19Z</time>
      </trkpt>
      <trkpt lat="43.4009" lon="2.63941">
        <ele>522.2</ele>
        <time>2022-06-21T08:18:20Z</time>
      </trkpt>
      <trkpt lat="43.4009" lon="2.63942">
        <ele>522.3</ele>
        <time>2022-06-21T08:18:21Z</time>
      </trkpt>
      <trkpt lat="43.4009" lon="2.63943">
        <ele>522.4</ele>
        <time>2022-06-21T08:18:22Z</time>
      </trkpt>
      <trkpt lat="43.4009" lon="2.63944">
        <ele>522.5</ele>
        <time>2022-06-21T08:18:23Z</time>
      </trkpt>
      <trkpt lat="43.4009" lon="2.63946">
        <ele>522.6</ele>
        <time>2022-06-21T08:18:24Z</time>
      </trkpt>
      <trkpt lat="43.40091" lon="2.63947">
        <ele>522.7</ele>
        <time>2022-06-21T08:18:25Z</time>
      </trkpt>
      <trkpt lat="43.40091" lon="2.63948">
        <ele>522.7</ele>
        <time>2022-06-21T08:18:26Z</time>
      </trkpt>
      <trkpt lat="43.40091" lon="2.63948">
        <ele>522.8</ele>
        <time>2022-06-21T08:18:27Z</time>
      </trkpt>
      <trkpt lat="43.40091" lon="2.63949">
        <ele>522.9</ele>
        <time>2022-06-21T08:18:28Z</time>
      </trkpt>
      <trkpt lat="43.40091" lon="2.63949">
        <ele>522.9</ele>
        <time>2022-06-21T08:18:29Z</time>
      </trkpt>
      <trkpt lat="43.40091" lon="2.63949">
        <ele>522.9</ele>
        <time>2022-06-21T08:18:30Z</time>
      </trkpt>
      <trkpt lat="43.40091" lon="2.6395">
        <ele>522.9</ele>
        <time>2022-06-21T08:18:31Z</time>
      </trkpt>
      <trkpt lat="43.40091" lon="2.6395">
        <ele>523</ele>
        <time>2022-06-21T08:18:32Z</time>
      </trkpt>
      <trkpt lat="43.40091" lon="2.63951">
        <ele>523</ele>
        <time>2022-06-21T08:18:33Z</time>
      </trkpt>
      <trkpt lat="43.40092" lon="2.63952">
        <ele>523.1</ele>
        <time>2022-06-21T08:18:34Z</time>
      </trkpt>
      <trkpt lat="43.40092" lon="2.63953">
        <ele>523.2</ele>
        <time>2022-06-21T08:18:35Z</time>
      </trkpt>
      <trkpt lat="43.40092" lon="2.63955">
        <ele>523.3</ele>
        <time>2022-06-21T08:18:36Z</time>
      </trkpt>
      <trkpt lat="43.40092" lon="2.63956">
        <ele>523.4</ele>
        <time>2022-06-21T08:18:37Z</time>
      </trkpt>
      <trkpt lat="43.40092" lon="2.63957">
        <ele>523.5</ele>
        <time>2022-06-21T08:18:38Z</time>
      </trkpt>
      <trkpt lat="43.40092" lon="2.63958">
        <ele>523.6</ele>
        <time>2022-06-21T08:18:39Z</time>
      </trkpt>
      <trkpt lat="43.40092" lon="2.63959">
        <ele>523.7</ele>
        <time>2022-06-21T08:18:40Z</time>
      </trkpt>
      <trkpt lat="43.40092" lon="2.6396">
        <ele>523.7</ele>
        <time>2022-06-21T08:18:41Z</time>
      </trkpt>
      <trkpt lat="43.40092" lon="2.63961">
        <ele>523.8</ele>
        <time>2022-06-21T08:18:42Z</time>
      </trkpt>
      <trkpt lat="43.40092" lon="2.63963">
        <ele>523.9</ele>
        <time>2022-06-21T08:18:43Z</time>
      </trkpt>
      <trkpt lat="43.40092" lon="2.63964">
        <ele>524.1</ele>
        <time>2022-06-21T08:18:44Z</time>
      </trkpt>
      <trkpt lat="43.40093" lon="2.63966">
        <ele>524.2</ele>
        <time>2022-06-21T08:18:45Z</time>
      </trkpt>
      <trkpt lat="43.40093" lon="2.63967">
        <ele>524.3</ele>
        <time>2022-06-21T08:18:46Z</time>
      </trkpt>
      <trkpt lat="43.40093" lon="2.63969">
        <ele>524.4</ele>
        <time>2022-06-21T08:18:47Z</time>
      </trkpt>
      <trkpt lat="43.40093" lon="2.6397">
        <ele>524.5</ele>
        <time>2022-06-21T08:18:48Z</time>
      </trkpt>
      <trkpt lat="43.40093" lon="2.63972">
        <ele>524.6</ele>
        <time>2022-06-21T08:18:49Z</time>
      </trkpt>
      <trkpt lat="43.40094" lon="2.63973">
        <ele>524.7</ele>
        <time>2022-06-21T08:18:50Z</time>
      </trkpt>
      <trkpt lat="43.40094" lon="2.63974">
        <ele>524.8</ele>
        <time>2022-06-21T08:18:51Z</time>
      </trkpt>
      <trkpt lat="43.40094" lon="2.63976">
        <ele>525</ele>
        <time>2022-06-21T08:18:52Z</time>
      </trkpt>
      <trkpt lat="43.40094" lon="2.63978">
        <ele>525.1</ele>
        <time>2022-06-21T08:18:53Z</time>
      </trkpt>
      <trkpt lat="43.40094" lon="2.6398">
        <ele>525.2</ele>
        <time>2022-06-21T08:18:54Z</time>
      </trkpt>
      <trkpt lat="43.40094" lon="2.63982">
        <ele>525.4</ele>
        <time>2022-06-21T08:18:55Z</time>
      </trkpt>
      <trkpt lat="43.40094" lon="2.63984">
        <ele>525.5</ele>
        <time>2022-06-21T08:18:56Z</time>
      </trkpt>
      <trkpt lat="43.40095" lon="2.63987">
        <ele>525.7</ele>
        <time>2022-06-21T08:18:57Z</time>
      </trkpt>
      <trkpt lat="43.40095" lon="2.63988">
        <ele>525.8</ele>
        <time>2022-06-21T08:18:58Z</time>
      </trkpt>
      <trkpt lat="43.40095" lon="2.6399">
        <ele>525.9</ele>
        <time>2022-06-21T08:18:59Z</time>
      </trkpt>
      <trkpt lat="43.40095" lon="2.63991">
        <ele>526</ele>
        <time>2022-06-21T08:19:00Z</time>
      </trkpt>
      <trkpt lat="43.40095" lon="2.63992">
        <ele>526.1</ele>
        <time>2022-06-21T08:19:01Z</time>
      </trkpt>
      <trkpt lat="43.40096" lon="2.63993">
        <ele>526.1</ele>
        <time>2022-06-21T08:19:02Z</time>
      </trkpt>
      <trkpt lat="43.40096" lon="2.63994">
        <ele>526.2</ele>
        <time>2022-06-21T08:19:03Z</time>
      </trkpt>
      <trkpt lat="43.40097" lon="2.63996">
        <ele>526.3</ele>
        <time>2022-06-21T08:19:04Z</time>
      </trkpt>
      <trkpt lat="43.40097" lon="2.63998">
        <ele>526.5</ele>
        <time>2022-06-21T08:19:05Z</time>
      </trkpt>
      <trkpt lat="43.40097" lon="2.63999">
        <ele>526.5</ele>
        <time>2022-06-21T08:19:06Z</time>
      </trkpt>
      <trkpt lat="43.40098" lon="2.64001">
        <ele>526.6</ele>
        <time>2022-06-21T08:19:07Z</time>
      </trkpt>
      <trkpt lat="43.40098" lon="2.64003">
        <ele>526.8</ele>
        <time>2022-06-21T08:19:08Z</time>
      </trkpt>
      <trkpt lat="43.40098" lon="2.64005">
        <ele>526.8</ele>
        <time>2022-06-21T08:19:09Z</time>
      </trkpt>
      <trkpt lat="43.40098" lon="2.64006">
        <ele>526.9</ele>
        <time>2022-06-21T08:19:10Z</time>
      </trkpt>
      <trkpt lat="43.40098" lon="2.64007">
        <ele>527</ele>
        <time>2022-06-21T08:19:11Z</time>
      </trkpt>
      <trkpt lat="43.40098" lon="2.64009">
        <ele>527.1</ele>
        <time>2022-06-21T08:19:12Z</time>
      </trkpt>
      <trkpt lat="43.40098" lon="2.64012">
        <ele>527.2</ele>
        <time>2022-06-21T08:19:13Z</time>
      </trkpt>
      <trkpt lat="43.40098" lon="2.64013">
        <ele>527.3</ele>
        <time>2022-06-21T08:19:14Z</time>
      </trkpt>
      <trkpt lat="43.40098" lon="2.64014">
        <ele>527.4</ele>
        <time>2022-06-21T08:19:15Z</time>
      </trkpt>
      <trkpt lat="43.40098" lon="2.64016">
        <ele>527.5</ele>
        <time>2022-06-21T08:19:16Z</time>
      </trkpt>
      <trkpt lat="43.40098" lon="2.64018">
        <ele>527.6</ele>
        <time>2022-06-21T08:19:17Z</time>
      </trkpt>
      <trkpt lat="43.40098" lon="2.6402">
        <ele>527.7</ele>
        <time>2022-06-21T08:19:18Z</time>
      </trkpt>
      <trkpt lat="43.40098" lon="2.64021">
        <ele>527.8</ele>
        <time>2022-06-21T08:19:19Z</time>
      </trkpt>
      <trkpt lat="43.40098" lon="2.64023">
        <ele>527.8</ele>
        <time>2022-06-21T08:19:20Z</time>
      </trkpt>
      <trkpt lat="43.40098" lon="2.64025">
        <ele>528</ele>
        <time>2022-06-21T08:19:21Z</time>
      </trkpt>
      <trkpt lat="43.40098" lon="2.64026">
        <ele>528</ele>
        <time>2022-06-21T08:19:22Z</time>
      </trkpt>
      <trkpt lat="43.40098" lon="2.64027">
        <ele>528.1</ele>
        <time>2022-06-21T08:19:23Z</time>
      </trkpt>
      <trkpt lat="43.40098" lon="2.64028">
        <ele>528.1</ele>
        <time>2022-06-21T08:19:24Z</time>
      </trkpt>
      <trkpt lat="43.40097" lon="2.6403">
        <ele>528.2</ele>
        <time>2022-06-21T08:19:25Z</time>
      </trkpt>
      <trkpt lat="43.40097" lon="2.64031">
        <ele>528.2</ele>
        <time>2022-06-21T08:19:26Z</time>
      </trkpt>
      <trkpt lat="43.40097" lon="2.64032">
        <ele>528.3</ele>
        <time>2022-06-21T08:19:27Z</time>
      </trkpt>
      <trkpt lat="43.40097" lon="2.64033">
        <ele>528.4</ele>
        <time>2022-06-21T08:19:28Z</time>
      </trkpt>
      <trkpt lat="43.40097" lon="2.64034">
        <ele>528.4</ele>
        <time>2022-06-21T08:19:29Z</time>
      </trkpt>
      <trkpt lat="43.40098" lon="2.64036">
        <ele>528.5</ele>
        <time>2022-06-21T08:19:30Z</time>
      </trkpt>
      <trkpt lat="43.40098" lon="2.64037">
        <ele>528.5</ele>
        <time>2022-06-21T08:19:31Z</time>
      </trkpt>
      <trkpt lat="43.40098" lon="2.64038">
        <ele>528.6</ele>
        <time>2022-06-21T08:19:32Z</time>
      </trkpt>
      <trkpt lat="43.40098" lon="2.64039">
        <ele>528.6</ele>
        <time>2022-06-21T08:19:33Z</time>
      </trkpt>
      <trkpt lat="43.40098" lon="2.6404">
        <ele>528.7</ele>
        <time>2022-06-21T08:19:34Z</time>
      </trkpt>
      <trkpt lat="43.40098" lon="2.64041">
        <ele>528.8</ele>
        <time>2022-06-21T08:19:35Z</time>
      </trkpt>
      <trkpt lat="43.40098" lon="2.64042">
        <ele>528.8</ele>
        <time>2022-06-21T08:19:36Z</time>
      </trkpt>
      <trkpt lat="43.40099" lon="2.64044">
        <ele>528.9</ele>
        <time>2022-06-21T08:19:37Z</time>
      </trkpt>
      <trkpt lat="43.40099" lon="2.64045">
        <ele>529</ele>
        <time>2022-06-21T08:19:38Z</time>
      </trkpt>
      <trkpt lat="43.40098" lon="2.64046">
        <ele>529</ele>
        <time>2022-06-21T08:19:39Z</time>
      </trkpt>
      <trkpt lat="43.40098" lon="2.64048">
        <ele>529.1</ele>
        <time>2022-06-21T08:19:40Z</time>
      </trkpt>
      <trkpt lat="43.40098" lon="2.64049">
        <ele>529.2</ele>
        <time>2022-06-21T08:19:41Z</time>
      </trkpt>
      <trkpt lat="43.40098" lon="2.6405">
        <ele>529.2</ele>
        <time>2022-06-21T08:19:42Z</time>
      </trkpt>
      <trkpt lat="43.40098" lon="2.64051">
        <ele>529.3</ele>
        <time>2022-06-21T08:19:43Z</time>
      </trkpt>
      <trkpt lat="43.40098" lon="2.64052">
        <ele>529.3</ele>
        <time>2022-06-21T08:19:44Z</time>
      </trkpt>
      <trkpt lat="43.40098" lon="2.64053">
        <ele>529.4</ele>
        <time>2022-06-21T08:19:45Z</time>
      </trkpt>
      <trkpt lat="43.40099" lon="2.64055">
        <ele>529.5</ele>
        <time>2022-06-21T08:19:46Z</time>
      </trkpt>
      <trkpt lat="43.40099" lon="2.64056">
        <ele>529.5</ele>
        <time>2022-06-21T08:19:47Z</time>
      </trkpt>
      <trkpt lat="43.40099" lon="2.64059">
        <ele>529.7</ele>
        <time>2022-06-21T08:19:48Z</time>
      </trkpt>
      <trkpt lat="43.401" lon="2.6406">
        <ele>529.8</ele>
        <time>2022-06-21T08:19:49Z</time>
      </trkpt>
      <trkpt lat="43.401" lon="2.64061">
        <ele>529.8</ele>
        <time>2022-06-21T08:19:50Z</time>
      </trkpt>
      <trkpt lat="43.40101" lon="2.64064">
        <ele>530</ele>
        <time>2022-06-21T08:19:51Z</time>
      </trkpt>
      <trkpt lat="43.40101" lon="2.64065">
        <ele>530.1</ele>
        <time>2022-06-21T08:19:52Z</time>
      </trkpt>
      <trkpt lat="43.40101" lon="2.64066">
        <ele>530.1</ele>
        <time>2022-06-21T08:19:53Z</time>
      </trkpt>
      <trkpt lat="43.40101" lon="2.64068">
        <ele>530.2</ele>
        <time>2022-06-21T08:19:54Z</time>
      </trkpt>
      <trkpt lat="43.40102" lon="2.6407">
        <ele>530.3</ele>
        <time>2022-06-21T08:19:55Z</time>
      </trkpt>
      <trkpt lat="43.40103" lon="2.64072">
        <ele>530.5</ele>
        <time>2022-06-21T08:19:56Z</time>
      </trkpt>
      <trkpt lat="43.40103" lon="2.64073">
        <ele>530.6</ele>
        <time>2022-06-21T08:19:57Z</time>
      </trkpt>
      <trkpt lat="43.40103" lon="2.64074">
        <ele>530.7</ele>
        <time>2022-06-21T08:19:58Z</time>
      </trkpt>
      <trkpt lat="43.40104" lon="2.64076">
        <ele>530.7</ele>
        <time>2022-06-21T08:19:59Z</time>
      </trkpt>
      <trkpt lat="43.40104" lon="2.64077">
        <ele>530.8</ele>
        <time>2022-06-21T08:20:00Z</time>
      </trkpt>
      <trkpt lat="43.40104" lon="2.64079">
        <ele>530.9</ele>
        <time>2022-06-21T08:20:01Z</time>
      </trkpt>
      <trkpt lat="43.40105" lon="2.6408">
        <ele>531</ele>
        <time>2022-06-21T08:20:02Z</time>
      </trkpt>
      <trkpt lat="43.40105" lon="2.64081">
        <ele>531.1</ele>
        <time>2022-06-21T08:20:03Z</time>
      </trkpt>
      <trkpt lat="43.40105" lon="2.64083">
        <ele>531.2</ele>
        <time>2022-06-21T08:20:04Z</time>
      </trkpt>
      <trkpt lat="43.40106" lon="2.64084">
        <ele>531.3</ele>
        <time>2022-06-21T08:20:05Z</time>
      </trkpt>
      <trkpt lat="43.40106" lon="2.64085">
        <ele>531.3</ele>
        <time>2022-06-21T08:20:06Z</time>
      </trkpt>
      <trkpt lat="43.40106" lon="2.64086">
        <ele>531.4</ele>
        <time>2022-06-21T08:20:07Z</time>
      </trkpt>
      <trkpt lat="43.40106" lon="2.64088">
        <ele>531.5</ele>
        <time>2022-06-21T08:20:08Z</time>
      </trkpt>
      <trkpt lat="43.40106" lon="2.64089">
        <ele>531.6</ele>
        <time>2022-06-21T08:20:09Z</time>
      </trkpt>
      <trkpt lat="43.40106" lon="2.6409">
        <ele>531.6</ele>
        <time>2022-06-21T08:20:10Z</time>
      </trkpt>
      <trkpt lat="43.40106" lon="2.64091">
        <ele>531.7</ele>
        <time>2022-06-21T08:20:11Z</time>
      </trkpt>
      <trkpt lat="43.40106" lon="2.64093">
        <ele>531.8</ele>
        <time>2022-06-21T08:20:12Z</time>
      </trkpt>
      <trkpt lat="43.40106" lon="2.64094">
        <ele>531.9</ele>
        <time>2022-06-21T08:20:13Z</time>
      </trkpt>
      <trkpt lat="43.40106" lon="2.64095">
        <ele>532</ele>
        <time>2022-06-21T08:20:14Z</time>
      </trkpt>
      <trkpt lat="43.40106" lon="2.64097">
        <ele>532.1</ele>
        <time>2022-06-21T08:20:15Z</time>
      </trkpt>
      <trkpt lat="43.40107" lon="2.64098">
        <ele>532.1</ele>
        <time>2022-06-21T08:20:16Z</time>
      </trkpt>
      <trkpt lat="43.40107" lon="2.64099">
        <ele>532.2</ele>
        <time>2022-06-21T08:20:17Z</time>
      </trkpt>
      <trkpt lat="43.40108" lon="2.64101">
        <ele>532.4</ele>
        <time>2022-06-21T08:20:18Z</time>
      </trkpt>
      <trkpt lat="43.40108" lon="2.64102">
        <ele>532.4</ele>
        <time>2022-06-21T08:20:19Z</time>
      </trkpt>
      <trkpt lat="43.40109" lon="2.64103">
        <ele>532.5</ele>
        <time>2022-06-21T08:20:20Z</time>
      </trkpt>
      <trkpt lat="43.4011" lon="2.64104">
        <ele>532.6</ele>
        <time>2022-06-21T08:20:21Z</time>
      </trkpt>
      <trkpt lat="43.4011" lon="2.64104">
        <ele>532.7</ele>
        <time>2022-06-21T08:20:22Z</time>
      </trkpt>
      <trkpt lat="43.40111" lon="2.64105">
        <ele>532.7</ele>
        <time>2022-06-21T08:20:23Z</time>
      </trkpt>
      <trkpt lat="43.40111" lon="2.64107">
        <ele>532.9</ele>
        <time>2022-06-21T08:20:24Z</time>
      </trkpt>
      <trkpt lat="43.40112" lon="2.64108">
        <ele>532.9</ele>
        <time>2022-06-21T08:20:25Z</time>
      </trkpt>
      <trkpt lat="43.40112" lon="2.64109">
        <ele>533</ele>
        <time>2022-06-21T08:20:26Z</time>
      </trkpt>
      <trkpt lat="43.40112" lon="2.6411">
        <ele>533</ele>
        <time>2022-06-21T08:20:27Z</time>
      </trkpt>
      <trkpt lat="43.40113" lon="2.6411">
        <ele>533.1</ele>
        <time>2022-06-21T08:20:28Z</time>
      </trkpt>
      <trkpt lat="43.40113" lon="2.64111">
        <ele>533.2</ele>
        <time>2022-06-21T08:20:29Z</time>
      </trkpt>
      <trkpt lat="43.40113" lon="2.64112">
        <ele>533.2</ele>
        <time>2022-06-21T08:20:30Z</time>
      </trkpt>
      <trkpt lat="43.40113" lon="2.64113">
        <ele>533.3</ele>
        <time>2022-06-21T08:20:31Z</time>
      </trkpt>
      <trkpt lat="43.40113" lon="2.64114">
        <ele>533.4</ele>
        <time>2022-06-21T08:20:32Z</time>
      </trkpt>
      <trkpt lat="43.40114" lon="2.64116">
        <ele>533.5</ele>
        <time>2022-06-21T08:20:33Z</time>
      </trkpt>
      <trkpt lat="43.40114" lon="2.64117">
        <ele>533.6</ele>
        <time>2022-06-21T08:20:34Z</time>
      </trkpt>
      <trkpt lat="43.40115" lon="2.6412">
        <ele>533.8</ele>
        <time>2022-06-21T08:20:35Z</time>
      </trkpt>
      <trkpt lat="43.40115" lon="2.64121">
        <ele>533.9</ele>
        <time>2022-06-21T08:20:36Z</time>
      </trkpt>
      <trkpt lat="43.40116" lon="2.64122">
        <ele>534</ele>
        <time>2022-06-21T08:20:37Z</time>
      </trkpt>
      <trkpt lat="43.40116" lon="2.64123">
        <ele>534</ele>
        <time>2022-06-21T08:20:38Z</time>
      </trkpt>
      <trkpt lat="43.40116" lon="2.64123">
        <ele>534.1</ele>
        <time>2022-06-21T08:20:39Z</time>
      </trkpt>
      <trkpt lat="43.40116" lon="2.64124">
        <ele>534.1</ele>
        <time>2022-06-21T08:20:40Z</time>
      </trkpt>
      <trkpt lat="43.40116" lon="2.64125">
        <ele>534.2</ele>
        <time>2022-06-21T08:20:41Z</time>
      </trkpt>
      <trkpt lat="43.40117" lon="2.64126">
        <ele>534.3</ele>
        <time>2022-06-21T08:20:42Z</time>
      </trkpt>
      <trkpt lat="43.40117" lon="2.64128">
        <ele>534.4</ele>
        <time>2022-06-21T08:20:43Z</time>
      </trkpt>
      <trkpt lat="43.40117" lon="2.64129">
        <ele>534.5</ele>
        <time>2022-06-21T08:20:44Z</time>
      </trkpt>
      <trkpt lat="43.40117" lon="2.64131">
        <ele>534.6</ele>
        <time>2022-06-21T08:20:45Z</time>
      </trkpt>
      <trkpt lat="43.40118" lon="2.64134">
        <ele>534.9</ele>
        <time>2022-06-21T08:20:46Z</time>
      </trkpt>
      <trkpt lat="43.40118" lon="2.64135">
        <ele>534.9</ele>
        <time>2022-06-21T08:20:47Z</time>
      </trkpt>
      <trkpt lat="43.40118" lon="2.64136">
        <ele>535</ele>
        <time>2022-06-21T08:20:48Z</time>
      </trkpt>
      <trkpt lat="43.40118" lon="2.64137">
        <ele>535.1</ele>
        <time>2022-06-21T08:20:49Z</time>
      </trkpt>
      <trkpt lat="43.40119" lon="2.64139">
        <ele>535.3</ele>
        <time>2022-06-21T08:20:50Z</time>
      </trkpt>
      <trkpt lat="43.40119" lon="2.6414">
        <ele>535.4</ele>
        <time>2022-06-21T08:20:51Z</time>
      </trkpt>
      <trkpt lat="43.40119" lon="2.64142">
        <ele>535.5</ele>
        <time>2022-06-21T08:20:52Z</time>
      </trkpt>
      <trkpt lat="43.4012" lon="2.64144">
        <ele>535.7</ele>
        <time>2022-06-21T08:20:53Z</time>
      </trkpt>
      <trkpt lat="43.4012" lon="2.64146">
        <ele>535.8</ele>
        <time>2022-06-21T08:20:54Z</time>
      </trkpt>
      <trkpt lat="43.4012" lon="2.64148">
        <ele>535.9</ele>
        <time>2022-06-21T08:20:55Z</time>
      </trkpt>
      <trkpt lat="43.40121" lon="2.6415">
        <ele>536.1</ele>
        <time>2022-06-21T08:20:56Z</time>
      </trkpt>
      <trkpt lat="43.40121" lon="2.64152">
        <ele>536.2</ele>
        <time>2022-06-21T08:20:57Z</time>
      </trkpt>
      <trkpt lat="43.40121" lon="2.64155">
        <ele>536.5</ele>
        <time>2022-06-21T08:20:58Z</time>
      </trkpt>
      <trkpt lat="43.40122" lon="2.64157">
        <ele>536.6</ele>
        <time>2022-06-21T08:20:59Z</time>
      </trkpt>
      <trkpt lat="43.40122" lon="2.64158">
        <ele>536.7</ele>
        <time>2022-06-21T08:21:00Z</time>
      </trkpt>
      <trkpt lat="43.40122" lon="2.6416">
        <ele>536.8</ele>
        <time>2022-06-21T08:21:01Z</time>
      </trkpt>
      <trkpt lat="43.40122" lon="2.64161">
        <ele>536.8</ele>
        <time>2022-06-21T08:21:02Z</time>
      </trkpt>
      <trkpt lat="43.40123" lon="2.64162">
        <ele>536.9</ele>
        <time>2022-06-21T08:21:03Z</time>
      </trkpt>
      <trkpt lat="43.40123" lon="2.64163">
        <ele>537</ele>
        <time>2022-06-21T08:21:04Z</time>
      </trkpt>
      <trkpt lat="43.40123" lon="2.64164">
        <ele>537.1</ele>
        <time>2022-06-21T08:21:05Z</time>
      </trkpt>
      <trkpt lat="43.40123" lon="2.64166">
        <ele>537.2</ele>
        <time>2022-06-21T08:21:06Z</time>
      </trkpt>
      <trkpt lat="43.40124" lon="2.64167">
        <ele>537.3</ele>
        <time>2022-06-21T08:21:07Z</time>
      </trkpt>
      <trkpt lat="43.40124" lon="2.64169">
        <ele>537.4</ele>
        <time>2022-06-21T08:21:08Z</time>
      </trkpt>
      <trkpt lat="43.40124" lon="2.6417">
        <ele>537.5</ele>
        <time>2022-06-21T08:21:09Z</time>
      </trkpt>
      <trkpt lat="43.40124" lon="2.64172">
        <ele>537.6</ele>
        <time>2022-06-21T08:21:10Z</time>
      </trkpt>
      <trkpt lat="43.40124" lon="2.64173">
        <ele>537.8</ele>
        <time>2022-06-21T08:21:11Z</time>
      </trkpt>
      <trkpt lat="43.40124" lon="2.64176">
        <ele>537.9</ele>
        <time>2022-06-21T08:21:12Z</time>
      </trkpt>
      <trkpt lat="43.40125" lon="2.64177">
        <ele>538</ele>
        <time>2022-06-21T08:21:13Z</time>
      </trkpt>
      <trkpt lat="43.40125" lon="2.64178">
        <ele>538.1</ele>
        <time>2022-06-21T08:21:14Z</time>
      </trkpt>
      <trkpt lat="43.40126" lon="2.64178">
        <ele>538.2</ele>
        <time>2022-06-21T08:21:15Z</time>
      </trkpt>
      <trkpt lat="43.40126" lon="2.64179">
        <ele>538.2</ele>
        <time>2022-06-21T08:21:16Z</time>
      </trkpt>
      <trkpt lat="43.40126" lon="2.6418">
        <ele>538.3</ele>
        <time>2022-06-21T08:21:17Z</time>
      </trkpt>
      <trkpt lat="43.40126" lon="2.64181">
        <ele>538.4</ele>
        <time>2022-06-21T08:21:18Z</time>
      </trkpt>
      <trkpt lat="43.40127" lon="2.64183">
        <ele>538.5</ele>
        <time>2022-06-21T08:21:19Z</time>
      </trkpt>
      <trkpt lat="43.40127" lon="2.64186">
        <ele>538.7</ele>
        <time>2022-06-21T08:21:20Z</time>
      </trkpt>
      <trkpt lat="43.40127" lon="2.64187">
        <ele>538.8</ele>
        <time>2022-06-21T08:21:21Z</time>
      </trkpt>
      <trkpt lat="43.40127" lon="2.64188">
        <ele>538.9</ele>
        <time>2022-06-21T08:21:22Z</time>
      </trkpt>
      <trkpt lat="43.40128" lon="2.6419">
        <ele>539</ele>
        <time>2022-06-21T08:21:23Z</time>
      </trkpt>
      <trkpt lat="43.40128" lon="2.64192">
        <ele>539.2</ele>
        <time>2022-06-21T08:21:24Z</time>
      </trkpt>
      <trkpt lat="43.40128" lon="2.64195">
        <ele>539.4</ele>
        <time>2022-06-21T08:21:25Z</time>
      </trkpt>
      <trkpt lat="43.40128" lon="2.64196">
        <ele>539.5</ele>
        <time>2022-06-21T08:21:26Z</time>
      </trkpt>
      <trkpt lat="43.40128" lon="2.64197">
        <ele>539.5</ele>
        <time>2022-06-21T08:21:27Z</time>
      </trkpt>
      <trkpt lat="43.40129" lon="2.642">
        <ele>539.7</ele>
        <time>2022-06-21T08:21:28Z</time>
      </trkpt>
      <trkpt lat="43.40129" lon="2.64201">
        <ele>539.8</ele>
        <time>2022-06-21T08:21:29Z</time>
      </trkpt>
      <trkpt lat="43.40129" lon="2.64202">
        <ele>539.9</ele>
        <time>2022-06-21T08:21:30Z</time>
      </trkpt>
      <trkpt lat="43.40129" lon="2.64205">
        <ele>540</ele>
        <time>2022-06-21T08:21:31Z</time>
      </trkpt>
      <trkpt lat="43.40129" lon="2.64206">
        <ele>540.1</ele>
        <time>2022-06-21T08:21:32Z</time>
      </trkpt>
      <trkpt lat="43.40129" lon="2.64207">
        <ele>540.2</ele>
        <time>2022-06-21T08:21:33Z</time>
      </trkpt>
      <trkpt lat="43.40129" lon="2.64209">
        <ele>540.3</ele>
        <time>2022-06-21T08:21:34Z</time>
      </trkpt>
      <trkpt lat="43.40129" lon="2.6421">
        <ele>540.4</ele>
        <time>2022-06-21T08:21:35Z</time>
      </trkpt>
      <trkpt lat="43.40129" lon="2.64212">
        <ele>540.5</ele>
        <time>2022-06-21T08:21:36Z</time>
      </trkpt>
      <trkpt lat="43.40128" lon="2.64215">
        <ele>540.6</ele>
        <time>2022-06-21T08:21:37Z</time>
      </trkpt>
      <trkpt lat="43.40128" lon="2.64216">
        <ele>540.7</ele>
        <time>2022-06-21T08:21:38Z</time>
      </trkpt>
      <trkpt lat="43.40127" lon="2.64217">
        <ele>540.8</ele>
        <time>2022-06-21T08:21:39Z</time>
      </trkpt>
      <trkpt lat="43.40127" lon="2.6422">
        <ele>541</ele>
        <time>2022-06-21T08:21:40Z</time>
      </trkpt>
      <trkpt lat="43.40127" lon="2.64221">
        <ele>541</ele>
        <time>2022-06-21T08:21:41Z</time>
      </trkpt>
      <trkpt lat="43.40126" lon="2.64222">
        <ele>541.1</ele>
        <time>2022-06-21T08:21:42Z</time>
      </trkpt>
      <trkpt lat="43.40126" lon="2.64224">
        <ele>541.2</ele>
        <time>2022-06-21T08:21:43Z</time>
      </trkpt>
      <trkpt lat="43.40126" lon="2.64225">
        <ele>541.3</ele>
        <time>2022-06-21T08:21:44Z</time>
      </trkpt>
      <trkpt lat="43.40126" lon="2.64227">
        <ele>541.4</ele>
        <time>2022-06-21T08:21:45Z</time>
      </trkpt>
      <trkpt lat="43.40126" lon="2.64228">
        <ele>541.5</ele>
        <time>2022-06-21T08:21:46Z</time>
      </trkpt>
      <trkpt lat="43.40126" lon="2.6423">
        <ele>541.6</ele>
        <time>2022-06-21T08:21:47Z</time>
      </trkpt>
      <trkpt lat="43.40126" lon="2.64231">
        <ele>541.7</ele>
        <time>2022-06-21T08:21:48Z</time>
      </trkpt>
      <trkpt lat="43.40126" lon="2.64233">
        <ele>541.8</ele>
        <time>2022-06-21T08:21:49Z</time>
      </trkpt>
      <trkpt lat="43.40126" lon="2.64234">
        <ele>541.8</ele>
        <time>2022-06-21T08:21:50Z</time>
      </trkpt>
      <trkpt lat="43.40126" lon="2.64235">
        <ele>541.9</ele>
        <time>2022-06-21T08:21:51Z</time>
      </trkpt>
      <trkpt lat="43.40126" lon="2.64237">
        <ele>542</ele>
        <time>2022-06-21T08:21:52Z</time>
      </trkpt>
      <trkpt lat="43.40125" lon="2.64238">
        <ele>542.1</ele>
        <time>2022-06-21T08:21:53Z</time>
      </trkpt>
      <trkpt lat="43.40125" lon="2.64239">
        <ele>542.2</ele>
        <time>2022-06-21T08:21:54Z</time>
      </trkpt>
      <trkpt lat="43.40125" lon="2.64241">
        <ele>542.3</ele>
        <time>2022-06-21T08:21:55Z</time>
      </trkpt>
      <trkpt lat="43.40125" lon="2.64242">
        <ele>542.3</ele>
        <time>2022-06-21T08:21:56Z</time>
      </trkpt>
      <trkpt lat="43.40125" lon="2.64243">
        <ele>542.4</ele>
        <time>2022-06-21T08:21:57Z</time>
      </trkpt>
      <trkpt lat="43.40125" lon="2.64245">
        <ele>542.5</ele>
        <time>2022-06-21T08:21:58Z</time>
      </trkpt>
      <trkpt lat="43.40125" lon="2.64246">
        <ele>542.6</ele>
        <time>2022-06-21T08:21:59Z</time>
      </trkpt>
      <trkpt lat="43.40125" lon="2.64247">
        <ele>542.7</ele>
        <time>2022-06-21T08:22:00Z</time>
      </trkpt>
      <trkpt lat="43.40125" lon="2.64249">
        <ele>542.8</ele>
        <time>2022-06-21T08:22:01Z</time>
      </trkpt>
      <trkpt lat="43.40125" lon="2.64251">
        <ele>542.9</ele>
        <time>2022-06-21T08:22:02Z</time>
      </trkpt>
      <trkpt lat="43.40125" lon="2.64252">
        <ele>543</ele>
        <time>2022-06-21T08:22:03Z</time>
      </trkpt>
      <trkpt lat="43.40124" lon="2.64254">
        <ele>543.1</ele>
        <time>2022-06-21T08:22:04Z</time>
      </trkpt>
      <trkpt lat="43.40124" lon="2.64255">
        <ele>543.2</ele>
        <time>2022-06-21T08:22:05Z</time>
      </trkpt>
      <trkpt lat="43.40124" lon="2.64257">
        <ele>543.3</ele>
        <time>2022-06-21T08:22:06Z</time>
      </trkpt>
      <trkpt lat="43.40124" lon="2.64258">
        <ele>543.4</ele>
        <time>2022-06-21T08:22:07Z</time>
      </trkpt>
      <trkpt lat="43.40123" lon="2.6426">
        <ele>543.5</ele>
        <time>2022-06-21T08:22:08Z</time>
      </trkpt>
      <trkpt lat="43.40123" lon="2.64261">
        <ele>543.5</ele>
        <time>2022-06-21T08:22:09Z</time>
      </trkpt>
      <trkpt lat="43.40123" lon="2.64262">
        <ele>543.6</ele>
        <time>2022-06-21T08:22:10Z</time>
      </trkpt>
      <trkpt lat="43.40123" lon="2.64263">
        <ele>543.7</ele>
        <time>2022-06-21T08:22:11Z</time>
      </trkpt>
      <trkpt lat="43.40123" lon="2.64265">
        <ele>543.8</ele>
        <time>2022-06-21T08:22:12Z</time>
      </trkpt>
      <trkpt lat="43.40123" lon="2.64266">
        <ele>543.9</ele>
        <time>2022-06-21T08:22:13Z</time>
      </trkpt>
      <trkpt lat="43.40123" lon="2.64267">
        <ele>544</ele>
        <time>2022-06-21T08:22:14Z</time>
      </trkpt>
      <trkpt lat="43.40123" lon="2.64268">
        <ele>544.1</ele>
        <time>2022-06-21T08:22:15Z</time>
      </trkpt>
      <trkpt lat="43.40123" lon="2.6427">
        <ele>544.1</ele>
        <time>2022-06-21T08:22:16Z</time>
      </trkpt>
      <trkpt lat="43.40123" lon="2.64271">
        <ele>544.2</ele>
        <time>2022-06-21T08:22:17Z</time>
      </trkpt>
      <trkpt lat="43.40123" lon="2.64272">
        <ele>544.3</ele>
        <time>2022-06-21T08:22:18Z</time>
      </trkpt>
      <trkpt lat="43.40123" lon="2.64274">
        <ele>544.4</ele>
        <time>2022-06-21T08:22:19Z</time>
      </trkpt>
      <trkpt lat="43.40123" lon="2.64275">
        <ele>544.5</ele>
        <time>2022-06-21T08:22:20Z</time>
      </trkpt>
      <trkpt lat="43.40123" lon="2.64277">
        <ele>544.6</ele>
        <time>2022-06-21T08:22:21Z</time>
      </trkpt>
      <trkpt lat="43.40123" lon="2.64278">
        <ele>544.7</ele>
        <time>2022-06-21T08:22:22Z</time>
      </trkpt>
      <trkpt lat="43.40123" lon="2.64279">
        <ele>544.8</ele>
        <time>2022-06-21T08:22:23Z</time>
      </trkpt>
      <trkpt lat="43.40123" lon="2.6428">
        <ele>544.8</ele>
        <time>2022-06-21T08:22:24Z</time>
      </trkpt>
      <trkpt lat="43.40124" lon="2.64281">
        <ele>544.9</ele>
        <time>2022-06-21T08:22:25Z</time>
      </trkpt>
      <trkpt lat="43.40124" lon="2.64282">
        <ele>545</ele>
        <time>2022-06-21T08:22:26Z</time>
      </trkpt>
      <trkpt lat="43.40124" lon="2.64283">
        <ele>545</ele>
        <time>2022-06-21T08:22:27Z</time>
      </trkpt>
      <trkpt lat="43.40125" lon="2.64283">
        <ele>545.1</ele>
        <time>2022-06-21T08:22:28Z</time>
      </trkpt>
      <trkpt lat="43.40125" lon="2.64284">
        <ele>545.2</ele>
        <time>2022-06-21T08:22:29Z</time>
      </trkpt>
      <trkpt lat="43.40125" lon="2.64285">
        <ele>545.3</ele>
        <time>2022-06-21T08:22:30Z</time>
      </trkpt>
      <trkpt lat="43.40126" lon="2.64287">
        <ele>545.4</ele>
        <time>2022-06-21T08:22:31Z</time>
      </trkpt>
      <trkpt lat="43.40126" lon="2.64288">
        <ele>545.5</ele>
        <time>2022-06-21T08:22:32Z</time>
      </trkpt>
      <trkpt lat="43.40126" lon="2.64289">
        <ele>545.6</ele>
        <time>2022-06-21T08:22:33Z</time>
      </trkpt>
      <trkpt lat="43.40126" lon="2.64291">
        <ele>545.7</ele>
        <time>2022-06-21T08:22:34Z</time>
      </trkpt>
      <trkpt lat="43.40127" lon="2.64292">
        <ele>545.8</ele>
        <time>2022-06-21T08:22:35Z</time>
      </trkpt>
      <trkpt lat="43.40127" lon="2.64293">
        <ele>545.9</ele>
        <time>2022-06-21T08:22:36Z</time>
      </trkpt>
      <trkpt lat="43.40127" lon="2.64295">
        <ele>546</ele>
        <time>2022-06-21T08:22:37Z</time>
      </trkpt>
      <trkpt lat="43.40127" lon="2.64297">
        <ele>546.1</ele>
        <time>2022-06-21T08:22:38Z</time>
      </trkpt>
      <trkpt lat="43.40128" lon="2.64298">
        <ele>546.3</ele>
        <time>2022-06-21T08:22:39Z</time>
      </trkpt>
      <trkpt lat="43.40128" lon="2.643">
        <ele>546.4</ele>
        <time>2022-06-21T08:22:40Z</time>
      </trkpt>
      <trkpt lat="43.40128" lon="2.64301">
        <ele>546.5</ele>
        <time>2022-06-21T08:22:41Z</time>
      </trkpt>
      <trkpt lat="43.40128" lon="2.64302">
        <ele>546.6</ele>
        <time>2022-06-21T08:22:42Z</time>
      </trkpt>
      <trkpt lat="43.40128" lon="2.64304">
        <ele>546.7</ele>
        <time>2022-06-21T08:22:43Z</time>
      </trkpt>
      <trkpt lat="43.40128" lon="2.64305">
        <ele>546.8</ele>
        <time>2022-06-21T08:22:44Z</time>
      </trkpt>
      <trkpt lat="43.40129" lon="2.64307">
        <ele>547</ele>
        <time>2022-06-21T08:22:45Z</time>
      </trkpt>
      <trkpt lat="43.4013" lon="2.64308">
        <ele>547.1</ele>
        <time>2022-06-21T08:22:46Z</time>
      </trkpt>
      <trkpt lat="43.40131" lon="2.64309">
        <ele>547.2</ele>
        <time>2022-06-21T08:22:47Z</time>
      </trkpt>
      <trkpt lat="43.40132" lon="2.6431">
        <ele>547.3</ele>
        <time>2022-06-21T08:22:48Z</time>
      </trkpt>
      <trkpt lat="43.40132" lon="2.64311">
        <ele>547.4</ele>
        <time>2022-06-21T08:22:49Z</time>
      </trkpt>
      <trkpt lat="43.40133" lon="2.64313">
        <ele>547.6</ele>
        <time>2022-06-21T08:22:50Z</time>
      </trkpt>
      <trkpt lat="43.40133" lon="2.64314">
        <ele>547.7</ele>
        <time>2022-06-21T08:22:51Z</time>
      </trkpt>
      <trkpt lat="43.40133" lon="2.64316">
        <ele>547.8</ele>
        <time>2022-06-21T08:22:52Z</time>
      </trkpt>
      <trkpt lat="43.40133" lon="2.64317">
        <ele>547.9</ele>
        <time>2022-06-21T08:22:53Z</time>
      </trkpt>
      <trkpt lat="43.40134" lon="2.64318">
        <ele>548</ele>
        <time>2022-06-21T08:22:54Z</time>
      </trkpt>
      <trkpt lat="43.40135" lon="2.6432">
        <ele>548.2</ele>
        <time>2022-06-21T08:22:55Z</time>
      </trkpt>
      <trkpt lat="43.40135" lon="2.64321">
        <ele>548.3</ele>
        <time>2022-06-21T08:22:56Z</time>
      </trkpt>
      <trkpt lat="43.40136" lon="2.64322">
        <ele>548.4</ele>
        <time>2022-06-21T08:22:57Z</time>
      </trkpt>
      <trkpt lat="43.40136" lon="2.64324">
        <ele>548.5</ele>
        <time>2022-06-21T08:22:58Z</time>
      </trkpt>
      <trkpt lat="43.40137" lon="2.64325">
        <ele>548.6</ele>
        <time>2022-06-21T08:22:59Z</time>
      </trkpt>
      <trkpt lat="43.40137" lon="2.64327">
        <ele>548.8</ele>
        <time>2022-06-21T08:23:00Z</time>
      </trkpt>
      <trkpt lat="43.40137" lon="2.64328">
        <ele>548.9</ele>
        <time>2022-06-21T08:23:01Z</time>
      </trkpt>
      <trkpt lat="43.40138" lon="2.64329">
        <ele>549</ele>
        <time>2022-06-21T08:23:02Z</time>
      </trkpt>
      <trkpt lat="43.40138" lon="2.64331">
        <ele>549.1</ele>
        <time>2022-06-21T08:23:03Z</time>
      </trkpt>
      <trkpt lat="43.40138" lon="2.64332">
        <ele>549.2</ele>
        <time>2022-06-21T08:23:04Z</time>
      </trkpt>
      <trkpt lat="43.40138" lon="2.64333">
        <ele>549.3</ele>
        <time>2022-06-21T08:23:05Z</time>
      </trkpt>
      <trkpt lat="43.40139" lon="2.64335">
        <ele>549.4</ele>
        <time>2022-06-21T08:23:06Z</time>
      </trkpt>
      <trkpt lat="43.40138" lon="2.64336">
        <ele>549.5</ele>
        <time>2022-06-21T08:23:07Z</time>
      </trkpt>
      <trkpt lat="43.40138" lon="2.64337">
        <ele>549.6</ele>
        <time>2022-06-21T08:23:08Z</time>
      </trkpt>
      <trkpt lat="43.40138" lon="2.64339">
        <ele>549.7</ele>
        <time>2022-06-21T08:23:09Z</time>
      </trkpt>
      <trkpt lat="43.40137" lon="2.6434">
        <ele>549.8</ele>
        <time>2022-06-21T08:23:10Z</time>
      </trkpt>
      <trkpt lat="43.40137" lon="2.64341">
        <ele>549.9</ele>
        <time>2022-06-21T08:23:11Z</time>
      </trkpt>
      <trkpt lat="43.40136" lon="2.64343">
        <ele>550</ele>
        <time>2022-06-21T08:23:12Z</time>
      </trkpt>
      <trkpt lat="43.40136" lon="2.64344">
        <ele>550.2</ele>
        <time>2022-06-21T08:23:13Z</time>
      </trkpt>
      <trkpt lat="43.40135" lon="2.64345">
        <ele>550.3</ele>
        <time>2022-06-21T08:23:14Z</time>
      </trkpt>
      <trkpt lat="43.40135" lon="2.64346">
        <ele>550.3</ele>
        <time>2022-06-21T08:23:15Z</time>
      </trkpt>
      <trkpt lat="43.40135" lon="2.64348">
        <ele>550.4</ele>
        <time>2022-06-21T08:23:16Z</time>
      </trkpt>
      <trkpt lat="43.40135" lon="2.64349">
        <ele>550.5</ele>
        <time>2022-06-21T08:23:17Z</time>
      </trkpt>
      <trkpt lat="43.40135" lon="2.6435">
        <ele>550.6</ele>
        <time>2022-06-21T08:23:18Z</time>
      </trkpt>
      <trkpt lat="43.40134" lon="2.64352">
        <ele>550.7</ele>
        <time>2022-06-21T08:23:19Z</time>
      </trkpt>
      <trkpt lat="43.40134" lon="2.64353">
        <ele>550.8</ele>
        <time>2022-06-21T08:23:20Z</time>
      </trkpt>
      <trkpt lat="43.40133" lon="2.64355">
        <ele>550.9</ele>
        <time>2022-06-21T08:23:21Z</time>
      </trkpt>
      <trkpt lat="43.40133" lon="2.64356">
        <ele>551</ele>
        <time>2022-06-21T08:23:22Z</time>
      </trkpt>
      <trkpt lat="43.40133" lon="2.64358">
        <ele>551.1</ele>
        <time>2022-06-21T08:23:23Z</time>
      </trkpt>
      <trkpt lat="43.40132" lon="2.64359">
        <ele>551.2</ele>
        <time>2022-06-21T08:23:24Z</time>
      </trkpt>
      <trkpt lat="43.40132" lon="2.6436">
        <ele>551.3</ele>
        <time>2022-06-21T08:23:25Z</time>
      </trkpt>
      <trkpt lat="43.40131" lon="2.64361">
        <ele>551.4</ele>
        <time>2022-06-21T08:23:26Z</time>
      </trkpt>
      <trkpt lat="43.40131" lon="2.64362">
        <ele>551.5</ele>
        <time>2022-06-21T08:23:27Z</time>
      </trkpt>
      <trkpt lat="43.40131" lon="2.64364">
        <ele>551.6</ele>
        <time>2022-06-21T08:23:28Z</time>
      </trkpt>
      <trkpt lat="43.40131" lon="2.64365">
        <ele>551.6</ele>
        <time>2022-06-21T08:23:29Z</time>
      </trkpt>
      <trkpt lat="43.40131" lon="2.64366">
        <ele>551.7</ele>
        <time>2022-06-21T08:23:30Z</time>
      </trkpt>
      <trkpt lat="43.40131" lon="2.64368">
        <ele>551.8</ele>
        <time>2022-06-21T08:23:31Z</time>
      </trkpt>
      <trkpt lat="43.40131" lon="2.64369">
        <ele>551.9</ele>
        <time>2022-06-21T08:23:32Z</time>
      </trkpt>
      <trkpt lat="43.40131" lon="2.6437">
        <ele>552</ele>
        <time>2022-06-21T08:23:33Z</time>
      </trkpt>
      <trkpt lat="43.40131" lon="2.64371">
        <ele>552.1</ele>
        <time>2022-06-21T08:23:34Z</time>
      </trkpt>
      <trkpt lat="43.40131" lon="2.64373">
        <ele>552.1</ele>
        <time>2022-06-21T08:23:35Z</time>
      </trkpt>
      <trkpt lat="43.40131" lon="2.64374">
        <ele>552.2</ele>
        <time>2022-06-21T08:23:36Z</time>
      </trkpt>
      <trkpt lat="43.40131" lon="2.64375">
        <ele>552.3</ele>
        <time>2022-06-21T08:23:37Z</time>
      </trkpt>
      <trkpt lat="43.40131" lon="2.64376">
        <ele>552.3</ele>
        <time>2022-06-21T08:23:38Z</time>
      </trkpt>
      <trkpt lat="43.40131" lon="2.64377">
        <ele>552.4</ele>
        <time>2022-06-21T08:23:39Z</time>
      </trkpt>
      <trkpt lat="43.40131" lon="2.64378">
        <ele>552.5</ele>
        <time>2022-06-21T08:23:40Z</time>
      </trkpt>
      <trkpt lat="43.40131" lon="2.64379">
        <ele>552.6</ele>
        <time>2022-06-21T08:23:41Z</time>
      </trkpt>
      <trkpt lat="43.40131" lon="2.6438">
        <ele>552.7</ele>
        <time>2022-06-21T08:23:42Z</time>
      </trkpt>
      <trkpt lat="43.40131" lon="2.64381">
        <ele>552.7</ele>
        <time>2022-06-21T08:23:43Z</time>
      </trkpt>
      <trkpt lat="43.40132" lon="2.64384">
        <ele>552.9</ele>
        <time>2022-06-21T08:23:44Z</time>
      </trkpt>
      <trkpt lat="43.40132" lon="2.64384">
        <ele>553</ele>
        <time>2022-06-21T08:23:45Z</time>
      </trkpt>
      <trkpt lat="43.40132" lon="2.64385">
        <ele>553</ele>
        <time>2022-06-21T08:23:46Z</time>
      </trkpt>
      <trkpt lat="43.40132" lon="2.64386">
        <ele>553.1</ele>
        <time>2022-06-21T08:23:47Z</time>
      </trkpt>
      <trkpt lat="43.40132" lon="2.64388">
        <ele>553.2</ele>
        <time>2022-06-21T08:23:48Z</time>
      </trkpt>
      <trkpt lat="43.40132" lon="2.6439">
        <ele>553.3</ele>
        <time>2022-06-21T08:23:49Z</time>
      </trkpt>
      <trkpt lat="43.40132" lon="2.64391">
        <ele>553.4</ele>
        <time>2022-06-21T08:23:50Z</time>
      </trkpt>
      <trkpt lat="43.40132" lon="2.64394">
        <ele>553.6</ele>
        <time>2022-06-21T08:23:51Z</time>
      </trkpt>
      <trkpt lat="43.40132" lon="2.64395">
        <ele>553.7</ele>
        <time>2022-06-21T08:23:52Z</time>
      </trkpt>
      <trkpt lat="43.40132" lon="2.64396">
        <ele>553.8</ele>
        <time>2022-06-21T08:23:53Z</time>
      </trkpt>
      <trkpt lat="43.40131" lon="2.64399">
        <ele>553.9</ele>
        <time>2022-06-21T08:23:54Z</time>
      </trkpt>
      <trkpt lat="43.40131" lon="2.644">
        <ele>554</ele>
        <time>2022-06-21T08:23:55Z</time>
      </trkpt>
      <trkpt lat="43.4013" lon="2.64401">
        <ele>554.1</ele>
        <time>2022-06-21T08:23:56Z</time>
      </trkpt>
      <trkpt lat="43.4013" lon="2.64404">
        <ele>554.3</ele>
        <time>2022-06-21T08:23:57Z</time>
      </trkpt>
      <trkpt lat="43.4013" lon="2.64405">
        <ele>554.3</ele>
        <time>2022-06-21T08:23:58Z</time>
      </trkpt>
      <trkpt lat="43.4013" lon="2.64406">
        <ele>554.4</ele>
        <time>2022-06-21T08:23:59Z</time>
      </trkpt>
      <trkpt lat="43.4013" lon="2.64407">
        <ele>554.5</ele>
        <time>2022-06-21T08:24:00Z</time>
      </trkpt>
      <trkpt lat="43.4013" lon="2.64409">
        <ele>554.6</ele>
        <time>2022-06-21T08:24:01Z</time>
      </trkpt>
      <trkpt lat="43.4013" lon="2.6441">
        <ele>554.6</ele>
        <time>2022-06-21T08:24:02Z</time>
      </trkpt>
      <trkpt lat="43.4013" lon="2.64411">
        <ele>554.7</ele>
        <time>2022-06-21T08:24:03Z</time>
      </trkpt>
      <trkpt lat="43.4013" lon="2.64413">
        <ele>554.8</ele>
        <time>2022-06-21T08:24:04Z</time>
      </trkpt>
      <trkpt lat="43.4013" lon="2.64414">
        <ele>554.8</ele>
        <time>2022-06-21T08:24:05Z</time>
      </trkpt>
      <trkpt lat="43.4013" lon="2.64415">
        <ele>554.9</ele>
        <time>2022-06-21T08:24:06Z</time>
      </trkpt>
      <trkpt lat="43.4013" lon="2.64417">
        <ele>554.9</ele>
        <time>2022-06-21T08:24:07Z</time>
      </trkpt>
      <trkpt lat="43.4013" lon="2.64418">
        <ele>555</ele>
        <time>2022-06-21T08:24:08Z</time>
      </trkpt>
      <trkpt lat="43.4013" lon="2.64419">
        <ele>555</ele>
        <time>2022-06-21T08:24:09Z</time>
      </trkpt>
      <trkpt lat="43.40129" lon="2.6442">
        <ele>555.1</ele>
        <time>2022-06-21T08:24:10Z</time>
      </trkpt>
      <trkpt lat="43.40129" lon="2.64422">
        <ele>555.1</ele>
        <time>2022-06-21T08:24:11Z</time>
      </trkpt>
      <trkpt lat="43.40129" lon="2.64423">
        <ele>555.2</ele>
        <time>2022-06-21T08:24:12Z</time>
      </trkpt>
      <trkpt lat="43.40129" lon="2.64425">
        <ele>555.2</ele>
        <time>2022-06-21T08:24:13Z</time>
      </trkpt>
      <trkpt lat="43.40129" lon="2.64426">
        <ele>555.3</ele>
        <time>2022-06-21T08:24:14Z</time>
      </trkpt>
      <trkpt lat="43.40129" lon="2.64427">
        <ele>555.3</ele>
        <time>2022-06-21T08:24:15Z</time>
      </trkpt>
      <trkpt lat="43.40129" lon="2.64429">
        <ele>555.3</ele>
        <time>2022-06-21T08:24:16Z</time>
      </trkpt>
      <trkpt lat="43.40128" lon="2.6443">
        <ele>555.3</ele>
        <time>2022-06-21T08:24:17Z</time>
      </trkpt>
      <trkpt lat="43.40128" lon="2.64431">
        <ele>555.4</ele>
        <time>2022-06-21T08:24:18Z</time>
      </trkpt>
      <trkpt lat="43.40128" lon="2.64432">
        <ele>555.4</ele>
        <time>2022-06-21T08:24:19Z</time>
      </trkpt>
      <trkpt lat="43.40128" lon="2.64434">
        <ele>555.4</ele>
        <time>2022-06-21T08:24:20Z</time>
      </trkpt>
      <trkpt lat="43.40128" lon="2.64435">
        <ele>555.4</ele>
        <time>2022-06-21T08:24:21Z</time>
      </trkpt>
      <trkpt lat="43.40127" lon="2.64436">
        <ele>555.4</ele>
        <time>2022-06-21T08:24:22Z</time>
      </trkpt>
      <trkpt lat="43.40127" lon="2.64438">
        <ele>555.4</ele>
        <time>2022-06-21T08:24:23Z</time>
      </trkpt>
      <trkpt lat="43.40127" lon="2.64439">
        <ele>555.4</ele>
        <time>2022-06-21T08:24:24Z</time>
      </trkpt>
      <trkpt lat="43.40127" lon="2.64441">
        <ele>555.4</ele>
        <time>2022-06-21T08:24:25Z</time>
      </trkpt>
      <trkpt lat="43.40127" lon="2.64442">
        <ele>555.4</ele>
        <time>2022-06-21T08:24:26Z</time>
      </trkpt>
      <trkpt lat="43.40127" lon="2.64444">
        <ele>555.4</ele>
        <time>2022-06-21T08:24:27Z</time>
      </trkpt>
      <trkpt lat="43.40127" lon="2.64445">
        <ele>555.4</ele>
        <time>2022-06-21T08:24:28Z</time>
      </trkpt>
      <trkpt lat="43.40127" lon="2.64447">
        <ele>555.4</ele>
        <time>2022-06-21T08:24:29Z</time>
      </trkpt>
      <trkpt lat="43.40127" lon="2.64448">
        <ele>555.4</ele>
        <time>2022-06-21T08:24:30Z</time>
      </trkpt>
      <trkpt lat="43.40127" lon="2.64449">
        <ele>555.4</ele>
        <time>2022-06-21T08:24:31Z</time>
      </trkpt>
      <trkpt lat="43.40127" lon="2.6445">
        <ele>555.3</ele>
        <time>2022-06-21T08:24:32Z</time>
      </trkpt>
      <trkpt lat="43.40127" lon="2.64451">
        <ele>555.3</ele>
        <time>2022-06-21T08:24:33Z</time>
      </trkpt>
      <trkpt lat="43.40126" lon="2.64454">
        <ele>555.2</ele>
        <time>2022-06-21T08:24:34Z</time>
      </trkpt>
      <trkpt lat="43.40126" lon="2.64455">
        <ele>555.2</ele>
        <time>2022-06-21T08:24:35Z</time>
      </trkpt>
      <trkpt lat="43.40126" lon="2.64456">
        <ele>555.2</ele>
        <time>2022-06-21T08:24:36Z</time>
      </trkpt>
      <trkpt lat="43.40125" lon="2.64457">
        <ele>555.2</ele>
        <time>2022-06-21T08:24:37Z</time>
      </trkpt>
      <trkpt lat="43.40126" lon="2.64459">
        <ele>555.1</ele>
        <time>2022-06-21T08:24:38Z</time>
      </trkpt>
      <trkpt lat="43.40126" lon="2.64461">
        <ele>555.1</ele>
        <time>2022-06-21T08:24:39Z</time>
      </trkpt>
      <trkpt lat="43.40126" lon="2.64462">
        <ele>555</ele>
        <time>2022-06-21T08:24:40Z</time>
      </trkpt>
      <trkpt lat="43.40126" lon="2.64463">
        <ele>555</ele>
        <time>2022-06-21T08:24:41Z</time>
      </trkpt>
      <trkpt lat="43.40126" lon="2.64465">
        <ele>554.9</ele>
        <time>2022-06-21T08:24:42Z</time>
      </trkpt>
      <trkpt lat="43.40126" lon="2.64466">
        <ele>554.9</ele>
        <time>2022-06-21T08:24:43Z</time>
      </trkpt>
      <trkpt lat="43.40126" lon="2.64467">
        <ele>554.8</ele>
        <time>2022-06-21T08:24:44Z</time>
      </trkpt>
      <trkpt lat="43.40126" lon="2.64468">
        <ele>554.8</ele>
        <time>2022-06-21T08:24:45Z</time>
      </trkpt>
      <trkpt lat="43.40126" lon="2.64469">
        <ele>554.8</ele>
        <time>2022-06-21T08:24:46Z</time>
      </trkpt>
      <trkpt lat="43.40126" lon="2.6447">
        <ele>554.7</ele>
        <time>2022-06-21T08:24:47Z</time>
      </trkpt>
      <trkpt lat="43.40126" lon="2.64471">
        <ele>554.7</ele>
        <time>2022-06-21T08:24:48Z</time>
      </trkpt>
      <trkpt lat="43.40126" lon="2.64472">
        <ele>554.6</ele>
        <time>2022-06-21T08:24:49Z</time>
      </trkpt>
      <trkpt lat="43.40126" lon="2.64473">
        <ele>554.6</ele>
        <time>2022-06-21T08:24:50Z</time>
      </trkpt>
      <trkpt lat="43.40126" lon="2.64474">
        <ele>554.6</ele>
        <time>2022-06-21T08:24:51Z</time>
      </trkpt>
      <trkpt lat="43.40126" lon="2.64475">
        <ele>554.5</ele>
        <time>2022-06-21T08:24:52Z</time>
      </trkpt>
      <trkpt lat="43.40126" lon="2.64476">
        <ele>554.5</ele>
        <time>2022-06-21T08:24:53Z</time>
      </trkpt>
      <trkpt lat="43.40125" lon="2.64477">
        <ele>554.4</ele>
        <time>2022-06-21T08:24:54Z</time>
      </trkpt>
      <trkpt lat="43.40125" lon="2.64478">
        <ele>554.4</ele>
        <time>2022-06-21T08:24:55Z</time>
      </trkpt>
      <trkpt lat="43.40125" lon="2.6448">
        <ele>554.3</ele>
        <time>2022-06-21T08:24:56Z</time>
      </trkpt>
      <trkpt lat="43.40125" lon="2.64481">
        <ele>554.3</ele>
        <time>2022-06-21T08:24:57Z</time>
      </trkpt>
      <trkpt lat="43.40126" lon="2.64482">
        <ele>554.2</ele>
        <time>2022-06-21T08:24:58Z</time>
      </trkpt>
      <trkpt lat="43.40126" lon="2.64484">
        <ele>554.1</ele>
        <time>2022-06-21T08:24:59Z</time>
      </trkpt>
      <trkpt lat="43.40126" lon="2.64485">
        <ele>554.1</ele>
        <time>2022-06-21T08:25:00Z</time>
      </trkpt>
      <trkpt lat="43.40126" lon="2.64486">
        <ele>554</ele>
        <time>2022-06-21T08:25:01Z</time>
      </trkpt>
      <trkpt lat="43.40126" lon="2.64488">
        <ele>554</ele>
        <time>2022-06-21T08:25:02Z</time>
      </trkpt>
      <trkpt lat="43.40127" lon="2.64489">
        <ele>553.9</ele>
        <time>2022-06-21T08:25:03Z</time>
      </trkpt>
      <trkpt lat="43.40127" lon="2.6449">
        <ele>553.8</ele>
        <time>2022-06-21T08:25:04Z</time>
      </trkpt>
      <trkpt lat="43.40128" lon="2.64491">
        <ele>553.8</ele>
        <time>2022-06-21T08:25:05Z</time>
      </trkpt>
      <trkpt lat="43.40128" lon="2.64492">
        <ele>553.7</ele>
        <time>2022-06-21T08:25:06Z</time>
      </trkpt>
      <trkpt lat="43.40129" lon="2.64493">
        <ele>553.6</ele>
        <time>2022-06-21T08:25:07Z</time>
      </trkpt>
      <trkpt lat="43.40129" lon="2.64494">
        <ele>553.5</ele>
        <time>2022-06-21T08:25:08Z</time>
      </trkpt>
      <trkpt lat="43.4013" lon="2.64495">
        <ele>553.5</ele>
        <time>2022-06-21T08:25:09Z</time>
      </trkpt>
      <trkpt lat="43.4013" lon="2.64496">
        <ele>553.4</ele>
        <time>2022-06-21T08:25:10Z</time>
      </trkpt>
      <trkpt lat="43.40131" lon="2.64498">
        <ele>553.3</ele>
        <time>2022-06-21T08:25:11Z</time>
      </trkpt>
      <trkpt lat="43.40131" lon="2.64499">
        <ele>553.2</ele>
        <time>2022-06-21T08:25:12Z</time>
      </trkpt>
      <trkpt lat="43.40132" lon="2.645">
        <ele>553.2</ele>
        <time>2022-06-21T08:25:13Z</time>
      </trkpt>
      <trkpt lat="43.40133" lon="2.64502">
        <ele>553.1</ele>
        <time>2022-06-21T08:25:14Z</time>
      </trkpt>
      <trkpt lat="43.40134" lon="2.64503">
        <ele>553</ele>
        <time>2022-06-21T08:25:15Z</time>
      </trkpt>
      <trkpt lat="43.40135" lon="2.64504">
        <ele>552.9</ele>
        <time>2022-06-21T08:25:16Z</time>
      </trkpt>
      <trkpt lat="43.40135" lon="2.64505">
        <ele>552.9</ele>
        <time>2022-06-21T08:25:17Z</time>
      </trkpt>
      <trkpt lat="43.40136" lon="2.64506">
        <ele>552.8</ele>
        <time>2022-06-21T08:25:18Z</time>
      </trkpt>
      <trkpt lat="43.40136" lon="2.64507">
        <ele>552.8</ele>
        <time>2022-06-21T08:25:19Z</time>
      </trkpt>
      <trkpt lat="43.40136" lon="2.64507">
        <ele>552.8</ele>
        <time>2022-06-21T08:25:20Z</time>
      </trkpt>
      <trkpt lat="43.40136" lon="2.64507">
        <ele>552.8</ele>
        <time>2022-06-21T08:25:21Z</time>
      </trkpt>
      <trkpt lat="43.40136" lon="2.64507">
        <ele>552.8</ele>
        <time>2022-06-21T08:25:22Z</time>
      </trkpt>
      <trkpt lat="43.40136" lon="2.64507">
        <ele>552.8</ele>
        <time>2022-06-21T08:25:23Z</time>
      </trkpt>
      <trkpt lat="43.40137" lon="2.64507">
        <ele>552.7</ele>
        <time>2022-06-21T08:25:24Z</time>
      </trkpt>
      <trkpt lat="43.40138" lon="2.64507">
        <ele>552.7</ele>
        <time>2022-06-21T08:25:25Z</time>
      </trkpt>
      <trkpt lat="43.40139" lon="2.64508">
        <ele>552.6</ele>
        <time>2022-06-21T08:25:26Z</time>
      </trkpt>
      <trkpt lat="43.40139" lon="2.64509">
        <ele>552.6</ele>
        <time>2022-06-21T08:25:27Z</time>
      </trkpt>
      <trkpt lat="43.4014" lon="2.6451">
        <ele>552.5</ele>
        <time>2022-06-21T08:25:28Z</time>
      </trkpt>
      <trkpt lat="43.40141" lon="2.6451">
        <ele>552.4</ele>
        <time>2022-06-21T08:25:29Z</time>
      </trkpt>
      <trkpt lat="43.40142" lon="2.64511">
        <ele>552.4</ele>
        <time>2022-06-21T08:25:30Z</time>
      </trkpt>
      <trkpt lat="43.40142" lon="2.64511">
        <ele>552.4</ele>
        <time>2022-06-21T08:25:31Z</time>
      </trkpt>
      <trkpt lat="43.40143" lon="2.64511">
        <ele>552.3</ele>
        <time>2022-06-21T08:25:32Z</time>
      </trkpt>
      <trkpt lat="43.40143" lon="2.64512">
        <ele>552.3</ele>
        <time>2022-06-21T08:25:33Z</time>
      </trkpt>
      <trkpt lat="43.40144" lon="2.64512">
        <ele>552.2</ele>
        <time>2022-06-21T08:25:34Z</time>
      </trkpt>
      <trkpt lat="43.40145" lon="2.64513">
        <ele>552.2</ele>
        <time>2022-06-21T08:25:35Z</time>
      </trkpt>
      <trkpt lat="43.40146" lon="2.64514">
        <ele>552.1</ele>
        <time>2022-06-21T08:25:36Z</time>
      </trkpt>
      <trkpt lat="43.40147" lon="2.64514">
        <ele>552</ele>
        <time>2022-06-21T08:25:37Z</time>
      </trkpt>
      <trkpt lat="43.40148" lon="2.64515">
        <ele>552</ele>
        <time>2022-06-21T08:25:38Z</time>
      </trkpt>
      <trkpt lat="43.40149" lon="2.64515">
        <ele>551.9</ele>
        <time>2022-06-21T08:25:39Z</time>
      </trkpt>
      <trkpt lat="43.4015" lon="2.64516">
        <ele>551.8</ele>
        <time>2022-06-21T08:25:40Z</time>
      </trkpt>
      <trkpt lat="43.40151" lon="2.64516">
        <ele>551.8</ele>
        <time>2022-06-21T08:25:41Z</time>
      </trkpt>
      <trkpt lat="43.40152" lon="2.64517">
        <ele>551.7</ele>
        <time>2022-06-21T08:25:42Z</time>
      </trkpt>
      <trkpt lat="43.40153" lon="2.64518">
        <ele>551.7</ele>
        <time>2022-06-21T08:25:43Z</time>
      </trkpt>
      <trkpt lat="43.40153" lon="2.64518">
        <ele>551.6</ele>
        <time>2022-06-21T08:25:44Z</time>
      </trkpt>
      <trkpt lat="43.40155" lon="2.64519">
        <ele>551.5</ele>
        <time>2022-06-21T08:25:45Z</time>
      </trkpt>
      <trkpt lat="43.40156" lon="2.64519">
        <ele>551.5</ele>
        <time>2022-06-21T08:25:46Z</time>
      </trkpt>
      <trkpt lat="43.40157" lon="2.6452">
        <ele>551.4</ele>
        <time>2022-06-21T08:25:47Z</time>
      </trkpt>
      <trkpt lat="43.40158" lon="2.6452">
        <ele>551.4</ele>
        <time>2022-06-21T08:25:48Z</time>
      </trkpt>
      <trkpt lat="43.40158" lon="2.64521">
        <ele>551.3</ele>
        <time>2022-06-21T08:25:49Z</time>
      </trkpt>
      <trkpt lat="43.40159" lon="2.64522">
        <ele>551.3</ele>
        <time>2022-06-21T08:25:50Z</time>
      </trkpt>
      <trkpt lat="43.4016" lon="2.64523">
        <ele>551.2</ele>
        <time>2022-06-21T08:25:51Z</time>
      </trkpt>
      <trkpt lat="43.40161" lon="2.64523">
        <ele>551.1</ele>
        <time>2022-06-21T08:25:52Z</time>
      </trkpt>
      <trkpt lat="43.40162" lon="2.64524">
        <ele>551.1</ele>
        <time>2022-06-21T08:25:53Z</time>
      </trkpt>
      <trkpt lat="43.40163" lon="2.64525">
        <ele>551</ele>
        <time>2022-06-21T08:25:54Z</time>
      </trkpt>
      <trkpt lat="43.40164" lon="2.64526">
        <ele>551</ele>
        <time>2022-06-21T08:25:55Z</time>
      </trkpt>
      <trkpt lat="43.40165" lon="2.64526">
        <ele>550.9</ele>
        <time>2022-06-21T08:25:56Z</time>
      </trkpt>
      <trkpt lat="43.40165" lon="2.64527">
        <ele>550.9</ele>
        <time>2022-06-21T08:25:57Z</time>
      </trkpt>
      <trkpt lat="43.40166" lon="2.64528">
        <ele>550.8</ele>
        <time>2022-06-21T08:25:58Z</time>
      </trkpt>
      <trkpt lat="43.40166" lon="2.64529">
        <ele>550.8</ele>
        <time>2022-06-21T08:25:59Z</time>
      </trkpt>
      <trkpt lat="43.40167" lon="2.6453">
        <ele>551</ele>
        <time>2022-06-21T08:26:00Z</time>
      </trkpt>
      <trkpt lat="43.40167" lon="2.64532">
        <ele>551.1</ele>
        <time>2022-06-21T08:26:01Z</time>
      </trkpt>
      <trkpt lat="43.40167" lon="2.64533">
        <ele>551.2</ele>
        <time>2022-06-21T08:26:02Z</time>
      </trkpt>
      <trkpt lat="43.40168" lon="2.64535">
        <ele>551.3</ele>
        <time>2022-06-21T08:26:03Z</time>
      </trkpt>
      <trkpt lat="43.40168" lon="2.64536">
        <ele>551.4</ele>
        <time>2022-06-21T08:26:04Z</time>
      </trkpt>
      <trkpt lat="43.40168" lon="2.64538">
        <ele>551.5</ele>
        <time>2022-06-21T08:26:05Z</time>
      </trkpt>
      <trkpt lat="43.40169" lon="2.64539">
        <ele>551.7</ele>
        <time>2022-06-21T08:26:06Z</time>
      </trkpt>
      <trkpt lat="43.40169" lon="2.6454">
        <ele>551.8</ele>
        <time>2022-06-21T08:26:07Z</time>
      </trkpt>
      <trkpt lat="43.4017" lon="2.64541">
        <ele>551.9</ele>
        <time>2022-06-21T08:26:08Z</time>
      </trkpt>
      <trkpt lat="43.4017" lon="2.64543">
        <ele>552</ele>
        <time>2022-06-21T08:26:09Z</time>
      </trkpt>
      <trkpt lat="43.40171" lon="2.64544">
        <ele>552.1</ele>
        <time>2022-06-21T08:26:10Z</time>
      </trkpt>
      <trkpt lat="43.40171" lon="2.64545">
        <ele>552.2</ele>
        <time>2022-06-21T08:26:11Z</time>
      </trkpt>
      <trkpt lat="43.40172" lon="2.64546">
        <ele>552.3</ele>
        <time>2022-06-21T08:26:12Z</time>
      </trkpt>
      <trkpt lat="43.40172" lon="2.64545">
        <ele>552.3</ele>
        <time>2022-06-21T08:26:13Z</time>
      </trkpt>
      <trkpt lat="43.40172" lon="2.64546">
        <ele>552.4</ele>
        <time>2022-06-21T08:26:14Z</time>
      </trkpt>
      <trkpt lat="43.40173" lon="2.64546">
        <ele>552.4</ele>
        <time>2022-06-21T08:26:15Z</time>
      </trkpt>
      <trkpt lat="43.40173" lon="2.64546">
        <ele>552.5</ele>
        <time>2022-06-21T08:26:16Z</time>
      </trkpt>
      <trkpt lat="43.40173" lon="2.64546">
        <ele>552.5</ele>
        <time>2022-06-21T08:26:17Z</time>
      </trkpt>
      <trkpt lat="43.40173" lon="2.64546">
        <ele>552.5</ele>
        <time>2022-06-21T08:26:18Z</time>
      </trkpt>
      <trkpt lat="43.40173" lon="2.64547">
        <ele>552.5</ele>
        <time>2022-06-21T08:26:19Z</time>
      </trkpt>
      <trkpt lat="43.40173" lon="2.64547">
        <ele>552.5</ele>
        <time>2022-06-21T08:26:20Z</time>
      </trkpt>
      <trkpt lat="43.40173" lon="2.64547">
        <ele>552.6</ele>
        <time>2022-06-21T08:26:21Z</time>
      </trkpt>
      <trkpt lat="43.40173" lon="2.64547">
        <ele>552.6</ele>
        <time>2022-06-21T08:26:22Z</time>
      </trkpt>
      <trkpt lat="43.40173" lon="2.64547">
        <ele>552.6</ele>
        <time>2022-06-21T08:26:23Z</time>
      </trkpt>
      <trkpt lat="43.40173" lon="2.64547">
        <ele>552.6</ele>
        <time>2022-06-21T08:26:24Z</time>
      </trkpt>
      <trkpt lat="43.40173" lon="2.64547">
        <ele>552.6</ele>
        <time>2022-06-21T08:26:25Z</time>
      </trkpt>
      <trkpt lat="43.40173" lon="2.64547">
        <ele>552.6</ele>
        <time>2022-06-21T08:26:26Z</time>
      </trkpt>
      <trkpt lat="43.40173" lon="2.64547">
        <ele>552.6</ele>
        <time>2022-06-21T08:26:27Z</time>
      </trkpt>
      <trkpt lat="43.40173" lon="2.64547">
        <ele>552.6</ele>
        <time>2022-06-21T08:26:28Z</time>
      </trkpt>
      <trkpt lat="43.40173" lon="2.64547">
        <ele>552.6</ele>
        <time>2022-06-21T08:26:29Z</time>
      </trkpt>
      <trkpt lat="43.40173" lon="2.64547">
        <ele>552.6</ele>
        <time>2022-06-21T08:26:30Z</time>
      </trkpt>
      <trkpt lat="43.40173" lon="2.64547">
        <ele>552.6</ele>
        <time>2022-06-21T08:26:31Z</time>
      </trkpt>
      <trkpt lat="43.40173" lon="2.64547">
        <ele>552.6</ele>
        <time>2022-06-21T08:26:32Z</time>
      </trkpt>
      <trkpt lat="43.40173" lon="2.64547">
        <ele>552.6</ele>
        <time>2022-06-21T08:26:33Z</time>
      </trkpt>
      <trkpt lat="43.40173" lon="2.64547">
        <ele>552.6</ele>
        <time>2022-06-21T08:26:34Z</time>
      </trkpt>
      <trkpt lat="43.40173" lon="2.64547">
        <ele>552.6</ele>
        <time>2022-06-21T08:26:35Z</time>
      </trkpt>
      <trkpt lat="43.40173" lon="2.64547">
        <ele>552.6</ele>
        <time>2022-06-21T08:26:36Z</time>
      </trkpt>
      <trkpt lat="43.40173" lon="2.64547">
        <ele>552.6</ele>
        <time>2022-06-21T08:26:37Z</time>
      </trkpt>
      <trkpt lat="43.40173" lon="2.64547">
        <ele>552.7</ele>
        <time>2022-06-21T08:26:38Z</time>
      </trkpt>
      <trkpt lat="43.40174" lon="2.64547">
        <ele>552.7</ele>
        <time>2022-06-21T08:26:39Z</time>
      </trkpt>
      <trkpt lat="43.40174" lon="2.64547">
        <ele>552.7</ele>
        <time>2022-06-21T08:26:40Z</time>
      </trkpt>
      <trkpt lat="43.40174" lon="2.64547">
        <ele>552.7</ele>
        <time>2022-06-21T08:26:41Z</time>
      </trkpt>
      <trkpt lat="43.40174" lon="2.64547">
        <ele>552.7</ele>
        <time>2022-06-21T08:26:42Z</time>
      </trkpt>
      <trkpt lat="43.40174" lon="2.64547">
        <ele>552.7</ele>
        <time>2022-06-21T08:26:43Z</time>
      </trkpt>
      <trkpt lat="43.40174" lon="2.64547">
        <ele>552.7</ele>
        <time>2022-06-21T08:26:44Z</time>
      </trkpt>
      <trkpt lat="43.40174" lon="2.64547">
        <ele>552.7</ele>
        <time>2022-06-21T08:26:45Z</time>
      </trkpt>
      <trkpt lat="43.40174" lon="2.64547">
        <ele>552.7</ele>
        <time>2022-06-21T08:26:46Z</time>
      </trkpt>
      <trkpt lat="43.40174" lon="2.64547">
        <ele>552.7</ele>
        <time>2022-06-21T08:26:47Z</time>
      </trkpt>
      <trkpt lat="43.40174" lon="2.64547">
        <ele>552.7</ele>
        <time>2022-06-21T08:26:48Z</time>
      </trkpt>
      <trkpt lat="43.40174" lon="2.64547">
        <ele>552.7</ele>
        <time>2022-06-21T08:26:49Z</time>
      </trkpt>
      <trkpt lat="43.40174" lon="2.64547">
        <ele>552.7</ele>
        <time>2022-06-21T08:26:50Z</time>
      </trkpt>
      <trkpt lat="43.40174" lon="2.64547">
        <ele>552.7</ele>
        <time>2022-06-21T08:26:51Z</time>
      </trkpt>
      <trkpt lat="43.40174" lon="2.64547">
        <ele>552.7</ele>
        <time>2022-06-21T08:26:52Z</time>
      </trkpt>
      <trkpt lat="43.40174" lon="2.64547">
        <ele>552.7</ele>
        <time>2022-06-21T08:26:53Z</time>
      </trkpt>
      <trkpt lat="43.40174" lon="2.64547">
        <ele>552.7</ele>
        <time>2022-06-21T08:26:54Z</time>
      </trkpt>
      <trkpt lat="43.40174" lon="2.64547">
        <ele>552.7</ele>
        <time>2022-06-21T08:26:55Z</time>
      </trkpt>
      <trkpt lat="43.40174" lon="2.64547">
        <ele>552.7</ele>
        <time>2022-06-21T08:26:56Z</time>
      </trkpt>
      <trkpt lat="43.40174" lon="2.64547">
        <ele>552.7</ele>
        <time>2022-06-21T08:26:57Z</time>
      </trkpt>
      <trkpt lat="43.40174" lon="2.64547">
        <ele>552.7</ele>
        <time>2022-06-21T08:26:58Z</time>
      </trkpt>
      <trkpt lat="43.40174" lon="2.64547">
        <ele>552.7</ele>
        <time>2022-06-21T08:26:59Z</time>
      </trkpt>
      <trkpt lat="43.40174" lon="2.64547">
        <ele>552.7</ele>
        <time>2022-06-21T08:27:00Z</time>
      </trkpt>
      <trkpt lat="43.40174" lon="2.64547">
        <ele>552.7</ele>
        <time>2022-06-21T08:27:01Z</time>
      </trkpt>
      <trkpt lat="43.40174" lon="2.64547">
        <ele>552.7</ele>
        <time>2022-06-21T08:27:02Z</time>
      </trkpt>
      <trkpt lat="43.40174" lon="2.64547">
        <ele>552.7</ele>
        <time>2022-06-21T08:27:03Z</time>
      </trkpt>
      <trkpt lat="43.40174" lon="2.64547">
        <ele>552.7</ele>
        <time>2022-06-21T08:27:04Z</time>
      </trkpt>
      <trkpt lat="43.40174" lon="2.64547">
        <ele>552.7</ele>
        <time>2022-06-21T08:27:05Z</time>
      </trkpt>
      <trkpt lat="43.40174" lon="2.64547">
        <ele>552.7</ele>
        <time>2022-06-21T08:27:06Z</time>
      </trkpt>
      <trkpt lat="43.40174" lon="2.64547">
        <ele>552.7</ele>
        <time>2022-06-21T08:27:07Z</time>
      </trkpt>
      <trkpt lat="43.40174" lon="2.64547">
        <ele>552.7</ele>
        <time>2022-06-21T08:27:08Z</time>
      </trkpt>
      <trkpt lat="43.40174" lon="2.64546">
        <ele>552.7</ele>
        <time>2022-06-21T08:27:09Z</time>
      </trkpt>
      <trkpt lat="43.40174" lon="2.64546">
        <ele>552.8</ele>
        <time>2022-06-21T08:27:10Z</time>
      </trkpt>
      <trkpt lat="43.40174" lon="2.64545">
        <ele>552.8</ele>
        <time>2022-06-21T08:27:11Z</time>
      </trkpt>
      <trkpt lat="43.40173" lon="2.64544">
        <ele>553</ele>
        <time>2022-06-21T08:27:12Z</time>
      </trkpt>
      <trkpt lat="43.40173" lon="2.64543">
        <ele>553.1</ele>
        <time>2022-06-21T08:27:13Z</time>
      </trkpt>
      <trkpt lat="43.40172" lon="2.64542">
        <ele>553.2</ele>
        <time>2022-06-21T08:27:14Z</time>
      </trkpt>
      <trkpt lat="43.40172" lon="2.64541">
        <ele>553.3</ele>
        <time>2022-06-21T08:27:15Z</time>
      </trkpt>
      <trkpt lat="43.40172" lon="2.64539">
        <ele>553.4</ele>
        <time>2022-06-21T08:27:16Z</time>
      </trkpt>
      <trkpt lat="43.40171" lon="2.64538">
        <ele>553.6</ele>
        <time>2022-06-21T08:27:17Z</time>
      </trkpt>
      <trkpt lat="43.40171" lon="2.64537">
        <ele>553.7</ele>
        <time>2022-06-21T08:27:18Z</time>
      </trkpt>
      <trkpt lat="43.40171" lon="2.64536">
        <ele>553.8</ele>
        <time>2022-06-21T08:27:19Z</time>
      </trkpt>
      <trkpt lat="43.4017" lon="2.64535">
        <ele>553.9</ele>
        <time>2022-06-21T08:27:20Z</time>
      </trkpt>
      <trkpt lat="43.4017" lon="2.64533">
        <ele>554.1</ele>
        <time>2022-06-21T08:27:21Z</time>
      </trkpt>
      <trkpt lat="43.4017" lon="2.64533">
        <ele>554.1</ele>
        <time>2022-06-21T08:27:22Z</time>
      </trkpt>
      <trkpt lat="43.4017" lon="2.64532">
        <ele>554.1</ele>
        <time>2022-06-21T08:27:23Z</time>
      </trkpt>
      <trkpt lat="43.4017" lon="2.64532">
        <ele>554.2</ele>
        <time>2022-06-21T08:27:24Z</time>
      </trkpt>
      <trkpt lat="43.4017" lon="2.64532">
        <ele>554.2</ele>
        <time>2022-06-21T08:27:25Z</time>
      </trkpt>
      <trkpt lat="43.4017" lon="2.64532">
        <ele>554.2</ele>
        <time>2022-06-21T08:27:26Z</time>
      </trkpt>
      <trkpt lat="43.4017" lon="2.64532">
        <ele>554.2</ele>
        <time>2022-06-21T08:27:27Z</time>
      </trkpt>
      <trkpt lat="43.4017" lon="2.64532">
        <ele>554.2</ele>
        <time>2022-06-21T08:27:28Z</time>
      </trkpt>
      <trkpt lat="43.4017" lon="2.64532">
        <ele>554.2</ele>
        <time>2022-06-21T08:27:29Z</time>
      </trkpt>
      <trkpt lat="43.4017" lon="2.64532">
        <ele>554.2</ele>
        <time>2022-06-21T08:27:30Z</time>
      </trkpt>
      <trkpt lat="43.4017" lon="2.64532">
        <ele>554.2</ele>
        <time>2022-06-21T08:27:31Z</time>
      </trkpt>
      <trkpt lat="43.4017" lon="2.64532">
        <ele>554.2</ele>
        <time>2022-06-21T08:27:32Z</time>
      </trkpt>
      <trkpt lat="43.4017" lon="2.64532">
        <ele>554.2</ele>
        <time>2022-06-21T08:27:33Z</time>
      </trkpt>
      <trkpt lat="43.4017" lon="2.64532">
        <ele>554.2</ele>
        <time>2022-06-21T08:27:34Z</time>
      </trkpt>
      <trkpt lat="43.4017" lon="2.64532">
        <ele>554.2</ele>
        <time>2022-06-21T08:27:35Z</time>
      </trkpt>
      <trkpt lat="43.4017" lon="2.64532">
        <ele>554.2</ele>
        <time>2022-06-21T08:27:36Z</time>
      </trkpt>
      <trkpt lat="43.4017" lon="2.64532">
        <ele>554.2</ele>
        <time>2022-06-21T08:27:37Z</time>
      </trkpt>
      <trkpt lat="43.4017" lon="2.64532">
        <ele>554.2</ele>
        <time>2022-06-21T08:27:38Z</time>
      </trkpt>
      <trkpt lat="43.4017" lon="2.64532">
        <ele>554.2</ele>
        <time>2022-06-21T08:27:39Z</time>
      </trkpt>
      <trkpt lat="43.4017" lon="2.64532">
        <ele>554.2</ele>
        <time>2022-06-21T08:27:40Z</time>
      </trkpt>
      <trkpt lat="43.4017" lon="2.64532">
        <ele>554.2</ele>
        <time>2022-06-21T08:27:41Z</time>
      </trkpt>
      <trkpt lat="43.4017" lon="2.64532">
        <ele>554.2</ele>
        <time>2022-06-21T08:27:42Z</time>
      </trkpt>
      <trkpt lat="43.4017" lon="2.64532">
        <ele>554.3</ele>
        <time>2022-06-21T08:27:43Z</time>
      </trkpt>
      <trkpt lat="43.4017" lon="2.64531">
        <ele>554.3</ele>
        <time>2022-06-21T08:27:44Z</time>
      </trkpt>
      <trkpt lat="43.4017" lon="2.64531">
        <ele>554.4</ele>
        <time>2022-06-21T08:27:45Z</time>
      </trkpt>
      <trkpt lat="43.40171" lon="2.6453">
        <ele>554.4</ele>
        <time>2022-06-21T08:27:46Z</time>
      </trkpt>
      <trkpt lat="43.40171" lon="2.6453">
        <ele>554.5</ele>
        <time>2022-06-21T08:27:47Z</time>
      </trkpt>
      <trkpt lat="43.40171" lon="2.6453">
        <ele>554.5</ele>
        <time>2022-06-21T08:27:48Z</time>
      </trkpt>
      <trkpt lat="43.40171" lon="2.6453">
        <ele>554.5</ele>
        <time>2022-06-21T08:27:49Z</time>
      </trkpt>
      <trkpt lat="43.40171" lon="2.6453">
        <ele>554.5</ele>
        <time>2022-06-21T08:27:50Z</time>
      </trkpt>
      <trkpt lat="43.40171" lon="2.6453">
        <ele>554.5</ele>
        <time>2022-06-21T08:27:51Z</time>
      </trkpt>
      <trkpt lat="43.40171" lon="2.6453">
        <ele>554.5</ele>
        <time>2022-06-21T08:27:52Z</time>
      </trkpt>
      <trkpt lat="43.40171" lon="2.6453">
        <ele>554.5</ele>
        <time>2022-06-21T08:27:53Z</time>
      </trkpt>
      <trkpt lat="43.40171" lon="2.6453">
        <ele>554.5</ele>
        <time>2022-06-21T08:27:54Z</time>
      </trkpt>
      <trkpt lat="43.40171" lon="2.6453">
        <ele>554.5</ele>
        <time>2022-06-21T08:27:55Z</time>
      </trkpt>
      <trkpt lat="43.40171" lon="2.6453">
        <ele>554.5</ele>
        <time>2022-06-21T08:27:56Z</time>
      </trkpt>
      <trkpt lat="43.40171" lon="2.6453">
        <ele>554.5</ele>
        <time>2022-06-21T08:27:57Z</time>
      </trkpt>
      <trkpt lat="43.40171" lon="2.6453">
        <ele>554.5</ele>
        <time>2022-06-21T08:27:58Z</time>
      </trkpt>
      <trkpt lat="43.40171" lon="2.6453">
        <ele>554.5</ele>
        <time>2022-06-21T08:27:59Z</time>
      </trkpt>
      <trkpt lat="43.40171" lon="2.6453">
        <ele>554.5</ele>
        <time>2022-06-21T08:28:00Z</time>
      </trkpt>
      <trkpt lat="43.40171" lon="2.6453">
        <ele>554.5</ele>
        <time>2022-06-21T08:28:01Z</time>
      </trkpt>
      <trkpt lat="43.40171" lon="2.6453">
        <ele>554.5</ele>
        <time>2022-06-21T08:28:02Z</time>
      </trkpt>
      <trkpt lat="43.40171" lon="2.6453">
        <ele>554.5</ele>
        <time>2022-06-21T08:28:03Z</time>
      </trkpt>
      <trkpt lat="43.40171" lon="2.6453">
        <ele>554.5</ele>
        <time>2022-06-21T08:28:04Z</time>
      </trkpt>
      <trkpt lat="43.40171" lon="2.6453">
        <ele>554.5</ele>
        <time>2022-06-21T08:28:05Z</time>
      </trkpt>
      <trkpt lat="43.40171" lon="2.6453">
        <ele>554.5</ele>
        <time>2022-06-21T08:28:06Z</time>
      </trkpt>
      <trkpt lat="43.40171" lon="2.6453">
        <ele>554.5</ele>
        <time>2022-06-21T08:28:07Z</time>
      </trkpt>
      <trkpt lat="43.40171" lon="2.6453">
        <ele>554.5</ele>
        <time>2022-06-21T08:28:08Z</time>
      </trkpt>
      <trkpt lat="43.40171" lon="2.6453">
        <ele>554.5</ele>
        <time>2022-06-21T08:28:09Z</time>
      </trkpt>
      <trkpt lat="43.40171" lon="2.6453">
        <ele>554.5</ele>
        <time>2022-06-21T08:28:10Z</time>
      </trkpt>
      <trkpt lat="43.40171" lon="2.6453">
        <ele>554.5</ele>
        <time>2022-06-21T08:28:11Z</time>
      </trkpt>
      <trkpt lat="43.40171" lon="2.6453">
        <ele>554.5</ele>
        <time>2022-06-21T08:28:12Z</time>
      </trkpt>
      <trkpt lat="43.40171" lon="2.6453">
        <ele>554.5</ele>
        <time>2022-06-21T08:28:13Z</time>
      </trkpt>
      <trkpt lat="43.40171" lon="2.6453">
        <ele>554.5</ele>
        <time>2022-06-21T08:28:14Z</time>
      </trkpt>
      <trkpt lat="43.40171" lon="2.6453">
        <ele>554.5</ele>
        <time>2022-06-21T08:28:15Z</time>
      </trkpt>
      <trkpt lat="43.40171" lon="2.6453">
        <ele>554.5</ele>
        <time>2022-06-21T08:28:16Z</time>
      </trkpt>
      <trkpt lat="43.40171" lon="2.6453">
        <ele>554.5</ele>
        <time>2022-06-21T08:28:17Z</time>
      </trkpt>
      <trkpt lat="43.40171" lon="2.6453">
        <ele>554.5</ele>
        <time>2022-06-21T08:28:18Z</time>
      </trkpt>
      <trkpt lat="43.40171" lon="2.6453">
        <ele>554.5</ele>
        <time>2022-06-21T08:28:19Z</time>
      </trkpt>
      <trkpt lat="43.40171" lon="2.6453">
        <ele>554.5</ele>
        <time>2022-06-21T08:28:20Z</time>
      </trkpt>
      <trkpt lat="43.40171" lon="2.6453">
        <ele>554.5</ele>
        <time>2022-06-21T08:28:21Z</time>
      </trkpt>
      <trkpt lat="43.40171" lon="2.6453">
        <ele>554.5</ele>
        <time>2022-06-21T08:28:22Z</time>
      </trkpt>
      <trkpt lat="43.40171" lon="2.6453">
        <ele>554.5</ele>
        <time>2022-06-21T08:28:23Z</time>
      </trkpt>
      <trkpt lat="43.40171" lon="2.6453">
        <ele>554.5</ele>
        <time>2022-06-21T08:28:24Z</time>
      </trkpt>
      <trkpt lat="43.40171" lon="2.6453">
        <ele>554.5</ele>
        <time>2022-06-21T08:28:25Z</time>
      </trkpt>
      <trkpt lat="43.40171" lon="2.6453">
        <ele>554.5</ele>
        <time>2022-06-21T08:28:26Z</time>
      </trkpt>
      <trkpt lat="43.40171" lon="2.6453">
        <ele>554.5</ele>
        <time>2022-06-21T08:28:27Z</time>
      </trkpt>
      <trkpt lat="43.40171" lon="2.6453">
        <ele>554.5</ele>
        <time>2022-06-21T08:28:28Z</time>
      </trkpt>
      <trkpt lat="43.40171" lon="2.6453">
        <ele>554.5</ele>
        <time>2022-06-21T08:28:29Z</time>
      </trkpt>
      <trkpt lat="43.40171" lon="2.6453">
        <ele>554.5</ele>
        <time>2022-06-21T08:28:30Z</time>
      </trkpt>
      <trkpt lat="43.40171" lon="2.6453">
        <ele>554.5</ele>
        <time>2022-06-21T08:28:31Z</time>
      </trkpt>
      <trkpt lat="43.40171" lon="2.6453">
        <ele>554.5</ele>
        <time>2022-06-21T08:28:32Z</time>
      </trkpt>
      <trkpt lat="43.40171" lon="2.6453">
        <ele>554.5</ele>
        <time>2022-06-21T08:28:33Z</time>
      </trkpt>
      <trkpt lat="43.40171" lon="2.6453">
        <ele>554.5</ele>
        <time>2022-06-21T08:28:34Z</time>
      </trkpt>
      <trkpt lat="43.40171" lon="2.6453">
        <ele>554.5</ele>
        <time>2022-06-21T08:28:35Z</time>
      </trkpt>
      <trkpt lat="43.40171" lon="2.6453">
        <ele>554.5</ele>
        <time>2022-06-21T08:28:36Z</time>
      </trkpt>
      <trkpt lat="43.40171" lon="2.6453">
        <ele>554.5</ele>
        <time>2022-06-21T08:28:37Z</time>
      </trkpt>
      <trkpt lat="43.40171" lon="2.64529">
        <ele>554.6</ele>
        <time>2022-06-21T08:28:38Z</time>
      </trkpt>
      <trkpt lat="43.40171" lon="2.64529">
        <ele>554.7</ele>
        <time>2022-06-21T08:28:39Z</time>
      </trkpt>
      <trkpt lat="43.40171" lon="2.64529">
        <ele>554.7</ele>
        <time>2022-06-21T08:28:40Z</time>
      </trkpt>
      <trkpt lat="43.40171" lon="2.64528">
        <ele>554.7</ele>
        <time>2022-06-21T08:28:41Z</time>
      </trkpt>
      <trkpt lat="43.40171" lon="2.64528">
        <ele>554.8</ele>
        <time>2022-06-21T08:28:42Z</time>
      </trkpt>
      <trkpt lat="43.40171" lon="2.64528">
        <ele>554.8</ele>
        <time>2022-06-21T08:28:43Z</time>
      </trkpt>
      <trkpt lat="43.40171" lon="2.64528">
        <ele>554.8</ele>
        <time>2022-06-21T08:28:44Z</time>
      </trkpt>
      <trkpt lat="43.40171" lon="2.64528">
        <ele>554.8</ele>
        <time>2022-06-21T08:28:45Z</time>
      </trkpt>
      <trkpt lat="43.40172" lon="2.64528">
        <ele>554.8</ele>
        <time>2022-06-21T08:28:46Z</time>
      </trkpt>
      <trkpt lat="43.40172" lon="2.64528">
        <ele>554.8</ele>
        <time>2022-06-21T08:28:47Z</time>
      </trkpt>
      <trkpt lat="43.40172" lon="2.64528">
        <ele>554.8</ele>
        <time>2022-06-21T08:28:48Z</time>
      </trkpt>
      <trkpt lat="43.40172" lon="2.64528">
        <ele>554.8</ele>
        <time>2022-06-21T08:28:49Z</time>
      </trkpt>
      <trkpt lat="43.40172" lon="2.64528">
        <ele>554.9</ele>
        <time>2022-06-21T08:28:50Z</time>
      </trkpt>
      <trkpt lat="43.40172" lon="2.64528">
        <ele>554.9</ele>
        <time>2022-06-21T08:28:51Z</time>
      </trkpt>
      <trkpt lat="43.40172" lon="2.64528">
        <ele>554.9</ele>
        <time>2022-06-21T08:28:52Z</time>
      </trkpt>
      <trkpt lat="43.40172" lon="2.64528">
        <ele>554.9</ele>
        <time>2022-06-21T08:28:53Z</time>
      </trkpt>
      <trkpt lat="43.40172" lon="2.64527">
        <ele>554.9</ele>
        <time>2022-06-21T08:28:54Z</time>
      </trkpt>
      <trkpt lat="43.40172" lon="2.64527">
        <ele>554.9</ele>
        <time>2022-06-21T08:28:55Z</time>
      </trkpt>
      <trkpt lat="43.40172" lon="2.64527">
        <ele>554.9</ele>
        <time>2022-06-21T08:28:56Z</time>
      </trkpt>
      <trkpt lat="43.40172" lon="2.64527">
        <ele>554.9</ele>
        <time>2022-06-21T08:28:57Z</time>
      </trkpt>
      <trkpt lat="43.40172" lon="2.64527">
        <ele>554.9</ele>
        <time>2022-06-21T08:28:58Z</time>
      </trkpt>
      <trkpt lat="43.40172" lon="2.64527">
        <ele>554.9</ele>
        <time>2022-06-21T08:28:59Z</time>
      </trkpt>
      <trkpt lat="43.40172" lon="2.64527">
        <ele>555</ele>
        <time>2022-06-21T08:29:00Z</time>
      </trkpt>
      <trkpt lat="43.40172" lon="2.64527">
        <ele>555</ele>
        <time>2022-06-21T08:29:01Z</time>
      </trkpt>
      <trkpt lat="43.40172" lon="2.64527">
        <ele>555</ele>
        <time>2022-06-21T08:29:02Z</time>
      </trkpt>
      <trkpt lat="43.40172" lon="2.64527">
        <ele>555</ele>
        <time>2022-06-21T08:29:03Z</time>
      </trkpt>
      <trkpt lat="43.40172" lon="2.64527">
        <ele>555</ele>
        <time>2022-06-21T08:29:04Z</time>
      </trkpt>
      <trkpt lat="43.40172" lon="2.64527">
        <ele>555</ele>
        <time>2022-06-21T08:29:05Z</time>
      </trkpt>
      <trkpt lat="43.40173" lon="2.64527">
        <ele>555</ele>
        <time>2022-06-21T08:29:06Z</time>
      </trkpt>
      <trkpt lat="43.40173" lon="2.64527">
        <ele>555</ele>
        <time>2022-06-21T08:29:07Z</time>
      </trkpt>
      <trkpt lat="43.40173" lon="2.64526">
        <ele>555.1</ele>
        <time>2022-06-21T08:29:08Z</time>
      </trkpt>
      <trkpt lat="43.40173" lon="2.64526">
        <ele>555.1</ele>
        <time>2022-06-21T08:29:09Z</time>
      </trkpt>
      <trkpt lat="43.40173" lon="2.64526">
        <ele>555.1</ele>
        <time>2022-06-21T08:29:10Z</time>
      </trkpt>
      <trkpt lat="43.40173" lon="2.64526">
        <ele>555.1</ele>
        <time>2022-06-21T08:29:11Z</time>
      </trkpt>
      <trkpt lat="43.40173" lon="2.64526">
        <ele>555.1</ele>
        <time>2022-06-21T08:29:12Z</time>
      </trkpt>
      <trkpt lat="43.40173" lon="2.64526">
        <ele>555.1</ele>
        <time>2022-06-21T08:29:13Z</time>
      </trkpt>
      <trkpt lat="43.40173" lon="2.64526">
        <ele>555.1</ele>
        <time>2022-06-21T08:29:14Z</time>
      </trkpt>
      <trkpt lat="43.40173" lon="2.64526">
        <ele>555.1</ele>
        <time>2022-06-21T08:29:15Z</time>
      </trkpt>
      <trkpt lat="43.40173" lon="2.64526">
        <ele>555.2</ele>
        <time>2022-06-21T08:29:16Z</time>
      </trkpt>
      <trkpt lat="43.40173" lon="2.64526">
        <ele>555.2</ele>
        <time>2022-06-21T08:29:17Z</time>
      </trkpt>
      <trkpt lat="43.40173" lon="2.64526">
        <ele>555.2</ele>
        <time>2022-06-21T08:29:18Z</time>
      </trkpt>
      <trkpt lat="43.40173" lon="2.64526">
        <ele>555.2</ele>
        <time>2022-06-21T08:29:19Z</time>
      </trkpt>
      <trkpt lat="43.40173" lon="2.64526">
        <ele>555.2</ele>
        <time>2022-06-21T08:29:20Z</time>
      </trkpt>
      <trkpt lat="43.40173" lon="2.64525">
        <ele>555.2</ele>
        <time>2022-06-21T08:29:21Z</time>
      </trkpt>
      <trkpt lat="43.40173" lon="2.64525">
        <ele>555.2</ele>
        <time>2022-06-21T08:29:22Z</time>
      </trkpt>
      <trkpt lat="43.40173" lon="2.64525">
        <ele>555.2</ele>
        <time>2022-06-21T08:29:23Z</time>
      </trkpt>
      <trkpt lat="43.40173" lon="2.64525">
        <ele>555.3</ele>
        <time>2022-06-21T08:29:24Z</time>
      </trkpt>
      <trkpt lat="43.40174" lon="2.64525">
        <ele>555.3</ele>
        <time>2022-06-21T08:29:25Z</time>
      </trkpt>
      <trkpt lat="43.40174" lon="2.64525">
        <ele>555.3</ele>
        <time>2022-06-21T08:29:26Z</time>
      </trkpt>
      <trkpt lat="43.40174" lon="2.64525">
        <ele>555.3</ele>
        <time>2022-06-21T08:29:27Z</time>
      </trkpt>
      <trkpt lat="43.40174" lon="2.64525">
        <ele>555.3</ele>
        <time>2022-06-21T08:29:28Z</time>
      </trkpt>
      <trkpt lat="43.40175" lon="2.64524">
        <ele>555.5</ele>
        <time>2022-06-21T08:29:29Z</time>
      </trkpt>
      <trkpt lat="43.40175" lon="2.64524">
        <ele>555.6</ele>
        <time>2022-06-21T08:29:30Z</time>
      </trkpt>
      <trkpt lat="43.40176" lon="2.64523">
        <ele>555.8</ele>
        <time>2022-06-21T08:29:31Z</time>
      </trkpt>
      <trkpt lat="43.40177" lon="2.64522">
        <ele>555.9</ele>
        <time>2022-06-21T08:29:32Z</time>
      </trkpt>
      <trkpt lat="43.40178" lon="2.64522">
        <ele>556</ele>
        <time>2022-06-21T08:29:33Z</time>
      </trkpt>
      <trkpt lat="43.40179" lon="2.64521">
        <ele>556.2</ele>
        <time>2022-06-21T08:29:34Z</time>
      </trkpt>
      <trkpt lat="43.40179" lon="2.6452">
        <ele>556.3</ele>
        <time>2022-06-21T08:29:35Z</time>
      </trkpt>
      <trkpt lat="43.4018" lon="2.64519">
        <ele>556.5</ele>
        <time>2022-06-21T08:29:36Z</time>
      </trkpt>
      <trkpt lat="43.40181" lon="2.64518">
        <ele>556.7</ele>
        <time>2022-06-21T08:29:37Z</time>
      </trkpt>
      <trkpt lat="43.40181" lon="2.64517">
        <ele>556.8</ele>
        <time>2022-06-21T08:29:38Z</time>
      </trkpt>
      <trkpt lat="43.40182" lon="2.64516">
        <ele>557</ele>
        <time>2022-06-21T08:29:39Z</time>
      </trkpt>
      <trkpt lat="43.40182" lon="2.64515">
        <ele>557.1</ele>
        <time>2022-06-21T08:29:40Z</time>
      </trkpt>
      <trkpt lat="43.40183" lon="2.64514">
        <ele>557.2</ele>
        <time>2022-06-21T08:29:41Z</time>
      </trkpt>
      <trkpt lat="43.40183" lon="2.64514">
        <ele>557.2</ele>
        <time>2022-06-21T08:29:42Z</time>
      </trkpt>
      <trkpt lat="43.40183" lon="2.64513">
        <ele>557.4</ele>
        <time>2022-06-21T08:29:43Z</time>
      </trkpt>
      <trkpt lat="43.40183" lon="2.64512">
        <ele>557.5</ele>
        <time>2022-06-21T08:29:44Z</time>
      </trkpt>
      <trkpt lat="43.40184" lon="2.64512">
        <ele>557.6</ele>
        <time>2022-06-21T08:29:45Z</time>
      </trkpt>
      <trkpt lat="43.40185" lon="2.64511">
        <ele>557.7</ele>
        <time>2022-06-21T08:29:46Z</time>
      </trkpt>
      <trkpt lat="43.40185" lon="2.6451">
        <ele>557.9</ele>
        <time>2022-06-21T08:29:47Z</time>
      </trkpt>
      <trkpt lat="43.40186" lon="2.6451">
        <ele>558</ele>
        <time>2022-06-21T08:29:48Z</time>
      </trkpt>
      <trkpt lat="43.40187" lon="2.64509">
        <ele>558.2</ele>
        <time>2022-06-21T08:29:49Z</time>
      </trkpt>
      <trkpt lat="43.40188" lon="2.64509">
        <ele>558.3</ele>
        <time>2022-06-21T08:29:50Z</time>
      </trkpt>
      <trkpt lat="43.40188" lon="2.64508">
        <ele>558.4</ele>
        <time>2022-06-21T08:29:51Z</time>
      </trkpt>
      <trkpt lat="43.40188" lon="2.64508">
        <ele>558.5</ele>
        <time>2022-06-21T08:29:52Z</time>
      </trkpt>
      <trkpt lat="43.40189" lon="2.64507">
        <ele>558.6</ele>
        <time>2022-06-21T08:29:53Z</time>
      </trkpt>
      <trkpt lat="43.40189" lon="2.64507">
        <ele>558.7</ele>
        <time>2022-06-21T08:29:54Z</time>
      </trkpt>
      <trkpt lat="43.4019" lon="2.64506">
        <ele>558.8</ele>
        <time>2022-06-21T08:29:55Z</time>
      </trkpt>
      <trkpt lat="43.40191" lon="2.64505">
        <ele>558.9</ele>
        <time>2022-06-21T08:29:56Z</time>
      </trkpt>
      <trkpt lat="43.40192" lon="2.64505">
        <ele>559.1</ele>
        <time>2022-06-21T08:29:57Z</time>
      </trkpt>
      <trkpt lat="43.40192" lon="2.64504">
        <ele>559.2</ele>
        <time>2022-06-21T08:29:58Z</time>
      </trkpt>
      <trkpt lat="43.40193" lon="2.64503">
        <ele>559.4</ele>
        <time>2022-06-21T08:29:59Z</time>
      </trkpt>
      <trkpt lat="43.40194" lon="2.64502">
        <ele>559.5</ele>
        <time>2022-06-21T08:30:00Z</time>
      </trkpt>
      <trkpt lat="43.40195" lon="2.64501">
        <ele>559.7</ele>
        <time>2022-06-21T08:30:01Z</time>
      </trkpt>
      <trkpt lat="43.40196" lon="2.64501">
        <ele>559.8</ele>
        <time>2022-06-21T08:30:02Z</time>
      </trkpt>
      <trkpt lat="43.40196" lon="2.645">
        <ele>559.9</ele>
        <time>2022-06-21T08:30:03Z</time>
      </trkpt>
      <trkpt lat="43.40197" lon="2.645">
        <ele>560</ele>
        <time>2022-06-21T08:30:04Z</time>
      </trkpt>
      <trkpt lat="43.40197" lon="2.645">
        <ele>560.1</ele>
        <time>2022-06-21T08:30:05Z</time>
      </trkpt>
      <trkpt lat="43.40198" lon="2.64499">
        <ele>560.2</ele>
        <time>2022-06-21T08:30:06Z</time>
      </trkpt>
      <trkpt lat="43.40199" lon="2.64498">
        <ele>560.4</ele>
        <time>2022-06-21T08:30:07Z</time>
      </trkpt>
      <trkpt lat="43.402" lon="2.64497">
        <ele>560.6</ele>
        <time>2022-06-21T08:30:08Z</time>
      </trkpt>
      <trkpt lat="43.40201" lon="2.64496">
        <ele>560.7</ele>
        <time>2022-06-21T08:30:09Z</time>
      </trkpt>
      <trkpt lat="43.40202" lon="2.64495">
        <ele>560.9</ele>
        <time>2022-06-21T08:30:10Z</time>
      </trkpt>
      <trkpt lat="43.40202" lon="2.64494">
        <ele>561</ele>
        <time>2022-06-21T08:30:11Z</time>
      </trkpt>
      <trkpt lat="43.40203" lon="2.64493">
        <ele>561.1</ele>
        <time>2022-06-21T08:30:12Z</time>
      </trkpt>
      <trkpt lat="43.40203" lon="2.64493">
        <ele>561.2</ele>
        <time>2022-06-21T08:30:13Z</time>
      </trkpt>
      <trkpt lat="43.40204" lon="2.64492">
        <ele>561.3</ele>
        <time>2022-06-21T08:30:14Z</time>
      </trkpt>
      <trkpt lat="43.40204" lon="2.64491">
        <ele>561.4</ele>
        <time>2022-06-21T08:30:15Z</time>
      </trkpt>
      <trkpt lat="43.40205" lon="2.6449">
        <ele>561.5</ele>
        <time>2022-06-21T08:30:16Z</time>
      </trkpt>
      <trkpt lat="43.40206" lon="2.6449">
        <ele>561.7</ele>
        <time>2022-06-21T08:30:17Z</time>
      </trkpt>
      <trkpt lat="43.40206" lon="2.6449">
        <ele>561.7</ele>
        <time>2022-06-21T08:30:18Z</time>
      </trkpt>
      <trkpt lat="43.40206" lon="2.64489">
        <ele>561.8</ele>
        <time>2022-06-21T08:30:19Z</time>
      </trkpt>
      <trkpt lat="43.40207" lon="2.64489">
        <ele>561.9</ele>
        <time>2022-06-21T08:30:20Z</time>
      </trkpt>
      <trkpt lat="43.40208" lon="2.64489">
        <ele>562</ele>
        <time>2022-06-21T08:30:21Z</time>
      </trkpt>
      <trkpt lat="43.40208" lon="2.64489">
        <ele>562.1</ele>
        <time>2022-06-21T08:30:22Z</time>
      </trkpt>
      <trkpt lat="43.40209" lon="2.64488">
        <ele>562.2</ele>
        <time>2022-06-21T08:30:23Z</time>
      </trkpt>
      <trkpt lat="43.4021" lon="2.64488">
        <ele>562.3</ele>
        <time>2022-06-21T08:30:24Z</time>
      </trkpt>
      <trkpt lat="43.40211" lon="2.64488">
        <ele>562.4</ele>
        <time>2022-06-21T08:30:25Z</time>
      </trkpt>
      <trkpt lat="43.40212" lon="2.64488">
        <ele>562.5</ele>
        <time>2022-06-21T08:30:26Z</time>
      </trkpt>
      <trkpt lat="43.40212" lon="2.64488">
        <ele>562.6</ele>
        <time>2022-06-21T08:30:27Z</time>
      </trkpt>
      <trkpt lat="43.40213" lon="2.64488">
        <ele>562.8</ele>
        <time>2022-06-21T08:30:28Z</time>
      </trkpt>
      <trkpt lat="43.40214" lon="2.64487">
        <ele>562.9</ele>
        <time>2022-06-21T08:30:29Z</time>
      </trkpt>
      <trkpt lat="43.40215" lon="2.64487">
        <ele>563.1</ele>
        <time>2022-06-21T08:30:30Z</time>
      </trkpt>
      <trkpt lat="43.40217" lon="2.64487">
        <ele>563.3</ele>
        <time>2022-06-21T08:30:32Z</time>
      </trkpt>
      <trkpt lat="43.40218" lon="2.64486">
        <ele>563.5</ele>
        <time>2022-06-21T08:30:33Z</time>
      </trkpt>
      <trkpt lat="43.40218" lon="2.64486">
        <ele>563.6</ele>
        <time>2022-06-21T08:30:34Z</time>
      </trkpt>
      <trkpt lat="43.40219" lon="2.64486">
        <ele>563.7</ele>
        <time>2022-06-21T08:30:35Z</time>
      </trkpt>
      <trkpt lat="43.4022" lon="2.64485">
        <ele>563.9</ele>
        <time>2022-06-21T08:30:36Z</time>
      </trkpt>
      <trkpt lat="43.40221" lon="2.64484">
        <ele>564</ele>
        <time>2022-06-21T08:30:37Z</time>
      </trkpt>
      <trkpt lat="43.40222" lon="2.64483">
        <ele>564.2</ele>
        <time>2022-06-21T08:30:38Z</time>
      </trkpt>
      <trkpt lat="43.40222" lon="2.64482">
        <ele>564.3</ele>
        <time>2022-06-21T08:30:39Z</time>
      </trkpt>
      <trkpt lat="43.40223" lon="2.64481">
        <ele>564.5</ele>
        <time>2022-06-21T08:30:40Z</time>
      </trkpt>
      <trkpt lat="43.40223" lon="2.6448">
        <ele>564.6</ele>
        <time>2022-06-21T08:30:41Z</time>
      </trkpt>
      <trkpt lat="43.40224" lon="2.64479">
        <ele>564.7</ele>
        <time>2022-06-21T08:30:42Z</time>
      </trkpt>
      <trkpt lat="43.40225" lon="2.64479">
        <ele>564.9</ele>
        <time>2022-06-21T08:30:43Z</time>
      </trkpt>
      <trkpt lat="43.40225" lon="2.64478">
        <ele>565</ele>
        <time>2022-06-21T08:30:44Z</time>
      </trkpt>
      <trkpt lat="43.40226" lon="2.64477">
        <ele>565.2</ele>
        <time>2022-06-21T08:30:45Z</time>
      </trkpt>
      <trkpt lat="43.40227" lon="2.64476">
        <ele>565.3</ele>
        <time>2022-06-21T08:30:46Z</time>
      </trkpt>
      <trkpt lat="43.40227" lon="2.64475">
        <ele>565.5</ele>
        <time>2022-06-21T08:30:47Z</time>
      </trkpt>
      <trkpt lat="43.40228" lon="2.64474">
        <ele>565.6</ele>
        <time>2022-06-21T08:30:48Z</time>
      </trkpt>
      <trkpt lat="43.40228" lon="2.64474">
        <ele>565.8</ele>
        <time>2022-06-21T08:30:49Z</time>
      </trkpt>
      <trkpt lat="43.40229" lon="2.64473">
        <ele>565.9</ele>
        <time>2022-06-21T08:30:50Z</time>
      </trkpt>
      <trkpt lat="43.40229" lon="2.64472">
        <ele>566</ele>
        <time>2022-06-21T08:30:51Z</time>
      </trkpt>
      <trkpt lat="43.4023" lon="2.64471">
        <ele>566.2</ele>
        <time>2022-06-21T08:30:52Z</time>
      </trkpt>
      <trkpt lat="43.4023" lon="2.6447">
        <ele>566.3</ele>
        <time>2022-06-21T08:30:53Z</time>
      </trkpt>
      <trkpt lat="43.4023" lon="2.64469">
        <ele>566.4</ele>
        <time>2022-06-21T08:30:54Z</time>
      </trkpt>
      <trkpt lat="43.40231" lon="2.64468">
        <ele>566.6</ele>
        <time>2022-06-21T08:30:55Z</time>
      </trkpt>
      <trkpt lat="43.40231" lon="2.64467">
        <ele>566.7</ele>
        <time>2022-06-21T08:30:56Z</time>
      </trkpt>
      <trkpt lat="43.40231" lon="2.64466">
        <ele>566.9</ele>
        <time>2022-06-21T08:30:57Z</time>
      </trkpt>
      <trkpt lat="43.40232" lon="2.64465">
        <ele>567</ele>
        <time>2022-06-21T08:30:58Z</time>
      </trkpt>
      <trkpt lat="43.40232" lon="2.64464">
        <ele>567.2</ele>
        <time>2022-06-21T08:30:59Z</time>
      </trkpt>
      <trkpt lat="43.40233" lon="2.64463">
        <ele>567.3</ele>
        <time>2022-06-21T08:31:00Z</time>
      </trkpt>
      <trkpt lat="43.40233" lon="2.64462">
        <ele>567.5</ele>
        <time>2022-06-21T08:31:01Z</time>
      </trkpt>
      <trkpt lat="43.40234" lon="2.64461">
        <ele>567.6</ele>
        <time>2022-06-21T08:31:02Z</time>
      </trkpt>
      <trkpt lat="43.40234" lon="2.6446">
        <ele>567.8</ele>
        <time>2022-06-21T08:31:03Z</time>
      </trkpt>
      <trkpt lat="43.40235" lon="2.64459">
        <ele>567.9</ele>
        <time>2022-06-21T08:31:04Z</time>
      </trkpt>
      <trkpt lat="43.40235" lon="2.64458">
        <ele>568</ele>
        <time>2022-06-21T08:31:05Z</time>
      </trkpt>
      <trkpt lat="43.40236" lon="2.64457">
        <ele>568.2</ele>
        <time>2022-06-21T08:31:06Z</time>
      </trkpt>
      <trkpt lat="43.40236" lon="2.64456">
        <ele>568.3</ele>
        <time>2022-06-21T08:31:07Z</time>
      </trkpt>
      <trkpt lat="43.40237" lon="2.64455">
        <ele>568.4</ele>
        <time>2022-06-21T08:31:08Z</time>
      </trkpt>
      <trkpt lat="43.40237" lon="2.64455">
        <ele>568.6</ele>
        <time>2022-06-21T08:31:09Z</time>
      </trkpt>
      <trkpt lat="43.40238" lon="2.64454">
        <ele>568.7</ele>
        <time>2022-06-21T08:31:10Z</time>
      </trkpt>
      <trkpt lat="43.40239" lon="2.64453">
        <ele>568.9</ele>
        <time>2022-06-21T08:31:11Z</time>
      </trkpt>
      <trkpt lat="43.40239" lon="2.64452">
        <ele>569.1</ele>
        <time>2022-06-21T08:31:12Z</time>
      </trkpt>
      <trkpt lat="43.4024" lon="2.64451">
        <ele>569.2</ele>
        <time>2022-06-21T08:31:13Z</time>
      </trkpt>
      <trkpt lat="43.40241" lon="2.6445">
        <ele>569.4</ele>
        <time>2022-06-21T08:31:14Z</time>
      </trkpt>
      <trkpt lat="43.40241" lon="2.6445">
        <ele>569.5</ele>
        <time>2022-06-21T08:31:15Z</time>
      </trkpt>
      <trkpt lat="43.40242" lon="2.64449">
        <ele>569.7</ele>
        <time>2022-06-21T08:31:16Z</time>
      </trkpt>
      <trkpt lat="43.40243" lon="2.64449">
        <ele>569.9</ele>
        <time>2022-06-21T08:31:17Z</time>
      </trkpt>
      <trkpt lat="43.40244" lon="2.64449">
        <ele>570.1</ele>
        <time>2022-06-21T08:31:18Z</time>
      </trkpt>
      <trkpt lat="43.40245" lon="2.64449">
        <ele>570.2</ele>
        <time>2022-06-21T08:31:19Z</time>
      </trkpt>
      <trkpt lat="43.40246" lon="2.64448">
        <ele>570.3</ele>
        <time>2022-06-21T08:31:20Z</time>
      </trkpt>
      <trkpt lat="43.40246" lon="2.64448">
        <ele>570.4</ele>
        <time>2022-06-21T08:31:21Z</time>
      </trkpt>
      <trkpt lat="43.40247" lon="2.64447">
        <ele>570.6</ele>
        <time>2022-06-21T08:31:22Z</time>
      </trkpt>
      <trkpt lat="43.40248" lon="2.64447">
        <ele>570.7</ele>
        <time>2022-06-21T08:31:23Z</time>
      </trkpt>
      <trkpt lat="43.40249" lon="2.64447">
        <ele>570.8</ele>
        <time>2022-06-21T08:31:24Z</time>
      </trkpt>
      <trkpt lat="43.4025" lon="2.64446">
        <ele>571</ele>
        <time>2022-06-21T08:31:25Z</time>
      </trkpt>
      <trkpt lat="43.4025" lon="2.64446">
        <ele>571.1</ele>
        <time>2022-06-21T08:31:26Z</time>
      </trkpt>
      <trkpt lat="43.40251" lon="2.64446">
        <ele>571.2</ele>
        <time>2022-06-21T08:31:27Z</time>
      </trkpt>
      <trkpt lat="43.40252" lon="2.64445">
        <ele>571.4</ele>
        <time>2022-06-21T08:31:28Z</time>
      </trkpt>
      <trkpt lat="43.40252" lon="2.64445">
        <ele>571.5</ele>
        <time>2022-06-21T08:31:29Z</time>
      </trkpt>
      <trkpt lat="43.40253" lon="2.64445">
        <ele>571.5</ele>
        <time>2022-06-21T08:31:30Z</time>
      </trkpt>
      <trkpt lat="43.40254" lon="2.64445">
        <ele>571.6</ele>
        <time>2022-06-21T08:31:31Z</time>
      </trkpt>
      <trkpt lat="43.40255" lon="2.64445">
        <ele>571.7</ele>
        <time>2022-06-21T08:31:32Z</time>
      </trkpt>
      <trkpt lat="43.40255" lon="2.64446">
        <ele>571.8</ele>
        <time>2022-06-21T08:31:33Z</time>
      </trkpt>
      <trkpt lat="43.40256" lon="2.64446">
        <ele>571.9</ele>
        <time>2022-06-21T08:31:34Z</time>
      </trkpt>
      <trkpt lat="43.40257" lon="2.64446">
        <ele>572</ele>
        <time>2022-06-21T08:31:35Z</time>
      </trkpt>
      <trkpt lat="43.40258" lon="2.64446">
        <ele>572.1</ele>
        <time>2022-06-21T08:31:36Z</time>
      </trkpt>
      <trkpt lat="43.40258" lon="2.64446">
        <ele>572.1</ele>
        <time>2022-06-21T08:31:37Z</time>
      </trkpt>
      <trkpt lat="43.40258" lon="2.64446">
        <ele>572.1</ele>
        <time>2022-06-21T08:31:38Z</time>
      </trkpt>
      <trkpt lat="43.40258" lon="2.64446">
        <ele>572.1</ele>
        <time>2022-06-21T08:31:39Z</time>
      </trkpt>
      <trkpt lat="43.40258" lon="2.64446">
        <ele>572.2</ele>
        <time>2022-06-21T08:31:40Z</time>
      </trkpt>
      <trkpt lat="43.40258" lon="2.64446">
        <ele>572.2</ele>
        <time>2022-06-21T08:31:41Z</time>
      </trkpt>
      <trkpt lat="43.40258" lon="2.64446">
        <ele>572.2</ele>
        <time>2022-06-21T08:31:42Z</time>
      </trkpt>
      <trkpt lat="43.40259" lon="2.64446">
        <ele>572.2</ele>
        <time>2022-06-21T08:31:43Z</time>
      </trkpt>
      <trkpt lat="43.40259" lon="2.64446">
        <ele>572.3</ele>
        <time>2022-06-21T08:31:44Z</time>
      </trkpt>
      <trkpt lat="43.4026" lon="2.64446">
        <ele>572.4</ele>
        <time>2022-06-21T08:31:45Z</time>
      </trkpt>
      <trkpt lat="43.40261" lon="2.64447">
        <ele>572.5</ele>
        <time>2022-06-21T08:31:46Z</time>
      </trkpt>
      <trkpt lat="43.40261" lon="2.64447">
        <ele>572.6</ele>
        <time>2022-06-21T08:31:47Z</time>
      </trkpt>
      <trkpt lat="43.40262" lon="2.64447">
        <ele>572.7</ele>
        <time>2022-06-21T08:31:48Z</time>
      </trkpt>
      <trkpt lat="43.40263" lon="2.64447">
        <ele>572.8</ele>
        <time>2022-06-21T08:31:49Z</time>
      </trkpt>
      <trkpt lat="43.40263" lon="2.64447">
        <ele>572.9</ele>
        <time>2022-06-21T08:31:50Z</time>
      </trkpt>
      <trkpt lat="43.40264" lon="2.64448">
        <ele>573</ele>
        <time>2022-06-21T08:31:51Z</time>
      </trkpt>
      <trkpt lat="43.40265" lon="2.64448">
        <ele>573.1</ele>
        <time>2022-06-21T08:31:52Z</time>
      </trkpt>
      <trkpt lat="43.40266" lon="2.64448">
        <ele>573.2</ele>
        <time>2022-06-21T08:31:53Z</time>
      </trkpt>
      <trkpt lat="43.40266" lon="2.64448">
        <ele>573.2</ele>
        <time>2022-06-21T08:31:54Z</time>
      </trkpt>
      <trkpt lat="43.40267" lon="2.64448">
        <ele>573.3</ele>
        <time>2022-06-21T08:31:55Z</time>
      </trkpt>
      <trkpt lat="43.40267" lon="2.64448">
        <ele>573.3</ele>
        <time>2022-06-21T08:31:56Z</time>
      </trkpt>
      <trkpt lat="43.40267" lon="2.64448">
        <ele>573.4</ele>
        <time>2022-06-21T08:31:57Z</time>
      </trkpt>
      <trkpt lat="43.40268" lon="2.64448">
        <ele>573.5</ele>
        <time>2022-06-21T08:31:58Z</time>
      </trkpt>
      <trkpt lat="43.40269" lon="2.64448">
        <ele>573.6</ele>
        <time>2022-06-21T08:31:59Z</time>
      </trkpt>
      <trkpt lat="43.40269" lon="2.64448">
        <ele>573.7</ele>
        <time>2022-06-21T08:32:00Z</time>
      </trkpt>
      <trkpt lat="43.4027" lon="2.64449">
        <ele>573.8</ele>
        <time>2022-06-21T08:32:01Z</time>
      </trkpt>
      <trkpt lat="43.40271" lon="2.64449">
        <ele>573.9</ele>
        <time>2022-06-21T08:32:02Z</time>
      </trkpt>
      <trkpt lat="43.40272" lon="2.64449">
        <ele>574.1</ele>
        <time>2022-06-21T08:32:03Z</time>
      </trkpt>
      <trkpt lat="43.40273" lon="2.6445">
        <ele>574.2</ele>
        <time>2022-06-21T08:32:04Z</time>
      </trkpt>
      <trkpt lat="43.40274" lon="2.6445">
        <ele>574.3</ele>
        <time>2022-06-21T08:32:05Z</time>
      </trkpt>
      <trkpt lat="43.40275" lon="2.6445">
        <ele>574.4</ele>
        <time>2022-06-21T08:32:06Z</time>
      </trkpt>
      <trkpt lat="43.40275" lon="2.6445">
        <ele>574.6</ele>
        <time>2022-06-21T08:32:07Z</time>
      </trkpt>
      <trkpt lat="43.40276" lon="2.6445">
        <ele>574.7</ele>
        <time>2022-06-21T08:32:08Z</time>
      </trkpt>
      <trkpt lat="43.40277" lon="2.64449">
        <ele>574.8</ele>
        <time>2022-06-21T08:32:09Z</time>
      </trkpt>
      <trkpt lat="43.40278" lon="2.64449">
        <ele>574.9</ele>
        <time>2022-06-21T08:32:10Z</time>
      </trkpt>
      <trkpt lat="43.40279" lon="2.64449">
        <ele>575</ele>
        <time>2022-06-21T08:32:11Z</time>
      </trkpt>
      <trkpt lat="43.40279" lon="2.64449">
        <ele>575.2</ele>
        <time>2022-06-21T08:32:12Z</time>
      </trkpt>
      <trkpt lat="43.4028" lon="2.64448">
        <ele>575.3</ele>
        <time>2022-06-21T08:32:13Z</time>
      </trkpt>
      <trkpt lat="43.40282" lon="2.64448">
        <ele>575.5</ele>
        <time>2022-06-21T08:32:14Z</time>
      </trkpt>
      <trkpt lat="43.40282" lon="2.64447">
        <ele>575.6</ele>
        <time>2022-06-21T08:32:15Z</time>
      </trkpt>
      <trkpt lat="43.40283" lon="2.64447">
        <ele>575.7</ele>
        <time>2022-06-21T08:32:16Z</time>
      </trkpt>
      <trkpt lat="43.40284" lon="2.64447">
        <ele>575.8</ele>
        <time>2022-06-21T08:32:17Z</time>
      </trkpt>
      <trkpt lat="43.40284" lon="2.64446">
        <ele>575.9</ele>
        <time>2022-06-21T08:32:18Z</time>
      </trkpt>
      <trkpt lat="43.40285" lon="2.64446">
        <ele>576</ele>
        <time>2022-06-21T08:32:19Z</time>
      </trkpt>
      <trkpt lat="43.40285" lon="2.64445">
        <ele>576.2</ele>
        <time>2022-06-21T08:32:20Z</time>
      </trkpt>
      <trkpt lat="43.40286" lon="2.64444">
        <ele>576.3</ele>
        <time>2022-06-21T08:32:21Z</time>
      </trkpt>
      <trkpt lat="43.40286" lon="2.64444">
        <ele>576.4</ele>
        <time>2022-06-21T08:32:22Z</time>
      </trkpt>
      <trkpt lat="43.40287" lon="2.64444">
        <ele>576.4</ele>
        <time>2022-06-21T08:32:23Z</time>
      </trkpt>
      <trkpt lat="43.40287" lon="2.64443">
        <ele>576.5</ele>
        <time>2022-06-21T08:32:24Z</time>
      </trkpt>
      <trkpt lat="43.40287" lon="2.64444">
        <ele>576.5</ele>
        <time>2022-06-21T08:32:25Z</time>
      </trkpt>
      <trkpt lat="43.40287" lon="2.64444">
        <ele>576.5</ele>
        <time>2022-06-21T08:32:26Z</time>
      </trkpt>
      <trkpt lat="43.40287" lon="2.64444">
        <ele>576.5</ele>
        <time>2022-06-21T08:32:27Z</time>
      </trkpt>
      <trkpt lat="43.40287" lon="2.64444">
        <ele>576.5</ele>
        <time>2022-06-21T08:32:28Z</time>
      </trkpt>
      <trkpt lat="43.40288" lon="2.64444">
        <ele>576.6</ele>
        <time>2022-06-21T08:32:29Z</time>
      </trkpt>
      <trkpt lat="43.40288" lon="2.64443">
        <ele>576.6</ele>
        <time>2022-06-21T08:32:30Z</time>
      </trkpt>
      <trkpt lat="43.40288" lon="2.64443">
        <ele>576.7</ele>
        <time>2022-06-21T08:32:31Z</time>
      </trkpt>
      <trkpt lat="43.40289" lon="2.64443">
        <ele>576.8</ele>
        <time>2022-06-21T08:32:32Z</time>
      </trkpt>
      <trkpt lat="43.4029" lon="2.64443">
        <ele>576.9</ele>
        <time>2022-06-21T08:32:33Z</time>
      </trkpt>
      <trkpt lat="43.4029" lon="2.64443">
        <ele>577.1</ele>
        <time>2022-06-21T08:32:34Z</time>
      </trkpt>
      <trkpt lat="43.40291" lon="2.64443">
        <ele>577.2</ele>
        <time>2022-06-21T08:32:35Z</time>
      </trkpt>
      <trkpt lat="43.40292" lon="2.64442">
        <ele>577.3</ele>
        <time>2022-06-21T08:32:36Z</time>
      </trkpt>
      <trkpt lat="43.40293" lon="2.64442">
        <ele>577.5</ele>
        <time>2022-06-21T08:32:37Z</time>
      </trkpt>
      <trkpt lat="43.40294" lon="2.64442">
        <ele>577.6</ele>
        <time>2022-06-21T08:32:38Z</time>
      </trkpt>
      <trkpt lat="43.40294" lon="2.64442">
        <ele>577.8</ele>
        <time>2022-06-21T08:32:39Z</time>
      </trkpt>
      <trkpt lat="43.40296" lon="2.64441">
        <ele>578</ele>
        <time>2022-06-21T08:32:40Z</time>
      </trkpt>
      <trkpt lat="43.40296" lon="2.64441">
        <ele>578.2</ele>
        <time>2022-06-21T08:32:41Z</time>
      </trkpt>
      <trkpt lat="43.40298" lon="2.6444">
        <ele>578.4</ele>
        <time>2022-06-21T08:32:42Z</time>
      </trkpt>
      <trkpt lat="43.40298" lon="2.6444">
        <ele>578.5</ele>
        <time>2022-06-21T08:32:43Z</time>
      </trkpt>
      <trkpt lat="43.40299" lon="2.6444">
        <ele>578.7</ele>
        <time>2022-06-21T08:32:44Z</time>
      </trkpt>
      <trkpt lat="43.403" lon="2.64439">
        <ele>578.9</ele>
        <time>2022-06-21T08:32:45Z</time>
      </trkpt>
      <trkpt lat="43.40301" lon="2.64439">
        <ele>579</ele>
        <time>2022-06-21T08:32:46Z</time>
      </trkpt>
      <trkpt lat="43.40302" lon="2.64439">
        <ele>579.2</ele>
        <time>2022-06-21T08:32:47Z</time>
      </trkpt>
      <trkpt lat="43.40303" lon="2.64439">
        <ele>579.3</ele>
        <time>2022-06-21T08:32:48Z</time>
      </trkpt>
      <trkpt lat="43.40303" lon="2.64439">
        <ele>579.4</ele>
        <time>2022-06-21T08:32:49Z</time>
      </trkpt>
      <trkpt lat="43.40304" lon="2.64439">
        <ele>579.5</ele>
        <time>2022-06-21T08:32:50Z</time>
      </trkpt>
      <trkpt lat="43.40304" lon="2.64439">
        <ele>579.5</ele>
        <time>2022-06-21T08:32:51Z</time>
      </trkpt>
      <trkpt lat="43.40304" lon="2.64439">
        <ele>579.5</ele>
        <time>2022-06-21T08:32:52Z</time>
      </trkpt>
      <trkpt lat="43.40304" lon="2.64439">
        <ele>579.6</ele>
        <time>2022-06-21T08:32:53Z</time>
      </trkpt>
      <trkpt lat="43.40305" lon="2.64439">
        <ele>579.7</ele>
        <time>2022-06-21T08:32:54Z</time>
      </trkpt>
      <trkpt lat="43.40306" lon="2.6444">
        <ele>579.8</ele>
        <time>2022-06-21T08:32:55Z</time>
      </trkpt>
      <trkpt lat="43.40306" lon="2.6444">
        <ele>579.9</ele>
        <time>2022-06-21T08:32:56Z</time>
      </trkpt>
      <trkpt lat="43.40307" lon="2.6444">
        <ele>580.1</ele>
        <time>2022-06-21T08:32:57Z</time>
      </trkpt>
      <trkpt lat="43.40309" lon="2.6444">
        <ele>580.3</ele>
        <time>2022-06-21T08:32:58Z</time>
      </trkpt>
      <trkpt lat="43.40309" lon="2.6444">
        <ele>580.4</ele>
        <time>2022-06-21T08:32:59Z</time>
      </trkpt>
      <trkpt lat="43.4031" lon="2.6444">
        <ele>580.6</ele>
        <time>2022-06-21T08:33:00Z</time>
      </trkpt>
      <trkpt lat="43.40311" lon="2.6444">
        <ele>580.7</ele>
        <time>2022-06-21T08:33:01Z</time>
      </trkpt>
      <trkpt lat="43.40312" lon="2.6444">
        <ele>580.8</ele>
        <time>2022-06-21T08:33:02Z</time>
      </trkpt>
      <trkpt lat="43.40313" lon="2.6444">
        <ele>580.9</ele>
        <time>2022-06-21T08:33:03Z</time>
      </trkpt>
      <trkpt lat="43.40313" lon="2.6444">
        <ele>581</ele>
        <time>2022-06-21T08:33:04Z</time>
      </trkpt>
      <trkpt lat="43.40313" lon="2.6444">
        <ele>581.1</ele>
        <time>2022-06-21T08:33:05Z</time>
      </trkpt>
      <trkpt lat="43.40314" lon="2.6444">
        <ele>581.2</ele>
        <time>2022-06-21T08:33:06Z</time>
      </trkpt>
      <trkpt lat="43.40315" lon="2.6444">
        <ele>581.3</ele>
        <time>2022-06-21T08:33:07Z</time>
      </trkpt>
      <trkpt lat="43.40316" lon="2.64439">
        <ele>581.5</ele>
        <time>2022-06-21T08:33:08Z</time>
      </trkpt>
      <trkpt lat="43.40317" lon="2.64439">
        <ele>581.7</ele>
        <time>2022-06-21T08:33:09Z</time>
      </trkpt>
      <trkpt lat="43.40318" lon="2.64438">
        <ele>581.8</ele>
        <time>2022-06-21T08:33:10Z</time>
      </trkpt>
      <trkpt lat="43.40319" lon="2.64438">
        <ele>582</ele>
        <time>2022-06-21T08:33:11Z</time>
      </trkpt>
      <trkpt lat="43.4032" lon="2.64437">
        <ele>582.1</ele>
        <time>2022-06-21T08:33:12Z</time>
      </trkpt>
      <trkpt lat="43.4032" lon="2.64437">
        <ele>582.2</ele>
        <time>2022-06-21T08:33:13Z</time>
      </trkpt>
      <trkpt lat="43.40321" lon="2.64437">
        <ele>582.4</ele>
        <time>2022-06-21T08:33:14Z</time>
      </trkpt>
      <trkpt lat="43.40322" lon="2.64437">
        <ele>582.5</ele>
        <time>2022-06-21T08:33:15Z</time>
      </trkpt>
      <trkpt lat="43.40322" lon="2.64436">
        <ele>582.6</ele>
        <time>2022-06-21T08:33:16Z</time>
      </trkpt>
      <trkpt lat="43.40323" lon="2.64436">
        <ele>582.7</ele>
        <time>2022-06-21T08:33:17Z</time>
      </trkpt>
      <trkpt lat="43.40324" lon="2.64435">
        <ele>582.8</ele>
        <time>2022-06-21T08:33:18Z</time>
      </trkpt>
      <trkpt lat="43.40324" lon="2.64435">
        <ele>582.9</ele>
        <time>2022-06-21T08:33:19Z</time>
      </trkpt>
      <trkpt lat="43.40324" lon="2.64435">
        <ele>583</ele>
        <time>2022-06-21T08:33:20Z</time>
      </trkpt>
      <trkpt lat="43.40325" lon="2.64435">
        <ele>583.1</ele>
        <time>2022-06-21T08:33:21Z</time>
      </trkpt>
      <trkpt lat="43.40326" lon="2.64434">
        <ele>583.2</ele>
        <time>2022-06-21T08:33:22Z</time>
      </trkpt>
      <trkpt lat="43.40326" lon="2.64434">
        <ele>583.4</ele>
        <time>2022-06-21T08:33:23Z</time>
      </trkpt>
      <trkpt lat="43.40327" lon="2.64434">
        <ele>583.5</ele>
        <time>2022-06-21T08:33:24Z</time>
      </trkpt>
      <trkpt lat="43.40327" lon="2.64434">
        <ele>583.6</ele>
        <time>2022-06-21T08:33:25Z</time>
      </trkpt>
      <trkpt lat="43.40328" lon="2.64434">
        <ele>583.6</ele>
        <time>2022-06-21T08:33:26Z</time>
      </trkpt>
      <trkpt lat="43.40328" lon="2.64433">
        <ele>583.7</ele>
        <time>2022-06-21T08:33:27Z</time>
      </trkpt>
      <trkpt lat="43.40328" lon="2.64433">
        <ele>583.8</ele>
        <time>2022-06-21T08:33:28Z</time>
      </trkpt>
      <trkpt lat="43.40329" lon="2.64433">
        <ele>583.9</ele>
        <time>2022-06-21T08:33:29Z</time>
      </trkpt>
      <trkpt lat="43.4033" lon="2.64433">
        <ele>584.1</ele>
        <time>2022-06-21T08:33:30Z</time>
      </trkpt>
      <trkpt lat="43.40331" lon="2.64432">
        <ele>584.2</ele>
        <time>2022-06-21T08:33:31Z</time>
      </trkpt>
      <trkpt lat="43.40332" lon="2.64432">
        <ele>584.4</ele>
        <time>2022-06-21T08:33:32Z</time>
      </trkpt>
      <trkpt lat="43.40332" lon="2.64431">
        <ele>584.6</ele>
        <time>2022-06-21T08:33:33Z</time>
      </trkpt>
      <trkpt lat="43.40333" lon="2.64431">
        <ele>584.7</ele>
        <time>2022-06-21T08:33:34Z</time>
      </trkpt>
      <trkpt lat="43.40334" lon="2.64431">
        <ele>584.9</ele>
        <time>2022-06-21T08:33:35Z</time>
      </trkpt>
      <trkpt lat="43.40335" lon="2.64431">
        <ele>585.1</ele>
        <time>2022-06-21T08:33:36Z</time>
      </trkpt>
      <trkpt lat="43.40336" lon="2.6443">
        <ele>585.3</ele>
        <time>2022-06-21T08:33:37Z</time>
      </trkpt>
      <trkpt lat="43.40336" lon="2.6443">
        <ele>585.4</ele>
        <time>2022-06-21T08:33:38Z</time>
      </trkpt>
      <trkpt lat="43.40337" lon="2.64429">
        <ele>585.6</ele>
        <time>2022-06-21T08:33:39Z</time>
      </trkpt>
      <trkpt lat="43.40338" lon="2.64428">
        <ele>585.7</ele>
        <time>2022-06-21T08:33:40Z</time>
      </trkpt>
      <trkpt lat="43.40338" lon="2.64428">
        <ele>585.8</ele>
        <time>2022-06-21T08:33:41Z</time>
      </trkpt>
      <trkpt lat="43.40339" lon="2.64428">
        <ele>585.9</ele>
        <time>2022-06-21T08:33:42Z</time>
      </trkpt>
      <trkpt lat="43.40339" lon="2.64427">
        <ele>586</ele>
        <time>2022-06-21T08:33:43Z</time>
      </trkpt>
      <trkpt lat="43.40339" lon="2.64427">
        <ele>586.1</ele>
        <time>2022-06-21T08:33:44Z</time>
      </trkpt>
      <trkpt lat="43.4034" lon="2.64426">
        <ele>586.2</ele>
        <time>2022-06-21T08:33:45Z</time>
      </trkpt>
      <trkpt lat="43.4034" lon="2.64426">
        <ele>586.3</ele>
        <time>2022-06-21T08:33:46Z</time>
      </trkpt>
      <trkpt lat="43.40341" lon="2.64426">
        <ele>586.4</ele>
        <time>2022-06-21T08:33:47Z</time>
      </trkpt>
      <trkpt lat="43.40341" lon="2.64425">
        <ele>586.5</ele>
        <time>2022-06-21T08:33:48Z</time>
      </trkpt>
      <trkpt lat="43.40342" lon="2.64425">
        <ele>586.6</ele>
        <time>2022-06-21T08:33:49Z</time>
      </trkpt>
      <trkpt lat="43.40342" lon="2.64425">
        <ele>586.7</ele>
        <time>2022-06-21T08:33:50Z</time>
      </trkpt>
      <trkpt lat="43.40343" lon="2.64425">
        <ele>586.8</ele>
        <time>2022-06-21T08:33:51Z</time>
      </trkpt>
      <trkpt lat="43.40343" lon="2.64424">
        <ele>586.9</ele>
        <time>2022-06-21T08:33:52Z</time>
      </trkpt>
      <trkpt lat="43.40344" lon="2.64424">
        <ele>587</ele>
        <time>2022-06-21T08:33:53Z</time>
      </trkpt>
      <trkpt lat="43.40344" lon="2.64424">
        <ele>587.2</ele>
        <time>2022-06-21T08:33:54Z</time>
      </trkpt>
      <trkpt lat="43.40345" lon="2.64424">
        <ele>587.3</ele>
        <time>2022-06-21T08:33:55Z</time>
      </trkpt>
      <trkpt lat="43.40345" lon="2.64423">
        <ele>587.4</ele>
        <time>2022-06-21T08:33:56Z</time>
      </trkpt>
      <trkpt lat="43.40346" lon="2.64423">
        <ele>587.5</ele>
        <time>2022-06-21T08:33:57Z</time>
      </trkpt>
      <trkpt lat="43.40346" lon="2.64423">
        <ele>587.6</ele>
        <time>2022-06-21T08:33:58Z</time>
      </trkpt>
      <trkpt lat="43.40347" lon="2.64423">
        <ele>587.7</ele>
        <time>2022-06-21T08:33:59Z</time>
      </trkpt>
      <trkpt lat="43.40347" lon="2.64423">
        <ele>587.7</ele>
        <time>2022-06-21T08:34:00Z</time>
      </trkpt>
      <trkpt lat="43.40347" lon="2.64423">
        <ele>587.7</ele>
        <time>2022-06-21T08:34:01Z</time>
      </trkpt>
      <trkpt lat="43.40347" lon="2.64423">
        <ele>587.7</ele>
        <time>2022-06-21T08:34:02Z</time>
      </trkpt>
      <trkpt lat="43.40348" lon="2.64422">
        <ele>587.9</ele>
        <time>2022-06-21T08:34:03Z</time>
      </trkpt>
      <trkpt lat="43.40348" lon="2.64422">
        <ele>588</ele>
        <time>2022-06-21T08:34:04Z</time>
      </trkpt>
      <trkpt lat="43.40349" lon="2.64422">
        <ele>588.1</ele>
        <time>2022-06-21T08:34:05Z</time>
      </trkpt>
      <trkpt lat="43.4035" lon="2.64422">
        <ele>588.3</ele>
        <time>2022-06-21T08:34:06Z</time>
      </trkpt>
      <trkpt lat="43.4035" lon="2.64422">
        <ele>588.4</ele>
        <time>2022-06-21T08:34:07Z</time>
      </trkpt>
      <trkpt lat="43.40351" lon="2.64422">
        <ele>588.5</ele>
        <time>2022-06-21T08:34:08Z</time>
      </trkpt>
      <trkpt lat="43.40351" lon="2.64422">
        <ele>588.5</ele>
        <time>2022-06-21T08:34:09Z</time>
      </trkpt>
      <trkpt lat="43.40351" lon="2.64422">
        <ele>588.6</ele>
        <time>2022-06-21T08:34:10Z</time>
      </trkpt>
      <trkpt lat="43.40352" lon="2.64421">
        <ele>588.7</ele>
        <time>2022-06-21T08:34:11Z</time>
      </trkpt>
      <trkpt lat="43.40352" lon="2.64421">
        <ele>588.8</ele>
        <time>2022-06-21T08:34:12Z</time>
      </trkpt>
      <trkpt lat="43.40353" lon="2.64421">
        <ele>588.9</ele>
        <time>2022-06-21T08:34:13Z</time>
      </trkpt>
      <trkpt lat="43.40353" lon="2.64421">
        <ele>588.9</ele>
        <time>2022-06-21T08:34:14Z</time>
      </trkpt>
      <trkpt lat="43.40353" lon="2.64421">
        <ele>588.9</ele>
        <time>2022-06-21T08:34:15Z</time>
      </trkpt>
      <trkpt lat="43.40353" lon="2.64421">
        <ele>588.9</ele>
        <time>2022-06-21T08:34:16Z</time>
      </trkpt>
      <trkpt lat="43.40353" lon="2.64421">
        <ele>588.9</ele>
        <time>2022-06-21T08:34:17Z</time>
      </trkpt>
      <trkpt lat="43.40353" lon="2.64421">
        <ele>588.9</ele>
        <time>2022-06-21T08:34:18Z</time>
      </trkpt>
      <trkpt lat="43.40353" lon="2.64421">
        <ele>589</ele>
        <time>2022-06-21T08:34:19Z</time>
      </trkpt>
      <trkpt lat="43.40353" lon="2.64421">
        <ele>589</ele>
        <time>2022-06-21T08:34:20Z</time>
      </trkpt>
      <trkpt lat="43.40353" lon="2.64421">
        <ele>589</ele>
        <time>2022-06-21T08:34:21Z</time>
      </trkpt>
      <trkpt lat="43.40353" lon="2.64421">
        <ele>589</ele>
        <time>2022-06-21T08:34:22Z</time>
      </trkpt>
      <trkpt lat="43.40353" lon="2.64421">
        <ele>589</ele>
        <time>2022-06-21T08:34:23Z</time>
      </trkpt>
      <trkpt lat="43.40353" lon="2.64421">
        <ele>589</ele>
        <time>2022-06-21T08:34:24Z</time>
      </trkpt>
      <trkpt lat="43.40353" lon="2.64421">
        <ele>589</ele>
        <time>2022-06-21T08:34:25Z</time>
      </trkpt>
      <trkpt lat="43.40353" lon="2.64421">
        <ele>589</ele>
        <time>2022-06-21T08:34:26Z</time>
      </trkpt>
      <trkpt lat="43.40353" lon="2.64421">
        <ele>589</ele>
        <time>2022-06-21T08:34:27Z</time>
      </trkpt>
      <trkpt lat="43.40353" lon="2.64421">
        <ele>589</ele>
        <time>2022-06-21T08:34:28Z</time>
      </trkpt>
      <trkpt lat="43.40353" lon="2.64421">
        <ele>589</ele>
        <time>2022-06-21T08:34:29Z</time>
      </trkpt>
      <trkpt lat="43.40353" lon="2.64421">
        <ele>589</ele>
        <time>2022-06-21T08:34:30Z</time>
      </trkpt>
      <trkpt lat="43.40353" lon="2.64421">
        <ele>589</ele>
        <time>2022-06-21T08:34:31Z</time>
      </trkpt>
      <trkpt lat="43.40353" lon="2.64421">
        <ele>589</ele>
        <time>2022-06-21T08:34:32Z</time>
      </trkpt>
      <trkpt lat="43.40353" lon="2.64421">
        <ele>589</ele>
        <time>2022-06-21T08:34:33Z</time>
      </trkpt>
      <trkpt lat="43.40353" lon="2.64421">
        <ele>589</ele>
        <time>2022-06-21T08:34:34Z</time>
      </trkpt>
      <trkpt lat="43.40353" lon="2.64421">
        <ele>589</ele>
        <time>2022-06-21T08:34:35Z</time>
      </trkpt>
      <trkpt lat="43.40353" lon="2.64421">
        <ele>589</ele>
        <time>2022-06-21T08:34:36Z</time>
      </trkpt>
      <trkpt lat="43.40353" lon="2.64421">
        <ele>589</ele>
        <time>2022-06-21T08:34:37Z</time>
      </trkpt>
      <trkpt lat="43.40353" lon="2.64421">
        <ele>589</ele>
        <time>2022-06-21T08:34:38Z</time>
      </trkpt>
      <trkpt lat="43.40353" lon="2.64421">
        <ele>589</ele>
        <time>2022-06-21T08:34:39Z</time>
      </trkpt>
      <trkpt lat="43.40353" lon="2.64421">
        <ele>589</ele>
        <time>2022-06-21T08:34:40Z</time>
      </trkpt>
      <trkpt lat="43.40353" lon="2.64421">
        <ele>589</ele>
        <time>2022-06-21T08:34:41Z</time>
      </trkpt>
      <trkpt lat="43.40353" lon="2.64421">
        <ele>589</ele>
        <time>2022-06-21T08:34:42Z</time>
      </trkpt>
      <trkpt lat="43.40353" lon="2.64421">
        <ele>589</ele>
        <time>2022-06-21T08:34:43Z</time>
      </trkpt>
      <trkpt lat="43.40353" lon="2.64421">
        <ele>589</ele>
        <time>2022-06-21T08:34:44Z</time>
      </trkpt>
      <trkpt lat="43.40353" lon="2.64421">
        <ele>589</ele>
        <time>2022-06-21T08:34:45Z</time>
      </trkpt>
      <trkpt lat="43.40353" lon="2.64421">
        <ele>589</ele>
        <time>2022-06-21T08:34:46Z</time>
      </trkpt>
      <trkpt lat="43.40353" lon="2.64421">
        <ele>589</ele>
        <time>2022-06-21T08:34:47Z</time>
      </trkpt>
      <trkpt lat="43.40353" lon="2.64421">
        <ele>589</ele>
        <time>2022-06-21T08:34:48Z</time>
      </trkpt>
      <trkpt lat="43.40353" lon="2.64421">
        <ele>589</ele>
        <time>2022-06-21T08:34:49Z</time>
      </trkpt>
      <trkpt lat="43.40353" lon="2.64421">
        <ele>589</ele>
        <time>2022-06-21T08:34:50Z</time>
      </trkpt>
      <trkpt lat="43.40353" lon="2.64421">
        <ele>589</ele>
        <time>2022-06-21T08:34:51Z</time>
      </trkpt>
      <trkpt lat="43.40353" lon="2.64421">
        <ele>589</ele>
        <time>2022-06-21T08:34:52Z</time>
      </trkpt>
      <trkpt lat="43.40353" lon="2.64421">
        <ele>589</ele>
        <time>2022-06-21T08:34:53Z</time>
      </trkpt>
      <trkpt lat="43.40353" lon="2.64421">
        <ele>589</ele>
        <time>2022-06-21T08:34:54Z</time>
      </trkpt>
      <trkpt lat="43.40353" lon="2.64421">
        <ele>589</ele>
        <time>2022-06-21T08:34:55Z</time>
      </trkpt>
      <trkpt lat="43.40353" lon="2.64421">
        <ele>589</ele>
        <time>2022-06-21T08:34:56Z</time>
      </trkpt>
      <trkpt lat="43.40353" lon="2.64421">
        <ele>589</ele>
        <time>2022-06-21T08:34:57Z</time>
      </trkpt>
      <trkpt lat="43.40353" lon="2.64421">
        <ele>589</ele>
        <time>2022-06-21T08:34:58Z</time>
      </trkpt>
      <trkpt lat="43.40353" lon="2.64421">
        <ele>589</ele>
        <time>2022-06-21T08:34:59Z</time>
      </trkpt>
      <trkpt lat="43.40353" lon="2.64421">
        <ele>589</ele>
        <time>2022-06-21T08:35:00Z</time>
      </trkpt>
      <trkpt lat="43.40353" lon="2.64421">
        <ele>589</ele>
        <time>2022-06-21T08:35:01Z</time>
      </trkpt>
      <trkpt lat="43.40353" lon="2.64421">
        <ele>589</ele>
        <time>2022-06-21T08:35:02Z</time>
      </trkpt>
      <trkpt lat="43.40353" lon="2.64421">
        <ele>589</ele>
        <time>2022-06-21T08:35:03Z</time>
      </trkpt>
      <trkpt lat="43.40353" lon="2.64421">
        <ele>589</ele>
        <time>2022-06-21T08:35:04Z</time>
      </trkpt>
      <trkpt lat="43.40353" lon="2.64421">
        <ele>589</ele>
        <time>2022-06-21T08:35:05Z</time>
      </trkpt>
      <trkpt lat="43.40353" lon="2.64421">
        <ele>589</ele>
        <time>2022-06-21T08:35:06Z</time>
      </trkpt>
      <trkpt lat="43.40353" lon="2.64421">
        <ele>589</ele>
        <time>2022-06-21T08:35:07Z</time>
      </trkpt>
      <trkpt lat="43.40353" lon="2.64421">
        <ele>589</ele>
        <time>2022-06-21T08:35:08Z</time>
      </trkpt>
      <trkpt lat="43.40353" lon="2.64421">
        <ele>589</ele>
        <time>2022-06-21T08:35:09Z</time>
      </trkpt>
      <trkpt lat="43.40353" lon="2.64421">
        <ele>589</ele>
        <time>2022-06-21T08:35:10Z</time>
      </trkpt>
      <trkpt lat="43.40353" lon="2.64421">
        <ele>589</ele>
        <time>2022-06-21T08:35:11Z</time>
      </trkpt>
      <trkpt lat="43.40353" lon="2.64421">
        <ele>589</ele>
        <time>2022-06-21T08:35:12Z</time>
      </trkpt>
      <trkpt lat="43.40353" lon="2.64421">
        <ele>589</ele>
        <time>2022-06-21T08:35:13Z</time>
      </trkpt>
      <trkpt lat="43.40353" lon="2.64421">
        <ele>589</ele>
        <time>2022-06-21T08:35:14Z</time>
      </trkpt>
      <trkpt lat="43.40353" lon="2.64421">
        <ele>589.1</ele>
        <time>2022-06-21T08:35:15Z</time>
      </trkpt>
      <trkpt lat="43.40354" lon="2.64421">
        <ele>589.3</ele>
        <time>2022-06-21T08:35:16Z</time>
      </trkpt>
      <trkpt lat="43.40355" lon="2.64421">
        <ele>589.5</ele>
        <time>2022-06-21T08:35:17Z</time>
      </trkpt>
      <trkpt lat="43.40356" lon="2.64421">
        <ele>589.7</ele>
        <time>2022-06-21T08:35:18Z</time>
      </trkpt>
      <trkpt lat="43.40357" lon="2.64421">
        <ele>589.9</ele>
        <time>2022-06-21T08:35:19Z</time>
      </trkpt>
      <trkpt lat="43.40358" lon="2.64421">
        <ele>590.1</ele>
        <time>2022-06-21T08:35:20Z</time>
      </trkpt>
      <trkpt lat="43.40359" lon="2.64421">
        <ele>590.3</ele>
        <time>2022-06-21T08:35:21Z</time>
      </trkpt>
      <trkpt lat="43.4036" lon="2.64421">
        <ele>590.4</ele>
        <time>2022-06-21T08:35:22Z</time>
      </trkpt>
      <trkpt lat="43.4036" lon="2.64422">
        <ele>590.6</ele>
        <time>2022-06-21T08:35:23Z</time>
      </trkpt>
      <trkpt lat="43.40361" lon="2.64423">
        <ele>590.8</ele>
        <time>2022-06-21T08:35:24Z</time>
      </trkpt>
      <trkpt lat="43.40362" lon="2.64423">
        <ele>591</ele>
        <time>2022-06-21T08:35:25Z</time>
      </trkpt>
      <trkpt lat="43.40362" lon="2.64423">
        <ele>591.1</ele>
        <time>2022-06-21T08:35:26Z</time>
      </trkpt>
      <trkpt lat="43.40363" lon="2.64423">
        <ele>591.2</ele>
        <time>2022-06-21T08:35:27Z</time>
      </trkpt>
      <trkpt lat="43.40364" lon="2.64423">
        <ele>591.3</ele>
        <time>2022-06-21T08:35:28Z</time>
      </trkpt>
      <trkpt lat="43.40364" lon="2.64424">
        <ele>591.4</ele>
        <time>2022-06-21T08:35:29Z</time>
      </trkpt>
      <trkpt lat="43.40364" lon="2.64424">
        <ele>591.5</ele>
        <time>2022-06-21T08:35:30Z</time>
      </trkpt>
      <trkpt lat="43.40364" lon="2.64424">
        <ele>591.5</ele>
        <time>2022-06-21T08:35:31Z</time>
      </trkpt>
      <trkpt lat="43.40364" lon="2.64425">
        <ele>591.5</ele>
        <time>2022-06-21T08:35:32Z</time>
      </trkpt>
      <trkpt lat="43.40364" lon="2.64425">
        <ele>591.5</ele>
        <time>2022-06-21T08:35:33Z</time>
      </trkpt>
      <trkpt lat="43.40364" lon="2.64425">
        <ele>591.6</ele>
        <time>2022-06-21T08:35:34Z</time>
      </trkpt>
      <trkpt lat="43.40364" lon="2.64425">
        <ele>591.6</ele>
        <time>2022-06-21T08:35:35Z</time>
      </trkpt>
      <trkpt lat="43.40364" lon="2.64425">
        <ele>591.6</ele>
        <time>2022-06-21T08:35:36Z</time>
      </trkpt>
      <trkpt lat="43.40364" lon="2.64425">
        <ele>591.6</ele>
        <time>2022-06-21T08:35:37Z</time>
      </trkpt>
      <trkpt lat="43.40364" lon="2.64425">
        <ele>591.6</ele>
        <time>2022-06-21T08:35:38Z</time>
      </trkpt>
      <trkpt lat="43.40364" lon="2.64425">
        <ele>591.6</ele>
        <time>2022-06-21T08:35:39Z</time>
      </trkpt>
      <trkpt lat="43.40364" lon="2.64425">
        <ele>591.6</ele>
        <time>2022-06-21T08:35:40Z</time>
      </trkpt>
      <trkpt lat="43.40364" lon="2.64425">
        <ele>591.6</ele>
        <time>2022-06-21T08:35:41Z</time>
      </trkpt>
      <trkpt lat="43.40364" lon="2.64425">
        <ele>591.6</ele>
        <time>2022-06-21T08:35:42Z</time>
      </trkpt>
      <trkpt lat="43.40364" lon="2.64425">
        <ele>591.6</ele>
        <time>2022-06-21T08:35:43Z</time>
      </trkpt>
      <trkpt lat="43.40364" lon="2.64425">
        <ele>591.6</ele>
        <time>2022-06-21T08:35:44Z</time>
      </trkpt>
      <trkpt lat="43.40365" lon="2.64425">
        <ele>591.7</ele>
        <time>2022-06-21T08:35:45Z</time>
      </trkpt>
      <trkpt lat="43.40365" lon="2.64426">
        <ele>591.8</ele>
        <time>2022-06-21T08:35:46Z</time>
      </trkpt>
      <trkpt lat="43.40365" lon="2.64426">
        <ele>591.9</ele>
        <time>2022-06-21T08:35:47Z</time>
      </trkpt>
      <trkpt lat="43.40365" lon="2.64427">
        <ele>592</ele>
        <time>2022-06-21T08:35:48Z</time>
      </trkpt>
      <trkpt lat="43.40366" lon="2.64427">
        <ele>592.1</ele>
        <time>2022-06-21T08:35:49Z</time>
      </trkpt>
      <trkpt lat="43.40366" lon="2.64428">
        <ele>592.2</ele>
        <time>2022-06-21T08:35:50Z</time>
      </trkpt>
      <trkpt lat="43.40366" lon="2.64429">
        <ele>592.3</ele>
        <time>2022-06-21T08:35:51Z</time>
      </trkpt>
      <trkpt lat="43.40366" lon="2.64429">
        <ele>592.4</ele>
        <time>2022-06-21T08:35:52Z</time>
      </trkpt>
      <trkpt lat="43.40367" lon="2.64429">
        <ele>592.5</ele>
        <time>2022-06-21T08:35:53Z</time>
      </trkpt>
      <trkpt lat="43.40368" lon="2.6443">
        <ele>592.7</ele>
        <time>2022-06-21T08:35:54Z</time>
      </trkpt>
      <trkpt lat="43.40368" lon="2.6443">
        <ele>592.8</ele>
        <time>2022-06-21T08:35:55Z</time>
      </trkpt>
      <trkpt lat="43.40369" lon="2.6443">
        <ele>592.9</ele>
        <time>2022-06-21T08:35:56Z</time>
      </trkpt>
      <trkpt lat="43.40369" lon="2.64431">
        <ele>593</ele>
        <time>2022-06-21T08:35:57Z</time>
      </trkpt>
      <trkpt lat="43.4037" lon="2.64431">
        <ele>593.2</ele>
        <time>2022-06-21T08:35:58Z</time>
      </trkpt>
      <trkpt lat="43.40371" lon="2.64431">
        <ele>593.3</ele>
        <time>2022-06-21T08:35:59Z</time>
      </trkpt>
      <trkpt lat="43.40372" lon="2.64431">
        <ele>593.5</ele>
        <time>2022-06-21T08:36:00Z</time>
      </trkpt>
      <trkpt lat="43.40372" lon="2.64431">
        <ele>593.6</ele>
        <time>2022-06-21T08:36:01Z</time>
      </trkpt>
      <trkpt lat="43.40373" lon="2.64431">
        <ele>593.8</ele>
        <time>2022-06-21T08:36:02Z</time>
      </trkpt>
      <trkpt lat="43.40374" lon="2.6443">
        <ele>593.9</ele>
        <time>2022-06-21T08:36:03Z</time>
      </trkpt>
      <trkpt lat="43.40374" lon="2.6443">
        <ele>594</ele>
        <time>2022-06-21T08:36:04Z</time>
      </trkpt>
      <trkpt lat="43.40375" lon="2.6443">
        <ele>594.1</ele>
        <time>2022-06-21T08:36:05Z</time>
      </trkpt>
      <trkpt lat="43.40375" lon="2.64429">
        <ele>594.2</ele>
        <time>2022-06-21T08:36:06Z</time>
      </trkpt>
      <trkpt lat="43.40376" lon="2.64429">
        <ele>594.4</ele>
        <time>2022-06-21T08:36:07Z</time>
      </trkpt>
      <trkpt lat="43.40377" lon="2.64429">
        <ele>594.5</ele>
        <time>2022-06-21T08:36:08Z</time>
      </trkpt>
      <trkpt lat="43.40378" lon="2.64428">
        <ele>594.7</ele>
        <time>2022-06-21T08:36:09Z</time>
      </trkpt>
      <trkpt lat="43.40379" lon="2.64428">
        <ele>594.9</ele>
        <time>2022-06-21T08:36:10Z</time>
      </trkpt>
      <trkpt lat="43.40379" lon="2.64428">
        <ele>595</ele>
        <time>2022-06-21T08:36:11Z</time>
      </trkpt>
      <trkpt lat="43.4038" lon="2.64427">
        <ele>595.1</ele>
        <time>2022-06-21T08:36:12Z</time>
      </trkpt>
      <trkpt lat="43.40381" lon="2.64427">
        <ele>595.3</ele>
        <time>2022-06-21T08:36:13Z</time>
      </trkpt>
      <trkpt lat="43.40382" lon="2.64427">
        <ele>595.5</ele>
        <time>2022-06-21T08:36:14Z</time>
      </trkpt>
      <trkpt lat="43.40383" lon="2.64427">
        <ele>595.6</ele>
        <time>2022-06-21T08:36:15Z</time>
      </trkpt>
      <trkpt lat="43.40383" lon="2.64426">
        <ele>595.7</ele>
        <time>2022-06-21T08:36:16Z</time>
      </trkpt>
      <trkpt lat="43.40384" lon="2.64426">
        <ele>595.9</ele>
        <time>2022-06-21T08:36:17Z</time>
      </trkpt>
      <trkpt lat="43.40385" lon="2.64426">
        <ele>596</ele>
        <time>2022-06-21T08:36:18Z</time>
      </trkpt>
      <trkpt lat="43.40386" lon="2.64426">
        <ele>596.2</ele>
        <time>2022-06-21T08:36:19Z</time>
      </trkpt>
      <trkpt lat="43.40387" lon="2.64426">
        <ele>596.3</ele>
        <time>2022-06-21T08:36:20Z</time>
      </trkpt>
      <trkpt lat="43.40387" lon="2.64426">
        <ele>596.4</ele>
        <time>2022-06-21T08:36:21Z</time>
      </trkpt>
      <trkpt lat="43.40388" lon="2.64426">
        <ele>596.6</ele>
        <time>2022-06-21T08:36:22Z</time>
      </trkpt>
      <trkpt lat="43.40389" lon="2.64426">
        <ele>596.7</ele>
        <time>2022-06-21T08:36:23Z</time>
      </trkpt>
      <trkpt lat="43.4039" lon="2.64426">
        <ele>596.9</ele>
        <time>2022-06-21T08:36:24Z</time>
      </trkpt>
      <trkpt lat="43.40391" lon="2.64426">
        <ele>597</ele>
        <time>2022-06-21T08:36:25Z</time>
      </trkpt>
      <trkpt lat="43.40392" lon="2.64426">
        <ele>597.1</ele>
        <time>2022-06-21T08:36:26Z</time>
      </trkpt>
      <trkpt lat="43.40393" lon="2.64426">
        <ele>597.3</ele>
        <time>2022-06-21T08:36:27Z</time>
      </trkpt>
      <trkpt lat="43.40393" lon="2.64426">
        <ele>597.4</ele>
        <time>2022-06-21T08:36:28Z</time>
      </trkpt>
      <trkpt lat="43.40394" lon="2.64426">
        <ele>597.5</ele>
        <time>2022-06-21T08:36:29Z</time>
      </trkpt>
      <trkpt lat="43.40395" lon="2.64426">
        <ele>597.6</ele>
        <time>2022-06-21T08:36:30Z</time>
      </trkpt>
      <trkpt lat="43.40396" lon="2.64426">
        <ele>597.8</ele>
        <time>2022-06-21T08:36:31Z</time>
      </trkpt>
      <trkpt lat="43.40397" lon="2.64426">
        <ele>597.9</ele>
        <time>2022-06-21T08:36:32Z</time>
      </trkpt>
      <trkpt lat="43.40398" lon="2.64426">
        <ele>598.1</ele>
        <time>2022-06-21T08:36:33Z</time>
      </trkpt>
      <trkpt lat="43.40399" lon="2.64427">
        <ele>598.2</ele>
        <time>2022-06-21T08:36:34Z</time>
      </trkpt>
      <trkpt lat="43.40399" lon="2.64427">
        <ele>598.4</ele>
        <time>2022-06-21T08:36:35Z</time>
      </trkpt>
      <trkpt lat="43.404" lon="2.64427">
        <ele>598.5</ele>
        <time>2022-06-21T08:36:36Z</time>
      </trkpt>
      <trkpt lat="43.40401" lon="2.64427">
        <ele>598.6</ele>
        <time>2022-06-21T08:36:37Z</time>
      </trkpt>
      <trkpt lat="43.40402" lon="2.64428">
        <ele>598.7</ele>
        <time>2022-06-21T08:36:38Z</time>
      </trkpt>
      <trkpt lat="43.40403" lon="2.64428">
        <ele>598.9</ele>
        <time>2022-06-21T08:36:39Z</time>
      </trkpt>
      <trkpt lat="43.40404" lon="2.64428">
        <ele>599</ele>
        <time>2022-06-21T08:36:40Z</time>
      </trkpt>
      <trkpt lat="43.40405" lon="2.64429">
        <ele>599.2</ele>
        <time>2022-06-21T08:36:41Z</time>
      </trkpt>
      <trkpt lat="43.40406" lon="2.64429">
        <ele>599.3</ele>
        <time>2022-06-21T08:36:42Z</time>
      </trkpt>
      <trkpt lat="43.40407" lon="2.6443">
        <ele>599.5</ele>
        <time>2022-06-21T08:36:43Z</time>
      </trkpt>
      <trkpt lat="43.40407" lon="2.6443">
        <ele>599.6</ele>
        <time>2022-06-21T08:36:44Z</time>
      </trkpt>
      <trkpt lat="43.40408" lon="2.64431">
        <ele>599.7</ele>
        <time>2022-06-21T08:36:45Z</time>
      </trkpt>
      <trkpt lat="43.40409" lon="2.64431">
        <ele>599.8</ele>
        <time>2022-06-21T08:36:46Z</time>
      </trkpt>
      <trkpt lat="43.40409" lon="2.64432">
        <ele>599.9</ele>
        <time>2022-06-21T08:36:47Z</time>
      </trkpt>
      <trkpt lat="43.4041" lon="2.64432">
        <ele>600</ele>
        <time>2022-06-21T08:36:48Z</time>
      </trkpt>
      <trkpt lat="43.40411" lon="2.64432">
        <ele>600.1</ele>
        <time>2022-06-21T08:36:49Z</time>
      </trkpt>
      <trkpt lat="43.40411" lon="2.64432">
        <ele>600.2</ele>
        <time>2022-06-21T08:36:50Z</time>
      </trkpt>
      <trkpt lat="43.40411" lon="2.64432">
        <ele>600.2</ele>
        <time>2022-06-21T08:36:51Z</time>
      </trkpt>
      <trkpt lat="43.40412" lon="2.64432">
        <ele>600.3</ele>
        <time>2022-06-21T08:36:52Z</time>
      </trkpt>
      <trkpt lat="43.40412" lon="2.64432">
        <ele>600.3</ele>
        <time>2022-06-21T08:36:53Z</time>
      </trkpt>
      <trkpt lat="43.40412" lon="2.64433">
        <ele>600.3</ele>
        <time>2022-06-21T08:36:54Z</time>
      </trkpt>
      <trkpt lat="43.40411" lon="2.64433">
        <ele>600.3</ele>
        <time>2022-06-21T08:36:55Z</time>
      </trkpt>
      <trkpt lat="43.40411" lon="2.64433">
        <ele>600.3</ele>
        <time>2022-06-21T08:36:56Z</time>
      </trkpt>
      <trkpt lat="43.40412" lon="2.64433">
        <ele>600.3</ele>
        <time>2022-06-21T08:36:57Z</time>
      </trkpt>
      <trkpt lat="43.40412" lon="2.64433">
        <ele>600.3</ele>
        <time>2022-06-21T08:36:58Z</time>
      </trkpt>
      <trkpt lat="43.40412" lon="2.64433">
        <ele>600.3</ele>
        <time>2022-06-21T08:36:59Z</time>
      </trkpt>
      <trkpt lat="43.40412" lon="2.64433">
        <ele>600.3</ele>
        <time>2022-06-21T08:37:00Z</time>
      </trkpt>
      <trkpt lat="43.40411" lon="2.64433">
        <ele>600.3</ele>
        <time>2022-06-21T08:37:01Z</time>
      </trkpt>
      <trkpt lat="43.40411" lon="2.64433">
        <ele>600.3</ele>
        <time>2022-06-21T08:37:02Z</time>
      </trkpt>
      <trkpt lat="43.40411" lon="2.64433">
        <ele>600.3</ele>
        <time>2022-06-21T08:37:03Z</time>
      </trkpt>
      <trkpt lat="43.40411" lon="2.64433">
        <ele>600.4</ele>
        <time>2022-06-21T08:37:04Z</time>
      </trkpt>
      <trkpt lat="43.40411" lon="2.64433">
        <ele>600.4</ele>
        <time>2022-06-21T08:37:05Z</time>
      </trkpt>
      <trkpt lat="43.40411" lon="2.64433">
        <ele>600.4</ele>
        <time>2022-06-21T08:37:06Z</time>
      </trkpt>
      <trkpt lat="43.40411" lon="2.64433">
        <ele>600.4</ele>
        <time>2022-06-21T08:37:07Z</time>
      </trkpt>
      <trkpt lat="43.40411" lon="2.64433">
        <ele>600.4</ele>
        <time>2022-06-21T08:37:08Z</time>
      </trkpt>
      <trkpt lat="43.40411" lon="2.64433">
        <ele>600.4</ele>
        <time>2022-06-21T08:37:09Z</time>
      </trkpt>
      <trkpt lat="43.40411" lon="2.64433">
        <ele>600.4</ele>
        <time>2022-06-21T08:37:10Z</time>
      </trkpt>
      <trkpt lat="43.40411" lon="2.64433">
        <ele>600.4</ele>
        <time>2022-06-21T08:37:11Z</time>
      </trkpt>
      <trkpt lat="43.40411" lon="2.64433">
        <ele>600.4</ele>
        <time>2022-06-21T08:37:12Z</time>
      </trkpt>
      <trkpt lat="43.40411" lon="2.64433">
        <ele>600.4</ele>
        <time>2022-06-21T08:37:13Z</time>
      </trkpt>
      <trkpt lat="43.40411" lon="2.64433">
        <ele>600.4</ele>
        <time>2022-06-21T08:37:14Z</time>
      </trkpt>
      <trkpt lat="43.40411" lon="2.64433">
        <ele>600.4</ele>
        <time>2022-06-21T08:37:15Z</time>
      </trkpt>
      <trkpt lat="43.40411" lon="2.64433">
        <ele>600.4</ele>
        <time>2022-06-21T08:37:16Z</time>
      </trkpt>
      <trkpt lat="43.40411" lon="2.64433">
        <ele>600.4</ele>
        <time>2022-06-21T08:37:17Z</time>
      </trkpt>
      <trkpt lat="43.40411" lon="2.64433">
        <ele>600.4</ele>
        <time>2022-06-21T08:37:18Z</time>
      </trkpt>
      <trkpt lat="43.40411" lon="2.64433">
        <ele>600.4</ele>
        <time>2022-06-21T08:37:19Z</time>
      </trkpt>
      <trkpt lat="43.40411" lon="2.64433">
        <ele>600.4</ele>
        <time>2022-06-21T08:37:20Z</time>
      </trkpt>
      <trkpt lat="43.40411" lon="2.64433">
        <ele>600.4</ele>
        <time>2022-06-21T08:37:21Z</time>
      </trkpt>
      <trkpt lat="43.40411" lon="2.64433">
        <ele>600.4</ele>
        <time>2022-06-21T08:37:22Z</time>
      </trkpt>
      <trkpt lat="43.40411" lon="2.64433">
        <ele>600.4</ele>
        <time>2022-06-21T08:37:23Z</time>
      </trkpt>
      <trkpt lat="43.40411" lon="2.64433">
        <ele>600.4</ele>
        <time>2022-06-21T08:37:24Z</time>
      </trkpt>
      <trkpt lat="43.40411" lon="2.64433">
        <ele>600.4</ele>
        <time>2022-06-21T08:37:25Z</time>
      </trkpt>
      <trkpt lat="43.40411" lon="2.64433">
        <ele>600.4</ele>
        <time>2022-06-21T08:37:26Z</time>
      </trkpt>
      <trkpt lat="43.40411" lon="2.64433">
        <ele>600.4</ele>
        <time>2022-06-21T08:37:27Z</time>
      </trkpt>
      <trkpt lat="43.40411" lon="2.64433">
        <ele>600.4</ele>
        <time>2022-06-21T08:37:28Z</time>
      </trkpt>
      <trkpt lat="43.40411" lon="2.64433">
        <ele>600.4</ele>
        <time>2022-06-21T08:37:29Z</time>
      </trkpt>
      <trkpt lat="43.40411" lon="2.64433">
        <ele>600.4</ele>
        <time>2022-06-21T08:37:30Z</time>
      </trkpt>
      <trkpt lat="43.40411" lon="2.64433">
        <ele>600.4</ele>
        <time>2022-06-21T08:37:31Z</time>
      </trkpt>
      <trkpt lat="43.40411" lon="2.64433">
        <ele>600.4</ele>
        <time>2022-06-21T08:37:32Z</time>
      </trkpt>
      <trkpt lat="43.40411" lon="2.64433">
        <ele>600.4</ele>
        <time>2022-06-21T08:37:33Z</time>
      </trkpt>
      <trkpt lat="43.40411" lon="2.64433">
        <ele>600.4</ele>
        <time>2022-06-21T08:37:34Z</time>
      </trkpt>
      <trkpt lat="43.40411" lon="2.64433">
        <ele>600.4</ele>
        <time>2022-06-21T08:37:35Z</time>
      </trkpt>
      <trkpt lat="43.40411" lon="2.64433">
        <ele>600.4</ele>
        <time>2022-06-21T08:37:36Z</time>
      </trkpt>
      <trkpt lat="43.40411" lon="2.64433">
        <ele>600.4</ele>
        <time>2022-06-21T08:37:37Z</time>
      </trkpt>
      <trkpt lat="43.40411" lon="2.64433">
        <ele>600.4</ele>
        <time>2022-06-21T08:37:38Z</time>
      </trkpt>
      <trkpt lat="43.40411" lon="2.64433">
        <ele>600.4</ele>
        <time>2022-06-21T08:37:39Z</time>
      </trkpt>
      <trkpt lat="43.40411" lon="2.64433">
        <ele>600.4</ele>
        <time>2022-06-21T08:37:40Z</time>
      </trkpt>
      <trkpt lat="43.40411" lon="2.64433">
        <ele>600.4</ele>
        <time>2022-06-21T08:37:41Z</time>
      </trkpt>
      <trkpt lat="43.40411" lon="2.64433">
        <ele>600.4</ele>
        <time>2022-06-21T08:37:42Z</time>
      </trkpt>
      <trkpt lat="43.40411" lon="2.64433">
        <ele>600.4</ele>
        <time>2022-06-21T08:37:43Z</time>
      </trkpt>
      <trkpt lat="43.40411" lon="2.64433">
        <ele>600.4</ele>
        <time>2022-06-21T08:37:44Z</time>
      </trkpt>
      <trkpt lat="43.40411" lon="2.64433">
        <ele>600.4</ele>
        <time>2022-06-21T08:37:45Z</time>
      </trkpt>
      <trkpt lat="43.40411" lon="2.64433">
        <ele>600.4</ele>
        <time>2022-06-21T08:37:46Z</time>
      </trkpt>
      <trkpt lat="43.40411" lon="2.64433">
        <ele>600.4</ele>
        <time>2022-06-21T08:37:47Z</time>
      </trkpt>
      <trkpt lat="43.40411" lon="2.64433">
        <ele>600.4</ele>
        <time>2022-06-21T08:37:48Z</time>
      </trkpt>
      <trkpt lat="43.40411" lon="2.64433">
        <ele>600.4</ele>
        <time>2022-06-21T08:37:49Z</time>
      </trkpt>
      <trkpt lat="43.40411" lon="2.64433">
        <ele>600.4</ele>
        <time>2022-06-21T08:37:50Z</time>
      </trkpt>
      <trkpt lat="43.40411" lon="2.64433">
        <ele>600.4</ele>
        <time>2022-06-21T08:37:51Z</time>
      </trkpt>
      <trkpt lat="43.40411" lon="2.64433">
        <ele>600.4</ele>
        <time>2022-06-21T08:37:52Z</time>
      </trkpt>
      <trkpt lat="43.40411" lon="2.64433">
        <ele>600.4</ele>
        <time>2022-06-21T08:37:53Z</time>
      </trkpt>
      <trkpt lat="43.40411" lon="2.64433">
        <ele>600.4</ele>
        <time>2022-06-21T08:37:54Z</time>
      </trkpt>
      <trkpt lat="43.40411" lon="2.64433">
        <ele>600.4</ele>
        <time>2022-06-21T08:37:55Z</time>
      </trkpt>
      <trkpt lat="43.40411" lon="2.64433">
        <ele>600.4</ele>
        <time>2022-06-21T08:37:56Z</time>
      </trkpt>
      <trkpt lat="43.40411" lon="2.64433">
        <ele>600.4</ele>
        <time>2022-06-21T08:37:57Z</time>
      </trkpt>
      <trkpt lat="43.40411" lon="2.64433">
        <ele>600.4</ele>
        <time>2022-06-21T08:37:58Z</time>
      </trkpt>
      <trkpt lat="43.40411" lon="2.64433">
        <ele>600.4</ele>
        <time>2022-06-21T08:37:59Z</time>
      </trkpt>
      <trkpt lat="43.40411" lon="2.64433">
        <ele>600.4</ele>
        <time>2022-06-21T08:38:00Z</time>
      </trkpt>
      <trkpt lat="43.40411" lon="2.64433">
        <ele>600.4</ele>
        <time>2022-06-21T08:38:01Z</time>
      </trkpt>
      <trkpt lat="43.40411" lon="2.64433">
        <ele>600.4</ele>
        <time>2022-06-21T08:38:02Z</time>
      </trkpt>
      <trkpt lat="43.40411" lon="2.64433">
        <ele>600.4</ele>
        <time>2022-06-21T08:38:03Z</time>
      </trkpt>
      <trkpt lat="43.40411" lon="2.64433">
        <ele>600.4</ele>
        <time>2022-06-21T08:38:04Z</time>
      </trkpt>
      <trkpt lat="43.40411" lon="2.64433">
        <ele>600.4</ele>
        <time>2022-06-21T08:38:05Z</time>
      </trkpt>
      <trkpt lat="43.40411" lon="2.64433">
        <ele>600.4</ele>
        <time>2022-06-21T08:38:06Z</time>
      </trkpt>
      <trkpt lat="43.40411" lon="2.64433">
        <ele>600.4</ele>
        <time>2022-06-21T08:38:07Z</time>
      </trkpt>
      <trkpt lat="43.40411" lon="2.64433">
        <ele>600.4</ele>
        <time>2022-06-21T08:38:08Z</time>
      </trkpt>
      <trkpt lat="43.40411" lon="2.64433">
        <ele>600.4</ele>
        <time>2022-06-21T08:38:09Z</time>
      </trkpt>
      <trkpt lat="43.40411" lon="2.64433">
        <ele>600.4</ele>
        <time>2022-06-21T08:38:10Z</time>
      </trkpt>
      <trkpt lat="43.40411" lon="2.64433">
        <ele>600.4</ele>
        <time>2022-06-21T08:38:11Z</time>
      </trkpt>
      <trkpt lat="43.40411" lon="2.64433">
        <ele>600.4</ele>
        <time>2022-06-21T08:38:12Z</time>
      </trkpt>
      <trkpt lat="43.40411" lon="2.64433">
        <ele>600.4</ele>
        <time>2022-06-21T08:38:13Z</time>
      </trkpt>
      <trkpt lat="43.40411" lon="2.64433">
        <ele>600.4</ele>
        <time>2022-06-21T08:38:14Z</time>
      </trkpt>
      <trkpt lat="43.40411" lon="2.64433">
        <ele>600.4</ele>
        <time>2022-06-21T08:38:15Z</time>
      </trkpt>
      <trkpt lat="43.40411" lon="2.64433">
        <ele>600.4</ele>
        <time>2022-06-21T08:38:16Z</time>
      </trkpt>
      <trkpt lat="43.40411" lon="2.64433">
        <ele>600.4</ele>
        <time>2022-06-21T08:38:17Z</time>
      </trkpt>
      <trkpt lat="43.40411" lon="2.64433">
        <ele>600.4</ele>
        <time>2022-06-21T08:38:18Z</time>
      </trkpt>
      <trkpt lat="43.40411" lon="2.64433">
        <ele>600.4</ele>
        <time>2022-06-21T08:38:19Z</time>
      </trkpt>
      <trkpt lat="43.40411" lon="2.64433">
        <ele>600.4</ele>
        <time>2022-06-21T08:38:20Z</time>
      </trkpt>
      <trkpt lat="43.40411" lon="2.64433">
        <ele>600.4</ele>
        <time>2022-06-21T08:38:21Z</time>
      </trkpt>
      <trkpt lat="43.40412" lon="2.64432">
        <ele>600.5</ele>
        <time>2022-06-21T08:38:22Z</time>
      </trkpt>
      <trkpt lat="43.40412" lon="2.64432">
        <ele>600.5</ele>
        <time>2022-06-21T08:38:23Z</time>
      </trkpt>
      <trkpt lat="43.40412" lon="2.64432">
        <ele>600.6</ele>
        <time>2022-06-21T08:38:24Z</time>
      </trkpt>
      <trkpt lat="43.40412" lon="2.64432">
        <ele>600.6</ele>
        <time>2022-06-21T08:38:25Z</time>
      </trkpt>
      <trkpt lat="43.40412" lon="2.64432">
        <ele>600.6</ele>
        <time>2022-06-21T08:38:26Z</time>
      </trkpt>
      <trkpt lat="43.40412" lon="2.64432">
        <ele>600.6</ele>
        <time>2022-06-21T08:38:27Z</time>
      </trkpt>
      <trkpt lat="43.40412" lon="2.64432">
        <ele>600.6</ele>
        <time>2022-06-21T08:38:28Z</time>
      </trkpt>
      <trkpt lat="43.40412" lon="2.64432">
        <ele>600.6</ele>
        <time>2022-06-21T08:38:29Z</time>
      </trkpt>
      <trkpt lat="43.40412" lon="2.64432">
        <ele>600.6</ele>
        <time>2022-06-21T08:38:30Z</time>
      </trkpt>
      <trkpt lat="43.40412" lon="2.64432">
        <ele>600.6</ele>
        <time>2022-06-21T08:38:31Z</time>
      </trkpt>
      <trkpt lat="43.40412" lon="2.64432">
        <ele>600.6</ele>
        <time>2022-06-21T08:38:32Z</time>
      </trkpt>
      <trkpt lat="43.40412" lon="2.64432">
        <ele>600.6</ele>
        <time>2022-06-21T08:38:33Z</time>
      </trkpt>
      <trkpt lat="43.40412" lon="2.64432">
        <ele>600.6</ele>
        <time>2022-06-21T08:38:34Z</time>
      </trkpt>
      <trkpt lat="43.40412" lon="2.64432">
        <ele>600.6</ele>
        <time>2022-06-21T08:38:35Z</time>
      </trkpt>
      <trkpt lat="43.40412" lon="2.64432">
        <ele>600.6</ele>
        <time>2022-06-21T08:38:36Z</time>
      </trkpt>
      <trkpt lat="43.40412" lon="2.64432">
        <ele>600.6</ele>
        <time>2022-06-21T08:38:37Z</time>
      </trkpt>
      <trkpt lat="43.40412" lon="2.64432">
        <ele>600.6</ele>
        <time>2022-06-21T08:38:38Z</time>
      </trkpt>
      <trkpt lat="43.40412" lon="2.64432">
        <ele>600.6</ele>
        <time>2022-06-21T08:38:39Z</time>
      </trkpt>
      <trkpt lat="43.40412" lon="2.64432">
        <ele>600.6</ele>
        <time>2022-06-21T08:38:40Z</time>
      </trkpt>
      <trkpt lat="43.40412" lon="2.64432">
        <ele>600.6</ele>
        <time>2022-06-21T08:38:41Z</time>
      </trkpt>
      <trkpt lat="43.40412" lon="2.64432">
        <ele>600.6</ele>
        <time>2022-06-21T08:38:42Z</time>
      </trkpt>
      <trkpt lat="43.40412" lon="2.64432">
        <ele>600.6</ele>
        <time>2022-06-21T08:38:43Z</time>
      </trkpt>
      <trkpt lat="43.40412" lon="2.64432">
        <ele>600.6</ele>
        <time>2022-06-21T08:38:44Z</time>
      </trkpt>
      <trkpt lat="43.40412" lon="2.64432">
        <ele>600.6</ele>
        <time>2022-06-21T08:38:45Z</time>
      </trkpt>
      <trkpt lat="43.40412" lon="2.64432">
        <ele>600.6</ele>
        <time>2022-06-21T08:38:46Z</time>
      </trkpt>
      <trkpt lat="43.40412" lon="2.64432">
        <ele>600.6</ele>
        <time>2022-06-21T08:38:47Z</time>
      </trkpt>
      <trkpt lat="43.40412" lon="2.64432">
        <ele>600.6</ele>
        <time>2022-06-21T08:38:48Z</time>
      </trkpt>
      <trkpt lat="43.40412" lon="2.64432">
        <ele>600.6</ele>
        <time>2022-06-21T08:38:49Z</time>
      </trkpt>
      <trkpt lat="43.40412" lon="2.64432">
        <ele>600.6</ele>
        <time>2022-06-21T08:38:50Z</time>
      </trkpt>
      <trkpt lat="43.40412" lon="2.64432">
        <ele>600.6</ele>
        <time>2022-06-21T08:38:51Z</time>
      </trkpt>
      <trkpt lat="43.40412" lon="2.64432">
        <ele>600.6</ele>
        <time>2022-06-21T08:38:52Z</time>
      </trkpt>
      <trkpt lat="43.40412" lon="2.64432">
        <ele>600.6</ele>
        <time>2022-06-21T08:38:53Z</time>
      </trkpt>
      <trkpt lat="43.40412" lon="2.64432">
        <ele>600.6</ele>
        <time>2022-06-21T08:38:54Z</time>
      </trkpt>
      <trkpt lat="43.40412" lon="2.64432">
        <ele>600.6</ele>
        <time>2022-06-21T08:38:55Z</time>
      </trkpt>
      <trkpt lat="43.40412" lon="2.64432">
        <ele>600.6</ele>
        <time>2022-06-21T08:38:56Z</time>
      </trkpt>
      <trkpt lat="43.40412" lon="2.64432">
        <ele>600.6</ele>
        <time>2022-06-21T08:38:57Z</time>
      </trkpt>
      <trkpt lat="43.40412" lon="2.64432">
        <ele>600.6</ele>
        <time>2022-06-21T08:38:58Z</time>
      </trkpt>
      <trkpt lat="43.40412" lon="2.64432">
        <ele>600.6</ele>
        <time>2022-06-21T08:38:59Z</time>
      </trkpt>
      <trkpt lat="43.40412" lon="2.64432">
        <ele>600.6</ele>
        <time>2022-06-21T08:39:00Z</time>
      </trkpt>
      <trkpt lat="43.40412" lon="2.64432">
        <ele>600.6</ele>
        <time>2022-06-21T08:39:01Z</time>
      </trkpt>
      <trkpt lat="43.40412" lon="2.64432">
        <ele>600.6</ele>
        <time>2022-06-21T08:39:02Z</time>
      </trkpt>
      <trkpt lat="43.40412" lon="2.64432">
        <ele>600.6</ele>
        <time>2022-06-21T08:39:03Z</time>
      </trkpt>
      <trkpt lat="43.40412" lon="2.64432">
        <ele>600.6</ele>
        <time>2022-06-21T08:39:04Z</time>
      </trkpt>
      <trkpt lat="43.40412" lon="2.64432">
        <ele>600.6</ele>
        <time>2022-06-21T08:39:05Z</time>
      </trkpt>
      <trkpt lat="43.40412" lon="2.64432">
        <ele>600.6</ele>
        <time>2022-06-21T08:39:06Z</time>
      </trkpt>
      <trkpt lat="43.40412" lon="2.64432">
        <ele>600.6</ele>
        <time>2022-06-21T08:39:07Z</time>
      </trkpt>
      <trkpt lat="43.40412" lon="2.64432">
        <ele>600.6</ele>
        <time>2022-06-21T08:39:08Z</time>
      </trkpt>
      <trkpt lat="43.40412" lon="2.64432">
        <ele>600.6</ele>
        <time>2022-06-21T08:39:09Z</time>
      </trkpt>
      <trkpt lat="43.40412" lon="2.64432">
        <ele>600.6</ele>
        <time>2022-06-21T08:39:10Z</time>
      </trkpt>
      <trkpt lat="43.40412" lon="2.64432">
        <ele>600.6</ele>
        <time>2022-06-21T08:39:11Z</time>
      </trkpt>
      <trkpt lat="43.40412" lon="2.64432">
        <ele>600.6</ele>
        <time>2022-06-21T08:39:12Z</time>
      </trkpt>
      <trkpt lat="43.40412" lon="2.64432">
        <ele>600.6</ele>
        <time>2022-06-21T08:39:13Z</time>
      </trkpt>
      <trkpt lat="43.40412" lon="2.64432">
        <ele>600.6</ele>
        <time>2022-06-21T08:39:14Z</time>
      </trkpt>
      <trkpt lat="43.40412" lon="2.64432">
        <ele>600.6</ele>
        <time>2022-06-21T08:39:15Z</time>
      </trkpt>
      <trkpt lat="43.40412" lon="2.64432">
        <ele>600.6</ele>
        <time>2022-06-21T08:39:16Z</time>
      </trkpt>
      <trkpt lat="43.40412" lon="2.64432">
        <ele>600.6</ele>
        <time>2022-06-21T08:39:17Z</time>
      </trkpt>
      <trkpt lat="43.40412" lon="2.64432">
        <ele>600.6</ele>
        <time>2022-06-21T08:39:18Z</time>
      </trkpt>
      <trkpt lat="43.40412" lon="2.64432">
        <ele>600.6</ele>
        <time>2022-06-21T08:39:19Z</time>
      </trkpt>
      <trkpt lat="43.40412" lon="2.64432">
        <ele>600.6</ele>
        <time>2022-06-21T08:39:20Z</time>
      </trkpt>
      <trkpt lat="43.40412" lon="2.64432">
        <ele>600.6</ele>
        <time>2022-06-21T08:39:21Z</time>
      </trkpt>
      <trkpt lat="43.40412" lon="2.64432">
        <ele>600.6</ele>
        <time>2022-06-21T08:39:22Z</time>
      </trkpt>
      <trkpt lat="43.40412" lon="2.64432">
        <ele>600.6</ele>
        <time>2022-06-21T08:39:23Z</time>
      </trkpt>
      <trkpt lat="43.40412" lon="2.64432">
        <ele>600.6</ele>
        <time>2022-06-21T08:39:24Z</time>
      </trkpt>
      <trkpt lat="43.40412" lon="2.64432">
        <ele>600.6</ele>
        <time>2022-06-21T08:39:25Z</time>
      </trkpt>
      <trkpt lat="43.40412" lon="2.64432">
        <ele>600.6</ele>
        <time>2022-06-21T08:39:26Z</time>
      </trkpt>
      <trkpt lat="43.40412" lon="2.64432">
        <ele>600.6</ele>
        <time>2022-06-21T08:39:27Z</time>
      </trkpt>
      <trkpt lat="43.40412" lon="2.64432">
        <ele>600.6</ele>
        <time>2022-06-21T08:39:28Z</time>
      </trkpt>
      <trkpt lat="43.40412" lon="2.64432">
        <ele>600.6</ele>
        <time>2022-06-21T08:39:29Z</time>
      </trkpt>
      <trkpt lat="43.40412" lon="2.64432">
        <ele>600.6</ele>
        <time>2022-06-21T08:39:30Z</time>
      </trkpt>
      <trkpt lat="43.40412" lon="2.64432">
        <ele>600.6</ele>
        <time>2022-06-21T08:39:31Z</time>
      </trkpt>
      <trkpt lat="43.40412" lon="2.64432">
        <ele>600.6</ele>
        <time>2022-06-21T08:39:32Z</time>
      </trkpt>
      <trkpt lat="43.40412" lon="2.64432">
        <ele>600.6</ele>
        <time>2022-06-21T08:39:33Z</time>
      </trkpt>
      <trkpt lat="43.40412" lon="2.64432">
        <ele>600.6</ele>
        <time>2022-06-21T08:39:34Z</time>
      </trkpt>
      <trkpt lat="43.40412" lon="2.64432">
        <ele>600.6</ele>
        <time>2022-06-21T08:39:35Z</time>
      </trkpt>
      <trkpt lat="43.40412" lon="2.64432">
        <ele>600.6</ele>
        <time>2022-06-21T08:39:36Z</time>
      </trkpt>
      <trkpt lat="43.40412" lon="2.64432">
        <ele>600.6</ele>
        <time>2022-06-21T08:39:37Z</time>
      </trkpt>
      <trkpt lat="43.40412" lon="2.64432">
        <ele>600.6</ele>
        <time>2022-06-21T08:39:38Z</time>
      </trkpt>
      <trkpt lat="43.40412" lon="2.64432">
        <ele>600.6</ele>
        <time>2022-06-21T08:39:39Z</time>
      </trkpt>
      <trkpt lat="43.40412" lon="2.64432">
        <ele>600.6</ele>
        <time>2022-06-21T08:39:40Z</time>
      </trkpt>
      <trkpt lat="43.40412" lon="2.64433">
        <ele>600.7</ele>
        <time>2022-06-21T08:39:41Z</time>
      </trkpt>
      <trkpt lat="43.40413" lon="2.64433">
        <ele>600.8</ele>
        <time>2022-06-21T08:39:42Z</time>
      </trkpt>
      <trkpt lat="43.40414" lon="2.64435">
        <ele>600.9</ele>
        <time>2022-06-21T08:39:43Z</time>
      </trkpt>
      <trkpt lat="43.40414" lon="2.64436">
        <ele>601</ele>
        <time>2022-06-21T08:39:44Z</time>
      </trkpt>
      <trkpt lat="43.40415" lon="2.64437">
        <ele>601.2</ele>
        <time>2022-06-21T08:39:45Z</time>
      </trkpt>
      <trkpt lat="43.40416" lon="2.64437">
        <ele>601.3</ele>
        <time>2022-06-21T08:39:46Z</time>
      </trkpt>
      <trkpt lat="43.40417" lon="2.64438">
        <ele>601.4</ele>
        <time>2022-06-21T08:39:47Z</time>
      </trkpt>
      <trkpt lat="43.40417" lon="2.6444">
        <ele>601.6</ele>
        <time>2022-06-21T08:39:48Z</time>
      </trkpt>
      <trkpt lat="43.40418" lon="2.64441">
        <ele>601.7</ele>
        <time>2022-06-21T08:39:49Z</time>
      </trkpt>
      <trkpt lat="43.40418" lon="2.64442">
        <ele>601.8</ele>
        <time>2022-06-21T08:39:50Z</time>
      </trkpt>
      <trkpt lat="43.40419" lon="2.64443">
        <ele>602</ele>
        <time>2022-06-21T08:39:51Z</time>
      </trkpt>
      <trkpt lat="43.4042" lon="2.64443">
        <ele>602.1</ele>
        <time>2022-06-21T08:39:52Z</time>
      </trkpt>
      <trkpt lat="43.40421" lon="2.64444">
        <ele>602.2</ele>
        <time>2022-06-21T08:39:53Z</time>
      </trkpt>
      <trkpt lat="43.40421" lon="2.64445">
        <ele>602.3</ele>
        <time>2022-06-21T08:39:54Z</time>
      </trkpt>
      <trkpt lat="43.40422" lon="2.64446">
        <ele>602.5</ele>
        <time>2022-06-21T08:39:55Z</time>
      </trkpt>
      <trkpt lat="43.40423" lon="2.64447">
        <ele>602.6</ele>
        <time>2022-06-21T08:39:56Z</time>
      </trkpt>
      <trkpt lat="43.40423" lon="2.64448">
        <ele>602.7</ele>
        <time>2022-06-21T08:39:57Z</time>
      </trkpt>
      <trkpt lat="43.40424" lon="2.64449">
        <ele>602.9</ele>
        <time>2022-06-21T08:39:58Z</time>
      </trkpt>
      <trkpt lat="43.40424" lon="2.6445">
        <ele>603</ele>
        <time>2022-06-21T08:39:59Z</time>
      </trkpt>
      <trkpt lat="43.40425" lon="2.64451">
        <ele>603.2</ele>
        <time>2022-06-21T08:40:00Z</time>
      </trkpt>
      <trkpt lat="43.40426" lon="2.64452">
        <ele>603.3</ele>
        <time>2022-06-21T08:40:01Z</time>
      </trkpt>
      <trkpt lat="43.40426" lon="2.64453">
        <ele>603.5</ele>
        <time>2022-06-21T08:40:02Z</time>
      </trkpt>
      <trkpt lat="43.40427" lon="2.64454">
        <ele>603.6</ele>
        <time>2022-06-21T08:40:03Z</time>
      </trkpt>
      <trkpt lat="43.40428" lon="2.64455">
        <ele>603.8</ele>
        <time>2022-06-21T08:40:04Z</time>
      </trkpt>
      <trkpt lat="43.40429" lon="2.64456">
        <ele>603.9</ele>
        <time>2022-06-21T08:40:05Z</time>
      </trkpt>
      <trkpt lat="43.4043" lon="2.64458">
        <ele>604.1</ele>
        <time>2022-06-21T08:40:06Z</time>
      </trkpt>
      <trkpt lat="43.4043" lon="2.64458">
        <ele>604.2</ele>
        <time>2022-06-21T08:40:07Z</time>
      </trkpt>
      <trkpt lat="43.40431" lon="2.64459">
        <ele>604.3</ele>
        <time>2022-06-21T08:40:08Z</time>
      </trkpt>
      <trkpt lat="43.40431" lon="2.64459">
        <ele>604.4</ele>
        <time>2022-06-21T08:40:09Z</time>
      </trkpt>
      <trkpt lat="43.40432" lon="2.6446">
        <ele>604.5</ele>
        <time>2022-06-21T08:40:10Z</time>
      </trkpt>
      <trkpt lat="43.40432" lon="2.64461">
        <ele>604.7</ele>
        <time>2022-06-21T08:40:11Z</time>
      </trkpt>
      <trkpt lat="43.40433" lon="2.64462">
        <ele>604.8</ele>
        <time>2022-06-21T08:40:12Z</time>
      </trkpt>
      <trkpt lat="43.40433" lon="2.64463">
        <ele>604.9</ele>
        <time>2022-06-21T08:40:13Z</time>
      </trkpt>
      <trkpt lat="43.40433" lon="2.64464">
        <ele>605</ele>
        <time>2022-06-21T08:40:14Z</time>
      </trkpt>
      <trkpt lat="43.40433" lon="2.64465">
        <ele>605.1</ele>
        <time>2022-06-21T08:40:15Z</time>
      </trkpt>
      <trkpt lat="43.40434" lon="2.64466">
        <ele>605.2</ele>
        <time>2022-06-21T08:40:16Z</time>
      </trkpt>
      <trkpt lat="43.40434" lon="2.64467">
        <ele>605.3</ele>
        <time>2022-06-21T08:40:17Z</time>
      </trkpt>
      <trkpt lat="43.40434" lon="2.64467">
        <ele>605.4</ele>
        <time>2022-06-21T08:40:18Z</time>
      </trkpt>
      <trkpt lat="43.40434" lon="2.64468">
        <ele>605.4</ele>
        <time>2022-06-21T08:40:19Z</time>
      </trkpt>
      <trkpt lat="43.40434" lon="2.64468">
        <ele>605.4</ele>
        <time>2022-06-21T08:40:20Z</time>
      </trkpt>
      <trkpt lat="43.40434" lon="2.64468">
        <ele>605.4</ele>
        <time>2022-06-21T08:40:21Z</time>
      </trkpt>
      <trkpt lat="43.40434" lon="2.64468">
        <ele>605.4</ele>
        <time>2022-06-21T08:40:22Z</time>
      </trkpt>
      <trkpt lat="43.40434" lon="2.64468">
        <ele>605.5</ele>
        <time>2022-06-21T08:40:23Z</time>
      </trkpt>
      <trkpt lat="43.40434" lon="2.64468">
        <ele>605.5</ele>
        <time>2022-06-21T08:40:24Z</time>
      </trkpt>
      <trkpt lat="43.40434" lon="2.64468">
        <ele>605.5</ele>
        <time>2022-06-21T08:40:25Z</time>
      </trkpt>
      <trkpt lat="43.40434" lon="2.64468">
        <ele>605.5</ele>
        <time>2022-06-21T08:40:26Z</time>
      </trkpt>
      <trkpt lat="43.40434" lon="2.64469">
        <ele>605.6</ele>
        <time>2022-06-21T08:40:27Z</time>
      </trkpt>
      <trkpt lat="43.40434" lon="2.6447">
        <ele>605.7</ele>
        <time>2022-06-21T08:40:28Z</time>
      </trkpt>
      <trkpt lat="43.40434" lon="2.64471">
        <ele>605.8</ele>
        <time>2022-06-21T08:40:29Z</time>
      </trkpt>
      <trkpt lat="43.40434" lon="2.64472">
        <ele>605.9</ele>
        <time>2022-06-21T08:40:30Z</time>
      </trkpt>
      <trkpt lat="43.40434" lon="2.64473">
        <ele>606</ele>
        <time>2022-06-21T08:40:31Z</time>
      </trkpt>
      <trkpt lat="43.40434" lon="2.64473">
        <ele>606.1</ele>
        <time>2022-06-21T08:40:32Z</time>
      </trkpt>
      <trkpt lat="43.40434" lon="2.64473">
        <ele>606.1</ele>
        <time>2022-06-21T08:40:33Z</time>
      </trkpt>
      <trkpt lat="43.40434" lon="2.64473">
        <ele>606.1</ele>
        <time>2022-06-21T08:40:34Z</time>
      </trkpt>
      <trkpt lat="43.40434" lon="2.64473">
        <ele>606.1</ele>
        <time>2022-06-21T08:40:35Z</time>
      </trkpt>
      <trkpt lat="43.40434" lon="2.64473">
        <ele>606.1</ele>
        <time>2022-06-21T08:40:36Z</time>
      </trkpt>
      <trkpt lat="43.40434" lon="2.64473">
        <ele>606.1</ele>
        <time>2022-06-21T08:40:37Z</time>
      </trkpt>
      <trkpt lat="43.40434" lon="2.64473">
        <ele>606.1</ele>
        <time>2022-06-21T08:40:38Z</time>
      </trkpt>
      <trkpt lat="43.40434" lon="2.64473">
        <ele>606.1</ele>
        <time>2022-06-21T08:40:39Z</time>
      </trkpt>
      <trkpt lat="43.40434" lon="2.64474">
        <ele>606.2</ele>
        <time>2022-06-21T08:40:40Z</time>
      </trkpt>
      <trkpt lat="43.40434" lon="2.64475">
        <ele>606.3</ele>
        <time>2022-06-21T08:40:41Z</time>
      </trkpt>
      <trkpt lat="43.40435" lon="2.64476">
        <ele>606.4</ele>
        <time>2022-06-21T08:40:42Z</time>
      </trkpt>
      <trkpt lat="43.40435" lon="2.64477">
        <ele>606.6</ele>
        <time>2022-06-21T08:40:43Z</time>
      </trkpt>
      <trkpt lat="43.40436" lon="2.64477">
        <ele>606.6</ele>
        <time>2022-06-21T08:40:44Z</time>
      </trkpt>
      <trkpt lat="43.40436" lon="2.64477">
        <ele>606.6</ele>
        <time>2022-06-21T08:40:45Z</time>
      </trkpt>
      <trkpt lat="43.40436" lon="2.64477">
        <ele>606.6</ele>
        <time>2022-06-21T08:40:46Z</time>
      </trkpt>
      <trkpt lat="43.40436" lon="2.64477">
        <ele>606.6</ele>
        <time>2022-06-21T08:40:47Z</time>
      </trkpt>
      <trkpt lat="43.40436" lon="2.64477">
        <ele>606.6</ele>
        <time>2022-06-21T08:40:48Z</time>
      </trkpt>
      <trkpt lat="43.40436" lon="2.64477">
        <ele>606.7</ele>
        <time>2022-06-21T08:40:49Z</time>
      </trkpt>
      <trkpt lat="43.40435" lon="2.64478">
        <ele>606.8</ele>
        <time>2022-06-21T08:40:50Z</time>
      </trkpt>
      <trkpt lat="43.40435" lon="2.6448">
        <ele>607</ele>
        <time>2022-06-21T08:40:51Z</time>
      </trkpt>
      <trkpt lat="43.40435" lon="2.64481">
        <ele>607.1</ele>
        <time>2022-06-21T08:40:52Z</time>
      </trkpt>
      <trkpt lat="43.40435" lon="2.64481">
        <ele>607.2</ele>
        <time>2022-06-21T08:40:53Z</time>
      </trkpt>
      <trkpt lat="43.40435" lon="2.64482">
        <ele>607.2</ele>
        <time>2022-06-21T08:40:54Z</time>
      </trkpt>
      <trkpt lat="43.40434" lon="2.64482">
        <ele>607.3</ele>
        <time>2022-06-21T08:40:55Z</time>
      </trkpt>
      <trkpt lat="43.40434" lon="2.64483">
        <ele>607.4</ele>
        <time>2022-06-21T08:40:56Z</time>
      </trkpt>
      <trkpt lat="43.40434" lon="2.64483">
        <ele>607.5</ele>
        <time>2022-06-21T08:40:57Z</time>
      </trkpt>
      <trkpt lat="43.40433" lon="2.64483">
        <ele>607.6</ele>
        <time>2022-06-21T08:40:58Z</time>
      </trkpt>
      <trkpt lat="43.40433" lon="2.64484">
        <ele>607.7</ele>
        <time>2022-06-21T08:40:59Z</time>
      </trkpt>
      <trkpt lat="43.40432" lon="2.64485">
        <ele>607.8</ele>
        <time>2022-06-21T08:41:00Z</time>
      </trkpt>
      <trkpt lat="43.40432" lon="2.64486">
        <ele>608</ele>
        <time>2022-06-21T08:41:01Z</time>
      </trkpt>
      <trkpt lat="43.40432" lon="2.64487">
        <ele>608.2</ele>
        <time>2022-06-21T08:41:02Z</time>
      </trkpt>
      <trkpt lat="43.40431" lon="2.64488">
        <ele>608.3</ele>
        <time>2022-06-21T08:41:03Z</time>
      </trkpt>
      <trkpt lat="43.40431" lon="2.64488">
        <ele>608.4</ele>
        <time>2022-06-21T08:41:04Z</time>
      </trkpt>
      <trkpt lat="43.4043" lon="2.64489">
        <ele>608.5</ele>
        <time>2022-06-21T08:41:05Z</time>
      </trkpt>
      <trkpt lat="43.4043" lon="2.6449">
        <ele>608.7</ele>
        <time>2022-06-21T08:41:06Z</time>
      </trkpt>
      <trkpt lat="43.4043" lon="2.64491">
        <ele>608.9</ele>
        <time>2022-06-21T08:41:07Z</time>
      </trkpt>
      <trkpt lat="43.40429" lon="2.64491">
        <ele>608.9</ele>
        <time>2022-06-21T08:41:08Z</time>
      </trkpt>
      <trkpt lat="43.40429" lon="2.64491">
        <ele>609</ele>
        <time>2022-06-21T08:41:09Z</time>
      </trkpt>
      <trkpt lat="43.40429" lon="2.64492">
        <ele>609</ele>
        <time>2022-06-21T08:41:10Z</time>
      </trkpt>
      <trkpt lat="43.40429" lon="2.64493">
        <ele>609.2</ele>
        <time>2022-06-21T08:41:11Z</time>
      </trkpt>
      <trkpt lat="43.40429" lon="2.64494">
        <ele>609.4</ele>
        <time>2022-06-21T08:41:12Z</time>
      </trkpt>
      <trkpt lat="43.40428" lon="2.64495">
        <ele>609.6</ele>
        <time>2022-06-21T08:41:13Z</time>
      </trkpt>
      <trkpt lat="43.40428" lon="2.64496">
        <ele>609.8</ele>
        <time>2022-06-21T08:41:14Z</time>
      </trkpt>
      <trkpt lat="43.40427" lon="2.64497">
        <ele>609.9</ele>
        <time>2022-06-21T08:41:15Z</time>
      </trkpt>
      <trkpt lat="43.40427" lon="2.64497">
        <ele>610</ele>
        <time>2022-06-21T08:41:16Z</time>
      </trkpt>
      <trkpt lat="43.40427" lon="2.64498">
        <ele>610.1</ele>
        <time>2022-06-21T08:41:17Z</time>
      </trkpt>
      <trkpt lat="43.40427" lon="2.64498">
        <ele>610.2</ele>
        <time>2022-06-21T08:41:18Z</time>
      </trkpt>
      <trkpt lat="43.40426" lon="2.64499">
        <ele>610.4</ele>
        <time>2022-06-21T08:41:19Z</time>
      </trkpt>
      <trkpt lat="43.40426" lon="2.645">
        <ele>610.6</ele>
        <time>2022-06-21T08:41:20Z</time>
      </trkpt>
      <trkpt lat="43.40425" lon="2.64501">
        <ele>610.8</ele>
        <time>2022-06-21T08:41:21Z</time>
      </trkpt>
      <trkpt lat="43.40424" lon="2.64502">
        <ele>611</ele>
        <time>2022-06-21T08:41:22Z</time>
      </trkpt>
      <trkpt lat="43.40424" lon="2.64502">
        <ele>611.1</ele>
        <time>2022-06-21T08:41:23Z</time>
      </trkpt>
      <trkpt lat="43.40423" lon="2.64503">
        <ele>611.3</ele>
        <time>2022-06-21T08:41:24Z</time>
      </trkpt>
      <trkpt lat="43.40423" lon="2.64504">
        <ele>611.5</ele>
        <time>2022-06-21T08:41:25Z</time>
      </trkpt>
      <trkpt lat="43.40423" lon="2.64505">
        <ele>611.6</ele>
        <time>2022-06-21T08:41:26Z</time>
      </trkpt>
      <trkpt lat="43.40423" lon="2.64506">
        <ele>611.7</ele>
        <time>2022-06-21T08:41:27Z</time>
      </trkpt>
      <trkpt lat="43.40423" lon="2.64506">
        <ele>611.8</ele>
        <time>2022-06-21T08:41:28Z</time>
      </trkpt>
      <trkpt lat="43.40423" lon="2.64506">
        <ele>611.8</ele>
        <time>2022-06-21T08:41:29Z</time>
      </trkpt>
      <trkpt lat="43.40423" lon="2.64506">
        <ele>611.8</ele>
        <time>2022-06-21T08:41:30Z</time>
      </trkpt>
      <trkpt lat="43.40423" lon="2.64506">
        <ele>611.8</ele>
        <time>2022-06-21T08:41:31Z</time>
      </trkpt>
      <trkpt lat="43.40423" lon="2.64506">
        <ele>611.8</ele>
        <time>2022-06-21T08:41:32Z</time>
      </trkpt>
      <trkpt lat="43.40423" lon="2.64506">
        <ele>611.8</ele>
        <time>2022-06-21T08:41:33Z</time>
      </trkpt>
      <trkpt lat="43.40423" lon="2.64506">
        <ele>611.8</ele>
        <time>2022-06-21T08:41:34Z</time>
      </trkpt>
      <trkpt lat="43.40423" lon="2.64506">
        <ele>611.8</ele>
        <time>2022-06-21T08:41:35Z</time>
      </trkpt>
      <trkpt lat="43.40423" lon="2.64506">
        <ele>611.8</ele>
        <time>2022-06-21T08:41:36Z</time>
      </trkpt>
      <trkpt lat="43.40423" lon="2.64506">
        <ele>611.8</ele>
        <time>2022-06-21T08:41:37Z</time>
      </trkpt>
      <trkpt lat="43.40423" lon="2.64506">
        <ele>611.8</ele>
        <time>2022-06-21T08:41:38Z</time>
      </trkpt>
      <trkpt lat="43.40423" lon="2.64506">
        <ele>611.9</ele>
        <time>2022-06-21T08:41:39Z</time>
      </trkpt>
      <trkpt lat="43.40422" lon="2.64507">
        <ele>611.9</ele>
        <time>2022-06-21T08:41:40Z</time>
      </trkpt>
      <trkpt lat="43.40422" lon="2.64508">
        <ele>612.1</ele>
        <time>2022-06-21T08:41:41Z</time>
      </trkpt>
      <trkpt lat="43.40422" lon="2.64509">
        <ele>612.3</ele>
        <time>2022-06-21T08:41:42Z</time>
      </trkpt>
      <trkpt lat="43.40421" lon="2.6451">
        <ele>612.5</ele>
        <time>2022-06-21T08:41:43Z</time>
      </trkpt>
      <trkpt lat="43.40421" lon="2.64511">
        <ele>612.6</ele>
        <time>2022-06-21T08:41:44Z</time>
      </trkpt>
      <trkpt lat="43.40421" lon="2.64512">
        <ele>612.8</ele>
        <time>2022-06-21T08:41:45Z</time>
      </trkpt>
      <trkpt lat="43.40421" lon="2.64512">
        <ele>612.9</ele>
        <time>2022-06-21T08:41:46Z</time>
      </trkpt>
      <trkpt lat="43.40421" lon="2.64513">
        <ele>613</ele>
        <time>2022-06-21T08:41:47Z</time>
      </trkpt>
      <trkpt lat="43.4042" lon="2.64514">
        <ele>613.2</ele>
        <time>2022-06-21T08:41:48Z</time>
      </trkpt>
      <trkpt lat="43.4042" lon="2.64516">
        <ele>613.5</ele>
        <time>2022-06-21T08:41:49Z</time>
      </trkpt>
      <trkpt lat="43.4042" lon="2.64516">
        <ele>613.5</ele>
        <time>2022-06-21T08:41:50Z</time>
      </trkpt>
      <trkpt lat="43.40419" lon="2.64517">
        <ele>613.7</ele>
        <time>2022-06-21T08:41:51Z</time>
      </trkpt>
      <trkpt lat="43.40419" lon="2.64518">
        <ele>613.8</ele>
        <time>2022-06-21T08:41:52Z</time>
      </trkpt>
      <trkpt lat="43.40419" lon="2.64519">
        <ele>614</ele>
        <time>2022-06-21T08:41:53Z</time>
      </trkpt>
      <trkpt lat="43.40419" lon="2.6452">
        <ele>614.1</ele>
        <time>2022-06-21T08:41:54Z</time>
      </trkpt>
      <trkpt lat="43.40418" lon="2.64522">
        <ele>614.4</ele>
        <time>2022-06-21T08:41:55Z</time>
      </trkpt>
      <trkpt lat="43.40418" lon="2.64523">
        <ele>614.5</ele>
        <time>2022-06-21T08:41:56Z</time>
      </trkpt>
      <trkpt lat="43.40418" lon="2.64524">
        <ele>614.7</ele>
        <time>2022-06-21T08:41:57Z</time>
      </trkpt>
      <trkpt lat="43.40417" lon="2.64524">
        <ele>614.8</ele>
        <time>2022-06-21T08:41:58Z</time>
      </trkpt>
      <trkpt lat="43.40417" lon="2.64525">
        <ele>614.9</ele>
        <time>2022-06-21T08:41:59Z</time>
      </trkpt>
      <trkpt lat="43.40416" lon="2.64526">
        <ele>615.1</ele>
        <time>2022-06-21T08:42:00Z</time>
      </trkpt>
      <trkpt lat="43.40416" lon="2.64526">
        <ele>615.2</ele>
        <time>2022-06-21T08:42:01Z</time>
      </trkpt>
      <trkpt lat="43.40415" lon="2.64527">
        <ele>615.3</ele>
        <time>2022-06-21T08:42:02Z</time>
      </trkpt>
      <trkpt lat="43.40415" lon="2.64527">
        <ele>615.4</ele>
        <time>2022-06-21T08:42:03Z</time>
      </trkpt>
      <trkpt lat="43.40414" lon="2.64527">
        <ele>615.4</ele>
        <time>2022-06-21T08:42:04Z</time>
      </trkpt>
      <trkpt lat="43.40414" lon="2.64527">
        <ele>615.5</ele>
        <time>2022-06-21T08:42:05Z</time>
      </trkpt>
      <trkpt lat="43.40414" lon="2.64527">
        <ele>615.5</ele>
        <time>2022-06-21T08:42:06Z</time>
      </trkpt>
      <trkpt lat="43.40414" lon="2.64527">
        <ele>615.5</ele>
        <time>2022-06-21T08:42:07Z</time>
      </trkpt>
      <trkpt lat="43.40414" lon="2.64527">
        <ele>615.5</ele>
        <time>2022-06-21T08:42:08Z</time>
      </trkpt>
      <trkpt lat="43.40414" lon="2.64527">
        <ele>615.5</ele>
        <time>2022-06-21T08:42:09Z</time>
      </trkpt>
      <trkpt lat="43.40414" lon="2.64527">
        <ele>615.5</ele>
        <time>2022-06-21T08:42:10Z</time>
      </trkpt>
      <trkpt lat="43.40414" lon="2.64527">
        <ele>615.5</ele>
        <time>2022-06-21T08:42:11Z</time>
      </trkpt>
      <trkpt lat="43.40414" lon="2.64527">
        <ele>615.5</ele>
        <time>2022-06-21T08:42:12Z</time>
      </trkpt>
      <trkpt lat="43.40414" lon="2.64527">
        <ele>615.5</ele>
        <time>2022-06-21T08:42:13Z</time>
      </trkpt>
      <trkpt lat="43.40414" lon="2.64527">
        <ele>615.5</ele>
        <time>2022-06-21T08:42:14Z</time>
      </trkpt>
      <trkpt lat="43.40414" lon="2.64527">
        <ele>615.5</ele>
        <time>2022-06-21T08:42:15Z</time>
      </trkpt>
      <trkpt lat="43.40414" lon="2.64527">
        <ele>615.5</ele>
        <time>2022-06-21T08:42:16Z</time>
      </trkpt>
      <trkpt lat="43.40415" lon="2.64527">
        <ele>615.5</ele>
        <time>2022-06-21T08:42:17Z</time>
      </trkpt>
      <trkpt lat="43.40415" lon="2.64527">
        <ele>615.5</ele>
        <time>2022-06-21T08:42:18Z</time>
      </trkpt>
      <trkpt lat="43.40415" lon="2.64527">
        <ele>615.5</ele>
        <time>2022-06-21T08:42:19Z</time>
      </trkpt>
      <trkpt lat="43.40415" lon="2.64527">
        <ele>615.5</ele>
        <time>2022-06-21T08:42:20Z</time>
      </trkpt>
      <trkpt lat="43.40415" lon="2.64526">
        <ele>615.6</ele>
        <time>2022-06-21T08:42:21Z</time>
      </trkpt>
      <trkpt lat="43.40415" lon="2.64526">
        <ele>615.6</ele>
        <time>2022-06-21T08:42:22Z</time>
      </trkpt>
      <trkpt lat="43.40415" lon="2.64526">
        <ele>615.6</ele>
        <time>2022-06-21T08:42:23Z</time>
      </trkpt>
      <trkpt lat="43.40415" lon="2.64526">
        <ele>615.6</ele>
        <time>2022-06-21T08:42:24Z</time>
      </trkpt>
      <trkpt lat="43.40415" lon="2.64526">
        <ele>615.6</ele>
        <time>2022-06-21T08:42:25Z</time>
      </trkpt>
      <trkpt lat="43.40415" lon="2.64526">
        <ele>615.6</ele>
        <time>2022-06-21T08:42:26Z</time>
      </trkpt>
      <trkpt lat="43.40415" lon="2.64526">
        <ele>615.6</ele>
        <time>2022-06-21T08:42:27Z</time>
      </trkpt>
      <trkpt lat="43.40415" lon="2.64526">
        <ele>615.6</ele>
        <time>2022-06-21T08:42:28Z</time>
      </trkpt>
      <trkpt lat="43.40415" lon="2.64526">
        <ele>615.6</ele>
        <time>2022-06-21T08:42:29Z</time>
      </trkpt>
      <trkpt lat="43.40415" lon="2.64526">
        <ele>615.6</ele>
        <time>2022-06-21T08:42:30Z</time>
      </trkpt>
      <trkpt lat="43.40415" lon="2.64526">
        <ele>615.6</ele>
        <time>2022-06-21T08:42:31Z</time>
      </trkpt>
      <trkpt lat="43.40415" lon="2.64526">
        <ele>615.6</ele>
        <time>2022-06-21T08:42:32Z</time>
      </trkpt>
      <trkpt lat="43.40415" lon="2.64526">
        <ele>615.6</ele>
        <time>2022-06-21T08:42:33Z</time>
      </trkpt>
      <trkpt lat="43.40415" lon="2.64527">
        <ele>615.6</ele>
        <time>2022-06-21T08:42:34Z</time>
      </trkpt>
      <trkpt lat="43.40415" lon="2.64527">
        <ele>615.7</ele>
        <time>2022-06-21T08:42:35Z</time>
      </trkpt>
      <trkpt lat="43.40415" lon="2.64528">
        <ele>615.8</ele>
        <time>2022-06-21T08:42:36Z</time>
      </trkpt>
      <trkpt lat="43.40416" lon="2.64529">
        <ele>615.9</ele>
        <time>2022-06-21T08:42:37Z</time>
      </trkpt>
      <trkpt lat="43.40416" lon="2.6453">
        <ele>616.1</ele>
        <time>2022-06-21T08:42:38Z</time>
      </trkpt>
      <trkpt lat="43.40416" lon="2.64532">
        <ele>616.3</ele>
        <time>2022-06-21T08:42:39Z</time>
      </trkpt>
      <trkpt lat="43.40416" lon="2.64533">
        <ele>616.5</ele>
        <time>2022-06-21T08:42:40Z</time>
      </trkpt>
      <trkpt lat="43.40416" lon="2.64535">
        <ele>616.6</ele>
        <time>2022-06-21T08:42:41Z</time>
      </trkpt>
      <trkpt lat="43.40417" lon="2.64537">
        <ele>616.9</ele>
        <time>2022-06-21T08:42:42Z</time>
      </trkpt>
      <trkpt lat="43.40417" lon="2.64538">
        <ele>617</ele>
        <time>2022-06-21T08:42:43Z</time>
      </trkpt>
      <trkpt lat="43.40416" lon="2.64541">
        <ele>617.3</ele>
        <time>2022-06-21T08:42:44Z</time>
      </trkpt>
      <trkpt lat="43.40416" lon="2.64542">
        <ele>617.4</ele>
        <time>2022-06-21T08:42:45Z</time>
      </trkpt>
      <trkpt lat="43.40416" lon="2.64543">
        <ele>617.5</ele>
        <time>2022-06-21T08:42:46Z</time>
      </trkpt>
      <trkpt lat="43.40415" lon="2.64546">
        <ele>617.8</ele>
        <time>2022-06-21T08:42:47Z</time>
      </trkpt>
      <trkpt lat="43.40415" lon="2.64547">
        <ele>617.9</ele>
        <time>2022-06-21T08:42:48Z</time>
      </trkpt>
      <trkpt lat="43.40415" lon="2.64548">
        <ele>618</ele>
        <time>2022-06-21T08:42:49Z</time>
      </trkpt>
      <trkpt lat="43.40415" lon="2.6455">
        <ele>618.2</ele>
        <time>2022-06-21T08:42:50Z</time>
      </trkpt>
      <trkpt lat="43.40415" lon="2.64551">
        <ele>618.3</ele>
        <time>2022-06-21T08:42:51Z</time>
      </trkpt>
      <trkpt lat="43.40414" lon="2.64553">
        <ele>618.4</ele>
        <time>2022-06-21T08:42:52Z</time>
      </trkpt>
      <trkpt lat="43.40414" lon="2.64554">
        <ele>618.5</ele>
        <time>2022-06-21T08:42:53Z</time>
      </trkpt>
      <trkpt lat="43.40414" lon="2.64556">
        <ele>618.6</ele>
        <time>2022-06-21T08:42:54Z</time>
      </trkpt>
      <trkpt lat="43.40414" lon="2.64557">
        <ele>618.7</ele>
        <time>2022-06-21T08:42:55Z</time>
      </trkpt>
      <trkpt lat="43.40414" lon="2.64559">
        <ele>618.7</ele>
        <time>2022-06-21T08:42:56Z</time>
      </trkpt>
      <trkpt lat="43.40414" lon="2.6456">
        <ele>618.8</ele>
        <time>2022-06-21T08:42:57Z</time>
      </trkpt>
      <trkpt lat="43.40414" lon="2.64561">
        <ele>618.8</ele>
        <time>2022-06-21T08:42:58Z</time>
      </trkpt>
      <trkpt lat="43.40414" lon="2.64562">
        <ele>618.9</ele>
        <time>2022-06-21T08:42:59Z</time>
      </trkpt>
      <trkpt lat="43.40414" lon="2.64564">
        <ele>619</ele>
        <time>2022-06-21T08:43:00Z</time>
      </trkpt>
      <trkpt lat="43.40414" lon="2.64565">
        <ele>619</ele>
        <time>2022-06-21T08:43:01Z</time>
      </trkpt>
      <trkpt lat="43.40414" lon="2.64566">
        <ele>619</ele>
        <time>2022-06-21T08:43:02Z</time>
      </trkpt>
      <trkpt lat="43.40414" lon="2.64568">
        <ele>619.1</ele>
        <time>2022-06-21T08:43:03Z</time>
      </trkpt>
      <trkpt lat="43.40414" lon="2.64569">
        <ele>619.1</ele>
        <time>2022-06-21T08:43:04Z</time>
      </trkpt>
      <trkpt lat="43.40414" lon="2.6457">
        <ele>619.2</ele>
        <time>2022-06-21T08:43:05Z</time>
      </trkpt>
      <trkpt lat="43.40414" lon="2.64571">
        <ele>619.2</ele>
        <time>2022-06-21T08:43:06Z</time>
      </trkpt>
      <trkpt lat="43.40414" lon="2.64572">
        <ele>619.2</ele>
        <time>2022-06-21T08:43:07Z</time>
      </trkpt>
      <trkpt lat="43.40414" lon="2.64573">
        <ele>619.2</ele>
        <time>2022-06-21T08:43:08Z</time>
      </trkpt>
      <trkpt lat="43.40414" lon="2.64575">
        <ele>619.2</ele>
        <time>2022-06-21T08:43:09Z</time>
      </trkpt>
      <trkpt lat="43.40414" lon="2.64576">
        <ele>619.3</ele>
        <time>2022-06-21T08:43:10Z</time>
      </trkpt>
      <trkpt lat="43.40414" lon="2.64577">
        <ele>619.3</ele>
        <time>2022-06-21T08:43:11Z</time>
      </trkpt>
      <trkpt lat="43.40414" lon="2.64579">
        <ele>619.3</ele>
        <time>2022-06-21T08:43:12Z</time>
      </trkpt>
      <trkpt lat="43.40414" lon="2.6458">
        <ele>619.3</ele>
        <time>2022-06-21T08:43:13Z</time>
      </trkpt>
      <trkpt lat="43.40414" lon="2.64581">
        <ele>619.3</ele>
        <time>2022-06-21T08:43:14Z</time>
      </trkpt>
      <trkpt lat="43.40414" lon="2.64582">
        <ele>619.4</ele>
        <time>2022-06-21T08:43:15Z</time>
      </trkpt>
      <trkpt lat="43.40414" lon="2.64583">
        <ele>619.4</ele>
        <time>2022-06-21T08:43:16Z</time>
      </trkpt>
      <trkpt lat="43.40415" lon="2.64584">
        <ele>619.4</ele>
        <time>2022-06-21T08:43:17Z</time>
      </trkpt>
      <trkpt lat="43.40415" lon="2.64587">
        <ele>619.4</ele>
        <time>2022-06-21T08:43:18Z</time>
      </trkpt>
      <trkpt lat="43.40415" lon="2.64587">
        <ele>619.5</ele>
        <time>2022-06-21T08:43:19Z</time>
      </trkpt>
      <trkpt lat="43.40416" lon="2.64588">
        <ele>619.5</ele>
        <time>2022-06-21T08:43:20Z</time>
      </trkpt>
      <trkpt lat="43.40416" lon="2.64589">
        <ele>619.5</ele>
        <time>2022-06-21T08:43:21Z</time>
      </trkpt>
      <trkpt lat="43.40416" lon="2.64591">
        <ele>619.5</ele>
        <time>2022-06-21T08:43:22Z</time>
      </trkpt>
      <trkpt lat="43.40416" lon="2.64592">
        <ele>619.5</ele>
        <time>2022-06-21T08:43:23Z</time>
      </trkpt>
      <trkpt lat="43.40417" lon="2.64594">
        <ele>619.6</ele>
        <time>2022-06-21T08:43:24Z</time>
      </trkpt>
      <trkpt lat="43.40417" lon="2.64595">
        <ele>619.6</ele>
        <time>2022-06-21T08:43:25Z</time>
      </trkpt>
      <trkpt lat="43.40417" lon="2.64596">
        <ele>619.6</ele>
        <time>2022-06-21T08:43:26Z</time>
      </trkpt>
      <trkpt lat="43.40417" lon="2.64597">
        <ele>619.7</ele>
        <time>2022-06-21T08:43:27Z</time>
      </trkpt>
      <trkpt lat="43.40417" lon="2.64599">
        <ele>619.7</ele>
        <time>2022-06-21T08:43:28Z</time>
      </trkpt>
      <trkpt lat="43.40417" lon="2.646">
        <ele>619.7</ele>
        <time>2022-06-21T08:43:29Z</time>
      </trkpt>
      <trkpt lat="43.40418" lon="2.64601">
        <ele>619.8</ele>
        <time>2022-06-21T08:43:30Z</time>
      </trkpt>
      <trkpt lat="43.40418" lon="2.64602">
        <ele>619.8</ele>
        <time>2022-06-21T08:43:31Z</time>
      </trkpt>
      <trkpt lat="43.40418" lon="2.64603">
        <ele>619.8</ele>
        <time>2022-06-21T08:43:32Z</time>
      </trkpt>
      <trkpt lat="43.40418" lon="2.64604">
        <ele>619.9</ele>
        <time>2022-06-21T08:43:33Z</time>
      </trkpt>
      <trkpt lat="43.40418" lon="2.64605">
        <ele>619.9</ele>
        <time>2022-06-21T08:43:34Z</time>
      </trkpt>
      <trkpt lat="43.40418" lon="2.64606">
        <ele>619.9</ele>
        <time>2022-06-21T08:43:35Z</time>
      </trkpt>
      <trkpt lat="43.40419" lon="2.64608">
        <ele>620</ele>
        <time>2022-06-21T08:43:36Z</time>
      </trkpt>
      <trkpt lat="43.40419" lon="2.64609">
        <ele>620</ele>
        <time>2022-06-21T08:43:37Z</time>
      </trkpt>
      <trkpt lat="43.40419" lon="2.6461">
        <ele>620.1</ele>
        <time>2022-06-21T08:43:38Z</time>
      </trkpt>
      <trkpt lat="43.40419" lon="2.6461">
        <ele>620.1</ele>
        <time>2022-06-21T08:43:39Z</time>
      </trkpt>
      <trkpt lat="43.4042" lon="2.64612">
        <ele>620.1</ele>
        <time>2022-06-21T08:43:40Z</time>
      </trkpt>
      <trkpt lat="43.4042" lon="2.64613">
        <ele>620.2</ele>
        <time>2022-06-21T08:43:41Z</time>
      </trkpt>
      <trkpt lat="43.4042" lon="2.64614">
        <ele>620.2</ele>
        <time>2022-06-21T08:43:42Z</time>
      </trkpt>
      <trkpt lat="43.4042" lon="2.64615">
        <ele>620.3</ele>
        <time>2022-06-21T08:43:43Z</time>
      </trkpt>
      <trkpt lat="43.40421" lon="2.64616">
        <ele>620.3</ele>
        <time>2022-06-21T08:43:44Z</time>
      </trkpt>
      <trkpt lat="43.40421" lon="2.64617">
        <ele>620.4</ele>
        <time>2022-06-21T08:43:45Z</time>
      </trkpt>
      <trkpt lat="43.40421" lon="2.64618">
        <ele>620.4</ele>
        <time>2022-06-21T08:43:46Z</time>
      </trkpt>
      <trkpt lat="43.40421" lon="2.6462">
        <ele>620.5</ele>
        <time>2022-06-21T08:43:47Z</time>
      </trkpt>
      <trkpt lat="43.40421" lon="2.6462">
        <ele>620.5</ele>
        <time>2022-06-21T08:43:48Z</time>
      </trkpt>
      <trkpt lat="43.40421" lon="2.64621">
        <ele>620.6</ele>
        <time>2022-06-21T08:43:49Z</time>
      </trkpt>
      <trkpt lat="43.40422" lon="2.64623">
        <ele>620.7</ele>
        <time>2022-06-21T08:43:50Z</time>
      </trkpt>
      <trkpt lat="43.40422" lon="2.64624">
        <ele>620.7</ele>
        <time>2022-06-21T08:43:51Z</time>
      </trkpt>
      <trkpt lat="43.40422" lon="2.64625">
        <ele>620.8</ele>
        <time>2022-06-21T08:43:52Z</time>
      </trkpt>
      <trkpt lat="43.40422" lon="2.64626">
        <ele>620.8</ele>
        <time>2022-06-21T08:43:53Z</time>
      </trkpt>
      <trkpt lat="43.40422" lon="2.64627">
        <ele>620.9</ele>
        <time>2022-06-21T08:43:54Z</time>
      </trkpt>
      <trkpt lat="43.40423" lon="2.64628">
        <ele>621</ele>
        <time>2022-06-21T08:43:55Z</time>
      </trkpt>
      <trkpt lat="43.40423" lon="2.64629">
        <ele>621</ele>
        <time>2022-06-21T08:43:56Z</time>
      </trkpt>
      <trkpt lat="43.40423" lon="2.6463">
        <ele>621.1</ele>
        <time>2022-06-21T08:43:57Z</time>
      </trkpt>
      <trkpt lat="43.40423" lon="2.64631">
        <ele>621.2</ele>
        <time>2022-06-21T08:43:58Z</time>
      </trkpt>
      <trkpt lat="43.40423" lon="2.64633">
        <ele>621.3</ele>
        <time>2022-06-21T08:43:59Z</time>
      </trkpt>
      <trkpt lat="43.40423" lon="2.64634">
        <ele>621.3</ele>
        <time>2022-06-21T08:44:00Z</time>
      </trkpt>
      <trkpt lat="43.40424" lon="2.64635">
        <ele>621.4</ele>
        <time>2022-06-21T08:44:01Z</time>
      </trkpt>
      <trkpt lat="43.40424" lon="2.64635">
        <ele>621.5</ele>
        <time>2022-06-21T08:44:02Z</time>
      </trkpt>
      <trkpt lat="43.40424" lon="2.64635">
        <ele>621.5</ele>
        <time>2022-06-21T08:44:03Z</time>
      </trkpt>
      <trkpt lat="43.40424" lon="2.64635">
        <ele>621.5</ele>
        <time>2022-06-21T08:44:04Z</time>
      </trkpt>
      <trkpt lat="43.40424" lon="2.64635">
        <ele>621.5</ele>
        <time>2022-06-21T08:44:05Z</time>
      </trkpt>
      <trkpt lat="43.40424" lon="2.64635">
        <ele>621.5</ele>
        <time>2022-06-21T08:44:06Z</time>
      </trkpt>
      <trkpt lat="43.40424" lon="2.64635">
        <ele>621.5</ele>
        <time>2022-06-21T08:44:07Z</time>
      </trkpt>
      <trkpt lat="43.40424" lon="2.64635">
        <ele>621.5</ele>
        <time>2022-06-21T08:44:08Z</time>
      </trkpt>
      <trkpt lat="43.40424" lon="2.64635">
        <ele>621.5</ele>
        <time>2022-06-21T08:44:09Z</time>
      </trkpt>
      <trkpt lat="43.40424" lon="2.64635">
        <ele>621.6</ele>
        <time>2022-06-21T08:44:10Z</time>
      </trkpt>
      <trkpt lat="43.40424" lon="2.64635">
        <ele>621.7</ele>
        <time>2022-06-21T08:44:11Z</time>
      </trkpt>
      <trkpt lat="43.40424" lon="2.64635">
        <ele>621.7</ele>
        <time>2022-06-21T08:44:12Z</time>
      </trkpt>
      <trkpt lat="43.40425" lon="2.64635">
        <ele>621.7</ele>
        <time>2022-06-21T08:44:13Z</time>
      </trkpt>
      <trkpt lat="43.40425" lon="2.64636">
        <ele>621.8</ele>
        <time>2022-06-21T08:44:14Z</time>
      </trkpt>
      <trkpt lat="43.40426" lon="2.64637">
        <ele>621.9</ele>
        <time>2022-06-21T08:44:15Z</time>
      </trkpt>
      <trkpt lat="43.40426" lon="2.64638">
        <ele>622</ele>
        <time>2022-06-21T08:44:16Z</time>
      </trkpt>
      <trkpt lat="43.40426" lon="2.6464">
        <ele>622.1</ele>
        <time>2022-06-21T08:44:17Z</time>
      </trkpt>
      <trkpt lat="43.40427" lon="2.64641">
        <ele>622.2</ele>
        <time>2022-06-21T08:44:18Z</time>
      </trkpt>
      <trkpt lat="43.40427" lon="2.64641">
        <ele>622.2</ele>
        <time>2022-06-21T08:44:19Z</time>
      </trkpt>
      <trkpt lat="43.40428" lon="2.64642">
        <ele>622.4</ele>
        <time>2022-06-21T08:44:20Z</time>
      </trkpt>
      <trkpt lat="43.40428" lon="2.64643">
        <ele>622.5</ele>
        <time>2022-06-21T08:44:21Z</time>
      </trkpt>
      <trkpt lat="43.40429" lon="2.64644">
        <ele>622.5</ele>
        <time>2022-06-21T08:44:22Z</time>
      </trkpt>
      <trkpt lat="43.4043" lon="2.64645">
        <ele>622.6</ele>
        <time>2022-06-21T08:44:23Z</time>
      </trkpt>
      <trkpt lat="43.4043" lon="2.64645">
        <ele>622.7</ele>
        <time>2022-06-21T08:44:24Z</time>
      </trkpt>
      <trkpt lat="43.4043" lon="2.64645">
        <ele>622.7</ele>
        <time>2022-06-21T08:44:25Z</time>
      </trkpt>
      <trkpt lat="43.4043" lon="2.64645">
        <ele>622.7</ele>
        <time>2022-06-21T08:44:26Z</time>
      </trkpt>
      <trkpt lat="43.4043" lon="2.64645">
        <ele>622.7</ele>
        <time>2022-06-21T08:44:27Z</time>
      </trkpt>
      <trkpt lat="43.4043" lon="2.64645">
        <ele>622.7</ele>
        <time>2022-06-21T08:44:28Z</time>
      </trkpt>
      <trkpt lat="43.4043" lon="2.64645">
        <ele>622.8</ele>
        <time>2022-06-21T08:44:29Z</time>
      </trkpt>
      <trkpt lat="43.4043" lon="2.64645">
        <ele>622.8</ele>
        <time>2022-06-21T08:44:30Z</time>
      </trkpt>
      <trkpt lat="43.4043" lon="2.64645">
        <ele>622.8</ele>
        <time>2022-06-21T08:44:31Z</time>
      </trkpt>
      <trkpt lat="43.4043" lon="2.64645">
        <ele>622.8</ele>
        <time>2022-06-21T08:44:32Z</time>
      </trkpt>
      <trkpt lat="43.4043" lon="2.64645">
        <ele>622.8</ele>
        <time>2022-06-21T08:44:33Z</time>
      </trkpt>
      <trkpt lat="43.4043" lon="2.64645">
        <ele>622.8</ele>
        <time>2022-06-21T08:44:34Z</time>
      </trkpt>
      <trkpt lat="43.4043" lon="2.64645">
        <ele>622.9</ele>
        <time>2022-06-21T08:44:35Z</time>
      </trkpt>
      <trkpt lat="43.4043" lon="2.64645">
        <ele>622.9</ele>
        <time>2022-06-21T08:44:36Z</time>
      </trkpt>
      <trkpt lat="43.4043" lon="2.64645">
        <ele>622.9</ele>
        <time>2022-06-21T08:44:37Z</time>
      </trkpt>
      <trkpt lat="43.4043" lon="2.64645">
        <ele>622.9</ele>
        <time>2022-06-21T08:44:38Z</time>
      </trkpt>
      <trkpt lat="43.4043" lon="2.64645">
        <ele>622.9</ele>
        <time>2022-06-21T08:44:39Z</time>
      </trkpt>
      <trkpt lat="43.4043" lon="2.64645">
        <ele>622.9</ele>
        <time>2022-06-21T08:44:40Z</time>
      </trkpt>
      <trkpt lat="43.4043" lon="2.64645">
        <ele>622.9</ele>
        <time>2022-06-21T08:44:41Z</time>
      </trkpt>
      <trkpt lat="43.4043" lon="2.64645">
        <ele>622.9</ele>
        <time>2022-06-21T08:44:42Z</time>
      </trkpt>
      <trkpt lat="43.4043" lon="2.64645">
        <ele>623</ele>
        <time>2022-06-21T08:44:43Z</time>
      </trkpt>
      <trkpt lat="43.4043" lon="2.64645">
        <ele>623</ele>
        <time>2022-06-21T08:44:44Z</time>
      </trkpt>
      <trkpt lat="43.4043" lon="2.64645">
        <ele>623</ele>
        <time>2022-06-21T08:44:45Z</time>
      </trkpt>
      <trkpt lat="43.4043" lon="2.64645">
        <ele>623</ele>
        <time>2022-06-21T08:44:46Z</time>
      </trkpt>
      <trkpt lat="43.4043" lon="2.64645">
        <ele>623</ele>
        <time>2022-06-21T08:44:47Z</time>
      </trkpt>
      <trkpt lat="43.4043" lon="2.64645">
        <ele>623</ele>
        <time>2022-06-21T08:44:48Z</time>
      </trkpt>
      <trkpt lat="43.4043" lon="2.64645">
        <ele>623</ele>
        <time>2022-06-21T08:44:49Z</time>
      </trkpt>
      <trkpt lat="43.4043" lon="2.64645">
        <ele>623</ele>
        <time>2022-06-21T08:44:50Z</time>
      </trkpt>
      <trkpt lat="43.4043" lon="2.64645">
        <ele>623</ele>
        <time>2022-06-21T08:44:51Z</time>
      </trkpt>
      <trkpt lat="43.4043" lon="2.64645">
        <ele>623.1</ele>
        <time>2022-06-21T08:44:52Z</time>
      </trkpt>
      <trkpt lat="43.4043" lon="2.64645">
        <ele>623.1</ele>
        <time>2022-06-21T08:44:53Z</time>
      </trkpt>
      <trkpt lat="43.4043" lon="2.64646">
        <ele>623.2</ele>
        <time>2022-06-21T08:44:54Z</time>
      </trkpt>
      <trkpt lat="43.4043" lon="2.64647">
        <ele>623.2</ele>
        <time>2022-06-21T08:44:55Z</time>
      </trkpt>
      <trkpt lat="43.4043" lon="2.64648">
        <ele>623.3</ele>
        <time>2022-06-21T08:44:56Z</time>
      </trkpt>
      <trkpt lat="43.4043" lon="2.6465">
        <ele>623.5</ele>
        <time>2022-06-21T08:44:57Z</time>
      </trkpt>
      <trkpt lat="43.4043" lon="2.64651">
        <ele>623.6</ele>
        <time>2022-06-21T08:44:58Z</time>
      </trkpt>
      <trkpt lat="43.40431" lon="2.64652">
        <ele>623.6</ele>
        <time>2022-06-21T08:44:59Z</time>
      </trkpt>
      <trkpt lat="43.40431" lon="2.64653">
        <ele>623.8</ele>
        <time>2022-06-21T08:45:00Z</time>
      </trkpt>
      <trkpt lat="43.40432" lon="2.64654">
        <ele>623.8</ele>
        <time>2022-06-21T08:45:01Z</time>
      </trkpt>
      <trkpt lat="43.40432" lon="2.64654">
        <ele>623.9</ele>
        <time>2022-06-21T08:45:02Z</time>
      </trkpt>
      <trkpt lat="43.40432" lon="2.64655">
        <ele>624</ele>
        <time>2022-06-21T08:45:03Z</time>
      </trkpt>
      <trkpt lat="43.40433" lon="2.64655">
        <ele>624.1</ele>
        <time>2022-06-21T08:45:04Z</time>
      </trkpt>
      <trkpt lat="43.40434" lon="2.64655">
        <ele>624.1</ele>
        <time>2022-06-21T08:45:05Z</time>
      </trkpt>
      <trkpt lat="43.40434" lon="2.64656">
        <ele>624.2</ele>
        <time>2022-06-21T08:45:06Z</time>
      </trkpt>
      <trkpt lat="43.40434" lon="2.64656">
        <ele>624.2</ele>
        <time>2022-06-21T08:45:07Z</time>
      </trkpt>
      <trkpt lat="43.40434" lon="2.64656">
        <ele>624.3</ele>
        <time>2022-06-21T08:45:08Z</time>
      </trkpt>
      <trkpt lat="43.40434" lon="2.64656">
        <ele>624.3</ele>
        <time>2022-06-21T08:45:09Z</time>
      </trkpt>
      <trkpt lat="43.40435" lon="2.64655">
        <ele>624.3</ele>
        <time>2022-06-21T08:45:10Z</time>
      </trkpt>
      <trkpt lat="43.40434" lon="2.64655">
        <ele>624.3</ele>
        <time>2022-06-21T08:45:11Z</time>
      </trkpt>
      <trkpt lat="43.40434" lon="2.64654">
        <ele>624.4</ele>
        <time>2022-06-21T08:45:12Z</time>
      </trkpt>
      <trkpt lat="43.40433" lon="2.64654">
        <ele>624.5</ele>
        <time>2022-06-21T08:45:13Z</time>
      </trkpt>
      <trkpt lat="43.40433" lon="2.64653">
        <ele>624.5</ele>
        <time>2022-06-21T08:45:14Z</time>
      </trkpt>
      <trkpt lat="43.40433" lon="2.64653">
        <ele>624.6</ele>
        <time>2022-06-21T08:45:15Z</time>
      </trkpt>
      <trkpt lat="43.40433" lon="2.64653">
        <ele>624.6</ele>
        <time>2022-06-21T08:45:16Z</time>
      </trkpt>
      <trkpt lat="43.40433" lon="2.64653">
        <ele>624.6</ele>
        <time>2022-06-21T08:45:17Z</time>
      </trkpt>
      <trkpt lat="43.40433" lon="2.64653">
        <ele>624.6</ele>
        <time>2022-06-21T08:45:18Z</time>
      </trkpt>
      <trkpt lat="43.40433" lon="2.64653">
        <ele>624.6</ele>
        <time>2022-06-21T08:45:19Z</time>
      </trkpt>
      <trkpt lat="43.40433" lon="2.64653">
        <ele>624.6</ele>
        <time>2022-06-21T08:45:20Z</time>
      </trkpt>
      <trkpt lat="43.40433" lon="2.64653">
        <ele>624.6</ele>
        <time>2022-06-21T08:45:21Z</time>
      </trkpt>
      <trkpt lat="43.40433" lon="2.64653">
        <ele>624.6</ele>
        <time>2022-06-21T08:45:22Z</time>
      </trkpt>
      <trkpt lat="43.40433" lon="2.64653">
        <ele>624.6</ele>
        <time>2022-06-21T08:45:23Z</time>
      </trkpt>
      <trkpt lat="43.40433" lon="2.64653">
        <ele>624.7</ele>
        <time>2022-06-21T08:45:24Z</time>
      </trkpt>
      <trkpt lat="43.40433" lon="2.64653">
        <ele>624.7</ele>
        <time>2022-06-21T08:45:25Z</time>
      </trkpt>
      <trkpt lat="43.40433" lon="2.64653">
        <ele>624.7</ele>
        <time>2022-06-21T08:45:26Z</time>
      </trkpt>
      <trkpt lat="43.40433" lon="2.64653">
        <ele>624.7</ele>
        <time>2022-06-21T08:45:27Z</time>
      </trkpt>
      <trkpt lat="43.40433" lon="2.64652">
        <ele>624.8</ele>
        <time>2022-06-21T08:45:28Z</time>
      </trkpt>
      <trkpt lat="43.40433" lon="2.64651">
        <ele>624.9</ele>
        <time>2022-06-21T08:45:29Z</time>
      </trkpt>
      <trkpt lat="43.40433" lon="2.64649">
        <ele>625</ele>
        <time>2022-06-21T08:45:30Z</time>
      </trkpt>
      <trkpt lat="43.40433" lon="2.64648">
        <ele>625</ele>
        <time>2022-06-21T08:45:31Z</time>
      </trkpt>
      <trkpt lat="43.40434" lon="2.64648">
        <ele>625.1</ele>
        <time>2022-06-21T08:45:32Z</time>
      </trkpt>
      <trkpt lat="43.40434" lon="2.64648">
        <ele>625.2</ele>
        <time>2022-06-21T08:45:33Z</time>
      </trkpt>
      <trkpt lat="43.40434" lon="2.64648">
        <ele>625.2</ele>
        <time>2022-06-21T08:45:34Z</time>
      </trkpt>
      <trkpt lat="43.40434" lon="2.64648">
        <ele>625.2</ele>
        <time>2022-06-21T08:45:35Z</time>
      </trkpt>
      <trkpt lat="43.40434" lon="2.64648">
        <ele>625.2</ele>
        <time>2022-06-21T08:45:36Z</time>
      </trkpt>
      <trkpt lat="43.40434" lon="2.64648">
        <ele>625.2</ele>
        <time>2022-06-21T08:45:37Z</time>
      </trkpt>
      <trkpt lat="43.40434" lon="2.64648">
        <ele>625.2</ele>
        <time>2022-06-21T08:45:38Z</time>
      </trkpt>
      <trkpt lat="43.40434" lon="2.64648">
        <ele>625.2</ele>
        <time>2022-06-21T08:45:39Z</time>
      </trkpt>
      <trkpt lat="43.40433" lon="2.64648">
        <ele>625.2</ele>
        <time>2022-06-21T08:45:40Z</time>
      </trkpt>
      <trkpt lat="43.40433" lon="2.64648">
        <ele>625.2</ele>
        <time>2022-06-21T08:45:41Z</time>
      </trkpt>
      <trkpt lat="43.40433" lon="2.64648">
        <ele>625.2</ele>
        <time>2022-06-21T08:45:42Z</time>
      </trkpt>
      <trkpt lat="43.40433" lon="2.64648">
        <ele>625.2</ele>
        <time>2022-06-21T08:45:43Z</time>
      </trkpt>
      <trkpt lat="43.40433" lon="2.64648">
        <ele>625.2</ele>
        <time>2022-06-21T08:45:44Z</time>
      </trkpt>
      <trkpt lat="43.40433" lon="2.64648">
        <ele>625.2</ele>
        <time>2022-06-21T08:45:45Z</time>
      </trkpt>
      <trkpt lat="43.40433" lon="2.64648">
        <ele>625.2</ele>
        <time>2022-06-21T08:45:46Z</time>
      </trkpt>
      <trkpt lat="43.40433" lon="2.64649">
        <ele>625.2</ele>
        <time>2022-06-21T08:45:47Z</time>
      </trkpt>
      <trkpt lat="43.40433" lon="2.64649">
        <ele>625.2</ele>
        <time>2022-06-21T08:45:48Z</time>
      </trkpt>
      <trkpt lat="43.40433" lon="2.64649">
        <ele>625.2</ele>
        <time>2022-06-21T08:45:49Z</time>
      </trkpt>
      <trkpt lat="43.40433" lon="2.64649">
        <ele>625.3</ele>
        <time>2022-06-21T08:45:50Z</time>
      </trkpt>
      <trkpt lat="43.40433" lon="2.64649">
        <ele>625.3</ele>
        <time>2022-06-21T08:45:51Z</time>
      </trkpt>
      <trkpt lat="43.40433" lon="2.64649">
        <ele>625.3</ele>
        <time>2022-06-21T08:45:52Z</time>
      </trkpt>
      <trkpt lat="43.40433" lon="2.64649">
        <ele>625.3</ele>
        <time>2022-06-21T08:45:53Z</time>
      </trkpt>
      <trkpt lat="43.40433" lon="2.64649">
        <ele>625.3</ele>
        <time>2022-06-21T08:45:54Z</time>
      </trkpt>
      <trkpt lat="43.40433" lon="2.64649">
        <ele>625.3</ele>
        <time>2022-06-21T08:45:55Z</time>
      </trkpt>
      <trkpt lat="43.40433" lon="2.64649">
        <ele>625.3</ele>
        <time>2022-06-21T08:45:56Z</time>
      </trkpt>
      <trkpt lat="43.40433" lon="2.64649">
        <ele>625.3</ele>
        <time>2022-06-21T08:45:57Z</time>
      </trkpt>
      <trkpt lat="43.40433" lon="2.64649">
        <ele>625.3</ele>
        <time>2022-06-21T08:45:58Z</time>
      </trkpt>
      <trkpt lat="43.40433" lon="2.64649">
        <ele>625.3</ele>
        <time>2022-06-21T08:45:59Z</time>
      </trkpt>
      <trkpt lat="43.40433" lon="2.64649">
        <ele>625.3</ele>
        <time>2022-06-21T08:46:00Z</time>
      </trkpt>
      <trkpt lat="43.40433" lon="2.64649">
        <ele>625.3</ele>
        <time>2022-06-21T08:46:01Z</time>
      </trkpt>
      <trkpt lat="43.40433" lon="2.64649">
        <ele>625.3</ele>
        <time>2022-06-21T08:46:02Z</time>
      </trkpt>
      <trkpt lat="43.40433" lon="2.6465">
        <ele>625.3</ele>
        <time>2022-06-21T08:46:03Z</time>
      </trkpt>
      <trkpt lat="43.40433" lon="2.6465">
        <ele>625.3</ele>
        <time>2022-06-21T08:46:04Z</time>
      </trkpt>
      <trkpt lat="43.40433" lon="2.6465">
        <ele>625.3</ele>
        <time>2022-06-21T08:46:05Z</time>
      </trkpt>
      <trkpt lat="43.40433" lon="2.6465">
        <ele>625.3</ele>
        <time>2022-06-21T08:46:06Z</time>
      </trkpt>
      <trkpt lat="43.40433" lon="2.6465">
        <ele>625.3</ele>
        <time>2022-06-21T08:46:07Z</time>
      </trkpt>
      <trkpt lat="43.40433" lon="2.6465">
        <ele>625.3</ele>
        <time>2022-06-21T08:46:08Z</time>
      </trkpt>
      <trkpt lat="43.40433" lon="2.6465">
        <ele>625.3</ele>
        <time>2022-06-21T08:46:09Z</time>
      </trkpt>
      <trkpt lat="43.40433" lon="2.6465">
        <ele>625.3</ele>
        <time>2022-06-21T08:46:10Z</time>
      </trkpt>
      <trkpt lat="43.40433" lon="2.6465">
        <ele>625.3</ele>
        <time>2022-06-21T08:46:11Z</time>
      </trkpt>
      <trkpt lat="43.40433" lon="2.6465">
        <ele>625.3</ele>
        <time>2022-06-21T08:46:12Z</time>
      </trkpt>
      <trkpt lat="43.40433" lon="2.6465">
        <ele>625.3</ele>
        <time>2022-06-21T08:46:13Z</time>
      </trkpt>
      <trkpt lat="43.40433" lon="2.6465">
        <ele>625.3</ele>
        <time>2022-06-21T08:46:14Z</time>
      </trkpt>
      <trkpt lat="43.40433" lon="2.6465">
        <ele>625.3</ele>
        <time>2022-06-21T08:46:15Z</time>
      </trkpt>
      <trkpt lat="43.40433" lon="2.6465">
        <ele>625.3</ele>
        <time>2022-06-21T08:46:16Z</time>
      </trkpt>
      <trkpt lat="43.40433" lon="2.6465">
        <ele>625.4</ele>
        <time>2022-06-21T08:46:17Z</time>
      </trkpt>
      <trkpt lat="43.40433" lon="2.6465">
        <ele>625.4</ele>
        <time>2022-06-21T08:46:18Z</time>
      </trkpt>
      <trkpt lat="43.40433" lon="2.64651">
        <ele>625.4</ele>
        <time>2022-06-21T08:46:19Z</time>
      </trkpt>
      <trkpt lat="43.40433" lon="2.64651">
        <ele>625.4</ele>
        <time>2022-06-21T08:46:20Z</time>
      </trkpt>
      <trkpt lat="43.40433" lon="2.64651">
        <ele>625.4</ele>
        <time>2022-06-21T08:46:21Z</time>
      </trkpt>
      <trkpt lat="43.40433" lon="2.64651">
        <ele>625.4</ele>
        <time>2022-06-21T08:46:22Z</time>
      </trkpt>
      <trkpt lat="43.40433" lon="2.64651">
        <ele>625.4</ele>
        <time>2022-06-21T08:46:23Z</time>
      </trkpt>
      <trkpt lat="43.40433" lon="2.64651">
        <ele>625.4</ele>
        <time>2022-06-21T08:46:24Z</time>
      </trkpt>
      <trkpt lat="43.40433" lon="2.64651">
        <ele>625.4</ele>
        <time>2022-06-21T08:46:25Z</time>
      </trkpt>
      <trkpt lat="43.40433" lon="2.64651">
        <ele>625.4</ele>
        <time>2022-06-21T08:46:26Z</time>
      </trkpt>
      <trkpt lat="43.40433" lon="2.64651">
        <ele>625.4</ele>
        <time>2022-06-21T08:46:27Z</time>
      </trkpt>
      <trkpt lat="43.40433" lon="2.64651">
        <ele>625.4</ele>
        <time>2022-06-21T08:46:28Z</time>
      </trkpt>
      <trkpt lat="43.40433" lon="2.64651">
        <ele>625.4</ele>
        <time>2022-06-21T08:46:29Z</time>
      </trkpt>
      <trkpt lat="43.40433" lon="2.64651">
        <ele>625.4</ele>
        <time>2022-06-21T08:46:30Z</time>
      </trkpt>
      <trkpt lat="43.40433" lon="2.64651">
        <ele>625.4</ele>
        <time>2022-06-21T08:46:31Z</time>
      </trkpt>
      <trkpt lat="43.40433" lon="2.64651">
        <ele>625.4</ele>
        <time>2022-06-21T08:46:32Z</time>
      </trkpt>
      <trkpt lat="43.40433" lon="2.64651">
        <ele>625.4</ele>
        <time>2022-06-21T08:46:33Z</time>
      </trkpt>
      <trkpt lat="43.40433" lon="2.64651">
        <ele>625.4</ele>
        <time>2022-06-21T08:46:34Z</time>
      </trkpt>
      <trkpt lat="43.40433" lon="2.64652">
        <ele>625.4</ele>
        <time>2022-06-21T08:46:35Z</time>
      </trkpt>
      <trkpt lat="43.40433" lon="2.64652">
        <ele>625.4</ele>
        <time>2022-06-21T08:46:36Z</time>
      </trkpt>
      <trkpt lat="43.40433" lon="2.64652">
        <ele>625.4</ele>
        <time>2022-06-21T08:46:37Z</time>
      </trkpt>
      <trkpt lat="43.40433" lon="2.64652">
        <ele>625.4</ele>
        <time>2022-06-21T08:46:38Z</time>
      </trkpt>
      <trkpt lat="43.40433" lon="2.64652">
        <ele>625.4</ele>
        <time>2022-06-21T08:46:39Z</time>
      </trkpt>
      <trkpt lat="43.40433" lon="2.64652">
        <ele>625.4</ele>
        <time>2022-06-21T08:46:40Z</time>
      </trkpt>
      <trkpt lat="43.40432" lon="2.64652">
        <ele>625.4</ele>
        <time>2022-06-21T08:46:41Z</time>
      </trkpt>
      <trkpt lat="43.40432" lon="2.64652">
        <ele>625.4</ele>
        <time>2022-06-21T08:46:42Z</time>
      </trkpt>
      <trkpt lat="43.40432" lon="2.64652">
        <ele>625.4</ele>
        <time>2022-06-21T08:46:43Z</time>
      </trkpt>
      <trkpt lat="43.40432" lon="2.64652">
        <ele>625.4</ele>
        <time>2022-06-21T08:46:44Z</time>
      </trkpt>
      <trkpt lat="43.40432" lon="2.64652">
        <ele>625.4</ele>
        <time>2022-06-21T08:46:45Z</time>
      </trkpt>
      <trkpt lat="43.40432" lon="2.64652">
        <ele>625.5</ele>
        <time>2022-06-21T08:46:46Z</time>
      </trkpt>
      <trkpt lat="43.40432" lon="2.64652">
        <ele>625.5</ele>
        <time>2022-06-21T08:46:47Z</time>
      </trkpt>
      <trkpt lat="43.40432" lon="2.64652">
        <ele>625.5</ele>
        <time>2022-06-21T08:46:48Z</time>
      </trkpt>
      <trkpt lat="43.40432" lon="2.64652">
        <ele>625.5</ele>
        <time>2022-06-21T08:46:49Z</time>
      </trkpt>
      <trkpt lat="43.40432" lon="2.64652">
        <ele>625.5</ele>
        <time>2022-06-21T08:46:50Z</time>
      </trkpt>
      <trkpt lat="43.40432" lon="2.64653">
        <ele>625.5</ele>
        <time>2022-06-21T08:46:51Z</time>
      </trkpt>
      <trkpt lat="43.40432" lon="2.64653">
        <ele>625.5</ele>
        <time>2022-06-21T08:46:52Z</time>
      </trkpt>
      <trkpt lat="43.40432" lon="2.64653">
        <ele>625.5</ele>
        <time>2022-06-21T08:46:53Z</time>
      </trkpt>
      <trkpt lat="43.40432" lon="2.64653">
        <ele>625.5</ele>
        <time>2022-06-21T08:46:54Z</time>
      </trkpt>
      <trkpt lat="43.40432" lon="2.64653">
        <ele>625.5</ele>
        <time>2022-06-21T08:46:55Z</time>
      </trkpt>
      <trkpt lat="43.40432" lon="2.64653">
        <ele>625.5</ele>
        <time>2022-06-21T08:46:56Z</time>
      </trkpt>
      <trkpt lat="43.40432" lon="2.64653">
        <ele>625.5</ele>
        <time>2022-06-21T08:46:57Z</time>
      </trkpt>
      <trkpt lat="43.40432" lon="2.64653">
        <ele>625.5</ele>
        <time>2022-06-21T08:46:58Z</time>
      </trkpt>
      <trkpt lat="43.40432" lon="2.64653">
        <ele>625.5</ele>
        <time>2022-06-21T08:46:59Z</time>
      </trkpt>
      <trkpt lat="43.40432" lon="2.64653">
        <ele>625.5</ele>
        <time>2022-06-21T08:47:00Z</time>
      </trkpt>
      <trkpt lat="43.40432" lon="2.64655">
        <ele>625.5</ele>
        <time>2022-06-21T08:47:01Z</time>
      </trkpt>
      <trkpt lat="43.40432" lon="2.64656">
        <ele>625.6</ele>
        <time>2022-06-21T08:47:02Z</time>
      </trkpt>
      <trkpt lat="43.40433" lon="2.64658">
        <ele>625.6</ele>
        <time>2022-06-21T08:47:03Z</time>
      </trkpt>
      <trkpt lat="43.40433" lon="2.64659">
        <ele>625.7</ele>
        <time>2022-06-21T08:47:04Z</time>
      </trkpt>
      <trkpt lat="43.40434" lon="2.6466">
        <ele>625.7</ele>
        <time>2022-06-21T08:47:05Z</time>
      </trkpt>
      <trkpt lat="43.40435" lon="2.64661">
        <ele>625.7</ele>
        <time>2022-06-21T08:47:06Z</time>
      </trkpt>
      <trkpt lat="43.40435" lon="2.64662">
        <ele>625.7</ele>
        <time>2022-06-21T08:47:07Z</time>
      </trkpt>
      <trkpt lat="43.40436" lon="2.64663">
        <ele>625.8</ele>
        <time>2022-06-21T08:47:08Z</time>
      </trkpt>
      <trkpt lat="43.40437" lon="2.64665">
        <ele>625.8</ele>
        <time>2022-06-21T08:47:09Z</time>
      </trkpt>
      <trkpt lat="43.40437" lon="2.64666">
        <ele>625.8</ele>
        <time>2022-06-21T08:47:10Z</time>
      </trkpt>
      <trkpt lat="43.40437" lon="2.64667">
        <ele>625.8</ele>
        <time>2022-06-21T08:47:11Z</time>
      </trkpt>
      <trkpt lat="43.40438" lon="2.64668">
        <ele>625.8</ele>
        <time>2022-06-21T08:47:12Z</time>
      </trkpt>
      <trkpt lat="43.40438" lon="2.6467">
        <ele>625.8</ele>
        <time>2022-06-21T08:47:13Z</time>
      </trkpt>
      <trkpt lat="43.40439" lon="2.64671">
        <ele>625.7</ele>
        <time>2022-06-21T08:47:14Z</time>
      </trkpt>
      <trkpt lat="43.40439" lon="2.64671">
        <ele>625.7</ele>
        <time>2022-06-21T08:47:15Z</time>
      </trkpt>
      <trkpt lat="43.4044" lon="2.64672">
        <ele>625.7</ele>
        <time>2022-06-21T08:47:16Z</time>
      </trkpt>
      <trkpt lat="43.40441" lon="2.64673">
        <ele>625.7</ele>
        <time>2022-06-21T08:47:17Z</time>
      </trkpt>
      <trkpt lat="43.40442" lon="2.64674">
        <ele>625.7</ele>
        <time>2022-06-21T08:47:18Z</time>
      </trkpt>
      <trkpt lat="43.40442" lon="2.64675">
        <ele>625.7</ele>
        <time>2022-06-21T08:47:19Z</time>
      </trkpt>
      <trkpt lat="43.40443" lon="2.64676">
        <ele>625.7</ele>
        <time>2022-06-21T08:47:20Z</time>
      </trkpt>
      <trkpt lat="43.40444" lon="2.64677">
        <ele>625.6</ele>
        <time>2022-06-21T08:47:21Z</time>
      </trkpt>
      <trkpt lat="43.40444" lon="2.64678">
        <ele>625.6</ele>
        <time>2022-06-21T08:47:22Z</time>
      </trkpt>
      <trkpt lat="43.40444" lon="2.64679">
        <ele>625.6</ele>
        <time>2022-06-21T08:47:23Z</time>
      </trkpt>
      <trkpt lat="43.40445" lon="2.6468">
        <ele>625.6</ele>
        <time>2022-06-21T08:47:24Z</time>
      </trkpt>
      <trkpt lat="43.40446" lon="2.64682">
        <ele>625.6</ele>
        <time>2022-06-21T08:47:25Z</time>
      </trkpt>
      <trkpt lat="43.40446" lon="2.64683">
        <ele>625.5</ele>
        <time>2022-06-21T08:47:26Z</time>
      </trkpt>
      <trkpt lat="43.40447" lon="2.64684">
        <ele>625.5</ele>
        <time>2022-06-21T08:47:27Z</time>
      </trkpt>
      <trkpt lat="43.40447" lon="2.64685">
        <ele>625.5</ele>
        <time>2022-06-21T08:47:28Z</time>
      </trkpt>
      <trkpt lat="43.40448" lon="2.64685">
        <ele>625.5</ele>
        <time>2022-06-21T08:47:29Z</time>
      </trkpt>
      <trkpt lat="43.40448" lon="2.64686">
        <ele>625.5</ele>
        <time>2022-06-21T08:47:30Z</time>
      </trkpt>
      <trkpt lat="43.40448" lon="2.64687">
        <ele>625.5</ele>
        <time>2022-06-21T08:47:31Z</time>
      </trkpt>
      <trkpt lat="43.40449" lon="2.64689">
        <ele>625.5</ele>
        <time>2022-06-21T08:47:32Z</time>
      </trkpt>
      <trkpt lat="43.40449" lon="2.6469">
        <ele>625.5</ele>
        <time>2022-06-21T08:47:33Z</time>
      </trkpt>
      <trkpt lat="43.4045" lon="2.64691">
        <ele>625.5</ele>
        <time>2022-06-21T08:47:34Z</time>
      </trkpt>
      <trkpt lat="43.40451" lon="2.64693">
        <ele>625.4</ele>
        <time>2022-06-21T08:47:35Z</time>
      </trkpt>
      <trkpt lat="43.40451" lon="2.64694">
        <ele>625.4</ele>
        <time>2022-06-21T08:47:36Z</time>
      </trkpt>
      <trkpt lat="43.40451" lon="2.64695">
        <ele>625.4</ele>
        <time>2022-06-21T08:47:37Z</time>
      </trkpt>
      <trkpt lat="43.40452" lon="2.64696">
        <ele>625.4</ele>
        <time>2022-06-21T08:47:38Z</time>
      </trkpt>
      <trkpt lat="43.40452" lon="2.64697">
        <ele>625.4</ele>
        <time>2022-06-21T08:47:39Z</time>
      </trkpt>
      <trkpt lat="43.40453" lon="2.64698">
        <ele>625.4</ele>
        <time>2022-06-21T08:47:40Z</time>
      </trkpt>
      <trkpt lat="43.40453" lon="2.64699">
        <ele>625.4</ele>
        <time>2022-06-21T08:47:41Z</time>
      </trkpt>
      <trkpt lat="43.40454" lon="2.647">
        <ele>625.4</ele>
        <time>2022-06-21T08:47:42Z</time>
      </trkpt>
      <trkpt lat="43.40454" lon="2.64701">
        <ele>625.4</ele>
        <time>2022-06-21T08:47:43Z</time>
      </trkpt>
      <trkpt lat="43.40455" lon="2.64702">
        <ele>625.4</ele>
        <time>2022-06-21T08:47:44Z</time>
      </trkpt>
      <trkpt lat="43.40455" lon="2.64704">
        <ele>625.4</ele>
        <time>2022-06-21T08:47:45Z</time>
      </trkpt>
      <trkpt lat="43.40456" lon="2.64705">
        <ele>625.4</ele>
        <time>2022-06-21T08:47:46Z</time>
      </trkpt>
      <trkpt lat="43.40456" lon="2.64706">
        <ele>625.4</ele>
        <time>2022-06-21T08:47:47Z</time>
      </trkpt>
      <trkpt lat="43.40457" lon="2.64707">
        <ele>625.4</ele>
        <time>2022-06-21T08:47:48Z</time>
      </trkpt>
      <trkpt lat="43.40457" lon="2.64709">
        <ele>625.5</ele>
        <time>2022-06-21T08:47:49Z</time>
      </trkpt>
      <trkpt lat="43.40458" lon="2.6471">
        <ele>625.5</ele>
        <time>2022-06-21T08:47:50Z</time>
      </trkpt>
      <trkpt lat="43.40458" lon="2.64711">
        <ele>625.5</ele>
        <time>2022-06-21T08:47:51Z</time>
      </trkpt>
      <trkpt lat="43.40458" lon="2.64713">
        <ele>625.5</ele>
        <time>2022-06-21T08:47:52Z</time>
      </trkpt>
      <trkpt lat="43.40458" lon="2.64714">
        <ele>625.5</ele>
        <time>2022-06-21T08:47:53Z</time>
      </trkpt>
      <trkpt lat="43.40458" lon="2.64714">
        <ele>625.5</ele>
        <time>2022-06-21T08:47:54Z</time>
      </trkpt>
      <trkpt lat="43.40458" lon="2.64715">
        <ele>625.5</ele>
        <time>2022-06-21T08:47:55Z</time>
      </trkpt>
      <trkpt lat="43.40458" lon="2.64715">
        <ele>625.5</ele>
        <time>2022-06-21T08:47:56Z</time>
      </trkpt>
      <trkpt lat="43.40458" lon="2.64715">
        <ele>625.5</ele>
        <time>2022-06-21T08:47:57Z</time>
      </trkpt>
      <trkpt lat="43.40458" lon="2.64715">
        <ele>625.5</ele>
        <time>2022-06-21T08:47:58Z</time>
      </trkpt>
      <trkpt lat="43.40458" lon="2.64715">
        <ele>625.5</ele>
        <time>2022-06-21T08:47:59Z</time>
      </trkpt>
      <trkpt lat="43.40458" lon="2.64715">
        <ele>625.5</ele>
        <time>2022-06-21T08:48:00Z</time>
      </trkpt>
      <trkpt lat="43.40458" lon="2.64715">
        <ele>625.5</ele>
        <time>2022-06-21T08:48:01Z</time>
      </trkpt>
      <trkpt lat="43.40458" lon="2.64715">
        <ele>625.6</ele>
        <time>2022-06-21T08:48:02Z</time>
      </trkpt>
      <trkpt lat="43.40458" lon="2.64715">
        <ele>625.6</ele>
        <time>2022-06-21T08:48:03Z</time>
      </trkpt>
      <trkpt lat="43.40458" lon="2.64716">
        <ele>625.6</ele>
        <time>2022-06-21T08:48:04Z</time>
      </trkpt>
      <trkpt lat="43.40459" lon="2.64717">
        <ele>625.6</ele>
        <time>2022-06-21T08:48:05Z</time>
      </trkpt>
      <trkpt lat="43.40459" lon="2.64718">
        <ele>625.6</ele>
        <time>2022-06-21T08:48:06Z</time>
      </trkpt>
      <trkpt lat="43.4046" lon="2.64719">
        <ele>625.7</ele>
        <time>2022-06-21T08:48:07Z</time>
      </trkpt>
      <trkpt lat="43.4046" lon="2.6472">
        <ele>625.7</ele>
        <time>2022-06-21T08:48:08Z</time>
      </trkpt>
      <trkpt lat="43.40461" lon="2.64722">
        <ele>625.7</ele>
        <time>2022-06-21T08:48:09Z</time>
      </trkpt>
      <trkpt lat="43.40461" lon="2.64723">
        <ele>625.8</ele>
        <time>2022-06-21T08:48:10Z</time>
      </trkpt>
      <trkpt lat="43.40462" lon="2.64724">
        <ele>625.8</ele>
        <time>2022-06-21T08:48:11Z</time>
      </trkpt>
      <trkpt lat="43.40462" lon="2.64726">
        <ele>625.8</ele>
        <time>2022-06-21T08:48:12Z</time>
      </trkpt>
      <trkpt lat="43.40463" lon="2.64727">
        <ele>625.8</ele>
        <time>2022-06-21T08:48:13Z</time>
      </trkpt>
      <trkpt lat="43.40463" lon="2.64728">
        <ele>625.9</ele>
        <time>2022-06-21T08:48:14Z</time>
      </trkpt>
      <trkpt lat="43.40463" lon="2.6473">
        <ele>625.9</ele>
        <time>2022-06-21T08:48:15Z</time>
      </trkpt>
      <trkpt lat="43.40464" lon="2.64731">
        <ele>625.9</ele>
        <time>2022-06-21T08:48:16Z</time>
      </trkpt>
      <trkpt lat="43.40465" lon="2.64732">
        <ele>625.9</ele>
        <time>2022-06-21T08:48:17Z</time>
      </trkpt>
      <trkpt lat="43.40465" lon="2.64733">
        <ele>626</ele>
        <time>2022-06-21T08:48:18Z</time>
      </trkpt>
      <trkpt lat="43.40466" lon="2.64735">
        <ele>626</ele>
        <time>2022-06-21T08:48:19Z</time>
      </trkpt>
      <trkpt lat="43.40466" lon="2.64736">
        <ele>626</ele>
        <time>2022-06-21T08:48:20Z</time>
      </trkpt>
      <trkpt lat="43.40466" lon="2.64738">
        <ele>626</ele>
        <time>2022-06-21T08:48:21Z</time>
      </trkpt>
      <trkpt lat="43.40467" lon="2.64739">
        <ele>626</ele>
        <time>2022-06-21T08:48:22Z</time>
      </trkpt>
      <trkpt lat="43.40467" lon="2.6474">
        <ele>626</ele>
        <time>2022-06-21T08:48:23Z</time>
      </trkpt>
      <trkpt lat="43.40468" lon="2.64742">
        <ele>626</ele>
        <time>2022-06-21T08:48:24Z</time>
      </trkpt>
      <trkpt lat="43.40468" lon="2.64743">
        <ele>626.1</ele>
        <time>2022-06-21T08:48:25Z</time>
      </trkpt>
      <trkpt lat="43.40469" lon="2.64744">
        <ele>626.1</ele>
        <time>2022-06-21T08:48:26Z</time>
      </trkpt>
      <trkpt lat="43.4047" lon="2.64746">
        <ele>626.1</ele>
        <time>2022-06-21T08:48:27Z</time>
      </trkpt>
      <trkpt lat="43.4047" lon="2.64747">
        <ele>626.1</ele>
        <time>2022-06-21T08:48:28Z</time>
      </trkpt>
      <trkpt lat="43.40471" lon="2.64748">
        <ele>626.1</ele>
        <time>2022-06-21T08:48:29Z</time>
      </trkpt>
      <trkpt lat="43.40472" lon="2.64749">
        <ele>626.1</ele>
        <time>2022-06-21T08:48:30Z</time>
      </trkpt>
      <trkpt lat="43.40472" lon="2.6475">
        <ele>626.1</ele>
        <time>2022-06-21T08:48:31Z</time>
      </trkpt>
      <trkpt lat="43.40474" lon="2.64752">
        <ele>626.1</ele>
        <time>2022-06-21T08:48:32Z</time>
      </trkpt>
      <trkpt lat="43.40474" lon="2.64753">
        <ele>626.1</ele>
        <time>2022-06-21T08:48:33Z</time>
      </trkpt>
      <trkpt lat="43.40475" lon="2.64754">
        <ele>626.1</ele>
        <time>2022-06-21T08:48:34Z</time>
      </trkpt>
      <trkpt lat="43.40475" lon="2.64755">
        <ele>626.1</ele>
        <time>2022-06-21T08:48:35Z</time>
      </trkpt>
      <trkpt lat="43.40476" lon="2.64756">
        <ele>626.1</ele>
        <time>2022-06-21T08:48:36Z</time>
      </trkpt>
      <trkpt lat="43.40477" lon="2.64757">
        <ele>626.1</ele>
        <time>2022-06-21T08:48:37Z</time>
      </trkpt>
      <trkpt lat="43.40478" lon="2.64758">
        <ele>626.1</ele>
        <time>2022-06-21T08:48:38Z</time>
      </trkpt>
      <trkpt lat="43.40479" lon="2.6476">
        <ele>626.1</ele>
        <time>2022-06-21T08:48:39Z</time>
      </trkpt>
      <trkpt lat="43.4048" lon="2.64761">
        <ele>626.1</ele>
        <time>2022-06-21T08:48:40Z</time>
      </trkpt>
      <trkpt lat="43.4048" lon="2.64762">
        <ele>626.1</ele>
        <time>2022-06-21T08:48:41Z</time>
      </trkpt>
      <trkpt lat="43.40481" lon="2.64763">
        <ele>626.1</ele>
        <time>2022-06-21T08:48:42Z</time>
      </trkpt>
      <trkpt lat="43.40482" lon="2.64764">
        <ele>626.1</ele>
        <time>2022-06-21T08:48:43Z</time>
      </trkpt>
      <trkpt lat="43.40483" lon="2.64766">
        <ele>626.1</ele>
        <time>2022-06-21T08:48:44Z</time>
      </trkpt>
      <trkpt lat="43.40483" lon="2.64767">
        <ele>626.1</ele>
        <time>2022-06-21T08:48:45Z</time>
      </trkpt>
      <trkpt lat="43.40484" lon="2.64768">
        <ele>626.1</ele>
        <time>2022-06-21T08:48:46Z</time>
      </trkpt>
      <trkpt lat="43.40485" lon="2.64769">
        <ele>626.1</ele>
        <time>2022-06-21T08:48:47Z</time>
      </trkpt>
      <trkpt lat="43.40485" lon="2.6477">
        <ele>626.1</ele>
        <time>2022-06-21T08:48:48Z</time>
      </trkpt>
      <trkpt lat="43.40486" lon="2.64771">
        <ele>626.1</ele>
        <time>2022-06-21T08:48:49Z</time>
      </trkpt>
      <trkpt lat="43.40487" lon="2.64772">
        <ele>626.2</ele>
        <time>2022-06-21T08:48:50Z</time>
      </trkpt>
      <trkpt lat="43.40487" lon="2.64773">
        <ele>626.2</ele>
        <time>2022-06-21T08:48:51Z</time>
      </trkpt>
      <trkpt lat="43.40488" lon="2.64774">
        <ele>626.2</ele>
        <time>2022-06-21T08:48:52Z</time>
      </trkpt>
      <trkpt lat="43.40489" lon="2.64775">
        <ele>626.2</ele>
        <time>2022-06-21T08:48:53Z</time>
      </trkpt>
      <trkpt lat="43.4049" lon="2.64778">
        <ele>626.2</ele>
        <time>2022-06-21T08:48:54Z</time>
      </trkpt>
      <trkpt lat="43.4049" lon="2.64779">
        <ele>626.2</ele>
        <time>2022-06-21T08:48:55Z</time>
      </trkpt>
      <trkpt lat="43.40491" lon="2.6478">
        <ele>626.2</ele>
        <time>2022-06-21T08:48:56Z</time>
      </trkpt>
      <trkpt lat="43.40491" lon="2.64781">
        <ele>626.2</ele>
        <time>2022-06-21T08:48:57Z</time>
      </trkpt>
      <trkpt lat="43.40492" lon="2.64782">
        <ele>626.2</ele>
        <time>2022-06-21T08:48:58Z</time>
      </trkpt>
      <trkpt lat="43.40492" lon="2.64783">
        <ele>626.2</ele>
        <time>2022-06-21T08:48:59Z</time>
      </trkpt>
      <trkpt lat="43.40493" lon="2.64785">
        <ele>626.3</ele>
        <time>2022-06-21T08:49:00Z</time>
      </trkpt>
      <trkpt lat="43.40494" lon="2.64787">
        <ele>626.3</ele>
        <time>2022-06-21T08:49:01Z</time>
      </trkpt>
      <trkpt lat="43.40494" lon="2.64788">
        <ele>626.3</ele>
        <time>2022-06-21T08:49:02Z</time>
      </trkpt>
      <trkpt lat="43.40495" lon="2.64789">
        <ele>626.3</ele>
        <time>2022-06-21T08:49:03Z</time>
      </trkpt>
      <trkpt lat="43.40495" lon="2.6479">
        <ele>626.3</ele>
        <time>2022-06-21T08:49:04Z</time>
      </trkpt>
      <trkpt lat="43.40496" lon="2.64792">
        <ele>626.4</ele>
        <time>2022-06-21T08:49:05Z</time>
      </trkpt>
      <trkpt lat="43.40497" lon="2.64794">
        <ele>626.4</ele>
        <time>2022-06-21T08:49:06Z</time>
      </trkpt>
      <trkpt lat="43.40497" lon="2.64796">
        <ele>626.5</ele>
        <time>2022-06-21T08:49:07Z</time>
      </trkpt>
      <trkpt lat="43.40498" lon="2.64797">
        <ele>626.5</ele>
        <time>2022-06-21T08:49:08Z</time>
      </trkpt>
      <trkpt lat="43.40498" lon="2.64798">
        <ele>626.5</ele>
        <time>2022-06-21T08:49:09Z</time>
      </trkpt>
      <trkpt lat="43.40499" lon="2.64799">
        <ele>626.5</ele>
        <time>2022-06-21T08:49:10Z</time>
      </trkpt>
      <trkpt lat="43.40499" lon="2.648">
        <ele>626.6</ele>
        <time>2022-06-21T08:49:11Z</time>
      </trkpt>
      <trkpt lat="43.405" lon="2.64801">
        <ele>626.6</ele>
        <time>2022-06-21T08:49:12Z</time>
      </trkpt>
      <trkpt lat="43.405" lon="2.64802">
        <ele>626.6</ele>
        <time>2022-06-21T08:49:13Z</time>
      </trkpt>
      <trkpt lat="43.40501" lon="2.64804">
        <ele>626.6</ele>
        <time>2022-06-21T08:49:14Z</time>
      </trkpt>
      <trkpt lat="43.40501" lon="2.64805">
        <ele>626.7</ele>
        <time>2022-06-21T08:49:15Z</time>
      </trkpt>
      <trkpt lat="43.40502" lon="2.64806">
        <ele>626.7</ele>
        <time>2022-06-21T08:49:16Z</time>
      </trkpt>
      <trkpt lat="43.40503" lon="2.64807">
        <ele>626.7</ele>
        <time>2022-06-21T08:49:17Z</time>
      </trkpt>
      <trkpt lat="43.40503" lon="2.64808">
        <ele>626.7</ele>
        <time>2022-06-21T08:49:18Z</time>
      </trkpt>
      <trkpt lat="43.40504" lon="2.64809">
        <ele>626.7</ele>
        <time>2022-06-21T08:49:19Z</time>
      </trkpt>
      <trkpt lat="43.40504" lon="2.6481">
        <ele>626.7</ele>
        <time>2022-06-21T08:49:20Z</time>
      </trkpt>
      <trkpt lat="43.40505" lon="2.64811">
        <ele>626.8</ele>
        <time>2022-06-21T08:49:21Z</time>
      </trkpt>
      <trkpt lat="43.40505" lon="2.64813">
        <ele>626.8</ele>
        <time>2022-06-21T08:49:22Z</time>
      </trkpt>
      <trkpt lat="43.40506" lon="2.64814">
        <ele>626.7</ele>
        <time>2022-06-21T08:49:23Z</time>
      </trkpt>
      <trkpt lat="43.40506" lon="2.64815">
        <ele>626.7</ele>
        <time>2022-06-21T08:49:24Z</time>
      </trkpt>
      <trkpt lat="43.40507" lon="2.64816">
        <ele>626.7</ele>
        <time>2022-06-21T08:49:25Z</time>
      </trkpt>
      <trkpt lat="43.40508" lon="2.64817">
        <ele>626.7</ele>
        <time>2022-06-21T08:49:26Z</time>
      </trkpt>
      <trkpt lat="43.40508" lon="2.64818">
        <ele>626.7</ele>
        <time>2022-06-21T08:49:27Z</time>
      </trkpt>
      <trkpt lat="43.40509" lon="2.64819">
        <ele>626.7</ele>
        <time>2022-06-21T08:49:28Z</time>
      </trkpt>
      <trkpt lat="43.40509" lon="2.6482">
        <ele>626.6</ele>
        <time>2022-06-21T08:49:29Z</time>
      </trkpt>
      <trkpt lat="43.4051" lon="2.64821">
        <ele>626.6</ele>
        <time>2022-06-21T08:49:30Z</time>
      </trkpt>
      <trkpt lat="43.4051" lon="2.64822">
        <ele>626.6</ele>
        <time>2022-06-21T08:49:31Z</time>
      </trkpt>
      <trkpt lat="43.4051" lon="2.64823">
        <ele>626.6</ele>
        <time>2022-06-21T08:49:32Z</time>
      </trkpt>
      <trkpt lat="43.40511" lon="2.64824">
        <ele>626.5</ele>
        <time>2022-06-21T08:49:33Z</time>
      </trkpt>
      <trkpt lat="43.40512" lon="2.64826">
        <ele>626.5</ele>
        <time>2022-06-21T08:49:34Z</time>
      </trkpt>
      <trkpt lat="43.40512" lon="2.64827">
        <ele>626.4</ele>
        <time>2022-06-21T08:49:35Z</time>
      </trkpt>
      <trkpt lat="43.40513" lon="2.64827">
        <ele>626.4</ele>
        <time>2022-06-21T08:49:36Z</time>
      </trkpt>
      <trkpt lat="43.40513" lon="2.64828">
        <ele>626.3</ele>
        <time>2022-06-21T08:49:37Z</time>
      </trkpt>
      <trkpt lat="43.40514" lon="2.64829">
        <ele>626.3</ele>
        <time>2022-06-21T08:49:38Z</time>
      </trkpt>
      <trkpt lat="43.40514" lon="2.6483">
        <ele>626.2</ele>
        <time>2022-06-21T08:49:39Z</time>
      </trkpt>
      <trkpt lat="43.40515" lon="2.64831">
        <ele>626.2</ele>
        <time>2022-06-21T08:49:40Z</time>
      </trkpt>
      <trkpt lat="43.40516" lon="2.64832">
        <ele>626.1</ele>
        <time>2022-06-21T08:49:41Z</time>
      </trkpt>
      <trkpt lat="43.40517" lon="2.64832">
        <ele>626.1</ele>
        <time>2022-06-21T08:49:42Z</time>
      </trkpt>
      <trkpt lat="43.40518" lon="2.64833">
        <ele>626</ele>
        <time>2022-06-21T08:49:43Z</time>
      </trkpt>
      <trkpt lat="43.40519" lon="2.64833">
        <ele>625.9</ele>
        <time>2022-06-21T08:49:44Z</time>
      </trkpt>
      <trkpt lat="43.40519" lon="2.64834">
        <ele>625.8</ele>
        <time>2022-06-21T08:49:45Z</time>
      </trkpt>
      <trkpt lat="43.4052" lon="2.64835">
        <ele>625.7</ele>
        <time>2022-06-21T08:49:46Z</time>
      </trkpt>
      <trkpt lat="43.40521" lon="2.64835">
        <ele>625.7</ele>
        <time>2022-06-21T08:49:47Z</time>
      </trkpt>
      <trkpt lat="43.40522" lon="2.64836">
        <ele>625.6</ele>
        <time>2022-06-21T08:49:48Z</time>
      </trkpt>
      <trkpt lat="43.40523" lon="2.64836">
        <ele>625.5</ele>
        <time>2022-06-21T08:49:49Z</time>
      </trkpt>
      <trkpt lat="43.40523" lon="2.64836">
        <ele>625.4</ele>
        <time>2022-06-21T08:49:50Z</time>
      </trkpt>
      <trkpt lat="43.40524" lon="2.64836">
        <ele>625.3</ele>
        <time>2022-06-21T08:49:51Z</time>
      </trkpt>
      <trkpt lat="43.40525" lon="2.64836">
        <ele>625.3</ele>
        <time>2022-06-21T08:49:52Z</time>
      </trkpt>
      <trkpt lat="43.40526" lon="2.64837">
        <ele>625.2</ele>
        <time>2022-06-21T08:49:53Z</time>
      </trkpt>
      <trkpt lat="43.40527" lon="2.64837">
        <ele>625.1</ele>
        <time>2022-06-21T08:49:54Z</time>
      </trkpt>
      <trkpt lat="43.40528" lon="2.64837">
        <ele>625</ele>
        <time>2022-06-21T08:49:55Z</time>
      </trkpt>
      <trkpt lat="43.40529" lon="2.64837">
        <ele>624.8</ele>
        <time>2022-06-21T08:49:56Z</time>
      </trkpt>
      <trkpt lat="43.4053" lon="2.64837">
        <ele>624.7</ele>
        <time>2022-06-21T08:49:57Z</time>
      </trkpt>
      <trkpt lat="43.40531" lon="2.64837">
        <ele>624.5</ele>
        <time>2022-06-21T08:49:58Z</time>
      </trkpt>
      <trkpt lat="43.40532" lon="2.64837">
        <ele>624.4</ele>
        <time>2022-06-21T08:49:59Z</time>
      </trkpt>
      <trkpt lat="43.40533" lon="2.64837">
        <ele>624.3</ele>
        <time>2022-06-21T08:50:00Z</time>
      </trkpt>
      <trkpt lat="43.40534" lon="2.64837">
        <ele>624.3</ele>
        <time>2022-06-21T08:50:01Z</time>
      </trkpt>
      <trkpt lat="43.40535" lon="2.64837">
        <ele>624.1</ele>
        <time>2022-06-21T08:50:02Z</time>
      </trkpt>
      <trkpt lat="43.40536" lon="2.64837">
        <ele>624</ele>
        <time>2022-06-21T08:50:03Z</time>
      </trkpt>
      <trkpt lat="43.40537" lon="2.64837">
        <ele>623.9</ele>
        <time>2022-06-21T08:50:04Z</time>
      </trkpt>
      <trkpt lat="43.40538" lon="2.64837">
        <ele>623.7</ele>
        <time>2022-06-21T08:50:05Z</time>
      </trkpt>
      <trkpt lat="43.40538" lon="2.64837">
        <ele>623.6</ele>
        <time>2022-06-21T08:50:06Z</time>
      </trkpt>
      <trkpt lat="43.40539" lon="2.64837">
        <ele>623.4</ele>
        <time>2022-06-21T08:50:07Z</time>
      </trkpt>
      <trkpt lat="43.4054" lon="2.64838">
        <ele>623.3</ele>
        <time>2022-06-21T08:50:08Z</time>
      </trkpt>
      <trkpt lat="43.40541" lon="2.64838">
        <ele>623.2</ele>
        <time>2022-06-21T08:50:09Z</time>
      </trkpt>
      <trkpt lat="43.40542" lon="2.64837">
        <ele>623.1</ele>
        <time>2022-06-21T08:50:10Z</time>
      </trkpt>
      <trkpt lat="43.40543" lon="2.64837">
        <ele>623</ele>
        <time>2022-06-21T08:50:11Z</time>
      </trkpt>
      <trkpt lat="43.40544" lon="2.64837">
        <ele>622.8</ele>
        <time>2022-06-21T08:50:12Z</time>
      </trkpt>
      <trkpt lat="43.40545" lon="2.64837">
        <ele>622.7</ele>
        <time>2022-06-21T08:50:13Z</time>
      </trkpt>
      <trkpt lat="43.40545" lon="2.64837">
        <ele>622.6</ele>
        <time>2022-06-21T08:50:14Z</time>
      </trkpt>
      <trkpt lat="43.40546" lon="2.64837">
        <ele>622.5</ele>
        <time>2022-06-21T08:50:15Z</time>
      </trkpt>
      <trkpt lat="43.40547" lon="2.64837">
        <ele>622.4</ele>
        <time>2022-06-21T08:50:16Z</time>
      </trkpt>
      <trkpt lat="43.40548" lon="2.64837">
        <ele>622.3</ele>
        <time>2022-06-21T08:50:17Z</time>
      </trkpt>
      <trkpt lat="43.40548" lon="2.64837">
        <ele>622.2</ele>
        <time>2022-06-21T08:50:18Z</time>
      </trkpt>
      <trkpt lat="43.40549" lon="2.64837">
        <ele>622.1</ele>
        <time>2022-06-21T08:50:19Z</time>
      </trkpt>
      <trkpt lat="43.4055" lon="2.64838">
        <ele>622</ele>
        <time>2022-06-21T08:50:20Z</time>
      </trkpt>
      <trkpt lat="43.40551" lon="2.64838">
        <ele>621.8</ele>
        <time>2022-06-21T08:50:21Z</time>
      </trkpt>
      <trkpt lat="43.40552" lon="2.64838">
        <ele>621.7</ele>
        <time>2022-06-21T08:50:22Z</time>
      </trkpt>
      <trkpt lat="43.40552" lon="2.64838">
        <ele>621.6</ele>
        <time>2022-06-21T08:50:23Z</time>
      </trkpt>
      <trkpt lat="43.40553" lon="2.64838">
        <ele>621.5</ele>
        <time>2022-06-21T08:50:24Z</time>
      </trkpt>
      <trkpt lat="43.40554" lon="2.64838">
        <ele>621.4</ele>
        <time>2022-06-21T08:50:25Z</time>
      </trkpt>
      <trkpt lat="43.40555" lon="2.64838">
        <ele>621.3</ele>
        <time>2022-06-21T08:50:26Z</time>
      </trkpt>
      <trkpt lat="43.40556" lon="2.64839">
        <ele>621.1</ele>
        <time>2022-06-21T08:50:27Z</time>
      </trkpt>
      <trkpt lat="43.40556" lon="2.64839">
        <ele>621</ele>
        <time>2022-06-21T08:50:28Z</time>
      </trkpt>
      <trkpt lat="43.40557" lon="2.6484">
        <ele>620.9</ele>
        <time>2022-06-21T08:50:29Z</time>
      </trkpt>
      <trkpt lat="43.40558" lon="2.6484">
        <ele>620.7</ele>
        <time>2022-06-21T08:50:30Z</time>
      </trkpt>
      <trkpt lat="43.40559" lon="2.6484">
        <ele>620.6</ele>
        <time>2022-06-21T08:50:31Z</time>
      </trkpt>
      <trkpt lat="43.40559" lon="2.6484">
        <ele>620.5</ele>
        <time>2022-06-21T08:50:32Z</time>
      </trkpt>
      <trkpt lat="43.4056" lon="2.6484">
        <ele>620.4</ele>
        <time>2022-06-21T08:50:33Z</time>
      </trkpt>
      <trkpt lat="43.40561" lon="2.64841">
        <ele>620.3</ele>
        <time>2022-06-21T08:50:34Z</time>
      </trkpt>
      <trkpt lat="43.40562" lon="2.64841">
        <ele>620.2</ele>
        <time>2022-06-21T08:50:35Z</time>
      </trkpt>
      <trkpt lat="43.40563" lon="2.64841">
        <ele>620</ele>
        <time>2022-06-21T08:50:36Z</time>
      </trkpt>
      <trkpt lat="43.40563" lon="2.64841">
        <ele>619.9</ele>
        <time>2022-06-21T08:50:37Z</time>
      </trkpt>
      <trkpt lat="43.40564" lon="2.64841">
        <ele>619.8</ele>
        <time>2022-06-21T08:50:38Z</time>
      </trkpt>
      <trkpt lat="43.40565" lon="2.64842">
        <ele>619.7</ele>
        <time>2022-06-21T08:50:39Z</time>
      </trkpt>
      <trkpt lat="43.40566" lon="2.64842">
        <ele>619.6</ele>
        <time>2022-06-21T08:50:40Z</time>
      </trkpt>
      <trkpt lat="43.40566" lon="2.64842">
        <ele>619.5</ele>
        <time>2022-06-21T08:50:41Z</time>
      </trkpt>
      <trkpt lat="43.40567" lon="2.64842">
        <ele>619.4</ele>
        <time>2022-06-21T08:50:42Z</time>
      </trkpt>
      <trkpt lat="43.40568" lon="2.64843">
        <ele>619.2</ele>
        <time>2022-06-21T08:50:43Z</time>
      </trkpt>
      <trkpt lat="43.40569" lon="2.64843">
        <ele>619.1</ele>
        <time>2022-06-21T08:50:44Z</time>
      </trkpt>
      <trkpt lat="43.40569" lon="2.64844">
        <ele>619</ele>
        <time>2022-06-21T08:50:45Z</time>
      </trkpt>
      <trkpt lat="43.4057" lon="2.64844">
        <ele>618.9</ele>
        <time>2022-06-21T08:50:46Z</time>
      </trkpt>
      <trkpt lat="43.40571" lon="2.64844">
        <ele>618.8</ele>
        <time>2022-06-21T08:50:47Z</time>
      </trkpt>
      <trkpt lat="43.40571" lon="2.64845">
        <ele>618.7</ele>
        <time>2022-06-21T08:50:48Z</time>
      </trkpt>
      <trkpt lat="43.40572" lon="2.64845">
        <ele>618.6</ele>
        <time>2022-06-21T08:50:49Z</time>
      </trkpt>
      <trkpt lat="43.40573" lon="2.64846">
        <ele>618.5</ele>
        <time>2022-06-21T08:50:50Z</time>
      </trkpt>
      <trkpt lat="43.40574" lon="2.64846">
        <ele>618.4</ele>
        <time>2022-06-21T08:50:51Z</time>
      </trkpt>
      <trkpt lat="43.40575" lon="2.64846">
        <ele>618.2</ele>
        <time>2022-06-21T08:50:52Z</time>
      </trkpt>
      <trkpt lat="43.40577" lon="2.64847">
        <ele>618</ele>
        <time>2022-06-21T08:50:53Z</time>
      </trkpt>
      <trkpt lat="43.40579" lon="2.64847">
        <ele>617.8</ele>
        <time>2022-06-21T08:50:54Z</time>
      </trkpt>
      <trkpt lat="43.40579" lon="2.64847">
        <ele>617.7</ele>
        <time>2022-06-21T08:50:55Z</time>
      </trkpt>
      <trkpt lat="43.4058" lon="2.64847">
        <ele>617.6</ele>
        <time>2022-06-21T08:50:56Z</time>
      </trkpt>
      <trkpt lat="43.4058" lon="2.64848">
        <ele>617.5</ele>
        <time>2022-06-21T08:50:57Z</time>
      </trkpt>
      <trkpt lat="43.40581" lon="2.64848">
        <ele>617.4</ele>
        <time>2022-06-21T08:50:58Z</time>
      </trkpt>
      <trkpt lat="43.40582" lon="2.64849">
        <ele>617.3</ele>
        <time>2022-06-21T08:50:59Z</time>
      </trkpt>
      <trkpt lat="43.40583" lon="2.64849">
        <ele>617.2</ele>
        <time>2022-06-21T08:51:00Z</time>
      </trkpt>
      <trkpt lat="43.40584" lon="2.6485">
        <ele>617.1</ele>
        <time>2022-06-21T08:51:01Z</time>
      </trkpt>
      <trkpt lat="43.40585" lon="2.64851">
        <ele>617</ele>
        <time>2022-06-21T08:51:02Z</time>
      </trkpt>
      <trkpt lat="43.40586" lon="2.64851">
        <ele>616.9</ele>
        <time>2022-06-21T08:51:03Z</time>
      </trkpt>
      <trkpt lat="43.40586" lon="2.64851">
        <ele>616.8</ele>
        <time>2022-06-21T08:51:04Z</time>
      </trkpt>
      <trkpt lat="43.40587" lon="2.64852">
        <ele>616.7</ele>
        <time>2022-06-21T08:51:05Z</time>
      </trkpt>
      <trkpt lat="43.40588" lon="2.64852">
        <ele>616.6</ele>
        <time>2022-06-21T08:51:06Z</time>
      </trkpt>
      <trkpt lat="43.40589" lon="2.64852">
        <ele>616.6</ele>
        <time>2022-06-21T08:51:07Z</time>
      </trkpt>
      <trkpt lat="43.40589" lon="2.64853">
        <ele>616.5</ele>
        <time>2022-06-21T08:51:08Z</time>
      </trkpt>
      <trkpt lat="43.4059" lon="2.64853">
        <ele>616.4</ele>
        <time>2022-06-21T08:51:09Z</time>
      </trkpt>
      <trkpt lat="43.40591" lon="2.64854">
        <ele>616.3</ele>
        <time>2022-06-21T08:51:10Z</time>
      </trkpt>
      <trkpt lat="43.40592" lon="2.64854">
        <ele>616.3</ele>
        <time>2022-06-21T08:51:11Z</time>
      </trkpt>
      <trkpt lat="43.40593" lon="2.64854">
        <ele>616.2</ele>
        <time>2022-06-21T08:51:12Z</time>
      </trkpt>
      <trkpt lat="43.40594" lon="2.64854">
        <ele>616.1</ele>
        <time>2022-06-21T08:51:13Z</time>
      </trkpt>
      <trkpt lat="43.40594" lon="2.64854">
        <ele>616</ele>
        <time>2022-06-21T08:51:14Z</time>
      </trkpt>
      <trkpt lat="43.40596" lon="2.64854">
        <ele>615.9</ele>
        <time>2022-06-21T08:51:15Z</time>
      </trkpt>
      <trkpt lat="43.40597" lon="2.64854">
        <ele>615.8</ele>
        <time>2022-06-21T08:51:16Z</time>
      </trkpt>
      <trkpt lat="43.40598" lon="2.64854">
        <ele>615.8</ele>
        <time>2022-06-21T08:51:17Z</time>
      </trkpt>
      <trkpt lat="43.40599" lon="2.64854">
        <ele>615.7</ele>
        <time>2022-06-21T08:51:18Z</time>
      </trkpt>
      <trkpt lat="43.406" lon="2.64854">
        <ele>615.6</ele>
        <time>2022-06-21T08:51:19Z</time>
      </trkpt>
      <trkpt lat="43.40601" lon="2.64854">
        <ele>615.6</ele>
        <time>2022-06-21T08:51:20Z</time>
      </trkpt>
      <trkpt lat="43.40602" lon="2.64854">
        <ele>615.5</ele>
        <time>2022-06-21T08:51:21Z</time>
      </trkpt>
      <trkpt lat="43.40603" lon="2.64854">
        <ele>615.5</ele>
        <time>2022-06-21T08:51:22Z</time>
      </trkpt>
      <trkpt lat="43.40605" lon="2.64855">
        <ele>615.4</ele>
        <time>2022-06-21T08:51:23Z</time>
      </trkpt>
      <trkpt lat="43.40605" lon="2.64855">
        <ele>615.4</ele>
        <time>2022-06-21T08:51:24Z</time>
      </trkpt>
      <trkpt lat="43.40606" lon="2.64855">
        <ele>615.4</ele>
        <time>2022-06-21T08:51:25Z</time>
      </trkpt>
      <trkpt lat="43.40607" lon="2.64855">
        <ele>615.3</ele>
        <time>2022-06-21T08:51:26Z</time>
      </trkpt>
      <trkpt lat="43.40608" lon="2.64855">
        <ele>615.3</ele>
        <time>2022-06-21T08:51:27Z</time>
      </trkpt>
      <trkpt lat="43.40609" lon="2.64855">
        <ele>615.2</ele>
        <time>2022-06-21T08:51:28Z</time>
      </trkpt>
      <trkpt lat="43.40611" lon="2.64855">
        <ele>615.2</ele>
        <time>2022-06-21T08:51:29Z</time>
      </trkpt>
      <trkpt lat="43.40612" lon="2.64856">
        <ele>615.1</ele>
        <time>2022-06-21T08:51:30Z</time>
      </trkpt>
      <trkpt lat="43.40612" lon="2.64856">
        <ele>615.1</ele>
        <time>2022-06-21T08:51:31Z</time>
      </trkpt>
      <trkpt lat="43.40614" lon="2.64856">
        <ele>615.1</ele>
        <time>2022-06-21T08:51:32Z</time>
      </trkpt>
      <trkpt lat="43.40615" lon="2.64856">
        <ele>615</ele>
        <time>2022-06-21T08:51:33Z</time>
      </trkpt>
      <trkpt lat="43.40616" lon="2.64856">
        <ele>615</ele>
        <time>2022-06-21T08:51:34Z</time>
      </trkpt>
      <trkpt lat="43.40617" lon="2.64856">
        <ele>614.9</ele>
        <time>2022-06-21T08:51:35Z</time>
      </trkpt>
      <trkpt lat="43.40618" lon="2.64857">
        <ele>614.9</ele>
        <time>2022-06-21T08:51:36Z</time>
      </trkpt>
      <trkpt lat="43.40619" lon="2.64857">
        <ele>614.9</ele>
        <time>2022-06-21T08:51:37Z</time>
      </trkpt>
      <trkpt lat="43.4062" lon="2.64857">
        <ele>614.8</ele>
        <time>2022-06-21T08:51:38Z</time>
      </trkpt>
      <trkpt lat="43.40621" lon="2.64857">
        <ele>614.8</ele>
        <time>2022-06-21T08:51:39Z</time>
      </trkpt>
      <trkpt lat="43.40622" lon="2.64857">
        <ele>614.7</ele>
        <time>2022-06-21T08:51:40Z</time>
      </trkpt>
      <trkpt lat="43.40623" lon="2.64857">
        <ele>614.7</ele>
        <time>2022-06-21T08:51:41Z</time>
      </trkpt>
      <trkpt lat="43.40624" lon="2.64857">
        <ele>614.7</ele>
        <time>2022-06-21T08:51:42Z</time>
      </trkpt>
      <trkpt lat="43.40625" lon="2.64857">
        <ele>614.6</ele>
        <time>2022-06-21T08:51:43Z</time>
      </trkpt>
      <trkpt lat="43.40626" lon="2.64858">
        <ele>614.6</ele>
        <time>2022-06-21T08:51:44Z</time>
      </trkpt>
      <trkpt lat="43.40626" lon="2.64858">
        <ele>614.6</ele>
        <time>2022-06-21T08:51:45Z</time>
      </trkpt>
      <trkpt lat="43.40628" lon="2.64858">
        <ele>614.5</ele>
        <time>2022-06-21T08:51:46Z</time>
      </trkpt>
      <trkpt lat="43.40629" lon="2.64858">
        <ele>614.5</ele>
        <time>2022-06-21T08:51:47Z</time>
      </trkpt>
      <trkpt lat="43.4063" lon="2.64858">
        <ele>614.4</ele>
        <time>2022-06-21T08:51:48Z</time>
      </trkpt>
      <trkpt lat="43.40631" lon="2.64858">
        <ele>614.4</ele>
        <time>2022-06-21T08:51:49Z</time>
      </trkpt>
      <trkpt lat="43.40632" lon="2.64858">
        <ele>614.3</ele>
        <time>2022-06-21T08:51:50Z</time>
      </trkpt>
      <trkpt lat="43.40633" lon="2.64858">
        <ele>614.3</ele>
        <time>2022-06-21T08:51:51Z</time>
      </trkpt>
      <trkpt lat="43.40634" lon="2.64859">
        <ele>614.2</ele>
        <time>2022-06-21T08:51:52Z</time>
      </trkpt>
      <trkpt lat="43.40635" lon="2.64858">
        <ele>614.2</ele>
        <time>2022-06-21T08:51:53Z</time>
      </trkpt>
      <trkpt lat="43.40637" lon="2.64858">
        <ele>614.1</ele>
        <time>2022-06-21T08:51:54Z</time>
      </trkpt>
      <trkpt lat="43.40638" lon="2.64858">
        <ele>614.1</ele>
        <time>2022-06-21T08:51:55Z</time>
      </trkpt>
      <trkpt lat="43.40639" lon="2.64857">
        <ele>614</ele>
        <time>2022-06-21T08:51:56Z</time>
      </trkpt>
      <trkpt lat="43.4064" lon="2.64857">
        <ele>614</ele>
        <time>2022-06-21T08:51:57Z</time>
      </trkpt>
      <trkpt lat="43.40641" lon="2.64857">
        <ele>613.9</ele>
        <time>2022-06-21T08:51:58Z</time>
      </trkpt>
      <trkpt lat="43.40642" lon="2.64857">
        <ele>613.9</ele>
        <time>2022-06-21T08:51:59Z</time>
      </trkpt>
      <trkpt lat="43.40643" lon="2.64856">
        <ele>613.9</ele>
        <time>2022-06-21T08:52:00Z</time>
      </trkpt>
      <trkpt lat="43.40644" lon="2.64856">
        <ele>613.8</ele>
        <time>2022-06-21T08:52:01Z</time>
      </trkpt>
      <trkpt lat="43.40645" lon="2.64855">
        <ele>613.8</ele>
        <time>2022-06-21T08:52:02Z</time>
      </trkpt>
      <trkpt lat="43.40646" lon="2.64855">
        <ele>613.7</ele>
        <time>2022-06-21T08:52:03Z</time>
      </trkpt>
      <trkpt lat="43.40647" lon="2.64855">
        <ele>613.7</ele>
        <time>2022-06-21T08:52:04Z</time>
      </trkpt>
      <trkpt lat="43.40647" lon="2.64855">
        <ele>613.6</ele>
        <time>2022-06-21T08:52:05Z</time>
      </trkpt>
      <trkpt lat="43.40648" lon="2.64854">
        <ele>613.6</ele>
        <time>2022-06-21T08:52:06Z</time>
      </trkpt>
      <trkpt lat="43.40649" lon="2.64854">
        <ele>613.5</ele>
        <time>2022-06-21T08:52:07Z</time>
      </trkpt>
      <trkpt lat="43.4065" lon="2.64854">
        <ele>613.5</ele>
        <time>2022-06-21T08:52:08Z</time>
      </trkpt>
      <trkpt lat="43.40651" lon="2.64854">
        <ele>613.5</ele>
        <time>2022-06-21T08:52:09Z</time>
      </trkpt>
      <trkpt lat="43.40652" lon="2.64853">
        <ele>613.4</ele>
        <time>2022-06-21T08:52:10Z</time>
      </trkpt>
      <trkpt lat="43.40653" lon="2.64853">
        <ele>613.4</ele>
        <time>2022-06-21T08:52:11Z</time>
      </trkpt>
      <trkpt lat="43.40654" lon="2.64853">
        <ele>613.3</ele>
        <time>2022-06-21T08:52:12Z</time>
      </trkpt>
      <trkpt lat="43.40655" lon="2.64853">
        <ele>613.3</ele>
        <time>2022-06-21T08:52:13Z</time>
      </trkpt>
      <trkpt lat="43.40656" lon="2.64852">
        <ele>613.2</ele>
        <time>2022-06-21T08:52:14Z</time>
      </trkpt>
      <trkpt lat="43.40657" lon="2.64852">
        <ele>613.2</ele>
        <time>2022-06-21T08:52:15Z</time>
      </trkpt>
      <trkpt lat="43.40659" lon="2.64852">
        <ele>613.1</ele>
        <time>2022-06-21T08:52:16Z</time>
      </trkpt>
      <trkpt lat="43.40659" lon="2.64852">
        <ele>613.1</ele>
        <time>2022-06-21T08:52:17Z</time>
      </trkpt>
      <trkpt lat="43.4066" lon="2.64852">
        <ele>613.1</ele>
        <time>2022-06-21T08:52:18Z</time>
      </trkpt>
      <trkpt lat="43.40661" lon="2.64852">
        <ele>613</ele>
        <time>2022-06-21T08:52:19Z</time>
      </trkpt>
      <trkpt lat="43.40662" lon="2.64852">
        <ele>613</ele>
        <time>2022-06-21T08:52:20Z</time>
      </trkpt>
      <trkpt lat="43.40662" lon="2.64852">
        <ele>612.9</ele>
        <time>2022-06-21T08:52:21Z</time>
      </trkpt>
      <trkpt lat="43.40664" lon="2.64852">
        <ele>612.9</ele>
        <time>2022-06-21T08:52:22Z</time>
      </trkpt>
      <trkpt lat="43.40665" lon="2.64852">
        <ele>612.8</ele>
        <time>2022-06-21T08:52:23Z</time>
      </trkpt>
      <trkpt lat="43.40666" lon="2.64852">
        <ele>612.8</ele>
        <time>2022-06-21T08:52:24Z</time>
      </trkpt>
      <trkpt lat="43.40666" lon="2.64852">
        <ele>612.8</ele>
        <time>2022-06-21T08:52:25Z</time>
      </trkpt>
      <trkpt lat="43.40667" lon="2.64853">
        <ele>612.7</ele>
        <time>2022-06-21T08:52:26Z</time>
      </trkpt>
      <trkpt lat="43.40668" lon="2.64853">
        <ele>612.7</ele>
        <time>2022-06-21T08:52:27Z</time>
      </trkpt>
      <trkpt lat="43.40669" lon="2.64853">
        <ele>612.6</ele>
        <time>2022-06-21T08:52:28Z</time>
      </trkpt>
      <trkpt lat="43.4067" lon="2.64852">
        <ele>612.6</ele>
        <time>2022-06-21T08:52:29Z</time>
      </trkpt>
      <trkpt lat="43.40671" lon="2.64852">
        <ele>612.5</ele>
        <time>2022-06-21T08:52:30Z</time>
      </trkpt>
      <trkpt lat="43.40672" lon="2.64852">
        <ele>612.5</ele>
        <time>2022-06-21T08:52:31Z</time>
      </trkpt>
      <trkpt lat="43.40673" lon="2.64851">
        <ele>612.5</ele>
        <time>2022-06-21T08:52:32Z</time>
      </trkpt>
      <trkpt lat="43.40674" lon="2.64851">
        <ele>612.4</ele>
        <time>2022-06-21T08:52:33Z</time>
      </trkpt>
      <trkpt lat="43.40675" lon="2.6485">
        <ele>612.4</ele>
        <time>2022-06-21T08:52:34Z</time>
      </trkpt>
      <trkpt lat="43.40676" lon="2.6485">
        <ele>612.3</ele>
        <time>2022-06-21T08:52:35Z</time>
      </trkpt>
      <trkpt lat="43.40677" lon="2.6485">
        <ele>612.3</ele>
        <time>2022-06-21T08:52:36Z</time>
      </trkpt>
      <trkpt lat="43.40678" lon="2.64849">
        <ele>612.3</ele>
        <time>2022-06-21T08:52:37Z</time>
      </trkpt>
      <trkpt lat="43.40679" lon="2.64849">
        <ele>612.3</ele>
        <time>2022-06-21T08:52:38Z</time>
      </trkpt>
      <trkpt lat="43.4068" lon="2.64849">
        <ele>612.2</ele>
        <time>2022-06-21T08:52:39Z</time>
      </trkpt>
      <trkpt lat="43.40681" lon="2.64849">
        <ele>612.2</ele>
        <time>2022-06-21T08:52:40Z</time>
      </trkpt>
      <trkpt lat="43.40682" lon="2.64849">
        <ele>612.2</ele>
        <time>2022-06-21T08:52:41Z</time>
      </trkpt>
      <trkpt lat="43.40683" lon="2.64849">
        <ele>612.2</ele>
        <time>2022-06-21T08:52:42Z</time>
      </trkpt>
      <trkpt lat="43.40684" lon="2.64849">
        <ele>612.2</ele>
        <time>2022-06-21T08:52:43Z</time>
      </trkpt>
      <trkpt lat="43.40685" lon="2.64849">
        <ele>612.2</ele>
        <time>2022-06-21T08:52:44Z</time>
      </trkpt>
      <trkpt lat="43.40686" lon="2.6485">
        <ele>612.2</ele>
        <time>2022-06-21T08:52:45Z</time>
      </trkpt>
      <trkpt lat="43.40687" lon="2.6485">
        <ele>612.2</ele>
        <time>2022-06-21T08:52:46Z</time>
      </trkpt>
      <trkpt lat="43.40688" lon="2.64849">
        <ele>612.2</ele>
        <time>2022-06-21T08:52:47Z</time>
      </trkpt>
      <trkpt lat="43.40689" lon="2.64849">
        <ele>612.2</ele>
        <time>2022-06-21T08:52:48Z</time>
      </trkpt>
      <trkpt lat="43.4069" lon="2.64849">
        <ele>612.2</ele>
        <time>2022-06-21T08:52:49Z</time>
      </trkpt>
      <trkpt lat="43.40691" lon="2.64849">
        <ele>612.2</ele>
        <time>2022-06-21T08:52:50Z</time>
      </trkpt>
      <trkpt lat="43.40692" lon="2.64849">
        <ele>612.2</ele>
        <time>2022-06-21T08:52:51Z</time>
      </trkpt>
      <trkpt lat="43.40693" lon="2.64849">
        <ele>612.2</ele>
        <time>2022-06-21T08:52:52Z</time>
      </trkpt>
      <trkpt lat="43.40694" lon="2.64849">
        <ele>612.2</ele>
        <time>2022-06-21T08:52:53Z</time>
      </trkpt>
      <trkpt lat="43.40695" lon="2.6485">
        <ele>612.3</ele>
        <time>2022-06-21T08:52:54Z</time>
      </trkpt>
      <trkpt lat="43.40696" lon="2.64849">
        <ele>612.3</ele>
        <time>2022-06-21T08:52:55Z</time>
      </trkpt>
      <trkpt lat="43.40698" lon="2.64849">
        <ele>612.3</ele>
        <time>2022-06-21T08:52:56Z</time>
      </trkpt>
      <trkpt lat="43.40699" lon="2.64849">
        <ele>612.3</ele>
        <time>2022-06-21T08:52:57Z</time>
      </trkpt>
      <trkpt lat="43.407" lon="2.64849">
        <ele>612.4</ele>
        <time>2022-06-21T08:52:58Z</time>
      </trkpt>
      <trkpt lat="43.40701" lon="2.64849">
        <ele>612.4</ele>
        <time>2022-06-21T08:52:59Z</time>
      </trkpt>
      <trkpt lat="43.40702" lon="2.64849">
        <ele>612.4</ele>
        <time>2022-06-21T08:53:00Z</time>
      </trkpt>
      <trkpt lat="43.40703" lon="2.64849">
        <ele>612.4</ele>
        <time>2022-06-21T08:53:01Z</time>
      </trkpt>
      <trkpt lat="43.40704" lon="2.64849">
        <ele>612.5</ele>
        <time>2022-06-21T08:53:02Z</time>
      </trkpt>
      <trkpt lat="43.40705" lon="2.64849">
        <ele>612.5</ele>
        <time>2022-06-21T08:53:03Z</time>
      </trkpt>
      <trkpt lat="43.40706" lon="2.64849">
        <ele>612.5</ele>
        <time>2022-06-21T08:53:04Z</time>
      </trkpt>
      <trkpt lat="43.40707" lon="2.64848">
        <ele>612.5</ele>
        <time>2022-06-21T08:53:05Z</time>
      </trkpt>
      <trkpt lat="43.40708" lon="2.64848">
        <ele>612.5</ele>
        <time>2022-06-21T08:53:06Z</time>
      </trkpt>
      <trkpt lat="43.40709" lon="2.64847">
        <ele>612.6</ele>
        <time>2022-06-21T08:53:07Z</time>
      </trkpt>
      <trkpt lat="43.4071" lon="2.64847">
        <ele>612.6</ele>
        <time>2022-06-21T08:53:08Z</time>
      </trkpt>
      <trkpt lat="43.40711" lon="2.64847">
        <ele>612.6</ele>
        <time>2022-06-21T08:53:09Z</time>
      </trkpt>
      <trkpt lat="43.40712" lon="2.64847">
        <ele>612.7</ele>
        <time>2022-06-21T08:53:10Z</time>
      </trkpt>
      <trkpt lat="43.40713" lon="2.64847">
        <ele>612.7</ele>
        <time>2022-06-21T08:53:11Z</time>
      </trkpt>
      <trkpt lat="43.40715" lon="2.64846">
        <ele>612.8</ele>
        <time>2022-06-21T08:53:12Z</time>
      </trkpt>
      <trkpt lat="43.40716" lon="2.64846">
        <ele>612.8</ele>
        <time>2022-06-21T08:53:13Z</time>
      </trkpt>
      <trkpt lat="43.40717" lon="2.64847">
        <ele>612.9</ele>
        <time>2022-06-21T08:53:14Z</time>
      </trkpt>
      <trkpt lat="43.40718" lon="2.64847">
        <ele>612.9</ele>
        <time>2022-06-21T08:53:15Z</time>
      </trkpt>
      <trkpt lat="43.40719" lon="2.64847">
        <ele>613</ele>
        <time>2022-06-21T08:53:16Z</time>
      </trkpt>
      <trkpt lat="43.4072" lon="2.64847">
        <ele>613</ele>
        <time>2022-06-21T08:53:17Z</time>
      </trkpt>
      <trkpt lat="43.40721" lon="2.64847">
        <ele>613.1</ele>
        <time>2022-06-21T08:53:18Z</time>
      </trkpt>
      <trkpt lat="43.40722" lon="2.64847">
        <ele>613.2</ele>
        <time>2022-06-21T08:53:19Z</time>
      </trkpt>
      <trkpt lat="43.40723" lon="2.64847">
        <ele>613.3</ele>
        <time>2022-06-21T08:53:20Z</time>
      </trkpt>
      <trkpt lat="43.40724" lon="2.64848">
        <ele>613.3</ele>
        <time>2022-06-21T08:53:21Z</time>
      </trkpt>
      <trkpt lat="43.40725" lon="2.64848">
        <ele>613.4</ele>
        <time>2022-06-21T08:53:22Z</time>
      </trkpt>
      <trkpt lat="43.40726" lon="2.64849">
        <ele>613.5</ele>
        <time>2022-06-21T08:53:23Z</time>
      </trkpt>
      <trkpt lat="43.40726" lon="2.6485">
        <ele>613.5</ele>
        <time>2022-06-21T08:53:24Z</time>
      </trkpt>
      <trkpt lat="43.40727" lon="2.6485">
        <ele>613.6</ele>
        <time>2022-06-21T08:53:25Z</time>
      </trkpt>
      <trkpt lat="43.40728" lon="2.64851">
        <ele>613.7</ele>
        <time>2022-06-21T08:53:26Z</time>
      </trkpt>
      <trkpt lat="43.40728" lon="2.64852">
        <ele>613.8</ele>
        <time>2022-06-21T08:53:27Z</time>
      </trkpt>
      <trkpt lat="43.40729" lon="2.64852">
        <ele>613.8</ele>
        <time>2022-06-21T08:53:28Z</time>
      </trkpt>
      <trkpt lat="43.40729" lon="2.64853">
        <ele>613.9</ele>
        <time>2022-06-21T08:53:29Z</time>
      </trkpt>
      <trkpt lat="43.40729" lon="2.64854">
        <ele>614</ele>
        <time>2022-06-21T08:53:30Z</time>
      </trkpt>
      <trkpt lat="43.4073" lon="2.64855">
        <ele>614.1</ele>
        <time>2022-06-21T08:53:31Z</time>
      </trkpt>
      <trkpt lat="43.4073" lon="2.64856">
        <ele>614.2</ele>
        <time>2022-06-21T08:53:32Z</time>
      </trkpt>
      <trkpt lat="43.4073" lon="2.64857">
        <ele>614.3</ele>
        <time>2022-06-21T08:53:33Z</time>
      </trkpt>
      <trkpt lat="43.4073" lon="2.64858">
        <ele>614.3</ele>
        <time>2022-06-21T08:53:34Z</time>
      </trkpt>
      <trkpt lat="43.4073" lon="2.64858">
        <ele>614.3</ele>
        <time>2022-06-21T08:53:35Z</time>
      </trkpt>
      <trkpt lat="43.4073" lon="2.64858">
        <ele>614.3</ele>
        <time>2022-06-21T08:53:36Z</time>
      </trkpt>
      <trkpt lat="43.4073" lon="2.64858">
        <ele>614.3</ele>
        <time>2022-06-21T08:53:37Z</time>
      </trkpt>
      <trkpt lat="43.4073" lon="2.64858">
        <ele>614.3</ele>
        <time>2022-06-21T08:53:38Z</time>
      </trkpt>
      <trkpt lat="43.4073" lon="2.64858">
        <ele>614.3</ele>
        <time>2022-06-21T08:53:39Z</time>
      </trkpt>
      <trkpt lat="43.40731" lon="2.64858">
        <ele>614.3</ele>
        <time>2022-06-21T08:53:40Z</time>
      </trkpt>
      <trkpt lat="43.40731" lon="2.64859">
        <ele>614.4</ele>
        <time>2022-06-21T08:53:41Z</time>
      </trkpt>
      <trkpt lat="43.40731" lon="2.6486">
        <ele>614.5</ele>
        <time>2022-06-21T08:53:42Z</time>
      </trkpt>
      <trkpt lat="43.40732" lon="2.64861">
        <ele>614.6</ele>
        <time>2022-06-21T08:53:43Z</time>
      </trkpt>
      <trkpt lat="43.40732" lon="2.64861">
        <ele>614.6</ele>
        <time>2022-06-21T08:53:44Z</time>
      </trkpt>
      <trkpt lat="43.40732" lon="2.64861">
        <ele>614.6</ele>
        <time>2022-06-21T08:53:45Z</time>
      </trkpt>
      <trkpt lat="43.40732" lon="2.64861">
        <ele>614.6</ele>
        <time>2022-06-21T08:53:46Z</time>
      </trkpt>
      <trkpt lat="43.40732" lon="2.64861">
        <ele>614.6</ele>
        <time>2022-06-21T08:53:47Z</time>
      </trkpt>
      <trkpt lat="43.40732" lon="2.64861">
        <ele>614.6</ele>
        <time>2022-06-21T08:53:48Z</time>
      </trkpt>
      <trkpt lat="43.40732" lon="2.64861">
        <ele>614.6</ele>
        <time>2022-06-21T08:53:49Z</time>
      </trkpt>
      <trkpt lat="43.40732" lon="2.64861">
        <ele>614.6</ele>
        <time>2022-06-21T08:53:50Z</time>
      </trkpt>
      <trkpt lat="43.40732" lon="2.64861">
        <ele>614.7</ele>
        <time>2022-06-21T08:53:51Z</time>
      </trkpt>
      <trkpt lat="43.40732" lon="2.64861">
        <ele>614.7</ele>
        <time>2022-06-21T08:53:52Z</time>
      </trkpt>
      <trkpt lat="43.40732" lon="2.64861">
        <ele>614.7</ele>
        <time>2022-06-21T08:53:53Z</time>
      </trkpt>
      <trkpt lat="43.40732" lon="2.64861">
        <ele>614.7</ele>
        <time>2022-06-21T08:53:54Z</time>
      </trkpt>
      <trkpt lat="43.40732" lon="2.64861">
        <ele>614.7</ele>
        <time>2022-06-21T08:53:55Z</time>
      </trkpt>
      <trkpt lat="43.40732" lon="2.64861">
        <ele>614.7</ele>
        <time>2022-06-21T08:53:56Z</time>
      </trkpt>
      <trkpt lat="43.40732" lon="2.64861">
        <ele>614.7</ele>
        <time>2022-06-21T08:53:57Z</time>
      </trkpt>
      <trkpt lat="43.40732" lon="2.64861">
        <ele>614.7</ele>
        <time>2022-06-21T08:53:58Z</time>
      </trkpt>
      <trkpt lat="43.40732" lon="2.64862">
        <ele>614.8</ele>
        <time>2022-06-21T08:53:59Z</time>
      </trkpt>
      <trkpt lat="43.40732" lon="2.64863">
        <ele>614.8</ele>
        <time>2022-06-21T08:54:00Z</time>
      </trkpt>
      <trkpt lat="43.40731" lon="2.64864">
        <ele>614.9</ele>
        <time>2022-06-21T08:54:01Z</time>
      </trkpt>
      <trkpt lat="43.40731" lon="2.64865">
        <ele>615</ele>
        <time>2022-06-21T08:54:02Z</time>
      </trkpt>
      <trkpt lat="43.40731" lon="2.64865">
        <ele>615</ele>
        <time>2022-06-21T08:54:03Z</time>
      </trkpt>
      <trkpt lat="43.40731" lon="2.64865">
        <ele>615</ele>
        <time>2022-06-21T08:54:04Z</time>
      </trkpt>
      <trkpt lat="43.40731" lon="2.64865">
        <ele>615</ele>
        <time>2022-06-21T08:54:05Z</time>
      </trkpt>
      <trkpt lat="43.4073" lon="2.64865">
        <ele>615</ele>
        <time>2022-06-21T08:54:06Z</time>
      </trkpt>
      <trkpt lat="43.4073" lon="2.64865">
        <ele>615</ele>
        <time>2022-06-21T08:54:07Z</time>
      </trkpt>
      <trkpt lat="43.4073" lon="2.64865">
        <ele>615</ele>
        <time>2022-06-21T08:54:08Z</time>
      </trkpt>
      <trkpt lat="43.4073" lon="2.64865">
        <ele>615</ele>
        <time>2022-06-21T08:54:09Z</time>
      </trkpt>
      <trkpt lat="43.4073" lon="2.64865">
        <ele>615</ele>
        <time>2022-06-21T08:54:10Z</time>
      </trkpt>
      <trkpt lat="43.4073" lon="2.64865">
        <ele>615</ele>
        <time>2022-06-21T08:54:11Z</time>
      </trkpt>
      <trkpt lat="43.4073" lon="2.64865">
        <ele>615</ele>
        <time>2022-06-21T08:54:12Z</time>
      </trkpt>
      <trkpt lat="43.4073" lon="2.64865">
        <ele>615</ele>
        <time>2022-06-21T08:54:13Z</time>
      </trkpt>
      <trkpt lat="43.4073" lon="2.64865">
        <ele>615</ele>
        <time>2022-06-21T08:54:14Z</time>
      </trkpt>
      <trkpt lat="43.4073" lon="2.64865">
        <ele>615</ele>
        <time>2022-06-21T08:54:15Z</time>
      </trkpt>
      <trkpt lat="43.4073" lon="2.64865">
        <ele>615</ele>
        <time>2022-06-21T08:54:16Z</time>
      </trkpt>
      <trkpt lat="43.4073" lon="2.64865">
        <ele>615</ele>
        <time>2022-06-21T08:54:17Z</time>
      </trkpt>
      <trkpt lat="43.4073" lon="2.64865">
        <ele>615</ele>
        <time>2022-06-21T08:54:18Z</time>
      </trkpt>
      <trkpt lat="43.4073" lon="2.64865">
        <ele>615</ele>
        <time>2022-06-21T08:54:19Z</time>
      </trkpt>
      <trkpt lat="43.4073" lon="2.64865">
        <ele>615</ele>
        <time>2022-06-21T08:54:20Z</time>
      </trkpt>
      <trkpt lat="43.4073" lon="2.64865">
        <ele>615</ele>
        <time>2022-06-21T08:54:21Z</time>
      </trkpt>
      <trkpt lat="43.4073" lon="2.64865">
        <ele>615</ele>
        <time>2022-06-21T08:54:22Z</time>
      </trkpt>
      <trkpt lat="43.4073" lon="2.64865">
        <ele>615</ele>
        <time>2022-06-21T08:54:23Z</time>
      </trkpt>
      <trkpt lat="43.4073" lon="2.64865">
        <ele>615</ele>
        <time>2022-06-21T08:54:24Z</time>
      </trkpt>
      <trkpt lat="43.4073" lon="2.64865">
        <ele>615</ele>
        <time>2022-06-21T08:54:25Z</time>
      </trkpt>
      <trkpt lat="43.4073" lon="2.64865">
        <ele>615</ele>
        <time>2022-06-21T08:54:26Z</time>
      </trkpt>
      <trkpt lat="43.4073" lon="2.64865">
        <ele>615</ele>
        <time>2022-06-21T08:54:27Z</time>
      </trkpt>
      <trkpt lat="43.4073" lon="2.64865">
        <ele>615</ele>
        <time>2022-06-21T08:54:28Z</time>
      </trkpt>
      <trkpt lat="43.4073" lon="2.64865">
        <ele>615</ele>
        <time>2022-06-21T08:54:29Z</time>
      </trkpt>
      <trkpt lat="43.4073" lon="2.64865">
        <ele>615</ele>
        <time>2022-06-21T08:54:30Z</time>
      </trkpt>
      <trkpt lat="43.4073" lon="2.64865">
        <ele>615</ele>
        <time>2022-06-21T08:54:31Z</time>
      </trkpt>
      <trkpt lat="43.4073" lon="2.64865">
        <ele>615</ele>
        <time>2022-06-21T08:54:32Z</time>
      </trkpt>
      <trkpt lat="43.4073" lon="2.64865">
        <ele>615</ele>
        <time>2022-06-21T08:54:33Z</time>
      </trkpt>
      <trkpt lat="43.4073" lon="2.64865">
        <ele>615</ele>
        <time>2022-06-21T08:54:34Z</time>
      </trkpt>
      <trkpt lat="43.4073" lon="2.64865">
        <ele>615</ele>
        <time>2022-06-21T08:54:35Z</time>
      </trkpt>
      <trkpt lat="43.4073" lon="2.64865">
        <ele>615</ele>
        <time>2022-06-21T08:54:36Z</time>
      </trkpt>
      <trkpt lat="43.4073" lon="2.64865">
        <ele>615</ele>
        <time>2022-06-21T08:54:37Z</time>
      </trkpt>
      <trkpt lat="43.4073" lon="2.64865">
        <ele>615</ele>
        <time>2022-06-21T08:54:38Z</time>
      </trkpt>
      <trkpt lat="43.4073" lon="2.64865">
        <ele>615</ele>
        <time>2022-06-21T08:54:39Z</time>
      </trkpt>
      <trkpt lat="43.4073" lon="2.64865">
        <ele>615</ele>
        <time>2022-06-21T08:54:40Z</time>
      </trkpt>
      <trkpt lat="43.4073" lon="2.64865">
        <ele>615</ele>
        <time>2022-06-21T08:54:41Z</time>
      </trkpt>
      <trkpt lat="43.4073" lon="2.64865">
        <ele>615</ele>
        <time>2022-06-21T08:54:42Z</time>
      </trkpt>
      <trkpt lat="43.4073" lon="2.64865">
        <ele>615</ele>
        <time>2022-06-21T08:54:43Z</time>
      </trkpt>
      <trkpt lat="43.4073" lon="2.64865">
        <ele>615</ele>
        <time>2022-06-21T08:54:44Z</time>
      </trkpt>
      <trkpt lat="43.40731" lon="2.64865">
        <ele>615.1</ele>
        <time>2022-06-21T08:54:45Z</time>
      </trkpt>
      <trkpt lat="43.40731" lon="2.64866">
        <ele>615.1</ele>
        <time>2022-06-21T08:54:46Z</time>
      </trkpt>
      <trkpt lat="43.40731" lon="2.64867">
        <ele>615.2</ele>
        <time>2022-06-21T08:54:47Z</time>
      </trkpt>
      <trkpt lat="43.40732" lon="2.64869">
        <ele>615.3</ele>
        <time>2022-06-21T08:54:48Z</time>
      </trkpt>
      <trkpt lat="43.40732" lon="2.64871">
        <ele>615.4</ele>
        <time>2022-06-21T08:54:49Z</time>
      </trkpt>
      <trkpt lat="43.40733" lon="2.64872">
        <ele>615.5</ele>
        <time>2022-06-21T08:54:50Z</time>
      </trkpt>
      <trkpt lat="43.40733" lon="2.64873">
        <ele>615.5</ele>
        <time>2022-06-21T08:54:51Z</time>
      </trkpt>
      <trkpt lat="43.40733" lon="2.64875">
        <ele>615.6</ele>
        <time>2022-06-21T08:54:52Z</time>
      </trkpt>
      <trkpt lat="43.40733" lon="2.64876">
        <ele>615.6</ele>
        <time>2022-06-21T08:54:53Z</time>
      </trkpt>
      <trkpt lat="43.40733" lon="2.64878">
        <ele>615.7</ele>
        <time>2022-06-21T08:54:54Z</time>
      </trkpt>
      <trkpt lat="43.40733" lon="2.64879">
        <ele>615.7</ele>
        <time>2022-06-21T08:54:55Z</time>
      </trkpt>
      <trkpt lat="43.40733" lon="2.64881">
        <ele>615.8</ele>
        <time>2022-06-21T08:54:56Z</time>
      </trkpt>
      <trkpt lat="43.40733" lon="2.64882">
        <ele>615.8</ele>
        <time>2022-06-21T08:54:57Z</time>
      </trkpt>
      <trkpt lat="43.40734" lon="2.64884">
        <ele>615.8</ele>
        <time>2022-06-21T08:54:58Z</time>
      </trkpt>
      <trkpt lat="43.40734" lon="2.64885">
        <ele>615.8</ele>
        <time>2022-06-21T08:54:59Z</time>
      </trkpt>
      <trkpt lat="43.40734" lon="2.64886">
        <ele>615.9</ele>
        <time>2022-06-21T08:55:00Z</time>
      </trkpt>
      <trkpt lat="43.40734" lon="2.64887">
        <ele>615.9</ele>
        <time>2022-06-21T08:55:01Z</time>
      </trkpt>
      <trkpt lat="43.40735" lon="2.64888">
        <ele>615.9</ele>
        <time>2022-06-21T08:55:02Z</time>
      </trkpt>
      <trkpt lat="43.40735" lon="2.6489">
        <ele>615.9</ele>
        <time>2022-06-21T08:55:03Z</time>
      </trkpt>
      <trkpt lat="43.40735" lon="2.64891">
        <ele>615.9</ele>
        <time>2022-06-21T08:55:04Z</time>
      </trkpt>
      <trkpt lat="43.40735" lon="2.64894">
        <ele>616</ele>
        <time>2022-06-21T08:55:05Z</time>
      </trkpt>
      <trkpt lat="43.40736" lon="2.64895">
        <ele>616</ele>
        <time>2022-06-21T08:55:06Z</time>
      </trkpt>
      <trkpt lat="43.40736" lon="2.64896">
        <ele>616</ele>
        <time>2022-06-21T08:55:07Z</time>
      </trkpt>
      <trkpt lat="43.40736" lon="2.64897">
        <ele>616</ele>
        <time>2022-06-21T08:55:08Z</time>
      </trkpt>
      <trkpt lat="43.40736" lon="2.64899">
        <ele>616</ele>
        <time>2022-06-21T08:55:09Z</time>
      </trkpt>
      <trkpt lat="43.40737" lon="2.649">
        <ele>616.1</ele>
        <time>2022-06-21T08:55:10Z</time>
      </trkpt>
      <trkpt lat="43.40737" lon="2.64903">
        <ele>616.1</ele>
        <time>2022-06-21T08:55:11Z</time>
      </trkpt>
      <trkpt lat="43.40738" lon="2.64904">
        <ele>616.1</ele>
        <time>2022-06-21T08:55:12Z</time>
      </trkpt>
      <trkpt lat="43.40738" lon="2.64905">
        <ele>616.1</ele>
        <time>2022-06-21T08:55:13Z</time>
      </trkpt>
      <trkpt lat="43.40738" lon="2.64907">
        <ele>616.2</ele>
        <time>2022-06-21T08:55:14Z</time>
      </trkpt>
      <trkpt lat="43.40739" lon="2.64908">
        <ele>616.2</ele>
        <time>2022-06-21T08:55:15Z</time>
      </trkpt>
      <trkpt lat="43.40739" lon="2.6491">
        <ele>616.2</ele>
        <time>2022-06-21T08:55:16Z</time>
      </trkpt>
      <trkpt lat="43.4074" lon="2.64911">
        <ele>616.3</ele>
        <time>2022-06-21T08:55:17Z</time>
      </trkpt>
      <trkpt lat="43.4074" lon="2.64913">
        <ele>616.3</ele>
        <time>2022-06-21T08:55:18Z</time>
      </trkpt>
      <trkpt lat="43.40741" lon="2.64914">
        <ele>616.3</ele>
        <time>2022-06-21T08:55:19Z</time>
      </trkpt>
      <trkpt lat="43.40741" lon="2.64915">
        <ele>616.3</ele>
        <time>2022-06-21T08:55:20Z</time>
      </trkpt>
      <trkpt lat="43.40742" lon="2.64916">
        <ele>616.4</ele>
        <time>2022-06-21T08:55:21Z</time>
      </trkpt>
      <trkpt lat="43.40742" lon="2.64917">
        <ele>616.4</ele>
        <time>2022-06-21T08:55:22Z</time>
      </trkpt>
      <trkpt lat="43.40742" lon="2.64919">
        <ele>616.4</ele>
        <time>2022-06-21T08:55:23Z</time>
      </trkpt>
      <trkpt lat="43.40743" lon="2.64921">
        <ele>616.5</ele>
        <time>2022-06-21T08:55:24Z</time>
      </trkpt>
      <trkpt lat="43.40743" lon="2.64922">
        <ele>616.5</ele>
        <time>2022-06-21T08:55:25Z</time>
      </trkpt>
      <trkpt lat="43.40743" lon="2.64923">
        <ele>616.6</ele>
        <time>2022-06-21T08:55:26Z</time>
      </trkpt>
      <trkpt lat="43.40743" lon="2.64924">
        <ele>616.6</ele>
        <time>2022-06-21T08:55:27Z</time>
      </trkpt>
      <trkpt lat="43.40744" lon="2.64926">
        <ele>616.6</ele>
        <time>2022-06-21T08:55:28Z</time>
      </trkpt>
      <trkpt lat="43.40744" lon="2.64927">
        <ele>616.7</ele>
        <time>2022-06-21T08:55:29Z</time>
      </trkpt>
      <trkpt lat="43.40744" lon="2.64929">
        <ele>616.7</ele>
        <time>2022-06-21T08:55:30Z</time>
      </trkpt>
      <trkpt lat="43.40744" lon="2.6493">
        <ele>616.8</ele>
        <time>2022-06-21T08:55:31Z</time>
      </trkpt>
      <trkpt lat="43.40744" lon="2.64932">
        <ele>616.8</ele>
        <time>2022-06-21T08:55:32Z</time>
      </trkpt>
      <trkpt lat="43.40745" lon="2.64933">
        <ele>616.9</ele>
        <time>2022-06-21T08:55:33Z</time>
      </trkpt>
      <trkpt lat="43.40745" lon="2.64934">
        <ele>616.9</ele>
        <time>2022-06-21T08:55:34Z</time>
      </trkpt>
      <trkpt lat="43.40745" lon="2.64936">
        <ele>617</ele>
        <time>2022-06-21T08:55:35Z</time>
      </trkpt>
      <trkpt lat="43.40745" lon="2.64938">
        <ele>617.1</ele>
        <time>2022-06-21T08:55:36Z</time>
      </trkpt>
      <trkpt lat="43.40746" lon="2.64939">
        <ele>617.1</ele>
        <time>2022-06-21T08:55:37Z</time>
      </trkpt>
      <trkpt lat="43.40746" lon="2.6494">
        <ele>617.2</ele>
        <time>2022-06-21T08:55:38Z</time>
      </trkpt>
      <trkpt lat="43.40746" lon="2.64941">
        <ele>617.2</ele>
        <time>2022-06-21T08:55:39Z</time>
      </trkpt>
      <trkpt lat="43.40747" lon="2.64943">
        <ele>617.3</ele>
        <time>2022-06-21T08:55:40Z</time>
      </trkpt>
      <trkpt lat="43.40747" lon="2.64944">
        <ele>617.3</ele>
        <time>2022-06-21T08:55:41Z</time>
      </trkpt>
      <trkpt lat="43.40748" lon="2.64945">
        <ele>617.4</ele>
        <time>2022-06-21T08:55:42Z</time>
      </trkpt>
      <trkpt lat="43.40749" lon="2.64946">
        <ele>617.5</ele>
        <time>2022-06-21T08:55:43Z</time>
      </trkpt>
      <trkpt lat="43.4075" lon="2.64947">
        <ele>617.6</ele>
        <time>2022-06-21T08:55:44Z</time>
      </trkpt>
      <trkpt lat="43.4075" lon="2.64948">
        <ele>617.7</ele>
        <time>2022-06-21T08:55:45Z</time>
      </trkpt>
      <trkpt lat="43.40751" lon="2.64949">
        <ele>617.7</ele>
        <time>2022-06-21T08:55:46Z</time>
      </trkpt>
      <trkpt lat="43.40752" lon="2.6495">
        <ele>617.8</ele>
        <time>2022-06-21T08:55:47Z</time>
      </trkpt>
      <trkpt lat="43.40753" lon="2.64951">
        <ele>618</ele>
        <time>2022-06-21T08:55:48Z</time>
      </trkpt>
      <trkpt lat="43.40754" lon="2.64952">
        <ele>618</ele>
        <time>2022-06-21T08:55:49Z</time>
      </trkpt>
      <trkpt lat="43.40755" lon="2.64953">
        <ele>618.1</ele>
        <time>2022-06-21T08:55:50Z</time>
      </trkpt>
      <trkpt lat="43.40755" lon="2.64953">
        <ele>618.3</ele>
        <time>2022-06-21T08:55:51Z</time>
      </trkpt>
      <trkpt lat="43.40756" lon="2.64954">
        <ele>618.4</ele>
        <time>2022-06-21T08:55:52Z</time>
      </trkpt>
      <trkpt lat="43.40757" lon="2.64954">
        <ele>618.5</ele>
        <time>2022-06-21T08:55:53Z</time>
      </trkpt>
      <trkpt lat="43.40758" lon="2.64954">
        <ele>618.6</ele>
        <time>2022-06-21T08:55:54Z</time>
      </trkpt>
      <trkpt lat="43.40759" lon="2.64954">
        <ele>618.6</ele>
        <time>2022-06-21T08:55:55Z</time>
      </trkpt>
      <trkpt lat="43.40759" lon="2.64955">
        <ele>618.7</ele>
        <time>2022-06-21T08:55:56Z</time>
      </trkpt>
      <trkpt lat="43.40761" lon="2.64955">
        <ele>618.9</ele>
        <time>2022-06-21T08:55:57Z</time>
      </trkpt>
      <trkpt lat="43.40762" lon="2.64955">
        <ele>619.1</ele>
        <time>2022-06-21T08:55:58Z</time>
      </trkpt>
      <trkpt lat="43.40763" lon="2.64956">
        <ele>619.2</ele>
        <time>2022-06-21T08:55:59Z</time>
      </trkpt>
      <trkpt lat="43.40763" lon="2.64956">
        <ele>619.3</ele>
        <time>2022-06-21T08:56:00Z</time>
      </trkpt>
      <trkpt lat="43.40764" lon="2.64956">
        <ele>619.4</ele>
        <time>2022-06-21T08:56:01Z</time>
      </trkpt>
      <trkpt lat="43.40765" lon="2.64956">
        <ele>619.5</ele>
        <time>2022-06-21T08:56:02Z</time>
      </trkpt>
      <trkpt lat="43.40766" lon="2.64956">
        <ele>619.6</ele>
        <time>2022-06-21T08:56:03Z</time>
      </trkpt>
      <trkpt lat="43.40767" lon="2.64957">
        <ele>619.8</ele>
        <time>2022-06-21T08:56:04Z</time>
      </trkpt>
      <trkpt lat="43.40768" lon="2.64957">
        <ele>619.9</ele>
        <time>2022-06-21T08:56:05Z</time>
      </trkpt>
      <trkpt lat="43.40769" lon="2.64958">
        <ele>620.1</ele>
        <time>2022-06-21T08:56:06Z</time>
      </trkpt>
      <trkpt lat="43.40769" lon="2.64958">
        <ele>620.1</ele>
        <time>2022-06-21T08:56:07Z</time>
      </trkpt>
      <trkpt lat="43.4077" lon="2.64958">
        <ele>620.3</ele>
        <time>2022-06-21T08:56:08Z</time>
      </trkpt>
      <trkpt lat="43.40771" lon="2.64959">
        <ele>620.4</ele>
        <time>2022-06-21T08:56:09Z</time>
      </trkpt>
      <trkpt lat="43.40771" lon="2.64959">
        <ele>620.5</ele>
        <time>2022-06-21T08:56:10Z</time>
      </trkpt>
      <trkpt lat="43.40773" lon="2.64959">
        <ele>620.7</ele>
        <time>2022-06-21T08:56:11Z</time>
      </trkpt>
      <trkpt lat="43.40774" lon="2.6496">
        <ele>620.8</ele>
        <time>2022-06-21T08:56:12Z</time>
      </trkpt>
      <trkpt lat="43.40774" lon="2.6496">
        <ele>620.9</ele>
        <time>2022-06-21T08:56:13Z</time>
      </trkpt>
      <trkpt lat="43.40775" lon="2.6496">
        <ele>621.1</ele>
        <time>2022-06-21T08:56:14Z</time>
      </trkpt>
      <trkpt lat="43.40776" lon="2.64961">
        <ele>621.2</ele>
        <time>2022-06-21T08:56:15Z</time>
      </trkpt>
      <trkpt lat="43.40777" lon="2.64961">
        <ele>621.3</ele>
        <time>2022-06-21T08:56:16Z</time>
      </trkpt>
      <trkpt lat="43.40778" lon="2.64961">
        <ele>621.5</ele>
        <time>2022-06-21T08:56:17Z</time>
      </trkpt>
      <trkpt lat="43.40779" lon="2.64962">
        <ele>621.6</ele>
        <time>2022-06-21T08:56:18Z</time>
      </trkpt>
      <trkpt lat="43.40779" lon="2.64962">
        <ele>621.7</ele>
        <time>2022-06-21T08:56:19Z</time>
      </trkpt>
      <trkpt lat="43.4078" lon="2.64962">
        <ele>621.8</ele>
        <time>2022-06-21T08:56:20Z</time>
      </trkpt>
      <trkpt lat="43.40781" lon="2.64963">
        <ele>621.9</ele>
        <time>2022-06-21T08:56:21Z</time>
      </trkpt>
      <trkpt lat="43.40782" lon="2.64963">
        <ele>622</ele>
        <time>2022-06-21T08:56:22Z</time>
      </trkpt>
      <trkpt lat="43.40783" lon="2.64963">
        <ele>622.3</ele>
        <time>2022-06-21T08:56:23Z</time>
      </trkpt>
      <trkpt lat="43.40784" lon="2.64963">
        <ele>622.3</ele>
        <time>2022-06-21T08:56:24Z</time>
      </trkpt>
      <trkpt lat="43.40785" lon="2.64963">
        <ele>622.5</ele>
        <time>2022-06-21T08:56:25Z</time>
      </trkpt>
      <trkpt lat="43.40785" lon="2.64963">
        <ele>622.6</ele>
        <time>2022-06-21T08:56:26Z</time>
      </trkpt>
      <trkpt lat="43.40786" lon="2.64963">
        <ele>622.7</ele>
        <time>2022-06-21T08:56:27Z</time>
      </trkpt>
      <trkpt lat="43.40787" lon="2.64963">
        <ele>622.8</ele>
        <time>2022-06-21T08:56:28Z</time>
      </trkpt>
      <trkpt lat="43.40788" lon="2.64964">
        <ele>623</ele>
        <time>2022-06-21T08:56:29Z</time>
      </trkpt>
      <trkpt lat="43.40789" lon="2.64964">
        <ele>623.1</ele>
        <time>2022-06-21T08:56:30Z</time>
      </trkpt>
      <trkpt lat="43.4079" lon="2.64964">
        <ele>623.2</ele>
        <time>2022-06-21T08:56:31Z</time>
      </trkpt>
      <trkpt lat="43.40791" lon="2.64964">
        <ele>623.4</ele>
        <time>2022-06-21T08:56:32Z</time>
      </trkpt>
      <trkpt lat="43.40792" lon="2.64965">
        <ele>623.5</ele>
        <time>2022-06-21T08:56:33Z</time>
      </trkpt>
      <trkpt lat="43.40793" lon="2.64965">
        <ele>623.6</ele>
        <time>2022-06-21T08:56:34Z</time>
      </trkpt>
      <trkpt lat="43.40793" lon="2.64965">
        <ele>623.8</ele>
        <time>2022-06-21T08:56:35Z</time>
      </trkpt>
      <trkpt lat="43.40794" lon="2.64965">
        <ele>623.9</ele>
        <time>2022-06-21T08:56:36Z</time>
      </trkpt>
      <trkpt lat="43.40795" lon="2.64965">
        <ele>624</ele>
        <time>2022-06-21T08:56:37Z</time>
      </trkpt>
      <trkpt lat="43.40796" lon="2.64965">
        <ele>624.1</ele>
        <time>2022-06-21T08:56:38Z</time>
      </trkpt>
      <trkpt lat="43.40797" lon="2.64965">
        <ele>624.3</ele>
        <time>2022-06-21T08:56:39Z</time>
      </trkpt>
      <trkpt lat="43.40798" lon="2.64966">
        <ele>624.4</ele>
        <time>2022-06-21T08:56:40Z</time>
      </trkpt>
      <trkpt lat="43.40799" lon="2.64966">
        <ele>624.6</ele>
        <time>2022-06-21T08:56:41Z</time>
      </trkpt>
      <trkpt lat="43.40799" lon="2.64966">
        <ele>624.6</ele>
        <time>2022-06-21T08:56:42Z</time>
      </trkpt>
      <trkpt lat="43.408" lon="2.64967">
        <ele>624.7</ele>
        <time>2022-06-21T08:56:43Z</time>
      </trkpt>
      <trkpt lat="43.40801" lon="2.64967">
        <ele>624.9</ele>
        <time>2022-06-21T08:56:44Z</time>
      </trkpt>
      <trkpt lat="43.40802" lon="2.64967">
        <ele>625</ele>
        <time>2022-06-21T08:56:45Z</time>
      </trkpt>
      <trkpt lat="43.40803" lon="2.64968">
        <ele>625.2</ele>
        <time>2022-06-21T08:56:46Z</time>
      </trkpt>
      <trkpt lat="43.40803" lon="2.64968">
        <ele>625.3</ele>
        <time>2022-06-21T08:56:47Z</time>
      </trkpt>
      <trkpt lat="43.40804" lon="2.64968">
        <ele>625.4</ele>
        <time>2022-06-21T08:56:48Z</time>
      </trkpt>
      <trkpt lat="43.40805" lon="2.64968">
        <ele>625.5</ele>
        <time>2022-06-21T08:56:49Z</time>
      </trkpt>
      <trkpt lat="43.40806" lon="2.64968">
        <ele>625.6</ele>
        <time>2022-06-21T08:56:50Z</time>
      </trkpt>
      <trkpt lat="43.40807" lon="2.64968">
        <ele>625.8</ele>
        <time>2022-06-21T08:56:51Z</time>
      </trkpt>
      <trkpt lat="43.40808" lon="2.64969">
        <ele>625.9</ele>
        <time>2022-06-21T08:56:52Z</time>
      </trkpt>
      <trkpt lat="43.40809" lon="2.64969">
        <ele>626.1</ele>
        <time>2022-06-21T08:56:53Z</time>
      </trkpt>
      <trkpt lat="43.40809" lon="2.64969">
        <ele>626.2</ele>
        <time>2022-06-21T08:56:54Z</time>
      </trkpt>
      <trkpt lat="43.4081" lon="2.6497">
        <ele>626.2</ele>
        <time>2022-06-21T08:56:55Z</time>
      </trkpt>
      <trkpt lat="43.40811" lon="2.6497">
        <ele>626.4</ele>
        <time>2022-06-21T08:56:56Z</time>
      </trkpt>
      <trkpt lat="43.40811" lon="2.6497">
        <ele>626.5</ele>
        <time>2022-06-21T08:56:57Z</time>
      </trkpt>
      <trkpt lat="43.40812" lon="2.64971">
        <ele>626.6</ele>
        <time>2022-06-21T08:56:58Z</time>
      </trkpt>
      <trkpt lat="43.40813" lon="2.64971">
        <ele>626.7</ele>
        <time>2022-06-21T08:56:59Z</time>
      </trkpt>
      <trkpt lat="43.40814" lon="2.64971">
        <ele>626.8</ele>
        <time>2022-06-21T08:57:00Z</time>
      </trkpt>
      <trkpt lat="43.40815" lon="2.64972">
        <ele>626.9</ele>
        <time>2022-06-21T08:57:01Z</time>
      </trkpt>
      <trkpt lat="43.40816" lon="2.64972">
        <ele>627.1</ele>
        <time>2022-06-21T08:57:02Z</time>
      </trkpt>
      <trkpt lat="43.40817" lon="2.64972">
        <ele>627.2</ele>
        <time>2022-06-21T08:57:03Z</time>
      </trkpt>
      <trkpt lat="43.40818" lon="2.64972">
        <ele>627.4</ele>
        <time>2022-06-21T08:57:04Z</time>
      </trkpt>
      <trkpt lat="43.40819" lon="2.64972">
        <ele>627.5</ele>
        <time>2022-06-21T08:57:05Z</time>
      </trkpt>
      <trkpt lat="43.4082" lon="2.64973">
        <ele>627.6</ele>
        <time>2022-06-21T08:57:06Z</time>
      </trkpt>
      <trkpt lat="43.40821" lon="2.64973">
        <ele>627.7</ele>
        <time>2022-06-21T08:57:07Z</time>
      </trkpt>
      <trkpt lat="43.40822" lon="2.64973">
        <ele>627.8</ele>
        <time>2022-06-21T08:57:08Z</time>
      </trkpt>
      <trkpt lat="43.40823" lon="2.64974">
        <ele>627.9</ele>
        <time>2022-06-21T08:57:09Z</time>
      </trkpt>
      <trkpt lat="43.40824" lon="2.64974">
        <ele>628</ele>
        <time>2022-06-21T08:57:10Z</time>
      </trkpt>
      <trkpt lat="43.40825" lon="2.64974">
        <ele>628.1</ele>
        <time>2022-06-21T08:57:11Z</time>
      </trkpt>
      <trkpt lat="43.40825" lon="2.64975">
        <ele>628.2</ele>
        <time>2022-06-21T08:57:12Z</time>
      </trkpt>
      <trkpt lat="43.40826" lon="2.64975">
        <ele>628.2</ele>
        <time>2022-06-21T08:57:13Z</time>
      </trkpt>
      <trkpt lat="43.40827" lon="2.64976">
        <ele>628.3</ele>
        <time>2022-06-21T08:57:14Z</time>
      </trkpt>
      <trkpt lat="43.40828" lon="2.64976">
        <ele>628.4</ele>
        <time>2022-06-21T08:57:15Z</time>
      </trkpt>
      <trkpt lat="43.40829" lon="2.64977">
        <ele>628.5</ele>
        <time>2022-06-21T08:57:16Z</time>
      </trkpt>
      <trkpt lat="43.40829" lon="2.64977">
        <ele>628.5</ele>
        <time>2022-06-21T08:57:17Z</time>
      </trkpt>
      <trkpt lat="43.4083" lon="2.64977">
        <ele>628.6</ele>
        <time>2022-06-21T08:57:18Z</time>
      </trkpt>
      <trkpt lat="43.40831" lon="2.64978">
        <ele>628.7</ele>
        <time>2022-06-21T08:57:19Z</time>
      </trkpt>
      <trkpt lat="43.40831" lon="2.64978">
        <ele>628.8</ele>
        <time>2022-06-21T08:57:20Z</time>
      </trkpt>
      <trkpt lat="43.40832" lon="2.64978">
        <ele>628.9</ele>
        <time>2022-06-21T08:57:21Z</time>
      </trkpt>
      <trkpt lat="43.40833" lon="2.64979">
        <ele>629</ele>
        <time>2022-06-21T08:57:22Z</time>
      </trkpt>
      <trkpt lat="43.40834" lon="2.64979">
        <ele>629.1</ele>
        <time>2022-06-21T08:57:23Z</time>
      </trkpt>
      <trkpt lat="43.40835" lon="2.6498">
        <ele>629.1</ele>
        <time>2022-06-21T08:57:24Z</time>
      </trkpt>
      <trkpt lat="43.40836" lon="2.6498">
        <ele>629.3</ele>
        <time>2022-06-21T08:57:25Z</time>
      </trkpt>
      <trkpt lat="43.40837" lon="2.6498">
        <ele>629.4</ele>
        <time>2022-06-21T08:57:26Z</time>
      </trkpt>
      <trkpt lat="43.40838" lon="2.64981">
        <ele>629.5</ele>
        <time>2022-06-21T08:57:27Z</time>
      </trkpt>
      <trkpt lat="43.40839" lon="2.64981">
        <ele>629.6</ele>
        <time>2022-06-21T08:57:28Z</time>
      </trkpt>
      <trkpt lat="43.4084" lon="2.64982">
        <ele>629.7</ele>
        <time>2022-06-21T08:57:29Z</time>
      </trkpt>
      <trkpt lat="43.40841" lon="2.64982">
        <ele>629.8</ele>
        <time>2022-06-21T08:57:30Z</time>
      </trkpt>
      <trkpt lat="43.40841" lon="2.64982">
        <ele>629.8</ele>
        <time>2022-06-21T08:57:31Z</time>
      </trkpt>
      <trkpt lat="43.40842" lon="2.64983">
        <ele>629.9</ele>
        <time>2022-06-21T08:57:32Z</time>
      </trkpt>
      <trkpt lat="43.40843" lon="2.64983">
        <ele>630</ele>
        <time>2022-06-21T08:57:33Z</time>
      </trkpt>
      <trkpt lat="43.40844" lon="2.64983">
        <ele>630.1</ele>
        <time>2022-06-21T08:57:36Z</time>
      </trkpt>
      <trkpt lat="43.40845" lon="2.64984">
        <ele>630.3</ele>
        <time>2022-06-21T08:57:37Z</time>
      </trkpt>
      <trkpt lat="43.40846" lon="2.64984">
        <ele>630.4</ele>
        <time>2022-06-21T08:57:38Z</time>
      </trkpt>
      <trkpt lat="43.40847" lon="2.64984">
        <ele>630.5</ele>
        <time>2022-06-21T08:57:39Z</time>
      </trkpt>
      <trkpt lat="43.40849" lon="2.64985">
        <ele>630.7</ele>
        <time>2022-06-21T08:57:40Z</time>
      </trkpt>
      <trkpt lat="43.40849" lon="2.64985">
        <ele>630.7</ele>
        <time>2022-06-21T08:57:41Z</time>
      </trkpt>
      <trkpt lat="43.4085" lon="2.64985">
        <ele>630.9</ele>
        <time>2022-06-21T08:57:42Z</time>
      </trkpt>
      <trkpt lat="43.40851" lon="2.64986">
        <ele>631</ele>
        <time>2022-06-21T08:57:43Z</time>
      </trkpt>
      <trkpt lat="43.40852" lon="2.64986">
        <ele>631.1</ele>
        <time>2022-06-21T08:57:44Z</time>
      </trkpt>
      <trkpt lat="43.40853" lon="2.64986">
        <ele>631.2</ele>
        <time>2022-06-21T08:57:45Z</time>
      </trkpt>
      <trkpt lat="43.40854" lon="2.64986">
        <ele>631.3</ele>
        <time>2022-06-21T08:57:46Z</time>
      </trkpt>
      <trkpt lat="43.40855" lon="2.64987">
        <ele>631.4</ele>
        <time>2022-06-21T08:57:47Z</time>
      </trkpt>
      <trkpt lat="43.40856" lon="2.64987">
        <ele>631.5</ele>
        <time>2022-06-21T08:57:48Z</time>
      </trkpt>
      <trkpt lat="43.40857" lon="2.64987">
        <ele>631.6</ele>
        <time>2022-06-21T08:57:49Z</time>
      </trkpt>
      <trkpt lat="43.40858" lon="2.64987">
        <ele>631.7</ele>
        <time>2022-06-21T08:57:50Z</time>
      </trkpt>
      <trkpt lat="43.40859" lon="2.64987">
        <ele>631.8</ele>
        <time>2022-06-21T08:57:51Z</time>
      </trkpt>
      <trkpt lat="43.40859" lon="2.64988">
        <ele>631.9</ele>
        <time>2022-06-21T08:57:52Z</time>
      </trkpt>
      <trkpt lat="43.4086" lon="2.64988">
        <ele>632</ele>
        <time>2022-06-21T08:57:53Z</time>
      </trkpt>
      <trkpt lat="43.40861" lon="2.64988">
        <ele>632.1</ele>
        <time>2022-06-21T08:57:54Z</time>
      </trkpt>
      <trkpt lat="43.40862" lon="2.64989">
        <ele>632.1</ele>
        <time>2022-06-21T08:57:55Z</time>
      </trkpt>
      <trkpt lat="43.40863" lon="2.64989">
        <ele>632.2</ele>
        <time>2022-06-21T08:57:56Z</time>
      </trkpt>
      <trkpt lat="43.40864" lon="2.6499">
        <ele>632.3</ele>
        <time>2022-06-21T08:57:57Z</time>
      </trkpt>
      <trkpt lat="43.40864" lon="2.6499">
        <ele>632.4</ele>
        <time>2022-06-21T08:57:58Z</time>
      </trkpt>
      <trkpt lat="43.40865" lon="2.64991">
        <ele>632.4</ele>
        <time>2022-06-21T08:57:59Z</time>
      </trkpt>
      <trkpt lat="43.40865" lon="2.64991">
        <ele>632.5</ele>
        <time>2022-06-21T08:58:00Z</time>
      </trkpt>
      <trkpt lat="43.40866" lon="2.64992">
        <ele>632.6</ele>
        <time>2022-06-21T08:58:01Z</time>
      </trkpt>
      <trkpt lat="43.40867" lon="2.64992">
        <ele>632.7</ele>
        <time>2022-06-21T08:58:02Z</time>
      </trkpt>
      <trkpt lat="43.40868" lon="2.64993">
        <ele>632.8</ele>
        <time>2022-06-21T08:58:03Z</time>
      </trkpt>
      <trkpt lat="43.40868" lon="2.64993">
        <ele>632.8</ele>
        <time>2022-06-21T08:58:04Z</time>
      </trkpt>
      <trkpt lat="43.40868" lon="2.64994">
        <ele>632.9</ele>
        <time>2022-06-21T08:58:05Z</time>
      </trkpt>
      <trkpt lat="43.4087" lon="2.64995">
        <ele>633</ele>
        <time>2022-06-21T08:58:06Z</time>
      </trkpt>
      <trkpt lat="43.4087" lon="2.64996">
        <ele>633.1</ele>
        <time>2022-06-21T08:58:07Z</time>
      </trkpt>
      <trkpt lat="43.40871" lon="2.64997">
        <ele>633.2</ele>
        <time>2022-06-21T08:58:08Z</time>
      </trkpt>
      <trkpt lat="43.40872" lon="2.64997">
        <ele>633.2</ele>
        <time>2022-06-21T08:58:09Z</time>
      </trkpt>
      <trkpt lat="43.40873" lon="2.64998">
        <ele>633.4</ele>
        <time>2022-06-21T08:58:10Z</time>
      </trkpt>
      <trkpt lat="43.40874" lon="2.64999">
        <ele>633.5</ele>
        <time>2022-06-21T08:58:11Z</time>
      </trkpt>
      <trkpt lat="43.40875" lon="2.64999">
        <ele>633.5</ele>
        <time>2022-06-21T08:58:12Z</time>
      </trkpt>
      <trkpt lat="43.40876" lon="2.65">
        <ele>633.6</ele>
        <time>2022-06-21T08:58:13Z</time>
      </trkpt>
      <trkpt lat="43.40877" lon="2.65001">
        <ele>633.7</ele>
        <time>2022-06-21T08:58:14Z</time>
      </trkpt>
      <trkpt lat="43.40878" lon="2.65002">
        <ele>633.9</ele>
        <time>2022-06-21T08:58:15Z</time>
      </trkpt>
      <trkpt lat="43.40879" lon="2.65003">
        <ele>633.9</ele>
        <time>2022-06-21T08:58:16Z</time>
      </trkpt>
      <trkpt lat="43.40879" lon="2.65003">
        <ele>633.9</ele>
        <time>2022-06-21T08:58:17Z</time>
      </trkpt>
      <trkpt lat="43.40879" lon="2.65003">
        <ele>633.9</ele>
        <time>2022-06-21T08:58:18Z</time>
      </trkpt>
      <trkpt lat="43.40879" lon="2.65003">
        <ele>634</ele>
        <time>2022-06-21T08:58:19Z</time>
      </trkpt>
      <trkpt lat="43.4088" lon="2.65003">
        <ele>634</ele>
        <time>2022-06-21T08:58:20Z</time>
      </trkpt>
      <trkpt lat="43.40881" lon="2.65004">
        <ele>634.1</ele>
        <time>2022-06-21T08:58:21Z</time>
      </trkpt>
      <trkpt lat="43.40882" lon="2.65004">
        <ele>634.2</ele>
        <time>2022-06-21T08:58:22Z</time>
      </trkpt>
      <trkpt lat="43.40883" lon="2.65005">
        <ele>634.3</ele>
        <time>2022-06-21T08:58:23Z</time>
      </trkpt>
      <trkpt lat="43.40885" lon="2.65007">
        <ele>634.4</ele>
        <time>2022-06-21T08:58:24Z</time>
      </trkpt>
      <trkpt lat="43.40886" lon="2.65008">
        <ele>634.5</ele>
        <time>2022-06-21T08:58:25Z</time>
      </trkpt>
      <trkpt lat="43.40887" lon="2.65008">
        <ele>634.6</ele>
        <time>2022-06-21T08:58:26Z</time>
      </trkpt>
      <trkpt lat="43.40889" lon="2.6501">
        <ele>634.7</ele>
        <time>2022-06-21T08:58:27Z</time>
      </trkpt>
      <trkpt lat="43.40889" lon="2.6501">
        <ele>634.8</ele>
        <time>2022-06-21T08:58:28Z</time>
      </trkpt>
      <trkpt lat="43.4089" lon="2.6501">
        <ele>634.9</ele>
        <time>2022-06-21T08:58:29Z</time>
      </trkpt>
      <trkpt lat="43.40892" lon="2.65012">
        <ele>635.1</ele>
        <time>2022-06-21T08:58:30Z</time>
      </trkpt>
      <trkpt lat="43.40893" lon="2.65013">
        <ele>635.1</ele>
        <time>2022-06-21T08:58:31Z</time>
      </trkpt>
      <trkpt lat="43.40894" lon="2.65013">
        <ele>635.2</ele>
        <time>2022-06-21T08:58:32Z</time>
      </trkpt>
      <trkpt lat="43.40894" lon="2.65014">
        <ele>635.3</ele>
        <time>2022-06-21T08:58:33Z</time>
      </trkpt>
      <trkpt lat="43.40895" lon="2.65015">
        <ele>635.4</ele>
        <time>2022-06-21T08:58:34Z</time>
      </trkpt>
      <trkpt lat="43.40896" lon="2.65016">
        <ele>635.5</ele>
        <time>2022-06-21T08:58:35Z</time>
      </trkpt>
      <trkpt lat="43.40897" lon="2.65017">
        <ele>635.6</ele>
        <time>2022-06-21T08:58:36Z</time>
      </trkpt>
      <trkpt lat="43.40897" lon="2.65018">
        <ele>635.7</ele>
        <time>2022-06-21T08:58:37Z</time>
      </trkpt>
      <trkpt lat="43.40898" lon="2.65018">
        <ele>635.7</ele>
        <time>2022-06-21T08:58:38Z</time>
      </trkpt>
      <trkpt lat="43.40899" lon="2.6502">
        <ele>635.9</ele>
        <time>2022-06-21T08:58:39Z</time>
      </trkpt>
      <trkpt lat="43.409" lon="2.6502">
        <ele>635.9</ele>
        <time>2022-06-21T08:58:40Z</time>
      </trkpt>
      <trkpt lat="43.409" lon="2.65021">
        <ele>636</ele>
        <time>2022-06-21T08:58:41Z</time>
      </trkpt>
      <trkpt lat="43.40901" lon="2.65022">
        <ele>636.1</ele>
        <time>2022-06-21T08:58:42Z</time>
      </trkpt>
      <trkpt lat="43.40902" lon="2.65023">
        <ele>636.2</ele>
        <time>2022-06-21T08:58:43Z</time>
      </trkpt>
      <trkpt lat="43.40903" lon="2.65024">
        <ele>636.3</ele>
        <time>2022-06-21T08:58:44Z</time>
      </trkpt>
      <trkpt lat="43.40904" lon="2.65025">
        <ele>636.4</ele>
        <time>2022-06-21T08:58:45Z</time>
      </trkpt>
      <trkpt lat="43.40905" lon="2.65026">
        <ele>636.5</ele>
        <time>2022-06-21T08:58:46Z</time>
      </trkpt>
      <trkpt lat="43.40905" lon="2.65027">
        <ele>636.6</ele>
        <time>2022-06-21T08:58:47Z</time>
      </trkpt>
      <trkpt lat="43.40906" lon="2.65028">
        <ele>636.7</ele>
        <time>2022-06-21T08:58:48Z</time>
      </trkpt>
      <trkpt lat="43.40906" lon="2.65029">
        <ele>636.8</ele>
        <time>2022-06-21T08:58:49Z</time>
      </trkpt>
      <trkpt lat="43.40908" lon="2.6503">
        <ele>636.9</ele>
        <time>2022-06-21T08:58:50Z</time>
      </trkpt>
      <trkpt lat="43.40908" lon="2.65031">
        <ele>637</ele>
        <time>2022-06-21T08:58:51Z</time>
      </trkpt>
      <trkpt lat="43.40909" lon="2.65032">
        <ele>637.1</ele>
        <time>2022-06-21T08:58:52Z</time>
      </trkpt>
      <trkpt lat="43.4091" lon="2.65033">
        <ele>637.2</ele>
        <time>2022-06-21T08:58:53Z</time>
      </trkpt>
      <trkpt lat="43.4091" lon="2.65034">
        <ele>637.3</ele>
        <time>2022-06-21T08:58:54Z</time>
      </trkpt>
      <trkpt lat="43.40911" lon="2.65036">
        <ele>637.4</ele>
        <time>2022-06-21T08:58:55Z</time>
      </trkpt>
      <trkpt lat="43.40912" lon="2.65037">
        <ele>637.5</ele>
        <time>2022-06-21T08:58:56Z</time>
      </trkpt>
      <trkpt lat="43.40912" lon="2.65038">
        <ele>637.6</ele>
        <time>2022-06-21T08:58:57Z</time>
      </trkpt>
      <trkpt lat="43.40913" lon="2.65039">
        <ele>637.6</ele>
        <time>2022-06-21T08:58:58Z</time>
      </trkpt>
      <trkpt lat="43.40914" lon="2.6504">
        <ele>637.7</ele>
        <time>2022-06-21T08:58:59Z</time>
      </trkpt>
      <trkpt lat="43.40915" lon="2.65041">
        <ele>637.8</ele>
        <time>2022-06-21T08:59:00Z</time>
      </trkpt>
      <trkpt lat="43.40916" lon="2.65042">
        <ele>637.8</ele>
        <time>2022-06-21T08:59:01Z</time>
      </trkpt>
      <trkpt lat="43.40916" lon="2.65043">
        <ele>637.9</ele>
        <time>2022-06-21T08:59:02Z</time>
      </trkpt>
      <trkpt lat="43.40917" lon="2.65044">
        <ele>638</ele>
        <time>2022-06-21T08:59:03Z</time>
      </trkpt>
      <trkpt lat="43.40918" lon="2.65045">
        <ele>638</ele>
        <time>2022-06-21T08:59:04Z</time>
      </trkpt>
      <trkpt lat="43.40919" lon="2.65046">
        <ele>638.1</ele>
        <time>2022-06-21T08:59:05Z</time>
      </trkpt>
      <trkpt lat="43.40919" lon="2.65047">
        <ele>638.1</ele>
        <time>2022-06-21T08:59:06Z</time>
      </trkpt>
      <trkpt lat="43.4092" lon="2.65048">
        <ele>638.2</ele>
        <time>2022-06-21T08:59:07Z</time>
      </trkpt>
      <trkpt lat="43.40921" lon="2.65049">
        <ele>638.2</ele>
        <time>2022-06-21T08:59:08Z</time>
      </trkpt>
      <trkpt lat="43.40921" lon="2.6505">
        <ele>638.2</ele>
        <time>2022-06-21T08:59:09Z</time>
      </trkpt>
      <trkpt lat="43.40922" lon="2.6505">
        <ele>638.2</ele>
        <time>2022-06-21T08:59:10Z</time>
      </trkpt>
      <trkpt lat="43.40923" lon="2.65051">
        <ele>638.3</ele>
        <time>2022-06-21T08:59:11Z</time>
      </trkpt>
      <trkpt lat="43.40923" lon="2.65052">
        <ele>638.3</ele>
        <time>2022-06-21T08:59:12Z</time>
      </trkpt>
      <trkpt lat="43.40924" lon="2.65053">
        <ele>638.3</ele>
        <time>2022-06-21T08:59:13Z</time>
      </trkpt>
      <trkpt lat="43.40924" lon="2.65054">
        <ele>638.3</ele>
        <time>2022-06-21T08:59:14Z</time>
      </trkpt>
      <trkpt lat="43.40925" lon="2.65055">
        <ele>638.4</ele>
        <time>2022-06-21T08:59:15Z</time>
      </trkpt>
      <trkpt lat="43.40926" lon="2.65057">
        <ele>638.4</ele>
        <time>2022-06-21T08:59:16Z</time>
      </trkpt>
      <trkpt lat="43.40926" lon="2.65058">
        <ele>638.4</ele>
        <time>2022-06-21T08:59:17Z</time>
      </trkpt>
      <trkpt lat="43.40927" lon="2.65059">
        <ele>638.4</ele>
        <time>2022-06-21T08:59:18Z</time>
      </trkpt>
      <trkpt lat="43.40927" lon="2.6506">
        <ele>638.5</ele>
        <time>2022-06-21T08:59:19Z</time>
      </trkpt>
      <trkpt lat="43.40928" lon="2.65061">
        <ele>638.5</ele>
        <time>2022-06-21T08:59:20Z</time>
      </trkpt>
      <trkpt lat="43.40929" lon="2.65062">
        <ele>638.5</ele>
        <time>2022-06-21T08:59:21Z</time>
      </trkpt>
      <trkpt lat="43.4093" lon="2.65063">
        <ele>638.5</ele>
        <time>2022-06-21T08:59:22Z</time>
      </trkpt>
      <trkpt lat="43.4093" lon="2.65064">
        <ele>638.6</ele>
        <time>2022-06-21T08:59:23Z</time>
      </trkpt>
      <trkpt lat="43.40931" lon="2.65065">
        <ele>638.6</ele>
        <time>2022-06-21T08:59:24Z</time>
      </trkpt>
      <trkpt lat="43.40932" lon="2.65066">
        <ele>638.6</ele>
        <time>2022-06-21T08:59:25Z</time>
      </trkpt>
      <trkpt lat="43.40933" lon="2.65067">
        <ele>638.6</ele>
        <time>2022-06-21T08:59:26Z</time>
      </trkpt>
      <trkpt lat="43.40934" lon="2.65068">
        <ele>638.6</ele>
        <time>2022-06-21T08:59:27Z</time>
      </trkpt>
      <trkpt lat="43.40934" lon="2.65069">
        <ele>638.7</ele>
        <time>2022-06-21T08:59:28Z</time>
      </trkpt>
      <trkpt lat="43.40935" lon="2.6507">
        <ele>638.7</ele>
        <time>2022-06-21T08:59:29Z</time>
      </trkpt>
      <trkpt lat="43.40935" lon="2.65071">
        <ele>638.7</ele>
        <time>2022-06-21T08:59:30Z</time>
      </trkpt>
      <trkpt lat="43.40936" lon="2.65072">
        <ele>638.7</ele>
        <time>2022-06-21T08:59:31Z</time>
      </trkpt>
      <trkpt lat="43.40937" lon="2.65073">
        <ele>638.7</ele>
        <time>2022-06-21T08:59:32Z</time>
      </trkpt>
      <trkpt lat="43.40937" lon="2.65074">
        <ele>638.8</ele>
        <time>2022-06-21T08:59:33Z</time>
      </trkpt>
      <trkpt lat="43.40938" lon="2.65075">
        <ele>638.8</ele>
        <time>2022-06-21T08:59:34Z</time>
      </trkpt>
      <trkpt lat="43.40939" lon="2.65076">
        <ele>638.8</ele>
        <time>2022-06-21T08:59:35Z</time>
      </trkpt>
      <trkpt lat="43.4094" lon="2.65077">
        <ele>638.8</ele>
        <time>2022-06-21T08:59:36Z</time>
      </trkpt>
      <trkpt lat="43.40941" lon="2.65079">
        <ele>638.9</ele>
        <time>2022-06-21T08:59:37Z</time>
      </trkpt>
      <trkpt lat="43.40942" lon="2.65079">
        <ele>638.9</ele>
        <time>2022-06-21T08:59:38Z</time>
      </trkpt>
      <trkpt lat="43.40943" lon="2.6508">
        <ele>638.9</ele>
        <time>2022-06-21T08:59:39Z</time>
      </trkpt>
      <trkpt lat="43.40944" lon="2.6508">
        <ele>638.9</ele>
        <time>2022-06-21T08:59:40Z</time>
      </trkpt>
      <trkpt lat="43.40944" lon="2.65081">
        <ele>638.9</ele>
        <time>2022-06-21T08:59:41Z</time>
      </trkpt>
      <trkpt lat="43.40945" lon="2.65082">
        <ele>638.9</ele>
        <time>2022-06-21T08:59:42Z</time>
      </trkpt>
      <trkpt lat="43.40946" lon="2.65083">
        <ele>639</ele>
        <time>2022-06-21T08:59:43Z</time>
      </trkpt>
      <trkpt lat="43.40947" lon="2.65084">
        <ele>639</ele>
        <time>2022-06-21T08:59:44Z</time>
      </trkpt>
      <trkpt lat="43.40947" lon="2.65085">
        <ele>639</ele>
        <time>2022-06-21T08:59:45Z</time>
      </trkpt>
      <trkpt lat="43.40948" lon="2.65086">
        <ele>639</ele>
        <time>2022-06-21T08:59:46Z</time>
      </trkpt>
      <trkpt lat="43.40949" lon="2.65087">
        <ele>639</ele>
        <time>2022-06-21T08:59:47Z</time>
      </trkpt>
      <trkpt lat="43.4095" lon="2.65087">
        <ele>639.1</ele>
        <time>2022-06-21T08:59:48Z</time>
      </trkpt>
      <trkpt lat="43.4095" lon="2.65088">
        <ele>639.1</ele>
        <time>2022-06-21T08:59:49Z</time>
      </trkpt>
      <trkpt lat="43.40951" lon="2.65089">
        <ele>639.1</ele>
        <time>2022-06-21T08:59:50Z</time>
      </trkpt>
      <trkpt lat="43.40952" lon="2.6509">
        <ele>639.1</ele>
        <time>2022-06-21T08:59:51Z</time>
      </trkpt>
      <trkpt lat="43.40952" lon="2.65091">
        <ele>639.1</ele>
        <time>2022-06-21T08:59:52Z</time>
      </trkpt>
      <trkpt lat="43.40953" lon="2.65092">
        <ele>639.1</ele>
        <time>2022-06-21T08:59:53Z</time>
      </trkpt>
      <trkpt lat="43.40954" lon="2.65092">
        <ele>639.2</ele>
        <time>2022-06-21T08:59:54Z</time>
      </trkpt>
      <trkpt lat="43.40954" lon="2.65093">
        <ele>639.2</ele>
        <time>2022-06-21T08:59:55Z</time>
      </trkpt>
      <trkpt lat="43.40955" lon="2.65094">
        <ele>639.2</ele>
        <time>2022-06-21T08:59:56Z</time>
      </trkpt>
      <trkpt lat="43.40955" lon="2.65095">
        <ele>639.2</ele>
        <time>2022-06-21T08:59:57Z</time>
      </trkpt>
      <trkpt lat="43.40956" lon="2.65096">
        <ele>639.2</ele>
        <time>2022-06-21T08:59:58Z</time>
      </trkpt>
      <trkpt lat="43.40957" lon="2.65097">
        <ele>639.2</ele>
        <time>2022-06-21T08:59:59Z</time>
      </trkpt>
      <trkpt lat="43.40958" lon="2.65097">
        <ele>639.3</ele>
        <time>2022-06-21T09:00:00Z</time>
      </trkpt>
      <trkpt lat="43.40959" lon="2.65098">
        <ele>639.3</ele>
        <time>2022-06-21T09:00:01Z</time>
      </trkpt>
      <trkpt lat="43.4096" lon="2.65099">
        <ele>639.3</ele>
        <time>2022-06-21T09:00:02Z</time>
      </trkpt>
      <trkpt lat="43.40961" lon="2.651">
        <ele>639.4</ele>
        <time>2022-06-21T09:00:03Z</time>
      </trkpt>
      <trkpt lat="43.40962" lon="2.65101">
        <ele>639.4</ele>
        <time>2022-06-21T09:00:04Z</time>
      </trkpt>
      <trkpt lat="43.40964" lon="2.65103">
        <ele>639.5</ele>
        <time>2022-06-21T09:00:05Z</time>
      </trkpt>
      <trkpt lat="43.40964" lon="2.65104">
        <ele>639.5</ele>
        <time>2022-06-21T09:00:06Z</time>
      </trkpt>
      <trkpt lat="43.40965" lon="2.65105">
        <ele>639.5</ele>
        <time>2022-06-21T09:00:07Z</time>
      </trkpt>
      <trkpt lat="43.40965" lon="2.65105">
        <ele>639.6</ele>
        <time>2022-06-21T09:00:08Z</time>
      </trkpt>
      <trkpt lat="43.40966" lon="2.65106">
        <ele>639.6</ele>
        <time>2022-06-21T09:00:09Z</time>
      </trkpt>
      <trkpt lat="43.40967" lon="2.65107">
        <ele>639.6</ele>
        <time>2022-06-21T09:00:10Z</time>
      </trkpt>
      <trkpt lat="43.40967" lon="2.65108">
        <ele>639.7</ele>
        <time>2022-06-21T09:00:11Z</time>
      </trkpt>
      <trkpt lat="43.40968" lon="2.65109">
        <ele>639.7</ele>
        <time>2022-06-21T09:00:12Z</time>
      </trkpt>
      <trkpt lat="43.40969" lon="2.65111">
        <ele>639.8</ele>
        <time>2022-06-21T09:00:13Z</time>
      </trkpt>
      <trkpt lat="43.4097" lon="2.65111">
        <ele>639.8</ele>
        <time>2022-06-21T09:00:14Z</time>
      </trkpt>
      <trkpt lat="43.40971" lon="2.65112">
        <ele>639.8</ele>
        <time>2022-06-21T09:00:15Z</time>
      </trkpt>
      <trkpt lat="43.40972" lon="2.65113">
        <ele>639.9</ele>
        <time>2022-06-21T09:00:16Z</time>
      </trkpt>
      <trkpt lat="43.40972" lon="2.65115">
        <ele>639.9</ele>
        <time>2022-06-21T09:00:17Z</time>
      </trkpt>
      <trkpt lat="43.40974" lon="2.65117">
        <ele>640</ele>
        <time>2022-06-21T09:00:18Z</time>
      </trkpt>
      <trkpt lat="43.40975" lon="2.65118">
        <ele>640</ele>
        <time>2022-06-21T09:00:19Z</time>
      </trkpt>
      <trkpt lat="43.40975" lon="2.65119">
        <ele>640.1</ele>
        <time>2022-06-21T09:00:20Z</time>
      </trkpt>
      <trkpt lat="43.40975" lon="2.6512">
        <ele>640.1</ele>
        <time>2022-06-21T09:00:21Z</time>
      </trkpt>
      <trkpt lat="43.40976" lon="2.65121">
        <ele>640.1</ele>
        <time>2022-06-21T09:00:22Z</time>
      </trkpt>
      <trkpt lat="43.40977" lon="2.65122">
        <ele>640.2</ele>
        <time>2022-06-21T09:00:23Z</time>
      </trkpt>
      <trkpt lat="43.40978" lon="2.65123">
        <ele>640.2</ele>
        <time>2022-06-21T09:00:24Z</time>
      </trkpt>
      <trkpt lat="43.40978" lon="2.65124">
        <ele>640.3</ele>
        <time>2022-06-21T09:00:25Z</time>
      </trkpt>
      <trkpt lat="43.40979" lon="2.65125">
        <ele>640.3</ele>
        <time>2022-06-21T09:00:26Z</time>
      </trkpt>
      <trkpt lat="43.4098" lon="2.65126">
        <ele>640.3</ele>
        <time>2022-06-21T09:00:27Z</time>
      </trkpt>
      <trkpt lat="43.40981" lon="2.65129">
        <ele>640.4</ele>
        <time>2022-06-21T09:00:28Z</time>
      </trkpt>
      <trkpt lat="43.40982" lon="2.65129">
        <ele>640.4</ele>
        <time>2022-06-21T09:00:29Z</time>
      </trkpt>
      <trkpt lat="43.40983" lon="2.6513">
        <ele>640.5</ele>
        <time>2022-06-21T09:00:30Z</time>
      </trkpt>
      <trkpt lat="43.40983" lon="2.65131">
        <ele>640.5</ele>
        <time>2022-06-21T09:00:31Z</time>
      </trkpt>
      <trkpt lat="43.40984" lon="2.65132">
        <ele>640.5</ele>
        <time>2022-06-21T09:00:32Z</time>
      </trkpt>
      <trkpt lat="43.40984" lon="2.65133">
        <ele>640.6</ele>
        <time>2022-06-21T09:00:33Z</time>
      </trkpt>
      <trkpt lat="43.40985" lon="2.65135">
        <ele>640.6</ele>
        <time>2022-06-21T09:00:34Z</time>
      </trkpt>
      <trkpt lat="43.40986" lon="2.65136">
        <ele>640.6</ele>
        <time>2022-06-21T09:00:35Z</time>
      </trkpt>
      <trkpt lat="43.40986" lon="2.65137">
        <ele>640.7</ele>
        <time>2022-06-21T09:00:36Z</time>
      </trkpt>
      <trkpt lat="43.40987" lon="2.65138">
        <ele>640.8</ele>
        <time>2022-06-21T09:00:37Z</time>
      </trkpt>
      <trkpt lat="43.40988" lon="2.6514">
        <ele>640.8</ele>
        <time>2022-06-21T09:00:38Z</time>
      </trkpt>
      <trkpt lat="43.40988" lon="2.65141">
        <ele>640.9</ele>
        <time>2022-06-21T09:00:39Z</time>
      </trkpt>
      <trkpt lat="43.40989" lon="2.65142">
        <ele>640.9</ele>
        <time>2022-06-21T09:00:40Z</time>
      </trkpt>
      <trkpt lat="43.40989" lon="2.65143">
        <ele>641</ele>
        <time>2022-06-21T09:00:41Z</time>
      </trkpt>
      <trkpt lat="43.4099" lon="2.65145">
        <ele>641.1</ele>
        <time>2022-06-21T09:00:42Z</time>
      </trkpt>
      <trkpt lat="43.40991" lon="2.65146">
        <ele>641.1</ele>
        <time>2022-06-21T09:00:43Z</time>
      </trkpt>
      <trkpt lat="43.40991" lon="2.65147">
        <ele>641.2</ele>
        <time>2022-06-21T09:00:44Z</time>
      </trkpt>
      <trkpt lat="43.40991" lon="2.65149">
        <ele>641.3</ele>
        <time>2022-06-21T09:00:45Z</time>
      </trkpt>
      <trkpt lat="43.40992" lon="2.6515">
        <ele>641.4</ele>
        <time>2022-06-21T09:00:46Z</time>
      </trkpt>
      <trkpt lat="43.40992" lon="2.65151">
        <ele>641.4</ele>
        <time>2022-06-21T09:00:47Z</time>
      </trkpt>
      <trkpt lat="43.40992" lon="2.65153">
        <ele>641.6</ele>
        <time>2022-06-21T09:00:48Z</time>
      </trkpt>
      <trkpt lat="43.40993" lon="2.65154">
        <ele>641.6</ele>
        <time>2022-06-21T09:00:49Z</time>
      </trkpt>
      <trkpt lat="43.40993" lon="2.65155">
        <ele>641.7</ele>
        <time>2022-06-21T09:00:50Z</time>
      </trkpt>
      <trkpt lat="43.40994" lon="2.65157">
        <ele>641.8</ele>
        <time>2022-06-21T09:00:51Z</time>
      </trkpt>
      <trkpt lat="43.40995" lon="2.65159">
        <ele>642</ele>
        <time>2022-06-21T09:00:52Z</time>
      </trkpt>
      <trkpt lat="43.40995" lon="2.6516">
        <ele>642.1</ele>
        <time>2022-06-21T09:00:53Z</time>
      </trkpt>
      <trkpt lat="43.40996" lon="2.65161">
        <ele>642.2</ele>
        <time>2022-06-21T09:00:54Z</time>
      </trkpt>
      <trkpt lat="43.40997" lon="2.65161">
        <ele>642.3</ele>
        <time>2022-06-21T09:00:55Z</time>
      </trkpt>
      <trkpt lat="43.40997" lon="2.65162">
        <ele>642.3</ele>
        <time>2022-06-21T09:00:56Z</time>
      </trkpt>
      <trkpt lat="43.40998" lon="2.65163">
        <ele>642.4</ele>
        <time>2022-06-21T09:00:57Z</time>
      </trkpt>
      <trkpt lat="43.41" lon="2.65164">
        <ele>642.5</ele>
        <time>2022-06-21T09:00:58Z</time>
      </trkpt>
      <trkpt lat="43.41001" lon="2.65164">
        <ele>642.6</ele>
        <time>2022-06-21T09:00:59Z</time>
      </trkpt>
      <trkpt lat="43.41002" lon="2.65164">
        <ele>642.7</ele>
        <time>2022-06-21T09:01:00Z</time>
      </trkpt>
      <trkpt lat="43.41003" lon="2.65165">
        <ele>642.7</ele>
        <time>2022-06-21T09:01:01Z</time>
      </trkpt>
      <trkpt lat="43.41003" lon="2.65165">
        <ele>642.8</ele>
        <time>2022-06-21T09:01:02Z</time>
      </trkpt>
      <trkpt lat="43.41004" lon="2.65166">
        <ele>642.9</ele>
        <time>2022-06-21T09:01:03Z</time>
      </trkpt>
      <trkpt lat="43.41005" lon="2.65167">
        <ele>643</ele>
        <time>2022-06-21T09:01:04Z</time>
      </trkpt>
      <trkpt lat="43.41006" lon="2.65167">
        <ele>643.1</ele>
        <time>2022-06-21T09:01:05Z</time>
      </trkpt>
      <trkpt lat="43.41007" lon="2.65168">
        <ele>643.2</ele>
        <time>2022-06-21T09:01:06Z</time>
      </trkpt>
      <trkpt lat="43.41008" lon="2.65168">
        <ele>643.3</ele>
        <time>2022-06-21T09:01:07Z</time>
      </trkpt>
      <trkpt lat="43.41009" lon="2.65168">
        <ele>643.4</ele>
        <time>2022-06-21T09:01:08Z</time>
      </trkpt>
      <trkpt lat="43.4101" lon="2.65169">
        <ele>643.5</ele>
        <time>2022-06-21T09:01:09Z</time>
      </trkpt>
      <trkpt lat="43.41012" lon="2.65169">
        <ele>643.8</ele>
        <time>2022-06-21T09:01:10Z</time>
      </trkpt>
      <trkpt lat="43.41013" lon="2.65169">
        <ele>643.9</ele>
        <time>2022-06-21T09:01:11Z</time>
      </trkpt>
      <trkpt lat="43.41014" lon="2.65169">
        <ele>644</ele>
        <time>2022-06-21T09:01:12Z</time>
      </trkpt>
      <trkpt lat="43.41015" lon="2.65169">
        <ele>644.1</ele>
        <time>2022-06-21T09:01:13Z</time>
      </trkpt>
      <trkpt lat="43.41016" lon="2.65169">
        <ele>644.2</ele>
        <time>2022-06-21T09:01:14Z</time>
      </trkpt>
      <trkpt lat="43.41016" lon="2.65169">
        <ele>644.3</ele>
        <time>2022-06-21T09:01:15Z</time>
      </trkpt>
      <trkpt lat="43.41017" lon="2.6517">
        <ele>644.5</ele>
        <time>2022-06-21T09:01:16Z</time>
      </trkpt>
      <trkpt lat="43.41019" lon="2.6517">
        <ele>644.7</ele>
        <time>2022-06-21T09:01:17Z</time>
      </trkpt>
      <trkpt lat="43.41019" lon="2.6517">
        <ele>644.8</ele>
        <time>2022-06-21T09:01:18Z</time>
      </trkpt>
      <trkpt lat="43.4102" lon="2.6517">
        <ele>644.9</ele>
        <time>2022-06-21T09:01:19Z</time>
      </trkpt>
      <trkpt lat="43.41021" lon="2.6517">
        <ele>645</ele>
        <time>2022-06-21T09:01:20Z</time>
      </trkpt>
      <trkpt lat="43.41021" lon="2.6517">
        <ele>645.1</ele>
        <time>2022-06-21T09:01:21Z</time>
      </trkpt>
      <trkpt lat="43.41022" lon="2.6517">
        <ele>645.3</ele>
        <time>2022-06-21T09:01:22Z</time>
      </trkpt>
      <trkpt lat="43.41023" lon="2.6517">
        <ele>645.5</ele>
        <time>2022-06-21T09:01:23Z</time>
      </trkpt>
      <trkpt lat="43.41024" lon="2.6517">
        <ele>645.6</ele>
        <time>2022-06-21T09:01:24Z</time>
      </trkpt>
      <trkpt lat="43.41025" lon="2.65171">
        <ele>645.7</ele>
        <time>2022-06-21T09:01:25Z</time>
      </trkpt>
      <trkpt lat="43.41025" lon="2.65171">
        <ele>645.9</ele>
        <time>2022-06-21T09:01:26Z</time>
      </trkpt>
      <trkpt lat="43.41026" lon="2.65171">
        <ele>646</ele>
        <time>2022-06-21T09:01:27Z</time>
      </trkpt>
      <trkpt lat="43.41027" lon="2.65171">
        <ele>646.2</ele>
        <time>2022-06-21T09:01:28Z</time>
      </trkpt>
      <trkpt lat="43.41028" lon="2.65171">
        <ele>646.3</ele>
        <time>2022-06-21T09:01:29Z</time>
      </trkpt>
      <trkpt lat="43.41028" lon="2.65172">
        <ele>646.5</ele>
        <time>2022-06-21T09:01:30Z</time>
      </trkpt>
      <trkpt lat="43.41029" lon="2.65172">
        <ele>646.6</ele>
        <time>2022-06-21T09:01:31Z</time>
      </trkpt>
      <trkpt lat="43.4103" lon="2.65173">
        <ele>646.8</ele>
        <time>2022-06-21T09:01:32Z</time>
      </trkpt>
      <trkpt lat="43.4103" lon="2.65173">
        <ele>647</ele>
        <time>2022-06-21T09:01:33Z</time>
      </trkpt>
      <trkpt lat="43.41031" lon="2.65173">
        <ele>647.1</ele>
        <time>2022-06-21T09:01:34Z</time>
      </trkpt>
      <trkpt lat="43.41032" lon="2.65174">
        <ele>647.4</ele>
        <time>2022-06-21T09:01:35Z</time>
      </trkpt>
      <trkpt lat="43.41033" lon="2.65174">
        <ele>647.5</ele>
        <time>2022-06-21T09:01:36Z</time>
      </trkpt>
      <trkpt lat="43.41033" lon="2.65174">
        <ele>647.7</ele>
        <time>2022-06-21T09:01:37Z</time>
      </trkpt>
      <trkpt lat="43.41034" lon="2.65175">
        <ele>647.9</ele>
        <time>2022-06-21T09:01:38Z</time>
      </trkpt>
      <trkpt lat="43.41035" lon="2.65175">
        <ele>648</ele>
        <time>2022-06-21T09:01:39Z</time>
      </trkpt>
      <trkpt lat="43.41036" lon="2.65176">
        <ele>648.2</ele>
        <time>2022-06-21T09:01:40Z</time>
      </trkpt>
      <trkpt lat="43.41037" lon="2.65176">
        <ele>648.4</ele>
        <time>2022-06-21T09:01:41Z</time>
      </trkpt>
      <trkpt lat="43.41037" lon="2.65176">
        <ele>648.6</ele>
        <time>2022-06-21T09:01:42Z</time>
      </trkpt>
      <trkpt lat="43.41038" lon="2.65177">
        <ele>648.7</ele>
        <time>2022-06-21T09:01:43Z</time>
      </trkpt>
      <trkpt lat="43.41038" lon="2.65177">
        <ele>648.9</ele>
        <time>2022-06-21T09:01:44Z</time>
      </trkpt>
      <trkpt lat="43.41039" lon="2.65177">
        <ele>649</ele>
        <time>2022-06-21T09:01:45Z</time>
      </trkpt>
      <trkpt lat="43.4104" lon="2.65177">
        <ele>649.2</ele>
        <time>2022-06-21T09:01:46Z</time>
      </trkpt>
      <trkpt lat="43.4104" lon="2.65178">
        <ele>649.3</ele>
        <time>2022-06-21T09:01:47Z</time>
      </trkpt>
      <trkpt lat="43.41041" lon="2.65178">
        <ele>649.5</ele>
        <time>2022-06-21T09:01:48Z</time>
      </trkpt>
      <trkpt lat="43.41042" lon="2.65178">
        <ele>649.6</ele>
        <time>2022-06-21T09:01:49Z</time>
      </trkpt>
      <trkpt lat="43.41042" lon="2.65178">
        <ele>649.8</ele>
        <time>2022-06-21T09:01:50Z</time>
      </trkpt>
      <trkpt lat="43.41043" lon="2.65178">
        <ele>650</ele>
        <time>2022-06-21T09:01:51Z</time>
      </trkpt>
      <trkpt lat="43.41044" lon="2.65179">
        <ele>650.2</ele>
        <time>2022-06-21T09:01:52Z</time>
      </trkpt>
      <trkpt lat="43.41045" lon="2.65179">
        <ele>650.4</ele>
        <time>2022-06-21T09:01:53Z</time>
      </trkpt>
      <trkpt lat="43.41046" lon="2.65179">
        <ele>650.6</ele>
        <time>2022-06-21T09:01:54Z</time>
      </trkpt>
      <trkpt lat="43.41047" lon="2.6518">
        <ele>650.8</ele>
        <time>2022-06-21T09:01:55Z</time>
      </trkpt>
      <trkpt lat="43.41048" lon="2.6518">
        <ele>650.9</ele>
        <time>2022-06-21T09:01:56Z</time>
      </trkpt>
      <trkpt lat="43.41048" lon="2.6518">
        <ele>651.1</ele>
        <time>2022-06-21T09:01:57Z</time>
      </trkpt>
      <trkpt lat="43.41049" lon="2.65181">
        <ele>651.3</ele>
        <time>2022-06-21T09:01:58Z</time>
      </trkpt>
      <trkpt lat="43.4105" lon="2.65181">
        <ele>651.6</ele>
        <time>2022-06-21T09:01:59Z</time>
      </trkpt>
      <trkpt lat="43.41051" lon="2.65182">
        <ele>651.7</ele>
        <time>2022-06-21T09:02:00Z</time>
      </trkpt>
      <trkpt lat="43.41052" lon="2.65182">
        <ele>651.8</ele>
        <time>2022-06-21T09:02:01Z</time>
      </trkpt>
      <trkpt lat="43.41053" lon="2.65183">
        <ele>652</ele>
        <time>2022-06-21T09:02:02Z</time>
      </trkpt>
      <trkpt lat="43.41053" lon="2.65183">
        <ele>652.1</ele>
        <time>2022-06-21T09:02:03Z</time>
      </trkpt>
      <trkpt lat="43.41054" lon="2.65183">
        <ele>652.3</ele>
        <time>2022-06-21T09:02:04Z</time>
      </trkpt>
      <trkpt lat="43.41054" lon="2.65183">
        <ele>652.3</ele>
        <time>2022-06-21T09:02:05Z</time>
      </trkpt>
      <trkpt lat="43.41055" lon="2.65184">
        <ele>652.4</ele>
        <time>2022-06-21T09:02:06Z</time>
      </trkpt>
      <trkpt lat="43.41055" lon="2.65184">
        <ele>652.5</ele>
        <time>2022-06-21T09:02:07Z</time>
      </trkpt>
      <trkpt lat="43.41056" lon="2.65184">
        <ele>652.6</ele>
        <time>2022-06-21T09:02:08Z</time>
      </trkpt>
      <trkpt lat="43.41056" lon="2.65184">
        <ele>652.7</ele>
        <time>2022-06-21T09:02:09Z</time>
      </trkpt>
      <trkpt lat="43.41057" lon="2.65185">
        <ele>652.8</ele>
        <time>2022-06-21T09:02:10Z</time>
      </trkpt>
      <trkpt lat="43.41057" lon="2.65185">
        <ele>652.9</ele>
        <time>2022-06-21T09:02:11Z</time>
      </trkpt>
      <trkpt lat="43.41058" lon="2.65185">
        <ele>653.1</ele>
        <time>2022-06-21T09:02:12Z</time>
      </trkpt>
      <trkpt lat="43.41059" lon="2.65186">
        <ele>653.2</ele>
        <time>2022-06-21T09:02:13Z</time>
      </trkpt>
      <trkpt lat="43.4106" lon="2.65186">
        <ele>653.4</ele>
        <time>2022-06-21T09:02:15Z</time>
      </trkpt>
      <trkpt lat="43.41062" lon="2.65188">
        <ele>653.8</ele>
        <time>2022-06-21T09:02:17Z</time>
      </trkpt>
      <trkpt lat="43.41063" lon="2.65188">
        <ele>654</ele>
        <time>2022-06-21T09:02:18Z</time>
      </trkpt>
      <trkpt lat="43.41063" lon="2.65189">
        <ele>654.1</ele>
        <time>2022-06-21T09:02:19Z</time>
      </trkpt>
      <trkpt lat="43.41064" lon="2.6519">
        <ele>654.3</ele>
        <time>2022-06-21T09:02:20Z</time>
      </trkpt>
      <trkpt lat="43.41065" lon="2.6519">
        <ele>654.4</ele>
        <time>2022-06-21T09:02:21Z</time>
      </trkpt>
      <trkpt lat="43.41065" lon="2.65191">
        <ele>654.5</ele>
        <time>2022-06-21T09:02:22Z</time>
      </trkpt>
      <trkpt lat="43.41066" lon="2.65192">
        <ele>654.6</ele>
        <time>2022-06-21T09:02:23Z</time>
      </trkpt>
      <trkpt lat="43.41066" lon="2.65192">
        <ele>654.7</ele>
        <time>2022-06-21T09:02:24Z</time>
      </trkpt>
      <trkpt lat="43.41067" lon="2.65193">
        <ele>654.8</ele>
        <time>2022-06-21T09:02:25Z</time>
      </trkpt>
      <trkpt lat="43.41067" lon="2.65194">
        <ele>654.9</ele>
        <time>2022-06-21T09:02:26Z</time>
      </trkpt>
      <trkpt lat="43.41067" lon="2.65194">
        <ele>655</ele>
        <time>2022-06-21T09:02:27Z</time>
      </trkpt>
      <trkpt lat="43.41067" lon="2.65194">
        <ele>655</ele>
        <time>2022-06-21T09:02:28Z</time>
      </trkpt>
      <trkpt lat="43.41068" lon="2.65194">
        <ele>655</ele>
        <time>2022-06-21T09:02:29Z</time>
      </trkpt>
      <trkpt lat="43.41068" lon="2.65195">
        <ele>655.1</ele>
        <time>2022-06-21T09:02:30Z</time>
      </trkpt>
      <trkpt lat="43.41068" lon="2.65195">
        <ele>655.1</ele>
        <time>2022-06-21T09:02:31Z</time>
      </trkpt>
      <trkpt lat="43.41068" lon="2.65195">
        <ele>655.2</ele>
        <time>2022-06-21T09:02:32Z</time>
      </trkpt>
      <trkpt lat="43.41068" lon="2.65195">
        <ele>655.2</ele>
        <time>2022-06-21T09:02:33Z</time>
      </trkpt>
      <trkpt lat="43.41069" lon="2.65195">
        <ele>655.2</ele>
        <time>2022-06-21T09:02:34Z</time>
      </trkpt>
      <trkpt lat="43.41069" lon="2.65196">
        <ele>655.2</ele>
        <time>2022-06-21T09:02:35Z</time>
      </trkpt>
      <trkpt lat="43.41069" lon="2.65196">
        <ele>655.3</ele>
        <time>2022-06-21T09:02:36Z</time>
      </trkpt>
      <trkpt lat="43.41069" lon="2.65196">
        <ele>655.3</ele>
        <time>2022-06-21T09:02:37Z</time>
      </trkpt>
      <trkpt lat="43.41069" lon="2.65196">
        <ele>655.3</ele>
        <time>2022-06-21T09:02:38Z</time>
      </trkpt>
      <trkpt lat="43.41069" lon="2.65196">
        <ele>655.4</ele>
        <time>2022-06-21T09:02:39Z</time>
      </trkpt>
      <trkpt lat="43.4107" lon="2.65197">
        <ele>655.4</ele>
        <time>2022-06-21T09:02:40Z</time>
      </trkpt>
      <trkpt lat="43.4107" lon="2.65197">
        <ele>655.5</ele>
        <time>2022-06-21T09:02:41Z</time>
      </trkpt>
      <trkpt lat="43.4107" lon="2.65198">
        <ele>655.6</ele>
        <time>2022-06-21T09:02:42Z</time>
      </trkpt>
      <trkpt lat="43.41071" lon="2.65199">
        <ele>655.7</ele>
        <time>2022-06-21T09:02:43Z</time>
      </trkpt>
      <trkpt lat="43.41071" lon="2.652">
        <ele>655.8</ele>
        <time>2022-06-21T09:02:44Z</time>
      </trkpt>
      <trkpt lat="43.41072" lon="2.65201">
        <ele>655.9</ele>
        <time>2022-06-21T09:02:45Z</time>
      </trkpt>
      <trkpt lat="43.41073" lon="2.65202">
        <ele>656</ele>
        <time>2022-06-21T09:02:46Z</time>
      </trkpt>
      <trkpt lat="43.41073" lon="2.65203">
        <ele>656.1</ele>
        <time>2022-06-21T09:02:47Z</time>
      </trkpt>
      <trkpt lat="43.41073" lon="2.65204">
        <ele>656.2</ele>
        <time>2022-06-21T09:02:48Z</time>
      </trkpt>
      <trkpt lat="43.41073" lon="2.65206">
        <ele>656.2</ele>
        <time>2022-06-21T09:02:49Z</time>
      </trkpt>
      <trkpt lat="43.41073" lon="2.65207">
        <ele>656.3</ele>
        <time>2022-06-21T09:02:50Z</time>
      </trkpt>
      <trkpt lat="43.41073" lon="2.65208">
        <ele>656.4</ele>
        <time>2022-06-21T09:02:51Z</time>
      </trkpt>
      <trkpt lat="43.41074" lon="2.6521">
        <ele>656.5</ele>
        <time>2022-06-21T09:02:52Z</time>
      </trkpt>
      <trkpt lat="43.41074" lon="2.65211">
        <ele>656.6</ele>
        <time>2022-06-21T09:02:53Z</time>
      </trkpt>
      <trkpt lat="43.41074" lon="2.65212">
        <ele>656.6</ele>
        <time>2022-06-21T09:02:54Z</time>
      </trkpt>
      <trkpt lat="43.41074" lon="2.65214">
        <ele>656.7</ele>
        <time>2022-06-21T09:02:55Z</time>
      </trkpt>
      <trkpt lat="43.41074" lon="2.65215">
        <ele>656.7</ele>
        <time>2022-06-21T09:02:56Z</time>
      </trkpt>
      <trkpt lat="43.41075" lon="2.65217">
        <ele>656.8</ele>
        <time>2022-06-21T09:02:57Z</time>
      </trkpt>
      <trkpt lat="43.41075" lon="2.65219">
        <ele>656.8</ele>
        <time>2022-06-21T09:02:58Z</time>
      </trkpt>
      <trkpt lat="43.41075" lon="2.6522">
        <ele>656.9</ele>
        <time>2022-06-21T09:02:59Z</time>
      </trkpt>
      <trkpt lat="43.41075" lon="2.65221">
        <ele>656.9</ele>
        <time>2022-06-21T09:03:00Z</time>
      </trkpt>
      <trkpt lat="43.41075" lon="2.65223">
        <ele>656.9</ele>
        <time>2022-06-21T09:03:01Z</time>
      </trkpt>
      <trkpt lat="43.41076" lon="2.65224">
        <ele>656.9</ele>
        <time>2022-06-21T09:03:02Z</time>
      </trkpt>
      <trkpt lat="43.41076" lon="2.65225">
        <ele>656.9</ele>
        <time>2022-06-21T09:03:03Z</time>
      </trkpt>
      <trkpt lat="43.41076" lon="2.65227">
        <ele>657</ele>
        <time>2022-06-21T09:03:04Z</time>
      </trkpt>
      <trkpt lat="43.41076" lon="2.65228">
        <ele>657</ele>
        <time>2022-06-21T09:03:05Z</time>
      </trkpt>
      <trkpt lat="43.41077" lon="2.65229">
        <ele>657</ele>
        <time>2022-06-21T09:03:06Z</time>
      </trkpt>
      <trkpt lat="43.41077" lon="2.6523">
        <ele>657</ele>
        <time>2022-06-21T09:03:07Z</time>
      </trkpt>
      <trkpt lat="43.41077" lon="2.65231">
        <ele>657</ele>
        <time>2022-06-21T09:03:08Z</time>
      </trkpt>
      <trkpt lat="43.41078" lon="2.65233">
        <ele>657</ele>
        <time>2022-06-21T09:03:09Z</time>
      </trkpt>
      <trkpt lat="43.41078" lon="2.65234">
        <ele>657</ele>
        <time>2022-06-21T09:03:10Z</time>
      </trkpt>
      <trkpt lat="43.41079" lon="2.65235">
        <ele>657</ele>
        <time>2022-06-21T09:03:11Z</time>
      </trkpt>
      <trkpt lat="43.41079" lon="2.65237">
        <ele>657.1</ele>
        <time>2022-06-21T09:03:12Z</time>
      </trkpt>
      <trkpt lat="43.41079" lon="2.65238">
        <ele>657.1</ele>
        <time>2022-06-21T09:03:13Z</time>
      </trkpt>
      <trkpt lat="43.41079" lon="2.6524">
        <ele>657.1</ele>
        <time>2022-06-21T09:03:14Z</time>
      </trkpt>
      <trkpt lat="43.4108" lon="2.65241">
        <ele>657.1</ele>
        <time>2022-06-21T09:03:15Z</time>
      </trkpt>
      <trkpt lat="43.4108" lon="2.65243">
        <ele>657.1</ele>
        <time>2022-06-21T09:03:16Z</time>
      </trkpt>
      <trkpt lat="43.41081" lon="2.65244">
        <ele>657.1</ele>
        <time>2022-06-21T09:03:17Z</time>
      </trkpt>
      <trkpt lat="43.41081" lon="2.65245">
        <ele>657.2</ele>
        <time>2022-06-21T09:03:18Z</time>
      </trkpt>
      <trkpt lat="43.41081" lon="2.65246">
        <ele>657.2</ele>
        <time>2022-06-21T09:03:19Z</time>
      </trkpt>
      <trkpt lat="43.41081" lon="2.65248">
        <ele>657.2</ele>
        <time>2022-06-21T09:03:20Z</time>
      </trkpt>
      <trkpt lat="43.41082" lon="2.65249">
        <ele>657.2</ele>
        <time>2022-06-21T09:03:21Z</time>
      </trkpt>
      <trkpt lat="43.41082" lon="2.65251">
        <ele>657.3</ele>
        <time>2022-06-21T09:03:22Z</time>
      </trkpt>
      <trkpt lat="43.41083" lon="2.65252">
        <ele>657.3</ele>
        <time>2022-06-21T09:03:23Z</time>
      </trkpt>
      <trkpt lat="43.41083" lon="2.65253">
        <ele>657.3</ele>
        <time>2022-06-21T09:03:24Z</time>
      </trkpt>
      <trkpt lat="43.41083" lon="2.65254">
        <ele>657.4</ele>
        <time>2022-06-21T09:03:25Z</time>
      </trkpt>
      <trkpt lat="43.41083" lon="2.65255">
        <ele>657.4</ele>
        <time>2022-06-21T09:03:26Z</time>
      </trkpt>
      <trkpt lat="43.41084" lon="2.65257">
        <ele>657.5</ele>
        <time>2022-06-21T09:03:27Z</time>
      </trkpt>
      <trkpt lat="43.41084" lon="2.65258">
        <ele>657.5</ele>
        <time>2022-06-21T09:03:28Z</time>
      </trkpt>
      <trkpt lat="43.41085" lon="2.65259">
        <ele>657.5</ele>
        <time>2022-06-21T09:03:29Z</time>
      </trkpt>
      <trkpt lat="43.41085" lon="2.6526">
        <ele>657.5</ele>
        <time>2022-06-21T09:03:30Z</time>
      </trkpt>
      <trkpt lat="43.41085" lon="2.65261">
        <ele>657.6</ele>
        <time>2022-06-21T09:03:31Z</time>
      </trkpt>
      <trkpt lat="43.41085" lon="2.65262">
        <ele>657.6</ele>
        <time>2022-06-21T09:03:32Z</time>
      </trkpt>
      <trkpt lat="43.41086" lon="2.65263">
        <ele>657.6</ele>
        <time>2022-06-21T09:03:33Z</time>
      </trkpt>
      <trkpt lat="43.41086" lon="2.65263">
        <ele>657.7</ele>
        <time>2022-06-21T09:03:34Z</time>
      </trkpt>
      <trkpt lat="43.41086" lon="2.65264">
        <ele>657.7</ele>
        <time>2022-06-21T09:03:35Z</time>
      </trkpt>
      <trkpt lat="43.41086" lon="2.65264">
        <ele>657.7</ele>
        <time>2022-06-21T09:03:36Z</time>
      </trkpt>
      <trkpt lat="43.41086" lon="2.65264">
        <ele>657.7</ele>
        <time>2022-06-21T09:03:37Z</time>
      </trkpt>
      <trkpt lat="43.41086" lon="2.65264">
        <ele>657.7</ele>
        <time>2022-06-21T09:03:38Z</time>
      </trkpt>
      <trkpt lat="43.41086" lon="2.65264">
        <ele>657.7</ele>
        <time>2022-06-21T09:03:39Z</time>
      </trkpt>
      <trkpt lat="43.41086" lon="2.65264">
        <ele>657.7</ele>
        <time>2022-06-21T09:03:40Z</time>
      </trkpt>
      <trkpt lat="43.41086" lon="2.65264">
        <ele>657.7</ele>
        <time>2022-06-21T09:03:41Z</time>
      </trkpt>
      <trkpt lat="43.41086" lon="2.65264">
        <ele>657.7</ele>
        <time>2022-06-21T09:03:42Z</time>
      </trkpt>
      <trkpt lat="43.41086" lon="2.65264">
        <ele>657.7</ele>
        <time>2022-06-21T09:03:43Z</time>
      </trkpt>
      <trkpt lat="43.41086" lon="2.65264">
        <ele>657.7</ele>
        <time>2022-06-21T09:03:44Z</time>
      </trkpt>
      <trkpt lat="43.41086" lon="2.65264">
        <ele>657.7</ele>
        <time>2022-06-21T09:03:45Z</time>
      </trkpt>
      <trkpt lat="43.41086" lon="2.65263">
        <ele>657.7</ele>
        <time>2022-06-21T09:03:46Z</time>
      </trkpt>
      <trkpt lat="43.41086" lon="2.65264">
        <ele>657.7</ele>
        <time>2022-06-21T09:03:47Z</time>
      </trkpt>
      <trkpt lat="43.41087" lon="2.65264">
        <ele>657.7</ele>
        <time>2022-06-21T09:03:48Z</time>
      </trkpt>
      <trkpt lat="43.41087" lon="2.65265">
        <ele>657.8</ele>
        <time>2022-06-21T09:03:49Z</time>
      </trkpt>
      <trkpt lat="43.41087" lon="2.65267">
        <ele>657.8</ele>
        <time>2022-06-21T09:03:50Z</time>
      </trkpt>
      <trkpt lat="43.41088" lon="2.65268">
        <ele>657.9</ele>
        <time>2022-06-21T09:03:51Z</time>
      </trkpt>
      <trkpt lat="43.41089" lon="2.65269">
        <ele>657.9</ele>
        <time>2022-06-21T09:03:52Z</time>
      </trkpt>
      <trkpt lat="43.41089" lon="2.65271">
        <ele>657.9</ele>
        <time>2022-06-21T09:03:53Z</time>
      </trkpt>
      <trkpt lat="43.4109" lon="2.65272">
        <ele>658</ele>
        <time>2022-06-21T09:03:54Z</time>
      </trkpt>
      <trkpt lat="43.41091" lon="2.65275">
        <ele>658.1</ele>
        <time>2022-06-21T09:03:55Z</time>
      </trkpt>
      <trkpt lat="43.41091" lon="2.65276">
        <ele>658.1</ele>
        <time>2022-06-21T09:03:56Z</time>
      </trkpt>
      <trkpt lat="43.41091" lon="2.65277">
        <ele>658.1</ele>
        <time>2022-06-21T09:03:57Z</time>
      </trkpt>
      <trkpt lat="43.41092" lon="2.65278">
        <ele>658.2</ele>
        <time>2022-06-21T09:03:58Z</time>
      </trkpt>
      <trkpt lat="43.41092" lon="2.65279">
        <ele>658.2</ele>
        <time>2022-06-21T09:03:59Z</time>
      </trkpt>
      <trkpt lat="43.41093" lon="2.65281">
        <ele>658.3</ele>
        <time>2022-06-21T09:04:00Z</time>
      </trkpt>
      <trkpt lat="43.41093" lon="2.65283">
        <ele>658.3</ele>
        <time>2022-06-21T09:04:01Z</time>
      </trkpt>
      <trkpt lat="43.41094" lon="2.65284">
        <ele>658.4</ele>
        <time>2022-06-21T09:04:02Z</time>
      </trkpt>
      <trkpt lat="43.41094" lon="2.65285">
        <ele>658.4</ele>
        <time>2022-06-21T09:04:03Z</time>
      </trkpt>
      <trkpt lat="43.41094" lon="2.65286">
        <ele>658.4</ele>
        <time>2022-06-21T09:04:04Z</time>
      </trkpt>
      <trkpt lat="43.41095" lon="2.65287">
        <ele>658.4</ele>
        <time>2022-06-21T09:04:05Z</time>
      </trkpt>
      <trkpt lat="43.41095" lon="2.65288">
        <ele>658.5</ele>
        <time>2022-06-21T09:04:06Z</time>
      </trkpt>
      <trkpt lat="43.41095" lon="2.6529">
        <ele>658.5</ele>
        <time>2022-06-21T09:04:07Z</time>
      </trkpt>
      <trkpt lat="43.41096" lon="2.65291">
        <ele>658.5</ele>
        <time>2022-06-21T09:04:08Z</time>
      </trkpt>
      <trkpt lat="43.41096" lon="2.65293">
        <ele>658.5</ele>
        <time>2022-06-21T09:04:09Z</time>
      </trkpt>
      <trkpt lat="43.41096" lon="2.65294">
        <ele>658.6</ele>
        <time>2022-06-21T09:04:10Z</time>
      </trkpt>
      <trkpt lat="43.41097" lon="2.65296">
        <ele>658.6</ele>
        <time>2022-06-21T09:04:11Z</time>
      </trkpt>
      <trkpt lat="43.41097" lon="2.65297">
        <ele>658.6</ele>
        <time>2022-06-21T09:04:12Z</time>
      </trkpt>
      <trkpt lat="43.41098" lon="2.65298">
        <ele>658.7</ele>
        <time>2022-06-21T09:04:13Z</time>
      </trkpt>
      <trkpt lat="43.41098" lon="2.65299">
        <ele>658.7</ele>
        <time>2022-06-21T09:04:14Z</time>
      </trkpt>
      <trkpt lat="43.41098" lon="2.653">
        <ele>658.7</ele>
        <time>2022-06-21T09:04:15Z</time>
      </trkpt>
      <trkpt lat="43.41098" lon="2.65301">
        <ele>658.7</ele>
        <time>2022-06-21T09:04:16Z</time>
      </trkpt>
      <trkpt lat="43.41098" lon="2.65301">
        <ele>658.7</ele>
        <time>2022-06-21T09:04:17Z</time>
      </trkpt>
      <trkpt lat="43.41098" lon="2.65303">
        <ele>658.8</ele>
        <time>2022-06-21T09:04:18Z</time>
      </trkpt>
      <trkpt lat="43.41099" lon="2.65304">
        <ele>658.8</ele>
        <time>2022-06-21T09:04:19Z</time>
      </trkpt>
      <trkpt lat="43.41099" lon="2.65305">
        <ele>658.8</ele>
        <time>2022-06-21T09:04:20Z</time>
      </trkpt>
      <trkpt lat="43.41099" lon="2.65306">
        <ele>658.9</ele>
        <time>2022-06-21T09:04:21Z</time>
      </trkpt>
      <trkpt lat="43.41099" lon="2.65307">
        <ele>658.9</ele>
        <time>2022-06-21T09:04:22Z</time>
      </trkpt>
      <trkpt lat="43.411" lon="2.65308">
        <ele>658.9</ele>
        <time>2022-06-21T09:04:23Z</time>
      </trkpt>
      <trkpt lat="43.411" lon="2.6531">
        <ele>659</ele>
        <time>2022-06-21T09:04:24Z</time>
      </trkpt>
      <trkpt lat="43.411" lon="2.65311">
        <ele>659</ele>
        <time>2022-06-21T09:04:25Z</time>
      </trkpt>
      <trkpt lat="43.41101" lon="2.65313">
        <ele>659.1</ele>
        <time>2022-06-21T09:04:26Z</time>
      </trkpt>
      <trkpt lat="43.41101" lon="2.65314">
        <ele>659.1</ele>
        <time>2022-06-21T09:04:27Z</time>
      </trkpt>
      <trkpt lat="43.41102" lon="2.65315">
        <ele>659.1</ele>
        <time>2022-06-21T09:04:28Z</time>
      </trkpt>
      <trkpt lat="43.41102" lon="2.65316">
        <ele>659.1</ele>
        <time>2022-06-21T09:04:29Z</time>
      </trkpt>
      <trkpt lat="43.41102" lon="2.65317">
        <ele>659.2</ele>
        <time>2022-06-21T09:04:30Z</time>
      </trkpt>
      <trkpt lat="43.41103" lon="2.65318">
        <ele>659.2</ele>
        <time>2022-06-21T09:04:31Z</time>
      </trkpt>
      <trkpt lat="43.41104" lon="2.6532">
        <ele>659.2</ele>
        <time>2022-06-21T09:04:32Z</time>
      </trkpt>
      <trkpt lat="43.41104" lon="2.6532">
        <ele>659.3</ele>
        <time>2022-06-21T09:04:33Z</time>
      </trkpt>
      <trkpt lat="43.41105" lon="2.65321">
        <ele>659.3</ele>
        <time>2022-06-21T09:04:34Z</time>
      </trkpt>
      <trkpt lat="43.41105" lon="2.65323">
        <ele>659.4</ele>
        <time>2022-06-21T09:04:35Z</time>
      </trkpt>
      <trkpt lat="43.41105" lon="2.65325">
        <ele>659.4</ele>
        <time>2022-06-21T09:04:36Z</time>
      </trkpt>
      <trkpt lat="43.41106" lon="2.65326">
        <ele>659.4</ele>
        <time>2022-06-21T09:04:37Z</time>
      </trkpt>
      <trkpt lat="43.41106" lon="2.65327">
        <ele>659.4</ele>
        <time>2022-06-21T09:04:38Z</time>
      </trkpt>
      <trkpt lat="43.41106" lon="2.65328">
        <ele>659.5</ele>
        <time>2022-06-21T09:04:39Z</time>
      </trkpt>
      <trkpt lat="43.41106" lon="2.65329">
        <ele>659.5</ele>
        <time>2022-06-21T09:04:40Z</time>
      </trkpt>
      <trkpt lat="43.41107" lon="2.6533">
        <ele>659.5</ele>
        <time>2022-06-21T09:04:41Z</time>
      </trkpt>
      <trkpt lat="43.41107" lon="2.65331">
        <ele>659.5</ele>
        <time>2022-06-21T09:04:42Z</time>
      </trkpt>
      <trkpt lat="43.41107" lon="2.65332">
        <ele>659.5</ele>
        <time>2022-06-21T09:04:43Z</time>
      </trkpt>
      <trkpt lat="43.41107" lon="2.65334">
        <ele>659.5</ele>
        <time>2022-06-21T09:04:44Z</time>
      </trkpt>
      <trkpt lat="43.41108" lon="2.65335">
        <ele>659.6</ele>
        <time>2022-06-21T09:04:45Z</time>
      </trkpt>
      <trkpt lat="43.41108" lon="2.65336">
        <ele>659.6</ele>
        <time>2022-06-21T09:04:46Z</time>
      </trkpt>
      <trkpt lat="43.41109" lon="2.65337">
        <ele>659.6</ele>
        <time>2022-06-21T09:04:47Z</time>
      </trkpt>
      <trkpt lat="43.41109" lon="2.65338">
        <ele>659.6</ele>
        <time>2022-06-21T09:04:48Z</time>
      </trkpt>
      <trkpt lat="43.4111" lon="2.65339">
        <ele>659.6</ele>
        <time>2022-06-21T09:04:49Z</time>
      </trkpt>
      <trkpt lat="43.4111" lon="2.65341">
        <ele>659.6</ele>
        <time>2022-06-21T09:04:50Z</time>
      </trkpt>
      <trkpt lat="43.41111" lon="2.65342">
        <ele>659.6</ele>
        <time>2022-06-21T09:04:51Z</time>
      </trkpt>
      <trkpt lat="43.41111" lon="2.65343">
        <ele>659.5</ele>
        <time>2022-06-21T09:04:52Z</time>
      </trkpt>
      <trkpt lat="43.41111" lon="2.65344">
        <ele>659.5</ele>
        <time>2022-06-21T09:04:53Z</time>
      </trkpt>
      <trkpt lat="43.41112" lon="2.65346">
        <ele>659.5</ele>
        <time>2022-06-21T09:04:54Z</time>
      </trkpt>
      <trkpt lat="43.41112" lon="2.65347">
        <ele>659.5</ele>
        <time>2022-06-21T09:04:55Z</time>
      </trkpt>
      <trkpt lat="43.41113" lon="2.65348">
        <ele>659.5</ele>
        <time>2022-06-21T09:04:56Z</time>
      </trkpt>
      <trkpt lat="43.41113" lon="2.65349">
        <ele>659.5</ele>
        <time>2022-06-21T09:04:57Z</time>
      </trkpt>
      <trkpt lat="43.41114" lon="2.6535">
        <ele>659.5</ele>
        <time>2022-06-21T09:04:58Z</time>
      </trkpt>
      <trkpt lat="43.41114" lon="2.65352">
        <ele>659.4</ele>
        <time>2022-06-21T09:04:59Z</time>
      </trkpt>
      <trkpt lat="43.41115" lon="2.65353">
        <ele>659.4</ele>
        <time>2022-06-21T09:05:00Z</time>
      </trkpt>
      <trkpt lat="43.41115" lon="2.65354">
        <ele>659.4</ele>
        <time>2022-06-21T09:05:01Z</time>
      </trkpt>
      <trkpt lat="43.41115" lon="2.65356">
        <ele>659.4</ele>
        <time>2022-06-21T09:05:02Z</time>
      </trkpt>
      <trkpt lat="43.41115" lon="2.65357">
        <ele>659.4</ele>
        <time>2022-06-21T09:05:03Z</time>
      </trkpt>
      <trkpt lat="43.41116" lon="2.65359">
        <ele>659.3</ele>
        <time>2022-06-21T09:05:04Z</time>
      </trkpt>
      <trkpt lat="43.41116" lon="2.6536">
        <ele>659.3</ele>
        <time>2022-06-21T09:05:05Z</time>
      </trkpt>
      <trkpt lat="43.41116" lon="2.65362">
        <ele>659.3</ele>
        <time>2022-06-21T09:05:06Z</time>
      </trkpt>
      <trkpt lat="43.41116" lon="2.65363">
        <ele>659.3</ele>
        <time>2022-06-21T09:05:07Z</time>
      </trkpt>
      <trkpt lat="43.41117" lon="2.65365">
        <ele>659.3</ele>
        <time>2022-06-21T09:05:08Z</time>
      </trkpt>
      <trkpt lat="43.41117" lon="2.65366">
        <ele>659.2</ele>
        <time>2022-06-21T09:05:09Z</time>
      </trkpt>
      <trkpt lat="43.41118" lon="2.65367">
        <ele>659.2</ele>
        <time>2022-06-21T09:05:10Z</time>
      </trkpt>
      <trkpt lat="43.41119" lon="2.65368">
        <ele>659.2</ele>
        <time>2022-06-21T09:05:11Z</time>
      </trkpt>
      <trkpt lat="43.41119" lon="2.65369">
        <ele>659.2</ele>
        <time>2022-06-21T09:05:12Z</time>
      </trkpt>
      <trkpt lat="43.4112" lon="2.6537">
        <ele>659.1</ele>
        <time>2022-06-21T09:05:13Z</time>
      </trkpt>
      <trkpt lat="43.4112" lon="2.65372">
        <ele>659.1</ele>
        <time>2022-06-21T09:05:14Z</time>
      </trkpt>
      <trkpt lat="43.41121" lon="2.65373">
        <ele>659.1</ele>
        <time>2022-06-21T09:05:15Z</time>
      </trkpt>
      <trkpt lat="43.41122" lon="2.65374">
        <ele>659</ele>
        <time>2022-06-21T09:05:16Z</time>
      </trkpt>
      <trkpt lat="43.41122" lon="2.65375">
        <ele>659</ele>
        <time>2022-06-21T09:05:17Z</time>
      </trkpt>
      <trkpt lat="43.41123" lon="2.65376">
        <ele>659</ele>
        <time>2022-06-21T09:05:18Z</time>
      </trkpt>
      <trkpt lat="43.41124" lon="2.65377">
        <ele>658.9</ele>
        <time>2022-06-21T09:05:19Z</time>
      </trkpt>
      <trkpt lat="43.41125" lon="2.65379">
        <ele>658.9</ele>
        <time>2022-06-21T09:05:20Z</time>
      </trkpt>
      <trkpt lat="43.41125" lon="2.65379">
        <ele>658.8</ele>
        <time>2022-06-21T09:05:21Z</time>
      </trkpt>
      <trkpt lat="43.41126" lon="2.6538">
        <ele>658.8</ele>
        <time>2022-06-21T09:05:22Z</time>
      </trkpt>
      <trkpt lat="43.41127" lon="2.65381">
        <ele>658.8</ele>
        <time>2022-06-21T09:05:23Z</time>
      </trkpt>
      <trkpt lat="43.41127" lon="2.65382">
        <ele>658.7</ele>
        <time>2022-06-21T09:05:24Z</time>
      </trkpt>
      <trkpt lat="43.41128" lon="2.65383">
        <ele>658.7</ele>
        <time>2022-06-21T09:05:25Z</time>
      </trkpt>
      <trkpt lat="43.41129" lon="2.65384">
        <ele>658.6</ele>
        <time>2022-06-21T09:05:26Z</time>
      </trkpt>
      <trkpt lat="43.41129" lon="2.65385">
        <ele>658.6</ele>
        <time>2022-06-21T09:05:27Z</time>
      </trkpt>
      <trkpt lat="43.4113" lon="2.65386">
        <ele>658.5</ele>
        <time>2022-06-21T09:05:28Z</time>
      </trkpt>
      <trkpt lat="43.41131" lon="2.65387">
        <ele>658.5</ele>
        <time>2022-06-21T09:05:29Z</time>
      </trkpt>
      <trkpt lat="43.41132" lon="2.65388">
        <ele>658.4</ele>
        <time>2022-06-21T09:05:30Z</time>
      </trkpt>
      <trkpt lat="43.41133" lon="2.65389">
        <ele>658.4</ele>
        <time>2022-06-21T09:05:31Z</time>
      </trkpt>
      <trkpt lat="43.41134" lon="2.65391">
        <ele>658.3</ele>
        <time>2022-06-21T09:05:32Z</time>
      </trkpt>
      <trkpt lat="43.41135" lon="2.65391">
        <ele>658.3</ele>
        <time>2022-06-21T09:05:33Z</time>
      </trkpt>
      <trkpt lat="43.41135" lon="2.65392">
        <ele>658.2</ele>
        <time>2022-06-21T09:05:34Z</time>
      </trkpt>
      <trkpt lat="43.41136" lon="2.65393">
        <ele>658.2</ele>
        <time>2022-06-21T09:05:35Z</time>
      </trkpt>
      <trkpt lat="43.41137" lon="2.65394">
        <ele>658.1</ele>
        <time>2022-06-21T09:05:36Z</time>
      </trkpt>
      <trkpt lat="43.41138" lon="2.65395">
        <ele>658.1</ele>
        <time>2022-06-21T09:05:37Z</time>
      </trkpt>
      <trkpt lat="43.41139" lon="2.65397">
        <ele>658.1</ele>
        <time>2022-06-21T09:05:38Z</time>
      </trkpt>
      <trkpt lat="43.41139" lon="2.65398">
        <ele>658</ele>
        <time>2022-06-21T09:05:39Z</time>
      </trkpt>
      <trkpt lat="43.4114" lon="2.65399">
        <ele>658</ele>
        <time>2022-06-21T09:05:40Z</time>
      </trkpt>
      <trkpt lat="43.4114" lon="2.654">
        <ele>658</ele>
        <time>2022-06-21T09:05:41Z</time>
      </trkpt>
      <trkpt lat="43.41141" lon="2.65401">
        <ele>657.9</ele>
        <time>2022-06-21T09:05:42Z</time>
      </trkpt>
      <trkpt lat="43.41142" lon="2.65402">
        <ele>657.9</ele>
        <time>2022-06-21T09:05:43Z</time>
      </trkpt>
      <trkpt lat="43.41143" lon="2.65403">
        <ele>657.9</ele>
        <time>2022-06-21T09:05:44Z</time>
      </trkpt>
      <trkpt lat="43.41143" lon="2.65404">
        <ele>657.9</ele>
        <time>2022-06-21T09:05:45Z</time>
      </trkpt>
      <trkpt lat="43.41144" lon="2.65405">
        <ele>657.9</ele>
        <time>2022-06-21T09:05:46Z</time>
      </trkpt>
      <trkpt lat="43.41144" lon="2.65406">
        <ele>657.8</ele>
        <time>2022-06-21T09:05:47Z</time>
      </trkpt>
      <trkpt lat="43.41145" lon="2.65407">
        <ele>657.8</ele>
        <time>2022-06-21T09:05:48Z</time>
      </trkpt>
      <trkpt lat="43.41146" lon="2.65408">
        <ele>657.8</ele>
        <time>2022-06-21T09:05:49Z</time>
      </trkpt>
      <trkpt lat="43.41147" lon="2.65409">
        <ele>657.8</ele>
        <time>2022-06-21T09:05:50Z</time>
      </trkpt>
      <trkpt lat="43.41148" lon="2.65411">
        <ele>657.8</ele>
        <time>2022-06-21T09:05:51Z</time>
      </trkpt>
      <trkpt lat="43.41148" lon="2.65412">
        <ele>657.8</ele>
        <time>2022-06-21T09:05:52Z</time>
      </trkpt>
      <trkpt lat="43.41149" lon="2.65412">
        <ele>657.8</ele>
        <time>2022-06-21T09:05:53Z</time>
      </trkpt>
      <trkpt lat="43.41149" lon="2.65413">
        <ele>657.8</ele>
        <time>2022-06-21T09:05:54Z</time>
      </trkpt>
      <trkpt lat="43.4115" lon="2.65414">
        <ele>657.8</ele>
        <time>2022-06-21T09:05:55Z</time>
      </trkpt>
      <trkpt lat="43.41151" lon="2.65416">
        <ele>657.8</ele>
        <time>2022-06-21T09:05:56Z</time>
      </trkpt>
      <trkpt lat="43.41152" lon="2.65417">
        <ele>657.8</ele>
        <time>2022-06-21T09:05:57Z</time>
      </trkpt>
      <trkpt lat="43.41152" lon="2.65418">
        <ele>657.8</ele>
        <time>2022-06-21T09:05:58Z</time>
      </trkpt>
      <trkpt lat="43.41153" lon="2.65419">
        <ele>657.8</ele>
        <time>2022-06-21T09:05:59Z</time>
      </trkpt>
      <trkpt lat="43.41154" lon="2.6542">
        <ele>657.8</ele>
        <time>2022-06-21T09:06:00Z</time>
      </trkpt>
      <trkpt lat="43.41155" lon="2.65421">
        <ele>657.8</ele>
        <time>2022-06-21T09:06:01Z</time>
      </trkpt>
      <trkpt lat="43.41156" lon="2.65422">
        <ele>657.8</ele>
        <time>2022-06-21T09:06:02Z</time>
      </trkpt>
      <trkpt lat="43.41156" lon="2.65423">
        <ele>657.8</ele>
        <time>2022-06-21T09:06:03Z</time>
      </trkpt>
      <trkpt lat="43.41156" lon="2.65423">
        <ele>657.8</ele>
        <time>2022-06-21T09:06:04Z</time>
      </trkpt>
      <trkpt lat="43.41157" lon="2.65424">
        <ele>657.8</ele>
        <time>2022-06-21T09:06:05Z</time>
      </trkpt>
      <trkpt lat="43.41158" lon="2.65425">
        <ele>657.9</ele>
        <time>2022-06-21T09:06:06Z</time>
      </trkpt>
      <trkpt lat="43.41159" lon="2.65426">
        <ele>657.9</ele>
        <time>2022-06-21T09:06:07Z</time>
      </trkpt>
      <trkpt lat="43.41159" lon="2.65427">
        <ele>657.9</ele>
        <time>2022-06-21T09:06:08Z</time>
      </trkpt>
      <trkpt lat="43.4116" lon="2.65428">
        <ele>658</ele>
        <time>2022-06-21T09:06:09Z</time>
      </trkpt>
      <trkpt lat="43.4116" lon="2.65429">
        <ele>658</ele>
        <time>2022-06-21T09:06:10Z</time>
      </trkpt>
      <trkpt lat="43.41161" lon="2.6543">
        <ele>658</ele>
        <time>2022-06-21T09:06:11Z</time>
      </trkpt>
      <trkpt lat="43.41162" lon="2.65432">
        <ele>658.1</ele>
        <time>2022-06-21T09:06:12Z</time>
      </trkpt>
      <trkpt lat="43.41163" lon="2.65433">
        <ele>658.1</ele>
        <time>2022-06-21T09:06:13Z</time>
      </trkpt>
      <trkpt lat="43.41163" lon="2.65434">
        <ele>658.1</ele>
        <time>2022-06-21T09:06:14Z</time>
      </trkpt>
      <trkpt lat="43.41164" lon="2.65435">
        <ele>658.2</ele>
        <time>2022-06-21T09:06:15Z</time>
      </trkpt>
      <trkpt lat="43.41164" lon="2.65435">
        <ele>658.2</ele>
        <time>2022-06-21T09:06:16Z</time>
      </trkpt>
      <trkpt lat="43.41165" lon="2.65436">
        <ele>658.2</ele>
        <time>2022-06-21T09:06:17Z</time>
      </trkpt>
      <trkpt lat="43.41165" lon="2.65437">
        <ele>658.3</ele>
        <time>2022-06-21T09:06:18Z</time>
      </trkpt>
      <trkpt lat="43.41166" lon="2.65438">
        <ele>658.4</ele>
        <time>2022-06-21T09:06:19Z</time>
      </trkpt>
      <trkpt lat="43.41167" lon="2.65439">
        <ele>658.5</ele>
        <time>2022-06-21T09:06:20Z</time>
      </trkpt>
      <trkpt lat="43.41168" lon="2.6544">
        <ele>658.6</ele>
        <time>2022-06-21T09:06:21Z</time>
      </trkpt>
      <trkpt lat="43.41168" lon="2.65441">
        <ele>658.7</ele>
        <time>2022-06-21T09:06:22Z</time>
      </trkpt>
      <trkpt lat="43.41169" lon="2.65442">
        <ele>658.8</ele>
        <time>2022-06-21T09:06:23Z</time>
      </trkpt>
      <trkpt lat="43.4117" lon="2.65443">
        <ele>658.9</ele>
        <time>2022-06-21T09:06:24Z</time>
      </trkpt>
      <trkpt lat="43.4117" lon="2.65444">
        <ele>659</ele>
        <time>2022-06-21T09:06:25Z</time>
      </trkpt>
      <trkpt lat="43.41171" lon="2.65445">
        <ele>659.1</ele>
        <time>2022-06-21T09:06:26Z</time>
      </trkpt>
      <trkpt lat="43.41172" lon="2.65446">
        <ele>659.1</ele>
        <time>2022-06-21T09:06:27Z</time>
      </trkpt>
      <trkpt lat="43.41173" lon="2.65447">
        <ele>659.2</ele>
        <time>2022-06-21T09:06:28Z</time>
      </trkpt>
      <trkpt lat="43.41174" lon="2.65447">
        <ele>659.3</ele>
        <time>2022-06-21T09:06:29Z</time>
      </trkpt>
      <trkpt lat="43.41174" lon="2.65448">
        <ele>659.4</ele>
        <time>2022-06-21T09:06:30Z</time>
      </trkpt>
      <trkpt lat="43.41175" lon="2.65449">
        <ele>659.5</ele>
        <time>2022-06-21T09:06:31Z</time>
      </trkpt>
      <trkpt lat="43.41176" lon="2.6545">
        <ele>659.5</ele>
        <time>2022-06-21T09:06:32Z</time>
      </trkpt>
      <trkpt lat="43.41176" lon="2.65451">
        <ele>659.6</ele>
        <time>2022-06-21T09:06:33Z</time>
      </trkpt>
      <trkpt lat="43.41177" lon="2.65451">
        <ele>659.6</ele>
        <time>2022-06-21T09:06:34Z</time>
      </trkpt>
      <trkpt lat="43.41178" lon="2.65452">
        <ele>659.7</ele>
        <time>2022-06-21T09:06:35Z</time>
      </trkpt>
      <trkpt lat="43.41178" lon="2.65453">
        <ele>659.7</ele>
        <time>2022-06-21T09:06:36Z</time>
      </trkpt>
      <trkpt lat="43.41179" lon="2.65454">
        <ele>659.8</ele>
        <time>2022-06-21T09:06:37Z</time>
      </trkpt>
      <trkpt lat="43.4118" lon="2.65454">
        <ele>659.9</ele>
        <time>2022-06-21T09:06:38Z</time>
      </trkpt>
      <trkpt lat="43.4118" lon="2.65455">
        <ele>659.9</ele>
        <time>2022-06-21T09:06:39Z</time>
      </trkpt>
      <trkpt lat="43.41181" lon="2.65456">
        <ele>660</ele>
        <time>2022-06-21T09:06:40Z</time>
      </trkpt>
      <trkpt lat="43.41182" lon="2.65456">
        <ele>660</ele>
        <time>2022-06-21T09:06:41Z</time>
      </trkpt>
      <trkpt lat="43.41182" lon="2.65457">
        <ele>660</ele>
        <time>2022-06-21T09:06:42Z</time>
      </trkpt>
      <trkpt lat="43.41183" lon="2.65458">
        <ele>660.1</ele>
        <time>2022-06-21T09:06:43Z</time>
      </trkpt>
      <trkpt lat="43.41184" lon="2.65459">
        <ele>660.1</ele>
        <time>2022-06-21T09:06:44Z</time>
      </trkpt>
      <trkpt lat="43.41184" lon="2.65459">
        <ele>660.2</ele>
        <time>2022-06-21T09:06:45Z</time>
      </trkpt>
      <trkpt lat="43.41185" lon="2.6546">
        <ele>660.2</ele>
        <time>2022-06-21T09:06:46Z</time>
      </trkpt>
      <trkpt lat="43.41185" lon="2.6546">
        <ele>660.2</ele>
        <time>2022-06-21T09:06:47Z</time>
      </trkpt>
      <trkpt lat="43.41186" lon="2.6546">
        <ele>660.2</ele>
        <time>2022-06-21T09:06:48Z</time>
      </trkpt>
      <trkpt lat="43.41186" lon="2.6546">
        <ele>660.2</ele>
        <time>2022-06-21T09:06:49Z</time>
      </trkpt>
      <trkpt lat="43.41186" lon="2.6546">
        <ele>660.2</ele>
        <time>2022-06-21T09:06:50Z</time>
      </trkpt>
      <trkpt lat="43.41186" lon="2.6546">
        <ele>660.2</ele>
        <time>2022-06-21T09:06:51Z</time>
      </trkpt>
      <trkpt lat="43.41186" lon="2.6546">
        <ele>660.2</ele>
        <time>2022-06-21T09:06:52Z</time>
      </trkpt>
      <trkpt lat="43.41186" lon="2.6546">
        <ele>660.2</ele>
        <time>2022-06-21T09:06:53Z</time>
      </trkpt>
      <trkpt lat="43.41186" lon="2.6546">
        <ele>660.2</ele>
        <time>2022-06-21T09:06:54Z</time>
      </trkpt>
      <trkpt lat="43.41186" lon="2.6546">
        <ele>660.2</ele>
        <time>2022-06-21T09:06:55Z</time>
      </trkpt>
      <trkpt lat="43.41186" lon="2.6546">
        <ele>660.2</ele>
        <time>2022-06-21T09:06:56Z</time>
      </trkpt>
      <trkpt lat="43.41186" lon="2.6546">
        <ele>660.2</ele>
        <time>2022-06-21T09:06:57Z</time>
      </trkpt>
      <trkpt lat="43.41186" lon="2.6546">
        <ele>660.2</ele>
        <time>2022-06-21T09:06:58Z</time>
      </trkpt>
      <trkpt lat="43.41186" lon="2.6546">
        <ele>660.2</ele>
        <time>2022-06-21T09:06:59Z</time>
      </trkpt>
      <trkpt lat="43.41186" lon="2.6546">
        <ele>660.2</ele>
        <time>2022-06-21T09:07:00Z</time>
      </trkpt>
      <trkpt lat="43.41187" lon="2.6546">
        <ele>660.3</ele>
        <time>2022-06-21T09:07:01Z</time>
      </trkpt>
      <trkpt lat="43.41187" lon="2.65461">
        <ele>660.3</ele>
        <time>2022-06-21T09:07:02Z</time>
      </trkpt>
      <trkpt lat="43.41188" lon="2.65462">
        <ele>660.3</ele>
        <time>2022-06-21T09:07:03Z</time>
      </trkpt>
      <trkpt lat="43.41188" lon="2.65463">
        <ele>660.3</ele>
        <time>2022-06-21T09:07:04Z</time>
      </trkpt>
      <trkpt lat="43.41189" lon="2.65464">
        <ele>660.3</ele>
        <time>2022-06-21T09:07:05Z</time>
      </trkpt>
      <trkpt lat="43.4119" lon="2.65464">
        <ele>660.3</ele>
        <time>2022-06-21T09:07:06Z</time>
      </trkpt>
      <trkpt lat="43.4119" lon="2.65465">
        <ele>660.3</ele>
        <time>2022-06-21T09:07:07Z</time>
      </trkpt>
      <trkpt lat="43.41191" lon="2.65465">
        <ele>660.3</ele>
        <time>2022-06-21T09:07:08Z</time>
      </trkpt>
      <trkpt lat="43.41191" lon="2.65465">
        <ele>660.3</ele>
        <time>2022-06-21T09:07:09Z</time>
      </trkpt>
      <trkpt lat="43.41191" lon="2.65465">
        <ele>660.3</ele>
        <time>2022-06-21T09:07:10Z</time>
      </trkpt>
      <trkpt lat="43.41191" lon="2.65465">
        <ele>660.3</ele>
        <time>2022-06-21T09:07:11Z</time>
      </trkpt>
      <trkpt lat="43.41191" lon="2.65465">
        <ele>660.3</ele>
        <time>2022-06-21T09:07:12Z</time>
      </trkpt>
      <trkpt lat="43.41191" lon="2.65465">
        <ele>660.3</ele>
        <time>2022-06-21T09:07:13Z</time>
      </trkpt>
      <trkpt lat="43.41191" lon="2.65465">
        <ele>660.3</ele>
        <time>2022-06-21T09:07:14Z</time>
      </trkpt>
      <trkpt lat="43.41191" lon="2.65465">
        <ele>660.3</ele>
        <time>2022-06-21T09:07:15Z</time>
      </trkpt>
      <trkpt lat="43.41191" lon="2.65465">
        <ele>660.3</ele>
        <time>2022-06-21T09:07:16Z</time>
      </trkpt>
      <trkpt lat="43.41191" lon="2.65465">
        <ele>660.3</ele>
        <time>2022-06-21T09:07:17Z</time>
      </trkpt>
      <trkpt lat="43.41191" lon="2.65465">
        <ele>660.3</ele>
        <time>2022-06-21T09:07:18Z</time>
      </trkpt>
      <trkpt lat="43.41191" lon="2.65465">
        <ele>660.3</ele>
        <time>2022-06-21T09:07:19Z</time>
      </trkpt>
      <trkpt lat="43.41191" lon="2.65465">
        <ele>660.3</ele>
        <time>2022-06-21T09:07:20Z</time>
      </trkpt>
      <trkpt lat="43.41191" lon="2.65465">
        <ele>660.3</ele>
        <time>2022-06-21T09:07:21Z</time>
      </trkpt>
      <trkpt lat="43.41192" lon="2.65464">
        <ele>660.3</ele>
        <time>2022-06-21T09:07:22Z</time>
      </trkpt>
      <trkpt lat="43.41192" lon="2.65464">
        <ele>660.3</ele>
        <time>2022-06-21T09:07:23Z</time>
      </trkpt>
      <trkpt lat="43.41192" lon="2.65464">
        <ele>660.3</ele>
        <time>2022-06-21T09:07:24Z</time>
      </trkpt>
      <trkpt lat="43.41192" lon="2.65464">
        <ele>660.3</ele>
        <time>2022-06-21T09:07:25Z</time>
      </trkpt>
      <trkpt lat="43.41192" lon="2.65464">
        <ele>660.3</ele>
        <time>2022-06-21T09:07:26Z</time>
      </trkpt>
      <trkpt lat="43.41192" lon="2.65464">
        <ele>660.3</ele>
        <time>2022-06-21T09:07:27Z</time>
      </trkpt>
      <trkpt lat="43.41192" lon="2.65464">
        <ele>660.3</ele>
        <time>2022-06-21T09:07:28Z</time>
      </trkpt>
      <trkpt lat="43.41192" lon="2.65464">
        <ele>660.3</ele>
        <time>2022-06-21T09:07:29Z</time>
      </trkpt>
      <trkpt lat="43.41192" lon="2.65464">
        <ele>660.3</ele>
        <time>2022-06-21T09:07:30Z</time>
      </trkpt>
      <trkpt lat="43.41192" lon="2.65464">
        <ele>660.3</ele>
        <time>2022-06-21T09:07:31Z</time>
      </trkpt>
      <trkpt lat="43.41192" lon="2.65464">
        <ele>660.3</ele>
        <time>2022-06-21T09:07:32Z</time>
      </trkpt>
      <trkpt lat="43.41192" lon="2.65464">
        <ele>660.3</ele>
        <time>2022-06-21T09:07:33Z</time>
      </trkpt>
      <trkpt lat="43.41192" lon="2.65464">
        <ele>660.3</ele>
        <time>2022-06-21T09:07:34Z</time>
      </trkpt>
      <trkpt lat="43.41192" lon="2.65464">
        <ele>660.3</ele>
        <time>2022-06-21T09:07:35Z</time>
      </trkpt>
      <trkpt lat="43.41192" lon="2.65464">
        <ele>660.3</ele>
        <time>2022-06-21T09:07:36Z</time>
      </trkpt>
      <trkpt lat="43.41192" lon="2.65464">
        <ele>660.3</ele>
        <time>2022-06-21T09:07:37Z</time>
      </trkpt>
      <trkpt lat="43.41192" lon="2.65464">
        <ele>660.3</ele>
        <time>2022-06-21T09:07:38Z</time>
      </trkpt>
      <trkpt lat="43.41192" lon="2.65464">
        <ele>660.3</ele>
        <time>2022-06-21T09:07:39Z</time>
      </trkpt>
      <trkpt lat="43.41192" lon="2.65464">
        <ele>660.3</ele>
        <time>2022-06-21T09:07:40Z</time>
      </trkpt>
      <trkpt lat="43.41192" lon="2.65464">
        <ele>660.3</ele>
        <time>2022-06-21T09:07:41Z</time>
      </trkpt>
      <trkpt lat="43.41192" lon="2.65464">
        <ele>660.3</ele>
        <time>2022-06-21T09:07:42Z</time>
      </trkpt>
      <trkpt lat="43.41192" lon="2.65464">
        <ele>660.3</ele>
        <time>2022-06-21T09:07:43Z</time>
      </trkpt>
      <trkpt lat="43.41192" lon="2.65464">
        <ele>660.3</ele>
        <time>2022-06-21T09:07:44Z</time>
      </trkpt>
      <trkpt lat="43.41192" lon="2.65464">
        <ele>660.3</ele>
        <time>2022-06-21T09:07:45Z</time>
      </trkpt>
      <trkpt lat="43.41192" lon="2.65464">
        <ele>660.3</ele>
        <time>2022-06-21T09:07:46Z</time>
      </trkpt>
      <trkpt lat="43.41192" lon="2.65464">
        <ele>660.3</ele>
        <time>2022-06-21T09:07:47Z</time>
      </trkpt>
      <trkpt lat="43.41192" lon="2.65464">
        <ele>660.3</ele>
        <time>2022-06-21T09:07:48Z</time>
      </trkpt>
      <trkpt lat="43.41192" lon="2.65464">
        <ele>660.3</ele>
        <time>2022-06-21T09:07:49Z</time>
      </trkpt>
      <trkpt lat="43.41192" lon="2.65464">
        <ele>660.3</ele>
        <time>2022-06-21T09:07:50Z</time>
      </trkpt>
      <trkpt lat="43.41192" lon="2.65464">
        <ele>660.3</ele>
        <time>2022-06-21T09:07:51Z</time>
      </trkpt>
      <trkpt lat="43.41192" lon="2.65464">
        <ele>660.3</ele>
        <time>2022-06-21T09:07:52Z</time>
      </trkpt>
      <trkpt lat="43.41192" lon="2.65464">
        <ele>660.3</ele>
        <time>2022-06-21T09:07:53Z</time>
      </trkpt>
      <trkpt lat="43.41192" lon="2.65464">
        <ele>660.3</ele>
        <time>2022-06-21T09:07:54Z</time>
      </trkpt>
      <trkpt lat="43.41192" lon="2.65464">
        <ele>660.3</ele>
        <time>2022-06-21T09:07:55Z</time>
      </trkpt>
      <trkpt lat="43.41192" lon="2.65464">
        <ele>660.3</ele>
        <time>2022-06-21T09:07:56Z</time>
      </trkpt>
      <trkpt lat="43.41192" lon="2.65464">
        <ele>660.3</ele>
        <time>2022-06-21T09:07:57Z</time>
      </trkpt>
      <trkpt lat="43.41192" lon="2.65464">
        <ele>660.3</ele>
        <time>2022-06-21T09:07:58Z</time>
      </trkpt>
      <trkpt lat="43.41192" lon="2.65464">
        <ele>660.3</ele>
        <time>2022-06-21T09:07:59Z</time>
      </trkpt>
      <trkpt lat="43.41192" lon="2.65464">
        <ele>660.3</ele>
        <time>2022-06-21T09:08:00Z</time>
      </trkpt>
      <trkpt lat="43.41192" lon="2.65464">
        <ele>660.3</ele>
        <time>2022-06-21T09:08:01Z</time>
      </trkpt>
      <trkpt lat="43.41192" lon="2.65464">
        <ele>660.3</ele>
        <time>2022-06-21T09:08:02Z</time>
      </trkpt>
      <trkpt lat="43.41192" lon="2.65464">
        <ele>660.3</ele>
        <time>2022-06-21T09:08:03Z</time>
      </trkpt>
      <trkpt lat="43.41192" lon="2.65464">
        <ele>660.3</ele>
        <time>2022-06-21T09:08:04Z</time>
      </trkpt>
      <trkpt lat="43.41192" lon="2.65464">
        <ele>660.3</ele>
        <time>2022-06-21T09:08:05Z</time>
      </trkpt>
      <trkpt lat="43.41192" lon="2.65464">
        <ele>660.3</ele>
        <time>2022-06-21T09:08:06Z</time>
      </trkpt>
      <trkpt lat="43.41192" lon="2.65464">
        <ele>660.3</ele>
        <time>2022-06-21T09:08:07Z</time>
      </trkpt>
      <trkpt lat="43.41192" lon="2.65464">
        <ele>660.3</ele>
        <time>2022-06-21T09:08:08Z</time>
      </trkpt>
      <trkpt lat="43.41192" lon="2.65464">
        <ele>660.3</ele>
        <time>2022-06-21T09:08:09Z</time>
      </trkpt>
      <trkpt lat="43.41192" lon="2.65464">
        <ele>660.3</ele>
        <time>2022-06-21T09:08:10Z</time>
      </trkpt>
      <trkpt lat="43.41192" lon="2.65464">
        <ele>660.3</ele>
        <time>2022-06-21T09:08:11Z</time>
      </trkpt>
      <trkpt lat="43.41192" lon="2.65464">
        <ele>660.3</ele>
        <time>2022-06-21T09:08:12Z</time>
      </trkpt>
      <trkpt lat="43.41192" lon="2.65464">
        <ele>660.3</ele>
        <time>2022-06-21T09:08:13Z</time>
      </trkpt>
      <trkpt lat="43.41192" lon="2.65464">
        <ele>660.3</ele>
        <time>2022-06-21T09:08:14Z</time>
      </trkpt>
      <trkpt lat="43.41192" lon="2.65464">
        <ele>660.3</ele>
        <time>2022-06-21T09:08:15Z</time>
      </trkpt>
      <trkpt lat="43.41192" lon="2.65464">
        <ele>660.3</ele>
        <time>2022-06-21T09:08:16Z</time>
      </trkpt>
      <trkpt lat="43.41192" lon="2.65464">
        <ele>660.3</ele>
        <time>2022-06-21T09:08:17Z</time>
      </trkpt>
      <trkpt lat="43.41192" lon="2.65464">
        <ele>660.3</ele>
        <time>2022-06-21T09:08:18Z</time>
      </trkpt>
      <trkpt lat="43.41192" lon="2.65464">
        <ele>660.3</ele>
        <time>2022-06-21T09:08:19Z</time>
      </trkpt>
      <trkpt lat="43.41192" lon="2.65464">
        <ele>660.3</ele>
        <time>2022-06-21T09:08:20Z</time>
      </trkpt>
      <trkpt lat="43.41192" lon="2.65464">
        <ele>660.3</ele>
        <time>2022-06-21T09:08:21Z</time>
      </trkpt>
      <trkpt lat="43.41192" lon="2.65464">
        <ele>660.3</ele>
        <time>2022-06-21T09:08:22Z</time>
      </trkpt>
      <trkpt lat="43.41192" lon="2.65464">
        <ele>660.3</ele>
        <time>2022-06-21T09:08:23Z</time>
      </trkpt>
      <trkpt lat="43.41192" lon="2.65464">
        <ele>660.3</ele>
        <time>2022-06-21T09:08:24Z</time>
      </trkpt>
      <trkpt lat="43.41192" lon="2.65464">
        <ele>660.3</ele>
        <time>2022-06-21T09:08:25Z</time>
      </trkpt>
      <trkpt lat="43.41192" lon="2.65464">
        <ele>660.3</ele>
        <time>2022-06-21T09:08:26Z</time>
      </trkpt>
      <trkpt lat="43.41192" lon="2.65464">
        <ele>660.3</ele>
        <time>2022-06-21T09:08:27Z</time>
      </trkpt>
      <trkpt lat="43.41192" lon="2.65464">
        <ele>660.3</ele>
        <time>2022-06-21T09:08:28Z</time>
      </trkpt>
      <trkpt lat="43.41192" lon="2.65464">
        <ele>660.3</ele>
        <time>2022-06-21T09:08:29Z</time>
      </trkpt>
      <trkpt lat="43.41192" lon="2.65464">
        <ele>660.3</ele>
        <time>2022-06-21T09:08:30Z</time>
      </trkpt>
      <trkpt lat="43.41192" lon="2.65464">
        <ele>660.3</ele>
        <time>2022-06-21T09:08:31Z</time>
      </trkpt>
      <trkpt lat="43.41192" lon="2.65464">
        <ele>660.3</ele>
        <time>2022-06-21T09:08:32Z</time>
      </trkpt>
      <trkpt lat="43.41192" lon="2.65464">
        <ele>660.3</ele>
        <time>2022-06-21T09:08:33Z</time>
      </trkpt>
      <trkpt lat="43.41192" lon="2.65464">
        <ele>660.3</ele>
        <time>2022-06-21T09:08:34Z</time>
      </trkpt>
      <trkpt lat="43.41192" lon="2.65464">
        <ele>660.3</ele>
        <time>2022-06-21T09:08:35Z</time>
      </trkpt>
      <trkpt lat="43.41192" lon="2.65464">
        <ele>660.3</ele>
        <time>2022-06-21T09:08:36Z</time>
      </trkpt>
      <trkpt lat="43.41192" lon="2.65464">
        <ele>660.3</ele>
        <time>2022-06-21T09:08:37Z</time>
      </trkpt>
      <trkpt lat="43.41192" lon="2.65464">
        <ele>660.3</ele>
        <time>2022-06-21T09:08:38Z</time>
      </trkpt>
      <trkpt lat="43.41192" lon="2.65464">
        <ele>660.3</ele>
        <time>2022-06-21T09:08:39Z</time>
      </trkpt>
      <trkpt lat="43.41192" lon="2.65464">
        <ele>660.3</ele>
        <time>2022-06-21T09:08:40Z</time>
      </trkpt>
      <trkpt lat="43.41192" lon="2.65464">
        <ele>660.3</ele>
        <time>2022-06-21T09:08:41Z</time>
      </trkpt>
      <trkpt lat="43.41192" lon="2.65464">
        <ele>660.3</ele>
        <time>2022-06-21T09:08:42Z</time>
      </trkpt>
      <trkpt lat="43.41192" lon="2.65464">
        <ele>660.3</ele>
        <time>2022-06-21T09:08:43Z</time>
      </trkpt>
      <trkpt lat="43.41192" lon="2.65464">
        <ele>660.3</ele>
        <time>2022-06-21T09:08:44Z</time>
      </trkpt>
      <trkpt lat="43.41192" lon="2.65464">
        <ele>660.3</ele>
        <time>2022-06-21T09:08:45Z</time>
      </trkpt>
      <trkpt lat="43.41192" lon="2.65464">
        <ele>660.3</ele>
        <time>2022-06-21T09:08:46Z</time>
      </trkpt>
      <trkpt lat="43.41192" lon="2.65464">
        <ele>660.3</ele>
        <time>2022-06-21T09:08:47Z</time>
      </trkpt>
      <trkpt lat="43.41192" lon="2.65464">
        <ele>660.3</ele>
        <time>2022-06-21T09:08:48Z</time>
      </trkpt>
      <trkpt lat="43.41192" lon="2.65464">
        <ele>660.3</ele>
        <time>2022-06-21T09:08:49Z</time>
      </trkpt>
      <trkpt lat="43.41192" lon="2.65464">
        <ele>660.3</ele>
        <time>2022-06-21T09:08:50Z</time>
      </trkpt>
      <trkpt lat="43.41192" lon="2.65464">
        <ele>660.3</ele>
        <time>2022-06-21T09:08:51Z</time>
      </trkpt>
      <trkpt lat="43.41192" lon="2.65464">
        <ele>660.3</ele>
        <time>2022-06-21T09:08:52Z</time>
      </trkpt>
      <trkpt lat="43.41192" lon="2.65464">
        <ele>660.3</ele>
        <time>2022-06-21T09:08:53Z</time>
      </trkpt>
      <trkpt lat="43.41192" lon="2.65464">
        <ele>660.3</ele>
        <time>2022-06-21T09:08:54Z</time>
      </trkpt>
      <trkpt lat="43.41192" lon="2.65464">
        <ele>660.3</ele>
        <time>2022-06-21T09:08:55Z</time>
      </trkpt>
      <trkpt lat="43.41192" lon="2.65464">
        <ele>660.3</ele>
        <time>2022-06-21T09:08:56Z</time>
      </trkpt>
      <trkpt lat="43.41192" lon="2.65464">
        <ele>660.3</ele>
        <time>2022-06-21T09:08:57Z</time>
      </trkpt>
      <trkpt lat="43.41192" lon="2.65464">
        <ele>660.3</ele>
        <time>2022-06-21T09:08:58Z</time>
      </trkpt>
      <trkpt lat="43.41192" lon="2.65464">
        <ele>660.3</ele>
        <time>2022-06-21T09:08:59Z</time>
      </trkpt>
      <trkpt lat="43.41192" lon="2.65464">
        <ele>660.3</ele>
        <time>2022-06-21T09:09:00Z</time>
      </trkpt>
      <trkpt lat="43.41192" lon="2.65464">
        <ele>660.3</ele>
        <time>2022-06-21T09:09:01Z</time>
      </trkpt>
      <trkpt lat="43.41192" lon="2.65464">
        <ele>660.3</ele>
        <time>2022-06-21T09:09:02Z</time>
      </trkpt>
      <trkpt lat="43.41192" lon="2.65464">
        <ele>660.3</ele>
        <time>2022-06-21T09:09:03Z</time>
      </trkpt>
      <trkpt lat="43.41192" lon="2.65464">
        <ele>660.3</ele>
        <time>2022-06-21T09:09:04Z</time>
      </trkpt>
      <trkpt lat="43.41192" lon="2.65464">
        <ele>660.3</ele>
        <time>2022-06-21T09:09:05Z</time>
      </trkpt>
      <trkpt lat="43.41192" lon="2.65464">
        <ele>660.3</ele>
        <time>2022-06-21T09:09:06Z</time>
      </trkpt>
      <trkpt lat="43.41192" lon="2.65464">
        <ele>660.3</ele>
        <time>2022-06-21T09:09:07Z</time>
      </trkpt>
      <trkpt lat="43.41192" lon="2.65464">
        <ele>660.3</ele>
        <time>2022-06-21T09:09:08Z</time>
      </trkpt>
      <trkpt lat="43.41192" lon="2.65464">
        <ele>660.3</ele>
        <time>2022-06-21T09:09:09Z</time>
      </trkpt>
      <trkpt lat="43.41192" lon="2.65464">
        <ele>660.3</ele>
        <time>2022-06-21T09:09:10Z</time>
      </trkpt>
      <trkpt lat="43.41192" lon="2.65464">
        <ele>660.3</ele>
        <time>2022-06-21T09:09:11Z</time>
      </trkpt>
      <trkpt lat="43.41192" lon="2.65464">
        <ele>660.3</ele>
        <time>2022-06-21T09:09:12Z</time>
      </trkpt>
      <trkpt lat="43.41192" lon="2.65464">
        <ele>660.3</ele>
        <time>2022-06-21T09:09:13Z</time>
      </trkpt>
      <trkpt lat="43.41192" lon="2.65464">
        <ele>660.3</ele>
        <time>2022-06-21T09:09:14Z</time>
      </trkpt>
      <trkpt lat="43.41192" lon="2.65464">
        <ele>660.3</ele>
        <time>2022-06-21T09:09:15Z</time>
      </trkpt>
      <trkpt lat="43.41192" lon="2.65464">
        <ele>660.3</ele>
        <time>2022-06-21T09:09:16Z</time>
      </trkpt>
      <trkpt lat="43.41192" lon="2.65464">
        <ele>660.3</ele>
        <time>2022-06-21T09:09:17Z</time>
      </trkpt>
      <trkpt lat="43.41192" lon="2.65464">
        <ele>660.3</ele>
        <time>2022-06-21T09:09:18Z</time>
      </trkpt>
      <trkpt lat="43.41192" lon="2.65464">
        <ele>660.3</ele>
        <time>2022-06-21T09:09:19Z</time>
      </trkpt>
      <trkpt lat="43.41192" lon="2.65464">
        <ele>660.3</ele>
        <time>2022-06-21T09:09:20Z</time>
      </trkpt>
      <trkpt lat="43.41192" lon="2.65464">
        <ele>660.3</ele>
        <time>2022-06-21T09:09:21Z</time>
      </trkpt>
      <trkpt lat="43.41192" lon="2.65464">
        <ele>660.3</ele>
        <time>2022-06-21T09:09:22Z</time>
      </trkpt>
      <trkpt lat="43.41192" lon="2.65464">
        <ele>660.3</ele>
        <time>2022-06-21T09:09:23Z</time>
      </trkpt>
      <trkpt lat="43.41192" lon="2.65464">
        <ele>660.3</ele>
        <time>2022-06-21T09:09:24Z</time>
      </trkpt>
      <trkpt lat="43.41192" lon="2.65464">
        <ele>660.3</ele>
        <time>2022-06-21T09:09:25Z</time>
      </trkpt>
      <trkpt lat="43.41192" lon="2.65464">
        <ele>660.3</ele>
        <time>2022-06-21T09:09:26Z</time>
      </trkpt>
      <trkpt lat="43.41192" lon="2.65464">
        <ele>660.3</ele>
        <time>2022-06-21T09:09:27Z</time>
      </trkpt>
      <trkpt lat="43.41192" lon="2.65464">
        <ele>660.3</ele>
        <time>2022-06-21T09:09:28Z</time>
      </trkpt>
      <trkpt lat="43.41192" lon="2.65464">
        <ele>660.3</ele>
        <time>2022-06-21T09:09:29Z</time>
      </trkpt>
      <trkpt lat="43.41192" lon="2.65464">
        <ele>660.3</ele>
        <time>2022-06-21T09:09:30Z</time>
      </trkpt>
      <trkpt lat="43.41192" lon="2.65464">
        <ele>660.3</ele>
        <time>2022-06-21T09:09:31Z</time>
      </trkpt>
      <trkpt lat="43.41192" lon="2.65464">
        <ele>660.3</ele>
        <time>2022-06-21T09:09:32Z</time>
      </trkpt>
      <trkpt lat="43.41192" lon="2.65464">
        <ele>660.3</ele>
        <time>2022-06-21T09:09:33Z</time>
      </trkpt>
      <trkpt lat="43.41192" lon="2.65464">
        <ele>660.3</ele>
        <time>2022-06-21T09:09:34Z</time>
      </trkpt>
      <trkpt lat="43.41192" lon="2.65464">
        <ele>660.3</ele>
        <time>2022-06-21T09:09:35Z</time>
      </trkpt>
      <trkpt lat="43.41192" lon="2.65464">
        <ele>660.3</ele>
        <time>2022-06-21T09:09:36Z</time>
      </trkpt>
      <trkpt lat="43.41192" lon="2.65464">
        <ele>660.3</ele>
        <time>2022-06-21T09:09:37Z</time>
      </trkpt>
      <trkpt lat="43.41192" lon="2.65464">
        <ele>660.3</ele>
        <time>2022-06-21T09:09:38Z</time>
      </trkpt>
      <trkpt lat="43.41192" lon="2.65464">
        <ele>660.3</ele>
        <time>2022-06-21T09:09:39Z</time>
      </trkpt>
      <trkpt lat="43.41192" lon="2.65464">
        <ele>660.3</ele>
        <time>2022-06-21T09:09:40Z</time>
      </trkpt>
      <trkpt lat="43.41192" lon="2.65464">
        <ele>660.3</ele>
        <time>2022-06-21T09:09:41Z</time>
      </trkpt>
      <trkpt lat="43.41192" lon="2.65464">
        <ele>660.3</ele>
        <time>2022-06-21T09:09:42Z</time>
      </trkpt>
      <trkpt lat="43.41192" lon="2.65464">
        <ele>660.3</ele>
        <time>2022-06-21T09:09:43Z</time>
      </trkpt>
      <trkpt lat="43.41192" lon="2.65464">
        <ele>660.3</ele>
        <time>2022-06-21T09:09:44Z</time>
      </trkpt>
      <trkpt lat="43.41193" lon="2.65465">
        <ele>660.3</ele>
        <time>2022-06-21T09:09:45Z</time>
      </trkpt>
      <trkpt lat="43.41193" lon="2.65465">
        <ele>660.3</ele>
        <time>2022-06-21T09:09:46Z</time>
      </trkpt>
      <trkpt lat="43.41194" lon="2.65466">
        <ele>660.3</ele>
        <time>2022-06-21T09:09:47Z</time>
      </trkpt>
      <trkpt lat="43.41194" lon="2.65466">
        <ele>660.3</ele>
        <time>2022-06-21T09:09:48Z</time>
      </trkpt>
      <trkpt lat="43.41194" lon="2.65466">
        <ele>660.3</ele>
        <time>2022-06-21T09:09:49Z</time>
      </trkpt>
      <trkpt lat="43.41194" lon="2.65466">
        <ele>660.3</ele>
        <time>2022-06-21T09:09:50Z</time>
      </trkpt>
      <trkpt lat="43.41194" lon="2.65466">
        <ele>660.3</ele>
        <time>2022-06-21T09:09:51Z</time>
      </trkpt>
      <trkpt lat="43.41194" lon="2.65466">
        <ele>660.2</ele>
        <time>2022-06-21T09:09:52Z</time>
      </trkpt>
      <trkpt lat="43.41194" lon="2.65466">
        <ele>660.2</ele>
        <time>2022-06-21T09:09:53Z</time>
      </trkpt>
      <trkpt lat="43.41194" lon="2.65466">
        <ele>660.2</ele>
        <time>2022-06-21T09:09:54Z</time>
      </trkpt>
      <trkpt lat="43.41194" lon="2.65466">
        <ele>660.2</ele>
        <time>2022-06-21T09:09:55Z</time>
      </trkpt>
      <trkpt lat="43.41194" lon="2.65466">
        <ele>660.2</ele>
        <time>2022-06-21T09:09:56Z</time>
      </trkpt>
      <trkpt lat="43.41194" lon="2.65466">
        <ele>660.2</ele>
        <time>2022-06-21T09:09:57Z</time>
      </trkpt>
      <trkpt lat="43.41194" lon="2.65466">
        <ele>660.2</ele>
        <time>2022-06-21T09:09:58Z</time>
      </trkpt>
      <trkpt lat="43.41194" lon="2.65466">
        <ele>660.2</ele>
        <time>2022-06-21T09:09:59Z</time>
      </trkpt>
      <trkpt lat="43.41194" lon="2.65466">
        <ele>660.2</ele>
        <time>2022-06-21T09:10:00Z</time>
      </trkpt>
      <trkpt lat="43.41194" lon="2.65466">
        <ele>660.2</ele>
        <time>2022-06-21T09:10:01Z</time>
      </trkpt>
      <trkpt lat="43.41194" lon="2.65466">
        <ele>660.2</ele>
        <time>2022-06-21T09:10:02Z</time>
      </trkpt>
      <trkpt lat="43.41194" lon="2.65466">
        <ele>660.2</ele>
        <time>2022-06-21T09:10:03Z</time>
      </trkpt>
      <trkpt lat="43.41194" lon="2.65466">
        <ele>660.2</ele>
        <time>2022-06-21T09:10:04Z</time>
      </trkpt>
      <trkpt lat="43.41194" lon="2.65466">
        <ele>660.2</ele>
        <time>2022-06-21T09:10:05Z</time>
      </trkpt>
      <trkpt lat="43.41195" lon="2.65466">
        <ele>660.2</ele>
        <time>2022-06-21T09:10:06Z</time>
      </trkpt>
      <trkpt lat="43.41195" lon="2.65466">
        <ele>660.2</ele>
        <time>2022-06-21T09:10:07Z</time>
      </trkpt>
      <trkpt lat="43.41195" lon="2.65466">
        <ele>660.2</ele>
        <time>2022-06-21T09:10:08Z</time>
      </trkpt>
      <trkpt lat="43.41195" lon="2.65466">
        <ele>660.2</ele>
        <time>2022-06-21T09:10:09Z</time>
      </trkpt>
      <trkpt lat="43.41195" lon="2.65466">
        <ele>660.2</ele>
        <time>2022-06-21T09:10:10Z</time>
      </trkpt>
      <trkpt lat="43.41195" lon="2.65466">
        <ele>660.2</ele>
        <time>2022-06-21T09:10:11Z</time>
      </trkpt>
      <trkpt lat="43.41195" lon="2.65466">
        <ele>660.2</ele>
        <time>2022-06-21T09:10:12Z</time>
      </trkpt>
      <trkpt lat="43.41195" lon="2.65466">
        <ele>660.2</ele>
        <time>2022-06-21T09:10:13Z</time>
      </trkpt>
      <trkpt lat="43.41195" lon="2.65466">
        <ele>660.2</ele>
        <time>2022-06-21T09:10:14Z</time>
      </trkpt>
      <trkpt lat="43.41195" lon="2.65466">
        <ele>660.2</ele>
        <time>2022-06-21T09:10:15Z</time>
      </trkpt>
      <trkpt lat="43.41195" lon="2.65466">
        <ele>660.2</ele>
        <time>2022-06-21T09:10:16Z</time>
      </trkpt>
      <trkpt lat="43.41195" lon="2.65466">
        <ele>660.2</ele>
        <time>2022-06-21T09:10:17Z</time>
      </trkpt>
      <trkpt lat="43.41195" lon="2.65466">
        <ele>660.2</ele>
        <time>2022-06-21T09:10:18Z</time>
      </trkpt>
      <trkpt lat="43.41195" lon="2.65466">
        <ele>660.2</ele>
        <time>2022-06-21T09:10:19Z</time>
      </trkpt>
      <trkpt lat="43.41195" lon="2.65466">
        <ele>660.2</ele>
        <time>2022-06-21T09:10:20Z</time>
      </trkpt>
      <trkpt lat="43.41195" lon="2.65466">
        <ele>660.2</ele>
        <time>2022-06-21T09:10:21Z</time>
      </trkpt>
      <trkpt lat="43.41195" lon="2.65466">
        <ele>660.2</ele>
        <time>2022-06-21T09:10:22Z</time>
      </trkpt>
      <trkpt lat="43.41195" lon="2.65466">
        <ele>660.2</ele>
        <time>2022-06-21T09:10:23Z</time>
      </trkpt>
      <trkpt lat="43.41195" lon="2.65466">
        <ele>660.2</ele>
        <time>2022-06-21T09:10:24Z</time>
      </trkpt>
      <trkpt lat="43.41195" lon="2.65466">
        <ele>660.2</ele>
        <time>2022-06-21T09:10:25Z</time>
      </trkpt>
      <trkpt lat="43.41195" lon="2.65466">
        <ele>660.2</ele>
        <time>2022-06-21T09:10:26Z</time>
      </trkpt>
      <trkpt lat="43.41195" lon="2.65466">
        <ele>660.2</ele>
        <time>2022-06-21T09:10:27Z</time>
      </trkpt>
      <trkpt lat="43.41195" lon="2.65466">
        <ele>660.2</ele>
        <time>2022-06-21T09:10:28Z</time>
      </trkpt>
      <trkpt lat="43.41195" lon="2.65466">
        <ele>660.2</ele>
        <time>2022-06-21T09:10:29Z</time>
      </trkpt>
      <trkpt lat="43.41195" lon="2.65466">
        <ele>660.2</ele>
        <time>2022-06-21T09:10:30Z</time>
      </trkpt>
      <trkpt lat="43.41195" lon="2.65466">
        <ele>660.2</ele>
        <time>2022-06-21T09:10:31Z</time>
      </trkpt>
      <trkpt lat="43.41195" lon="2.65466">
        <ele>660.2</ele>
        <time>2022-06-21T09:10:32Z</time>
      </trkpt>
      <trkpt lat="43.41195" lon="2.65466">
        <ele>660.2</ele>
        <time>2022-06-21T09:10:33Z</time>
      </trkpt>
      <trkpt lat="43.41195" lon="2.65466">
        <ele>660.2</ele>
        <time>2022-06-21T09:10:34Z</time>
      </trkpt>
      <trkpt lat="43.41195" lon="2.65466">
        <ele>660.2</ele>
        <time>2022-06-21T09:10:35Z</time>
      </trkpt>
      <trkpt lat="43.41195" lon="2.65466">
        <ele>660.2</ele>
        <time>2022-06-21T09:10:36Z</time>
      </trkpt>
      <trkpt lat="43.41195" lon="2.65466">
        <ele>660.2</ele>
        <time>2022-06-21T09:10:37Z</time>
      </trkpt>
      <trkpt lat="43.41195" lon="2.65466">
        <ele>660.2</ele>
        <time>2022-06-21T09:10:38Z</time>
      </trkpt>
      <trkpt lat="43.41195" lon="2.65466">
        <ele>660.2</ele>
        <time>2022-06-21T09:10:39Z</time>
      </trkpt>
      <trkpt lat="43.41195" lon="2.65466">
        <ele>660.2</ele>
        <time>2022-06-21T09:10:40Z</time>
      </trkpt>
      <trkpt lat="43.41195" lon="2.65466">
        <ele>660.2</ele>
        <time>2022-06-21T09:10:41Z</time>
      </trkpt>
      <trkpt lat="43.41195" lon="2.65466">
        <ele>660.2</ele>
        <time>2022-06-21T09:10:42Z</time>
      </trkpt>
      <trkpt lat="43.41195" lon="2.65466">
        <ele>660.2</ele>
        <time>2022-06-21T09:10:43Z</time>
      </trkpt>
      <trkpt lat="43.41195" lon="2.65466">
        <ele>660.2</ele>
        <time>2022-06-21T09:10:44Z</time>
      </trkpt>
      <trkpt lat="43.41195" lon="2.65466">
        <ele>660.2</ele>
        <time>2022-06-21T09:10:45Z</time>
      </trkpt>
      <trkpt lat="43.41195" lon="2.65466">
        <ele>660.2</ele>
        <time>2022-06-21T09:10:46Z</time>
      </trkpt>
      <trkpt lat="43.41195" lon="2.65466">
        <ele>660.2</ele>
        <time>2022-06-21T09:10:47Z</time>
      </trkpt>
      <trkpt lat="43.41195" lon="2.65466">
        <ele>660.2</ele>
        <time>2022-06-21T09:10:48Z</time>
      </trkpt>
      <trkpt lat="43.41195" lon="2.65466">
        <ele>660.2</ele>
        <time>2022-06-21T09:10:49Z</time>
      </trkpt>
      <trkpt lat="43.41195" lon="2.65466">
        <ele>660.2</ele>
        <time>2022-06-21T09:10:50Z</time>
      </trkpt>
      <trkpt lat="43.41195" lon="2.65466">
        <ele>660.2</ele>
        <time>2022-06-21T09:10:51Z</time>
      </trkpt>
      <trkpt lat="43.41195" lon="2.65466">
        <ele>660.2</ele>
        <time>2022-06-21T09:10:52Z</time>
      </trkpt>
      <trkpt lat="43.41195" lon="2.65466">
        <ele>660.2</ele>
        <time>2022-06-21T09:10:53Z</time>
      </trkpt>
      <trkpt lat="43.41195" lon="2.65466">
        <ele>660.2</ele>
        <time>2022-06-21T09:10:54Z</time>
      </trkpt>
      <trkpt lat="43.41195" lon="2.65466">
        <ele>660.2</ele>
        <time>2022-06-21T09:10:55Z</time>
      </trkpt>
      <trkpt lat="43.41195" lon="2.65466">
        <ele>660.2</ele>
        <time>2022-06-21T09:10:56Z</time>
      </trkpt>
      <trkpt lat="43.41195" lon="2.65466">
        <ele>660.2</ele>
        <time>2022-06-21T09:10:57Z</time>
      </trkpt>
      <trkpt lat="43.41195" lon="2.65466">
        <ele>660.2</ele>
        <time>2022-06-21T09:10:58Z</time>
      </trkpt>
      <trkpt lat="43.41195" lon="2.65466">
        <ele>660.2</ele>
        <time>2022-06-21T09:10:59Z</time>
      </trkpt>
      <trkpt lat="43.41195" lon="2.65466">
        <ele>660.2</ele>
        <time>2022-06-21T09:11:00Z</time>
      </trkpt>
      <trkpt lat="43.41195" lon="2.65466">
        <ele>660.2</ele>
        <time>2022-06-21T09:11:01Z</time>
      </trkpt>
      <trkpt lat="43.41195" lon="2.65466">
        <ele>660.2</ele>
        <time>2022-06-21T09:11:02Z</time>
      </trkpt>
      <trkpt lat="43.41195" lon="2.65466">
        <ele>660.2</ele>
        <time>2022-06-21T09:11:03Z</time>
      </trkpt>
      <trkpt lat="43.41195" lon="2.65466">
        <ele>660.2</ele>
        <time>2022-06-21T09:11:04Z</time>
      </trkpt>
      <trkpt lat="43.41195" lon="2.65466">
        <ele>660.2</ele>
        <time>2022-06-21T09:11:05Z</time>
      </trkpt>
      <trkpt lat="43.41195" lon="2.65466">
        <ele>660.2</ele>
        <time>2022-06-21T09:11:06Z</time>
      </trkpt>
      <trkpt lat="43.41195" lon="2.65466">
        <ele>660.2</ele>
        <time>2022-06-21T09:11:07Z</time>
      </trkpt>
      <trkpt lat="43.41195" lon="2.65466">
        <ele>660.2</ele>
        <time>2022-06-21T09:11:08Z</time>
      </trkpt>
      <trkpt lat="43.41195" lon="2.65466">
        <ele>660.2</ele>
        <time>2022-06-21T09:11:09Z</time>
      </trkpt>
      <trkpt lat="43.41195" lon="2.65466">
        <ele>660.2</ele>
        <time>2022-06-21T09:11:10Z</time>
      </trkpt>
      <trkpt lat="43.41195" lon="2.65466">
        <ele>660.2</ele>
        <time>2022-06-21T09:11:11Z</time>
      </trkpt>
      <trkpt lat="43.41195" lon="2.65466">
        <ele>660.2</ele>
        <time>2022-06-21T09:11:12Z</time>
      </trkpt>
      <trkpt lat="43.41195" lon="2.65466">
        <ele>660.2</ele>
        <time>2022-06-21T09:11:13Z</time>
      </trkpt>
      <trkpt lat="43.41195" lon="2.65466">
        <ele>660.2</ele>
        <time>2022-06-21T09:11:14Z</time>
      </trkpt>
      <trkpt lat="43.41195" lon="2.65466">
        <ele>660.2</ele>
        <time>2022-06-21T09:11:15Z</time>
      </trkpt>
      <trkpt lat="43.41195" lon="2.65466">
        <ele>660.2</ele>
        <time>2022-06-21T09:11:16Z</time>
      </trkpt>
      <trkpt lat="43.41195" lon="2.65466">
        <ele>660.2</ele>
        <time>2022-06-21T09:11:17Z</time>
      </trkpt>
      <trkpt lat="43.41195" lon="2.65466">
        <ele>660.2</ele>
        <time>2022-06-21T09:11:18Z</time>
      </trkpt>
      <trkpt lat="43.41195" lon="2.65466">
        <ele>660.2</ele>
        <time>2022-06-21T09:11:19Z</time>
      </trkpt>
      <trkpt lat="43.41196" lon="2.65466">
        <ele>660.2</ele>
        <time>2022-06-21T09:11:20Z</time>
      </trkpt>
      <trkpt lat="43.41197" lon="2.65466">
        <ele>660.1</ele>
        <time>2022-06-21T09:11:21Z</time>
      </trkpt>
      <trkpt lat="43.41198" lon="2.65467">
        <ele>660.1</ele>
        <time>2022-06-21T09:11:22Z</time>
      </trkpt>
      <trkpt lat="43.41199" lon="2.65467">
        <ele>660</ele>
        <time>2022-06-21T09:11:23Z</time>
      </trkpt>
      <trkpt lat="43.412" lon="2.65468">
        <ele>659.9</ele>
        <time>2022-06-21T09:11:24Z</time>
      </trkpt>
      <trkpt lat="43.41201" lon="2.65468">
        <ele>659.9</ele>
        <time>2022-06-21T09:11:25Z</time>
      </trkpt>
      <trkpt lat="43.41202" lon="2.65467">
        <ele>659.8</ele>
        <time>2022-06-21T09:11:26Z</time>
      </trkpt>
      <trkpt lat="43.41203" lon="2.65467">
        <ele>659.8</ele>
        <time>2022-06-21T09:11:27Z</time>
      </trkpt>
      <trkpt lat="43.41204" lon="2.65467">
        <ele>659.7</ele>
        <time>2022-06-21T09:11:28Z</time>
      </trkpt>
      <trkpt lat="43.41205" lon="2.65467">
        <ele>659.6</ele>
        <time>2022-06-21T09:11:29Z</time>
      </trkpt>
      <trkpt lat="43.41206" lon="2.65467">
        <ele>659.6</ele>
        <time>2022-06-21T09:11:30Z</time>
      </trkpt>
      <trkpt lat="43.41208" lon="2.65467">
        <ele>659.5</ele>
        <time>2022-06-21T09:11:31Z</time>
      </trkpt>
      <trkpt lat="43.41208" lon="2.65467">
        <ele>659.5</ele>
        <time>2022-06-21T09:11:32Z</time>
      </trkpt>
      <trkpt lat="43.41209" lon="2.65467">
        <ele>659.4</ele>
        <time>2022-06-21T09:11:33Z</time>
      </trkpt>
      <trkpt lat="43.4121" lon="2.65467">
        <ele>659.4</ele>
        <time>2022-06-21T09:11:34Z</time>
      </trkpt>
      <trkpt lat="43.41211" lon="2.65467">
        <ele>659.4</ele>
        <time>2022-06-21T09:11:35Z</time>
      </trkpt>
      <trkpt lat="43.41212" lon="2.65467">
        <ele>659.3</ele>
        <time>2022-06-21T09:11:36Z</time>
      </trkpt>
      <trkpt lat="43.41213" lon="2.65468">
        <ele>659.3</ele>
        <time>2022-06-21T09:11:37Z</time>
      </trkpt>
      <trkpt lat="43.41214" lon="2.65468">
        <ele>659.2</ele>
        <time>2022-06-21T09:11:38Z</time>
      </trkpt>
      <trkpt lat="43.41215" lon="2.65468">
        <ele>659.2</ele>
        <time>2022-06-21T09:11:39Z</time>
      </trkpt>
      <trkpt lat="43.41216" lon="2.65468">
        <ele>659.1</ele>
        <time>2022-06-21T09:11:40Z</time>
      </trkpt>
      <trkpt lat="43.41217" lon="2.65468">
        <ele>659.1</ele>
        <time>2022-06-21T09:11:41Z</time>
      </trkpt>
      <trkpt lat="43.41218" lon="2.65468">
        <ele>659.1</ele>
        <time>2022-06-21T09:11:42Z</time>
      </trkpt>
      <trkpt lat="43.41219" lon="2.65468">
        <ele>659</ele>
        <time>2022-06-21T09:11:43Z</time>
      </trkpt>
      <trkpt lat="43.4122" lon="2.65469">
        <ele>659</ele>
        <time>2022-06-21T09:11:44Z</time>
      </trkpt>
      <trkpt lat="43.41221" lon="2.65468">
        <ele>658.9</ele>
        <time>2022-06-21T09:11:45Z</time>
      </trkpt>
      <trkpt lat="43.41222" lon="2.65468">
        <ele>658.9</ele>
        <time>2022-06-21T09:11:46Z</time>
      </trkpt>
      <trkpt lat="43.41224" lon="2.65468">
        <ele>658.8</ele>
        <time>2022-06-21T09:11:47Z</time>
      </trkpt>
      <trkpt lat="43.41224" lon="2.65468">
        <ele>658.8</ele>
        <time>2022-06-21T09:11:48Z</time>
      </trkpt>
      <trkpt lat="43.41226" lon="2.65468">
        <ele>658.7</ele>
        <time>2022-06-21T09:11:49Z</time>
      </trkpt>
      <trkpt lat="43.41226" lon="2.65469">
        <ele>658.7</ele>
        <time>2022-06-21T09:11:50Z</time>
      </trkpt>
      <trkpt lat="43.41227" lon="2.65469">
        <ele>658.6</ele>
        <time>2022-06-21T09:11:51Z</time>
      </trkpt>
      <trkpt lat="43.41228" lon="2.6547">
        <ele>658.6</ele>
        <time>2022-06-21T09:11:52Z</time>
      </trkpt>
      <trkpt lat="43.41229" lon="2.6547">
        <ele>658.5</ele>
        <time>2022-06-21T09:11:53Z</time>
      </trkpt>
      <trkpt lat="43.4123" lon="2.65471">
        <ele>658.5</ele>
        <time>2022-06-21T09:11:54Z</time>
      </trkpt>
      <trkpt lat="43.41231" lon="2.65471">
        <ele>658.4</ele>
        <time>2022-06-21T09:11:55Z</time>
      </trkpt>
      <trkpt lat="43.41232" lon="2.65472">
        <ele>658.3</ele>
        <time>2022-06-21T09:11:56Z</time>
      </trkpt>
      <trkpt lat="43.41233" lon="2.65472">
        <ele>658.3</ele>
        <time>2022-06-21T09:11:57Z</time>
      </trkpt>
      <trkpt lat="43.41234" lon="2.65473">
        <ele>658.2</ele>
        <time>2022-06-21T09:11:58Z</time>
      </trkpt>
      <trkpt lat="43.41235" lon="2.65474">
        <ele>658.1</ele>
        <time>2022-06-21T09:11:59Z</time>
      </trkpt>
      <trkpt lat="43.41235" lon="2.65475">
        <ele>658.1</ele>
        <time>2022-06-21T09:12:00Z</time>
      </trkpt>
      <trkpt lat="43.41236" lon="2.65475">
        <ele>658</ele>
        <time>2022-06-21T09:12:01Z</time>
      </trkpt>
      <trkpt lat="43.41237" lon="2.65476">
        <ele>657.9</ele>
        <time>2022-06-21T09:12:02Z</time>
      </trkpt>
      <trkpt lat="43.41238" lon="2.65476">
        <ele>657.9</ele>
        <time>2022-06-21T09:12:03Z</time>
      </trkpt>
      <trkpt lat="43.41239" lon="2.65477">
        <ele>657.8</ele>
        <time>2022-06-21T09:12:04Z</time>
      </trkpt>
      <trkpt lat="43.41239" lon="2.65477">
        <ele>657.8</ele>
        <time>2022-06-21T09:12:05Z</time>
      </trkpt>
      <trkpt lat="43.41241" lon="2.65478">
        <ele>657.6</ele>
        <time>2022-06-21T09:12:06Z</time>
      </trkpt>
      <trkpt lat="43.41242" lon="2.65479">
        <ele>657.6</ele>
        <time>2022-06-21T09:12:07Z</time>
      </trkpt>
      <trkpt lat="43.41242" lon="2.65479">
        <ele>657.6</ele>
        <time>2022-06-21T09:12:08Z</time>
      </trkpt>
      <trkpt lat="43.41243" lon="2.6548">
        <ele>657.5</ele>
        <time>2022-06-21T09:12:09Z</time>
      </trkpt>
      <trkpt lat="43.41244" lon="2.65481">
        <ele>657.4</ele>
        <time>2022-06-21T09:12:10Z</time>
      </trkpt>
      <trkpt lat="43.41245" lon="2.65481">
        <ele>657.4</ele>
        <time>2022-06-21T09:12:11Z</time>
      </trkpt>
      <trkpt lat="43.41246" lon="2.65481">
        <ele>657.3</ele>
        <time>2022-06-21T09:12:12Z</time>
      </trkpt>
      <trkpt lat="43.41247" lon="2.65482">
        <ele>657.2</ele>
        <time>2022-06-21T09:12:13Z</time>
      </trkpt>
      <trkpt lat="43.41248" lon="2.65482">
        <ele>657.2</ele>
        <time>2022-06-21T09:12:14Z</time>
      </trkpt>
      <trkpt lat="43.41248" lon="2.65483">
        <ele>657.1</ele>
        <time>2022-06-21T09:12:15Z</time>
      </trkpt>
      <trkpt lat="43.41249" lon="2.65483">
        <ele>657.1</ele>
        <time>2022-06-21T09:12:16Z</time>
      </trkpt>
      <trkpt lat="43.4125" lon="2.65484">
        <ele>657</ele>
        <time>2022-06-21T09:12:17Z</time>
      </trkpt>
      <trkpt lat="43.41251" lon="2.65485">
        <ele>656.9</ele>
        <time>2022-06-21T09:12:18Z</time>
      </trkpt>
      <trkpt lat="43.41252" lon="2.65485">
        <ele>656.9</ele>
        <time>2022-06-21T09:12:19Z</time>
      </trkpt>
      <trkpt lat="43.41253" lon="2.65486">
        <ele>656.8</ele>
        <time>2022-06-21T09:12:20Z</time>
      </trkpt>
      <trkpt lat="43.41254" lon="2.65486">
        <ele>656.8</ele>
        <time>2022-06-21T09:12:21Z</time>
      </trkpt>
      <trkpt lat="43.41255" lon="2.65486">
        <ele>656.7</ele>
        <time>2022-06-21T09:12:22Z</time>
      </trkpt>
      <trkpt lat="43.41256" lon="2.65487">
        <ele>656.7</ele>
        <time>2022-06-21T09:12:23Z</time>
      </trkpt>
      <trkpt lat="43.41257" lon="2.65488">
        <ele>656.6</ele>
        <time>2022-06-21T09:12:24Z</time>
      </trkpt>
      <trkpt lat="43.41258" lon="2.65488">
        <ele>656.6</ele>
        <time>2022-06-21T09:12:25Z</time>
      </trkpt>
      <trkpt lat="43.41259" lon="2.65489">
        <ele>656.5</ele>
        <time>2022-06-21T09:12:26Z</time>
      </trkpt>
      <trkpt lat="43.4126" lon="2.65489">
        <ele>656.4</ele>
        <time>2022-06-21T09:12:27Z</time>
      </trkpt>
      <trkpt lat="43.41261" lon="2.6549">
        <ele>656.4</ele>
        <time>2022-06-21T09:12:28Z</time>
      </trkpt>
      <trkpt lat="43.41262" lon="2.6549">
        <ele>656.3</ele>
        <time>2022-06-21T09:12:29Z</time>
      </trkpt>
      <trkpt lat="43.41263" lon="2.65491">
        <ele>656.2</ele>
        <time>2022-06-21T09:12:30Z</time>
      </trkpt>
      <trkpt lat="43.41263" lon="2.65492">
        <ele>656.2</ele>
        <time>2022-06-21T09:12:31Z</time>
      </trkpt>
      <trkpt lat="43.41264" lon="2.65492">
        <ele>656.1</ele>
        <time>2022-06-21T09:12:32Z</time>
      </trkpt>
      <trkpt lat="43.41265" lon="2.65493">
        <ele>656.1</ele>
        <time>2022-06-21T09:12:33Z</time>
      </trkpt>
      <trkpt lat="43.41266" lon="2.65493">
        <ele>656</ele>
        <time>2022-06-21T09:12:34Z</time>
      </trkpt>
      <trkpt lat="43.41267" lon="2.65494">
        <ele>655.9</ele>
        <time>2022-06-21T09:12:35Z</time>
      </trkpt>
      <trkpt lat="43.41268" lon="2.65494">
        <ele>655.8</ele>
        <time>2022-06-21T09:12:36Z</time>
      </trkpt>
      <trkpt lat="43.41269" lon="2.65495">
        <ele>655.7</ele>
        <time>2022-06-21T09:12:37Z</time>
      </trkpt>
      <trkpt lat="43.4127" lon="2.65495">
        <ele>655.6</ele>
        <time>2022-06-21T09:12:38Z</time>
      </trkpt>
      <trkpt lat="43.41271" lon="2.65496">
        <ele>655.6</ele>
        <time>2022-06-21T09:12:39Z</time>
      </trkpt>
      <trkpt lat="43.41272" lon="2.65497">
        <ele>655.5</ele>
        <time>2022-06-21T09:12:40Z</time>
      </trkpt>
      <trkpt lat="43.41273" lon="2.65498">
        <ele>655.4</ele>
        <time>2022-06-21T09:12:41Z</time>
      </trkpt>
      <trkpt lat="43.41274" lon="2.65498">
        <ele>655.3</ele>
        <time>2022-06-21T09:12:42Z</time>
      </trkpt>
      <trkpt lat="43.41274" lon="2.65498">
        <ele>655.2</ele>
        <time>2022-06-21T09:12:43Z</time>
      </trkpt>
      <trkpt lat="43.41275" lon="2.65499">
        <ele>655.1</ele>
        <time>2022-06-21T09:12:44Z</time>
      </trkpt>
      <trkpt lat="43.41276" lon="2.65499">
        <ele>655</ele>
        <time>2022-06-21T09:12:45Z</time>
      </trkpt>
      <trkpt lat="43.41277" lon="2.655">
        <ele>654.9</ele>
        <time>2022-06-21T09:12:46Z</time>
      </trkpt>
      <trkpt lat="43.41278" lon="2.65501">
        <ele>654.8</ele>
        <time>2022-06-21T09:12:47Z</time>
      </trkpt>
      <trkpt lat="43.41279" lon="2.65501">
        <ele>654.7</ele>
        <time>2022-06-21T09:12:48Z</time>
      </trkpt>
      <trkpt lat="43.4128" lon="2.65501">
        <ele>654.6</ele>
        <time>2022-06-21T09:12:49Z</time>
      </trkpt>
      <trkpt lat="43.4128" lon="2.65502">
        <ele>654.5</ele>
        <time>2022-06-21T09:12:50Z</time>
      </trkpt>
      <trkpt lat="43.41281" lon="2.65502">
        <ele>654.4</ele>
        <time>2022-06-21T09:12:51Z</time>
      </trkpt>
      <trkpt lat="43.41282" lon="2.65502">
        <ele>654.3</ele>
        <time>2022-06-21T09:12:52Z</time>
      </trkpt>
      <trkpt lat="43.41283" lon="2.65503">
        <ele>654.2</ele>
        <time>2022-06-21T09:12:53Z</time>
      </trkpt>
      <trkpt lat="43.41284" lon="2.65504">
        <ele>654</ele>
        <time>2022-06-21T09:12:54Z</time>
      </trkpt>
      <trkpt lat="43.41285" lon="2.65504">
        <ele>653.9</ele>
        <time>2022-06-21T09:12:55Z</time>
      </trkpt>
      <trkpt lat="43.41286" lon="2.65504">
        <ele>653.9</ele>
        <time>2022-06-21T09:12:56Z</time>
      </trkpt>
      <trkpt lat="43.41287" lon="2.65505">
        <ele>653.8</ele>
        <time>2022-06-21T09:12:57Z</time>
      </trkpt>
      <trkpt lat="43.41288" lon="2.65505">
        <ele>653.6</ele>
        <time>2022-06-21T09:12:58Z</time>
      </trkpt>
      <trkpt lat="43.41289" lon="2.65505">
        <ele>653.5</ele>
        <time>2022-06-21T09:12:59Z</time>
      </trkpt>
      <trkpt lat="43.4129" lon="2.65505">
        <ele>653.3</ele>
        <time>2022-06-21T09:13:00Z</time>
      </trkpt>
      <trkpt lat="43.41291" lon="2.65506">
        <ele>653.3</ele>
        <time>2022-06-21T09:13:01Z</time>
      </trkpt>
      <trkpt lat="43.41291" lon="2.65506">
        <ele>653.2</ele>
        <time>2022-06-21T09:13:02Z</time>
      </trkpt>
      <trkpt lat="43.41292" lon="2.65506">
        <ele>653.1</ele>
        <time>2022-06-21T09:13:03Z</time>
      </trkpt>
      <trkpt lat="43.41293" lon="2.65507">
        <ele>652.9</ele>
        <time>2022-06-21T09:13:04Z</time>
      </trkpt>
      <trkpt lat="43.41294" lon="2.65507">
        <ele>652.8</ele>
        <time>2022-06-21T09:13:05Z</time>
      </trkpt>
      <trkpt lat="43.41295" lon="2.65507">
        <ele>652.7</ele>
        <time>2022-06-21T09:13:06Z</time>
      </trkpt>
      <trkpt lat="43.41296" lon="2.65508">
        <ele>652.6</ele>
        <time>2022-06-21T09:13:07Z</time>
      </trkpt>
      <trkpt lat="43.41296" lon="2.65508">
        <ele>652.5</ele>
        <time>2022-06-21T09:13:08Z</time>
      </trkpt>
      <trkpt lat="43.41297" lon="2.65509">
        <ele>652.3</ele>
        <time>2022-06-21T09:13:09Z</time>
      </trkpt>
      <trkpt lat="43.41298" lon="2.65509">
        <ele>652.2</ele>
        <time>2022-06-21T09:13:10Z</time>
      </trkpt>
      <trkpt lat="43.41299" lon="2.6551">
        <ele>652.1</ele>
        <time>2022-06-21T09:13:11Z</time>
      </trkpt>
      <trkpt lat="43.413" lon="2.6551">
        <ele>652</ele>
        <time>2022-06-21T09:13:12Z</time>
      </trkpt>
      <trkpt lat="43.41301" lon="2.6551">
        <ele>651.9</ele>
        <time>2022-06-21T09:13:13Z</time>
      </trkpt>
      <trkpt lat="43.41302" lon="2.65511">
        <ele>651.8</ele>
        <time>2022-06-21T09:13:14Z</time>
      </trkpt>
      <trkpt lat="43.41303" lon="2.65511">
        <ele>651.7</ele>
        <time>2022-06-21T09:13:15Z</time>
      </trkpt>
      <trkpt lat="43.41303" lon="2.65512">
        <ele>651.6</ele>
        <time>2022-06-21T09:13:16Z</time>
      </trkpt>
      <trkpt lat="43.41304" lon="2.65512">
        <ele>651.5</ele>
        <time>2022-06-21T09:13:17Z</time>
      </trkpt>
      <trkpt lat="43.41305" lon="2.65513">
        <ele>651.4</ele>
        <time>2022-06-21T09:13:18Z</time>
      </trkpt>
      <trkpt lat="43.41306" lon="2.65513">
        <ele>651.3</ele>
        <time>2022-06-21T09:13:19Z</time>
      </trkpt>
      <trkpt lat="43.41307" lon="2.65513">
        <ele>651.2</ele>
        <time>2022-06-21T09:13:20Z</time>
      </trkpt>
      <trkpt lat="43.41308" lon="2.65514">
        <ele>651.1</ele>
        <time>2022-06-21T09:13:21Z</time>
      </trkpt>
      <trkpt lat="43.41309" lon="2.65514">
        <ele>651</ele>
        <time>2022-06-21T09:13:22Z</time>
      </trkpt>
      <trkpt lat="43.41309" lon="2.65514">
        <ele>650.9</ele>
        <time>2022-06-21T09:13:23Z</time>
      </trkpt>
      <trkpt lat="43.4131" lon="2.65515">
        <ele>650.8</ele>
        <time>2022-06-21T09:13:24Z</time>
      </trkpt>
      <trkpt lat="43.41311" lon="2.65515">
        <ele>650.7</ele>
        <time>2022-06-21T09:13:25Z</time>
      </trkpt>
      <trkpt lat="43.41312" lon="2.65516">
        <ele>650.6</ele>
        <time>2022-06-21T09:13:26Z</time>
      </trkpt>
      <trkpt lat="43.41313" lon="2.65516">
        <ele>650.5</ele>
        <time>2022-06-21T09:13:27Z</time>
      </trkpt>
      <trkpt lat="43.41314" lon="2.65517">
        <ele>650.4</ele>
        <time>2022-06-21T09:13:28Z</time>
      </trkpt>
      <trkpt lat="43.41315" lon="2.65517">
        <ele>650.3</ele>
        <time>2022-06-21T09:13:29Z</time>
      </trkpt>
      <trkpt lat="43.41316" lon="2.65517">
        <ele>650.2</ele>
        <time>2022-06-21T09:13:30Z</time>
      </trkpt>
      <trkpt lat="43.41317" lon="2.65518">
        <ele>650.1</ele>
        <time>2022-06-21T09:13:31Z</time>
      </trkpt>
      <trkpt lat="43.41317" lon="2.65518">
        <ele>650</ele>
        <time>2022-06-21T09:13:32Z</time>
      </trkpt>
      <trkpt lat="43.41318" lon="2.65519">
        <ele>649.9</ele>
        <time>2022-06-21T09:13:33Z</time>
      </trkpt>
      <trkpt lat="43.41319" lon="2.6552">
        <ele>649.8</ele>
        <time>2022-06-21T09:13:34Z</time>
      </trkpt>
      <trkpt lat="43.4132" lon="2.6552">
        <ele>649.7</ele>
        <time>2022-06-21T09:13:35Z</time>
      </trkpt>
      <trkpt lat="43.41321" lon="2.6552">
        <ele>649.7</ele>
        <time>2022-06-21T09:13:36Z</time>
      </trkpt>
      <trkpt lat="43.41322" lon="2.65521">
        <ele>649.6</ele>
        <time>2022-06-21T09:13:37Z</time>
      </trkpt>
      <trkpt lat="43.41322" lon="2.65521">
        <ele>649.5</ele>
        <time>2022-06-21T09:13:38Z</time>
      </trkpt>
      <trkpt lat="43.41323" lon="2.65522">
        <ele>649.4</ele>
        <time>2022-06-21T09:13:39Z</time>
      </trkpt>
      <trkpt lat="43.41324" lon="2.65522">
        <ele>649.3</ele>
        <time>2022-06-21T09:13:40Z</time>
      </trkpt>
      <trkpt lat="43.41325" lon="2.65523">
        <ele>649.2</ele>
        <time>2022-06-21T09:13:41Z</time>
      </trkpt>
      <trkpt lat="43.41326" lon="2.65524">
        <ele>649.2</ele>
        <time>2022-06-21T09:13:42Z</time>
      </trkpt>
      <trkpt lat="43.41327" lon="2.65524">
        <ele>649.1</ele>
        <time>2022-06-21T09:13:43Z</time>
      </trkpt>
      <trkpt lat="43.41327" lon="2.65525">
        <ele>649.1</ele>
        <time>2022-06-21T09:13:44Z</time>
      </trkpt>
      <trkpt lat="43.41328" lon="2.65525">
        <ele>649</ele>
        <time>2022-06-21T09:13:45Z</time>
      </trkpt>
      <trkpt lat="43.41329" lon="2.65526">
        <ele>648.9</ele>
        <time>2022-06-21T09:13:46Z</time>
      </trkpt>
      <trkpt lat="43.41331" lon="2.65526">
        <ele>648.8</ele>
        <time>2022-06-21T09:13:47Z</time>
      </trkpt>
      <trkpt lat="43.41331" lon="2.65527">
        <ele>648.7</ele>
        <time>2022-06-21T09:13:48Z</time>
      </trkpt>
      <trkpt lat="43.41332" lon="2.65527">
        <ele>648.6</ele>
        <time>2022-06-21T09:13:49Z</time>
      </trkpt>
      <trkpt lat="43.41333" lon="2.65528">
        <ele>648.6</ele>
        <time>2022-06-21T09:13:50Z</time>
      </trkpt>
      <trkpt lat="43.41333" lon="2.65528">
        <ele>648.5</ele>
        <time>2022-06-21T09:13:51Z</time>
      </trkpt>
      <trkpt lat="43.41334" lon="2.65529">
        <ele>648.5</ele>
        <time>2022-06-21T09:13:52Z</time>
      </trkpt>
      <trkpt lat="43.41335" lon="2.65529">
        <ele>648.4</ele>
        <time>2022-06-21T09:13:53Z</time>
      </trkpt>
      <trkpt lat="43.41336" lon="2.65529">
        <ele>648.3</ele>
        <time>2022-06-21T09:13:54Z</time>
      </trkpt>
      <trkpt lat="43.41337" lon="2.6553">
        <ele>648.2</ele>
        <time>2022-06-21T09:13:55Z</time>
      </trkpt>
      <trkpt lat="43.41338" lon="2.6553">
        <ele>648.1</ele>
        <time>2022-06-21T09:13:56Z</time>
      </trkpt>
      <trkpt lat="43.41339" lon="2.65531">
        <ele>648</ele>
        <time>2022-06-21T09:13:57Z</time>
      </trkpt>
      <trkpt lat="43.4134" lon="2.65531">
        <ele>647.9</ele>
        <time>2022-06-21T09:13:58Z</time>
      </trkpt>
      <trkpt lat="43.41341" lon="2.65532">
        <ele>647.9</ele>
        <time>2022-06-21T09:13:59Z</time>
      </trkpt>
      <trkpt lat="43.41341" lon="2.65532">
        <ele>647.8</ele>
        <time>2022-06-21T09:14:00Z</time>
      </trkpt>
      <trkpt lat="43.41342" lon="2.65532">
        <ele>647.7</ele>
        <time>2022-06-21T09:14:01Z</time>
      </trkpt>
      <trkpt lat="43.41343" lon="2.65532">
        <ele>647.7</ele>
        <time>2022-06-21T09:14:02Z</time>
      </trkpt>
      <trkpt lat="43.41344" lon="2.65532">
        <ele>647.6</ele>
        <time>2022-06-21T09:14:03Z</time>
      </trkpt>
      <trkpt lat="43.41345" lon="2.65532">
        <ele>647.5</ele>
        <time>2022-06-21T09:14:04Z</time>
      </trkpt>
      <trkpt lat="43.41346" lon="2.65533">
        <ele>647.4</ele>
        <time>2022-06-21T09:14:05Z</time>
      </trkpt>
      <trkpt lat="43.41347" lon="2.65533">
        <ele>647.4</ele>
        <time>2022-06-21T09:14:06Z</time>
      </trkpt>
      <trkpt lat="43.41348" lon="2.65533">
        <ele>647.3</ele>
        <time>2022-06-21T09:14:07Z</time>
      </trkpt>
      <trkpt lat="43.41348" lon="2.65533">
        <ele>647.2</ele>
        <time>2022-06-21T09:14:08Z</time>
      </trkpt>
      <trkpt lat="43.41349" lon="2.65533">
        <ele>647.1</ele>
        <time>2022-06-21T09:14:09Z</time>
      </trkpt>
      <trkpt lat="43.41352" lon="2.65532">
        <ele>647</ele>
        <time>2022-06-21T09:14:10Z</time>
      </trkpt>
      <trkpt lat="43.41353" lon="2.65532">
        <ele>646.8</ele>
        <time>2022-06-21T09:14:13Z</time>
      </trkpt>
      <trkpt lat="43.41354" lon="2.65531">
        <ele>646.7</ele>
        <time>2022-06-21T09:14:14Z</time>
      </trkpt>
      <trkpt lat="43.41355" lon="2.65531">
        <ele>646.6</ele>
        <time>2022-06-21T09:14:15Z</time>
      </trkpt>
      <trkpt lat="43.41356" lon="2.65531">
        <ele>646.5</ele>
        <time>2022-06-21T09:14:16Z</time>
      </trkpt>
      <trkpt lat="43.41357" lon="2.65531">
        <ele>646.4</ele>
        <time>2022-06-21T09:14:17Z</time>
      </trkpt>
      <trkpt lat="43.41358" lon="2.6553">
        <ele>646.3</ele>
        <time>2022-06-21T09:14:18Z</time>
      </trkpt>
      <trkpt lat="43.41359" lon="2.6553">
        <ele>646.2</ele>
        <time>2022-06-21T09:14:19Z</time>
      </trkpt>
      <trkpt lat="43.4136" lon="2.65529">
        <ele>646.1</ele>
        <time>2022-06-21T09:14:20Z</time>
      </trkpt>
      <trkpt lat="43.41361" lon="2.65529">
        <ele>646</ele>
        <time>2022-06-21T09:14:21Z</time>
      </trkpt>
      <trkpt lat="43.41362" lon="2.65528">
        <ele>645.9</ele>
        <time>2022-06-21T09:14:22Z</time>
      </trkpt>
      <trkpt lat="43.41363" lon="2.65527">
        <ele>645.8</ele>
        <time>2022-06-21T09:14:23Z</time>
      </trkpt>
      <trkpt lat="43.41364" lon="2.65526">
        <ele>645.8</ele>
        <time>2022-06-21T09:14:24Z</time>
      </trkpt>
      <trkpt lat="43.41365" lon="2.65525">
        <ele>645.7</ele>
        <time>2022-06-21T09:14:25Z</time>
      </trkpt>
      <trkpt lat="43.41365" lon="2.65524">
        <ele>645.7</ele>
        <time>2022-06-21T09:14:26Z</time>
      </trkpt>
      <trkpt lat="43.41366" lon="2.65523">
        <ele>645.6</ele>
        <time>2022-06-21T09:14:27Z</time>
      </trkpt>
      <trkpt lat="43.41367" lon="2.65522">
        <ele>645.6</ele>
        <time>2022-06-21T09:14:28Z</time>
      </trkpt>
      <trkpt lat="43.41367" lon="2.65521">
        <ele>645.6</ele>
        <time>2022-06-21T09:14:29Z</time>
      </trkpt>
      <trkpt lat="43.41368" lon="2.6552">
        <ele>645.6</ele>
        <time>2022-06-21T09:14:30Z</time>
      </trkpt>
      <trkpt lat="43.41368" lon="2.65519">
        <ele>645.6</ele>
        <time>2022-06-21T09:14:31Z</time>
      </trkpt>
      <trkpt lat="43.41369" lon="2.65519">
        <ele>645.6</ele>
        <time>2022-06-21T09:14:32Z</time>
      </trkpt>
      <trkpt lat="43.4137" lon="2.65518">
        <ele>645.6</ele>
        <time>2022-06-21T09:14:33Z</time>
      </trkpt>
      <trkpt lat="43.4137" lon="2.65517">
        <ele>645.6</ele>
        <time>2022-06-21T09:14:34Z</time>
      </trkpt>
      <trkpt lat="43.41371" lon="2.65516">
        <ele>645.6</ele>
        <time>2022-06-21T09:14:35Z</time>
      </trkpt>
      <trkpt lat="43.41371" lon="2.65514">
        <ele>645.6</ele>
        <time>2022-06-21T09:14:36Z</time>
      </trkpt>
      <trkpt lat="43.41372" lon="2.65514">
        <ele>645.7</ele>
        <time>2022-06-21T09:14:37Z</time>
      </trkpt>
      <trkpt lat="43.41372" lon="2.65512">
        <ele>645.7</ele>
        <time>2022-06-21T09:14:38Z</time>
      </trkpt>
      <trkpt lat="43.41373" lon="2.65511">
        <ele>645.8</ele>
        <time>2022-06-21T09:14:39Z</time>
      </trkpt>
      <trkpt lat="43.41373" lon="2.6551">
        <ele>645.8</ele>
        <time>2022-06-21T09:14:40Z</time>
      </trkpt>
      <trkpt lat="43.41374" lon="2.65509">
        <ele>645.8</ele>
        <time>2022-06-21T09:14:41Z</time>
      </trkpt>
      <trkpt lat="43.41375" lon="2.65508">
        <ele>645.9</ele>
        <time>2022-06-21T09:14:42Z</time>
      </trkpt>
      <trkpt lat="43.41375" lon="2.65507">
        <ele>646</ele>
        <time>2022-06-21T09:14:43Z</time>
      </trkpt>
      <trkpt lat="43.41376" lon="2.65505">
        <ele>646</ele>
        <time>2022-06-21T09:14:44Z</time>
      </trkpt>
      <trkpt lat="43.41376" lon="2.65504">
        <ele>646.1</ele>
        <time>2022-06-21T09:14:45Z</time>
      </trkpt>
      <trkpt lat="43.41376" lon="2.65503">
        <ele>646.1</ele>
        <time>2022-06-21T09:14:46Z</time>
      </trkpt>
      <trkpt lat="43.41377" lon="2.65502">
        <ele>646.2</ele>
        <time>2022-06-21T09:14:47Z</time>
      </trkpt>
      <trkpt lat="43.41377" lon="2.65501">
        <ele>646.2</ele>
        <time>2022-06-21T09:14:48Z</time>
      </trkpt>
      <trkpt lat="43.41377" lon="2.655">
        <ele>646.3</ele>
        <time>2022-06-21T09:14:49Z</time>
      </trkpt>
      <trkpt lat="43.41378" lon="2.65499">
        <ele>646.3</ele>
        <time>2022-06-21T09:14:50Z</time>
      </trkpt>
      <trkpt lat="43.41378" lon="2.65499">
        <ele>646.4</ele>
        <time>2022-06-21T09:14:51Z</time>
      </trkpt>
      <trkpt lat="43.41378" lon="2.65497">
        <ele>646.4</ele>
        <time>2022-06-21T09:14:52Z</time>
      </trkpt>
      <trkpt lat="43.41378" lon="2.65496">
        <ele>646.5</ele>
        <time>2022-06-21T09:14:53Z</time>
      </trkpt>
      <trkpt lat="43.41379" lon="2.65495">
        <ele>646.6</ele>
        <time>2022-06-21T09:14:54Z</time>
      </trkpt>
      <trkpt lat="43.41379" lon="2.65494">
        <ele>646.6</ele>
        <time>2022-06-21T09:14:55Z</time>
      </trkpt>
      <trkpt lat="43.4138" lon="2.65493">
        <ele>646.7</ele>
        <time>2022-06-21T09:14:56Z</time>
      </trkpt>
      <trkpt lat="43.4138" lon="2.65492">
        <ele>646.7</ele>
        <time>2022-06-21T09:14:57Z</time>
      </trkpt>
      <trkpt lat="43.4138" lon="2.65491">
        <ele>646.8</ele>
        <time>2022-06-21T09:14:58Z</time>
      </trkpt>
      <trkpt lat="43.41381" lon="2.6549">
        <ele>646.9</ele>
        <time>2022-06-21T09:14:59Z</time>
      </trkpt>
      <trkpt lat="43.41381" lon="2.65489">
        <ele>646.9</ele>
        <time>2022-06-21T09:15:00Z</time>
      </trkpt>
      <trkpt lat="43.41382" lon="2.65488">
        <ele>647</ele>
        <time>2022-06-21T09:15:01Z</time>
      </trkpt>
      <trkpt lat="43.41382" lon="2.65487">
        <ele>647</ele>
        <time>2022-06-21T09:15:02Z</time>
      </trkpt>
      <trkpt lat="43.41382" lon="2.65486">
        <ele>647.1</ele>
        <time>2022-06-21T09:15:03Z</time>
      </trkpt>
      <trkpt lat="43.41383" lon="2.65485">
        <ele>647.2</ele>
        <time>2022-06-21T09:15:04Z</time>
      </trkpt>
      <trkpt lat="43.41383" lon="2.65484">
        <ele>647.2</ele>
        <time>2022-06-21T09:15:05Z</time>
      </trkpt>
      <trkpt lat="43.41384" lon="2.65483">
        <ele>647.3</ele>
        <time>2022-06-21T09:15:06Z</time>
      </trkpt>
      <trkpt lat="43.41384" lon="2.65482">
        <ele>647.4</ele>
        <time>2022-06-21T09:15:07Z</time>
      </trkpt>
      <trkpt lat="43.41385" lon="2.65481">
        <ele>647.5</ele>
        <time>2022-06-21T09:15:08Z</time>
      </trkpt>
      <trkpt lat="43.41385" lon="2.65481">
        <ele>647.5</ele>
        <time>2022-06-21T09:15:09Z</time>
      </trkpt>
      <trkpt lat="43.41386" lon="2.6548">
        <ele>647.6</ele>
        <time>2022-06-21T09:15:10Z</time>
      </trkpt>
      <trkpt lat="43.41387" lon="2.6548">
        <ele>647.8</ele>
        <time>2022-06-21T09:15:11Z</time>
      </trkpt>
      <trkpt lat="43.41388" lon="2.65479">
        <ele>647.9</ele>
        <time>2022-06-21T09:15:12Z</time>
      </trkpt>
      <trkpt lat="43.41389" lon="2.65479">
        <ele>648</ele>
        <time>2022-06-21T09:15:13Z</time>
      </trkpt>
      <trkpt lat="43.4139" lon="2.65479">
        <ele>648.1</ele>
        <time>2022-06-21T09:15:14Z</time>
      </trkpt>
      <trkpt lat="43.41391" lon="2.65479">
        <ele>648.2</ele>
        <time>2022-06-21T09:15:15Z</time>
      </trkpt>
      <trkpt lat="43.41392" lon="2.65478">
        <ele>648.4</ele>
        <time>2022-06-21T09:15:16Z</time>
      </trkpt>
      <trkpt lat="43.41392" lon="2.65478">
        <ele>648.5</ele>
        <time>2022-06-21T09:15:17Z</time>
      </trkpt>
      <trkpt lat="43.41393" lon="2.65478">
        <ele>648.6</ele>
        <time>2022-06-21T09:15:18Z</time>
      </trkpt>
      <trkpt lat="43.41394" lon="2.65478">
        <ele>648.7</ele>
        <time>2022-06-21T09:15:19Z</time>
      </trkpt>
      <trkpt lat="43.41395" lon="2.65478">
        <ele>648.9</ele>
        <time>2022-06-21T09:15:20Z</time>
      </trkpt>
      <trkpt lat="43.41396" lon="2.65478">
        <ele>649</ele>
        <time>2022-06-21T09:15:21Z</time>
      </trkpt>
      <trkpt lat="43.41396" lon="2.65479">
        <ele>649.2</ele>
        <time>2022-06-21T09:15:22Z</time>
      </trkpt>
      <trkpt lat="43.41397" lon="2.65479">
        <ele>649.3</ele>
        <time>2022-06-21T09:15:23Z</time>
      </trkpt>
      <trkpt lat="43.41398" lon="2.65479">
        <ele>649.5</ele>
        <time>2022-06-21T09:15:24Z</time>
      </trkpt>
      <trkpt lat="43.41398" lon="2.6548">
        <ele>649.6</ele>
        <time>2022-06-21T09:15:25Z</time>
      </trkpt>
      <trkpt lat="43.41399" lon="2.6548">
        <ele>649.6</ele>
        <time>2022-06-21T09:15:26Z</time>
      </trkpt>
      <trkpt lat="43.41399" lon="2.6548">
        <ele>649.8</ele>
        <time>2022-06-21T09:15:27Z</time>
      </trkpt>
      <trkpt lat="43.414" lon="2.65481">
        <ele>649.9</ele>
        <time>2022-06-21T09:15:28Z</time>
      </trkpt>
      <trkpt lat="43.41401" lon="2.65482">
        <ele>650.1</ele>
        <time>2022-06-21T09:15:29Z</time>
      </trkpt>
      <trkpt lat="43.41401" lon="2.65482">
        <ele>650.2</ele>
        <time>2022-06-21T09:15:30Z</time>
      </trkpt>
      <trkpt lat="43.41402" lon="2.65483">
        <ele>650.4</ele>
        <time>2022-06-21T09:15:31Z</time>
      </trkpt>
      <trkpt lat="43.41402" lon="2.65484">
        <ele>650.5</ele>
        <time>2022-06-21T09:15:32Z</time>
      </trkpt>
      <trkpt lat="43.41403" lon="2.65484">
        <ele>650.7</ele>
        <time>2022-06-21T09:15:33Z</time>
      </trkpt>
      <trkpt lat="43.41403" lon="2.65484">
        <ele>650.8</ele>
        <time>2022-06-21T09:15:34Z</time>
      </trkpt>
      <trkpt lat="43.41404" lon="2.65485">
        <ele>650.9</ele>
        <time>2022-06-21T09:15:35Z</time>
      </trkpt>
      <trkpt lat="43.41404" lon="2.65485">
        <ele>651.1</ele>
        <time>2022-06-21T09:15:36Z</time>
      </trkpt>
      <trkpt lat="43.41405" lon="2.65486">
        <ele>651.2</ele>
        <time>2022-06-21T09:15:37Z</time>
      </trkpt>
      <trkpt lat="43.41405" lon="2.65487">
        <ele>651.4</ele>
        <time>2022-06-21T09:15:38Z</time>
      </trkpt>
      <trkpt lat="43.41406" lon="2.65488">
        <ele>651.6</ele>
        <time>2022-06-21T09:15:39Z</time>
      </trkpt>
      <trkpt lat="43.41406" lon="2.65489">
        <ele>651.8</ele>
        <time>2022-06-21T09:15:40Z</time>
      </trkpt>
      <trkpt lat="43.41407" lon="2.6549">
        <ele>651.9</ele>
        <time>2022-06-21T09:15:41Z</time>
      </trkpt>
      <trkpt lat="43.41407" lon="2.6549">
        <ele>652.1</ele>
        <time>2022-06-21T09:15:42Z</time>
      </trkpt>
      <trkpt lat="43.41407" lon="2.65492">
        <ele>652.3</ele>
        <time>2022-06-21T09:15:43Z</time>
      </trkpt>
      <trkpt lat="43.41408" lon="2.65492">
        <ele>652.4</ele>
        <time>2022-06-21T09:15:44Z</time>
      </trkpt>
      <trkpt lat="43.41408" lon="2.65493">
        <ele>652.6</ele>
        <time>2022-06-21T09:15:45Z</time>
      </trkpt>
      <trkpt lat="43.41409" lon="2.65494">
        <ele>652.8</ele>
        <time>2022-06-21T09:15:46Z</time>
      </trkpt>
      <trkpt lat="43.41409" lon="2.65495">
        <ele>652.9</ele>
        <time>2022-06-21T09:15:47Z</time>
      </trkpt>
      <trkpt lat="43.41409" lon="2.65496">
        <ele>653.1</ele>
        <time>2022-06-21T09:15:48Z</time>
      </trkpt>
      <trkpt lat="43.41409" lon="2.65497">
        <ele>653.2</ele>
        <time>2022-06-21T09:15:49Z</time>
      </trkpt>
      <trkpt lat="43.41409" lon="2.65497">
        <ele>653.3</ele>
        <time>2022-06-21T09:15:50Z</time>
      </trkpt>
      <trkpt lat="43.41409" lon="2.65497">
        <ele>653.3</ele>
        <time>2022-06-21T09:15:51Z</time>
      </trkpt>
      <trkpt lat="43.41409" lon="2.65497">
        <ele>653.3</ele>
        <time>2022-06-21T09:15:52Z</time>
      </trkpt>
      <trkpt lat="43.41409" lon="2.65497">
        <ele>653.3</ele>
        <time>2022-06-21T09:15:53Z</time>
      </trkpt>
      <trkpt lat="43.4141" lon="2.65497">
        <ele>653.4</ele>
        <time>2022-06-21T09:15:54Z</time>
      </trkpt>
      <trkpt lat="43.4141" lon="2.65498">
        <ele>653.4</ele>
        <time>2022-06-21T09:15:55Z</time>
      </trkpt>
      <trkpt lat="43.4141" lon="2.65498">
        <ele>653.5</ele>
        <time>2022-06-21T09:15:56Z</time>
      </trkpt>
      <trkpt lat="43.41409" lon="2.65498">
        <ele>653.5</ele>
        <time>2022-06-21T09:15:57Z</time>
      </trkpt>
      <trkpt lat="43.41409" lon="2.65498">
        <ele>653.5</ele>
        <time>2022-06-21T09:15:58Z</time>
      </trkpt>
      <trkpt lat="43.41409" lon="2.65498">
        <ele>653.5</ele>
        <time>2022-06-21T09:15:59Z</time>
      </trkpt>
      <trkpt lat="43.41409" lon="2.65498">
        <ele>653.5</ele>
        <time>2022-06-21T09:16:00Z</time>
      </trkpt>
      <trkpt lat="43.41409" lon="2.65498">
        <ele>653.6</ele>
        <time>2022-06-21T09:16:01Z</time>
      </trkpt>
      <trkpt lat="43.4141" lon="2.65499">
        <ele>653.7</ele>
        <time>2022-06-21T09:16:02Z</time>
      </trkpt>
      <trkpt lat="43.4141" lon="2.65499">
        <ele>653.8</ele>
        <time>2022-06-21T09:16:03Z</time>
      </trkpt>
      <trkpt lat="43.4141" lon="2.655">
        <ele>654</ele>
        <time>2022-06-21T09:16:04Z</time>
      </trkpt>
      <trkpt lat="43.41411" lon="2.65501">
        <ele>654.1</ele>
        <time>2022-06-21T09:16:05Z</time>
      </trkpt>
      <trkpt lat="43.41411" lon="2.65502">
        <ele>654.3</ele>
        <time>2022-06-21T09:16:06Z</time>
      </trkpt>
      <trkpt lat="43.41412" lon="2.65502">
        <ele>654.4</ele>
        <time>2022-06-21T09:16:07Z</time>
      </trkpt>
      <trkpt lat="43.41412" lon="2.65503">
        <ele>654.6</ele>
        <time>2022-06-21T09:16:08Z</time>
      </trkpt>
      <trkpt lat="43.41413" lon="2.65504">
        <ele>654.8</ele>
        <time>2022-06-21T09:16:09Z</time>
      </trkpt>
      <trkpt lat="43.41413" lon="2.65505">
        <ele>654.9</ele>
        <time>2022-06-21T09:16:10Z</time>
      </trkpt>
      <trkpt lat="43.41413" lon="2.65506">
        <ele>655.1</ele>
        <time>2022-06-21T09:16:11Z</time>
      </trkpt>
      <trkpt lat="43.41414" lon="2.65507">
        <ele>655.3</ele>
        <time>2022-06-21T09:16:12Z</time>
      </trkpt>
      <trkpt lat="43.41415" lon="2.65507">
        <ele>655.4</ele>
        <time>2022-06-21T09:16:13Z</time>
      </trkpt>
      <trkpt lat="43.41415" lon="2.65508">
        <ele>655.6</ele>
        <time>2022-06-21T09:16:14Z</time>
      </trkpt>
      <trkpt lat="43.41416" lon="2.65509">
        <ele>655.8</ele>
        <time>2022-06-21T09:16:15Z</time>
      </trkpt>
      <trkpt lat="43.41416" lon="2.6551">
        <ele>655.9</ele>
        <time>2022-06-21T09:16:16Z</time>
      </trkpt>
      <trkpt lat="43.41416" lon="2.6551">
        <ele>656</ele>
        <time>2022-06-21T09:16:17Z</time>
      </trkpt>
      <trkpt lat="43.41417" lon="2.65511">
        <ele>656.2</ele>
        <time>2022-06-21T09:16:18Z</time>
      </trkpt>
      <trkpt lat="43.41417" lon="2.65512">
        <ele>656.3</ele>
        <time>2022-06-21T09:16:19Z</time>
      </trkpt>
      <trkpt lat="43.41418" lon="2.65512">
        <ele>656.4</ele>
        <time>2022-06-21T09:16:20Z</time>
      </trkpt>
      <trkpt lat="43.41418" lon="2.65513">
        <ele>656.5</ele>
        <time>2022-06-21T09:16:21Z</time>
      </trkpt>
      <trkpt lat="43.41419" lon="2.65514">
        <ele>656.7</ele>
        <time>2022-06-21T09:16:22Z</time>
      </trkpt>
      <trkpt lat="43.4142" lon="2.65514">
        <ele>656.9</ele>
        <time>2022-06-21T09:16:23Z</time>
      </trkpt>
      <trkpt lat="43.41421" lon="2.65515">
        <ele>657.1</ele>
        <time>2022-06-21T09:16:24Z</time>
      </trkpt>
      <trkpt lat="43.41421" lon="2.65516">
        <ele>657.3</ele>
        <time>2022-06-21T09:16:25Z</time>
      </trkpt>
      <trkpt lat="43.41422" lon="2.65517">
        <ele>657.4</ele>
        <time>2022-06-21T09:16:26Z</time>
      </trkpt>
      <trkpt lat="43.41423" lon="2.65518">
        <ele>657.5</ele>
        <time>2022-06-21T09:16:27Z</time>
      </trkpt>
      <trkpt lat="43.41423" lon="2.65518">
        <ele>657.7</ele>
        <time>2022-06-21T09:16:28Z</time>
      </trkpt>
      <trkpt lat="43.41424" lon="2.65519">
        <ele>657.8</ele>
        <time>2022-06-21T09:16:29Z</time>
      </trkpt>
      <trkpt lat="43.41424" lon="2.65519">
        <ele>657.9</ele>
        <time>2022-06-21T09:16:30Z</time>
      </trkpt>
      <trkpt lat="43.41425" lon="2.6552">
        <ele>658.1</ele>
        <time>2022-06-21T09:16:31Z</time>
      </trkpt>
      <trkpt lat="43.41426" lon="2.65521">
        <ele>658.2</ele>
        <time>2022-06-21T09:16:32Z</time>
      </trkpt>
      <trkpt lat="43.41427" lon="2.65521">
        <ele>658.3</ele>
        <time>2022-06-21T09:16:33Z</time>
      </trkpt>
      <trkpt lat="43.41427" lon="2.65522">
        <ele>658.4</ele>
        <time>2022-06-21T09:16:34Z</time>
      </trkpt>
      <trkpt lat="43.41428" lon="2.65522">
        <ele>658.6</ele>
        <time>2022-06-21T09:16:35Z</time>
      </trkpt>
      <trkpt lat="43.41429" lon="2.65522">
        <ele>658.7</ele>
        <time>2022-06-21T09:16:36Z</time>
      </trkpt>
      <trkpt lat="43.4143" lon="2.65523">
        <ele>658.8</ele>
        <time>2022-06-21T09:16:37Z</time>
      </trkpt>
      <trkpt lat="43.41431" lon="2.65524">
        <ele>659</ele>
        <time>2022-06-21T09:16:38Z</time>
      </trkpt>
      <trkpt lat="43.41432" lon="2.65524">
        <ele>659.1</ele>
        <time>2022-06-21T09:16:39Z</time>
      </trkpt>
      <trkpt lat="43.41432" lon="2.65524">
        <ele>659.2</ele>
        <time>2022-06-21T09:16:40Z</time>
      </trkpt>
      <trkpt lat="43.41433" lon="2.65524">
        <ele>659.3</ele>
        <time>2022-06-21T09:16:41Z</time>
      </trkpt>
      <trkpt lat="43.41434" lon="2.65525">
        <ele>659.4</ele>
        <time>2022-06-21T09:16:42Z</time>
      </trkpt>
      <trkpt lat="43.41435" lon="2.65525">
        <ele>659.5</ele>
        <time>2022-06-21T09:16:43Z</time>
      </trkpt>
      <trkpt lat="43.41436" lon="2.65526">
        <ele>659.7</ele>
        <time>2022-06-21T09:16:44Z</time>
      </trkpt>
      <trkpt lat="43.41436" lon="2.65526">
        <ele>659.7</ele>
        <time>2022-06-21T09:16:45Z</time>
      </trkpt>
      <trkpt lat="43.41437" lon="2.65526">
        <ele>659.8</ele>
        <time>2022-06-21T09:16:46Z</time>
      </trkpt>
      <trkpt lat="43.41437" lon="2.65526">
        <ele>659.9</ele>
        <time>2022-06-21T09:16:47Z</time>
      </trkpt>
      <trkpt lat="43.41438" lon="2.65526">
        <ele>660</ele>
        <time>2022-06-21T09:16:48Z</time>
      </trkpt>
      <trkpt lat="43.41439" lon="2.65527">
        <ele>660.1</ele>
        <time>2022-06-21T09:16:49Z</time>
      </trkpt>
      <trkpt lat="43.4144" lon="2.65527">
        <ele>660.3</ele>
        <time>2022-06-21T09:16:50Z</time>
      </trkpt>
      <trkpt lat="43.41441" lon="2.65528">
        <ele>660.4</ele>
        <time>2022-06-21T09:16:51Z</time>
      </trkpt>
      <trkpt lat="43.41442" lon="2.65528">
        <ele>660.5</ele>
        <time>2022-06-21T09:16:52Z</time>
      </trkpt>
      <trkpt lat="43.41443" lon="2.65528">
        <ele>660.6</ele>
        <time>2022-06-21T09:16:53Z</time>
      </trkpt>
      <trkpt lat="43.41443" lon="2.65528">
        <ele>660.7</ele>
        <time>2022-06-21T09:16:54Z</time>
      </trkpt>
      <trkpt lat="43.41445" lon="2.65529">
        <ele>660.9</ele>
        <time>2022-06-21T09:16:55Z</time>
      </trkpt>
      <trkpt lat="43.41446" lon="2.65529">
        <ele>661</ele>
        <time>2022-06-21T09:16:56Z</time>
      </trkpt>
      <trkpt lat="43.41446" lon="2.65529">
        <ele>661.1</ele>
        <time>2022-06-21T09:16:57Z</time>
      </trkpt>
      <trkpt lat="43.41447" lon="2.65529">
        <ele>661.2</ele>
        <time>2022-06-21T09:16:58Z</time>
      </trkpt>
      <trkpt lat="43.41448" lon="2.6553">
        <ele>661.3</ele>
        <time>2022-06-21T09:16:59Z</time>
      </trkpt>
      <trkpt lat="43.41449" lon="2.6553">
        <ele>661.5</ele>
        <time>2022-06-21T09:17:00Z</time>
      </trkpt>
      <trkpt lat="43.4145" lon="2.6553">
        <ele>661.6</ele>
        <time>2022-06-21T09:17:01Z</time>
      </trkpt>
      <trkpt lat="43.41451" lon="2.6553">
        <ele>661.8</ele>
        <time>2022-06-21T09:17:02Z</time>
      </trkpt>
      <trkpt lat="43.41451" lon="2.6553">
        <ele>661.8</ele>
        <time>2022-06-21T09:17:03Z</time>
      </trkpt>
      <trkpt lat="43.41452" lon="2.65531">
        <ele>661.9</ele>
        <time>2022-06-21T09:17:04Z</time>
      </trkpt>
      <trkpt lat="43.41453" lon="2.65531">
        <ele>662</ele>
        <time>2022-06-21T09:17:05Z</time>
      </trkpt>
      <trkpt lat="43.41453" lon="2.65531">
        <ele>662.1</ele>
        <time>2022-06-21T09:17:06Z</time>
      </trkpt>
      <trkpt lat="43.41454" lon="2.65531">
        <ele>662.3</ele>
        <time>2022-06-21T09:17:07Z</time>
      </trkpt>
      <trkpt lat="43.41455" lon="2.65531">
        <ele>662.3</ele>
        <time>2022-06-21T09:17:08Z</time>
      </trkpt>
      <trkpt lat="43.41455" lon="2.65531">
        <ele>662.4</ele>
        <time>2022-06-21T09:17:09Z</time>
      </trkpt>
      <trkpt lat="43.41456" lon="2.65531">
        <ele>662.5</ele>
        <time>2022-06-21T09:17:10Z</time>
      </trkpt>
      <trkpt lat="43.41456" lon="2.65532">
        <ele>662.6</ele>
        <time>2022-06-21T09:17:11Z</time>
      </trkpt>
      <trkpt lat="43.41457" lon="2.65532">
        <ele>662.7</ele>
        <time>2022-06-21T09:17:12Z</time>
      </trkpt>
      <trkpt lat="43.41458" lon="2.65532">
        <ele>662.8</ele>
        <time>2022-06-21T09:17:13Z</time>
      </trkpt>
      <trkpt lat="43.41458" lon="2.65532">
        <ele>662.9</ele>
        <time>2022-06-21T09:17:14Z</time>
      </trkpt>
      <trkpt lat="43.41459" lon="2.65533">
        <ele>663</ele>
        <time>2022-06-21T09:17:15Z</time>
      </trkpt>
      <trkpt lat="43.4146" lon="2.65533">
        <ele>663.2</ele>
        <time>2022-06-21T09:17:16Z</time>
      </trkpt>
      <trkpt lat="43.4146" lon="2.65533">
        <ele>663.3</ele>
        <time>2022-06-21T09:17:17Z</time>
      </trkpt>
      <trkpt lat="43.41461" lon="2.65534">
        <ele>663.4</ele>
        <time>2022-06-21T09:17:18Z</time>
      </trkpt>
      <trkpt lat="43.41462" lon="2.65534">
        <ele>663.6</ele>
        <time>2022-06-21T09:17:19Z</time>
      </trkpt>
      <trkpt lat="43.41463" lon="2.65535">
        <ele>663.7</ele>
        <time>2022-06-21T09:17:20Z</time>
      </trkpt>
      <trkpt lat="43.41463" lon="2.65535">
        <ele>663.8</ele>
        <time>2022-06-21T09:17:21Z</time>
      </trkpt>
      <trkpt lat="43.41464" lon="2.65536">
        <ele>663.9</ele>
        <time>2022-06-21T09:17:22Z</time>
      </trkpt>
      <trkpt lat="43.41465" lon="2.65536">
        <ele>664.1</ele>
        <time>2022-06-21T09:17:23Z</time>
      </trkpt>
      <trkpt lat="43.41466" lon="2.65537">
        <ele>664.2</ele>
        <time>2022-06-21T09:17:24Z</time>
      </trkpt>
      <trkpt lat="43.41467" lon="2.65537">
        <ele>664.4</ele>
        <time>2022-06-21T09:17:25Z</time>
      </trkpt>
      <trkpt lat="43.41467" lon="2.65537">
        <ele>664.5</ele>
        <time>2022-06-21T09:17:26Z</time>
      </trkpt>
      <trkpt lat="43.41468" lon="2.65537">
        <ele>664.6</ele>
        <time>2022-06-21T09:17:27Z</time>
      </trkpt>
      <trkpt lat="43.41469" lon="2.65538">
        <ele>664.8</ele>
        <time>2022-06-21T09:17:28Z</time>
      </trkpt>
      <trkpt lat="43.4147" lon="2.65538">
        <ele>665</ele>
        <time>2022-06-21T09:17:29Z</time>
      </trkpt>
      <trkpt lat="43.41471" lon="2.65539">
        <ele>665.1</ele>
        <time>2022-06-21T09:17:30Z</time>
      </trkpt>
      <trkpt lat="43.41472" lon="2.65539">
        <ele>665.3</ele>
        <time>2022-06-21T09:17:31Z</time>
      </trkpt>
      <trkpt lat="43.41472" lon="2.6554">
        <ele>665.4</ele>
        <time>2022-06-21T09:17:32Z</time>
      </trkpt>
      <trkpt lat="43.41473" lon="2.6554">
        <ele>665.6</ele>
        <time>2022-06-21T09:17:33Z</time>
      </trkpt>
      <trkpt lat="43.41474" lon="2.65541">
        <ele>665.7</ele>
        <time>2022-06-21T09:17:34Z</time>
      </trkpt>
      <trkpt lat="43.41475" lon="2.65542">
        <ele>665.9</ele>
        <time>2022-06-21T09:17:35Z</time>
      </trkpt>
      <trkpt lat="43.41475" lon="2.65542">
        <ele>666</ele>
        <time>2022-06-21T09:17:36Z</time>
      </trkpt>
      <trkpt lat="43.41477" lon="2.65543">
        <ele>666.2</ele>
        <time>2022-06-21T09:17:37Z</time>
      </trkpt>
      <trkpt lat="43.41477" lon="2.65543">
        <ele>666.3</ele>
        <time>2022-06-21T09:17:38Z</time>
      </trkpt>
      <trkpt lat="43.41478" lon="2.65544">
        <ele>666.4</ele>
        <time>2022-06-21T09:17:39Z</time>
      </trkpt>
      <trkpt lat="43.41478" lon="2.65544">
        <ele>666.6</ele>
        <time>2022-06-21T09:17:40Z</time>
      </trkpt>
      <trkpt lat="43.41479" lon="2.65545">
        <ele>666.7</ele>
        <time>2022-06-21T09:17:41Z</time>
      </trkpt>
      <trkpt lat="43.4148" lon="2.65546">
        <ele>666.9</ele>
        <time>2022-06-21T09:17:42Z</time>
      </trkpt>
      <trkpt lat="43.41481" lon="2.65547">
        <ele>667.1</ele>
        <time>2022-06-21T09:17:43Z</time>
      </trkpt>
      <trkpt lat="43.41482" lon="2.65547">
        <ele>667.2</ele>
        <time>2022-06-21T09:17:44Z</time>
      </trkpt>
      <trkpt lat="43.41483" lon="2.65548">
        <ele>667.4</ele>
        <time>2022-06-21T09:17:45Z</time>
      </trkpt>
      <trkpt lat="43.41484" lon="2.65548">
        <ele>667.6</ele>
        <time>2022-06-21T09:17:46Z</time>
      </trkpt>
      <trkpt lat="43.41484" lon="2.65549">
        <ele>667.7</ele>
        <time>2022-06-21T09:17:47Z</time>
      </trkpt>
      <trkpt lat="43.41485" lon="2.6555">
        <ele>667.8</ele>
        <time>2022-06-21T09:17:48Z</time>
      </trkpt>
      <trkpt lat="43.41486" lon="2.65551">
        <ele>668</ele>
        <time>2022-06-21T09:17:49Z</time>
      </trkpt>
      <trkpt lat="43.41487" lon="2.65551">
        <ele>668.2</ele>
        <time>2022-06-21T09:17:50Z</time>
      </trkpt>
      <trkpt lat="43.41487" lon="2.65551">
        <ele>668.3</ele>
        <time>2022-06-21T09:17:51Z</time>
      </trkpt>
      <trkpt lat="43.41489" lon="2.65552">
        <ele>668.6</ele>
        <time>2022-06-21T09:17:52Z</time>
      </trkpt>
      <trkpt lat="43.4149" lon="2.65552">
        <ele>668.7</ele>
        <time>2022-06-21T09:17:53Z</time>
      </trkpt>
      <trkpt lat="43.4149" lon="2.65553">
        <ele>668.8</ele>
        <time>2022-06-21T09:17:54Z</time>
      </trkpt>
      <trkpt lat="43.41491" lon="2.65553">
        <ele>668.9</ele>
        <time>2022-06-21T09:17:55Z</time>
      </trkpt>
      <trkpt lat="43.41492" lon="2.65553">
        <ele>669.1</ele>
        <time>2022-06-21T09:17:56Z</time>
      </trkpt>
      <trkpt lat="43.41492" lon="2.65554">
        <ele>669.2</ele>
        <time>2022-06-21T09:17:57Z</time>
      </trkpt>
      <trkpt lat="43.41493" lon="2.65554">
        <ele>669.3</ele>
        <time>2022-06-21T09:17:58Z</time>
      </trkpt>
      <trkpt lat="43.41494" lon="2.65554">
        <ele>669.5</ele>
        <time>2022-06-21T09:17:59Z</time>
      </trkpt>
      <trkpt lat="43.41495" lon="2.65555">
        <ele>669.7</ele>
        <time>2022-06-21T09:18:00Z</time>
      </trkpt>
      <trkpt lat="43.41495" lon="2.65555">
        <ele>669.8</ele>
        <time>2022-06-21T09:18:01Z</time>
      </trkpt>
      <trkpt lat="43.41496" lon="2.65556">
        <ele>669.9</ele>
        <time>2022-06-21T09:18:02Z</time>
      </trkpt>
      <trkpt lat="43.41497" lon="2.65557">
        <ele>670</ele>
        <time>2022-06-21T09:18:03Z</time>
      </trkpt>
      <trkpt lat="43.41497" lon="2.65557">
        <ele>670.2</ele>
        <time>2022-06-21T09:18:04Z</time>
      </trkpt>
      <trkpt lat="43.41498" lon="2.65558">
        <ele>670.4</ele>
        <time>2022-06-21T09:18:05Z</time>
      </trkpt>
      <trkpt lat="43.41499" lon="2.65559">
        <ele>670.5</ele>
        <time>2022-06-21T09:18:06Z</time>
      </trkpt>
      <trkpt lat="43.41499" lon="2.6556">
        <ele>670.6</ele>
        <time>2022-06-21T09:18:07Z</time>
      </trkpt>
      <trkpt lat="43.415" lon="2.6556">
        <ele>670.8</ele>
        <time>2022-06-21T09:18:08Z</time>
      </trkpt>
      <trkpt lat="43.41501" lon="2.6556">
        <ele>670.9</ele>
        <time>2022-06-21T09:18:09Z</time>
      </trkpt>
      <trkpt lat="43.41502" lon="2.65561">
        <ele>671.1</ele>
        <time>2022-06-21T09:18:10Z</time>
      </trkpt>
      <trkpt lat="43.41502" lon="2.65561">
        <ele>671.3</ele>
        <time>2022-06-21T09:18:11Z</time>
      </trkpt>
      <trkpt lat="43.41504" lon="2.65562">
        <ele>671.5</ele>
        <time>2022-06-21T09:18:12Z</time>
      </trkpt>
      <trkpt lat="43.41504" lon="2.65562">
        <ele>671.6</ele>
        <time>2022-06-21T09:18:13Z</time>
      </trkpt>
      <trkpt lat="43.41505" lon="2.65562">
        <ele>671.7</ele>
        <time>2022-06-21T09:18:14Z</time>
      </trkpt>
      <trkpt lat="43.41506" lon="2.65563">
        <ele>671.9</ele>
        <time>2022-06-21T09:18:15Z</time>
      </trkpt>
      <trkpt lat="43.41506" lon="2.65563">
        <ele>672</ele>
        <time>2022-06-21T09:18:16Z</time>
      </trkpt>
      <trkpt lat="43.41507" lon="2.65563">
        <ele>672</ele>
        <time>2022-06-21T09:18:17Z</time>
      </trkpt>
      <trkpt lat="43.41507" lon="2.65564">
        <ele>672.1</ele>
        <time>2022-06-21T09:18:18Z</time>
      </trkpt>
      <trkpt lat="43.41508" lon="2.65564">
        <ele>672.2</ele>
        <time>2022-06-21T09:18:19Z</time>
      </trkpt>
      <trkpt lat="43.41508" lon="2.65565">
        <ele>672.4</ele>
        <time>2022-06-21T09:18:20Z</time>
      </trkpt>
      <trkpt lat="43.41509" lon="2.65565">
        <ele>672.5</ele>
        <time>2022-06-21T09:18:21Z</time>
      </trkpt>
      <trkpt lat="43.4151" lon="2.65566">
        <ele>672.6</ele>
        <time>2022-06-21T09:18:22Z</time>
      </trkpt>
      <trkpt lat="43.4151" lon="2.65566">
        <ele>672.7</ele>
        <time>2022-06-21T09:18:23Z</time>
      </trkpt>
      <trkpt lat="43.41511" lon="2.65567">
        <ele>672.8</ele>
        <time>2022-06-21T09:18:24Z</time>
      </trkpt>
      <trkpt lat="43.41512" lon="2.65567">
        <ele>672.9</ele>
        <time>2022-06-21T09:18:25Z</time>
      </trkpt>
      <trkpt lat="43.41512" lon="2.65567">
        <ele>673</ele>
        <time>2022-06-21T09:18:26Z</time>
      </trkpt>
      <trkpt lat="43.41513" lon="2.65567">
        <ele>673.1</ele>
        <time>2022-06-21T09:18:27Z</time>
      </trkpt>
      <trkpt lat="43.41514" lon="2.65568">
        <ele>673.2</ele>
        <time>2022-06-21T09:18:28Z</time>
      </trkpt>
      <trkpt lat="43.41515" lon="2.65569">
        <ele>673.4</ele>
        <time>2022-06-21T09:18:29Z</time>
      </trkpt>
      <trkpt lat="43.41516" lon="2.65571">
        <ele>673.6</ele>
        <time>2022-06-21T09:18:30Z</time>
      </trkpt>
      <trkpt lat="43.41516" lon="2.65571">
        <ele>673.7</ele>
        <time>2022-06-21T09:18:31Z</time>
      </trkpt>
      <trkpt lat="43.41517" lon="2.65572">
        <ele>673.8</ele>
        <time>2022-06-21T09:18:32Z</time>
      </trkpt>
      <trkpt lat="43.41518" lon="2.65573">
        <ele>674</ele>
        <time>2022-06-21T09:18:33Z</time>
      </trkpt>
      <trkpt lat="43.41518" lon="2.65574">
        <ele>674.1</ele>
        <time>2022-06-21T09:18:34Z</time>
      </trkpt>
      <trkpt lat="43.41519" lon="2.65574">
        <ele>674.2</ele>
        <time>2022-06-21T09:18:35Z</time>
      </trkpt>
      <trkpt lat="43.4152" lon="2.65575">
        <ele>674.4</ele>
        <time>2022-06-21T09:18:36Z</time>
      </trkpt>
      <trkpt lat="43.41521" lon="2.65576">
        <ele>674.5</ele>
        <time>2022-06-21T09:18:37Z</time>
      </trkpt>
      <trkpt lat="43.41521" lon="2.65576">
        <ele>674.6</ele>
        <time>2022-06-21T09:18:38Z</time>
      </trkpt>
      <trkpt lat="43.41522" lon="2.65577">
        <ele>674.7</ele>
        <time>2022-06-21T09:18:39Z</time>
      </trkpt>
      <trkpt lat="43.41523" lon="2.65578">
        <ele>674.8</ele>
        <time>2022-06-21T09:18:40Z</time>
      </trkpt>
      <trkpt lat="43.41523" lon="2.65578">
        <ele>674.9</ele>
        <time>2022-06-21T09:18:41Z</time>
      </trkpt>
      <trkpt lat="43.41524" lon="2.65579">
        <ele>675.1</ele>
        <time>2022-06-21T09:18:42Z</time>
      </trkpt>
      <trkpt lat="43.41524" lon="2.6558">
        <ele>675.2</ele>
        <time>2022-06-21T09:18:43Z</time>
      </trkpt>
      <trkpt lat="43.41525" lon="2.6558">
        <ele>675.3</ele>
        <time>2022-06-21T09:18:44Z</time>
      </trkpt>
      <trkpt lat="43.41525" lon="2.65581">
        <ele>675.4</ele>
        <time>2022-06-21T09:18:45Z</time>
      </trkpt>
      <trkpt lat="43.41526" lon="2.65582">
        <ele>675.6</ele>
        <time>2022-06-21T09:18:46Z</time>
      </trkpt>
      <trkpt lat="43.41527" lon="2.65583">
        <ele>675.7</ele>
        <time>2022-06-21T09:18:47Z</time>
      </trkpt>
      <trkpt lat="43.41527" lon="2.65583">
        <ele>675.8</ele>
        <time>2022-06-21T09:18:48Z</time>
      </trkpt>
      <trkpt lat="43.41528" lon="2.65584">
        <ele>676</ele>
        <time>2022-06-21T09:18:49Z</time>
      </trkpt>
      <trkpt lat="43.41529" lon="2.65585">
        <ele>676.1</ele>
        <time>2022-06-21T09:18:50Z</time>
      </trkpt>
      <trkpt lat="43.41529" lon="2.65585">
        <ele>676.2</ele>
        <time>2022-06-21T09:18:51Z</time>
      </trkpt>
      <trkpt lat="43.4153" lon="2.65585">
        <ele>676.3</ele>
        <time>2022-06-21T09:18:52Z</time>
      </trkpt>
      <trkpt lat="43.4153" lon="2.65586">
        <ele>676.4</ele>
        <time>2022-06-21T09:18:53Z</time>
      </trkpt>
      <trkpt lat="43.41531" lon="2.65586">
        <ele>676.5</ele>
        <time>2022-06-21T09:18:54Z</time>
      </trkpt>
      <trkpt lat="43.41531" lon="2.65587">
        <ele>676.6</ele>
        <time>2022-06-21T09:18:55Z</time>
      </trkpt>
      <trkpt lat="43.41532" lon="2.65587">
        <ele>676.7</ele>
        <time>2022-06-21T09:18:56Z</time>
      </trkpt>
      <trkpt lat="43.41533" lon="2.65588">
        <ele>676.8</ele>
        <time>2022-06-21T09:18:57Z</time>
      </trkpt>
      <trkpt lat="43.41533" lon="2.65588">
        <ele>676.9</ele>
        <time>2022-06-21T09:18:58Z</time>
      </trkpt>
      <trkpt lat="43.41534" lon="2.65589">
        <ele>677.1</ele>
        <time>2022-06-21T09:18:59Z</time>
      </trkpt>
      <trkpt lat="43.41535" lon="2.6559">
        <ele>677.2</ele>
        <time>2022-06-21T09:19:00Z</time>
      </trkpt>
      <trkpt lat="43.41535" lon="2.65591">
        <ele>677.4</ele>
        <time>2022-06-21T09:19:01Z</time>
      </trkpt>
      <trkpt lat="43.41536" lon="2.65592">
        <ele>677.5</ele>
        <time>2022-06-21T09:19:02Z</time>
      </trkpt>
      <trkpt lat="43.41536" lon="2.65593">
        <ele>677.6</ele>
        <time>2022-06-21T09:19:03Z</time>
      </trkpt>
      <trkpt lat="43.41537" lon="2.65594">
        <ele>677.8</ele>
        <time>2022-06-21T09:19:04Z</time>
      </trkpt>
      <trkpt lat="43.41537" lon="2.65595">
        <ele>677.9</ele>
        <time>2022-06-21T09:19:05Z</time>
      </trkpt>
      <trkpt lat="43.41538" lon="2.65596">
        <ele>678.1</ele>
        <time>2022-06-21T09:19:06Z</time>
      </trkpt>
      <trkpt lat="43.41538" lon="2.65597">
        <ele>678.2</ele>
        <time>2022-06-21T09:19:07Z</time>
      </trkpt>
      <trkpt lat="43.41539" lon="2.65598">
        <ele>678.4</ele>
        <time>2022-06-21T09:19:08Z</time>
      </trkpt>
      <trkpt lat="43.4154" lon="2.65599">
        <ele>678.5</ele>
        <time>2022-06-21T09:19:09Z</time>
      </trkpt>
      <trkpt lat="43.4154" lon="2.656">
        <ele>678.7</ele>
        <time>2022-06-21T09:19:10Z</time>
      </trkpt>
      <trkpt lat="43.41541" lon="2.65601">
        <ele>678.9</ele>
        <time>2022-06-21T09:19:11Z</time>
      </trkpt>
      <trkpt lat="43.41542" lon="2.65601">
        <ele>679.1</ele>
        <time>2022-06-21T09:19:12Z</time>
      </trkpt>
      <trkpt lat="43.41542" lon="2.65602">
        <ele>679.2</ele>
        <time>2022-06-21T09:19:13Z</time>
      </trkpt>
      <trkpt lat="43.41543" lon="2.65603">
        <ele>679.3</ele>
        <time>2022-06-21T09:19:14Z</time>
      </trkpt>
      <trkpt lat="43.41543" lon="2.65603">
        <ele>679.5</ele>
        <time>2022-06-21T09:19:15Z</time>
      </trkpt>
      <trkpt lat="43.41544" lon="2.65604">
        <ele>679.6</ele>
        <time>2022-06-21T09:19:16Z</time>
      </trkpt>
      <trkpt lat="43.41545" lon="2.65605">
        <ele>679.8</ele>
        <time>2022-06-21T09:19:17Z</time>
      </trkpt>
      <trkpt lat="43.41545" lon="2.65606">
        <ele>679.9</ele>
        <time>2022-06-21T09:19:18Z</time>
      </trkpt>
      <trkpt lat="43.41546" lon="2.65606">
        <ele>680.1</ele>
        <time>2022-06-21T09:19:19Z</time>
      </trkpt>
      <trkpt lat="43.41547" lon="2.65607">
        <ele>680.2</ele>
        <time>2022-06-21T09:19:20Z</time>
      </trkpt>
      <trkpt lat="43.41547" lon="2.65608">
        <ele>680.3</ele>
        <time>2022-06-21T09:19:21Z</time>
      </trkpt>
      <trkpt lat="43.41548" lon="2.65608">
        <ele>680.5</ele>
        <time>2022-06-21T09:19:22Z</time>
      </trkpt>
      <trkpt lat="43.41548" lon="2.65609">
        <ele>680.7</ele>
        <time>2022-06-21T09:19:23Z</time>
      </trkpt>
      <trkpt lat="43.41549" lon="2.6561">
        <ele>680.8</ele>
        <time>2022-06-21T09:19:24Z</time>
      </trkpt>
      <trkpt lat="43.41549" lon="2.65611">
        <ele>680.9</ele>
        <time>2022-06-21T09:19:25Z</time>
      </trkpt>
      <trkpt lat="43.4155" lon="2.65612">
        <ele>681.1</ele>
        <time>2022-06-21T09:19:26Z</time>
      </trkpt>
      <trkpt lat="43.4155" lon="2.65612">
        <ele>681.2</ele>
        <time>2022-06-21T09:19:27Z</time>
      </trkpt>
      <trkpt lat="43.41551" lon="2.65613">
        <ele>681.4</ele>
        <time>2022-06-21T09:19:28Z</time>
      </trkpt>
      <trkpt lat="43.41551" lon="2.65614">
        <ele>681.5</ele>
        <time>2022-06-21T09:19:29Z</time>
      </trkpt>
      <trkpt lat="43.41552" lon="2.65615">
        <ele>681.7</ele>
        <time>2022-06-21T09:19:30Z</time>
      </trkpt>
      <trkpt lat="43.41552" lon="2.65615">
        <ele>681.8</ele>
        <time>2022-06-21T09:19:31Z</time>
      </trkpt>
      <trkpt lat="43.41553" lon="2.65616">
        <ele>681.9</ele>
        <time>2022-06-21T09:19:32Z</time>
      </trkpt>
      <trkpt lat="43.41553" lon="2.65617">
        <ele>682.1</ele>
        <time>2022-06-21T09:19:33Z</time>
      </trkpt>
      <trkpt lat="43.41554" lon="2.65618">
        <ele>682.3</ele>
        <time>2022-06-21T09:19:34Z</time>
      </trkpt>
      <trkpt lat="43.41555" lon="2.65618">
        <ele>682.4</ele>
        <time>2022-06-21T09:19:35Z</time>
      </trkpt>
      <trkpt lat="43.41556" lon="2.65619">
        <ele>682.6</ele>
        <time>2022-06-21T09:19:36Z</time>
      </trkpt>
      <trkpt lat="43.41556" lon="2.65619">
        <ele>682.7</ele>
        <time>2022-06-21T09:19:37Z</time>
      </trkpt>
      <trkpt lat="43.41557" lon="2.6562">
        <ele>682.8</ele>
        <time>2022-06-21T09:19:38Z</time>
      </trkpt>
      <trkpt lat="43.41558" lon="2.65621">
        <ele>683</ele>
        <time>2022-06-21T09:19:39Z</time>
      </trkpt>
      <trkpt lat="43.41559" lon="2.65622">
        <ele>683.2</ele>
        <time>2022-06-21T09:19:40Z</time>
      </trkpt>
      <trkpt lat="43.41559" lon="2.65623">
        <ele>683.3</ele>
        <time>2022-06-21T09:19:41Z</time>
      </trkpt>
      <trkpt lat="43.41559" lon="2.65623">
        <ele>683.4</ele>
        <time>2022-06-21T09:19:42Z</time>
      </trkpt>
      <trkpt lat="43.4156" lon="2.65624">
        <ele>683.5</ele>
        <time>2022-06-21T09:19:43Z</time>
      </trkpt>
      <trkpt lat="43.4156" lon="2.65625">
        <ele>683.6</ele>
        <time>2022-06-21T09:19:44Z</time>
      </trkpt>
      <trkpt lat="43.4156" lon="2.65626">
        <ele>683.7</ele>
        <time>2022-06-21T09:19:45Z</time>
      </trkpt>
      <trkpt lat="43.41561" lon="2.65627">
        <ele>683.9</ele>
        <time>2022-06-21T09:19:46Z</time>
      </trkpt>
      <trkpt lat="43.41561" lon="2.65628">
        <ele>684</ele>
        <time>2022-06-21T09:19:47Z</time>
      </trkpt>
      <trkpt lat="43.41562" lon="2.65629">
        <ele>684.2</ele>
        <time>2022-06-21T09:19:48Z</time>
      </trkpt>
      <trkpt lat="43.41562" lon="2.65629">
        <ele>684.3</ele>
        <time>2022-06-21T09:19:49Z</time>
      </trkpt>
      <trkpt lat="43.41563" lon="2.6563">
        <ele>684.4</ele>
        <time>2022-06-21T09:19:50Z</time>
      </trkpt>
      <trkpt lat="43.41563" lon="2.65631">
        <ele>684.6</ele>
        <time>2022-06-21T09:19:51Z</time>
      </trkpt>
      <trkpt lat="43.41564" lon="2.65632">
        <ele>684.8</ele>
        <time>2022-06-21T09:19:52Z</time>
      </trkpt>
      <trkpt lat="43.41564" lon="2.65633">
        <ele>684.9</ele>
        <time>2022-06-21T09:19:53Z</time>
      </trkpt>
      <trkpt lat="43.41565" lon="2.65634">
        <ele>685</ele>
        <time>2022-06-21T09:19:54Z</time>
      </trkpt>
      <trkpt lat="43.41565" lon="2.65634">
        <ele>685.1</ele>
        <time>2022-06-21T09:19:55Z</time>
      </trkpt>
      <trkpt lat="43.41565" lon="2.65635">
        <ele>685.1</ele>
        <time>2022-06-21T09:19:56Z</time>
      </trkpt>
      <trkpt lat="43.41565" lon="2.65636">
        <ele>685.3</ele>
        <time>2022-06-21T09:19:57Z</time>
      </trkpt>
      <trkpt lat="43.41566" lon="2.65637">
        <ele>685.4</ele>
        <time>2022-06-21T09:19:58Z</time>
      </trkpt>
      <trkpt lat="43.41566" lon="2.65638">
        <ele>685.6</ele>
        <time>2022-06-21T09:19:59Z</time>
      </trkpt>
      <trkpt lat="43.41567" lon="2.65639">
        <ele>685.7</ele>
        <time>2022-06-21T09:20:00Z</time>
      </trkpt>
      <trkpt lat="43.41568" lon="2.6564">
        <ele>685.9</ele>
        <time>2022-06-21T09:20:01Z</time>
      </trkpt>
      <trkpt lat="43.41568" lon="2.65641">
        <ele>686.1</ele>
        <time>2022-06-21T09:20:02Z</time>
      </trkpt>
      <trkpt lat="43.41569" lon="2.65641">
        <ele>686.2</ele>
        <time>2022-06-21T09:20:03Z</time>
      </trkpt>
      <trkpt lat="43.41569" lon="2.65642">
        <ele>686.4</ele>
        <time>2022-06-21T09:20:04Z</time>
      </trkpt>
      <trkpt lat="43.4157" lon="2.65643">
        <ele>686.5</ele>
        <time>2022-06-21T09:20:05Z</time>
      </trkpt>
      <trkpt lat="43.41571" lon="2.65644">
        <ele>686.7</ele>
        <time>2022-06-21T09:20:06Z</time>
      </trkpt>
      <trkpt lat="43.41572" lon="2.65646">
        <ele>686.9</ele>
        <time>2022-06-21T09:20:07Z</time>
      </trkpt>
      <trkpt lat="43.41572" lon="2.65647">
        <ele>687.1</ele>
        <time>2022-06-21T09:20:08Z</time>
      </trkpt>
      <trkpt lat="43.41573" lon="2.65647">
        <ele>687.2</ele>
        <time>2022-06-21T09:20:09Z</time>
      </trkpt>
      <trkpt lat="43.41573" lon="2.65648">
        <ele>687.3</ele>
        <time>2022-06-21T09:20:10Z</time>
      </trkpt>
      <trkpt lat="43.41573" lon="2.65649">
        <ele>687.4</ele>
        <time>2022-06-21T09:20:11Z</time>
      </trkpt>
      <trkpt lat="43.41574" lon="2.6565">
        <ele>687.6</ele>
        <time>2022-06-21T09:20:12Z</time>
      </trkpt>
      <trkpt lat="43.41574" lon="2.65651">
        <ele>687.8</ele>
        <time>2022-06-21T09:20:13Z</time>
      </trkpt>
      <trkpt lat="43.41575" lon="2.65652">
        <ele>687.9</ele>
        <time>2022-06-21T09:20:14Z</time>
      </trkpt>
      <trkpt lat="43.41575" lon="2.65652">
        <ele>688.1</ele>
        <time>2022-06-21T09:20:15Z</time>
      </trkpt>
      <trkpt lat="43.41576" lon="2.65653">
        <ele>688.2</ele>
        <time>2022-06-21T09:20:16Z</time>
      </trkpt>
      <trkpt lat="43.41576" lon="2.65654">
        <ele>688.3</ele>
        <time>2022-06-21T09:20:17Z</time>
      </trkpt>
      <trkpt lat="43.41577" lon="2.65654">
        <ele>688.4</ele>
        <time>2022-06-21T09:20:18Z</time>
      </trkpt>
      <trkpt lat="43.41577" lon="2.65655">
        <ele>688.6</ele>
        <time>2022-06-21T09:20:19Z</time>
      </trkpt>
      <trkpt lat="43.41578" lon="2.65656">
        <ele>688.7</ele>
        <time>2022-06-21T09:20:20Z</time>
      </trkpt>
      <trkpt lat="43.41578" lon="2.65656">
        <ele>688.9</ele>
        <time>2022-06-21T09:20:21Z</time>
      </trkpt>
      <trkpt lat="43.41579" lon="2.65657">
        <ele>689</ele>
        <time>2022-06-21T09:20:22Z</time>
      </trkpt>
      <trkpt lat="43.41579" lon="2.65658">
        <ele>689.1</ele>
        <time>2022-06-21T09:20:23Z</time>
      </trkpt>
      <trkpt lat="43.41579" lon="2.65658">
        <ele>689.2</ele>
        <time>2022-06-21T09:20:24Z</time>
      </trkpt>
      <trkpt lat="43.4158" lon="2.65658">
        <ele>689.3</ele>
        <time>2022-06-21T09:20:25Z</time>
      </trkpt>
      <trkpt lat="43.4158" lon="2.65658">
        <ele>689.3</ele>
        <time>2022-06-21T09:20:26Z</time>
      </trkpt>
      <trkpt lat="43.4158" lon="2.65658">
        <ele>689.3</ele>
        <time>2022-06-21T09:20:27Z</time>
      </trkpt>
      <trkpt lat="43.4158" lon="2.65658">
        <ele>689.3</ele>
        <time>2022-06-21T09:20:28Z</time>
      </trkpt>
      <trkpt lat="43.4158" lon="2.65658">
        <ele>689.3</ele>
        <time>2022-06-21T09:20:29Z</time>
      </trkpt>
      <trkpt lat="43.4158" lon="2.65658">
        <ele>689.3</ele>
        <time>2022-06-21T09:20:30Z</time>
      </trkpt>
      <trkpt lat="43.4158" lon="2.65658">
        <ele>689.3</ele>
        <time>2022-06-21T09:20:31Z</time>
      </trkpt>
      <trkpt lat="43.4158" lon="2.65658">
        <ele>689.4</ele>
        <time>2022-06-21T09:20:32Z</time>
      </trkpt>
      <trkpt lat="43.4158" lon="2.65658">
        <ele>689.4</ele>
        <time>2022-06-21T09:20:33Z</time>
      </trkpt>
      <trkpt lat="43.4158" lon="2.65658">
        <ele>689.4</ele>
        <time>2022-06-21T09:20:34Z</time>
      </trkpt>
      <trkpt lat="43.4158" lon="2.65658">
        <ele>689.4</ele>
        <time>2022-06-21T09:20:35Z</time>
      </trkpt>
      <trkpt lat="43.4158" lon="2.65658">
        <ele>689.4</ele>
        <time>2022-06-21T09:20:36Z</time>
      </trkpt>
      <trkpt lat="43.4158" lon="2.65658">
        <ele>689.4</ele>
        <time>2022-06-21T09:20:37Z</time>
      </trkpt>
      <trkpt lat="43.4158" lon="2.65658">
        <ele>689.4</ele>
        <time>2022-06-21T09:20:38Z</time>
      </trkpt>
      <trkpt lat="43.4158" lon="2.65658">
        <ele>689.4</ele>
        <time>2022-06-21T09:20:39Z</time>
      </trkpt>
      <trkpt lat="43.4158" lon="2.65658">
        <ele>689.4</ele>
        <time>2022-06-21T09:20:40Z</time>
      </trkpt>
      <trkpt lat="43.4158" lon="2.65658">
        <ele>689.4</ele>
        <time>2022-06-21T09:20:41Z</time>
      </trkpt>
      <trkpt lat="43.4158" lon="2.65658">
        <ele>689.4</ele>
        <time>2022-06-21T09:20:42Z</time>
      </trkpt>
      <trkpt lat="43.4158" lon="2.65658">
        <ele>689.4</ele>
        <time>2022-06-21T09:20:43Z</time>
      </trkpt>
      <trkpt lat="43.4158" lon="2.65658">
        <ele>689.4</ele>
        <time>2022-06-21T09:20:44Z</time>
      </trkpt>
      <trkpt lat="43.4158" lon="2.65658">
        <ele>689.4</ele>
        <time>2022-06-21T09:20:45Z</time>
      </trkpt>
      <trkpt lat="43.4158" lon="2.65658">
        <ele>689.4</ele>
        <time>2022-06-21T09:20:46Z</time>
      </trkpt>
      <trkpt lat="43.4158" lon="2.65658">
        <ele>689.4</ele>
        <time>2022-06-21T09:20:47Z</time>
      </trkpt>
      <trkpt lat="43.4158" lon="2.65658">
        <ele>689.4</ele>
        <time>2022-06-21T09:20:48Z</time>
      </trkpt>
      <trkpt lat="43.4158" lon="2.65658">
        <ele>689.4</ele>
        <time>2022-06-21T09:20:49Z</time>
      </trkpt>
      <trkpt lat="43.4158" lon="2.65658">
        <ele>689.4</ele>
        <time>2022-06-21T09:20:50Z</time>
      </trkpt>
      <trkpt lat="43.4158" lon="2.65658">
        <ele>689.4</ele>
        <time>2022-06-21T09:20:51Z</time>
      </trkpt>
      <trkpt lat="43.4158" lon="2.65658">
        <ele>689.4</ele>
        <time>2022-06-21T09:20:52Z</time>
      </trkpt>
      <trkpt lat="43.4158" lon="2.65658">
        <ele>689.4</ele>
        <time>2022-06-21T09:20:53Z</time>
      </trkpt>
      <trkpt lat="43.4158" lon="2.65658">
        <ele>689.4</ele>
        <time>2022-06-21T09:20:54Z</time>
      </trkpt>
      <trkpt lat="43.4158" lon="2.65658">
        <ele>689.4</ele>
        <time>2022-06-21T09:20:55Z</time>
      </trkpt>
      <trkpt lat="43.4158" lon="2.65658">
        <ele>689.4</ele>
        <time>2022-06-21T09:20:56Z</time>
      </trkpt>
      <trkpt lat="43.4158" lon="2.65659">
        <ele>689.4</ele>
        <time>2022-06-21T09:20:57Z</time>
      </trkpt>
      <trkpt lat="43.4158" lon="2.65659">
        <ele>689.5</ele>
        <time>2022-06-21T09:20:58Z</time>
      </trkpt>
      <trkpt lat="43.4158" lon="2.6566">
        <ele>689.7</ele>
        <time>2022-06-21T09:20:59Z</time>
      </trkpt>
      <trkpt lat="43.4158" lon="2.65661">
        <ele>689.8</ele>
        <time>2022-06-21T09:21:00Z</time>
      </trkpt>
      <trkpt lat="43.4158" lon="2.65661">
        <ele>689.8</ele>
        <time>2022-06-21T09:21:01Z</time>
      </trkpt>
      <trkpt lat="43.4158" lon="2.65661">
        <ele>689.8</ele>
        <time>2022-06-21T09:21:02Z</time>
      </trkpt>
      <trkpt lat="43.4158" lon="2.65661">
        <ele>689.8</ele>
        <time>2022-06-21T09:21:03Z</time>
      </trkpt>
      <trkpt lat="43.4158" lon="2.65661">
        <ele>689.8</ele>
        <time>2022-06-21T09:21:04Z</time>
      </trkpt>
      <trkpt lat="43.4158" lon="2.65661">
        <ele>689.8</ele>
        <time>2022-06-21T09:21:05Z</time>
      </trkpt>
      <trkpt lat="43.4158" lon="2.65661">
        <ele>689.8</ele>
        <time>2022-06-21T09:21:06Z</time>
      </trkpt>
      <trkpt lat="43.4158" lon="2.65661">
        <ele>689.8</ele>
        <time>2022-06-21T09:21:07Z</time>
      </trkpt>
      <trkpt lat="43.4158" lon="2.65661">
        <ele>689.9</ele>
        <time>2022-06-21T09:21:08Z</time>
      </trkpt>
      <trkpt lat="43.4158" lon="2.65662">
        <ele>689.9</ele>
        <time>2022-06-21T09:21:09Z</time>
      </trkpt>
      <trkpt lat="43.41581" lon="2.65662">
        <ele>690</ele>
        <time>2022-06-21T09:21:10Z</time>
      </trkpt>
      <trkpt lat="43.41581" lon="2.65662">
        <ele>690.2</ele>
        <time>2022-06-21T09:21:11Z</time>
      </trkpt>
      <trkpt lat="43.41582" lon="2.65662">
        <ele>690.3</ele>
        <time>2022-06-21T09:21:12Z</time>
      </trkpt>
      <trkpt lat="43.41583" lon="2.65663">
        <ele>690.5</ele>
        <time>2022-06-21T09:21:13Z</time>
      </trkpt>
      <trkpt lat="43.41584" lon="2.65665">
        <ele>690.9</ele>
        <time>2022-06-21T09:21:14Z</time>
      </trkpt>
      <trkpt lat="43.41584" lon="2.65666">
        <ele>691.1</ele>
        <time>2022-06-21T09:21:15Z</time>
      </trkpt>
      <trkpt lat="43.41585" lon="2.65667">
        <ele>691.2</ele>
        <time>2022-06-21T09:21:16Z</time>
      </trkpt>
      <trkpt lat="43.41585" lon="2.65669">
        <ele>691.5</ele>
        <time>2022-06-21T09:21:17Z</time>
      </trkpt>
      <trkpt lat="43.41586" lon="2.6567">
        <ele>691.7</ele>
        <time>2022-06-21T09:21:18Z</time>
      </trkpt>
      <trkpt lat="43.41586" lon="2.65671">
        <ele>691.8</ele>
        <time>2022-06-21T09:21:19Z</time>
      </trkpt>
      <trkpt lat="43.41587" lon="2.65672">
        <ele>692</ele>
        <time>2022-06-21T09:21:20Z</time>
      </trkpt>
      <trkpt lat="43.41587" lon="2.65673">
        <ele>692.2</ele>
        <time>2022-06-21T09:21:21Z</time>
      </trkpt>
      <trkpt lat="43.41587" lon="2.65674">
        <ele>692.3</ele>
        <time>2022-06-21T09:21:22Z</time>
      </trkpt>
      <trkpt lat="43.41588" lon="2.65676">
        <ele>692.5</ele>
        <time>2022-06-21T09:21:23Z</time>
      </trkpt>
      <trkpt lat="43.41588" lon="2.65677">
        <ele>692.7</ele>
        <time>2022-06-21T09:21:24Z</time>
      </trkpt>
      <trkpt lat="43.41589" lon="2.65678">
        <ele>692.9</ele>
        <time>2022-06-21T09:21:25Z</time>
      </trkpt>
      <trkpt lat="43.41589" lon="2.65679">
        <ele>693.1</ele>
        <time>2022-06-21T09:21:26Z</time>
      </trkpt>
      <trkpt lat="43.41589" lon="2.6568">
        <ele>693.2</ele>
        <time>2022-06-21T09:21:27Z</time>
      </trkpt>
      <trkpt lat="43.41589" lon="2.65682">
        <ele>693.4</ele>
        <time>2022-06-21T09:21:28Z</time>
      </trkpt>
      <trkpt lat="43.41589" lon="2.65683">
        <ele>693.6</ele>
        <time>2022-06-21T09:21:29Z</time>
      </trkpt>
      <trkpt lat="43.4159" lon="2.65684">
        <ele>693.7</ele>
        <time>2022-06-21T09:21:30Z</time>
      </trkpt>
      <trkpt lat="43.4159" lon="2.65685">
        <ele>693.8</ele>
        <time>2022-06-21T09:21:31Z</time>
      </trkpt>
      <trkpt lat="43.4159" lon="2.65686">
        <ele>694</ele>
        <time>2022-06-21T09:21:32Z</time>
      </trkpt>
      <trkpt lat="43.41591" lon="2.65687">
        <ele>694.2</ele>
        <time>2022-06-21T09:21:33Z</time>
      </trkpt>
      <trkpt lat="43.41591" lon="2.65688">
        <ele>694.3</ele>
        <time>2022-06-21T09:21:34Z</time>
      </trkpt>
      <trkpt lat="43.41591" lon="2.65689">
        <ele>694.4</ele>
        <time>2022-06-21T09:21:35Z</time>
      </trkpt>
      <trkpt lat="43.41592" lon="2.6569">
        <ele>694.6</ele>
        <time>2022-06-21T09:21:36Z</time>
      </trkpt>
      <trkpt lat="43.41592" lon="2.65691">
        <ele>694.7</ele>
        <time>2022-06-21T09:21:37Z</time>
      </trkpt>
      <trkpt lat="43.41592" lon="2.65692">
        <ele>694.8</ele>
        <time>2022-06-21T09:21:38Z</time>
      </trkpt>
      <trkpt lat="43.41593" lon="2.65693">
        <ele>695</ele>
        <time>2022-06-21T09:21:39Z</time>
      </trkpt>
      <trkpt lat="43.41593" lon="2.65694">
        <ele>695.1</ele>
        <time>2022-06-21T09:21:40Z</time>
      </trkpt>
      <trkpt lat="43.41593" lon="2.65695">
        <ele>695.2</ele>
        <time>2022-06-21T09:21:41Z</time>
      </trkpt>
      <trkpt lat="43.41593" lon="2.65696">
        <ele>695.4</ele>
        <time>2022-06-21T09:21:42Z</time>
      </trkpt>
      <trkpt lat="43.41594" lon="2.65697">
        <ele>695.5</ele>
        <time>2022-06-21T09:21:43Z</time>
      </trkpt>
      <trkpt lat="43.41594" lon="2.65698">
        <ele>695.7</ele>
        <time>2022-06-21T09:21:44Z</time>
      </trkpt>
      <trkpt lat="43.41594" lon="2.65699">
        <ele>695.8</ele>
        <time>2022-06-21T09:21:45Z</time>
      </trkpt>
      <trkpt lat="43.41594" lon="2.657">
        <ele>695.9</ele>
        <time>2022-06-21T09:21:46Z</time>
      </trkpt>
      <trkpt lat="43.41594" lon="2.65701">
        <ele>696.1</ele>
        <time>2022-06-21T09:21:47Z</time>
      </trkpt>
      <trkpt lat="43.41595" lon="2.65702">
        <ele>696.2</ele>
        <time>2022-06-21T09:21:48Z</time>
      </trkpt>
      <trkpt lat="43.41595" lon="2.65703">
        <ele>696.3</ele>
        <time>2022-06-21T09:21:49Z</time>
      </trkpt>
      <trkpt lat="43.41595" lon="2.65704">
        <ele>696.4</ele>
        <time>2022-06-21T09:21:50Z</time>
      </trkpt>
      <trkpt lat="43.41595" lon="2.65704">
        <ele>696.5</ele>
        <time>2022-06-21T09:21:51Z</time>
      </trkpt>
      <trkpt lat="43.41596" lon="2.65705">
        <ele>696.6</ele>
        <time>2022-06-21T09:21:52Z</time>
      </trkpt>
      <trkpt lat="43.41596" lon="2.65707">
        <ele>696.8</ele>
        <time>2022-06-21T09:21:53Z</time>
      </trkpt>
      <trkpt lat="43.41596" lon="2.65707">
        <ele>696.9</ele>
        <time>2022-06-21T09:21:54Z</time>
      </trkpt>
      <trkpt lat="43.41596" lon="2.65708">
        <ele>697</ele>
        <time>2022-06-21T09:21:55Z</time>
      </trkpt>
      <trkpt lat="43.41597" lon="2.65709">
        <ele>697.2</ele>
        <time>2022-06-21T09:21:56Z</time>
      </trkpt>
      <trkpt lat="43.41597" lon="2.6571">
        <ele>697.3</ele>
        <time>2022-06-21T09:21:57Z</time>
      </trkpt>
      <trkpt lat="43.41597" lon="2.65711">
        <ele>697.4</ele>
        <time>2022-06-21T09:21:58Z</time>
      </trkpt>
      <trkpt lat="43.41597" lon="2.65711">
        <ele>697.5</ele>
        <time>2022-06-21T09:21:59Z</time>
      </trkpt>
      <trkpt lat="43.41597" lon="2.65712">
        <ele>697.6</ele>
        <time>2022-06-21T09:22:00Z</time>
      </trkpt>
      <trkpt lat="43.41597" lon="2.65714">
        <ele>697.8</ele>
        <time>2022-06-21T09:22:01Z</time>
      </trkpt>
      <trkpt lat="43.41597" lon="2.65714">
        <ele>697.9</ele>
        <time>2022-06-21T09:22:02Z</time>
      </trkpt>
      <trkpt lat="43.41598" lon="2.65716">
        <ele>698.1</ele>
        <time>2022-06-21T09:22:03Z</time>
      </trkpt>
      <trkpt lat="43.41598" lon="2.65717">
        <ele>698.2</ele>
        <time>2022-06-21T09:22:04Z</time>
      </trkpt>
      <trkpt lat="43.41598" lon="2.65718">
        <ele>698.4</ele>
        <time>2022-06-21T09:22:05Z</time>
      </trkpt>
      <trkpt lat="43.41598" lon="2.65719">
        <ele>698.5</ele>
        <time>2022-06-21T09:22:06Z</time>
      </trkpt>
      <trkpt lat="43.41598" lon="2.6572">
        <ele>698.7</ele>
        <time>2022-06-21T09:22:07Z</time>
      </trkpt>
      <trkpt lat="43.41598" lon="2.65721">
        <ele>698.8</ele>
        <time>2022-06-21T09:22:08Z</time>
      </trkpt>
      <trkpt lat="43.41598" lon="2.65722">
        <ele>698.9</ele>
        <time>2022-06-21T09:22:09Z</time>
      </trkpt>
      <trkpt lat="43.41598" lon="2.65723">
        <ele>699.1</ele>
        <time>2022-06-21T09:22:10Z</time>
      </trkpt>
      <trkpt lat="43.41598" lon="2.65724">
        <ele>699.3</ele>
        <time>2022-06-21T09:22:11Z</time>
      </trkpt>
      <trkpt lat="43.41598" lon="2.65725">
        <ele>699.4</ele>
        <time>2022-06-21T09:22:12Z</time>
      </trkpt>
      <trkpt lat="43.41598" lon="2.65726">
        <ele>699.6</ele>
        <time>2022-06-21T09:22:13Z</time>
      </trkpt>
      <trkpt lat="43.41599" lon="2.65727">
        <ele>699.8</ele>
        <time>2022-06-21T09:22:14Z</time>
      </trkpt>
      <trkpt lat="43.41599" lon="2.65728">
        <ele>699.9</ele>
        <time>2022-06-21T09:22:15Z</time>
      </trkpt>
      <trkpt lat="43.41599" lon="2.65729">
        <ele>700</ele>
        <time>2022-06-21T09:22:16Z</time>
      </trkpt>
      <trkpt lat="43.41599" lon="2.6573">
        <ele>700.2</ele>
        <time>2022-06-21T09:22:17Z</time>
      </trkpt>
      <trkpt lat="43.416" lon="2.65731">
        <ele>700.3</ele>
        <time>2022-06-21T09:22:18Z</time>
      </trkpt>
      <trkpt lat="43.416" lon="2.65732">
        <ele>700.6</ele>
        <time>2022-06-21T09:22:19Z</time>
      </trkpt>
      <trkpt lat="43.416" lon="2.65733">
        <ele>700.7</ele>
        <time>2022-06-21T09:22:20Z</time>
      </trkpt>
      <trkpt lat="43.416" lon="2.65733">
        <ele>700.8</ele>
        <time>2022-06-21T09:22:21Z</time>
      </trkpt>
      <trkpt lat="43.416" lon="2.65733">
        <ele>700.8</ele>
        <time>2022-06-21T09:22:22Z</time>
      </trkpt>
      <trkpt lat="43.416" lon="2.65733">
        <ele>700.8</ele>
        <time>2022-06-21T09:22:23Z</time>
      </trkpt>
      <trkpt lat="43.416" lon="2.65734">
        <ele>700.9</ele>
        <time>2022-06-21T09:22:24Z</time>
      </trkpt>
      <trkpt lat="43.416" lon="2.65734">
        <ele>700.9</ele>
        <time>2022-06-21T09:22:25Z</time>
      </trkpt>
      <trkpt lat="43.416" lon="2.65734">
        <ele>700.9</ele>
        <time>2022-06-21T09:22:26Z</time>
      </trkpt>
      <trkpt lat="43.416" lon="2.65733">
        <ele>700.9</ele>
        <time>2022-06-21T09:22:27Z</time>
      </trkpt>
      <trkpt lat="43.416" lon="2.65733">
        <ele>700.9</ele>
        <time>2022-06-21T09:22:28Z</time>
      </trkpt>
      <trkpt lat="43.416" lon="2.65733">
        <ele>700.9</ele>
        <time>2022-06-21T09:22:29Z</time>
      </trkpt>
      <trkpt lat="43.416" lon="2.65733">
        <ele>700.9</ele>
        <time>2022-06-21T09:22:30Z</time>
      </trkpt>
      <trkpt lat="43.416" lon="2.65733">
        <ele>700.9</ele>
        <time>2022-06-21T09:22:31Z</time>
      </trkpt>
      <trkpt lat="43.416" lon="2.65733">
        <ele>700.9</ele>
        <time>2022-06-21T09:22:32Z</time>
      </trkpt>
      <trkpt lat="43.416" lon="2.65734">
        <ele>701</ele>
        <time>2022-06-21T09:22:33Z</time>
      </trkpt>
      <trkpt lat="43.416" lon="2.65735">
        <ele>701.2</ele>
        <time>2022-06-21T09:22:34Z</time>
      </trkpt>
      <trkpt lat="43.41601" lon="2.65736">
        <ele>701.3</ele>
        <time>2022-06-21T09:22:35Z</time>
      </trkpt>
      <trkpt lat="43.41601" lon="2.65737">
        <ele>701.5</ele>
        <time>2022-06-21T09:22:36Z</time>
      </trkpt>
      <trkpt lat="43.41601" lon="2.65738">
        <ele>701.7</ele>
        <time>2022-06-21T09:22:37Z</time>
      </trkpt>
      <trkpt lat="43.41601" lon="2.65739">
        <ele>701.9</ele>
        <time>2022-06-21T09:22:38Z</time>
      </trkpt>
      <trkpt lat="43.41601" lon="2.6574">
        <ele>702</ele>
        <time>2022-06-21T09:22:39Z</time>
      </trkpt>
      <trkpt lat="43.41602" lon="2.65741">
        <ele>702.2</ele>
        <time>2022-06-21T09:22:40Z</time>
      </trkpt>
      <trkpt lat="43.41602" lon="2.65742">
        <ele>702.3</ele>
        <time>2022-06-21T09:22:41Z</time>
      </trkpt>
      <trkpt lat="43.41602" lon="2.65742">
        <ele>702.5</ele>
        <time>2022-06-21T09:22:42Z</time>
      </trkpt>
      <trkpt lat="43.41602" lon="2.65743">
        <ele>702.6</ele>
        <time>2022-06-21T09:22:43Z</time>
      </trkpt>
      <trkpt lat="43.41603" lon="2.65745">
        <ele>702.9</ele>
        <time>2022-06-21T09:22:44Z</time>
      </trkpt>
      <trkpt lat="43.41603" lon="2.65746">
        <ele>703</ele>
        <time>2022-06-21T09:22:45Z</time>
      </trkpt>
      <trkpt lat="43.41603" lon="2.65747">
        <ele>703.1</ele>
        <time>2022-06-21T09:22:46Z</time>
      </trkpt>
      <trkpt lat="43.41603" lon="2.65748">
        <ele>703.3</ele>
        <time>2022-06-21T09:22:47Z</time>
      </trkpt>
      <trkpt lat="43.41603" lon="2.65749">
        <ele>703.4</ele>
        <time>2022-06-21T09:22:48Z</time>
      </trkpt>
      <trkpt lat="43.41603" lon="2.6575">
        <ele>703.5</ele>
        <time>2022-06-21T09:22:49Z</time>
      </trkpt>
      <trkpt lat="43.41604" lon="2.65751">
        <ele>703.7</ele>
        <time>2022-06-21T09:22:50Z</time>
      </trkpt>
      <trkpt lat="43.41604" lon="2.65752">
        <ele>703.9</ele>
        <time>2022-06-21T09:22:51Z</time>
      </trkpt>
      <trkpt lat="43.41604" lon="2.65753">
        <ele>704</ele>
        <time>2022-06-21T09:22:52Z</time>
      </trkpt>
      <trkpt lat="43.41604" lon="2.65754">
        <ele>704.1</ele>
        <time>2022-06-21T09:22:53Z</time>
      </trkpt>
      <trkpt lat="43.41604" lon="2.65755">
        <ele>704.3</ele>
        <time>2022-06-21T09:22:54Z</time>
      </trkpt>
      <trkpt lat="43.41604" lon="2.65755">
        <ele>704.3</ele>
        <time>2022-06-21T09:22:55Z</time>
      </trkpt>
      <trkpt lat="43.41604" lon="2.65756">
        <ele>704.4</ele>
        <time>2022-06-21T09:22:56Z</time>
      </trkpt>
      <trkpt lat="43.41604" lon="2.65756">
        <ele>704.5</ele>
        <time>2022-06-21T09:22:57Z</time>
      </trkpt>
      <trkpt lat="43.41605" lon="2.65757">
        <ele>704.6</ele>
        <time>2022-06-21T09:22:58Z</time>
      </trkpt>
      <trkpt lat="43.41605" lon="2.65758">
        <ele>704.7</ele>
        <time>2022-06-21T09:22:59Z</time>
      </trkpt>
      <trkpt lat="43.41605" lon="2.6576">
        <ele>704.9</ele>
        <time>2022-06-21T09:23:00Z</time>
      </trkpt>
      <trkpt lat="43.41605" lon="2.65761">
        <ele>705</ele>
        <time>2022-06-21T09:23:01Z</time>
      </trkpt>
      <trkpt lat="43.41606" lon="2.65762">
        <ele>705.2</ele>
        <time>2022-06-21T09:23:02Z</time>
      </trkpt>
      <trkpt lat="43.41606" lon="2.65763">
        <ele>705.3</ele>
        <time>2022-06-21T09:23:03Z</time>
      </trkpt>
      <trkpt lat="43.41606" lon="2.65764">
        <ele>705.4</ele>
        <time>2022-06-21T09:23:04Z</time>
      </trkpt>
      <trkpt lat="43.41606" lon="2.65765">
        <ele>705.6</ele>
        <time>2022-06-21T09:23:05Z</time>
      </trkpt>
      <trkpt lat="43.41606" lon="2.65766">
        <ele>705.7</ele>
        <time>2022-06-21T09:23:06Z</time>
      </trkpt>
      <trkpt lat="43.41607" lon="2.65767">
        <ele>705.8</ele>
        <time>2022-06-21T09:23:07Z</time>
      </trkpt>
      <trkpt lat="43.41607" lon="2.65768">
        <ele>706</ele>
        <time>2022-06-21T09:23:08Z</time>
      </trkpt>
      <trkpt lat="43.41607" lon="2.65769">
        <ele>706.1</ele>
        <time>2022-06-21T09:23:09Z</time>
      </trkpt>
      <trkpt lat="43.41608" lon="2.6577">
        <ele>706.3</ele>
        <time>2022-06-21T09:23:10Z</time>
      </trkpt>
      <trkpt lat="43.41608" lon="2.65771">
        <ele>706.4</ele>
        <time>2022-06-21T09:23:11Z</time>
      </trkpt>
      <trkpt lat="43.41609" lon="2.65772">
        <ele>706.6</ele>
        <time>2022-06-21T09:23:12Z</time>
      </trkpt>
      <trkpt lat="43.41609" lon="2.65773">
        <ele>706.7</ele>
        <time>2022-06-21T09:23:13Z</time>
      </trkpt>
      <trkpt lat="43.4161" lon="2.65774">
        <ele>706.9</ele>
        <time>2022-06-21T09:23:14Z</time>
      </trkpt>
      <trkpt lat="43.4161" lon="2.65775">
        <ele>707</ele>
        <time>2022-06-21T09:23:15Z</time>
      </trkpt>
      <trkpt lat="43.4161" lon="2.65776">
        <ele>707.2</ele>
        <time>2022-06-21T09:23:16Z</time>
      </trkpt>
      <trkpt lat="43.41611" lon="2.65777">
        <ele>707.3</ele>
        <time>2022-06-21T09:23:17Z</time>
      </trkpt>
      <trkpt lat="43.41611" lon="2.65778">
        <ele>707.5</ele>
        <time>2022-06-21T09:23:18Z</time>
      </trkpt>
      <trkpt lat="43.41612" lon="2.65779">
        <ele>707.6</ele>
        <time>2022-06-21T09:23:19Z</time>
      </trkpt>
      <trkpt lat="43.41612" lon="2.6578">
        <ele>707.8</ele>
        <time>2022-06-21T09:23:20Z</time>
      </trkpt>
      <trkpt lat="43.41612" lon="2.65781">
        <ele>707.9</ele>
        <time>2022-06-21T09:23:21Z</time>
      </trkpt>
      <trkpt lat="43.41612" lon="2.65781">
        <ele>708</ele>
        <time>2022-06-21T09:23:22Z</time>
      </trkpt>
      <trkpt lat="43.41613" lon="2.65782">
        <ele>708.1</ele>
        <time>2022-06-21T09:23:23Z</time>
      </trkpt>
      <trkpt lat="43.41613" lon="2.65783">
        <ele>708.3</ele>
        <time>2022-06-21T09:23:24Z</time>
      </trkpt>
      <trkpt lat="43.41614" lon="2.65784">
        <ele>708.5</ele>
        <time>2022-06-21T09:23:25Z</time>
      </trkpt>
      <trkpt lat="43.41615" lon="2.65785">
        <ele>708.7</ele>
        <time>2022-06-21T09:23:26Z</time>
      </trkpt>
      <trkpt lat="43.41615" lon="2.65786">
        <ele>708.9</ele>
        <time>2022-06-21T09:23:27Z</time>
      </trkpt>
      <trkpt lat="43.41615" lon="2.65788">
        <ele>709.1</ele>
        <time>2022-06-21T09:23:28Z</time>
      </trkpt>
      <trkpt lat="43.41616" lon="2.65789">
        <ele>709.2</ele>
        <time>2022-06-21T09:23:29Z</time>
      </trkpt>
      <trkpt lat="43.41616" lon="2.6579">
        <ele>709.5</ele>
        <time>2022-06-21T09:23:30Z</time>
      </trkpt>
      <trkpt lat="43.41617" lon="2.65791">
        <ele>709.6</ele>
        <time>2022-06-21T09:23:31Z</time>
      </trkpt>
      <trkpt lat="43.41617" lon="2.65792">
        <ele>709.8</ele>
        <time>2022-06-21T09:23:32Z</time>
      </trkpt>
      <trkpt lat="43.41617" lon="2.65793">
        <ele>709.9</ele>
        <time>2022-06-21T09:23:33Z</time>
      </trkpt>
      <trkpt lat="43.41618" lon="2.65794">
        <ele>710</ele>
        <time>2022-06-21T09:23:34Z</time>
      </trkpt>
      <trkpt lat="43.41618" lon="2.65795">
        <ele>710.2</ele>
        <time>2022-06-21T09:23:35Z</time>
      </trkpt>
      <trkpt lat="43.41618" lon="2.65796">
        <ele>710.3</ele>
        <time>2022-06-21T09:23:36Z</time>
      </trkpt>
      <trkpt lat="43.41618" lon="2.65796">
        <ele>710.4</ele>
        <time>2022-06-21T09:23:37Z</time>
      </trkpt>
      <trkpt lat="43.41619" lon="2.65797">
        <ele>710.5</ele>
        <time>2022-06-21T09:23:38Z</time>
      </trkpt>
      <trkpt lat="43.41619" lon="2.65798">
        <ele>710.6</ele>
        <time>2022-06-21T09:23:39Z</time>
      </trkpt>
      <trkpt lat="43.4162" lon="2.65798">
        <ele>710.7</ele>
        <time>2022-06-21T09:23:40Z</time>
      </trkpt>
      <trkpt lat="43.4162" lon="2.65799">
        <ele>710.9</ele>
        <time>2022-06-21T09:23:41Z</time>
      </trkpt>
      <trkpt lat="43.41621" lon="2.658">
        <ele>711.1</ele>
        <time>2022-06-21T09:23:42Z</time>
      </trkpt>
      <trkpt lat="43.41622" lon="2.65801">
        <ele>711.2</ele>
        <time>2022-06-21T09:23:43Z</time>
      </trkpt>
      <trkpt lat="43.41622" lon="2.65802">
        <ele>711.3</ele>
        <time>2022-06-21T09:23:44Z</time>
      </trkpt>
      <trkpt lat="43.41623" lon="2.65802">
        <ele>711.5</ele>
        <time>2022-06-21T09:23:45Z</time>
      </trkpt>
      <trkpt lat="43.41624" lon="2.65803">
        <ele>711.6</ele>
        <time>2022-06-21T09:23:46Z</time>
      </trkpt>
      <trkpt lat="43.41624" lon="2.65803">
        <ele>711.7</ele>
        <time>2022-06-21T09:23:47Z</time>
      </trkpt>
      <trkpt lat="43.41624" lon="2.65804">
        <ele>711.8</ele>
        <time>2022-06-21T09:23:48Z</time>
      </trkpt>
      <trkpt lat="43.41625" lon="2.65805">
        <ele>711.9</ele>
        <time>2022-06-21T09:23:49Z</time>
      </trkpt>
      <trkpt lat="43.41626" lon="2.65805">
        <ele>712.1</ele>
        <time>2022-06-21T09:23:50Z</time>
      </trkpt>
      <trkpt lat="43.41626" lon="2.65806">
        <ele>712.2</ele>
        <time>2022-06-21T09:23:51Z</time>
      </trkpt>
      <trkpt lat="43.41627" lon="2.65807">
        <ele>712.4</ele>
        <time>2022-06-21T09:23:52Z</time>
      </trkpt>
      <trkpt lat="43.41628" lon="2.65808">
        <ele>712.6</ele>
        <time>2022-06-21T09:23:53Z</time>
      </trkpt>
      <trkpt lat="43.41628" lon="2.65809">
        <ele>712.7</ele>
        <time>2022-06-21T09:23:54Z</time>
      </trkpt>
      <trkpt lat="43.41629" lon="2.65809">
        <ele>712.8</ele>
        <time>2022-06-21T09:23:55Z</time>
      </trkpt>
      <trkpt lat="43.41629" lon="2.65809">
        <ele>712.9</ele>
        <time>2022-06-21T09:23:56Z</time>
      </trkpt>
      <trkpt lat="43.4163" lon="2.6581">
        <ele>713</ele>
        <time>2022-06-21T09:23:57Z</time>
      </trkpt>
      <trkpt lat="43.4163" lon="2.65811">
        <ele>713.2</ele>
        <time>2022-06-21T09:23:58Z</time>
      </trkpt>
      <trkpt lat="43.41631" lon="2.65812">
        <ele>713.3</ele>
        <time>2022-06-21T09:23:59Z</time>
      </trkpt>
      <trkpt lat="43.41631" lon="2.65812">
        <ele>713.4</ele>
        <time>2022-06-21T09:24:00Z</time>
      </trkpt>
      <trkpt lat="43.41632" lon="2.65813">
        <ele>713.6</ele>
        <time>2022-06-21T09:24:01Z</time>
      </trkpt>
      <trkpt lat="43.41633" lon="2.65814">
        <ele>713.7</ele>
        <time>2022-06-21T09:24:02Z</time>
      </trkpt>
      <trkpt lat="43.41633" lon="2.65815">
        <ele>713.9</ele>
        <time>2022-06-21T09:24:03Z</time>
      </trkpt>
      <trkpt lat="43.41634" lon="2.65816">
        <ele>714</ele>
        <time>2022-06-21T09:24:04Z</time>
      </trkpt>
      <trkpt lat="43.41635" lon="2.65817">
        <ele>714.2</ele>
        <time>2022-06-21T09:24:05Z</time>
      </trkpt>
      <trkpt lat="43.41635" lon="2.65817">
        <ele>714.4</ele>
        <time>2022-06-21T09:24:06Z</time>
      </trkpt>
      <trkpt lat="43.41636" lon="2.65817">
        <ele>714.5</ele>
        <time>2022-06-21T09:24:07Z</time>
      </trkpt>
      <trkpt lat="43.41636" lon="2.65818">
        <ele>714.6</ele>
        <time>2022-06-21T09:24:08Z</time>
      </trkpt>
      <trkpt lat="43.41637" lon="2.65818">
        <ele>714.7</ele>
        <time>2022-06-21T09:24:09Z</time>
      </trkpt>
      <trkpt lat="43.41638" lon="2.65819">
        <ele>714.8</ele>
        <time>2022-06-21T09:24:10Z</time>
      </trkpt>
      <trkpt lat="43.41638" lon="2.6582">
        <ele>714.9</ele>
        <time>2022-06-21T09:24:11Z</time>
      </trkpt>
      <trkpt lat="43.41639" lon="2.6582">
        <ele>715.1</ele>
        <time>2022-06-21T09:24:12Z</time>
      </trkpt>
      <trkpt lat="43.41639" lon="2.65821">
        <ele>715.2</ele>
        <time>2022-06-21T09:24:13Z</time>
      </trkpt>
      <trkpt lat="43.4164" lon="2.65822">
        <ele>715.3</ele>
        <time>2022-06-21T09:24:14Z</time>
      </trkpt>
      <trkpt lat="43.41641" lon="2.65822">
        <ele>715.4</ele>
        <time>2022-06-21T09:24:15Z</time>
      </trkpt>
      <trkpt lat="43.41641" lon="2.65823">
        <ele>715.6</ele>
        <time>2022-06-21T09:24:16Z</time>
      </trkpt>
      <trkpt lat="43.41642" lon="2.65823">
        <ele>715.7</ele>
        <time>2022-06-21T09:24:17Z</time>
      </trkpt>
      <trkpt lat="43.41643" lon="2.65824">
        <ele>715.8</ele>
        <time>2022-06-21T09:24:18Z</time>
      </trkpt>
      <trkpt lat="43.41643" lon="2.65825">
        <ele>715.9</ele>
        <time>2022-06-21T09:24:19Z</time>
      </trkpt>
      <trkpt lat="43.41644" lon="2.65825">
        <ele>716</ele>
        <time>2022-06-21T09:24:20Z</time>
      </trkpt>
      <trkpt lat="43.41644" lon="2.65826">
        <ele>716.1</ele>
        <time>2022-06-21T09:24:21Z</time>
      </trkpt>
      <trkpt lat="43.41645" lon="2.65827">
        <ele>716.2</ele>
        <time>2022-06-21T09:24:22Z</time>
      </trkpt>
      <trkpt lat="43.41646" lon="2.65827">
        <ele>716.3</ele>
        <time>2022-06-21T09:24:23Z</time>
      </trkpt>
      <trkpt lat="43.41646" lon="2.65828">
        <ele>716.4</ele>
        <time>2022-06-21T09:24:24Z</time>
      </trkpt>
      <trkpt lat="43.41647" lon="2.65828">
        <ele>716.4</ele>
        <time>2022-06-21T09:24:25Z</time>
      </trkpt>
      <trkpt lat="43.41647" lon="2.65829">
        <ele>716.5</ele>
        <time>2022-06-21T09:24:26Z</time>
      </trkpt>
      <trkpt lat="43.41648" lon="2.65829">
        <ele>716.6</ele>
        <time>2022-06-21T09:24:27Z</time>
      </trkpt>
      <trkpt lat="43.41649" lon="2.6583">
        <ele>716.7</ele>
        <time>2022-06-21T09:24:28Z</time>
      </trkpt>
      <trkpt lat="43.4165" lon="2.65831">
        <ele>716.8</ele>
        <time>2022-06-21T09:24:29Z</time>
      </trkpt>
      <trkpt lat="43.41651" lon="2.65831">
        <ele>716.9</ele>
        <time>2022-06-21T09:24:30Z</time>
      </trkpt>
      <trkpt lat="43.41651" lon="2.65832">
        <ele>717</ele>
        <time>2022-06-21T09:24:31Z</time>
      </trkpt>
      <trkpt lat="43.41651" lon="2.65832">
        <ele>717</ele>
        <time>2022-06-21T09:24:32Z</time>
      </trkpt>
      <trkpt lat="43.41651" lon="2.65832">
        <ele>717.1</ele>
        <time>2022-06-21T09:24:33Z</time>
      </trkpt>
      <trkpt lat="43.41651" lon="2.65832">
        <ele>717.1</ele>
        <time>2022-06-21T09:24:34Z</time>
      </trkpt>
      <trkpt lat="43.41651" lon="2.65832">
        <ele>717.1</ele>
        <time>2022-06-21T09:24:35Z</time>
      </trkpt>
      <trkpt lat="43.41651" lon="2.65832">
        <ele>717.1</ele>
        <time>2022-06-21T09:24:36Z</time>
      </trkpt>
      <trkpt lat="43.41651" lon="2.65832">
        <ele>717.1</ele>
        <time>2022-06-21T09:24:37Z</time>
      </trkpt>
      <trkpt lat="43.41651" lon="2.65832">
        <ele>717.1</ele>
        <time>2022-06-21T09:24:38Z</time>
      </trkpt>
      <trkpt lat="43.41651" lon="2.65832">
        <ele>717.1</ele>
        <time>2022-06-21T09:24:39Z</time>
      </trkpt>
      <trkpt lat="43.41651" lon="2.65832">
        <ele>717.1</ele>
        <time>2022-06-21T09:24:40Z</time>
      </trkpt>
      <trkpt lat="43.41651" lon="2.65832">
        <ele>717.1</ele>
        <time>2022-06-21T09:24:41Z</time>
      </trkpt>
      <trkpt lat="43.41651" lon="2.65832">
        <ele>717.1</ele>
        <time>2022-06-21T09:24:42Z</time>
      </trkpt>
      <trkpt lat="43.41651" lon="2.65833">
        <ele>717.1</ele>
        <time>2022-06-21T09:24:43Z</time>
      </trkpt>
      <trkpt lat="43.41651" lon="2.65834">
        <ele>717.2</ele>
        <time>2022-06-21T09:24:44Z</time>
      </trkpt>
      <trkpt lat="43.41651" lon="2.65834">
        <ele>717.3</ele>
        <time>2022-06-21T09:24:45Z</time>
      </trkpt>
      <trkpt lat="43.4165" lon="2.65834">
        <ele>717.3</ele>
        <time>2022-06-21T09:24:46Z</time>
      </trkpt>
      <trkpt lat="43.4165" lon="2.65834">
        <ele>717.3</ele>
        <time>2022-06-21T09:24:47Z</time>
      </trkpt>
      <trkpt lat="43.4165" lon="2.65834">
        <ele>717.3</ele>
        <time>2022-06-21T09:24:48Z</time>
      </trkpt>
      <trkpt lat="43.4165" lon="2.65834">
        <ele>717.3</ele>
        <time>2022-06-21T09:24:49Z</time>
      </trkpt>
      <trkpt lat="43.4165" lon="2.65834">
        <ele>717.3</ele>
        <time>2022-06-21T09:24:50Z</time>
      </trkpt>
      <trkpt lat="43.4165" lon="2.65834">
        <ele>717.3</ele>
        <time>2022-06-21T09:24:51Z</time>
      </trkpt>
      <trkpt lat="43.41651" lon="2.65834">
        <ele>717.4</ele>
        <time>2022-06-21T09:24:52Z</time>
      </trkpt>
      <trkpt lat="43.41651" lon="2.65834">
        <ele>717.4</ele>
        <time>2022-06-21T09:24:53Z</time>
      </trkpt>
      <trkpt lat="43.41651" lon="2.65834">
        <ele>717.4</ele>
        <time>2022-06-21T09:24:54Z</time>
      </trkpt>
      <trkpt lat="43.41651" lon="2.65834">
        <ele>717.5</ele>
        <time>2022-06-21T09:24:55Z</time>
      </trkpt>
      <trkpt lat="43.41651" lon="2.65834">
        <ele>717.5</ele>
        <time>2022-06-21T09:24:56Z</time>
      </trkpt>
      <trkpt lat="43.41651" lon="2.65834">
        <ele>717.5</ele>
        <time>2022-06-21T09:24:57Z</time>
      </trkpt>
      <trkpt lat="43.41651" lon="2.65834">
        <ele>717.5</ele>
        <time>2022-06-21T09:24:58Z</time>
      </trkpt>
      <trkpt lat="43.41651" lon="2.65834">
        <ele>717.5</ele>
        <time>2022-06-21T09:24:59Z</time>
      </trkpt>
      <trkpt lat="43.41651" lon="2.65834">
        <ele>717.5</ele>
        <time>2022-06-21T09:25:00Z</time>
      </trkpt>
      <trkpt lat="43.41651" lon="2.65834">
        <ele>717.5</ele>
        <time>2022-06-21T09:25:01Z</time>
      </trkpt>
      <trkpt lat="43.41651" lon="2.65834">
        <ele>717.5</ele>
        <time>2022-06-21T09:25:02Z</time>
      </trkpt>
      <trkpt lat="43.41651" lon="2.65834">
        <ele>717.5</ele>
        <time>2022-06-21T09:25:03Z</time>
      </trkpt>
      <trkpt lat="43.41651" lon="2.65834">
        <ele>717.5</ele>
        <time>2022-06-21T09:25:04Z</time>
      </trkpt>
      <trkpt lat="43.41651" lon="2.65834">
        <ele>717.5</ele>
        <time>2022-06-21T09:25:05Z</time>
      </trkpt>
      <trkpt lat="43.41651" lon="2.65834">
        <ele>717.5</ele>
        <time>2022-06-21T09:25:06Z</time>
      </trkpt>
      <trkpt lat="43.41651" lon="2.65834">
        <ele>717.5</ele>
        <time>2022-06-21T09:25:07Z</time>
      </trkpt>
      <trkpt lat="43.41651" lon="2.65834">
        <ele>717.5</ele>
        <time>2022-06-21T09:25:08Z</time>
      </trkpt>
      <trkpt lat="43.41651" lon="2.65834">
        <ele>717.5</ele>
        <time>2022-06-21T09:25:09Z</time>
      </trkpt>
      <trkpt lat="43.41651" lon="2.65834">
        <ele>717.5</ele>
        <time>2022-06-21T09:25:10Z</time>
      </trkpt>
      <trkpt lat="43.41651" lon="2.65834">
        <ele>717.5</ele>
        <time>2022-06-21T09:25:11Z</time>
      </trkpt>
      <trkpt lat="43.41651" lon="2.65834">
        <ele>717.5</ele>
        <time>2022-06-21T09:25:12Z</time>
      </trkpt>
      <trkpt lat="43.41651" lon="2.65834">
        <ele>717.5</ele>
        <time>2022-06-21T09:25:13Z</time>
      </trkpt>
      <trkpt lat="43.41651" lon="2.65834">
        <ele>717.5</ele>
        <time>2022-06-21T09:25:14Z</time>
      </trkpt>
      <trkpt lat="43.41651" lon="2.65834">
        <ele>717.5</ele>
        <time>2022-06-21T09:25:15Z</time>
      </trkpt>
      <trkpt lat="43.41651" lon="2.65834">
        <ele>717.5</ele>
        <time>2022-06-21T09:25:16Z</time>
      </trkpt>
      <trkpt lat="43.41651" lon="2.65834">
        <ele>717.5</ele>
        <time>2022-06-21T09:25:17Z</time>
      </trkpt>
      <trkpt lat="43.41651" lon="2.65834">
        <ele>717.5</ele>
        <time>2022-06-21T09:25:18Z</time>
      </trkpt>
      <trkpt lat="43.41651" lon="2.65834">
        <ele>717.5</ele>
        <time>2022-06-21T09:25:19Z</time>
      </trkpt>
      <trkpt lat="43.41651" lon="2.65834">
        <ele>717.5</ele>
        <time>2022-06-21T09:25:20Z</time>
      </trkpt>
      <trkpt lat="43.41651" lon="2.65834">
        <ele>717.5</ele>
        <time>2022-06-21T09:25:21Z</time>
      </trkpt>
      <trkpt lat="43.41651" lon="2.65834">
        <ele>717.5</ele>
        <time>2022-06-21T09:25:22Z</time>
      </trkpt>
      <trkpt lat="43.41651" lon="2.65834">
        <ele>717.5</ele>
        <time>2022-06-21T09:25:23Z</time>
      </trkpt>
      <trkpt lat="43.41651" lon="2.65834">
        <ele>717.5</ele>
        <time>2022-06-21T09:25:24Z</time>
      </trkpt>
      <trkpt lat="43.41651" lon="2.65833">
        <ele>717.5</ele>
        <time>2022-06-21T09:25:25Z</time>
      </trkpt>
      <trkpt lat="43.41651" lon="2.65833">
        <ele>717.5</ele>
        <time>2022-06-21T09:25:26Z</time>
      </trkpt>
      <trkpt lat="43.41651" lon="2.65833">
        <ele>717.5</ele>
        <time>2022-06-21T09:25:27Z</time>
      </trkpt>
      <trkpt lat="43.41651" lon="2.65833">
        <ele>717.5</ele>
        <time>2022-06-21T09:25:28Z</time>
      </trkpt>
      <trkpt lat="43.41651" lon="2.65833">
        <ele>717.5</ele>
        <time>2022-06-21T09:25:29Z</time>
      </trkpt>
      <trkpt lat="43.41651" lon="2.65833">
        <ele>717.5</ele>
        <time>2022-06-21T09:25:30Z</time>
      </trkpt>
      <trkpt lat="43.41651" lon="2.65833">
        <ele>717.5</ele>
        <time>2022-06-21T09:25:31Z</time>
      </trkpt>
      <trkpt lat="43.41651" lon="2.65833">
        <ele>717.5</ele>
        <time>2022-06-21T09:25:32Z</time>
      </trkpt>
      <trkpt lat="43.41651" lon="2.65833">
        <ele>717.5</ele>
        <time>2022-06-21T09:25:33Z</time>
      </trkpt>
      <trkpt lat="43.41651" lon="2.65833">
        <ele>717.5</ele>
        <time>2022-06-21T09:25:34Z</time>
      </trkpt>
      <trkpt lat="43.41651" lon="2.65833">
        <ele>717.5</ele>
        <time>2022-06-21T09:25:35Z</time>
      </trkpt>
      <trkpt lat="43.41651" lon="2.65833">
        <ele>717.6</ele>
        <time>2022-06-21T09:25:36Z</time>
      </trkpt>
      <trkpt lat="43.41651" lon="2.65833">
        <ele>717.6</ele>
        <time>2022-06-21T09:25:37Z</time>
      </trkpt>
      <trkpt lat="43.41651" lon="2.65833">
        <ele>717.6</ele>
        <time>2022-06-21T09:25:38Z</time>
      </trkpt>
      <trkpt lat="43.41651" lon="2.65833">
        <ele>717.6</ele>
        <time>2022-06-21T09:25:39Z</time>
      </trkpt>
      <trkpt lat="43.41651" lon="2.65833">
        <ele>717.6</ele>
        <time>2022-06-21T09:25:40Z</time>
      </trkpt>
      <trkpt lat="43.41651" lon="2.65833">
        <ele>717.6</ele>
        <time>2022-06-21T09:25:41Z</time>
      </trkpt>
      <trkpt lat="43.41651" lon="2.65833">
        <ele>717.6</ele>
        <time>2022-06-21T09:25:42Z</time>
      </trkpt>
      <trkpt lat="43.41651" lon="2.65833">
        <ele>717.6</ele>
        <time>2022-06-21T09:25:43Z</time>
      </trkpt>
      <trkpt lat="43.41651" lon="2.65833">
        <ele>717.6</ele>
        <time>2022-06-21T09:25:44Z</time>
      </trkpt>
      <trkpt lat="43.41651" lon="2.65833">
        <ele>717.6</ele>
        <time>2022-06-21T09:25:45Z</time>
      </trkpt>
      <trkpt lat="43.41651" lon="2.65833">
        <ele>717.6</ele>
        <time>2022-06-21T09:25:46Z</time>
      </trkpt>
      <trkpt lat="43.41651" lon="2.65833">
        <ele>717.6</ele>
        <time>2022-06-21T09:25:47Z</time>
      </trkpt>
      <trkpt lat="43.41651" lon="2.65833">
        <ele>717.6</ele>
        <time>2022-06-21T09:25:48Z</time>
      </trkpt>
      <trkpt lat="43.41651" lon="2.65833">
        <ele>717.6</ele>
        <time>2022-06-21T09:25:49Z</time>
      </trkpt>
      <trkpt lat="43.41651" lon="2.65833">
        <ele>717.6</ele>
        <time>2022-06-21T09:25:50Z</time>
      </trkpt>
      <trkpt lat="43.41651" lon="2.65833">
        <ele>717.6</ele>
        <time>2022-06-21T09:25:51Z</time>
      </trkpt>
      <trkpt lat="43.41651" lon="2.65833">
        <ele>717.6</ele>
        <time>2022-06-21T09:25:52Z</time>
      </trkpt>
      <trkpt lat="43.41651" lon="2.65833">
        <ele>717.6</ele>
        <time>2022-06-21T09:25:53Z</time>
      </trkpt>
      <trkpt lat="43.41651" lon="2.65833">
        <ele>717.6</ele>
        <time>2022-06-21T09:25:54Z</time>
      </trkpt>
      <trkpt lat="43.41651" lon="2.65833">
        <ele>717.6</ele>
        <time>2022-06-21T09:25:55Z</time>
      </trkpt>
      <trkpt lat="43.41651" lon="2.65833">
        <ele>717.6</ele>
        <time>2022-06-21T09:25:56Z</time>
      </trkpt>
      <trkpt lat="43.41651" lon="2.65833">
        <ele>717.6</ele>
        <time>2022-06-21T09:25:57Z</time>
      </trkpt>
      <trkpt lat="43.41651" lon="2.65833">
        <ele>717.6</ele>
        <time>2022-06-21T09:25:58Z</time>
      </trkpt>
      <trkpt lat="43.41651" lon="2.65833">
        <ele>717.6</ele>
        <time>2022-06-21T09:25:59Z</time>
      </trkpt>
      <trkpt lat="43.41651" lon="2.65833">
        <ele>717.6</ele>
        <time>2022-06-21T09:26:00Z</time>
      </trkpt>
      <trkpt lat="43.41651" lon="2.65833">
        <ele>717.6</ele>
        <time>2022-06-21T09:26:01Z</time>
      </trkpt>
      <trkpt lat="43.41651" lon="2.65833">
        <ele>717.6</ele>
        <time>2022-06-21T09:26:02Z</time>
      </trkpt>
      <trkpt lat="43.41651" lon="2.65833">
        <ele>717.6</ele>
        <time>2022-06-21T09:26:03Z</time>
      </trkpt>
      <trkpt lat="43.41651" lon="2.65833">
        <ele>717.6</ele>
        <time>2022-06-21T09:26:04Z</time>
      </trkpt>
      <trkpt lat="43.41651" lon="2.65833">
        <ele>717.6</ele>
        <time>2022-06-21T09:26:05Z</time>
      </trkpt>
      <trkpt lat="43.41651" lon="2.65833">
        <ele>717.6</ele>
        <time>2022-06-21T09:26:06Z</time>
      </trkpt>
      <trkpt lat="43.41651" lon="2.65833">
        <ele>717.6</ele>
        <time>2022-06-21T09:26:07Z</time>
      </trkpt>
      <trkpt lat="43.41651" lon="2.65833">
        <ele>717.6</ele>
        <time>2022-06-21T09:26:08Z</time>
      </trkpt>
      <trkpt lat="43.41651" lon="2.65833">
        <ele>717.6</ele>
        <time>2022-06-21T09:26:09Z</time>
      </trkpt>
      <trkpt lat="43.41651" lon="2.65833">
        <ele>717.6</ele>
        <time>2022-06-21T09:26:10Z</time>
      </trkpt>
      <trkpt lat="43.41651" lon="2.65833">
        <ele>717.6</ele>
        <time>2022-06-21T09:26:11Z</time>
      </trkpt>
      <trkpt lat="43.41651" lon="2.65833">
        <ele>717.6</ele>
        <time>2022-06-21T09:26:12Z</time>
      </trkpt>
      <trkpt lat="43.41651" lon="2.65833">
        <ele>717.6</ele>
        <time>2022-06-21T09:26:13Z</time>
      </trkpt>
      <trkpt lat="43.41651" lon="2.65833">
        <ele>717.6</ele>
        <time>2022-06-21T09:26:14Z</time>
      </trkpt>
      <trkpt lat="43.41651" lon="2.65833">
        <ele>717.6</ele>
        <time>2022-06-21T09:26:15Z</time>
      </trkpt>
      <trkpt lat="43.41651" lon="2.65833">
        <ele>717.6</ele>
        <time>2022-06-21T09:26:16Z</time>
      </trkpt>
      <trkpt lat="43.41651" lon="2.65833">
        <ele>717.6</ele>
        <time>2022-06-21T09:26:17Z</time>
      </trkpt>
      <trkpt lat="43.41651" lon="2.65833">
        <ele>717.6</ele>
        <time>2022-06-21T09:26:18Z</time>
      </trkpt>
      <trkpt lat="43.41651" lon="2.65833">
        <ele>717.6</ele>
        <time>2022-06-21T09:26:19Z</time>
      </trkpt>
      <trkpt lat="43.41651" lon="2.65833">
        <ele>717.6</ele>
        <time>2022-06-21T09:26:20Z</time>
      </trkpt>
      <trkpt lat="43.41651" lon="2.65833">
        <ele>717.6</ele>
        <time>2022-06-21T09:26:21Z</time>
      </trkpt>
      <trkpt lat="43.41651" lon="2.65833">
        <ele>717.6</ele>
        <time>2022-06-21T09:26:22Z</time>
      </trkpt>
      <trkpt lat="43.41651" lon="2.65833">
        <ele>717.6</ele>
        <time>2022-06-21T09:26:23Z</time>
      </trkpt>
      <trkpt lat="43.41651" lon="2.65833">
        <ele>717.6</ele>
        <time>2022-06-21T09:26:24Z</time>
      </trkpt>
      <trkpt lat="43.41651" lon="2.65833">
        <ele>717.6</ele>
        <time>2022-06-21T09:26:25Z</time>
      </trkpt>
      <trkpt lat="43.41651" lon="2.65833">
        <ele>717.7</ele>
        <time>2022-06-21T09:26:26Z</time>
      </trkpt>
      <trkpt lat="43.41651" lon="2.65833">
        <ele>717.7</ele>
        <time>2022-06-21T09:26:27Z</time>
      </trkpt>
      <trkpt lat="43.41651" lon="2.65833">
        <ele>717.7</ele>
        <time>2022-06-21T09:26:28Z</time>
      </trkpt>
      <trkpt lat="43.41651" lon="2.65833">
        <ele>717.7</ele>
        <time>2022-06-21T09:26:29Z</time>
      </trkpt>
      <trkpt lat="43.41651" lon="2.65833">
        <ele>717.7</ele>
        <time>2022-06-21T09:26:30Z</time>
      </trkpt>
      <trkpt lat="43.41651" lon="2.65833">
        <ele>717.7</ele>
        <time>2022-06-21T09:26:31Z</time>
      </trkpt>
      <trkpt lat="43.41651" lon="2.65833">
        <ele>717.7</ele>
        <time>2022-06-21T09:26:32Z</time>
      </trkpt>
      <trkpt lat="43.41651" lon="2.65833">
        <ele>717.7</ele>
        <time>2022-06-21T09:26:33Z</time>
      </trkpt>
      <trkpt lat="43.41651" lon="2.65833">
        <ele>717.7</ele>
        <time>2022-06-21T09:26:34Z</time>
      </trkpt>
      <trkpt lat="43.41651" lon="2.65833">
        <ele>717.7</ele>
        <time>2022-06-21T09:26:35Z</time>
      </trkpt>
      <trkpt lat="43.41651" lon="2.65833">
        <ele>717.7</ele>
        <time>2022-06-21T09:26:36Z</time>
      </trkpt>
      <trkpt lat="43.41651" lon="2.65833">
        <ele>717.7</ele>
        <time>2022-06-21T09:26:37Z</time>
      </trkpt>
      <trkpt lat="43.41651" lon="2.65833">
        <ele>717.7</ele>
        <time>2022-06-21T09:26:38Z</time>
      </trkpt>
      <trkpt lat="43.41651" lon="2.65833">
        <ele>717.7</ele>
        <time>2022-06-21T09:26:39Z</time>
      </trkpt>
      <trkpt lat="43.41651" lon="2.65833">
        <ele>717.7</ele>
        <time>2022-06-21T09:26:40Z</time>
      </trkpt>
      <trkpt lat="43.41651" lon="2.65833">
        <ele>717.7</ele>
        <time>2022-06-21T09:26:41Z</time>
      </trkpt>
      <trkpt lat="43.41651" lon="2.65833">
        <ele>717.7</ele>
        <time>2022-06-21T09:26:42Z</time>
      </trkpt>
      <trkpt lat="43.41651" lon="2.65833">
        <ele>717.7</ele>
        <time>2022-06-21T09:26:43Z</time>
      </trkpt>
      <trkpt lat="43.41651" lon="2.65833">
        <ele>717.7</ele>
        <time>2022-06-21T09:26:44Z</time>
      </trkpt>
      <trkpt lat="43.41651" lon="2.65833">
        <ele>717.7</ele>
        <time>2022-06-21T09:26:45Z</time>
      </trkpt>
      <trkpt lat="43.41651" lon="2.65833">
        <ele>717.7</ele>
        <time>2022-06-21T09:26:46Z</time>
      </trkpt>
      <trkpt lat="43.41651" lon="2.65833">
        <ele>717.7</ele>
        <time>2022-06-21T09:26:47Z</time>
      </trkpt>
      <trkpt lat="43.41651" lon="2.65833">
        <ele>717.7</ele>
        <time>2022-06-21T09:26:48Z</time>
      </trkpt>
      <trkpt lat="43.41651" lon="2.65833">
        <ele>717.7</ele>
        <time>2022-06-21T09:26:49Z</time>
      </trkpt>
      <trkpt lat="43.41651" lon="2.65833">
        <ele>717.7</ele>
        <time>2022-06-21T09:26:50Z</time>
      </trkpt>
      <trkpt lat="43.41651" lon="2.65833">
        <ele>717.7</ele>
        <time>2022-06-21T09:26:51Z</time>
      </trkpt>
      <trkpt lat="43.41651" lon="2.65833">
        <ele>717.7</ele>
        <time>2022-06-21T09:26:52Z</time>
      </trkpt>
      <trkpt lat="43.41651" lon="2.65833">
        <ele>717.7</ele>
        <time>2022-06-21T09:26:53Z</time>
      </trkpt>
      <trkpt lat="43.41651" lon="2.65833">
        <ele>717.7</ele>
        <time>2022-06-21T09:26:54Z</time>
      </trkpt>
      <trkpt lat="43.41651" lon="2.65833">
        <ele>717.7</ele>
        <time>2022-06-21T09:26:55Z</time>
      </trkpt>
      <trkpt lat="43.41651" lon="2.65833">
        <ele>717.7</ele>
        <time>2022-06-21T09:26:56Z</time>
      </trkpt>
      <trkpt lat="43.41651" lon="2.65833">
        <ele>717.7</ele>
        <time>2022-06-21T09:26:57Z</time>
      </trkpt>
      <trkpt lat="43.41651" lon="2.65833">
        <ele>717.7</ele>
        <time>2022-06-21T09:26:58Z</time>
      </trkpt>
      <trkpt lat="43.41651" lon="2.65833">
        <ele>717.7</ele>
        <time>2022-06-21T09:26:59Z</time>
      </trkpt>
      <trkpt lat="43.41651" lon="2.65833">
        <ele>717.7</ele>
        <time>2022-06-21T09:27:00Z</time>
      </trkpt>
      <trkpt lat="43.41651" lon="2.65833">
        <ele>717.7</ele>
        <time>2022-06-21T09:27:01Z</time>
      </trkpt>
      <trkpt lat="43.41651" lon="2.65833">
        <ele>717.7</ele>
        <time>2022-06-21T09:27:02Z</time>
      </trkpt>
      <trkpt lat="43.41651" lon="2.65833">
        <ele>717.7</ele>
        <time>2022-06-21T09:27:03Z</time>
      </trkpt>
      <trkpt lat="43.41651" lon="2.65833">
        <ele>717.7</ele>
        <time>2022-06-21T09:27:04Z</time>
      </trkpt>
      <trkpt lat="43.41651" lon="2.65833">
        <ele>717.7</ele>
        <time>2022-06-21T09:27:05Z</time>
      </trkpt>
      <trkpt lat="43.41651" lon="2.65833">
        <ele>717.7</ele>
        <time>2022-06-21T09:27:06Z</time>
      </trkpt>
      <trkpt lat="43.41651" lon="2.65833">
        <ele>717.7</ele>
        <time>2022-06-21T09:27:07Z</time>
      </trkpt>
      <trkpt lat="43.41651" lon="2.65833">
        <ele>717.7</ele>
        <time>2022-06-21T09:27:08Z</time>
      </trkpt>
      <trkpt lat="43.41651" lon="2.65833">
        <ele>717.7</ele>
        <time>2022-06-21T09:27:09Z</time>
      </trkpt>
      <trkpt lat="43.41651" lon="2.65833">
        <ele>717.7</ele>
        <time>2022-06-21T09:27:10Z</time>
      </trkpt>
      <trkpt lat="43.41651" lon="2.65833">
        <ele>717.7</ele>
        <time>2022-06-21T09:27:11Z</time>
      </trkpt>
      <trkpt lat="43.41651" lon="2.65833">
        <ele>717.7</ele>
        <time>2022-06-21T09:27:12Z</time>
      </trkpt>
      <trkpt lat="43.41651" lon="2.65833">
        <ele>717.7</ele>
        <time>2022-06-21T09:27:13Z</time>
      </trkpt>
      <trkpt lat="43.41651" lon="2.65833">
        <ele>717.7</ele>
        <time>2022-06-21T09:27:14Z</time>
      </trkpt>
      <trkpt lat="43.41651" lon="2.65833">
        <ele>717.7</ele>
        <time>2022-06-21T09:27:15Z</time>
      </trkpt>
      <trkpt lat="43.41651" lon="2.65833">
        <ele>717.7</ele>
        <time>2022-06-21T09:27:16Z</time>
      </trkpt>
      <trkpt lat="43.41651" lon="2.65833">
        <ele>717.7</ele>
        <time>2022-06-21T09:27:17Z</time>
      </trkpt>
      <trkpt lat="43.41651" lon="2.65833">
        <ele>717.7</ele>
        <time>2022-06-21T09:27:18Z</time>
      </trkpt>
      <trkpt lat="43.41651" lon="2.65833">
        <ele>717.7</ele>
        <time>2022-06-21T09:27:19Z</time>
      </trkpt>
      <trkpt lat="43.41651" lon="2.65833">
        <ele>717.7</ele>
        <time>2022-06-21T09:27:20Z</time>
      </trkpt>
      <trkpt lat="43.41651" lon="2.65833">
        <ele>717.7</ele>
        <time>2022-06-21T09:27:21Z</time>
      </trkpt>
      <trkpt lat="43.41651" lon="2.65833">
        <ele>717.7</ele>
        <time>2022-06-21T09:27:22Z</time>
      </trkpt>
      <trkpt lat="43.41651" lon="2.65833">
        <ele>717.7</ele>
        <time>2022-06-21T09:27:23Z</time>
      </trkpt>
      <trkpt lat="43.41651" lon="2.65833">
        <ele>717.7</ele>
        <time>2022-06-21T09:27:24Z</time>
      </trkpt>
      <trkpt lat="43.41651" lon="2.65833">
        <ele>717.7</ele>
        <time>2022-06-21T09:27:25Z</time>
      </trkpt>
      <trkpt lat="43.41651" lon="2.65833">
        <ele>717.7</ele>
        <time>2022-06-21T09:27:26Z</time>
      </trkpt>
      <trkpt lat="43.41651" lon="2.65833">
        <ele>717.7</ele>
        <time>2022-06-21T09:27:27Z</time>
      </trkpt>
      <trkpt lat="43.41651" lon="2.65833">
        <ele>717.7</ele>
        <time>2022-06-21T09:27:28Z</time>
      </trkpt>
      <trkpt lat="43.41651" lon="2.65833">
        <ele>717.7</ele>
        <time>2022-06-21T09:27:29Z</time>
      </trkpt>
      <trkpt lat="43.41651" lon="2.65833">
        <ele>717.7</ele>
        <time>2022-06-21T09:27:30Z</time>
      </trkpt>
      <trkpt lat="43.41651" lon="2.65833">
        <ele>717.7</ele>
        <time>2022-06-21T09:27:31Z</time>
      </trkpt>
      <trkpt lat="43.41651" lon="2.65833">
        <ele>717.7</ele>
        <time>2022-06-21T09:27:32Z</time>
      </trkpt>
      <trkpt lat="43.41651" lon="2.65833">
        <ele>717.7</ele>
        <time>2022-06-21T09:27:33Z</time>
      </trkpt>
      <trkpt lat="43.41651" lon="2.65833">
        <ele>717.7</ele>
        <time>2022-06-21T09:27:34Z</time>
      </trkpt>
      <trkpt lat="43.41651" lon="2.65833">
        <ele>717.7</ele>
        <time>2022-06-21T09:27:35Z</time>
      </trkpt>
      <trkpt lat="43.41651" lon="2.65833">
        <ele>717.7</ele>
        <time>2022-06-21T09:27:36Z</time>
      </trkpt>
      <trkpt lat="43.41651" lon="2.65833">
        <ele>717.7</ele>
        <time>2022-06-21T09:27:37Z</time>
      </trkpt>
      <trkpt lat="43.41651" lon="2.65833">
        <ele>717.7</ele>
        <time>2022-06-21T09:27:38Z</time>
      </trkpt>
      <trkpt lat="43.41651" lon="2.65833">
        <ele>717.7</ele>
        <time>2022-06-21T09:27:39Z</time>
      </trkpt>
      <trkpt lat="43.41651" lon="2.65833">
        <ele>717.7</ele>
        <time>2022-06-21T09:27:40Z</time>
      </trkpt>
      <trkpt lat="43.41651" lon="2.65833">
        <ele>717.7</ele>
        <time>2022-06-21T09:27:41Z</time>
      </trkpt>
      <trkpt lat="43.41651" lon="2.65833">
        <ele>717.7</ele>
        <time>2022-06-21T09:27:42Z</time>
      </trkpt>
      <trkpt lat="43.41651" lon="2.65833">
        <ele>717.7</ele>
        <time>2022-06-21T09:27:43Z</time>
      </trkpt>
      <trkpt lat="43.41651" lon="2.65833">
        <ele>717.7</ele>
        <time>2022-06-21T09:27:44Z</time>
      </trkpt>
      <trkpt lat="43.41651" lon="2.65833">
        <ele>717.7</ele>
        <time>2022-06-21T09:27:45Z</time>
      </trkpt>
      <trkpt lat="43.41651" lon="2.65833">
        <ele>717.7</ele>
        <time>2022-06-21T09:27:46Z</time>
      </trkpt>
      <trkpt lat="43.41651" lon="2.65833">
        <ele>717.7</ele>
        <time>2022-06-21T09:27:47Z</time>
      </trkpt>
      <trkpt lat="43.41651" lon="2.65833">
        <ele>717.7</ele>
        <time>2022-06-21T09:27:48Z</time>
      </trkpt>
      <trkpt lat="43.41651" lon="2.65833">
        <ele>717.7</ele>
        <time>2022-06-21T09:27:49Z</time>
      </trkpt>
      <trkpt lat="43.41651" lon="2.65833">
        <ele>717.7</ele>
        <time>2022-06-21T09:27:50Z</time>
      </trkpt>
      <trkpt lat="43.41651" lon="2.65833">
        <ele>717.7</ele>
        <time>2022-06-21T09:27:51Z</time>
      </trkpt>
      <trkpt lat="43.41651" lon="2.65833">
        <ele>717.7</ele>
        <time>2022-06-21T09:27:52Z</time>
      </trkpt>
      <trkpt lat="43.41651" lon="2.65833">
        <ele>717.7</ele>
        <time>2022-06-21T09:27:53Z</time>
      </trkpt>
      <trkpt lat="43.41651" lon="2.65833">
        <ele>717.7</ele>
        <time>2022-06-21T09:27:54Z</time>
      </trkpt>
      <trkpt lat="43.41651" lon="2.65833">
        <ele>717.7</ele>
        <time>2022-06-21T09:27:55Z</time>
      </trkpt>
      <trkpt lat="43.41651" lon="2.65833">
        <ele>717.7</ele>
        <time>2022-06-21T09:27:56Z</time>
      </trkpt>
      <trkpt lat="43.41651" lon="2.65833">
        <ele>717.7</ele>
        <time>2022-06-21T09:27:57Z</time>
      </trkpt>
      <trkpt lat="43.41651" lon="2.65833">
        <ele>717.7</ele>
        <time>2022-06-21T09:27:58Z</time>
      </trkpt>
      <trkpt lat="43.41651" lon="2.65833">
        <ele>717.7</ele>
        <time>2022-06-21T09:27:59Z</time>
      </trkpt>
      <trkpt lat="43.41651" lon="2.65833">
        <ele>717.7</ele>
        <time>2022-06-21T09:28:00Z</time>
      </trkpt>
      <trkpt lat="43.41651" lon="2.65833">
        <ele>717.7</ele>
        <time>2022-06-21T09:28:01Z</time>
      </trkpt>
      <trkpt lat="43.41651" lon="2.65833">
        <ele>717.7</ele>
        <time>2022-06-21T09:28:02Z</time>
      </trkpt>
      <trkpt lat="43.41651" lon="2.65833">
        <ele>717.7</ele>
        <time>2022-06-21T09:28:03Z</time>
      </trkpt>
      <trkpt lat="43.41651" lon="2.65833">
        <ele>717.7</ele>
        <time>2022-06-21T09:28:04Z</time>
      </trkpt>
      <trkpt lat="43.41651" lon="2.65833">
        <ele>717.7</ele>
        <time>2022-06-21T09:28:05Z</time>
      </trkpt>
      <trkpt lat="43.41651" lon="2.65833">
        <ele>717.7</ele>
        <time>2022-06-21T09:28:06Z</time>
      </trkpt>
      <trkpt lat="43.41651" lon="2.65833">
        <ele>717.7</ele>
        <time>2022-06-21T09:28:07Z</time>
      </trkpt>
      <trkpt lat="43.41651" lon="2.65833">
        <ele>717.7</ele>
        <time>2022-06-21T09:28:08Z</time>
      </trkpt>
      <trkpt lat="43.41651" lon="2.65833">
        <ele>717.7</ele>
        <time>2022-06-21T09:28:09Z</time>
      </trkpt>
      <trkpt lat="43.41652" lon="2.65834">
        <ele>717.7</ele>
        <time>2022-06-21T09:28:10Z</time>
      </trkpt>
      <trkpt lat="43.41652" lon="2.65834">
        <ele>718.2</ele>
        <time>2022-06-21T09:28:11Z</time>
      </trkpt>
      <trkpt lat="43.41653" lon="2.65834">
        <ele>718.2</ele>
        <time>2022-06-21T09:28:12Z</time>
      </trkpt>
      <trkpt lat="43.41653" lon="2.65834">
        <ele>718.2</ele>
        <time>2022-06-21T09:28:13Z</time>
      </trkpt>
      <trkpt lat="43.41653" lon="2.65834">
        <ele>718.2</ele>
        <time>2022-06-21T09:28:14Z</time>
      </trkpt>
      <trkpt lat="43.41653" lon="2.65834">
        <ele>718.2</ele>
        <time>2022-06-21T09:28:15Z</time>
      </trkpt>
      <trkpt lat="43.41653" lon="2.65834">
        <ele>718.2</ele>
        <time>2022-06-21T09:28:16Z</time>
      </trkpt>
      <trkpt lat="43.41653" lon="2.65834">
        <ele>718.2</ele>
        <time>2022-06-21T09:28:17Z</time>
      </trkpt>
      <trkpt lat="43.41653" lon="2.65834">
        <ele>718.2</ele>
        <time>2022-06-21T09:28:18Z</time>
      </trkpt>
      <trkpt lat="43.41653" lon="2.65834">
        <ele>718.2</ele>
        <time>2022-06-21T09:28:19Z</time>
      </trkpt>
      <trkpt lat="43.41653" lon="2.65834">
        <ele>718.2</ele>
        <time>2022-06-21T09:28:20Z</time>
      </trkpt>
      <trkpt lat="43.41653" lon="2.65834">
        <ele>718.2</ele>
        <time>2022-06-21T09:28:21Z</time>
      </trkpt>
      <trkpt lat="43.41653" lon="2.65834">
        <ele>718.2</ele>
        <time>2022-06-21T09:28:22Z</time>
      </trkpt>
      <trkpt lat="43.41654" lon="2.65834">
        <ele>718.2</ele>
        <time>2022-06-21T09:28:23Z</time>
      </trkpt>
      <trkpt lat="43.41654" lon="2.65834">
        <ele>718.2</ele>
        <time>2022-06-21T09:28:24Z</time>
      </trkpt>
      <trkpt lat="43.41655" lon="2.65834">
        <ele>718.2</ele>
        <time>2022-06-21T09:28:25Z</time>
      </trkpt>
      <trkpt lat="43.41655" lon="2.65834">
        <ele>718.2</ele>
        <time>2022-06-21T09:28:26Z</time>
      </trkpt>
      <trkpt lat="43.41655" lon="2.65834">
        <ele>718.2</ele>
        <time>2022-06-21T09:28:27Z</time>
      </trkpt>
      <trkpt lat="43.41655" lon="2.65833">
        <ele>718.2</ele>
        <time>2022-06-21T09:28:28Z</time>
      </trkpt>
      <trkpt lat="43.41655" lon="2.65833">
        <ele>718.2</ele>
        <time>2022-06-21T09:28:29Z</time>
      </trkpt>
      <trkpt lat="43.41655" lon="2.65833">
        <ele>718.2</ele>
        <time>2022-06-21T09:28:30Z</time>
      </trkpt>
      <trkpt lat="43.41655" lon="2.65832">
        <ele>718.2</ele>
        <time>2022-06-21T09:28:31Z</time>
      </trkpt>
      <trkpt lat="43.41655" lon="2.65832">
        <ele>718.2</ele>
        <time>2022-06-21T09:28:32Z</time>
      </trkpt>
      <trkpt lat="43.41655" lon="2.65832">
        <ele>718.2</ele>
        <time>2022-06-21T09:28:33Z</time>
      </trkpt>
      <trkpt lat="43.41655" lon="2.65832">
        <ele>718.2</ele>
        <time>2022-06-21T09:28:34Z</time>
      </trkpt>
      <trkpt lat="43.41655" lon="2.65832">
        <ele>718.2</ele>
        <time>2022-06-21T09:28:35Z</time>
      </trkpt>
      <trkpt lat="43.41655" lon="2.65832">
        <ele>718.2</ele>
        <time>2022-06-21T09:28:36Z</time>
      </trkpt>
      <trkpt lat="43.41655" lon="2.65831">
        <ele>718.7</ele>
        <time>2022-06-21T09:28:37Z</time>
      </trkpt>
      <trkpt lat="43.41656" lon="2.6583">
        <ele>719.6</ele>
        <time>2022-06-21T09:28:38Z</time>
      </trkpt>
      <trkpt lat="43.41656" lon="2.65829">
        <ele>719.6</ele>
        <time>2022-06-21T09:28:39Z</time>
      </trkpt>
      <trkpt lat="43.41656" lon="2.65829">
        <ele>719.6</ele>
        <time>2022-06-21T09:28:40Z</time>
      </trkpt>
      <trkpt lat="43.41656" lon="2.65828">
        <ele>719.6</ele>
        <time>2022-06-21T09:28:41Z</time>
      </trkpt>
      <trkpt lat="43.41656" lon="2.65828">
        <ele>719.6</ele>
        <time>2022-06-21T09:28:42Z</time>
      </trkpt>
      <trkpt lat="43.41656" lon="2.65826">
        <ele>719.6</ele>
        <time>2022-06-21T09:28:43Z</time>
      </trkpt>
      <trkpt lat="43.41657" lon="2.65826">
        <ele>720.5</ele>
        <time>2022-06-21T09:28:44Z</time>
      </trkpt>
      <trkpt lat="43.41657" lon="2.65825">
        <ele>720.5</ele>
        <time>2022-06-21T09:28:45Z</time>
      </trkpt>
      <trkpt lat="43.41657" lon="2.65824">
        <ele>720.5</ele>
        <time>2022-06-21T09:28:46Z</time>
      </trkpt>
      <trkpt lat="43.41657" lon="2.65824">
        <ele>720.5</ele>
        <time>2022-06-21T09:28:47Z</time>
      </trkpt>
      <trkpt lat="43.41657" lon="2.65824">
        <ele>720.5</ele>
        <time>2022-06-21T09:28:48Z</time>
      </trkpt>
      <trkpt lat="43.41657" lon="2.65824">
        <ele>720.5</ele>
        <time>2022-06-21T09:28:49Z</time>
      </trkpt>
      <trkpt lat="43.41657" lon="2.65824">
        <ele>720.5</ele>
        <time>2022-06-21T09:28:50Z</time>
      </trkpt>
      <trkpt lat="43.41657" lon="2.65824">
        <ele>720.5</ele>
        <time>2022-06-21T09:28:51Z</time>
      </trkpt>
      <trkpt lat="43.41657" lon="2.65824">
        <ele>720.5</ele>
        <time>2022-06-21T09:28:52Z</time>
      </trkpt>
      <trkpt lat="43.41657" lon="2.65824">
        <ele>720.5</ele>
        <time>2022-06-21T09:28:53Z</time>
      </trkpt>
      <trkpt lat="43.41657" lon="2.65824">
        <ele>720.5</ele>
        <time>2022-06-21T09:28:54Z</time>
      </trkpt>
      <trkpt lat="43.41657" lon="2.65823">
        <ele>720.5</ele>
        <time>2022-06-21T09:28:55Z</time>
      </trkpt>
      <trkpt lat="43.41657" lon="2.65822">
        <ele>720.5</ele>
        <time>2022-06-21T09:28:56Z</time>
      </trkpt>
      <trkpt lat="43.41657" lon="2.65821">
        <ele>721.3</ele>
        <time>2022-06-21T09:28:57Z</time>
      </trkpt>
      <trkpt lat="43.41658" lon="2.6582">
        <ele>721.3</ele>
        <time>2022-06-21T09:28:58Z</time>
      </trkpt>
      <trkpt lat="43.41657" lon="2.6582">
        <ele>721.3</ele>
        <time>2022-06-21T09:28:59Z</time>
      </trkpt>
      <trkpt lat="43.41657" lon="2.6582">
        <ele>721.3</ele>
        <time>2022-06-21T09:29:00Z</time>
      </trkpt>
      <trkpt lat="43.41657" lon="2.6582">
        <ele>721.3</ele>
        <time>2022-06-21T09:29:01Z</time>
      </trkpt>
      <trkpt lat="43.41657" lon="2.65819">
        <ele>721.3</ele>
        <time>2022-06-21T09:29:02Z</time>
      </trkpt>
      <trkpt lat="43.41657" lon="2.65818">
        <ele>721.3</ele>
        <time>2022-06-21T09:29:03Z</time>
      </trkpt>
      <trkpt lat="43.41657" lon="2.65817">
        <ele>722.1</ele>
        <time>2022-06-21T09:29:04Z</time>
      </trkpt>
      <trkpt lat="43.41657" lon="2.65816">
        <ele>722.1</ele>
        <time>2022-06-21T09:29:05Z</time>
      </trkpt>
      <trkpt lat="43.41657" lon="2.65815">
        <ele>722.1</ele>
        <time>2022-06-21T09:29:06Z</time>
      </trkpt>
      <trkpt lat="43.41657" lon="2.65814">
        <ele>722.1</ele>
        <time>2022-06-21T09:29:07Z</time>
      </trkpt>
      <trkpt lat="43.41657" lon="2.65813">
        <ele>722.8</ele>
        <time>2022-06-21T09:29:08Z</time>
      </trkpt>
      <trkpt lat="43.41657" lon="2.65813">
        <ele>722.8</ele>
        <time>2022-06-21T09:29:10Z</time>
      </trkpt>
      <trkpt lat="43.41657" lon="2.65813">
        <ele>722.8</ele>
        <time>2022-06-21T09:29:11Z</time>
      </trkpt>
      <trkpt lat="43.41657" lon="2.65813">
        <ele>722.8</ele>
        <time>2022-06-21T09:29:12Z</time>
      </trkpt>
      <trkpt lat="43.41657" lon="2.65813">
        <ele>722.8</ele>
        <time>2022-06-21T09:29:13Z</time>
      </trkpt>
      <trkpt lat="43.41657" lon="2.65813">
        <ele>722.8</ele>
        <time>2022-06-21T09:29:14Z</time>
      </trkpt>
      <trkpt lat="43.41657" lon="2.65812">
        <ele>722.8</ele>
        <time>2022-06-21T09:29:15Z</time>
      </trkpt>
      <trkpt lat="43.41657" lon="2.65811">
        <ele>722.8</ele>
        <time>2022-06-21T09:29:16Z</time>
      </trkpt>
      <trkpt lat="43.41658" lon="2.6581">
        <ele>722.8</ele>
        <time>2022-06-21T09:29:17Z</time>
      </trkpt>
      <trkpt lat="43.41657" lon="2.65808">
        <ele>723.5</ele>
        <time>2022-06-21T09:29:18Z</time>
      </trkpt>
      <trkpt lat="43.41657" lon="2.65808">
        <ele>723.5</ele>
        <time>2022-06-21T09:29:19Z</time>
      </trkpt>
      <trkpt lat="43.41657" lon="2.65806">
        <ele>723.5</ele>
        <time>2022-06-21T09:29:20Z</time>
      </trkpt>
      <trkpt lat="43.41657" lon="2.65805">
        <ele>723.5</ele>
        <time>2022-06-21T09:29:21Z</time>
      </trkpt>
      <trkpt lat="43.41657" lon="2.65805">
        <ele>724.2</ele>
        <time>2022-06-21T09:29:22Z</time>
      </trkpt>
      <trkpt lat="43.41657" lon="2.65804">
        <ele>724.2</ele>
        <time>2022-06-21T09:29:23Z</time>
      </trkpt>
      <trkpt lat="43.41657" lon="2.65804">
        <ele>724.2</ele>
        <time>2022-06-21T09:29:24Z</time>
      </trkpt>
      <trkpt lat="43.41657" lon="2.65804">
        <ele>724.2</ele>
        <time>2022-06-21T09:29:25Z</time>
      </trkpt>
      <trkpt lat="43.41657" lon="2.65804">
        <ele>724.2</ele>
        <time>2022-06-21T09:29:26Z</time>
      </trkpt>
      <trkpt lat="43.41657" lon="2.65804">
        <ele>724.2</ele>
        <time>2022-06-21T09:29:27Z</time>
      </trkpt>
      <trkpt lat="43.41657" lon="2.65804">
        <ele>724.2</ele>
        <time>2022-06-21T09:29:28Z</time>
      </trkpt>
      <trkpt lat="43.41657" lon="2.65804">
        <ele>724.2</ele>
        <time>2022-06-21T09:29:29Z</time>
      </trkpt>
      <trkpt lat="43.41657" lon="2.65804">
        <ele>724.2</ele>
        <time>2022-06-21T09:29:30Z</time>
      </trkpt>
      <trkpt lat="43.41657" lon="2.65804">
        <ele>724.2</ele>
        <time>2022-06-21T09:29:31Z</time>
      </trkpt>
      <trkpt lat="43.41657" lon="2.65804">
        <ele>724.2</ele>
        <time>2022-06-21T09:29:32Z</time>
      </trkpt>
      <trkpt lat="43.41657" lon="2.65804">
        <ele>724.2</ele>
        <time>2022-06-21T09:29:33Z</time>
      </trkpt>
      <trkpt lat="43.41657" lon="2.65804">
        <ele>724.2</ele>
        <time>2022-06-21T09:29:34Z</time>
      </trkpt>
      <trkpt lat="43.41657" lon="2.65804">
        <ele>724.2</ele>
        <time>2022-06-21T09:29:35Z</time>
      </trkpt>
      <trkpt lat="43.41657" lon="2.65804">
        <ele>724.2</ele>
        <time>2022-06-21T09:29:36Z</time>
      </trkpt>
      <trkpt lat="43.41657" lon="2.65804">
        <ele>724.2</ele>
        <time>2022-06-21T09:29:37Z</time>
      </trkpt>
      <trkpt lat="43.41657" lon="2.65804">
        <ele>724.2</ele>
        <time>2022-06-21T09:29:38Z</time>
      </trkpt>
      <trkpt lat="43.41657" lon="2.65804">
        <ele>724.2</ele>
        <time>2022-06-21T09:29:39Z</time>
      </trkpt>
      <trkpt lat="43.41657" lon="2.65804">
        <ele>724.2</ele>
        <time>2022-06-21T09:29:40Z</time>
      </trkpt>
      <trkpt lat="43.41657" lon="2.65804">
        <ele>724.2</ele>
        <time>2022-06-21T09:29:41Z</time>
      </trkpt>
      <trkpt lat="43.41657" lon="2.65804">
        <ele>724.2</ele>
        <time>2022-06-21T09:29:42Z</time>
      </trkpt>
      <trkpt lat="43.41658" lon="2.65804">
        <ele>724.2</ele>
        <time>2022-06-21T09:29:43Z</time>
      </trkpt>
      <trkpt lat="43.41658" lon="2.65803">
        <ele>724.9</ele>
        <time>2022-06-21T09:29:44Z</time>
      </trkpt>
      <trkpt lat="43.41659" lon="2.65803">
        <ele>724.9</ele>
        <time>2022-06-21T09:29:45Z</time>
      </trkpt>
      <trkpt lat="43.41659" lon="2.65803">
        <ele>724.9</ele>
        <time>2022-06-21T09:29:46Z</time>
      </trkpt>
      <trkpt lat="43.41659" lon="2.65802">
        <ele>724.9</ele>
        <time>2022-06-21T09:29:47Z</time>
      </trkpt>
      <trkpt lat="43.41659" lon="2.65802">
        <ele>724.9</ele>
        <time>2022-06-21T09:29:48Z</time>
      </trkpt>
      <trkpt lat="43.4166" lon="2.65802">
        <ele>724.9</ele>
        <time>2022-06-21T09:29:49Z</time>
      </trkpt>
      <trkpt lat="43.4166" lon="2.65802">
        <ele>724.9</ele>
        <time>2022-06-21T09:29:50Z</time>
      </trkpt>
      <trkpt lat="43.4166" lon="2.65802">
        <ele>724.9</ele>
        <time>2022-06-21T09:29:51Z</time>
      </trkpt>
      <trkpt lat="43.4166" lon="2.65802">
        <ele>724.9</ele>
        <time>2022-06-21T09:29:52Z</time>
      </trkpt>
      <trkpt lat="43.4166" lon="2.65802">
        <ele>724.9</ele>
        <time>2022-06-21T09:29:53Z</time>
      </trkpt>
      <trkpt lat="43.4166" lon="2.65802">
        <ele>724.9</ele>
        <time>2022-06-21T09:29:54Z</time>
      </trkpt>
      <trkpt lat="43.4166" lon="2.65802">
        <ele>724.9</ele>
        <time>2022-06-21T09:29:55Z</time>
      </trkpt>
      <trkpt lat="43.4166" lon="2.65802">
        <ele>724.9</ele>
        <time>2022-06-21T09:29:56Z</time>
      </trkpt>
      <trkpt lat="43.4166" lon="2.65802">
        <ele>724.9</ele>
        <time>2022-06-21T09:29:57Z</time>
      </trkpt>
      <trkpt lat="43.4166" lon="2.65802">
        <ele>724.9</ele>
        <time>2022-06-21T09:29:58Z</time>
      </trkpt>
      <trkpt lat="43.4166" lon="2.65802">
        <ele>724.9</ele>
        <time>2022-06-21T09:29:59Z</time>
      </trkpt>
      <trkpt lat="43.4166" lon="2.65802">
        <ele>724.9</ele>
        <time>2022-06-21T09:30:00Z</time>
      </trkpt>
      <trkpt lat="43.4166" lon="2.65802">
        <ele>724.9</ele>
        <time>2022-06-21T09:30:01Z</time>
      </trkpt>
      <trkpt lat="43.4166" lon="2.65802">
        <ele>724.9</ele>
        <time>2022-06-21T09:30:02Z</time>
      </trkpt>
      <trkpt lat="43.4166" lon="2.65802">
        <ele>724.9</ele>
        <time>2022-06-21T09:30:03Z</time>
      </trkpt>
      <trkpt lat="43.4166" lon="2.65802">
        <ele>724.9</ele>
        <time>2022-06-21T09:30:04Z</time>
      </trkpt>
      <trkpt lat="43.4166" lon="2.65802">
        <ele>724.9</ele>
        <time>2022-06-21T09:30:05Z</time>
      </trkpt>
      <trkpt lat="43.4166" lon="2.65802">
        <ele>724.9</ele>
        <time>2022-06-21T09:30:06Z</time>
      </trkpt>
      <trkpt lat="43.4166" lon="2.65802">
        <ele>724.9</ele>
        <time>2022-06-21T09:30:07Z</time>
      </trkpt>
      <trkpt lat="43.4166" lon="2.65802">
        <ele>724.9</ele>
        <time>2022-06-21T09:30:08Z</time>
      </trkpt>
      <trkpt lat="43.4166" lon="2.65802">
        <ele>724.9</ele>
        <time>2022-06-21T09:30:09Z</time>
      </trkpt>
      <trkpt lat="43.4166" lon="2.65802">
        <ele>724.9</ele>
        <time>2022-06-21T09:30:10Z</time>
      </trkpt>
      <trkpt lat="43.41661" lon="2.65801">
        <ele>724.9</ele>
        <time>2022-06-21T09:30:11Z</time>
      </trkpt>
      <trkpt lat="43.41662" lon="2.658">
        <ele>726.4</ele>
        <time>2022-06-21T09:30:12Z</time>
      </trkpt>
      <trkpt lat="43.41664" lon="2.65799">
        <ele>726.4</ele>
        <time>2022-06-21T09:30:13Z</time>
      </trkpt>
      <trkpt lat="43.41664" lon="2.65799">
        <ele>726.4</ele>
        <time>2022-06-21T09:30:14Z</time>
      </trkpt>
      <trkpt lat="43.41665" lon="2.65799">
        <ele>727.1</ele>
        <time>2022-06-21T09:30:15Z</time>
      </trkpt>
      <trkpt lat="43.41665" lon="2.65798">
        <ele>727.1</ele>
        <time>2022-06-21T09:30:16Z</time>
      </trkpt>
      <trkpt lat="43.41667" lon="2.65797">
        <ele>727.1</ele>
        <time>2022-06-21T09:30:17Z</time>
      </trkpt>
      <trkpt lat="43.41668" lon="2.65797">
        <ele>727.8</ele>
        <time>2022-06-21T09:30:18Z</time>
      </trkpt>
      <trkpt lat="43.41669" lon="2.65797">
        <ele>727.8</ele>
        <time>2022-06-21T09:30:19Z</time>
      </trkpt>
      <trkpt lat="43.4167" lon="2.65797">
        <ele>727.8</ele>
        <time>2022-06-21T09:30:20Z</time>
      </trkpt>
      <trkpt lat="43.4167" lon="2.65797">
        <ele>727.8</ele>
        <time>2022-06-21T09:30:21Z</time>
      </trkpt>
      <trkpt lat="43.4167" lon="2.65797">
        <ele>727.8</ele>
        <time>2022-06-21T09:30:22Z</time>
      </trkpt>
      <trkpt lat="43.4167" lon="2.65797">
        <ele>727.8</ele>
        <time>2022-06-21T09:30:23Z</time>
      </trkpt>
      <trkpt lat="43.4167" lon="2.65797">
        <ele>727.8</ele>
        <time>2022-06-21T09:30:24Z</time>
      </trkpt>
      <trkpt lat="43.4167" lon="2.65797">
        <ele>727.8</ele>
        <time>2022-06-21T09:30:25Z</time>
      </trkpt>
      <trkpt lat="43.4167" lon="2.65797">
        <ele>727.8</ele>
        <time>2022-06-21T09:30:26Z</time>
      </trkpt>
      <trkpt lat="43.4167" lon="2.65797">
        <ele>727.8</ele>
        <time>2022-06-21T09:30:27Z</time>
      </trkpt>
      <trkpt lat="43.41671" lon="2.65796">
        <ele>727.8</ele>
        <time>2022-06-21T09:30:28Z</time>
      </trkpt>
      <trkpt lat="43.41672" lon="2.65795">
        <ele>729.3</ele>
        <time>2022-06-21T09:30:29Z</time>
      </trkpt>
      <trkpt lat="43.41673" lon="2.65794">
        <ele>729.3</ele>
        <time>2022-06-21T09:30:30Z</time>
      </trkpt>
      <trkpt lat="43.41674" lon="2.65793">
        <ele>729.3</ele>
        <time>2022-06-21T09:30:31Z</time>
      </trkpt>
      <trkpt lat="43.41674" lon="2.65793">
        <ele>729.3</ele>
        <time>2022-06-21T09:30:32Z</time>
      </trkpt>
      <trkpt lat="43.41674" lon="2.65793">
        <ele>729.8</ele>
        <time>2022-06-21T09:30:33Z</time>
      </trkpt>
      <trkpt lat="43.41674" lon="2.65793">
        <ele>729.8</ele>
        <time>2022-06-21T09:30:34Z</time>
      </trkpt>
      <trkpt lat="43.41674" lon="2.65793">
        <ele>729.8</ele>
        <time>2022-06-21T09:30:35Z</time>
      </trkpt>
      <trkpt lat="43.41674" lon="2.65793">
        <ele>729.8</ele>
        <time>2022-06-21T09:30:36Z</time>
      </trkpt>
      <trkpt lat="43.41674" lon="2.65792">
        <ele>729.8</ele>
        <time>2022-06-21T09:30:37Z</time>
      </trkpt>
      <trkpt lat="43.41674" lon="2.65792">
        <ele>729.8</ele>
        <time>2022-06-21T09:30:38Z</time>
      </trkpt>
      <trkpt lat="43.41675" lon="2.65792">
        <ele>729.8</ele>
        <time>2022-06-21T09:30:39Z</time>
      </trkpt>
      <trkpt lat="43.41675" lon="2.65792">
        <ele>729.8</ele>
        <time>2022-06-21T09:30:40Z</time>
      </trkpt>
      <trkpt lat="43.41675" lon="2.65792">
        <ele>729.8</ele>
        <time>2022-06-21T09:30:41Z</time>
      </trkpt>
      <trkpt lat="43.41675" lon="2.65792">
        <ele>729.8</ele>
        <time>2022-06-21T09:30:42Z</time>
      </trkpt>
      <trkpt lat="43.41675" lon="2.65792">
        <ele>729.8</ele>
        <time>2022-06-21T09:30:43Z</time>
      </trkpt>
      <trkpt lat="43.41675" lon="2.65792">
        <ele>729.8</ele>
        <time>2022-06-21T09:30:44Z</time>
      </trkpt>
      <trkpt lat="43.41675" lon="2.65792">
        <ele>730.7</ele>
        <time>2022-06-21T09:30:45Z</time>
      </trkpt>
      <trkpt lat="43.41675" lon="2.65792">
        <ele>730.7</ele>
        <time>2022-06-21T09:30:46Z</time>
      </trkpt>
      <trkpt lat="43.41675" lon="2.65792">
        <ele>730.7</ele>
        <time>2022-06-21T09:30:47Z</time>
      </trkpt>
      <trkpt lat="43.41675" lon="2.65792">
        <ele>730.7</ele>
        <time>2022-06-21T09:30:48Z</time>
      </trkpt>
      <trkpt lat="43.41675" lon="2.65792">
        <ele>730.7</ele>
        <time>2022-06-21T09:30:49Z</time>
      </trkpt>
      <trkpt lat="43.41675" lon="2.65791">
        <ele>730.7</ele>
        <time>2022-06-21T09:30:50Z</time>
      </trkpt>
      <trkpt lat="43.41676" lon="2.65791">
        <ele>730.7</ele>
        <time>2022-06-21T09:30:51Z</time>
      </trkpt>
      <trkpt lat="43.41676" lon="2.65791">
        <ele>730.7</ele>
        <time>2022-06-21T09:30:52Z</time>
      </trkpt>
      <trkpt lat="43.41676" lon="2.65791">
        <ele>730.7</ele>
        <time>2022-06-21T09:30:53Z</time>
      </trkpt>
      <trkpt lat="43.41676" lon="2.65791">
        <ele>730.7</ele>
        <time>2022-06-21T09:30:54Z</time>
      </trkpt>
      <trkpt lat="43.41676" lon="2.65791">
        <ele>730.7</ele>
        <time>2022-06-21T09:30:55Z</time>
      </trkpt>
      <trkpt lat="43.41678" lon="2.65789">
        <ele>731.2</ele>
        <time>2022-06-21T09:30:56Z</time>
      </trkpt>
      <trkpt lat="43.41678" lon="2.65788">
        <ele>731.2</ele>
        <time>2022-06-21T09:30:57Z</time>
      </trkpt>
      <trkpt lat="43.41679" lon="2.65787">
        <ele>732</ele>
        <time>2022-06-21T09:30:58Z</time>
      </trkpt>
      <trkpt lat="43.41681" lon="2.65785">
        <ele>732.6</ele>
        <time>2022-06-21T09:30:59Z</time>
      </trkpt>
      <trkpt lat="43.41681" lon="2.65784">
        <ele>732.6</ele>
        <time>2022-06-21T09:31:00Z</time>
      </trkpt>
      <trkpt lat="43.41682" lon="2.65783">
        <ele>732.6</ele>
        <time>2022-06-21T09:31:01Z</time>
      </trkpt>
      <trkpt lat="43.41683" lon="2.65782">
        <ele>733.3</ele>
        <time>2022-06-21T09:31:02Z</time>
      </trkpt>
      <trkpt lat="43.41683" lon="2.6578">
        <ele>733.9</ele>
        <time>2022-06-21T09:31:03Z</time>
      </trkpt>
      <trkpt lat="43.41684" lon="2.65778">
        <ele>734.6</ele>
        <time>2022-06-21T09:31:04Z</time>
      </trkpt>
      <trkpt lat="43.41684" lon="2.65777">
        <ele>734.6</ele>
        <time>2022-06-21T09:31:05Z</time>
      </trkpt>
      <trkpt lat="43.41684" lon="2.65776">
        <ele>734.6</ele>
        <time>2022-06-21T09:31:06Z</time>
      </trkpt>
      <trkpt lat="43.41684" lon="2.65776">
        <ele>734.6</ele>
        <time>2022-06-21T09:31:07Z</time>
      </trkpt>
      <trkpt lat="43.41684" lon="2.65776">
        <ele>734.6</ele>
        <time>2022-06-21T09:31:08Z</time>
      </trkpt>
      <trkpt lat="43.41684" lon="2.65776">
        <ele>734.6</ele>
        <time>2022-06-21T09:31:09Z</time>
      </trkpt>
      <trkpt lat="43.41684" lon="2.65776">
        <ele>734.6</ele>
        <time>2022-06-21T09:31:10Z</time>
      </trkpt>
      <trkpt lat="43.41684" lon="2.65776">
        <ele>734.6</ele>
        <time>2022-06-21T09:31:11Z</time>
      </trkpt>
      <trkpt lat="43.41684" lon="2.65776">
        <ele>734.6</ele>
        <time>2022-06-21T09:31:12Z</time>
      </trkpt>
      <trkpt lat="43.41684" lon="2.65776">
        <ele>734.6</ele>
        <time>2022-06-21T09:31:13Z</time>
      </trkpt>
      <trkpt lat="43.41684" lon="2.65775">
        <ele>734.6</ele>
        <time>2022-06-21T09:31:14Z</time>
      </trkpt>
      <trkpt lat="43.41684" lon="2.65774">
        <ele>735.2</ele>
        <time>2022-06-21T09:31:15Z</time>
      </trkpt>
      <trkpt lat="43.41684" lon="2.65772">
        <ele>735.2</ele>
        <time>2022-06-21T09:31:16Z</time>
      </trkpt>
      <trkpt lat="43.41684" lon="2.65771">
        <ele>735.2</ele>
        <time>2022-06-21T09:31:17Z</time>
      </trkpt>
      <trkpt lat="43.41684" lon="2.6577">
        <ele>735.7</ele>
        <time>2022-06-21T09:31:18Z</time>
      </trkpt>
      <trkpt lat="43.41684" lon="2.65769">
        <ele>735.7</ele>
        <time>2022-06-21T09:31:19Z</time>
      </trkpt>
      <trkpt lat="43.41684" lon="2.65769">
        <ele>735.7</ele>
        <time>2022-06-21T09:31:20Z</time>
      </trkpt>
      <trkpt lat="43.41684" lon="2.65769">
        <ele>735.7</ele>
        <time>2022-06-21T09:31:21Z</time>
      </trkpt>
      <trkpt lat="43.41684" lon="2.65769">
        <ele>735.7</ele>
        <time>2022-06-21T09:31:22Z</time>
      </trkpt>
      <trkpt lat="43.41684" lon="2.65769">
        <ele>735.7</ele>
        <time>2022-06-21T09:31:23Z</time>
      </trkpt>
      <trkpt lat="43.41684" lon="2.65769">
        <ele>735.7</ele>
        <time>2022-06-21T09:31:24Z</time>
      </trkpt>
      <trkpt lat="43.41684" lon="2.65769">
        <ele>735.7</ele>
        <time>2022-06-21T09:31:25Z</time>
      </trkpt>
      <trkpt lat="43.41684" lon="2.65769">
        <ele>735.7</ele>
        <time>2022-06-21T09:31:26Z</time>
      </trkpt>
      <trkpt lat="43.41685" lon="2.65768">
        <ele>735.7</ele>
        <time>2022-06-21T09:31:27Z</time>
      </trkpt>
      <trkpt lat="43.41685" lon="2.65767">
        <ele>735.7</ele>
        <time>2022-06-21T09:31:28Z</time>
      </trkpt>
      <trkpt lat="43.41685" lon="2.65766">
        <ele>735.7</ele>
        <time>2022-06-21T09:31:29Z</time>
      </trkpt>
      <trkpt lat="43.41685" lon="2.65766">
        <ele>736.2</ele>
        <time>2022-06-21T09:31:30Z</time>
      </trkpt>
      <trkpt lat="43.41685" lon="2.65766">
        <ele>736.2</ele>
        <time>2022-06-21T09:31:31Z</time>
      </trkpt>
      <trkpt lat="43.41685" lon="2.65766">
        <ele>736.2</ele>
        <time>2022-06-21T09:31:32Z</time>
      </trkpt>
      <trkpt lat="43.41685" lon="2.65765">
        <ele>736.2</ele>
        <time>2022-06-21T09:31:33Z</time>
      </trkpt>
      <trkpt lat="43.41686" lon="2.65765">
        <ele>736.2</ele>
        <time>2022-06-21T09:31:34Z</time>
      </trkpt>
      <trkpt lat="43.41686" lon="2.65764">
        <ele>736.2</ele>
        <time>2022-06-21T09:31:35Z</time>
      </trkpt>
      <trkpt lat="43.41686" lon="2.65764">
        <ele>736.2</ele>
        <time>2022-06-21T09:31:36Z</time>
      </trkpt>
      <trkpt lat="43.41686" lon="2.65764">
        <ele>736.2</ele>
        <time>2022-06-21T09:31:37Z</time>
      </trkpt>
      <trkpt lat="43.41686" lon="2.65764">
        <ele>736.2</ele>
        <time>2022-06-21T09:31:38Z</time>
      </trkpt>
      <trkpt lat="43.41686" lon="2.65764">
        <ele>736.2</ele>
        <time>2022-06-21T09:31:39Z</time>
      </trkpt>
      <trkpt lat="43.41686" lon="2.65764">
        <ele>736.2</ele>
        <time>2022-06-21T09:31:40Z</time>
      </trkpt>
      <trkpt lat="43.41686" lon="2.65764">
        <ele>736.2</ele>
        <time>2022-06-21T09:31:41Z</time>
      </trkpt>
      <trkpt lat="43.41686" lon="2.65764">
        <ele>736.2</ele>
        <time>2022-06-21T09:31:42Z</time>
      </trkpt>
      <trkpt lat="43.41686" lon="2.65764">
        <ele>736.2</ele>
        <time>2022-06-21T09:31:43Z</time>
      </trkpt>
      <trkpt lat="43.41686" lon="2.65764">
        <ele>736.2</ele>
        <time>2022-06-21T09:31:44Z</time>
      </trkpt>
      <trkpt lat="43.41686" lon="2.65764">
        <ele>736.2</ele>
        <time>2022-06-21T09:31:45Z</time>
      </trkpt>
      <trkpt lat="43.41686" lon="2.65764">
        <ele>736.2</ele>
        <time>2022-06-21T09:31:46Z</time>
      </trkpt>
      <trkpt lat="43.41687" lon="2.65763">
        <ele>736.8</ele>
        <time>2022-06-21T09:31:47Z</time>
      </trkpt>
      <trkpt lat="43.41687" lon="2.65762">
        <ele>736.8</ele>
        <time>2022-06-21T09:31:48Z</time>
      </trkpt>
      <trkpt lat="43.41687" lon="2.65762">
        <ele>737.3</ele>
        <time>2022-06-21T09:31:49Z</time>
      </trkpt>
      <trkpt lat="43.41687" lon="2.65762">
        <ele>737.3</ele>
        <time>2022-06-21T09:31:50Z</time>
      </trkpt>
      <trkpt lat="43.41687" lon="2.65762">
        <ele>737.3</ele>
        <time>2022-06-21T09:31:51Z</time>
      </trkpt>
      <trkpt lat="43.41687" lon="2.65762">
        <ele>737.3</ele>
        <time>2022-06-21T09:31:52Z</time>
      </trkpt>
      <trkpt lat="43.41687" lon="2.65762">
        <ele>737.3</ele>
        <time>2022-06-21T09:31:53Z</time>
      </trkpt>
      <trkpt lat="43.41687" lon="2.65762">
        <ele>737.3</ele>
        <time>2022-06-21T09:31:54Z</time>
      </trkpt>
      <trkpt lat="43.41687" lon="2.65762">
        <ele>737.3</ele>
        <time>2022-06-21T09:31:55Z</time>
      </trkpt>
      <trkpt lat="43.41687" lon="2.65762">
        <ele>737.3</ele>
        <time>2022-06-21T09:31:56Z</time>
      </trkpt>
      <trkpt lat="43.41687" lon="2.65762">
        <ele>737.3</ele>
        <time>2022-06-21T09:31:57Z</time>
      </trkpt>
      <trkpt lat="43.41687" lon="2.65762">
        <ele>737.3</ele>
        <time>2022-06-21T09:31:58Z</time>
      </trkpt>
      <trkpt lat="43.41687" lon="2.65762">
        <ele>737.3</ele>
        <time>2022-06-21T09:31:59Z</time>
      </trkpt>
      <trkpt lat="43.41688" lon="2.65761">
        <ele>737.3</ele>
        <time>2022-06-21T09:32:00Z</time>
      </trkpt>
      <trkpt lat="43.41689" lon="2.6576">
        <ele>737.3</ele>
        <time>2022-06-21T09:32:01Z</time>
      </trkpt>
      <trkpt lat="43.4169" lon="2.65758">
        <ele>737.8</ele>
        <time>2022-06-21T09:32:02Z</time>
      </trkpt>
      <trkpt lat="43.41691" lon="2.65757">
        <ele>738.3</ele>
        <time>2022-06-21T09:32:03Z</time>
      </trkpt>
      <trkpt lat="43.41691" lon="2.65755">
        <ele>738.3</ele>
        <time>2022-06-21T09:32:04Z</time>
      </trkpt>
      <trkpt lat="43.41692" lon="2.65754">
        <ele>738.3</ele>
        <time>2022-06-21T09:32:05Z</time>
      </trkpt>
      <trkpt lat="43.41693" lon="2.65752">
        <ele>739.3</ele>
        <time>2022-06-21T09:32:06Z</time>
      </trkpt>
      <trkpt lat="43.41693" lon="2.65751">
        <ele>739.3</ele>
        <time>2022-06-21T09:32:07Z</time>
      </trkpt>
      <trkpt lat="43.41694" lon="2.6575">
        <ele>739.3</ele>
        <time>2022-06-21T09:32:08Z</time>
      </trkpt>
      <trkpt lat="43.41694" lon="2.65748">
        <ele>739.8</ele>
        <time>2022-06-21T09:32:09Z</time>
      </trkpt>
      <trkpt lat="43.41695" lon="2.65747">
        <ele>739.8</ele>
        <time>2022-06-21T09:32:10Z</time>
      </trkpt>
      <trkpt lat="43.41695" lon="2.65746">
        <ele>739.8</ele>
        <time>2022-06-21T09:32:11Z</time>
      </trkpt>
      <trkpt lat="43.41695" lon="2.65745">
        <ele>739.8</ele>
        <time>2022-06-21T09:32:12Z</time>
      </trkpt>
      <trkpt lat="43.41696" lon="2.65745">
        <ele>740.3</ele>
        <time>2022-06-21T09:32:13Z</time>
      </trkpt>
      <trkpt lat="43.41696" lon="2.65745">
        <ele>740.3</ele>
        <time>2022-06-21T09:32:14Z</time>
      </trkpt>
      <trkpt lat="43.41696" lon="2.65745">
        <ele>740.3</ele>
        <time>2022-06-21T09:32:15Z</time>
      </trkpt>
      <trkpt lat="43.41696" lon="2.65745">
        <ele>740.3</ele>
        <time>2022-06-21T09:32:16Z</time>
      </trkpt>
      <trkpt lat="43.41696" lon="2.65745">
        <ele>740.3</ele>
        <time>2022-06-21T09:32:17Z</time>
      </trkpt>
      <trkpt lat="43.41696" lon="2.65745">
        <ele>740.3</ele>
        <time>2022-06-21T09:32:18Z</time>
      </trkpt>
      <trkpt lat="43.41696" lon="2.65745">
        <ele>740.3</ele>
        <time>2022-06-21T09:32:19Z</time>
      </trkpt>
      <trkpt lat="43.41696" lon="2.65744">
        <ele>740.8</ele>
        <time>2022-06-21T09:32:20Z</time>
      </trkpt>
      <trkpt lat="43.41697" lon="2.65743">
        <ele>740.8</ele>
        <time>2022-06-21T09:32:21Z</time>
      </trkpt>
      <trkpt lat="43.41697" lon="2.65741">
        <ele>740.8</ele>
        <time>2022-06-21T09:32:22Z</time>
      </trkpt>
      <trkpt lat="43.41697" lon="2.65739">
        <ele>741.3</ele>
        <time>2022-06-21T09:32:23Z</time>
      </trkpt>
      <trkpt lat="43.41698" lon="2.65738">
        <ele>741.3</ele>
        <time>2022-06-21T09:32:24Z</time>
      </trkpt>
      <trkpt lat="43.41698" lon="2.65737">
        <ele>741.3</ele>
        <time>2022-06-21T09:32:25Z</time>
      </trkpt>
      <trkpt lat="43.41698" lon="2.65737">
        <ele>741.3</ele>
        <time>2022-06-21T09:32:26Z</time>
      </trkpt>
      <trkpt lat="43.41698" lon="2.65737">
        <ele>741.3</ele>
        <time>2022-06-21T09:32:27Z</time>
      </trkpt>
      <trkpt lat="43.41698" lon="2.65737">
        <ele>741.3</ele>
        <time>2022-06-21T09:32:28Z</time>
      </trkpt>
      <trkpt lat="43.41698" lon="2.65737">
        <ele>741.3</ele>
        <time>2022-06-21T09:32:29Z</time>
      </trkpt>
      <trkpt lat="43.41698" lon="2.65737">
        <ele>741.3</ele>
        <time>2022-06-21T09:32:30Z</time>
      </trkpt>
      <trkpt lat="43.41698" lon="2.65737">
        <ele>741.3</ele>
        <time>2022-06-21T09:32:31Z</time>
      </trkpt>
      <trkpt lat="43.41698" lon="2.65737">
        <ele>741.3</ele>
        <time>2022-06-21T09:32:32Z</time>
      </trkpt>
      <trkpt lat="43.41698" lon="2.65736">
        <ele>741.7</ele>
        <time>2022-06-21T09:32:33Z</time>
      </trkpt>
      <trkpt lat="43.41698" lon="2.65735">
        <ele>741.7</ele>
        <time>2022-06-21T09:32:34Z</time>
      </trkpt>
      <trkpt lat="43.41698" lon="2.65733">
        <ele>741.7</ele>
        <time>2022-06-21T09:32:35Z</time>
      </trkpt>
      <trkpt lat="43.41698" lon="2.65732">
        <ele>741.7</ele>
        <time>2022-06-21T09:32:36Z</time>
      </trkpt>
      <trkpt lat="43.41699" lon="2.65731">
        <ele>742.1</ele>
        <time>2022-06-21T09:32:37Z</time>
      </trkpt>
      <trkpt lat="43.41699" lon="2.65731">
        <ele>742.1</ele>
        <time>2022-06-21T09:32:38Z</time>
      </trkpt>
      <trkpt lat="43.41699" lon="2.65731">
        <ele>742.6</ele>
        <time>2022-06-21T09:32:39Z</time>
      </trkpt>
      <trkpt lat="43.41699" lon="2.65731">
        <ele>742.6</ele>
        <time>2022-06-21T09:32:40Z</time>
      </trkpt>
      <trkpt lat="43.41699" lon="2.65731">
        <ele>742.6</ele>
        <time>2022-06-21T09:32:41Z</time>
      </trkpt>
      <trkpt lat="43.41699" lon="2.65731">
        <ele>742.6</ele>
        <time>2022-06-21T09:32:42Z</time>
      </trkpt>
      <trkpt lat="43.41699" lon="2.65731">
        <ele>742.6</ele>
        <time>2022-06-21T09:32:43Z</time>
      </trkpt>
      <trkpt lat="43.41699" lon="2.65731">
        <ele>742.6</ele>
        <time>2022-06-21T09:32:44Z</time>
      </trkpt>
      <trkpt lat="43.41699" lon="2.65731">
        <ele>742.6</ele>
        <time>2022-06-21T09:32:45Z</time>
      </trkpt>
      <trkpt lat="43.41699" lon="2.65731">
        <ele>742.6</ele>
        <time>2022-06-21T09:32:46Z</time>
      </trkpt>
      <trkpt lat="43.41699" lon="2.65731">
        <ele>742.6</ele>
        <time>2022-06-21T09:32:47Z</time>
      </trkpt>
      <trkpt lat="43.41699" lon="2.65731">
        <ele>742.6</ele>
        <time>2022-06-21T09:32:48Z</time>
      </trkpt>
      <trkpt lat="43.417" lon="2.6573">
        <ele>742.6</ele>
        <time>2022-06-21T09:32:49Z</time>
      </trkpt>
      <trkpt lat="43.417" lon="2.65731">
        <ele>742.6</ele>
        <time>2022-06-21T09:32:50Z</time>
      </trkpt>
      <trkpt lat="43.417" lon="2.65731">
        <ele>742.6</ele>
        <time>2022-06-21T09:32:51Z</time>
      </trkpt>
      <trkpt lat="43.417" lon="2.65731">
        <ele>742.6</ele>
        <time>2022-06-21T09:32:52Z</time>
      </trkpt>
      <trkpt lat="43.417" lon="2.65731">
        <ele>742.6</ele>
        <time>2022-06-21T09:32:53Z</time>
      </trkpt>
      <trkpt lat="43.417" lon="2.65731">
        <ele>742.6</ele>
        <time>2022-06-21T09:32:54Z</time>
      </trkpt>
      <trkpt lat="43.417" lon="2.65731">
        <ele>742.6</ele>
        <time>2022-06-21T09:32:55Z</time>
      </trkpt>
      <trkpt lat="43.41701" lon="2.6573">
        <ele>742.6</ele>
        <time>2022-06-21T09:32:56Z</time>
      </trkpt>
      <trkpt lat="43.41701" lon="2.6573">
        <ele>742.6</ele>
        <time>2022-06-21T09:32:57Z</time>
      </trkpt>
      <trkpt lat="43.41702" lon="2.65729">
        <ele>743.1</ele>
        <time>2022-06-21T09:32:58Z</time>
      </trkpt>
      <trkpt lat="43.41703" lon="2.65729">
        <ele>743.1</ele>
        <time>2022-06-21T09:32:59Z</time>
      </trkpt>
      <trkpt lat="43.41704" lon="2.65728">
        <ele>743.1</ele>
        <time>2022-06-21T09:33:00Z</time>
      </trkpt>
      <trkpt lat="43.41705" lon="2.65728">
        <ele>743.1</ele>
        <time>2022-06-21T09:33:01Z</time>
      </trkpt>
      <trkpt lat="43.41705" lon="2.65728">
        <ele>743.5</ele>
        <time>2022-06-21T09:33:02Z</time>
      </trkpt>
      <trkpt lat="43.41706" lon="2.65728">
        <ele>743.5</ele>
        <time>2022-06-21T09:33:03Z</time>
      </trkpt>
      <trkpt lat="43.41706" lon="2.65728">
        <ele>743.5</ele>
        <time>2022-06-21T09:33:04Z</time>
      </trkpt>
      <trkpt lat="43.41706" lon="2.65728">
        <ele>743.5</ele>
        <time>2022-06-21T09:33:05Z</time>
      </trkpt>
      <trkpt lat="43.41706" lon="2.65728">
        <ele>743.5</ele>
        <time>2022-06-21T09:33:06Z</time>
      </trkpt>
      <trkpt lat="43.41706" lon="2.65728">
        <ele>743.5</ele>
        <time>2022-06-21T09:33:07Z</time>
      </trkpt>
      <trkpt lat="43.41706" lon="2.65728">
        <ele>743.5</ele>
        <time>2022-06-21T09:33:08Z</time>
      </trkpt>
      <trkpt lat="43.41706" lon="2.65728">
        <ele>743.5</ele>
        <time>2022-06-21T09:33:09Z</time>
      </trkpt>
      <trkpt lat="43.41706" lon="2.65728">
        <ele>743.5</ele>
        <time>2022-06-21T09:33:10Z</time>
      </trkpt>
      <trkpt lat="43.41706" lon="2.65728">
        <ele>743.5</ele>
        <time>2022-06-21T09:33:11Z</time>
      </trkpt>
      <trkpt lat="43.41706" lon="2.65728">
        <ele>743.5</ele>
        <time>2022-06-21T09:33:12Z</time>
      </trkpt>
      <trkpt lat="43.41706" lon="2.65728">
        <ele>743.5</ele>
        <time>2022-06-21T09:33:13Z</time>
      </trkpt>
      <trkpt lat="43.41706" lon="2.65728">
        <ele>743.5</ele>
        <time>2022-06-21T09:33:14Z</time>
      </trkpt>
      <trkpt lat="43.41707" lon="2.65727">
        <ele>744</ele>
        <time>2022-06-21T09:33:15Z</time>
      </trkpt>
      <trkpt lat="43.41708" lon="2.65727">
        <ele>744</ele>
        <time>2022-06-21T09:33:16Z</time>
      </trkpt>
      <trkpt lat="43.41709" lon="2.65727">
        <ele>744.4</ele>
        <time>2022-06-21T09:33:17Z</time>
      </trkpt>
      <trkpt lat="43.4171" lon="2.65726">
        <ele>744.4</ele>
        <time>2022-06-21T09:33:18Z</time>
      </trkpt>
      <trkpt lat="43.41711" lon="2.65725">
        <ele>744.4</ele>
        <time>2022-06-21T09:33:19Z</time>
      </trkpt>
      <trkpt lat="43.41711" lon="2.65725">
        <ele>744.9</ele>
        <time>2022-06-21T09:33:20Z</time>
      </trkpt>
      <trkpt lat="43.41712" lon="2.65723">
        <ele>744.9</ele>
        <time>2022-06-21T09:33:21Z</time>
      </trkpt>
      <trkpt lat="43.41712" lon="2.65722">
        <ele>745.3</ele>
        <time>2022-06-21T09:33:22Z</time>
      </trkpt>
      <trkpt lat="43.41713" lon="2.65722">
        <ele>745.3</ele>
        <time>2022-06-21T09:33:23Z</time>
      </trkpt>
      <trkpt lat="43.41713" lon="2.65721">
        <ele>745.3</ele>
        <time>2022-06-21T09:33:24Z</time>
      </trkpt>
      <trkpt lat="43.41714" lon="2.65719">
        <ele>745.3</ele>
        <time>2022-06-21T09:33:25Z</time>
      </trkpt>
      <trkpt lat="43.41714" lon="2.65719">
        <ele>745.8</ele>
        <time>2022-06-21T09:33:26Z</time>
      </trkpt>
      <trkpt lat="43.41714" lon="2.65718">
        <ele>745.8</ele>
        <time>2022-06-21T09:33:27Z</time>
      </trkpt>
      <trkpt lat="43.41715" lon="2.65716">
        <ele>746.3</ele>
        <time>2022-06-21T09:33:28Z</time>
      </trkpt>
      <trkpt lat="43.41715" lon="2.65716">
        <ele>746.3</ele>
        <time>2022-06-21T09:33:29Z</time>
      </trkpt>
      <trkpt lat="43.41715" lon="2.65714">
        <ele>746.8</ele>
        <time>2022-06-21T09:33:30Z</time>
      </trkpt>
      <trkpt lat="43.41716" lon="2.65713">
        <ele>746.8</ele>
        <time>2022-06-21T09:33:31Z</time>
      </trkpt>
      <trkpt lat="43.41716" lon="2.65713">
        <ele>746.8</ele>
        <time>2022-06-21T09:33:32Z</time>
      </trkpt>
      <trkpt lat="43.41716" lon="2.65711">
        <ele>746.8</ele>
        <time>2022-06-21T09:33:33Z</time>
      </trkpt>
      <trkpt lat="43.41716" lon="2.6571">
        <ele>747.4</ele>
        <time>2022-06-21T09:33:34Z</time>
      </trkpt>
      <trkpt lat="43.41717" lon="2.65709">
        <ele>747.4</ele>
        <time>2022-06-21T09:33:35Z</time>
      </trkpt>
      <trkpt lat="43.41717" lon="2.65708">
        <ele>747.4</ele>
        <time>2022-06-21T09:33:36Z</time>
      </trkpt>
      <trkpt lat="43.41717" lon="2.65708">
        <ele>747.4</ele>
        <time>2022-06-21T09:33:37Z</time>
      </trkpt>
      <trkpt lat="43.41717" lon="2.65707">
        <ele>747.4</ele>
        <time>2022-06-21T09:33:38Z</time>
      </trkpt>
      <trkpt lat="43.41717" lon="2.65706">
        <ele>747.4</ele>
        <time>2022-06-21T09:33:39Z</time>
      </trkpt>
      <trkpt lat="43.41718" lon="2.65706">
        <ele>748.4</ele>
        <time>2022-06-21T09:33:40Z</time>
      </trkpt>
      <trkpt lat="43.41718" lon="2.65705">
        <ele>748.4</ele>
        <time>2022-06-21T09:33:41Z</time>
      </trkpt>
      <trkpt lat="43.41718" lon="2.65704">
        <ele>748.4</ele>
        <time>2022-06-21T09:33:42Z</time>
      </trkpt>
      <trkpt lat="43.41718" lon="2.65704">
        <ele>748.4</ele>
        <time>2022-06-21T09:33:43Z</time>
      </trkpt>
      <trkpt lat="43.41718" lon="2.65703">
        <ele>748.4</ele>
        <time>2022-06-21T09:33:44Z</time>
      </trkpt>
      <trkpt lat="43.41718" lon="2.65702">
        <ele>748.4</ele>
        <time>2022-06-21T09:33:45Z</time>
      </trkpt>
      <trkpt lat="43.41718" lon="2.65701">
        <ele>749</ele>
        <time>2022-06-21T09:33:46Z</time>
      </trkpt>
      <trkpt lat="43.41718" lon="2.657">
        <ele>749</ele>
        <time>2022-06-21T09:33:47Z</time>
      </trkpt>
      <trkpt lat="43.41719" lon="2.65699">
        <ele>749</ele>
        <time>2022-06-21T09:33:48Z</time>
      </trkpt>
      <trkpt lat="43.41719" lon="2.65698">
        <ele>749</ele>
        <time>2022-06-21T09:33:49Z</time>
      </trkpt>
      <trkpt lat="43.4172" lon="2.65697">
        <ele>749.7</ele>
        <time>2022-06-21T09:33:50Z</time>
      </trkpt>
      <trkpt lat="43.4172" lon="2.65697">
        <ele>749.7</ele>
        <time>2022-06-21T09:33:51Z</time>
      </trkpt>
      <trkpt lat="43.41721" lon="2.65696">
        <ele>750.1</ele>
        <time>2022-06-21T09:33:52Z</time>
      </trkpt>
      <trkpt lat="43.41721" lon="2.65696">
        <ele>750.1</ele>
        <time>2022-06-21T09:33:53Z</time>
      </trkpt>
      <trkpt lat="43.41721" lon="2.65696">
        <ele>750.1</ele>
        <time>2022-06-21T09:33:54Z</time>
      </trkpt>
      <trkpt lat="43.41721" lon="2.65696">
        <ele>750.1</ele>
        <time>2022-06-21T09:33:55Z</time>
      </trkpt>
      <trkpt lat="43.41721" lon="2.65695">
        <ele>750.1</ele>
        <time>2022-06-21T09:33:56Z</time>
      </trkpt>
      <trkpt lat="43.41722" lon="2.65695">
        <ele>750.1</ele>
        <time>2022-06-21T09:33:57Z</time>
      </trkpt>
      <trkpt lat="43.41722" lon="2.65694">
        <ele>750.1</ele>
        <time>2022-06-21T09:33:58Z</time>
      </trkpt>
      <trkpt lat="43.41722" lon="2.65692">
        <ele>750.8</ele>
        <time>2022-06-21T09:33:59Z</time>
      </trkpt>
      <trkpt lat="43.41723" lon="2.65691">
        <ele>750.8</ele>
        <time>2022-06-21T09:34:00Z</time>
      </trkpt>
      <trkpt lat="43.41723" lon="2.65689">
        <ele>750.8</ele>
        <time>2022-06-21T09:34:01Z</time>
      </trkpt>
      <trkpt lat="43.41723" lon="2.65688">
        <ele>751.4</ele>
        <time>2022-06-21T09:34:02Z</time>
      </trkpt>
      <trkpt lat="43.41724" lon="2.65687">
        <ele>751.4</ele>
        <time>2022-06-21T09:34:03Z</time>
      </trkpt>
      <trkpt lat="43.41724" lon="2.65687">
        <ele>751.9</ele>
        <time>2022-06-21T09:34:04Z</time>
      </trkpt>
      <trkpt lat="43.41725" lon="2.65686">
        <ele>751.9</ele>
        <time>2022-06-21T09:34:05Z</time>
      </trkpt>
      <trkpt lat="43.41726" lon="2.65686">
        <ele>751.9</ele>
        <time>2022-06-21T09:34:06Z</time>
      </trkpt>
      <trkpt lat="43.41727" lon="2.65686">
        <ele>751.9</ele>
        <time>2022-06-21T09:34:07Z</time>
      </trkpt>
      <trkpt lat="43.41727" lon="2.65686">
        <ele>752.4</ele>
        <time>2022-06-21T09:34:08Z</time>
      </trkpt>
      <trkpt lat="43.41728" lon="2.65685">
        <ele>752.4</ele>
        <time>2022-06-21T09:34:09Z</time>
      </trkpt>
      <trkpt lat="43.41728" lon="2.65685">
        <ele>752.4</ele>
        <time>2022-06-21T09:34:10Z</time>
      </trkpt>
      <trkpt lat="43.41729" lon="2.65685">
        <ele>752.4</ele>
        <time>2022-06-21T09:34:11Z</time>
      </trkpt>
      <trkpt lat="43.4173" lon="2.65685">
        <ele>752.8</ele>
        <time>2022-06-21T09:34:12Z</time>
      </trkpt>
      <trkpt lat="43.41731" lon="2.65685">
        <ele>752.8</ele>
        <time>2022-06-21T09:34:13Z</time>
      </trkpt>
      <trkpt lat="43.41731" lon="2.65685">
        <ele>752.8</ele>
        <time>2022-06-21T09:34:14Z</time>
      </trkpt>
      <trkpt lat="43.41731" lon="2.65685">
        <ele>752.8</ele>
        <time>2022-06-21T09:34:15Z</time>
      </trkpt>
      <trkpt lat="43.41732" lon="2.65685">
        <ele>753.4</ele>
        <time>2022-06-21T09:34:16Z</time>
      </trkpt>
      <trkpt lat="43.41732" lon="2.65685">
        <ele>753.4</ele>
        <time>2022-06-21T09:34:17Z</time>
      </trkpt>
      <trkpt lat="43.41732" lon="2.65685">
        <ele>753.4</ele>
        <time>2022-06-21T09:34:18Z</time>
      </trkpt>
      <trkpt lat="43.41732" lon="2.65685">
        <ele>753.4</ele>
        <time>2022-06-21T09:34:19Z</time>
      </trkpt>
      <trkpt lat="43.41732" lon="2.65685">
        <ele>753.4</ele>
        <time>2022-06-21T09:34:20Z</time>
      </trkpt>
      <trkpt lat="43.41732" lon="2.65685">
        <ele>753.4</ele>
        <time>2022-06-21T09:34:21Z</time>
      </trkpt>
      <trkpt lat="43.41732" lon="2.65685">
        <ele>753.4</ele>
        <time>2022-06-21T09:34:22Z</time>
      </trkpt>
      <trkpt lat="43.41732" lon="2.65685">
        <ele>753.4</ele>
        <time>2022-06-21T09:34:23Z</time>
      </trkpt>
      <trkpt lat="43.41732" lon="2.65685">
        <ele>753.4</ele>
        <time>2022-06-21T09:34:24Z</time>
      </trkpt>
      <trkpt lat="43.41732" lon="2.65685">
        <ele>753.4</ele>
        <time>2022-06-21T09:34:25Z</time>
      </trkpt>
      <trkpt lat="43.41732" lon="2.65685">
        <ele>753.4</ele>
        <time>2022-06-21T09:34:26Z</time>
      </trkpt>
      <trkpt lat="43.41732" lon="2.65684">
        <ele>753.4</ele>
        <time>2022-06-21T09:34:27Z</time>
      </trkpt>
      <trkpt lat="43.41732" lon="2.65684">
        <ele>753.4</ele>
        <time>2022-06-21T09:34:28Z</time>
      </trkpt>
      <trkpt lat="43.41733" lon="2.65684">
        <ele>753.4</ele>
        <time>2022-06-21T09:34:29Z</time>
      </trkpt>
      <trkpt lat="43.41734" lon="2.65683">
        <ele>753.8</ele>
        <time>2022-06-21T09:34:30Z</time>
      </trkpt>
      <trkpt lat="43.41734" lon="2.65683">
        <ele>753.8</ele>
        <time>2022-06-21T09:34:31Z</time>
      </trkpt>
      <trkpt lat="43.41735" lon="2.65682">
        <ele>753.8</ele>
        <time>2022-06-21T09:34:32Z</time>
      </trkpt>
      <trkpt lat="43.41736" lon="2.65682">
        <ele>753.8</ele>
        <time>2022-06-21T09:34:33Z</time>
      </trkpt>
      <trkpt lat="43.41737" lon="2.65681">
        <ele>754.2</ele>
        <time>2022-06-21T09:34:34Z</time>
      </trkpt>
      <trkpt lat="43.41737" lon="2.65679">
        <ele>754.8</ele>
        <time>2022-06-21T09:34:35Z</time>
      </trkpt>
      <trkpt lat="43.41737" lon="2.65678">
        <ele>754.8</ele>
        <time>2022-06-21T09:34:36Z</time>
      </trkpt>
      <trkpt lat="43.41737" lon="2.65677">
        <ele>754.8</ele>
        <time>2022-06-21T09:34:37Z</time>
      </trkpt>
      <trkpt lat="43.41738" lon="2.65676">
        <ele>755.5</ele>
        <time>2022-06-21T09:34:38Z</time>
      </trkpt>
      <trkpt lat="43.41738" lon="2.65675">
        <ele>755.5</ele>
        <time>2022-06-21T09:34:39Z</time>
      </trkpt>
      <trkpt lat="43.41739" lon="2.65675">
        <ele>755.5</ele>
        <time>2022-06-21T09:34:40Z</time>
      </trkpt>
      <trkpt lat="43.41739" lon="2.65675">
        <ele>755.8</ele>
        <time>2022-06-21T09:34:41Z</time>
      </trkpt>
      <trkpt lat="43.4174" lon="2.65675">
        <ele>755.8</ele>
        <time>2022-06-21T09:34:42Z</time>
      </trkpt>
      <trkpt lat="43.41741" lon="2.65675">
        <ele>755.8</ele>
        <time>2022-06-21T09:34:43Z</time>
      </trkpt>
      <trkpt lat="43.41741" lon="2.65674">
        <ele>755.8</ele>
        <time>2022-06-21T09:34:44Z</time>
      </trkpt>
      <trkpt lat="43.41742" lon="2.65673">
        <ele>755.8</ele>
        <time>2022-06-21T09:34:45Z</time>
      </trkpt>
      <trkpt lat="43.41742" lon="2.65672">
        <ele>755.8</ele>
        <time>2022-06-21T09:34:46Z</time>
      </trkpt>
      <trkpt lat="43.41743" lon="2.65671">
        <ele>756.8</ele>
        <time>2022-06-21T09:34:47Z</time>
      </trkpt>
      <trkpt lat="43.41743" lon="2.6567">
        <ele>756.8</ele>
        <time>2022-06-21T09:34:48Z</time>
      </trkpt>
      <trkpt lat="43.41743" lon="2.65669">
        <ele>756.8</ele>
        <time>2022-06-21T09:34:49Z</time>
      </trkpt>
      <trkpt lat="43.41744" lon="2.65668">
        <ele>756.8</ele>
        <time>2022-06-21T09:34:50Z</time>
      </trkpt>
      <trkpt lat="43.41744" lon="2.65667">
        <ele>757.4</ele>
        <time>2022-06-21T09:34:51Z</time>
      </trkpt>
      <trkpt lat="43.41744" lon="2.65666">
        <ele>757.4</ele>
        <time>2022-06-21T09:34:52Z</time>
      </trkpt>
      <trkpt lat="43.41745" lon="2.65666">
        <ele>757.4</ele>
        <time>2022-06-21T09:34:53Z</time>
      </trkpt>
      <trkpt lat="43.41745" lon="2.65666">
        <ele>757.4</ele>
        <time>2022-06-21T09:34:54Z</time>
      </trkpt>
      <trkpt lat="43.41745" lon="2.65666">
        <ele>757.4</ele>
        <time>2022-06-21T09:34:55Z</time>
      </trkpt>
      <trkpt lat="43.41745" lon="2.65666">
        <ele>757.4</ele>
        <time>2022-06-21T09:34:56Z</time>
      </trkpt>
      <trkpt lat="43.41745" lon="2.65666">
        <ele>757.4</ele>
        <time>2022-06-21T09:34:57Z</time>
      </trkpt>
      <trkpt lat="43.41745" lon="2.65666">
        <ele>757.4</ele>
        <time>2022-06-21T09:34:58Z</time>
      </trkpt>
      <trkpt lat="43.41745" lon="2.65666">
        <ele>757.4</ele>
        <time>2022-06-21T09:34:59Z</time>
      </trkpt>
      <trkpt lat="43.41745" lon="2.65666">
        <ele>757.4</ele>
        <time>2022-06-21T09:35:00Z</time>
      </trkpt>
      <trkpt lat="43.41745" lon="2.65666">
        <ele>757.4</ele>
        <time>2022-06-21T09:35:01Z</time>
      </trkpt>
      <trkpt lat="43.41745" lon="2.65666">
        <ele>757.4</ele>
        <time>2022-06-21T09:35:02Z</time>
      </trkpt>
      <trkpt lat="43.41745" lon="2.65666">
        <ele>757.4</ele>
        <time>2022-06-21T09:35:03Z</time>
      </trkpt>
      <trkpt lat="43.41745" lon="2.65666">
        <ele>757.4</ele>
        <time>2022-06-21T09:35:04Z</time>
      </trkpt>
      <trkpt lat="43.41745" lon="2.65666">
        <ele>757.4</ele>
        <time>2022-06-21T09:35:05Z</time>
      </trkpt>
      <trkpt lat="43.41745" lon="2.65666">
        <ele>757.4</ele>
        <time>2022-06-21T09:35:06Z</time>
      </trkpt>
      <trkpt lat="43.41745" lon="2.65666">
        <ele>757.4</ele>
        <time>2022-06-21T09:35:07Z</time>
      </trkpt>
      <trkpt lat="43.41745" lon="2.65666">
        <ele>757.4</ele>
        <time>2022-06-21T09:35:08Z</time>
      </trkpt>
      <trkpt lat="43.41745" lon="2.65666">
        <ele>757.4</ele>
        <time>2022-06-21T09:35:09Z</time>
      </trkpt>
      <trkpt lat="43.41745" lon="2.65666">
        <ele>757.4</ele>
        <time>2022-06-21T09:35:10Z</time>
      </trkpt>
      <trkpt lat="43.41745" lon="2.65666">
        <ele>757.4</ele>
        <time>2022-06-21T09:35:11Z</time>
      </trkpt>
      <trkpt lat="43.41745" lon="2.65666">
        <ele>757.4</ele>
        <time>2022-06-21T09:35:12Z</time>
      </trkpt>
      <trkpt lat="43.41746" lon="2.65665">
        <ele>757.4</ele>
        <time>2022-06-21T09:35:13Z</time>
      </trkpt>
      <trkpt lat="43.41746" lon="2.65665">
        <ele>757.7</ele>
        <time>2022-06-21T09:35:14Z</time>
      </trkpt>
      <trkpt lat="43.41746" lon="2.65664">
        <ele>757.7</ele>
        <time>2022-06-21T09:35:15Z</time>
      </trkpt>
      <trkpt lat="43.41747" lon="2.65663">
        <ele>758.3</ele>
        <time>2022-06-21T09:35:16Z</time>
      </trkpt>
      <trkpt lat="43.41747" lon="2.65661">
        <ele>758.3</ele>
        <time>2022-06-21T09:35:17Z</time>
      </trkpt>
      <trkpt lat="43.41747" lon="2.6566">
        <ele>758.3</ele>
        <time>2022-06-21T09:35:18Z</time>
      </trkpt>
      <trkpt lat="43.41748" lon="2.65659">
        <ele>758.3</ele>
        <time>2022-06-21T09:35:19Z</time>
      </trkpt>
      <trkpt lat="43.41748" lon="2.65658">
        <ele>758.9</ele>
        <time>2022-06-21T09:35:20Z</time>
      </trkpt>
      <trkpt lat="43.41748" lon="2.65657">
        <ele>758.9</ele>
        <time>2022-06-21T09:35:21Z</time>
      </trkpt>
      <trkpt lat="43.41748" lon="2.65655">
        <ele>758.9</ele>
        <time>2022-06-21T09:35:22Z</time>
      </trkpt>
      <trkpt lat="43.41748" lon="2.65654">
        <ele>759.5</ele>
        <time>2022-06-21T09:35:23Z</time>
      </trkpt>
      <trkpt lat="43.41748" lon="2.65653">
        <ele>759.5</ele>
        <time>2022-06-21T09:35:24Z</time>
      </trkpt>
      <trkpt lat="43.41748" lon="2.65652">
        <ele>759.5</ele>
        <time>2022-06-21T09:35:25Z</time>
      </trkpt>
      <trkpt lat="43.41748" lon="2.6565">
        <ele>760.1</ele>
        <time>2022-06-21T09:35:26Z</time>
      </trkpt>
      <trkpt lat="43.41748" lon="2.65649">
        <ele>760.1</ele>
        <time>2022-06-21T09:35:27Z</time>
      </trkpt>
      <trkpt lat="43.41748" lon="2.65648">
        <ele>760.1</ele>
        <time>2022-06-21T09:35:28Z</time>
      </trkpt>
      <trkpt lat="43.41749" lon="2.65647">
        <ele>760.1</ele>
        <time>2022-06-21T09:35:29Z</time>
      </trkpt>
      <trkpt lat="43.41749" lon="2.65646">
        <ele>760.1</ele>
        <time>2022-06-21T09:35:30Z</time>
      </trkpt>
      <trkpt lat="43.41749" lon="2.65645">
        <ele>760.6</ele>
        <time>2022-06-21T09:35:31Z</time>
      </trkpt>
      <trkpt lat="43.41749" lon="2.65644">
        <ele>760.8</ele>
        <time>2022-06-21T09:35:32Z</time>
      </trkpt>
      <trkpt lat="43.41749" lon="2.65642">
        <ele>760.8</ele>
        <time>2022-06-21T09:35:33Z</time>
      </trkpt>
      <trkpt lat="43.41749" lon="2.65641">
        <ele>761.3</ele>
        <time>2022-06-21T09:35:34Z</time>
      </trkpt>
      <trkpt lat="43.41749" lon="2.65639">
        <ele>761.3</ele>
        <time>2022-06-21T09:35:35Z</time>
      </trkpt>
      <trkpt lat="43.4175" lon="2.65638">
        <ele>761.3</ele>
        <time>2022-06-21T09:35:36Z</time>
      </trkpt>
      <trkpt lat="43.4175" lon="2.65637">
        <ele>761.8</ele>
        <time>2022-06-21T09:35:37Z</time>
      </trkpt>
      <trkpt lat="43.4175" lon="2.65636">
        <ele>761.8</ele>
        <time>2022-06-21T09:35:38Z</time>
      </trkpt>
      <trkpt lat="43.41749" lon="2.65634">
        <ele>761.8</ele>
        <time>2022-06-21T09:35:39Z</time>
      </trkpt>
      <trkpt lat="43.41749" lon="2.65633">
        <ele>762.4</ele>
        <time>2022-06-21T09:35:40Z</time>
      </trkpt>
      <trkpt lat="43.41749" lon="2.65631">
        <ele>762.4</ele>
        <time>2022-06-21T09:35:41Z</time>
      </trkpt>
      <trkpt lat="43.41749" lon="2.6563">
        <ele>762.4</ele>
        <time>2022-06-21T09:35:42Z</time>
      </trkpt>
      <trkpt lat="43.41749" lon="2.65629">
        <ele>762.4</ele>
        <time>2022-06-21T09:35:43Z</time>
      </trkpt>
      <trkpt lat="43.41749" lon="2.65628">
        <ele>763</ele>
        <time>2022-06-21T09:35:44Z</time>
      </trkpt>
      <trkpt lat="43.4175" lon="2.65627">
        <ele>763</ele>
        <time>2022-06-21T09:35:45Z</time>
      </trkpt>
      <trkpt lat="43.4175" lon="2.65625">
        <ele>763</ele>
        <time>2022-06-21T09:35:46Z</time>
      </trkpt>
      <trkpt lat="43.4175" lon="2.65624">
        <ele>763.6</ele>
        <time>2022-06-21T09:35:47Z</time>
      </trkpt>
      <trkpt lat="43.4175" lon="2.65623">
        <ele>763.6</ele>
        <time>2022-06-21T09:35:48Z</time>
      </trkpt>
      <trkpt lat="43.4175" lon="2.65622">
        <ele>763.6</ele>
        <time>2022-06-21T09:35:49Z</time>
      </trkpt>
      <trkpt lat="43.41751" lon="2.65619">
        <ele>764.4</ele>
        <time>2022-06-21T09:35:50Z</time>
      </trkpt>
      <trkpt lat="43.41751" lon="2.65618">
        <ele>764.4</ele>
        <time>2022-06-21T09:35:51Z</time>
      </trkpt>
      <trkpt lat="43.41751" lon="2.65617">
        <ele>764.4</ele>
        <time>2022-06-21T09:35:52Z</time>
      </trkpt>
      <trkpt lat="43.41752" lon="2.65616">
        <ele>764.4</ele>
        <time>2022-06-21T09:35:53Z</time>
      </trkpt>
      <trkpt lat="43.41752" lon="2.65615">
        <ele>765.2</ele>
        <time>2022-06-21T09:35:54Z</time>
      </trkpt>
      <trkpt lat="43.41753" lon="2.65614">
        <ele>765.2</ele>
        <time>2022-06-21T09:35:55Z</time>
      </trkpt>
      <trkpt lat="43.41753" lon="2.65613">
        <ele>765.2</ele>
        <time>2022-06-21T09:35:56Z</time>
      </trkpt>
      <trkpt lat="43.41753" lon="2.65612">
        <ele>765.2</ele>
        <time>2022-06-21T09:35:57Z</time>
      </trkpt>
      <trkpt lat="43.41754" lon="2.65611">
        <ele>766</ele>
        <time>2022-06-21T09:35:58Z</time>
      </trkpt>
      <trkpt lat="43.41754" lon="2.6561">
        <ele>766</ele>
        <time>2022-06-21T09:35:59Z</time>
      </trkpt>
      <trkpt lat="43.41754" lon="2.6561">
        <ele>766</ele>
        <time>2022-06-21T09:36:00Z</time>
      </trkpt>
      <trkpt lat="43.41755" lon="2.65609">
        <ele>766</ele>
        <time>2022-06-21T09:36:01Z</time>
      </trkpt>
      <trkpt lat="43.41755" lon="2.65609">
        <ele>766</ele>
        <time>2022-06-21T09:36:02Z</time>
      </trkpt>
      <trkpt lat="43.41755" lon="2.65609">
        <ele>766</ele>
        <time>2022-06-21T09:36:03Z</time>
      </trkpt>
      <trkpt lat="43.41755" lon="2.6561">
        <ele>766</ele>
        <time>2022-06-21T09:36:04Z</time>
      </trkpt>
      <trkpt lat="43.41755" lon="2.6561">
        <ele>766</ele>
        <time>2022-06-21T09:36:05Z</time>
      </trkpt>
      <trkpt lat="43.41755" lon="2.6561">
        <ele>766</ele>
        <time>2022-06-21T09:36:06Z</time>
      </trkpt>
      <trkpt lat="43.41755" lon="2.6561">
        <ele>766</ele>
        <time>2022-06-21T09:36:07Z</time>
      </trkpt>
      <trkpt lat="43.41755" lon="2.65609">
        <ele>766</ele>
        <time>2022-06-21T09:36:08Z</time>
      </trkpt>
      <trkpt lat="43.41755" lon="2.65609">
        <ele>766</ele>
        <time>2022-06-21T09:36:09Z</time>
      </trkpt>
      <trkpt lat="43.41755" lon="2.65608">
        <ele>766.1</ele>
        <time>2022-06-21T09:36:10Z</time>
      </trkpt>
      <trkpt lat="43.41755" lon="2.65607">
        <ele>766.8</ele>
        <time>2022-06-21T09:36:11Z</time>
      </trkpt>
      <trkpt lat="43.41755" lon="2.65606">
        <ele>766.8</ele>
        <time>2022-06-21T09:36:12Z</time>
      </trkpt>
      <trkpt lat="43.41756" lon="2.65604">
        <ele>766.8</ele>
        <time>2022-06-21T09:36:13Z</time>
      </trkpt>
      <trkpt lat="43.41756" lon="2.65603">
        <ele>767.6</ele>
        <time>2022-06-21T09:36:14Z</time>
      </trkpt>
      <trkpt lat="43.41756" lon="2.65601">
        <ele>767.6</ele>
        <time>2022-06-21T09:36:15Z</time>
      </trkpt>
      <trkpt lat="43.41756" lon="2.656">
        <ele>767.6</ele>
        <time>2022-06-21T09:36:16Z</time>
      </trkpt>
      <trkpt lat="43.41757" lon="2.65599">
        <ele>768.2</ele>
        <time>2022-06-21T09:36:17Z</time>
      </trkpt>
      <trkpt lat="43.41757" lon="2.65597">
        <ele>768.2</ele>
        <time>2022-06-21T09:36:18Z</time>
      </trkpt>
      <trkpt lat="43.41757" lon="2.65596">
        <ele>768.2</ele>
        <time>2022-06-21T09:36:19Z</time>
      </trkpt>
      <trkpt lat="43.41757" lon="2.65595">
        <ele>768.2</ele>
        <time>2022-06-21T09:36:20Z</time>
      </trkpt>
      <trkpt lat="43.41758" lon="2.65594">
        <ele>768.9</ele>
        <time>2022-06-21T09:36:21Z</time>
      </trkpt>
      <trkpt lat="43.41758" lon="2.65592">
        <ele>768.9</ele>
        <time>2022-06-21T09:36:22Z</time>
      </trkpt>
      <trkpt lat="43.41758" lon="2.65591">
        <ele>768.9</ele>
        <time>2022-06-21T09:36:23Z</time>
      </trkpt>
      <trkpt lat="43.41757" lon="2.6559">
        <ele>769.5</ele>
        <time>2022-06-21T09:36:24Z</time>
      </trkpt>
      <trkpt lat="43.41757" lon="2.65589">
        <ele>769.5</ele>
        <time>2022-06-21T09:36:25Z</time>
      </trkpt>
      <trkpt lat="43.41757" lon="2.65588">
        <ele>769.5</ele>
        <time>2022-06-21T09:36:26Z</time>
      </trkpt>
      <trkpt lat="43.41757" lon="2.65587">
        <ele>769.5</ele>
        <time>2022-06-21T09:36:27Z</time>
      </trkpt>
      <trkpt lat="43.41758" lon="2.65586">
        <ele>770.1</ele>
        <time>2022-06-21T09:36:28Z</time>
      </trkpt>
      <trkpt lat="43.41758" lon="2.65585">
        <ele>770.1</ele>
        <time>2022-06-21T09:36:29Z</time>
      </trkpt>
      <trkpt lat="43.41758" lon="2.65584">
        <ele>770.1</ele>
        <time>2022-06-21T09:36:30Z</time>
      </trkpt>
      <trkpt lat="43.41758" lon="2.65583">
        <ele>770</ele>
        <time>2022-06-21T09:36:31Z</time>
      </trkpt>
      <trkpt lat="43.41759" lon="2.65582">
        <ele>770</ele>
        <time>2022-06-21T09:36:32Z</time>
      </trkpt>
      <trkpt lat="43.41759" lon="2.65581">
        <ele>770.6</ele>
        <time>2022-06-21T09:36:33Z</time>
      </trkpt>
      <trkpt lat="43.41759" lon="2.65579">
        <ele>770.6</ele>
        <time>2022-06-21T09:36:34Z</time>
      </trkpt>
      <trkpt lat="43.41759" lon="2.65578">
        <ele>770.6</ele>
        <time>2022-06-21T09:36:35Z</time>
      </trkpt>
      <trkpt lat="43.4176" lon="2.65577">
        <ele>771.1</ele>
        <time>2022-06-21T09:36:36Z</time>
      </trkpt>
      <trkpt lat="43.4176" lon="2.65576">
        <ele>771.1</ele>
        <time>2022-06-21T09:36:37Z</time>
      </trkpt>
      <trkpt lat="43.41761" lon="2.65575">
        <ele>771.1</ele>
        <time>2022-06-21T09:36:38Z</time>
      </trkpt>
      <trkpt lat="43.41761" lon="2.65574">
        <ele>771.1</ele>
        <time>2022-06-21T09:36:39Z</time>
      </trkpt>
      <trkpt lat="43.41761" lon="2.65572">
        <ele>771.7</ele>
        <time>2022-06-21T09:36:40Z</time>
      </trkpt>
      <trkpt lat="43.41761" lon="2.65571">
        <ele>771.5</ele>
        <time>2022-06-21T09:36:41Z</time>
      </trkpt>
      <trkpt lat="43.41762" lon="2.6557">
        <ele>771.5</ele>
        <time>2022-06-21T09:36:42Z</time>
      </trkpt>
      <trkpt lat="43.41762" lon="2.65569">
        <ele>771.5</ele>
        <time>2022-06-21T09:36:43Z</time>
      </trkpt>
      <trkpt lat="43.41762" lon="2.65569">
        <ele>771.5</ele>
        <time>2022-06-21T09:36:44Z</time>
      </trkpt>
      <trkpt lat="43.41763" lon="2.65569">
        <ele>771.5</ele>
        <time>2022-06-21T09:36:45Z</time>
      </trkpt>
      <trkpt lat="43.41763" lon="2.65569">
        <ele>771.5</ele>
        <time>2022-06-21T09:36:46Z</time>
      </trkpt>
      <trkpt lat="43.41763" lon="2.65569">
        <ele>771.5</ele>
        <time>2022-06-21T09:36:47Z</time>
      </trkpt>
      <trkpt lat="43.41763" lon="2.65569">
        <ele>772</ele>
        <time>2022-06-21T09:36:48Z</time>
      </trkpt>
      <trkpt lat="43.41763" lon="2.65568">
        <ele>772</ele>
        <time>2022-06-21T09:36:49Z</time>
      </trkpt>
      <trkpt lat="43.41764" lon="2.65567">
        <ele>772</ele>
        <time>2022-06-21T09:36:50Z</time>
      </trkpt>
      <trkpt lat="43.41765" lon="2.65566">
        <ele>771.7</ele>
        <time>2022-06-21T09:36:51Z</time>
      </trkpt>
      <trkpt lat="43.41765" lon="2.65564">
        <ele>772.2</ele>
        <time>2022-06-21T09:36:52Z</time>
      </trkpt>
      <trkpt lat="43.41765" lon="2.65563">
        <ele>772.2</ele>
        <time>2022-06-21T09:36:53Z</time>
      </trkpt>
      <trkpt lat="43.41765" lon="2.65562">
        <ele>772.2</ele>
        <time>2022-06-21T09:36:54Z</time>
      </trkpt>
      <trkpt lat="43.41765" lon="2.65562">
        <ele>772.2</ele>
        <time>2022-06-21T09:36:55Z</time>
      </trkpt>
      <trkpt lat="43.41765" lon="2.65562">
        <ele>772.2</ele>
        <time>2022-06-21T09:36:56Z</time>
      </trkpt>
      <trkpt lat="43.41765" lon="2.65561">
        <ele>772.2</ele>
        <time>2022-06-21T09:36:57Z</time>
      </trkpt>
      <trkpt lat="43.41765" lon="2.65562">
        <ele>772.2</ele>
        <time>2022-06-21T09:36:58Z</time>
      </trkpt>
      <trkpt lat="43.41765" lon="2.65562">
        <ele>772.2</ele>
        <time>2022-06-21T09:36:59Z</time>
      </trkpt>
      <trkpt lat="43.41765" lon="2.65562">
        <ele>772.2</ele>
        <time>2022-06-21T09:37:00Z</time>
      </trkpt>
      <trkpt lat="43.41765" lon="2.65562">
        <ele>772.2</ele>
        <time>2022-06-21T09:37:01Z</time>
      </trkpt>
      <trkpt lat="43.41765" lon="2.65562">
        <ele>772.2</ele>
        <time>2022-06-21T09:37:02Z</time>
      </trkpt>
      <trkpt lat="43.41765" lon="2.65562">
        <ele>772.2</ele>
        <time>2022-06-21T09:37:03Z</time>
      </trkpt>
      <trkpt lat="43.41765" lon="2.65562">
        <ele>772.2</ele>
        <time>2022-06-21T09:37:04Z</time>
      </trkpt>
      <trkpt lat="43.41765" lon="2.65562">
        <ele>772.2</ele>
        <time>2022-06-21T09:37:05Z</time>
      </trkpt>
      <trkpt lat="43.41765" lon="2.65562">
        <ele>772.2</ele>
        <time>2022-06-21T09:37:06Z</time>
      </trkpt>
      <trkpt lat="43.41765" lon="2.65562">
        <ele>772.2</ele>
        <time>2022-06-21T09:37:07Z</time>
      </trkpt>
      <trkpt lat="43.41765" lon="2.65562">
        <ele>772.2</ele>
        <time>2022-06-21T09:37:08Z</time>
      </trkpt>
      <trkpt lat="43.41765" lon="2.65562">
        <ele>772.2</ele>
        <time>2022-06-21T09:37:09Z</time>
      </trkpt>
      <trkpt lat="43.41765" lon="2.65562">
        <ele>772.2</ele>
        <time>2022-06-21T09:37:10Z</time>
      </trkpt>
      <trkpt lat="43.41765" lon="2.65562">
        <ele>772.2</ele>
        <time>2022-06-21T09:37:11Z</time>
      </trkpt>
      <trkpt lat="43.41765" lon="2.65562">
        <ele>772.2</ele>
        <time>2022-06-21T09:37:12Z</time>
      </trkpt>
      <trkpt lat="43.41765" lon="2.65562">
        <ele>772.2</ele>
        <time>2022-06-21T09:37:13Z</time>
      </trkpt>
      <trkpt lat="43.41765" lon="2.65561">
        <ele>772.2</ele>
        <time>2022-06-21T09:37:14Z</time>
      </trkpt>
      <trkpt lat="43.41766" lon="2.6556">
        <ele>772.2</ele>
        <time>2022-06-21T09:37:15Z</time>
      </trkpt>
      <trkpt lat="43.41766" lon="2.6556">
        <ele>772.7</ele>
        <time>2022-06-21T09:37:16Z</time>
      </trkpt>
      <trkpt lat="43.41767" lon="2.65559">
        <ele>772.7</ele>
        <time>2022-06-21T09:37:17Z</time>
      </trkpt>
      <trkpt lat="43.41768" lon="2.65557">
        <ele>772.3</ele>
        <time>2022-06-21T09:37:18Z</time>
      </trkpt>
      <trkpt lat="43.41768" lon="2.65556">
        <ele>772.8</ele>
        <time>2022-06-21T09:37:19Z</time>
      </trkpt>
      <trkpt lat="43.41769" lon="2.65554">
        <ele>772.8</ele>
        <time>2022-06-21T09:37:20Z</time>
      </trkpt>
      <trkpt lat="43.41769" lon="2.65552">
        <ele>772.8</ele>
        <time>2022-06-21T09:37:21Z</time>
      </trkpt>
      <trkpt lat="43.41769" lon="2.65552">
        <ele>772.8</ele>
        <time>2022-06-21T09:37:22Z</time>
      </trkpt>
      <trkpt lat="43.41769" lon="2.65551">
        <ele>773.2</ele>
        <time>2022-06-21T09:37:23Z</time>
      </trkpt>
      <trkpt lat="43.41769" lon="2.6555">
        <ele>773.2</ele>
        <time>2022-06-21T09:37:24Z</time>
      </trkpt>
      <trkpt lat="43.4177" lon="2.65549">
        <ele>773.2</ele>
        <time>2022-06-21T09:37:25Z</time>
      </trkpt>
      <trkpt lat="43.4177" lon="2.65548">
        <ele>773.2</ele>
        <time>2022-06-21T09:37:26Z</time>
      </trkpt>
      <trkpt lat="43.4177" lon="2.65547">
        <ele>773.6</ele>
        <time>2022-06-21T09:37:27Z</time>
      </trkpt>
      <trkpt lat="43.41771" lon="2.65546">
        <ele>773.1</ele>
        <time>2022-06-21T09:37:28Z</time>
      </trkpt>
      <trkpt lat="43.41771" lon="2.65545">
        <ele>773.1</ele>
        <time>2022-06-21T09:37:29Z</time>
      </trkpt>
      <trkpt lat="43.41771" lon="2.65545">
        <ele>773.1</ele>
        <time>2022-06-21T09:37:30Z</time>
      </trkpt>
      <trkpt lat="43.41771" lon="2.65545">
        <ele>773.1</ele>
        <time>2022-06-21T09:37:31Z</time>
      </trkpt>
      <trkpt lat="43.41771" lon="2.65545">
        <ele>773.1</ele>
        <time>2022-06-21T09:37:32Z</time>
      </trkpt>
      <trkpt lat="43.41771" lon="2.65546">
        <ele>773.1</ele>
        <time>2022-06-21T09:37:33Z</time>
      </trkpt>
      <trkpt lat="43.41771" lon="2.65546">
        <ele>773.1</ele>
        <time>2022-06-21T09:37:34Z</time>
      </trkpt>
      <trkpt lat="43.41771" lon="2.65546">
        <ele>773.1</ele>
        <time>2022-06-21T09:37:35Z</time>
      </trkpt>
      <trkpt lat="43.41771" lon="2.65545">
        <ele>773.1</ele>
        <time>2022-06-21T09:37:36Z</time>
      </trkpt>
      <trkpt lat="43.41771" lon="2.65544">
        <ele>773.1</ele>
        <time>2022-06-21T09:37:37Z</time>
      </trkpt>
      <trkpt lat="43.41772" lon="2.65544">
        <ele>773.1</ele>
        <time>2022-06-21T09:37:38Z</time>
      </trkpt>
      <trkpt lat="43.41772" lon="2.65542">
        <ele>773.4</ele>
        <time>2022-06-21T09:37:39Z</time>
      </trkpt>
      <trkpt lat="43.41772" lon="2.65541">
        <ele>773.4</ele>
        <time>2022-06-21T09:37:40Z</time>
      </trkpt>
      <trkpt lat="43.41772" lon="2.65541">
        <ele>773.4</ele>
        <time>2022-06-21T09:37:41Z</time>
      </trkpt>
      <trkpt lat="43.41772" lon="2.65539">
        <ele>773.4</ele>
        <time>2022-06-21T09:37:42Z</time>
      </trkpt>
      <trkpt lat="43.41772" lon="2.65538">
        <ele>773.7</ele>
        <time>2022-06-21T09:37:43Z</time>
      </trkpt>
      <trkpt lat="43.41772" lon="2.65537">
        <ele>773.7</ele>
        <time>2022-06-21T09:37:44Z</time>
      </trkpt>
      <trkpt lat="43.41772" lon="2.65535">
        <ele>773.7</ele>
        <time>2022-06-21T09:37:45Z</time>
      </trkpt>
      <trkpt lat="43.41772" lon="2.65534">
        <ele>774</ele>
        <time>2022-06-21T09:37:46Z</time>
      </trkpt>
      <trkpt lat="43.41772" lon="2.65533">
        <ele>774</ele>
        <time>2022-06-21T09:37:47Z</time>
      </trkpt>
      <trkpt lat="43.41773" lon="2.65532">
        <ele>774</ele>
        <time>2022-06-21T09:37:48Z</time>
      </trkpt>
      <trkpt lat="43.41773" lon="2.65531">
        <ele>774</ele>
        <time>2022-06-21T09:37:49Z</time>
      </trkpt>
      <trkpt lat="43.41773" lon="2.6553">
        <ele>774.2</ele>
        <time>2022-06-21T09:37:50Z</time>
      </trkpt>
      <trkpt lat="43.41773" lon="2.65529">
        <ele>774.2</ele>
        <time>2022-06-21T09:37:51Z</time>
      </trkpt>
      <trkpt lat="43.41773" lon="2.65528">
        <ele>774.2</ele>
        <time>2022-06-21T09:37:52Z</time>
      </trkpt>
      <trkpt lat="43.41773" lon="2.65527">
        <ele>774.2</ele>
        <time>2022-06-21T09:37:53Z</time>
      </trkpt>
      <trkpt lat="43.41773" lon="2.65527">
        <ele>774.2</ele>
        <time>2022-06-21T09:37:54Z</time>
      </trkpt>
      <trkpt lat="43.41773" lon="2.65527">
        <ele>774.2</ele>
        <time>2022-06-21T09:37:55Z</time>
      </trkpt>
      <trkpt lat="43.41773" lon="2.65526">
        <ele>774.2</ele>
        <time>2022-06-21T09:37:56Z</time>
      </trkpt>
      <trkpt lat="43.41773" lon="2.65526">
        <ele>774.2</ele>
        <time>2022-06-21T09:37:57Z</time>
      </trkpt>
      <trkpt lat="43.41773" lon="2.65526">
        <ele>774.2</ele>
        <time>2022-06-21T09:37:59Z</time>
      </trkpt>
      <trkpt lat="43.41773" lon="2.65526">
        <ele>774.2</ele>
        <time>2022-06-21T09:38:00Z</time>
      </trkpt>
      <trkpt lat="43.41773" lon="2.65526">
        <ele>774.2</ele>
        <time>2022-06-21T09:38:01Z</time>
      </trkpt>
      <trkpt lat="43.41773" lon="2.65526">
        <ele>774.2</ele>
        <time>2022-06-21T09:38:02Z</time>
      </trkpt>
      <trkpt lat="43.41773" lon="2.65526">
        <ele>774.2</ele>
        <time>2022-06-21T09:38:03Z</time>
      </trkpt>
      <trkpt lat="43.41773" lon="2.65526">
        <ele>774.2</ele>
        <time>2022-06-21T09:38:04Z</time>
      </trkpt>
      <trkpt lat="43.41773" lon="2.65526">
        <ele>774.2</ele>
        <time>2022-06-21T09:38:05Z</time>
      </trkpt>
      <trkpt lat="43.41773" lon="2.65526">
        <ele>774.2</ele>
        <time>2022-06-21T09:38:06Z</time>
      </trkpt>
      <trkpt lat="43.41773" lon="2.65526">
        <ele>774.2</ele>
        <time>2022-06-21T09:38:07Z</time>
      </trkpt>
      <trkpt lat="43.41773" lon="2.65525">
        <ele>774.4</ele>
        <time>2022-06-21T09:38:08Z</time>
      </trkpt>
      <trkpt lat="43.41772" lon="2.65524">
        <ele>774.4</ele>
        <time>2022-06-21T09:38:09Z</time>
      </trkpt>
      <trkpt lat="43.41772" lon="2.65523">
        <ele>774.4</ele>
        <time>2022-06-21T09:38:10Z</time>
      </trkpt>
      <trkpt lat="43.41772" lon="2.65521">
        <ele>774.6</ele>
        <time>2022-06-21T09:38:11Z</time>
      </trkpt>
      <trkpt lat="43.41772" lon="2.6552">
        <ele>774.6</ele>
        <time>2022-06-21T09:38:12Z</time>
      </trkpt>
      <trkpt lat="43.41772" lon="2.65519">
        <ele>774.6</ele>
        <time>2022-06-21T09:38:13Z</time>
      </trkpt>
      <trkpt lat="43.41772" lon="2.65518">
        <ele>774.6</ele>
        <time>2022-06-21T09:38:14Z</time>
      </trkpt>
      <trkpt lat="43.41772" lon="2.65517">
        <ele>774.6</ele>
        <time>2022-06-21T09:38:15Z</time>
      </trkpt>
      <trkpt lat="43.41772" lon="2.65516">
        <ele>774.6</ele>
        <time>2022-06-21T09:38:16Z</time>
      </trkpt>
      <trkpt lat="43.41772" lon="2.65515">
        <ele>774.6</ele>
        <time>2022-06-21T09:38:17Z</time>
      </trkpt>
      <trkpt lat="43.41771" lon="2.65514">
        <ele>774.6</ele>
        <time>2022-06-21T09:38:18Z</time>
      </trkpt>
      <trkpt lat="43.41771" lon="2.65513">
        <ele>774.6</ele>
        <time>2022-06-21T09:38:19Z</time>
      </trkpt>
      <trkpt lat="43.41771" lon="2.65512">
        <ele>774.7</ele>
        <time>2022-06-21T09:38:20Z</time>
      </trkpt>
      <trkpt lat="43.41771" lon="2.65512">
        <ele>774.7</ele>
        <time>2022-06-21T09:38:21Z</time>
      </trkpt>
      <trkpt lat="43.4177" lon="2.65511">
        <ele>775.4</ele>
        <time>2022-06-21T09:38:22Z</time>
      </trkpt>
      <trkpt lat="43.4177" lon="2.6551">
        <ele>775.4</ele>
        <time>2022-06-21T09:38:23Z</time>
      </trkpt>
      <trkpt lat="43.4177" lon="2.65509">
        <ele>775.4</ele>
        <time>2022-06-21T09:38:24Z</time>
      </trkpt>
      <trkpt lat="43.4177" lon="2.65509">
        <ele>775.4</ele>
        <time>2022-06-21T09:38:25Z</time>
      </trkpt>
      <trkpt lat="43.4177" lon="2.65508">
        <ele>775.4</ele>
        <time>2022-06-21T09:38:26Z</time>
      </trkpt>
      <trkpt lat="43.4177" lon="2.65508">
        <ele>775.4</ele>
        <time>2022-06-21T09:38:27Z</time>
      </trkpt>
      <trkpt lat="43.4177" lon="2.65507">
        <ele>775.4</ele>
        <time>2022-06-21T09:38:28Z</time>
      </trkpt>
      <trkpt lat="43.4177" lon="2.65507">
        <ele>775.4</ele>
        <time>2022-06-21T09:38:29Z</time>
      </trkpt>
      <trkpt lat="43.41771" lon="2.65507">
        <ele>774.7</ele>
        <time>2022-06-21T09:38:30Z</time>
      </trkpt>
      <trkpt lat="43.41771" lon="2.65507">
        <ele>774.7</ele>
        <time>2022-06-21T09:38:31Z</time>
      </trkpt>
      <trkpt lat="43.41771" lon="2.65507">
        <ele>774.7</ele>
        <time>2022-06-21T09:38:32Z</time>
      </trkpt>
      <trkpt lat="43.4177" lon="2.65507">
        <ele>775.4</ele>
        <time>2022-06-21T09:38:33Z</time>
      </trkpt>
      <trkpt lat="43.4177" lon="2.65506">
        <ele>775.4</ele>
        <time>2022-06-21T09:38:34Z</time>
      </trkpt>
      <trkpt lat="43.4177" lon="2.65505">
        <ele>775.4</ele>
        <time>2022-06-21T09:38:35Z</time>
      </trkpt>
      <trkpt lat="43.4177" lon="2.65504">
        <ele>775.4</ele>
        <time>2022-06-21T09:38:36Z</time>
      </trkpt>
      <trkpt lat="43.41769" lon="2.65502">
        <ele>775.4</ele>
        <time>2022-06-21T09:38:37Z</time>
      </trkpt>
      <trkpt lat="43.41769" lon="2.65501">
        <ele>775.4</ele>
        <time>2022-06-21T09:38:38Z</time>
      </trkpt>
      <trkpt lat="43.41769" lon="2.655">
        <ele>775.3</ele>
        <time>2022-06-21T09:38:39Z</time>
      </trkpt>
      <trkpt lat="43.41769" lon="2.65499">
        <ele>775.3</ele>
        <time>2022-06-21T09:38:40Z</time>
      </trkpt>
      <trkpt lat="43.41769" lon="2.65498">
        <ele>775.3</ele>
        <time>2022-06-21T09:38:41Z</time>
      </trkpt>
      <trkpt lat="43.41769" lon="2.65497">
        <ele>775.3</ele>
        <time>2022-06-21T09:38:42Z</time>
      </trkpt>
      <trkpt lat="43.41768" lon="2.65496">
        <ele>775.3</ele>
        <time>2022-06-21T09:38:43Z</time>
      </trkpt>
      <trkpt lat="43.41768" lon="2.65495">
        <ele>775.2</ele>
        <time>2022-06-21T09:38:44Z</time>
      </trkpt>
      <trkpt lat="43.41768" lon="2.65494">
        <ele>775.2</ele>
        <time>2022-06-21T09:38:45Z</time>
      </trkpt>
      <trkpt lat="43.41768" lon="2.65493">
        <ele>775.2</ele>
        <time>2022-06-21T09:38:46Z</time>
      </trkpt>
      <trkpt lat="43.41768" lon="2.65492">
        <ele>775.2</ele>
        <time>2022-06-21T09:38:47Z</time>
      </trkpt>
      <trkpt lat="43.41767" lon="2.65491">
        <ele>775.8</ele>
        <time>2022-06-21T09:38:48Z</time>
      </trkpt>
      <trkpt lat="43.41767" lon="2.65491">
        <ele>775.8</ele>
        <time>2022-06-21T09:38:49Z</time>
      </trkpt>
      <trkpt lat="43.41767" lon="2.65491">
        <ele>775.8</ele>
        <time>2022-06-21T09:38:50Z</time>
      </trkpt>
      <trkpt lat="43.41767" lon="2.65491">
        <ele>775.8</ele>
        <time>2022-06-21T09:38:51Z</time>
      </trkpt>
      <trkpt lat="43.41767" lon="2.65491">
        <ele>775.8</ele>
        <time>2022-06-21T09:38:52Z</time>
      </trkpt>
      <trkpt lat="43.41767" lon="2.65491">
        <ele>775.8</ele>
        <time>2022-06-21T09:38:53Z</time>
      </trkpt>
      <trkpt lat="43.41767" lon="2.65491">
        <ele>775.8</ele>
        <time>2022-06-21T09:38:54Z</time>
      </trkpt>
      <trkpt lat="43.41767" lon="2.65491">
        <ele>775.8</ele>
        <time>2022-06-21T09:38:55Z</time>
      </trkpt>
      <trkpt lat="43.41767" lon="2.65491">
        <ele>775.8</ele>
        <time>2022-06-21T09:38:56Z</time>
      </trkpt>
      <trkpt lat="43.41767" lon="2.65491">
        <ele>775.8</ele>
        <time>2022-06-21T09:38:57Z</time>
      </trkpt>
      <trkpt lat="43.41767" lon="2.65491">
        <ele>775.8</ele>
        <time>2022-06-21T09:38:58Z</time>
      </trkpt>
      <trkpt lat="43.41767" lon="2.65491">
        <ele>775.8</ele>
        <time>2022-06-21T09:38:59Z</time>
      </trkpt>
      <trkpt lat="43.41767" lon="2.6549">
        <ele>775.8</ele>
        <time>2022-06-21T09:39:00Z</time>
      </trkpt>
      <trkpt lat="43.41766" lon="2.6549">
        <ele>775.8</ele>
        <time>2022-06-21T09:39:01Z</time>
      </trkpt>
      <trkpt lat="43.41765" lon="2.6549">
        <ele>775.8</ele>
        <time>2022-06-21T09:39:02Z</time>
      </trkpt>
      <trkpt lat="43.41764" lon="2.6549">
        <ele>776.4</ele>
        <time>2022-06-21T09:39:03Z</time>
      </trkpt>
      <trkpt lat="43.41763" lon="2.6549">
        <ele>776.4</ele>
        <time>2022-06-21T09:39:04Z</time>
      </trkpt>
      <trkpt lat="43.41762" lon="2.6549">
        <ele>776.4</ele>
        <time>2022-06-21T09:39:05Z</time>
      </trkpt>
      <trkpt lat="43.41761" lon="2.6549">
        <ele>777</ele>
        <time>2022-06-21T09:39:06Z</time>
      </trkpt>
      <trkpt lat="43.4176" lon="2.6549">
        <ele>777</ele>
        <time>2022-06-21T09:39:07Z</time>
      </trkpt>
      <trkpt lat="43.41759" lon="2.65489">
        <ele>777</ele>
        <time>2022-06-21T09:39:08Z</time>
      </trkpt>
      <trkpt lat="43.41758" lon="2.65489">
        <ele>777</ele>
        <time>2022-06-21T09:39:09Z</time>
      </trkpt>
      <trkpt lat="43.41758" lon="2.65488">
        <ele>777.6</ele>
        <time>2022-06-21T09:39:10Z</time>
      </trkpt>
      <trkpt lat="43.41757" lon="2.65488">
        <ele>777.6</ele>
        <time>2022-06-21T09:39:11Z</time>
      </trkpt>
      <trkpt lat="43.41757" lon="2.65487">
        <ele>777.5</ele>
        <time>2022-06-21T09:39:12Z</time>
      </trkpt>
      <trkpt lat="43.41756" lon="2.65486">
        <ele>777.5</ele>
        <time>2022-06-21T09:39:13Z</time>
      </trkpt>
      <trkpt lat="43.41756" lon="2.65485">
        <ele>777.5</ele>
        <time>2022-06-21T09:39:14Z</time>
      </trkpt>
      <trkpt lat="43.41756" lon="2.65485">
        <ele>777.5</ele>
        <time>2022-06-21T09:39:15Z</time>
      </trkpt>
      <trkpt lat="43.41756" lon="2.65484">
        <ele>777.5</ele>
        <time>2022-06-21T09:39:16Z</time>
      </trkpt>
      <trkpt lat="43.41755" lon="2.65483">
        <ele>777.5</ele>
        <time>2022-06-21T09:39:17Z</time>
      </trkpt>
      <trkpt lat="43.41755" lon="2.65483">
        <ele>777.5</ele>
        <time>2022-06-21T09:39:18Z</time>
      </trkpt>
      <trkpt lat="43.41755" lon="2.65483">
        <ele>777.5</ele>
        <time>2022-06-21T09:39:19Z</time>
      </trkpt>
      <trkpt lat="43.41755" lon="2.65483">
        <ele>777.5</ele>
        <time>2022-06-21T09:39:20Z</time>
      </trkpt>
      <trkpt lat="43.41755" lon="2.65483">
        <ele>777.5</ele>
        <time>2022-06-21T09:39:21Z</time>
      </trkpt>
      <trkpt lat="43.41755" lon="2.65483">
        <ele>777.5</ele>
        <time>2022-06-21T09:39:22Z</time>
      </trkpt>
      <trkpt lat="43.41755" lon="2.65483">
        <ele>777.5</ele>
        <time>2022-06-21T09:39:23Z</time>
      </trkpt>
      <trkpt lat="43.41755" lon="2.65483">
        <ele>777.5</ele>
        <time>2022-06-21T09:39:24Z</time>
      </trkpt>
      <trkpt lat="43.41755" lon="2.65483">
        <ele>777.5</ele>
        <time>2022-06-21T09:39:25Z</time>
      </trkpt>
      <trkpt lat="43.41755" lon="2.65483">
        <ele>777.5</ele>
        <time>2022-06-21T09:39:26Z</time>
      </trkpt>
      <trkpt lat="43.41755" lon="2.65483">
        <ele>777.4</ele>
        <time>2022-06-21T09:39:27Z</time>
      </trkpt>
      <trkpt lat="43.41755" lon="2.65483">
        <ele>778</ele>
        <time>2022-06-21T09:39:28Z</time>
      </trkpt>
      <trkpt lat="43.41754" lon="2.65483">
        <ele>778</ele>
        <time>2022-06-21T09:39:29Z</time>
      </trkpt>
      <trkpt lat="43.41753" lon="2.65483">
        <ele>778.1</ele>
        <time>2022-06-21T09:39:30Z</time>
      </trkpt>
      <trkpt lat="43.41752" lon="2.65484">
        <ele>778.1</ele>
        <time>2022-06-21T09:39:31Z</time>
      </trkpt>
      <trkpt lat="43.41752" lon="2.65484">
        <ele>778.1</ele>
        <time>2022-06-21T09:39:32Z</time>
      </trkpt>
      <trkpt lat="43.41751" lon="2.65484">
        <ele>778.6</ele>
        <time>2022-06-21T09:39:33Z</time>
      </trkpt>
      <trkpt lat="43.4175" lon="2.65484">
        <ele>778.6</ele>
        <time>2022-06-21T09:39:34Z</time>
      </trkpt>
      <trkpt lat="43.41749" lon="2.65485">
        <ele>778.6</ele>
        <time>2022-06-21T09:39:35Z</time>
      </trkpt>
      <trkpt lat="43.41748" lon="2.65485">
        <ele>779</ele>
        <time>2022-06-21T09:39:36Z</time>
      </trkpt>
      <trkpt lat="43.41747" lon="2.65485">
        <ele>779</ele>
        <time>2022-06-21T09:39:37Z</time>
      </trkpt>
      <trkpt lat="43.41746" lon="2.65486">
        <ele>779</ele>
        <time>2022-06-21T09:39:38Z</time>
      </trkpt>
      <trkpt lat="43.41745" lon="2.65486">
        <ele>779.3</ele>
        <time>2022-06-21T09:39:39Z</time>
      </trkpt>
      <trkpt lat="43.41744" lon="2.65487">
        <ele>779.3</ele>
        <time>2022-06-21T09:39:40Z</time>
      </trkpt>
      <trkpt lat="43.41743" lon="2.65487">
        <ele>779.3</ele>
        <time>2022-06-21T09:39:41Z</time>
      </trkpt>
      <trkpt lat="43.41742" lon="2.65487">
        <ele>779.4</ele>
        <time>2022-06-21T09:39:42Z</time>
      </trkpt>
      <trkpt lat="43.41741" lon="2.65488">
        <ele>779.4</ele>
        <time>2022-06-21T09:39:43Z</time>
      </trkpt>
      <trkpt lat="43.41741" lon="2.65488">
        <ele>779.4</ele>
        <time>2022-06-21T09:39:44Z</time>
      </trkpt>
      <trkpt lat="43.41741" lon="2.65488">
        <ele>779.4</ele>
        <time>2022-06-21T09:39:45Z</time>
      </trkpt>
      <trkpt lat="43.41741" lon="2.65488">
        <ele>779.4</ele>
        <time>2022-06-21T09:39:46Z</time>
      </trkpt>
      <trkpt lat="43.41741" lon="2.65488">
        <ele>779.4</ele>
        <time>2022-06-21T09:39:47Z</time>
      </trkpt>
      <trkpt lat="43.41741" lon="2.65488">
        <ele>779.4</ele>
        <time>2022-06-21T09:39:48Z</time>
      </trkpt>
      <trkpt lat="43.41741" lon="2.65488">
        <ele>779.4</ele>
        <time>2022-06-21T09:39:49Z</time>
      </trkpt>
      <trkpt lat="43.41741" lon="2.65488">
        <ele>779.4</ele>
        <time>2022-06-21T09:39:50Z</time>
      </trkpt>
      <trkpt lat="43.41741" lon="2.65488">
        <ele>779.4</ele>
        <time>2022-06-21T09:39:51Z</time>
      </trkpt>
      <trkpt lat="43.41741" lon="2.65488">
        <ele>779.4</ele>
        <time>2022-06-21T09:39:52Z</time>
      </trkpt>
      <trkpt lat="43.41741" lon="2.65488">
        <ele>779.4</ele>
        <time>2022-06-21T09:39:53Z</time>
      </trkpt>
      <trkpt lat="43.41741" lon="2.65488">
        <ele>779.4</ele>
        <time>2022-06-21T09:39:54Z</time>
      </trkpt>
      <trkpt lat="43.4174" lon="2.65488">
        <ele>779.4</ele>
        <time>2022-06-21T09:39:55Z</time>
      </trkpt>
      <trkpt lat="43.41739" lon="2.65488">
        <ele>779.4</ele>
        <time>2022-06-21T09:39:56Z</time>
      </trkpt>
      <trkpt lat="43.41738" lon="2.65488">
        <ele>779.4</ele>
        <time>2022-06-21T09:39:57Z</time>
      </trkpt>
      <trkpt lat="43.41738" lon="2.65488">
        <ele>779.4</ele>
        <time>2022-06-21T09:39:58Z</time>
      </trkpt>
      <trkpt lat="43.41737" lon="2.65488">
        <ele>779.4</ele>
        <time>2022-06-21T09:39:59Z</time>
      </trkpt>
      <trkpt lat="43.41736" lon="2.65488">
        <ele>779.4</ele>
        <time>2022-06-21T09:40:00Z</time>
      </trkpt>
      <trkpt lat="43.41736" lon="2.65488">
        <ele>779.4</ele>
        <time>2022-06-21T09:40:01Z</time>
      </trkpt>
      <trkpt lat="43.41735" lon="2.65487">
        <ele>779.4</ele>
        <time>2022-06-21T09:40:02Z</time>
      </trkpt>
      <trkpt lat="43.41735" lon="2.65487">
        <ele>779.5</ele>
        <time>2022-06-21T09:40:03Z</time>
      </trkpt>
      <trkpt lat="43.41734" lon="2.65487">
        <ele>779.5</ele>
        <time>2022-06-21T09:40:04Z</time>
      </trkpt>
      <trkpt lat="43.41734" lon="2.65487">
        <ele>779.5</ele>
        <time>2022-06-21T09:40:05Z</time>
      </trkpt>
      <trkpt lat="43.41734" lon="2.65487">
        <ele>779.5</ele>
        <time>2022-06-21T09:40:06Z</time>
      </trkpt>
      <trkpt lat="43.41734" lon="2.65487">
        <ele>779.5</ele>
        <time>2022-06-21T09:40:07Z</time>
      </trkpt>
      <trkpt lat="43.41734" lon="2.65487">
        <ele>779.5</ele>
        <time>2022-06-21T09:40:08Z</time>
      </trkpt>
      <trkpt lat="43.41734" lon="2.65487">
        <ele>779.5</ele>
        <time>2022-06-21T09:40:09Z</time>
      </trkpt>
      <trkpt lat="43.41733" lon="2.65486">
        <ele>779.5</ele>
        <time>2022-06-21T09:40:10Z</time>
      </trkpt>
      <trkpt lat="43.41733" lon="2.65486">
        <ele>779.3</ele>
        <time>2022-06-21T09:40:11Z</time>
      </trkpt>
      <trkpt lat="43.41732" lon="2.65486">
        <ele>779.3</ele>
        <time>2022-06-21T09:40:12Z</time>
      </trkpt>
      <trkpt lat="43.41732" lon="2.65485">
        <ele>779.3</ele>
        <time>2022-06-21T09:40:13Z</time>
      </trkpt>
      <trkpt lat="43.41731" lon="2.65485">
        <ele>779.3</ele>
        <time>2022-06-21T09:40:14Z</time>
      </trkpt>
      <trkpt lat="43.4173" lon="2.65484">
        <ele>779.3</ele>
        <time>2022-06-21T09:40:15Z</time>
      </trkpt>
      <trkpt lat="43.41729" lon="2.65484">
        <ele>779</ele>
        <time>2022-06-21T09:40:16Z</time>
      </trkpt>
      <trkpt lat="43.41728" lon="2.65484">
        <ele>779</ele>
        <time>2022-06-21T09:40:17Z</time>
      </trkpt>
      <trkpt lat="43.41727" lon="2.65483">
        <ele>778.7</ele>
        <time>2022-06-21T09:40:18Z</time>
      </trkpt>
      <trkpt lat="43.41726" lon="2.65483">
        <ele>778.7</ele>
        <time>2022-06-21T09:40:19Z</time>
      </trkpt>
      <trkpt lat="43.41726" lon="2.65483">
        <ele>778.7</ele>
        <time>2022-06-21T09:40:20Z</time>
      </trkpt>
      <trkpt lat="43.41725" lon="2.65483">
        <ele>778.7</ele>
        <time>2022-06-21T09:40:21Z</time>
      </trkpt>
      <trkpt lat="43.41725" lon="2.65482">
        <ele>778.7</ele>
        <time>2022-06-21T09:40:22Z</time>
      </trkpt>
      <trkpt lat="43.41724" lon="2.65481">
        <ele>778.7</ele>
        <time>2022-06-21T09:40:23Z</time>
      </trkpt>
      <trkpt lat="43.41724" lon="2.6548">
        <ele>778.3</ele>
        <time>2022-06-21T09:40:24Z</time>
      </trkpt>
      <trkpt lat="43.41724" lon="2.65479">
        <ele>778.3</ele>
        <time>2022-06-21T09:40:25Z</time>
      </trkpt>
      <trkpt lat="43.41723" lon="2.65479">
        <ele>778.3</ele>
        <time>2022-06-21T09:40:26Z</time>
      </trkpt>
      <trkpt lat="43.41722" lon="2.65478">
        <ele>778.3</ele>
        <time>2022-06-21T09:40:27Z</time>
      </trkpt>
      <trkpt lat="43.41722" lon="2.65477">
        <ele>778.3</ele>
        <time>2022-06-21T09:40:28Z</time>
      </trkpt>
      <trkpt lat="43.41722" lon="2.65476">
        <ele>778.3</ele>
        <time>2022-06-21T09:40:29Z</time>
      </trkpt>
      <trkpt lat="43.41722" lon="2.65475">
        <ele>778.3</ele>
        <time>2022-06-21T09:40:30Z</time>
      </trkpt>
      <trkpt lat="43.41722" lon="2.65474">
        <ele>778.2</ele>
        <time>2022-06-21T09:40:31Z</time>
      </trkpt>
      <trkpt lat="43.41722" lon="2.65474">
        <ele>778.2</ele>
        <time>2022-06-21T09:40:32Z</time>
      </trkpt>
      <trkpt lat="43.41721" lon="2.65473">
        <ele>778.2</ele>
        <time>2022-06-21T09:40:33Z</time>
      </trkpt>
      <trkpt lat="43.41721" lon="2.65473">
        <ele>778.2</ele>
        <time>2022-06-21T09:40:34Z</time>
      </trkpt>
      <trkpt lat="43.4172" lon="2.65472">
        <ele>777.7</ele>
        <time>2022-06-21T09:40:35Z</time>
      </trkpt>
      <trkpt lat="43.4172" lon="2.65472">
        <ele>777.7</ele>
        <time>2022-06-21T09:40:36Z</time>
      </trkpt>
      <trkpt lat="43.4172" lon="2.65471">
        <ele>777.7</ele>
        <time>2022-06-21T09:40:37Z</time>
      </trkpt>
      <trkpt lat="43.4172" lon="2.65471">
        <ele>777.7</ele>
        <time>2022-06-21T09:40:38Z</time>
      </trkpt>
      <trkpt lat="43.4172" lon="2.65471">
        <ele>777.7</ele>
        <time>2022-06-21T09:40:39Z</time>
      </trkpt>
      <trkpt lat="43.4172" lon="2.65471">
        <ele>777.7</ele>
        <time>2022-06-21T09:40:40Z</time>
      </trkpt>
      <trkpt lat="43.4172" lon="2.65471">
        <ele>777.7</ele>
        <time>2022-06-21T09:40:41Z</time>
      </trkpt>
      <trkpt lat="43.4172" lon="2.65471">
        <ele>777.7</ele>
        <time>2022-06-21T09:40:42Z</time>
      </trkpt>
      <trkpt lat="43.4172" lon="2.6547">
        <ele>777.6</ele>
        <time>2022-06-21T09:40:43Z</time>
      </trkpt>
      <trkpt lat="43.4172" lon="2.65468">
        <ele>777.6</ele>
        <time>2022-06-21T09:40:44Z</time>
      </trkpt>
      <trkpt lat="43.4172" lon="2.65467">
        <ele>777.6</ele>
        <time>2022-06-21T09:40:45Z</time>
      </trkpt>
      <trkpt lat="43.41719" lon="2.65466">
        <ele>777.6</ele>
        <time>2022-06-21T09:40:46Z</time>
      </trkpt>
      <trkpt lat="43.41719" lon="2.65465">
        <ele>777.7</ele>
        <time>2022-06-21T09:40:47Z</time>
      </trkpt>
      <trkpt lat="43.41719" lon="2.65464">
        <ele>777.7</ele>
        <time>2022-06-21T09:40:48Z</time>
      </trkpt>
      <trkpt lat="43.4172" lon="2.65463">
        <ele>777.7</ele>
        <time>2022-06-21T09:40:49Z</time>
      </trkpt>
      <trkpt lat="43.4172" lon="2.65462">
        <ele>777.7</ele>
        <time>2022-06-21T09:40:50Z</time>
      </trkpt>
      <trkpt lat="43.4172" lon="2.65461">
        <ele>777.7</ele>
        <time>2022-06-21T09:40:51Z</time>
      </trkpt>
      <trkpt lat="43.4172" lon="2.65461">
        <ele>777.7</ele>
        <time>2022-06-21T09:40:52Z</time>
      </trkpt>
      <trkpt lat="43.41721" lon="2.6546">
        <ele>778.3</ele>
        <time>2022-06-21T09:40:53Z</time>
      </trkpt>
      <trkpt lat="43.41721" lon="2.6546">
        <ele>778.3</ele>
        <time>2022-06-21T09:40:54Z</time>
      </trkpt>
      <trkpt lat="43.41721" lon="2.6546">
        <ele>778.3</ele>
        <time>2022-06-21T09:40:55Z</time>
      </trkpt>
      <trkpt lat="43.41721" lon="2.6546">
        <ele>778.3</ele>
        <time>2022-06-21T09:40:56Z</time>
      </trkpt>
      <trkpt lat="43.41721" lon="2.6546">
        <ele>778.3</ele>
        <time>2022-06-21T09:40:57Z</time>
      </trkpt>
      <trkpt lat="43.41721" lon="2.6546">
        <ele>778.3</ele>
        <time>2022-06-21T09:40:58Z</time>
      </trkpt>
      <trkpt lat="43.41722" lon="2.6546">
        <ele>778.3</ele>
        <time>2022-06-21T09:40:59Z</time>
      </trkpt>
      <trkpt lat="43.41722" lon="2.6546">
        <ele>778.3</ele>
        <time>2022-06-21T09:41:00Z</time>
      </trkpt>
      <trkpt lat="43.41722" lon="2.6546">
        <ele>778.3</ele>
        <time>2022-06-21T09:41:01Z</time>
      </trkpt>
      <trkpt lat="43.41723" lon="2.6546">
        <ele>778.3</ele>
        <time>2022-06-21T09:41:02Z</time>
      </trkpt>
      <trkpt lat="43.41723" lon="2.6546">
        <ele>778.3</ele>
        <time>2022-06-21T09:41:03Z</time>
      </trkpt>
      <trkpt lat="43.41723" lon="2.6546">
        <ele>778.3</ele>
        <time>2022-06-21T09:41:04Z</time>
      </trkpt>
      <trkpt lat="43.41723" lon="2.6546">
        <ele>778.3</ele>
        <time>2022-06-21T09:41:05Z</time>
      </trkpt>
      <trkpt lat="43.41723" lon="2.6546">
        <ele>778.3</ele>
        <time>2022-06-21T09:41:06Z</time>
      </trkpt>
      <trkpt lat="43.41723" lon="2.6546">
        <ele>778.3</ele>
        <time>2022-06-21T09:41:07Z</time>
      </trkpt>
      <trkpt lat="43.41723" lon="2.6546">
        <ele>778.3</ele>
        <time>2022-06-21T09:41:08Z</time>
      </trkpt>
      <trkpt lat="43.41723" lon="2.6546">
        <ele>778.3</ele>
        <time>2022-06-21T09:41:09Z</time>
      </trkpt>
      <trkpt lat="43.41723" lon="2.6546">
        <ele>778.3</ele>
        <time>2022-06-21T09:41:10Z</time>
      </trkpt>
      <trkpt lat="43.41723" lon="2.6546">
        <ele>778.3</ele>
        <time>2022-06-21T09:41:11Z</time>
      </trkpt>
      <trkpt lat="43.41723" lon="2.6546">
        <ele>778.3</ele>
        <time>2022-06-21T09:41:12Z</time>
      </trkpt>
      <trkpt lat="43.41723" lon="2.6546">
        <ele>778.3</ele>
        <time>2022-06-21T09:41:13Z</time>
      </trkpt>
      <trkpt lat="43.41723" lon="2.65459">
        <ele>778.3</ele>
        <time>2022-06-21T09:41:14Z</time>
      </trkpt>
      <trkpt lat="43.41723" lon="2.65459">
        <ele>778.3</ele>
        <time>2022-06-21T09:41:15Z</time>
      </trkpt>
      <trkpt lat="43.41723" lon="2.65458">
        <ele>778.3</ele>
        <time>2022-06-21T09:41:16Z</time>
      </trkpt>
      <trkpt lat="43.41723" lon="2.65457">
        <ele>778.3</ele>
        <time>2022-06-21T09:41:17Z</time>
      </trkpt>
      <trkpt lat="43.41723" lon="2.65456">
        <ele>778.3</ele>
        <time>2022-06-21T09:41:18Z</time>
      </trkpt>
      <trkpt lat="43.41723" lon="2.65456">
        <ele>778.3</ele>
        <time>2022-06-21T09:41:19Z</time>
      </trkpt>
      <trkpt lat="43.41723" lon="2.65456">
        <ele>778.3</ele>
        <time>2022-06-21T09:41:20Z</time>
      </trkpt>
      <trkpt lat="43.41723" lon="2.65456">
        <ele>778.3</ele>
        <time>2022-06-21T09:41:21Z</time>
      </trkpt>
      <trkpt lat="43.41723" lon="2.65456">
        <ele>778.3</ele>
        <time>2022-06-21T09:41:22Z</time>
      </trkpt>
      <trkpt lat="43.41723" lon="2.65456">
        <ele>778.3</ele>
        <time>2022-06-21T09:41:23Z</time>
      </trkpt>
      <trkpt lat="43.41723" lon="2.65456">
        <ele>778.3</ele>
        <time>2022-06-21T09:41:24Z</time>
      </trkpt>
      <trkpt lat="43.41723" lon="2.65456">
        <ele>778.3</ele>
        <time>2022-06-21T09:41:25Z</time>
      </trkpt>
      <trkpt lat="43.41723" lon="2.65456">
        <ele>778.3</ele>
        <time>2022-06-21T09:41:26Z</time>
      </trkpt>
      <trkpt lat="43.41723" lon="2.65456">
        <ele>778.3</ele>
        <time>2022-06-21T09:41:27Z</time>
      </trkpt>
      <trkpt lat="43.41723" lon="2.65456">
        <ele>778.3</ele>
        <time>2022-06-21T09:41:28Z</time>
      </trkpt>
      <trkpt lat="43.41723" lon="2.65456">
        <ele>778.3</ele>
        <time>2022-06-21T09:41:29Z</time>
      </trkpt>
      <trkpt lat="43.41723" lon="2.65456">
        <ele>778.3</ele>
        <time>2022-06-21T09:41:30Z</time>
      </trkpt>
      <trkpt lat="43.41723" lon="2.65456">
        <ele>778.3</ele>
        <time>2022-06-21T09:41:31Z</time>
      </trkpt>
      <trkpt lat="43.41723" lon="2.65456">
        <ele>778.3</ele>
        <time>2022-06-21T09:41:32Z</time>
      </trkpt>
      <trkpt lat="43.41723" lon="2.65456">
        <ele>778.3</ele>
        <time>2022-06-21T09:41:33Z</time>
      </trkpt>
      <trkpt lat="43.41723" lon="2.65456">
        <ele>778.3</ele>
        <time>2022-06-21T09:41:34Z</time>
      </trkpt>
      <trkpt lat="43.41723" lon="2.65456">
        <ele>778.3</ele>
        <time>2022-06-21T09:41:35Z</time>
      </trkpt>
      <trkpt lat="43.41723" lon="2.65456">
        <ele>778.3</ele>
        <time>2022-06-21T09:41:36Z</time>
      </trkpt>
      <trkpt lat="43.41723" lon="2.65456">
        <ele>778.3</ele>
        <time>2022-06-21T09:41:37Z</time>
      </trkpt>
      <trkpt lat="43.41723" lon="2.65456">
        <ele>778.3</ele>
        <time>2022-06-21T09:41:38Z</time>
      </trkpt>
      <trkpt lat="43.41723" lon="2.65456">
        <ele>778.3</ele>
        <time>2022-06-21T09:41:39Z</time>
      </trkpt>
      <trkpt lat="43.41723" lon="2.65456">
        <ele>778.3</ele>
        <time>2022-06-21T09:41:40Z</time>
      </trkpt>
      <trkpt lat="43.41723" lon="2.65456">
        <ele>778.3</ele>
        <time>2022-06-21T09:41:41Z</time>
      </trkpt>
      <trkpt lat="43.41723" lon="2.65456">
        <ele>778.3</ele>
        <time>2022-06-21T09:41:42Z</time>
      </trkpt>
      <trkpt lat="43.41723" lon="2.65456">
        <ele>778.3</ele>
        <time>2022-06-21T09:41:43Z</time>
      </trkpt>
      <trkpt lat="43.41723" lon="2.65457">
        <ele>778.3</ele>
        <time>2022-06-21T09:41:44Z</time>
      </trkpt>
      <trkpt lat="43.41722" lon="2.65457">
        <ele>778.3</ele>
        <time>2022-06-21T09:41:45Z</time>
      </trkpt>
      <trkpt lat="43.41722" lon="2.65457">
        <ele>778.3</ele>
        <time>2022-06-21T09:41:46Z</time>
      </trkpt>
      <trkpt lat="43.41722" lon="2.65457">
        <ele>778.3</ele>
        <time>2022-06-21T09:41:47Z</time>
      </trkpt>
      <trkpt lat="43.41722" lon="2.65457">
        <ele>778.3</ele>
        <time>2022-06-21T09:41:48Z</time>
      </trkpt>
      <trkpt lat="43.41722" lon="2.65457">
        <ele>778.3</ele>
        <time>2022-06-21T09:41:49Z</time>
      </trkpt>
      <trkpt lat="43.41721" lon="2.65457">
        <ele>778.3</ele>
        <time>2022-06-21T09:41:50Z</time>
      </trkpt>
      <trkpt lat="43.41721" lon="2.65457">
        <ele>778.3</ele>
        <time>2022-06-21T09:41:51Z</time>
      </trkpt>
      <trkpt lat="43.41721" lon="2.65457">
        <ele>778.3</ele>
        <time>2022-06-21T09:41:52Z</time>
      </trkpt>
      <trkpt lat="43.41721" lon="2.65457">
        <ele>778.3</ele>
        <time>2022-06-21T09:41:53Z</time>
      </trkpt>
      <trkpt lat="43.41721" lon="2.65457">
        <ele>778.3</ele>
        <time>2022-06-21T09:41:54Z</time>
      </trkpt>
      <trkpt lat="43.41721" lon="2.65457">
        <ele>778.3</ele>
        <time>2022-06-21T09:41:55Z</time>
      </trkpt>
      <trkpt lat="43.41721" lon="2.65457">
        <ele>778.3</ele>
        <time>2022-06-21T09:41:56Z</time>
      </trkpt>
      <trkpt lat="43.41721" lon="2.65457">
        <ele>778.3</ele>
        <time>2022-06-21T09:41:57Z</time>
      </trkpt>
      <trkpt lat="43.41721" lon="2.65457">
        <ele>778.3</ele>
        <time>2022-06-21T09:41:58Z</time>
      </trkpt>
      <trkpt lat="43.41721" lon="2.65457">
        <ele>778.3</ele>
        <time>2022-06-21T09:41:59Z</time>
      </trkpt>
      <trkpt lat="43.41721" lon="2.65457">
        <ele>778.3</ele>
        <time>2022-06-21T09:42:00Z</time>
      </trkpt>
      <trkpt lat="43.41721" lon="2.65457">
        <ele>778.3</ele>
        <time>2022-06-21T09:42:01Z</time>
      </trkpt>
      <trkpt lat="43.41721" lon="2.65457">
        <ele>778.3</ele>
        <time>2022-06-21T09:42:02Z</time>
      </trkpt>
      <trkpt lat="43.41721" lon="2.65457">
        <ele>778.3</ele>
        <time>2022-06-21T09:42:03Z</time>
      </trkpt>
      <trkpt lat="43.41722" lon="2.65457">
        <ele>778.3</ele>
        <time>2022-06-21T09:42:04Z</time>
      </trkpt>
      <trkpt lat="43.41722" lon="2.65457">
        <ele>778.3</ele>
        <time>2022-06-21T09:42:05Z</time>
      </trkpt>
      <trkpt lat="43.41722" lon="2.65456">
        <ele>778.3</ele>
        <time>2022-06-21T09:42:06Z</time>
      </trkpt>
      <trkpt lat="43.41722" lon="2.65456">
        <ele>778.3</ele>
        <time>2022-06-21T09:42:07Z</time>
      </trkpt>
      <trkpt lat="43.41722" lon="2.65456">
        <ele>778.3</ele>
        <time>2022-06-21T09:42:08Z</time>
      </trkpt>
      <trkpt lat="43.41722" lon="2.65456">
        <ele>778.3</ele>
        <time>2022-06-21T09:42:09Z</time>
      </trkpt>
      <trkpt lat="43.41722" lon="2.65456">
        <ele>778.3</ele>
        <time>2022-06-21T09:42:10Z</time>
      </trkpt>
      <trkpt lat="43.41722" lon="2.65456">
        <ele>778.3</ele>
        <time>2022-06-21T09:42:11Z</time>
      </trkpt>
      <trkpt lat="43.41722" lon="2.65456">
        <ele>778.3</ele>
        <time>2022-06-21T09:42:12Z</time>
      </trkpt>
      <trkpt lat="43.41722" lon="2.65456">
        <ele>778.3</ele>
        <time>2022-06-21T09:42:13Z</time>
      </trkpt>
      <trkpt lat="43.41722" lon="2.65456">
        <ele>778.3</ele>
        <time>2022-06-21T09:42:14Z</time>
      </trkpt>
      <trkpt lat="43.41722" lon="2.65456">
        <ele>778.3</ele>
        <time>2022-06-21T09:42:15Z</time>
      </trkpt>
      <trkpt lat="43.41722" lon="2.65456">
        <ele>778.3</ele>
        <time>2022-06-21T09:42:16Z</time>
      </trkpt>
      <trkpt lat="43.41722" lon="2.65456">
        <ele>778.3</ele>
        <time>2022-06-21T09:42:17Z</time>
      </trkpt>
      <trkpt lat="43.41722" lon="2.65456">
        <ele>778.3</ele>
        <time>2022-06-21T09:42:18Z</time>
      </trkpt>
      <trkpt lat="43.41722" lon="2.65456">
        <ele>778.3</ele>
        <time>2022-06-21T09:42:19Z</time>
      </trkpt>
      <trkpt lat="43.41722" lon="2.65456">
        <ele>778.3</ele>
        <time>2022-06-21T09:42:20Z</time>
      </trkpt>
      <trkpt lat="43.41722" lon="2.65456">
        <ele>778.3</ele>
        <time>2022-06-21T09:42:21Z</time>
      </trkpt>
      <trkpt lat="43.41722" lon="2.65456">
        <ele>778.3</ele>
        <time>2022-06-21T09:42:22Z</time>
      </trkpt>
      <trkpt lat="43.41722" lon="2.65456">
        <ele>778.3</ele>
        <time>2022-06-21T09:42:23Z</time>
      </trkpt>
      <trkpt lat="43.41722" lon="2.65456">
        <ele>778.3</ele>
        <time>2022-06-21T09:42:24Z</time>
      </trkpt>
      <trkpt lat="43.41722" lon="2.65456">
        <ele>778.3</ele>
        <time>2022-06-21T09:42:25Z</time>
      </trkpt>
      <trkpt lat="43.41722" lon="2.65456">
        <ele>778.3</ele>
        <time>2022-06-21T09:42:26Z</time>
      </trkpt>
      <trkpt lat="43.41722" lon="2.65456">
        <ele>778.3</ele>
        <time>2022-06-21T09:42:27Z</time>
      </trkpt>
      <trkpt lat="43.41722" lon="2.65456">
        <ele>778.3</ele>
        <time>2022-06-21T09:42:28Z</time>
      </trkpt>
      <trkpt lat="43.41722" lon="2.65456">
        <ele>778.3</ele>
        <time>2022-06-21T09:42:29Z</time>
      </trkpt>
      <trkpt lat="43.41722" lon="2.65456">
        <ele>778.3</ele>
        <time>2022-06-21T09:42:30Z</time>
      </trkpt>
      <trkpt lat="43.41722" lon="2.65456">
        <ele>778.3</ele>
        <time>2022-06-21T09:42:31Z</time>
      </trkpt>
      <trkpt lat="43.41722" lon="2.65455">
        <ele>778.3</ele>
        <time>2022-06-21T09:42:32Z</time>
      </trkpt>
      <trkpt lat="43.41722" lon="2.65452">
        <ele>778.3</ele>
        <time>2022-06-21T09:42:33Z</time>
      </trkpt>
      <trkpt lat="43.41721" lon="2.65451">
        <ele>778.3</ele>
        <time>2022-06-21T09:42:34Z</time>
      </trkpt>
      <trkpt lat="43.41721" lon="2.6545">
        <ele>778.3</ele>
        <time>2022-06-21T09:42:35Z</time>
      </trkpt>
      <trkpt lat="43.4172" lon="2.65448">
        <ele>777.9</ele>
        <time>2022-06-21T09:42:36Z</time>
      </trkpt>
      <trkpt lat="43.4172" lon="2.65446">
        <ele>777.9</ele>
        <time>2022-06-21T09:42:37Z</time>
      </trkpt>
      <trkpt lat="43.41719" lon="2.65444">
        <ele>778</ele>
        <time>2022-06-21T09:42:38Z</time>
      </trkpt>
      <trkpt lat="43.41719" lon="2.65443">
        <ele>778</ele>
        <time>2022-06-21T09:42:39Z</time>
      </trkpt>
      <trkpt lat="43.41719" lon="2.65442">
        <ele>778</ele>
        <time>2022-06-21T09:42:40Z</time>
      </trkpt>
      <trkpt lat="43.41718" lon="2.6544">
        <ele>778</ele>
        <time>2022-06-21T09:42:41Z</time>
      </trkpt>
      <trkpt lat="43.41718" lon="2.65439">
        <ele>777.9</ele>
        <time>2022-06-21T09:42:42Z</time>
      </trkpt>
      <trkpt lat="43.41717" lon="2.65438">
        <ele>777.7</ele>
        <time>2022-06-21T09:42:43Z</time>
      </trkpt>
      <trkpt lat="43.41716" lon="2.65437">
        <ele>777.7</ele>
        <time>2022-06-21T09:42:44Z</time>
      </trkpt>
      <trkpt lat="43.41716" lon="2.65436">
        <ele>777.7</ele>
        <time>2022-06-21T09:42:45Z</time>
      </trkpt>
      <trkpt lat="43.41716" lon="2.65435">
        <ele>777.6</ele>
        <time>2022-06-21T09:42:46Z</time>
      </trkpt>
      <trkpt lat="43.41716" lon="2.65434">
        <ele>777.6</ele>
        <time>2022-06-21T09:42:47Z</time>
      </trkpt>
      <trkpt lat="43.41715" lon="2.65433">
        <ele>777.6</ele>
        <time>2022-06-21T09:42:48Z</time>
      </trkpt>
      <trkpt lat="43.41715" lon="2.65432">
        <ele>777.6</ele>
        <time>2022-06-21T09:42:49Z</time>
      </trkpt>
      <trkpt lat="43.41715" lon="2.65432">
        <ele>777.6</ele>
        <time>2022-06-21T09:42:50Z</time>
      </trkpt>
      <trkpt lat="43.41715" lon="2.65431">
        <ele>777.5</ele>
        <time>2022-06-21T09:42:51Z</time>
      </trkpt>
      <trkpt lat="43.41715" lon="2.6543">
        <ele>777.5</ele>
        <time>2022-06-21T09:42:52Z</time>
      </trkpt>
      <trkpt lat="43.41715" lon="2.6543">
        <ele>777.5</ele>
        <time>2022-06-21T09:42:53Z</time>
      </trkpt>
      <trkpt lat="43.41715" lon="2.65429">
        <ele>777.5</ele>
        <time>2022-06-21T09:42:54Z</time>
      </trkpt>
      <trkpt lat="43.41715" lon="2.65428">
        <ele>777.5</ele>
        <time>2022-06-21T09:42:55Z</time>
      </trkpt>
      <trkpt lat="43.41715" lon="2.65427">
        <ele>777.2</ele>
        <time>2022-06-21T09:42:56Z</time>
      </trkpt>
      <trkpt lat="43.41715" lon="2.65426">
        <ele>777.2</ele>
        <time>2022-06-21T09:42:57Z</time>
      </trkpt>
      <trkpt lat="43.41715" lon="2.65426">
        <ele>777.2</ele>
        <time>2022-06-21T09:42:58Z</time>
      </trkpt>
      <trkpt lat="43.41715" lon="2.65426">
        <ele>777.2</ele>
        <time>2022-06-21T09:42:59Z</time>
      </trkpt>
      <trkpt lat="43.41715" lon="2.65426">
        <ele>777.2</ele>
        <time>2022-06-21T09:43:00Z</time>
      </trkpt>
      <trkpt lat="43.41715" lon="2.65426">
        <ele>777.2</ele>
        <time>2022-06-21T09:43:01Z</time>
      </trkpt>
      <trkpt lat="43.41715" lon="2.65426">
        <ele>777.2</ele>
        <time>2022-06-21T09:43:02Z</time>
      </trkpt>
      <trkpt lat="43.41715" lon="2.65426">
        <ele>777.2</ele>
        <time>2022-06-21T09:43:03Z</time>
      </trkpt>
      <trkpt lat="43.41715" lon="2.65426">
        <ele>777.2</ele>
        <time>2022-06-21T09:43:04Z</time>
      </trkpt>
      <trkpt lat="43.41716" lon="2.65426">
        <ele>777.2</ele>
        <time>2022-06-21T09:43:05Z</time>
      </trkpt>
      <trkpt lat="43.41717" lon="2.65426">
        <ele>777.2</ele>
        <time>2022-06-21T09:43:06Z</time>
      </trkpt>
      <trkpt lat="43.41717" lon="2.65427">
        <ele>777.2</ele>
        <time>2022-06-21T09:43:07Z</time>
      </trkpt>
      <trkpt lat="43.41718" lon="2.65427">
        <ele>777.2</ele>
        <time>2022-06-21T09:43:08Z</time>
      </trkpt>
      <trkpt lat="43.41718" lon="2.65427">
        <ele>777.2</ele>
        <time>2022-06-21T09:43:09Z</time>
      </trkpt>
      <trkpt lat="43.41718" lon="2.65427">
        <ele>777.2</ele>
        <time>2022-06-21T09:43:10Z</time>
      </trkpt>
      <trkpt lat="43.41718" lon="2.65427">
        <ele>777.2</ele>
        <time>2022-06-21T09:43:11Z</time>
      </trkpt>
      <trkpt lat="43.41718" lon="2.65427">
        <ele>777.2</ele>
        <time>2022-06-21T09:43:12Z</time>
      </trkpt>
      <trkpt lat="43.41718" lon="2.65427">
        <ele>777.2</ele>
        <time>2022-06-21T09:43:13Z</time>
      </trkpt>
      <trkpt lat="43.41718" lon="2.65427">
        <ele>777.2</ele>
        <time>2022-06-21T09:43:14Z</time>
      </trkpt>
      <trkpt lat="43.41718" lon="2.65427">
        <ele>777.2</ele>
        <time>2022-06-21T09:43:15Z</time>
      </trkpt>
      <trkpt lat="43.41718" lon="2.65427">
        <ele>777.2</ele>
        <time>2022-06-21T09:43:16Z</time>
      </trkpt>
      <trkpt lat="43.41718" lon="2.65427">
        <ele>777.2</ele>
        <time>2022-06-21T09:43:17Z</time>
      </trkpt>
      <trkpt lat="43.41718" lon="2.65427">
        <ele>777.2</ele>
        <time>2022-06-21T09:43:18Z</time>
      </trkpt>
      <trkpt lat="43.41718" lon="2.65427">
        <ele>777.2</ele>
        <time>2022-06-21T09:43:19Z</time>
      </trkpt>
      <trkpt lat="43.41718" lon="2.65427">
        <ele>777.2</ele>
        <time>2022-06-21T09:43:20Z</time>
      </trkpt>
      <trkpt lat="43.41718" lon="2.65427">
        <ele>777.2</ele>
        <time>2022-06-21T09:43:21Z</time>
      </trkpt>
      <trkpt lat="43.41718" lon="2.65427">
        <ele>777.2</ele>
        <time>2022-06-21T09:43:22Z</time>
      </trkpt>
      <trkpt lat="43.41718" lon="2.65427">
        <ele>777.2</ele>
        <time>2022-06-21T09:43:23Z</time>
      </trkpt>
      <trkpt lat="43.41718" lon="2.65427">
        <ele>777.2</ele>
        <time>2022-06-21T09:43:24Z</time>
      </trkpt>
      <trkpt lat="43.41718" lon="2.65427">
        <ele>777.2</ele>
        <time>2022-06-21T09:43:25Z</time>
      </trkpt>
      <trkpt lat="43.41718" lon="2.65427">
        <ele>777.2</ele>
        <time>2022-06-21T09:43:26Z</time>
      </trkpt>
      <trkpt lat="43.41718" lon="2.65427">
        <ele>777.2</ele>
        <time>2022-06-21T09:43:27Z</time>
      </trkpt>
      <trkpt lat="43.41718" lon="2.65427">
        <ele>777.2</ele>
        <time>2022-06-21T09:43:28Z</time>
      </trkpt>
      <trkpt lat="43.41718" lon="2.65427">
        <ele>777.2</ele>
        <time>2022-06-21T09:43:29Z</time>
      </trkpt>
      <trkpt lat="43.41718" lon="2.65427">
        <ele>777.2</ele>
        <time>2022-06-21T09:43:30Z</time>
      </trkpt>
      <trkpt lat="43.41718" lon="2.65427">
        <ele>777.2</ele>
        <time>2022-06-21T09:43:31Z</time>
      </trkpt>
      <trkpt lat="43.41718" lon="2.65427">
        <ele>777.2</ele>
        <time>2022-06-21T09:43:32Z</time>
      </trkpt>
      <trkpt lat="43.41718" lon="2.65427">
        <ele>777.2</ele>
        <time>2022-06-21T09:43:33Z</time>
      </trkpt>
      <trkpt lat="43.41718" lon="2.65427">
        <ele>777.2</ele>
        <time>2022-06-21T09:43:34Z</time>
      </trkpt>
      <trkpt lat="43.41718" lon="2.65427">
        <ele>777.2</ele>
        <time>2022-06-21T09:43:35Z</time>
      </trkpt>
      <trkpt lat="43.41718" lon="2.65427">
        <ele>777.2</ele>
        <time>2022-06-21T09:43:36Z</time>
      </trkpt>
      <trkpt lat="43.41718" lon="2.65427">
        <ele>777.2</ele>
        <time>2022-06-21T09:43:37Z</time>
      </trkpt>
      <trkpt lat="43.41718" lon="2.65427">
        <ele>777.2</ele>
        <time>2022-06-21T09:43:38Z</time>
      </trkpt>
      <trkpt lat="43.41718" lon="2.65427">
        <ele>777.2</ele>
        <time>2022-06-21T09:43:39Z</time>
      </trkpt>
      <trkpt lat="43.41718" lon="2.65427">
        <ele>777.2</ele>
        <time>2022-06-21T09:43:40Z</time>
      </trkpt>
      <trkpt lat="43.41718" lon="2.65427">
        <ele>777.2</ele>
        <time>2022-06-21T09:43:41Z</time>
      </trkpt>
      <trkpt lat="43.41718" lon="2.65427">
        <ele>777.2</ele>
        <time>2022-06-21T09:43:42Z</time>
      </trkpt>
      <trkpt lat="43.41718" lon="2.65427">
        <ele>777.2</ele>
        <time>2022-06-21T09:43:43Z</time>
      </trkpt>
      <trkpt lat="43.41718" lon="2.65427">
        <ele>777.2</ele>
        <time>2022-06-21T09:43:44Z</time>
      </trkpt>
      <trkpt lat="43.41718" lon="2.65427">
        <ele>777.2</ele>
        <time>2022-06-21T09:43:45Z</time>
      </trkpt>
      <trkpt lat="43.41718" lon="2.65427">
        <ele>777.2</ele>
        <time>2022-06-21T09:43:46Z</time>
      </trkpt>
      <trkpt lat="43.41718" lon="2.65427">
        <ele>777.2</ele>
        <time>2022-06-21T09:43:47Z</time>
      </trkpt>
      <trkpt lat="43.41718" lon="2.65427">
        <ele>777.2</ele>
        <time>2022-06-21T09:43:48Z</time>
      </trkpt>
      <trkpt lat="43.41718" lon="2.65427">
        <ele>777.2</ele>
        <time>2022-06-21T09:43:49Z</time>
      </trkpt>
      <trkpt lat="43.41718" lon="2.65427">
        <ele>777.2</ele>
        <time>2022-06-21T09:43:50Z</time>
      </trkpt>
      <trkpt lat="43.41718" lon="2.65427">
        <ele>777.2</ele>
        <time>2022-06-21T09:43:51Z</time>
      </trkpt>
      <trkpt lat="43.41718" lon="2.65427">
        <ele>777.2</ele>
        <time>2022-06-21T09:43:52Z</time>
      </trkpt>
      <trkpt lat="43.41718" lon="2.65427">
        <ele>777.2</ele>
        <time>2022-06-21T09:43:53Z</time>
      </trkpt>
      <trkpt lat="43.41718" lon="2.65427">
        <ele>777.2</ele>
        <time>2022-06-21T09:43:54Z</time>
      </trkpt>
      <trkpt lat="43.41718" lon="2.65427">
        <ele>777.2</ele>
        <time>2022-06-21T09:43:55Z</time>
      </trkpt>
      <trkpt lat="43.41718" lon="2.65427">
        <ele>777.2</ele>
        <time>2022-06-21T09:43:56Z</time>
      </trkpt>
      <trkpt lat="43.41718" lon="2.65427">
        <ele>777.2</ele>
        <time>2022-06-21T09:43:57Z</time>
      </trkpt>
      <trkpt lat="43.41718" lon="2.65427">
        <ele>777.2</ele>
        <time>2022-06-21T09:43:58Z</time>
      </trkpt>
      <trkpt lat="43.41718" lon="2.65427">
        <ele>777.2</ele>
        <time>2022-06-21T09:43:59Z</time>
      </trkpt>
      <trkpt lat="43.41718" lon="2.65427">
        <ele>777.2</ele>
        <time>2022-06-21T09:44:00Z</time>
      </trkpt>
      <trkpt lat="43.41718" lon="2.65427">
        <ele>777.2</ele>
        <time>2022-06-21T09:44:01Z</time>
      </trkpt>
      <trkpt lat="43.41718" lon="2.65427">
        <ele>777.2</ele>
        <time>2022-06-21T09:44:02Z</time>
      </trkpt>
      <trkpt lat="43.41718" lon="2.65427">
        <ele>777.2</ele>
        <time>2022-06-21T09:44:03Z</time>
      </trkpt>
      <trkpt lat="43.41718" lon="2.65427">
        <ele>777.2</ele>
        <time>2022-06-21T09:44:04Z</time>
      </trkpt>
      <trkpt lat="43.41718" lon="2.65427">
        <ele>777.2</ele>
        <time>2022-06-21T09:44:05Z</time>
      </trkpt>
      <trkpt lat="43.41718" lon="2.65427">
        <ele>777.2</ele>
        <time>2022-06-21T09:44:06Z</time>
      </trkpt>
      <trkpt lat="43.41718" lon="2.65427">
        <ele>777.2</ele>
        <time>2022-06-21T09:44:07Z</time>
      </trkpt>
      <trkpt lat="43.41718" lon="2.65427">
        <ele>777.2</ele>
        <time>2022-06-21T09:44:08Z</time>
      </trkpt>
      <trkpt lat="43.41718" lon="2.65427">
        <ele>777.2</ele>
        <time>2022-06-21T09:44:09Z</time>
      </trkpt>
      <trkpt lat="43.41718" lon="2.65427">
        <ele>777.2</ele>
        <time>2022-06-21T09:44:10Z</time>
      </trkpt>
      <trkpt lat="43.41718" lon="2.65427">
        <ele>777.2</ele>
        <time>2022-06-21T09:44:11Z</time>
      </trkpt>
      <trkpt lat="43.41718" lon="2.65427">
        <ele>777.2</ele>
        <time>2022-06-21T09:44:12Z</time>
      </trkpt>
      <trkpt lat="43.41718" lon="2.65427">
        <ele>777.2</ele>
        <time>2022-06-21T09:44:13Z</time>
      </trkpt>
      <trkpt lat="43.41718" lon="2.65427">
        <ele>777.2</ele>
        <time>2022-06-21T09:44:14Z</time>
      </trkpt>
      <trkpt lat="43.41718" lon="2.65427">
        <ele>777.2</ele>
        <time>2022-06-21T09:44:15Z</time>
      </trkpt>
      <trkpt lat="43.41718" lon="2.65427">
        <ele>777.2</ele>
        <time>2022-06-21T09:44:16Z</time>
      </trkpt>
      <trkpt lat="43.41718" lon="2.65427">
        <ele>777.2</ele>
        <time>2022-06-21T09:44:17Z</time>
      </trkpt>
      <trkpt lat="43.41718" lon="2.65427">
        <ele>777.2</ele>
        <time>2022-06-21T09:44:18Z</time>
      </trkpt>
      <trkpt lat="43.41718" lon="2.65427">
        <ele>777.2</ele>
        <time>2022-06-21T09:44:19Z</time>
      </trkpt>
      <trkpt lat="43.41718" lon="2.65427">
        <ele>777.2</ele>
        <time>2022-06-21T09:44:20Z</time>
      </trkpt>
      <trkpt lat="43.41718" lon="2.65427">
        <ele>777.2</ele>
        <time>2022-06-21T09:44:21Z</time>
      </trkpt>
      <trkpt lat="43.41718" lon="2.65427">
        <ele>777.2</ele>
        <time>2022-06-21T09:44:22Z</time>
      </trkpt>
      <trkpt lat="43.41718" lon="2.65427">
        <ele>777.2</ele>
        <time>2022-06-21T09:44:23Z</time>
      </trkpt>
      <trkpt lat="43.41718" lon="2.65427">
        <ele>777.2</ele>
        <time>2022-06-21T09:44:24Z</time>
      </trkpt>
      <trkpt lat="43.41718" lon="2.65427">
        <ele>777.2</ele>
        <time>2022-06-21T09:44:25Z</time>
      </trkpt>
      <trkpt lat="43.41718" lon="2.65427">
        <ele>777.2</ele>
        <time>2022-06-21T09:44:26Z</time>
      </trkpt>
      <trkpt lat="43.41718" lon="2.65427">
        <ele>777.2</ele>
        <time>2022-06-21T09:44:27Z</time>
      </trkpt>
      <trkpt lat="43.41718" lon="2.65427">
        <ele>777.2</ele>
        <time>2022-06-21T09:44:28Z</time>
      </trkpt>
      <trkpt lat="43.41718" lon="2.65427">
        <ele>777.2</ele>
        <time>2022-06-21T09:44:29Z</time>
      </trkpt>
      <trkpt lat="43.41718" lon="2.65427">
        <ele>777.2</ele>
        <time>2022-06-21T09:44:30Z</time>
      </trkpt>
      <trkpt lat="43.41718" lon="2.65427">
        <ele>777.2</ele>
        <time>2022-06-21T09:44:31Z</time>
      </trkpt>
      <trkpt lat="43.41718" lon="2.65427">
        <ele>777.2</ele>
        <time>2022-06-21T09:44:32Z</time>
      </trkpt>
      <trkpt lat="43.41718" lon="2.65427">
        <ele>777.2</ele>
        <time>2022-06-21T09:44:33Z</time>
      </trkpt>
      <trkpt lat="43.41718" lon="2.65427">
        <ele>777.2</ele>
        <time>2022-06-21T09:44:34Z</time>
      </trkpt>
      <trkpt lat="43.41718" lon="2.65427">
        <ele>777.2</ele>
        <time>2022-06-21T09:44:35Z</time>
      </trkpt>
      <trkpt lat="43.41718" lon="2.65427">
        <ele>777.2</ele>
        <time>2022-06-21T09:44:36Z</time>
      </trkpt>
      <trkpt lat="43.41718" lon="2.65427">
        <ele>777.2</ele>
        <time>2022-06-21T09:44:37Z</time>
      </trkpt>
      <trkpt lat="43.41718" lon="2.65427">
        <ele>777.2</ele>
        <time>2022-06-21T09:44:38Z</time>
      </trkpt>
      <trkpt lat="43.41718" lon="2.65427">
        <ele>777.2</ele>
        <time>2022-06-21T09:44:39Z</time>
      </trkpt>
      <trkpt lat="43.41718" lon="2.65427">
        <ele>777.2</ele>
        <time>2022-06-21T09:44:40Z</time>
      </trkpt>
      <trkpt lat="43.41718" lon="2.65427">
        <ele>777.2</ele>
        <time>2022-06-21T09:44:41Z</time>
      </trkpt>
      <trkpt lat="43.41718" lon="2.65427">
        <ele>777.2</ele>
        <time>2022-06-21T09:44:42Z</time>
      </trkpt>
      <trkpt lat="43.41718" lon="2.65427">
        <ele>777.2</ele>
        <time>2022-06-21T09:44:43Z</time>
      </trkpt>
      <trkpt lat="43.41718" lon="2.65427">
        <ele>777.2</ele>
        <time>2022-06-21T09:44:44Z</time>
      </trkpt>
      <trkpt lat="43.41718" lon="2.65427">
        <ele>777.2</ele>
        <time>2022-06-21T09:44:45Z</time>
      </trkpt>
      <trkpt lat="43.41718" lon="2.65427">
        <ele>777.2</ele>
        <time>2022-06-21T09:44:46Z</time>
      </trkpt>
      <trkpt lat="43.41718" lon="2.65427">
        <ele>777.2</ele>
        <time>2022-06-21T09:44:47Z</time>
      </trkpt>
      <trkpt lat="43.41718" lon="2.65427">
        <ele>777.2</ele>
        <time>2022-06-21T09:44:48Z</time>
      </trkpt>
      <trkpt lat="43.41718" lon="2.65427">
        <ele>777.2</ele>
        <time>2022-06-21T09:44:49Z</time>
      </trkpt>
      <trkpt lat="43.41718" lon="2.65427">
        <ele>777.2</ele>
        <time>2022-06-21T09:44:50Z</time>
      </trkpt>
      <trkpt lat="43.41718" lon="2.65427">
        <ele>777.2</ele>
        <time>2022-06-21T09:44:51Z</time>
      </trkpt>
      <trkpt lat="43.41718" lon="2.65427">
        <ele>777.2</ele>
        <time>2022-06-21T09:44:52Z</time>
      </trkpt>
      <trkpt lat="43.41718" lon="2.65427">
        <ele>777.2</ele>
        <time>2022-06-21T09:44:53Z</time>
      </trkpt>
      <trkpt lat="43.41718" lon="2.65427">
        <ele>777.2</ele>
        <time>2022-06-21T09:44:54Z</time>
      </trkpt>
      <trkpt lat="43.41718" lon="2.65427">
        <ele>777.2</ele>
        <time>2022-06-21T09:44:55Z</time>
      </trkpt>
      <trkpt lat="43.41718" lon="2.65427">
        <ele>777.2</ele>
        <time>2022-06-21T09:44:56Z</time>
      </trkpt>
      <trkpt lat="43.41718" lon="2.65427">
        <ele>777.2</ele>
        <time>2022-06-21T09:44:57Z</time>
      </trkpt>
      <trkpt lat="43.41718" lon="2.65427">
        <ele>777.2</ele>
        <time>2022-06-21T09:44:58Z</time>
      </trkpt>
      <trkpt lat="43.41718" lon="2.65427">
        <ele>777.2</ele>
        <time>2022-06-21T09:44:59Z</time>
      </trkpt>
      <trkpt lat="43.41718" lon="2.65427">
        <ele>777.2</ele>
        <time>2022-06-21T09:45:00Z</time>
      </trkpt>
      <trkpt lat="43.41718" lon="2.65427">
        <ele>777.2</ele>
        <time>2022-06-21T09:45:01Z</time>
      </trkpt>
      <trkpt lat="43.41718" lon="2.65427">
        <ele>777.2</ele>
        <time>2022-06-21T09:45:02Z</time>
      </trkpt>
      <trkpt lat="43.41718" lon="2.65427">
        <ele>777.2</ele>
        <time>2022-06-21T09:45:03Z</time>
      </trkpt>
      <trkpt lat="43.41718" lon="2.65427">
        <ele>777.2</ele>
        <time>2022-06-21T09:45:04Z</time>
      </trkpt>
      <trkpt lat="43.41718" lon="2.65427">
        <ele>777.2</ele>
        <time>2022-06-21T09:45:05Z</time>
      </trkpt>
      <trkpt lat="43.41718" lon="2.65427">
        <ele>777.2</ele>
        <time>2022-06-21T09:45:06Z</time>
      </trkpt>
      <trkpt lat="43.41718" lon="2.65427">
        <ele>777.2</ele>
        <time>2022-06-21T09:45:07Z</time>
      </trkpt>
      <trkpt lat="43.41718" lon="2.65427">
        <ele>777.2</ele>
        <time>2022-06-21T09:45:08Z</time>
      </trkpt>
      <trkpt lat="43.41718" lon="2.65427">
        <ele>777.2</ele>
        <time>2022-06-21T09:45:09Z</time>
      </trkpt>
      <trkpt lat="43.41718" lon="2.65427">
        <ele>777.2</ele>
        <time>2022-06-21T09:45:10Z</time>
      </trkpt>
      <trkpt lat="43.41718" lon="2.65427">
        <ele>777.2</ele>
        <time>2022-06-21T09:45:11Z</time>
      </trkpt>
      <trkpt lat="43.41718" lon="2.65427">
        <ele>777.2</ele>
        <time>2022-06-21T09:45:12Z</time>
      </trkpt>
      <trkpt lat="43.41718" lon="2.65427">
        <ele>777.2</ele>
        <time>2022-06-21T09:45:13Z</time>
      </trkpt>
      <trkpt lat="43.41718" lon="2.65427">
        <ele>777.2</ele>
        <time>2022-06-21T09:45:14Z</time>
      </trkpt>
      <trkpt lat="43.41718" lon="2.65427">
        <ele>777.2</ele>
        <time>2022-06-21T09:45:15Z</time>
      </trkpt>
      <trkpt lat="43.41718" lon="2.65427">
        <ele>777.2</ele>
        <time>2022-06-21T09:45:16Z</time>
      </trkpt>
      <trkpt lat="43.41718" lon="2.65427">
        <ele>777.2</ele>
        <time>2022-06-21T09:45:17Z</time>
      </trkpt>
      <trkpt lat="43.41718" lon="2.65427">
        <ele>777.2</ele>
        <time>2022-06-21T09:45:18Z</time>
      </trkpt>
      <trkpt lat="43.41718" lon="2.65427">
        <ele>777.2</ele>
        <time>2022-06-21T09:45:19Z</time>
      </trkpt>
      <trkpt lat="43.41718" lon="2.65427">
        <ele>777.2</ele>
        <time>2022-06-21T09:45:20Z</time>
      </trkpt>
      <trkpt lat="43.41718" lon="2.65427">
        <ele>777.2</ele>
        <time>2022-06-21T09:45:21Z</time>
      </trkpt>
      <trkpt lat="43.41718" lon="2.65427">
        <ele>777.2</ele>
        <time>2022-06-21T09:45:22Z</time>
      </trkpt>
      <trkpt lat="43.41718" lon="2.65427">
        <ele>777.2</ele>
        <time>2022-06-21T09:45:23Z</time>
      </trkpt>
      <trkpt lat="43.41718" lon="2.65427">
        <ele>777.2</ele>
        <time>2022-06-21T09:45:24Z</time>
      </trkpt>
      <trkpt lat="43.41718" lon="2.65427">
        <ele>777.2</ele>
        <time>2022-06-21T09:45:25Z</time>
      </trkpt>
      <trkpt lat="43.41718" lon="2.65427">
        <ele>777.2</ele>
        <time>2022-06-21T09:45:26Z</time>
      </trkpt>
      <trkpt lat="43.41718" lon="2.65427">
        <ele>777.2</ele>
        <time>2022-06-21T09:45:27Z</time>
      </trkpt>
      <trkpt lat="43.41718" lon="2.65427">
        <ele>777.2</ele>
        <time>2022-06-21T09:45:28Z</time>
      </trkpt>
      <trkpt lat="43.41718" lon="2.65427">
        <ele>777.2</ele>
        <time>2022-06-21T09:45:29Z</time>
      </trkpt>
      <trkpt lat="43.41718" lon="2.65427">
        <ele>777.2</ele>
        <time>2022-06-21T09:45:30Z</time>
      </trkpt>
      <trkpt lat="43.41718" lon="2.65428">
        <ele>777.6</ele>
        <time>2022-06-21T09:45:31Z</time>
      </trkpt>
      <trkpt lat="43.41717" lon="2.65428">
        <ele>777.5</ele>
        <time>2022-06-21T09:45:32Z</time>
      </trkpt>
      <trkpt lat="43.41717" lon="2.65428">
        <ele>777.5</ele>
        <time>2022-06-21T09:45:33Z</time>
      </trkpt>
      <trkpt lat="43.41717" lon="2.65429">
        <ele>777.5</ele>
        <time>2022-06-21T09:45:34Z</time>
      </trkpt>
      <trkpt lat="43.41717" lon="2.65429">
        <ele>777.5</ele>
        <time>2022-06-21T09:45:35Z</time>
      </trkpt>
      <trkpt lat="43.41717" lon="2.65429">
        <ele>777.5</ele>
        <time>2022-06-21T09:45:36Z</time>
      </trkpt>
      <trkpt lat="43.41718" lon="2.6543">
        <ele>777.6</ele>
        <time>2022-06-21T09:45:37Z</time>
      </trkpt>
      <trkpt lat="43.41718" lon="2.65431">
        <ele>777.6</ele>
        <time>2022-06-21T09:45:38Z</time>
      </trkpt>
      <trkpt lat="43.41718" lon="2.65432">
        <ele>777.8</ele>
        <time>2022-06-21T09:45:39Z</time>
      </trkpt>
      <trkpt lat="43.41718" lon="2.65434">
        <ele>777.8</ele>
        <time>2022-06-21T09:45:40Z</time>
      </trkpt>
      <trkpt lat="43.41718" lon="2.65436">
        <ele>777.8</ele>
        <time>2022-06-21T09:45:41Z</time>
      </trkpt>
      <trkpt lat="43.41718" lon="2.65436">
        <ele>777.9</ele>
        <time>2022-06-21T09:45:42Z</time>
      </trkpt>
      <trkpt lat="43.41718" lon="2.65436">
        <ele>777.9</ele>
        <time>2022-06-21T09:45:43Z</time>
      </trkpt>
      <trkpt lat="43.41717" lon="2.65436">
        <ele>777.7</ele>
        <time>2022-06-21T09:45:44Z</time>
      </trkpt>
      <trkpt lat="43.41717" lon="2.65436">
        <ele>777.7</ele>
        <time>2022-06-21T09:45:45Z</time>
      </trkpt>
      <trkpt lat="43.41717" lon="2.65436">
        <ele>777.7</ele>
        <time>2022-06-21T09:45:46Z</time>
      </trkpt>
      <trkpt lat="43.41717" lon="2.65437">
        <ele>777.7</ele>
        <time>2022-06-21T09:45:47Z</time>
      </trkpt>
      <trkpt lat="43.41718" lon="2.65437">
        <ele>777.8</ele>
        <time>2022-06-21T09:45:48Z</time>
      </trkpt>
      <trkpt lat="43.41718" lon="2.65438">
        <ele>777.7</ele>
        <time>2022-06-21T09:45:49Z</time>
      </trkpt>
      <trkpt lat="43.41718" lon="2.65439">
        <ele>777.7</ele>
        <time>2022-06-21T09:45:50Z</time>
      </trkpt>
      <trkpt lat="43.41718" lon="2.65439">
        <ele>777.6</ele>
        <time>2022-06-21T09:45:51Z</time>
      </trkpt>
      <trkpt lat="43.41719" lon="2.6544">
        <ele>777.5</ele>
        <time>2022-06-21T09:45:52Z</time>
      </trkpt>
      <trkpt lat="43.41719" lon="2.6544">
        <ele>777.5</ele>
        <time>2022-06-21T09:45:53Z</time>
      </trkpt>
      <trkpt lat="43.4172" lon="2.65441">
        <ele>777.4</ele>
        <time>2022-06-21T09:45:54Z</time>
      </trkpt>
      <trkpt lat="43.41721" lon="2.65441">
        <ele>777.3</ele>
        <time>2022-06-21T09:45:55Z</time>
      </trkpt>
      <trkpt lat="43.41721" lon="2.65442">
        <ele>777.5</ele>
        <time>2022-06-21T09:45:56Z</time>
      </trkpt>
      <trkpt lat="43.41721" lon="2.65442">
        <ele>777.5</ele>
        <time>2022-06-21T09:45:57Z</time>
      </trkpt>
      <trkpt lat="43.41722" lon="2.65443">
        <ele>777.4</ele>
        <time>2022-06-21T09:45:58Z</time>
      </trkpt>
      <trkpt lat="43.41722" lon="2.65444">
        <ele>777.3</ele>
        <time>2022-06-21T09:45:59Z</time>
      </trkpt>
      <trkpt lat="43.41723" lon="2.65444">
        <ele>777.2</ele>
        <time>2022-06-21T09:46:00Z</time>
      </trkpt>
      <trkpt lat="43.41723" lon="2.65444">
        <ele>777.1</ele>
        <time>2022-06-21T09:46:01Z</time>
      </trkpt>
      <trkpt lat="43.41724" lon="2.65444">
        <ele>777.4</ele>
        <time>2022-06-21T09:46:02Z</time>
      </trkpt>
      <trkpt lat="43.41724" lon="2.65444">
        <ele>777.2</ele>
        <time>2022-06-21T09:46:03Z</time>
      </trkpt>
      <trkpt lat="43.41725" lon="2.65443">
        <ele>777.1</ele>
        <time>2022-06-21T09:46:04Z</time>
      </trkpt>
      <trkpt lat="43.41725" lon="2.65443">
        <ele>777</ele>
        <time>2022-06-21T09:46:05Z</time>
      </trkpt>
      <trkpt lat="43.41725" lon="2.65443">
        <ele>776.9</ele>
        <time>2022-06-21T09:46:06Z</time>
      </trkpt>
      <trkpt lat="43.41725" lon="2.65443">
        <ele>776.8</ele>
        <time>2022-06-21T09:46:07Z</time>
      </trkpt>
      <trkpt lat="43.41725" lon="2.65443">
        <ele>776.7</ele>
        <time>2022-06-21T09:46:08Z</time>
      </trkpt>
      <trkpt lat="43.41725" lon="2.65443">
        <ele>776.7</ele>
        <time>2022-06-21T09:46:09Z</time>
      </trkpt>
      <trkpt lat="43.41725" lon="2.65443">
        <ele>776.6</ele>
        <time>2022-06-21T09:46:10Z</time>
      </trkpt>
      <trkpt lat="43.41725" lon="2.65443">
        <ele>776.5</ele>
        <time>2022-06-21T09:46:11Z</time>
      </trkpt>
      <trkpt lat="43.41725" lon="2.65443">
        <ele>776.4</ele>
        <time>2022-06-21T09:46:12Z</time>
      </trkpt>
      <trkpt lat="43.41725" lon="2.65443">
        <ele>776.3</ele>
        <time>2022-06-21T09:46:13Z</time>
      </trkpt>
      <trkpt lat="43.41725" lon="2.65443">
        <ele>776.2</ele>
        <time>2022-06-21T09:46:14Z</time>
      </trkpt>
      <trkpt lat="43.41726" lon="2.65443">
        <ele>776.1</ele>
        <time>2022-06-21T09:46:15Z</time>
      </trkpt>
      <trkpt lat="43.41727" lon="2.65443">
        <ele>776.2</ele>
        <time>2022-06-21T09:46:16Z</time>
      </trkpt>
      <trkpt lat="43.41728" lon="2.65444">
        <ele>776.1</ele>
        <time>2022-06-21T09:46:17Z</time>
      </trkpt>
      <trkpt lat="43.41729" lon="2.65445">
        <ele>776.2</ele>
        <time>2022-06-21T09:46:18Z</time>
      </trkpt>
      <trkpt lat="43.4173" lon="2.65445">
        <ele>776.2</ele>
        <time>2022-06-21T09:46:19Z</time>
      </trkpt>
      <trkpt lat="43.41731" lon="2.65445">
        <ele>776.2</ele>
        <time>2022-06-21T09:46:20Z</time>
      </trkpt>
      <trkpt lat="43.41732" lon="2.65445">
        <ele>776.1</ele>
        <time>2022-06-21T09:46:21Z</time>
      </trkpt>
      <trkpt lat="43.41733" lon="2.65444">
        <ele>775.6</ele>
        <time>2022-06-21T09:46:22Z</time>
      </trkpt>
      <trkpt lat="43.41734" lon="2.65444">
        <ele>775.5</ele>
        <time>2022-06-21T09:46:23Z</time>
      </trkpt>
      <trkpt lat="43.41735" lon="2.65444">
        <ele>775.4</ele>
        <time>2022-06-21T09:46:24Z</time>
      </trkpt>
      <trkpt lat="43.41736" lon="2.65443">
        <ele>775.3</ele>
        <time>2022-06-21T09:46:25Z</time>
      </trkpt>
      <trkpt lat="43.41736" lon="2.65443">
        <ele>775.3</ele>
        <time>2022-06-21T09:46:26Z</time>
      </trkpt>
      <trkpt lat="43.41736" lon="2.65443">
        <ele>775.2</ele>
        <time>2022-06-21T09:46:27Z</time>
      </trkpt>
      <trkpt lat="43.41736" lon="2.65443">
        <ele>775</ele>
        <time>2022-06-21T09:46:28Z</time>
      </trkpt>
      <trkpt lat="43.41737" lon="2.65443">
        <ele>774.9</ele>
        <time>2022-06-21T09:46:29Z</time>
      </trkpt>
      <trkpt lat="43.41738" lon="2.65443">
        <ele>774.8</ele>
        <time>2022-06-21T09:46:30Z</time>
      </trkpt>
      <trkpt lat="43.41739" lon="2.65443">
        <ele>774.7</ele>
        <time>2022-06-21T09:46:31Z</time>
      </trkpt>
      <trkpt lat="43.41739" lon="2.65443">
        <ele>774.6</ele>
        <time>2022-06-21T09:46:32Z</time>
      </trkpt>
      <trkpt lat="43.41739" lon="2.65443">
        <ele>774.5</ele>
        <time>2022-06-21T09:46:33Z</time>
      </trkpt>
      <trkpt lat="43.4174" lon="2.65443">
        <ele>774.2</ele>
        <time>2022-06-21T09:46:34Z</time>
      </trkpt>
      <trkpt lat="43.4174" lon="2.65443">
        <ele>774.1</ele>
        <time>2022-06-21T09:46:35Z</time>
      </trkpt>
      <trkpt lat="43.41741" lon="2.65443">
        <ele>774</ele>
        <time>2022-06-21T09:46:36Z</time>
      </trkpt>
      <trkpt lat="43.41742" lon="2.65443">
        <ele>774</ele>
        <time>2022-06-21T09:46:37Z</time>
      </trkpt>
      <trkpt lat="43.41743" lon="2.65443">
        <ele>773.4</ele>
        <time>2022-06-21T09:46:38Z</time>
      </trkpt>
      <trkpt lat="43.41743" lon="2.65443">
        <ele>773.3</ele>
        <time>2022-06-21T09:46:39Z</time>
      </trkpt>
      <trkpt lat="43.41744" lon="2.65443">
        <ele>773.2</ele>
        <time>2022-06-21T09:46:40Z</time>
      </trkpt>
      <trkpt lat="43.41744" lon="2.65443">
        <ele>773.2</ele>
        <time>2022-06-21T09:46:41Z</time>
      </trkpt>
      <trkpt lat="43.41745" lon="2.65443">
        <ele>773.1</ele>
        <time>2022-06-21T09:46:42Z</time>
      </trkpt>
      <trkpt lat="43.41746" lon="2.65444">
        <ele>772.4</ele>
        <time>2022-06-21T09:46:43Z</time>
      </trkpt>
      <trkpt lat="43.41747" lon="2.65444">
        <ele>772.3</ele>
        <time>2022-06-21T09:46:44Z</time>
      </trkpt>
      <trkpt lat="43.41747" lon="2.65444">
        <ele>772.2</ele>
        <time>2022-06-21T09:46:45Z</time>
      </trkpt>
      <trkpt lat="43.41748" lon="2.65444">
        <ele>772.7</ele>
        <time>2022-06-21T09:46:46Z</time>
      </trkpt>
      <trkpt lat="43.41749" lon="2.65445">
        <ele>771.9</ele>
        <time>2022-06-21T09:46:47Z</time>
      </trkpt>
      <trkpt lat="43.4175" lon="2.65445">
        <ele>771.8</ele>
        <time>2022-06-21T09:46:48Z</time>
      </trkpt>
      <trkpt lat="43.41751" lon="2.65445">
        <ele>771.7</ele>
        <time>2022-06-21T09:46:49Z</time>
      </trkpt>
      <trkpt lat="43.41752" lon="2.65445">
        <ele>770.8</ele>
        <time>2022-06-21T09:46:50Z</time>
      </trkpt>
      <trkpt lat="43.41753" lon="2.65446">
        <ele>770.7</ele>
        <time>2022-06-21T09:46:51Z</time>
      </trkpt>
      <trkpt lat="43.41753" lon="2.65446">
        <ele>770.6</ele>
        <time>2022-06-21T09:46:52Z</time>
      </trkpt>
      <trkpt lat="43.41754" lon="2.65447">
        <ele>770.5</ele>
        <time>2022-06-21T09:46:53Z</time>
      </trkpt>
      <trkpt lat="43.41755" lon="2.65448">
        <ele>769.5</ele>
        <time>2022-06-21T09:46:54Z</time>
      </trkpt>
      <trkpt lat="43.41756" lon="2.65449">
        <ele>770</ele>
        <time>2022-06-21T09:46:55Z</time>
      </trkpt>
      <trkpt lat="43.41756" lon="2.65449">
        <ele>769.9</ele>
        <time>2022-06-21T09:46:56Z</time>
      </trkpt>
      <trkpt lat="43.41757" lon="2.6545">
        <ele>769.8</ele>
        <time>2022-06-21T09:46:57Z</time>
      </trkpt>
      <trkpt lat="43.41757" lon="2.6545">
        <ele>769.7</ele>
        <time>2022-06-21T09:46:58Z</time>
      </trkpt>
      <trkpt lat="43.41757" lon="2.65451">
        <ele>769.6</ele>
        <time>2022-06-21T09:46:59Z</time>
      </trkpt>
      <trkpt lat="43.41757" lon="2.65452">
        <ele>769.5</ele>
        <time>2022-06-21T09:47:00Z</time>
      </trkpt>
      <trkpt lat="43.41758" lon="2.65452">
        <ele>769.5</ele>
        <time>2022-06-21T09:47:01Z</time>
      </trkpt>
      <trkpt lat="43.41758" lon="2.65453">
        <ele>769.4</ele>
        <time>2022-06-21T09:47:02Z</time>
      </trkpt>
      <trkpt lat="43.41758" lon="2.65453">
        <ele>769.7</ele>
        <time>2022-06-21T09:47:03Z</time>
      </trkpt>
      <trkpt lat="43.41758" lon="2.65454">
        <ele>768.7</ele>
        <time>2022-06-21T09:47:04Z</time>
      </trkpt>
      <trkpt lat="43.41759" lon="2.65456">
        <ele>768.6</ele>
        <time>2022-06-21T09:47:05Z</time>
      </trkpt>
      <trkpt lat="43.41759" lon="2.65457">
        <ele>768.9</ele>
        <time>2022-06-21T09:47:06Z</time>
      </trkpt>
      <trkpt lat="43.41759" lon="2.65458">
        <ele>768.9</ele>
        <time>2022-06-21T09:47:07Z</time>
      </trkpt>
      <trkpt lat="43.4176" lon="2.65458">
        <ele>768.8</ele>
        <time>2022-06-21T09:47:08Z</time>
      </trkpt>
      <trkpt lat="43.4176" lon="2.65459">
        <ele>768.7</ele>
        <time>2022-06-21T09:47:09Z</time>
      </trkpt>
      <trkpt lat="43.4176" lon="2.65459">
        <ele>768.6</ele>
        <time>2022-06-21T09:47:10Z</time>
      </trkpt>
      <trkpt lat="43.4176" lon="2.6546">
        <ele>768.5</ele>
        <time>2022-06-21T09:47:11Z</time>
      </trkpt>
      <trkpt lat="43.41761" lon="2.65462">
        <ele>768.8</ele>
        <time>2022-06-21T09:47:12Z</time>
      </trkpt>
      <trkpt lat="43.41761" lon="2.65463">
        <ele>767.9</ele>
        <time>2022-06-21T09:47:13Z</time>
      </trkpt>
      <trkpt lat="43.41762" lon="2.65464">
        <ele>767.8</ele>
        <time>2022-06-21T09:47:14Z</time>
      </trkpt>
      <trkpt lat="43.41762" lon="2.65465">
        <ele>767.7</ele>
        <time>2022-06-21T09:47:15Z</time>
      </trkpt>
      <trkpt lat="43.41763" lon="2.65467">
        <ele>767.9</ele>
        <time>2022-06-21T09:47:16Z</time>
      </trkpt>
      <trkpt lat="43.41763" lon="2.65468">
        <ele>767.8</ele>
        <time>2022-06-21T09:47:17Z</time>
      </trkpt>
      <trkpt lat="43.41763" lon="2.6547">
        <ele>767.7</ele>
        <time>2022-06-21T09:47:18Z</time>
      </trkpt>
      <trkpt lat="43.41763" lon="2.65472">
        <ele>768</ele>
        <time>2022-06-21T09:47:19Z</time>
      </trkpt>
      <trkpt lat="43.41763" lon="2.65473">
        <ele>767.9</ele>
        <time>2022-06-21T09:47:20Z</time>
      </trkpt>
      <trkpt lat="43.41763" lon="2.65474">
        <ele>767.8</ele>
        <time>2022-06-21T09:47:21Z</time>
      </trkpt>
      <trkpt lat="43.41763" lon="2.65475">
        <ele>767.9</ele>
        <time>2022-06-21T09:47:22Z</time>
      </trkpt>
      <trkpt lat="43.41764" lon="2.65476">
        <ele>767.8</ele>
        <time>2022-06-21T09:47:23Z</time>
      </trkpt>
      <trkpt lat="43.41764" lon="2.65477">
        <ele>767.8</ele>
        <time>2022-06-21T09:47:24Z</time>
      </trkpt>
      <trkpt lat="43.41764" lon="2.65478">
        <ele>767.7</ele>
        <time>2022-06-21T09:47:25Z</time>
      </trkpt>
      <trkpt lat="43.41764" lon="2.6548">
        <ele>767.1</ele>
        <time>2022-06-21T09:47:26Z</time>
      </trkpt>
      <trkpt lat="43.41765" lon="2.65481">
        <ele>767</ele>
        <time>2022-06-21T09:47:27Z</time>
      </trkpt>
      <trkpt lat="43.41765" lon="2.65482">
        <ele>767</ele>
        <time>2022-06-21T09:47:28Z</time>
      </trkpt>
      <trkpt lat="43.41765" lon="2.65483">
        <ele>767.2</ele>
        <time>2022-06-21T09:47:29Z</time>
      </trkpt>
      <trkpt lat="43.41765" lon="2.65485">
        <ele>767.2</ele>
        <time>2022-06-21T09:47:30Z</time>
      </trkpt>
      <trkpt lat="43.41765" lon="2.65486">
        <ele>767.2</ele>
        <time>2022-06-21T09:47:31Z</time>
      </trkpt>
      <trkpt lat="43.41765" lon="2.65487">
        <ele>767.4</ele>
        <time>2022-06-21T09:47:32Z</time>
      </trkpt>
      <trkpt lat="43.41765" lon="2.65489">
        <ele>767.4</ele>
        <time>2022-06-21T09:47:33Z</time>
      </trkpt>
      <trkpt lat="43.41765" lon="2.6549">
        <ele>767.4</ele>
        <time>2022-06-21T09:47:34Z</time>
      </trkpt>
      <trkpt lat="43.41765" lon="2.65491">
        <ele>767.4</ele>
        <time>2022-06-21T09:47:35Z</time>
      </trkpt>
      <trkpt lat="43.41765" lon="2.65492">
        <ele>767.6</ele>
        <time>2022-06-21T09:47:36Z</time>
      </trkpt>
      <trkpt lat="43.41766" lon="2.65493">
        <ele>767.6</ele>
        <time>2022-06-21T09:47:37Z</time>
      </trkpt>
      <trkpt lat="43.41766" lon="2.65494">
        <ele>767.6</ele>
        <time>2022-06-21T09:47:38Z</time>
      </trkpt>
      <trkpt lat="43.41766" lon="2.65495">
        <ele>767.6</ele>
        <time>2022-06-21T09:47:39Z</time>
      </trkpt>
      <trkpt lat="43.41766" lon="2.65497">
        <ele>767.7</ele>
        <time>2022-06-21T09:47:40Z</time>
      </trkpt>
      <trkpt lat="43.41766" lon="2.65498">
        <ele>767.7</ele>
        <time>2022-06-21T09:47:41Z</time>
      </trkpt>
      <trkpt lat="43.41766" lon="2.65499">
        <ele>767.7</ele>
        <time>2022-06-21T09:47:42Z</time>
      </trkpt>
      <trkpt lat="43.41767" lon="2.65499">
        <ele>767.7</ele>
        <time>2022-06-21T09:47:43Z</time>
      </trkpt>
      <trkpt lat="43.41767" lon="2.655">
        <ele>767.7</ele>
        <time>2022-06-21T09:47:44Z</time>
      </trkpt>
      <trkpt lat="43.41767" lon="2.65501">
        <ele>767.7</ele>
        <time>2022-06-21T09:47:45Z</time>
      </trkpt>
      <trkpt lat="43.41767" lon="2.65502">
        <ele>767</ele>
        <time>2022-06-21T09:47:46Z</time>
      </trkpt>
      <trkpt lat="43.41768" lon="2.65503">
        <ele>767</ele>
        <time>2022-06-21T09:47:47Z</time>
      </trkpt>
      <trkpt lat="43.41768" lon="2.65504">
        <ele>767</ele>
        <time>2022-06-21T09:47:48Z</time>
      </trkpt>
      <trkpt lat="43.41768" lon="2.65505">
        <ele>767.1</ele>
        <time>2022-06-21T09:47:49Z</time>
      </trkpt>
      <trkpt lat="43.41768" lon="2.65506">
        <ele>767.1</ele>
        <time>2022-06-21T09:47:50Z</time>
      </trkpt>
      <trkpt lat="43.41768" lon="2.65507">
        <ele>767.1</ele>
        <time>2022-06-21T09:47:51Z</time>
      </trkpt>
      <trkpt lat="43.41769" lon="2.65507">
        <ele>767.1</ele>
        <time>2022-06-21T09:47:52Z</time>
      </trkpt>
      <trkpt lat="43.41769" lon="2.65509">
        <ele>767.1</ele>
        <time>2022-06-21T09:47:53Z</time>
      </trkpt>
      <trkpt lat="43.41769" lon="2.65509">
        <ele>767.1</ele>
        <time>2022-06-21T09:47:54Z</time>
      </trkpt>
      <trkpt lat="43.4177" lon="2.6551">
        <ele>767.1</ele>
        <time>2022-06-21T09:47:55Z</time>
      </trkpt>
      <trkpt lat="43.4177" lon="2.65511">
        <ele>767.1</ele>
        <time>2022-06-21T09:47:56Z</time>
      </trkpt>
      <trkpt lat="43.4177" lon="2.65512">
        <ele>767.1</ele>
        <time>2022-06-21T09:47:57Z</time>
      </trkpt>
      <trkpt lat="43.4177" lon="2.65513">
        <ele>767</ele>
        <time>2022-06-21T09:47:58Z</time>
      </trkpt>
      <trkpt lat="43.41771" lon="2.65515">
        <ele>766.3</ele>
        <time>2022-06-21T09:47:59Z</time>
      </trkpt>
      <trkpt lat="43.41771" lon="2.65516">
        <ele>766.3</ele>
        <time>2022-06-21T09:48:00Z</time>
      </trkpt>
      <trkpt lat="43.41771" lon="2.65517">
        <ele>766.3</ele>
        <time>2022-06-21T09:48:01Z</time>
      </trkpt>
      <trkpt lat="43.41771" lon="2.65518">
        <ele>766.2</ele>
        <time>2022-06-21T09:48:02Z</time>
      </trkpt>
      <trkpt lat="43.41771" lon="2.65519">
        <ele>766.2</ele>
        <time>2022-06-21T09:48:03Z</time>
      </trkpt>
      <trkpt lat="43.41771" lon="2.6552">
        <ele>766.2</ele>
        <time>2022-06-21T09:48:04Z</time>
      </trkpt>
      <trkpt lat="43.41771" lon="2.65522">
        <ele>766.1</ele>
        <time>2022-06-21T09:48:05Z</time>
      </trkpt>
      <trkpt lat="43.41771" lon="2.65523">
        <ele>766.1</ele>
        <time>2022-06-21T09:48:06Z</time>
      </trkpt>
      <trkpt lat="43.41772" lon="2.65524">
        <ele>766.1</ele>
        <time>2022-06-21T09:48:07Z</time>
      </trkpt>
      <trkpt lat="43.41772" lon="2.65525">
        <ele>766.1</ele>
        <time>2022-06-21T09:48:08Z</time>
      </trkpt>
      <trkpt lat="43.41772" lon="2.65526">
        <ele>766.1</ele>
        <time>2022-06-21T09:48:09Z</time>
      </trkpt>
      <trkpt lat="43.41772" lon="2.65527">
        <ele>765.9</ele>
        <time>2022-06-21T09:48:10Z</time>
      </trkpt>
      <trkpt lat="43.41773" lon="2.65528">
        <ele>765.9</ele>
        <time>2022-06-21T09:48:11Z</time>
      </trkpt>
      <trkpt lat="43.41773" lon="2.65529">
        <ele>765.9</ele>
        <time>2022-06-21T09:48:12Z</time>
      </trkpt>
      <trkpt lat="43.41773" lon="2.6553">
        <ele>765.9</ele>
        <time>2022-06-21T09:48:13Z</time>
      </trkpt>
      <trkpt lat="43.41774" lon="2.65531">
        <ele>765.6</ele>
        <time>2022-06-21T09:48:14Z</time>
      </trkpt>
      <trkpt lat="43.41774" lon="2.65531">
        <ele>765</ele>
        <time>2022-06-21T09:48:15Z</time>
      </trkpt>
      <trkpt lat="43.41774" lon="2.65532">
        <ele>765</ele>
        <time>2022-06-21T09:48:16Z</time>
      </trkpt>
      <trkpt lat="43.41774" lon="2.65534">
        <ele>765</ele>
        <time>2022-06-21T09:48:17Z</time>
      </trkpt>
      <trkpt lat="43.41775" lon="2.65535">
        <ele>764.7</ele>
        <time>2022-06-21T09:48:18Z</time>
      </trkpt>
      <trkpt lat="43.41775" lon="2.65536">
        <ele>764.7</ele>
        <time>2022-06-21T09:48:19Z</time>
      </trkpt>
      <trkpt lat="43.41775" lon="2.65537">
        <ele>764.7</ele>
        <time>2022-06-21T09:48:20Z</time>
      </trkpt>
      <trkpt lat="43.41776" lon="2.65537">
        <ele>764.7</ele>
        <time>2022-06-21T09:48:21Z</time>
      </trkpt>
      <trkpt lat="43.41776" lon="2.65538">
        <ele>764.7</ele>
        <time>2022-06-21T09:48:22Z</time>
      </trkpt>
      <trkpt lat="43.41776" lon="2.65539">
        <ele>764.5</ele>
        <time>2022-06-21T09:48:23Z</time>
      </trkpt>
      <trkpt lat="43.41777" lon="2.6554">
        <ele>764.5</ele>
        <time>2022-06-21T09:48:24Z</time>
      </trkpt>
      <trkpt lat="43.41777" lon="2.65541">
        <ele>763.8</ele>
        <time>2022-06-21T09:48:25Z</time>
      </trkpt>
      <trkpt lat="43.41777" lon="2.65541">
        <ele>763.8</ele>
        <time>2022-06-21T09:48:26Z</time>
      </trkpt>
      <trkpt lat="43.41778" lon="2.65542">
        <ele>763.8</ele>
        <time>2022-06-21T09:48:27Z</time>
      </trkpt>
      <trkpt lat="43.41778" lon="2.65543">
        <ele>763.8</ele>
        <time>2022-06-21T09:48:28Z</time>
      </trkpt>
      <trkpt lat="43.41778" lon="2.65543">
        <ele>763.5</ele>
        <time>2022-06-21T09:48:29Z</time>
      </trkpt>
      <trkpt lat="43.41779" lon="2.65544">
        <ele>763.5</ele>
        <time>2022-06-21T09:48:30Z</time>
      </trkpt>
      <trkpt lat="43.41779" lon="2.65545">
        <ele>763.5</ele>
        <time>2022-06-21T09:48:31Z</time>
      </trkpt>
      <trkpt lat="43.41779" lon="2.65546">
        <ele>763.5</ele>
        <time>2022-06-21T09:48:32Z</time>
      </trkpt>
      <trkpt lat="43.41779" lon="2.65547">
        <ele>763.5</ele>
        <time>2022-06-21T09:48:33Z</time>
      </trkpt>
      <trkpt lat="43.4178" lon="2.65548">
        <ele>763.2</ele>
        <time>2022-06-21T09:48:34Z</time>
      </trkpt>
      <trkpt lat="43.4178" lon="2.65548">
        <ele>763.2</ele>
        <time>2022-06-21T09:48:35Z</time>
      </trkpt>
      <trkpt lat="43.4178" lon="2.65549">
        <ele>762.5</ele>
        <time>2022-06-21T09:48:36Z</time>
      </trkpt>
      <trkpt lat="43.4178" lon="2.6555">
        <ele>762.5</ele>
        <time>2022-06-21T09:48:37Z</time>
      </trkpt>
      <trkpt lat="43.4178" lon="2.6555">
        <ele>762.5</ele>
        <time>2022-06-21T09:48:38Z</time>
      </trkpt>
      <trkpt lat="43.4178" lon="2.6555">
        <ele>762.5</ele>
        <time>2022-06-21T09:48:39Z</time>
      </trkpt>
      <trkpt lat="43.4178" lon="2.6555">
        <ele>762.5</ele>
        <time>2022-06-21T09:48:40Z</time>
      </trkpt>
      <trkpt lat="43.4178" lon="2.6555">
        <ele>762.5</ele>
        <time>2022-06-21T09:48:41Z</time>
      </trkpt>
      <trkpt lat="43.4178" lon="2.6555">
        <ele>762.5</ele>
        <time>2022-06-21T09:48:42Z</time>
      </trkpt>
      <trkpt lat="43.4178" lon="2.6555">
        <ele>762.5</ele>
        <time>2022-06-21T09:48:43Z</time>
      </trkpt>
      <trkpt lat="43.4178" lon="2.65551">
        <ele>762.5</ele>
        <time>2022-06-21T09:48:44Z</time>
      </trkpt>
      <trkpt lat="43.4178" lon="2.65552">
        <ele>762.2</ele>
        <time>2022-06-21T09:48:45Z</time>
      </trkpt>
      <trkpt lat="43.4178" lon="2.65553">
        <ele>762.2</ele>
        <time>2022-06-21T09:48:46Z</time>
      </trkpt>
      <trkpt lat="43.41781" lon="2.65553">
        <ele>762.2</ele>
        <time>2022-06-21T09:48:47Z</time>
      </trkpt>
      <trkpt lat="43.41781" lon="2.65555">
        <ele>762.2</ele>
        <time>2022-06-21T09:48:48Z</time>
      </trkpt>
      <trkpt lat="43.41782" lon="2.65556">
        <ele>761.9</ele>
        <time>2022-06-21T09:48:49Z</time>
      </trkpt>
      <trkpt lat="43.41782" lon="2.65557">
        <ele>761.9</ele>
        <time>2022-06-21T09:48:50Z</time>
      </trkpt>
      <trkpt lat="43.41782" lon="2.65558">
        <ele>761.9</ele>
        <time>2022-06-21T09:48:51Z</time>
      </trkpt>
      <trkpt lat="43.41782" lon="2.65559">
        <ele>761.9</ele>
        <time>2022-06-21T09:48:52Z</time>
      </trkpt>
      <trkpt lat="43.41783" lon="2.6556">
        <ele>761.5</ele>
        <time>2022-06-21T09:48:53Z</time>
      </trkpt>
      <trkpt lat="43.41783" lon="2.65561">
        <ele>760.9</ele>
        <time>2022-06-21T09:48:54Z</time>
      </trkpt>
      <trkpt lat="43.41784" lon="2.65562">
        <ele>760.9</ele>
        <time>2022-06-21T09:48:55Z</time>
      </trkpt>
      <trkpt lat="43.41784" lon="2.65563">
        <ele>760.9</ele>
        <time>2022-06-21T09:48:56Z</time>
      </trkpt>
      <trkpt lat="43.41785" lon="2.65563">
        <ele>760.9</ele>
        <time>2022-06-21T09:48:57Z</time>
      </trkpt>
      <trkpt lat="43.41785" lon="2.65564">
        <ele>760.9</ele>
        <time>2022-06-21T09:48:58Z</time>
      </trkpt>
      <trkpt lat="43.41785" lon="2.65565">
        <ele>760.5</ele>
        <time>2022-06-21T09:48:59Z</time>
      </trkpt>
      <trkpt lat="43.41785" lon="2.65566">
        <ele>760.5</ele>
        <time>2022-06-21T09:49:00Z</time>
      </trkpt>
      <trkpt lat="43.41785" lon="2.65567">
        <ele>760.5</ele>
        <time>2022-06-21T09:49:01Z</time>
      </trkpt>
      <trkpt lat="43.41786" lon="2.65568">
        <ele>760.5</ele>
        <time>2022-06-21T09:49:02Z</time>
      </trkpt>
      <trkpt lat="43.41786" lon="2.65569">
        <ele>760.5</ele>
        <time>2022-06-21T09:49:03Z</time>
      </trkpt>
      <trkpt lat="43.41786" lon="2.6557">
        <ele>759.6</ele>
        <time>2022-06-21T09:49:04Z</time>
      </trkpt>
      <trkpt lat="43.41787" lon="2.65571">
        <ele>759.6</ele>
        <time>2022-06-21T09:49:05Z</time>
      </trkpt>
      <trkpt lat="43.41787" lon="2.65572">
        <ele>759.6</ele>
        <time>2022-06-21T09:49:06Z</time>
      </trkpt>
      <trkpt lat="43.41787" lon="2.65573">
        <ele>759.6</ele>
        <time>2022-06-21T09:49:07Z</time>
      </trkpt>
      <trkpt lat="43.41787" lon="2.65574">
        <ele>759.3</ele>
        <time>2022-06-21T09:49:08Z</time>
      </trkpt>
      <trkpt lat="43.41788" lon="2.65575">
        <ele>759.3</ele>
        <time>2022-06-21T09:49:09Z</time>
      </trkpt>
      <trkpt lat="43.41788" lon="2.65576">
        <ele>759.3</ele>
        <time>2022-06-21T09:49:10Z</time>
      </trkpt>
      <trkpt lat="43.41788" lon="2.65577">
        <ele>759.3</ele>
        <time>2022-06-21T09:49:11Z</time>
      </trkpt>
      <trkpt lat="43.41788" lon="2.65577">
        <ele>758.9</ele>
        <time>2022-06-21T09:49:12Z</time>
      </trkpt>
      <trkpt lat="43.41788" lon="2.65578">
        <ele>758.9</ele>
        <time>2022-06-21T09:49:13Z</time>
      </trkpt>
      <trkpt lat="43.41789" lon="2.6558">
        <ele>758.9</ele>
        <time>2022-06-21T09:49:14Z</time>
      </trkpt>
      <trkpt lat="43.41789" lon="2.65581">
        <ele>758.9</ele>
        <time>2022-06-21T09:49:15Z</time>
      </trkpt>
      <trkpt lat="43.41789" lon="2.65582">
        <ele>758.6</ele>
        <time>2022-06-21T09:49:16Z</time>
      </trkpt>
      <trkpt lat="43.41789" lon="2.65583">
        <ele>758.6</ele>
        <time>2022-06-21T09:49:17Z</time>
      </trkpt>
      <trkpt lat="43.41789" lon="2.65584">
        <ele>758.6</ele>
        <time>2022-06-21T09:49:18Z</time>
      </trkpt>
      <trkpt lat="43.41789" lon="2.65585">
        <ele>758.1</ele>
        <time>2022-06-21T09:49:19Z</time>
      </trkpt>
      <trkpt lat="43.41789" lon="2.65586">
        <ele>757.8</ele>
        <time>2022-06-21T09:49:20Z</time>
      </trkpt>
      <trkpt lat="43.41789" lon="2.65587">
        <ele>757.8</ele>
        <time>2022-06-21T09:49:21Z</time>
      </trkpt>
      <trkpt lat="43.4179" lon="2.65588">
        <ele>757.8</ele>
        <time>2022-06-21T09:49:22Z</time>
      </trkpt>
      <trkpt lat="43.4179" lon="2.65589">
        <ele>757.8</ele>
        <time>2022-06-21T09:49:23Z</time>
      </trkpt>
      <trkpt lat="43.4179" lon="2.65591">
        <ele>757.4</ele>
        <time>2022-06-21T09:49:24Z</time>
      </trkpt>
      <trkpt lat="43.4179" lon="2.65592">
        <ele>757.4</ele>
        <time>2022-06-21T09:49:25Z</time>
      </trkpt>
      <trkpt lat="43.4179" lon="2.65592">
        <ele>757.4</ele>
        <time>2022-06-21T09:49:26Z</time>
      </trkpt>
      <trkpt lat="43.4179" lon="2.65594">
        <ele>757.4</ele>
        <time>2022-06-21T09:49:27Z</time>
      </trkpt>
      <trkpt lat="43.4179" lon="2.65595">
        <ele>757.1</ele>
        <time>2022-06-21T09:49:28Z</time>
      </trkpt>
      <trkpt lat="43.41791" lon="2.65595">
        <ele>757.1</ele>
        <time>2022-06-21T09:49:29Z</time>
      </trkpt>
      <trkpt lat="43.41791" lon="2.65596">
        <ele>757.1</ele>
        <time>2022-06-21T09:49:30Z</time>
      </trkpt>
      <trkpt lat="43.41791" lon="2.65597">
        <ele>757.1</ele>
        <time>2022-06-21T09:49:31Z</time>
      </trkpt>
      <trkpt lat="43.41792" lon="2.65598">
        <ele>757.1</ele>
        <time>2022-06-21T09:49:32Z</time>
      </trkpt>
      <trkpt lat="43.41792" lon="2.65599">
        <ele>756.8</ele>
        <time>2022-06-21T09:49:33Z</time>
      </trkpt>
      <trkpt lat="43.41792" lon="2.656">
        <ele>756.8</ele>
        <time>2022-06-21T09:49:34Z</time>
      </trkpt>
      <trkpt lat="43.41792" lon="2.656">
        <ele>756.8</ele>
        <time>2022-06-21T09:49:35Z</time>
      </trkpt>
      <trkpt lat="43.41792" lon="2.65601">
        <ele>756.8</ele>
        <time>2022-06-21T09:49:36Z</time>
      </trkpt>
      <trkpt lat="43.41792" lon="2.65602">
        <ele>756.3</ele>
        <time>2022-06-21T09:49:37Z</time>
      </trkpt>
      <trkpt lat="43.41792" lon="2.65603">
        <ele>756.3</ele>
        <time>2022-06-21T09:49:38Z</time>
      </trkpt>
      <trkpt lat="43.41793" lon="2.65604">
        <ele>756</ele>
        <time>2022-06-21T09:49:39Z</time>
      </trkpt>
      <trkpt lat="43.41793" lon="2.65604">
        <ele>756</ele>
        <time>2022-06-21T09:49:40Z</time>
      </trkpt>
      <trkpt lat="43.41793" lon="2.65605">
        <ele>756</ele>
        <time>2022-06-21T09:49:41Z</time>
      </trkpt>
      <trkpt lat="43.41793" lon="2.65606">
        <ele>756</ele>
        <time>2022-06-21T09:49:42Z</time>
      </trkpt>
      <trkpt lat="43.41794" lon="2.65607">
        <ele>756</ele>
        <time>2022-06-21T09:49:43Z</time>
      </trkpt>
      <trkpt lat="43.41794" lon="2.65608">
        <ele>755.6</ele>
        <time>2022-06-21T09:49:44Z</time>
      </trkpt>
      <trkpt lat="43.41795" lon="2.65609">
        <ele>755.6</ele>
        <time>2022-06-21T09:49:45Z</time>
      </trkpt>
      <trkpt lat="43.41795" lon="2.65609">
        <ele>755.6</ele>
        <time>2022-06-21T09:49:46Z</time>
      </trkpt>
      <trkpt lat="43.41796" lon="2.6561">
        <ele>755.2</ele>
        <time>2022-06-21T09:49:47Z</time>
      </trkpt>
      <trkpt lat="43.41796" lon="2.65611">
        <ele>755.2</ele>
        <time>2022-06-21T09:49:48Z</time>
      </trkpt>
      <trkpt lat="43.41797" lon="2.65611">
        <ele>755.2</ele>
        <time>2022-06-21T09:49:49Z</time>
      </trkpt>
      <trkpt lat="43.41797" lon="2.65612">
        <ele>754.8</ele>
        <time>2022-06-21T09:49:50Z</time>
      </trkpt>
      <trkpt lat="43.41798" lon="2.65613">
        <ele>754.8</ele>
        <time>2022-06-21T09:49:51Z</time>
      </trkpt>
      <trkpt lat="43.41799" lon="2.65614">
        <ele>754.8</ele>
        <time>2022-06-21T09:49:52Z</time>
      </trkpt>
      <trkpt lat="43.41799" lon="2.65615">
        <ele>754.4</ele>
        <time>2022-06-21T09:49:53Z</time>
      </trkpt>
      <trkpt lat="43.418" lon="2.65615">
        <ele>754.4</ele>
        <time>2022-06-21T09:49:54Z</time>
      </trkpt>
      <trkpt lat="43.41801" lon="2.65616">
        <ele>754.4</ele>
        <time>2022-06-21T09:49:55Z</time>
      </trkpt>
      <trkpt lat="43.41801" lon="2.65617">
        <ele>754</ele>
        <time>2022-06-21T09:49:56Z</time>
      </trkpt>
      <trkpt lat="43.41802" lon="2.65617">
        <ele>753.6</ele>
        <time>2022-06-21T09:49:57Z</time>
      </trkpt>
      <trkpt lat="43.41803" lon="2.65618">
        <ele>753.6</ele>
        <time>2022-06-21T09:49:58Z</time>
      </trkpt>
      <trkpt lat="43.41803" lon="2.65618">
        <ele>753.6</ele>
        <time>2022-06-21T09:49:59Z</time>
      </trkpt>
      <trkpt lat="43.41804" lon="2.65619">
        <ele>753.6</ele>
        <time>2022-06-21T09:50:00Z</time>
      </trkpt>
      <trkpt lat="43.41805" lon="2.65619">
        <ele>753.6</ele>
        <time>2022-06-21T09:50:01Z</time>
      </trkpt>
      <trkpt lat="43.41805" lon="2.65619">
        <ele>753.1</ele>
        <time>2022-06-21T09:50:02Z</time>
      </trkpt>
      <trkpt lat="43.41805" lon="2.6562">
        <ele>753.1</ele>
        <time>2022-06-21T09:50:03Z</time>
      </trkpt>
      <trkpt lat="43.41806" lon="2.65621">
        <ele>752.8</ele>
        <time>2022-06-21T09:50:04Z</time>
      </trkpt>
      <trkpt lat="43.41806" lon="2.65621">
        <ele>752.8</ele>
        <time>2022-06-21T09:50:05Z</time>
      </trkpt>
      <trkpt lat="43.41807" lon="2.65622">
        <ele>752.8</ele>
        <time>2022-06-21T09:50:06Z</time>
      </trkpt>
      <trkpt lat="43.41807" lon="2.65622">
        <ele>752.8</ele>
        <time>2022-06-21T09:50:07Z</time>
      </trkpt>
      <trkpt lat="43.41807" lon="2.65623">
        <ele>752.8</ele>
        <time>2022-06-21T09:50:08Z</time>
      </trkpt>
      <trkpt lat="43.41808" lon="2.65624">
        <ele>752.3</ele>
        <time>2022-06-21T09:50:09Z</time>
      </trkpt>
      <trkpt lat="43.41809" lon="2.65624">
        <ele>752.3</ele>
        <time>2022-06-21T09:50:10Z</time>
      </trkpt>
      <trkpt lat="43.41809" lon="2.65625">
        <ele>752</ele>
        <time>2022-06-21T09:50:11Z</time>
      </trkpt>
      <trkpt lat="43.4181" lon="2.65626">
        <ele>752</ele>
        <time>2022-06-21T09:50:12Z</time>
      </trkpt>
      <trkpt lat="43.4181" lon="2.65627">
        <ele>752</ele>
        <time>2022-06-21T09:50:13Z</time>
      </trkpt>
      <trkpt lat="43.41811" lon="2.65627">
        <ele>752</ele>
        <time>2022-06-21T09:50:14Z</time>
      </trkpt>
      <trkpt lat="43.41811" lon="2.65628">
        <ele>751.6</ele>
        <time>2022-06-21T09:50:15Z</time>
      </trkpt>
      <trkpt lat="43.41811" lon="2.65629">
        <ele>751.3</ele>
        <time>2022-06-21T09:50:16Z</time>
      </trkpt>
      <trkpt lat="43.41811" lon="2.65629">
        <ele>751.3</ele>
        <time>2022-06-21T09:50:17Z</time>
      </trkpt>
      <trkpt lat="43.41812" lon="2.6563">
        <ele>751.3</ele>
        <time>2022-06-21T09:50:18Z</time>
      </trkpt>
      <trkpt lat="43.41812" lon="2.6563">
        <ele>751.3</ele>
        <time>2022-06-21T09:50:19Z</time>
      </trkpt>
      <trkpt lat="43.41813" lon="2.65631">
        <ele>751.3</ele>
        <time>2022-06-21T09:50:20Z</time>
      </trkpt>
      <trkpt lat="43.41813" lon="2.65632">
        <ele>751.3</ele>
        <time>2022-06-21T09:50:21Z</time>
      </trkpt>
      <trkpt lat="43.41814" lon="2.65632">
        <ele>751.3</ele>
        <time>2022-06-21T09:50:22Z</time>
      </trkpt>
      <trkpt lat="43.41814" lon="2.65633">
        <ele>750.8</ele>
        <time>2022-06-21T09:50:23Z</time>
      </trkpt>
      <trkpt lat="43.41815" lon="2.65634">
        <ele>750.6</ele>
        <time>2022-06-21T09:50:24Z</time>
      </trkpt>
      <trkpt lat="43.41816" lon="2.65634">
        <ele>750.6</ele>
        <time>2022-06-21T09:50:25Z</time>
      </trkpt>
      <trkpt lat="43.41816" lon="2.65635">
        <ele>750.6</ele>
        <time>2022-06-21T09:50:26Z</time>
      </trkpt>
      <trkpt lat="43.41817" lon="2.65635">
        <ele>750.6</ele>
        <time>2022-06-21T09:50:27Z</time>
      </trkpt>
      <trkpt lat="43.41817" lon="2.65636">
        <ele>750.2</ele>
        <time>2022-06-21T09:50:28Z</time>
      </trkpt>
      <trkpt lat="43.41818" lon="2.65637">
        <ele>750.2</ele>
        <time>2022-06-21T09:50:29Z</time>
      </trkpt>
      <trkpt lat="43.41819" lon="2.65637">
        <ele>750.2</ele>
        <time>2022-06-21T09:50:30Z</time>
      </trkpt>
      <trkpt lat="43.41819" lon="2.65638">
        <ele>749.9</ele>
        <time>2022-06-21T09:50:31Z</time>
      </trkpt>
      <trkpt lat="43.4182" lon="2.65639">
        <ele>749.9</ele>
        <time>2022-06-21T09:50:32Z</time>
      </trkpt>
      <trkpt lat="43.41821" lon="2.6564">
        <ele>749.6</ele>
        <time>2022-06-21T09:50:33Z</time>
      </trkpt>
      <trkpt lat="43.41821" lon="2.6564">
        <ele>749.6</ele>
        <time>2022-06-21T09:50:34Z</time>
      </trkpt>
      <trkpt lat="43.41822" lon="2.6564">
        <ele>749.6</ele>
        <time>2022-06-21T09:50:35Z</time>
      </trkpt>
      <trkpt lat="43.41823" lon="2.65641">
        <ele>749.6</ele>
        <time>2022-06-21T09:50:36Z</time>
      </trkpt>
      <trkpt lat="43.41824" lon="2.65641">
        <ele>749.2</ele>
        <time>2022-06-21T09:50:37Z</time>
      </trkpt>
      <trkpt lat="43.41825" lon="2.65642">
        <ele>749</ele>
        <time>2022-06-21T09:50:38Z</time>
      </trkpt>
      <trkpt lat="43.41825" lon="2.65642">
        <ele>749</ele>
        <time>2022-06-21T09:50:39Z</time>
      </trkpt>
      <trkpt lat="43.41826" lon="2.65643">
        <ele>749</ele>
        <time>2022-06-21T09:50:40Z</time>
      </trkpt>
      <trkpt lat="43.41827" lon="2.65643">
        <ele>748.7</ele>
        <time>2022-06-21T09:50:41Z</time>
      </trkpt>
      <trkpt lat="43.41827" lon="2.65644">
        <ele>748.7</ele>
        <time>2022-06-21T09:50:42Z</time>
      </trkpt>
      <trkpt lat="43.41828" lon="2.65644">
        <ele>748.7</ele>
        <time>2022-06-21T09:50:43Z</time>
      </trkpt>
      <trkpt lat="43.41829" lon="2.65645">
        <ele>748.7</ele>
        <time>2022-06-21T09:50:44Z</time>
      </trkpt>
      <trkpt lat="43.4183" lon="2.65645">
        <ele>748.7</ele>
        <time>2022-06-21T09:50:45Z</time>
      </trkpt>
      <trkpt lat="43.4183" lon="2.65646">
        <ele>748.3</ele>
        <time>2022-06-21T09:50:46Z</time>
      </trkpt>
      <trkpt lat="43.41831" lon="2.65646">
        <ele>748.2</ele>
        <time>2022-06-21T09:50:47Z</time>
      </trkpt>
      <trkpt lat="43.41831" lon="2.65647">
        <ele>748.2</ele>
        <time>2022-06-21T09:50:48Z</time>
      </trkpt>
      <trkpt lat="43.41832" lon="2.65647">
        <ele>748.2</ele>
        <time>2022-06-21T09:50:49Z</time>
      </trkpt>
      <trkpt lat="43.41832" lon="2.65647">
        <ele>748.2</ele>
        <time>2022-06-21T09:50:50Z</time>
      </trkpt>
      <trkpt lat="43.41833" lon="2.65648">
        <ele>748.2</ele>
        <time>2022-06-21T09:50:51Z</time>
      </trkpt>
      <trkpt lat="43.41833" lon="2.65648">
        <ele>747.9</ele>
        <time>2022-06-21T09:50:52Z</time>
      </trkpt>
      <trkpt lat="43.41833" lon="2.65648">
        <ele>747.9</ele>
        <time>2022-06-21T09:50:53Z</time>
      </trkpt>
      <trkpt lat="43.41833" lon="2.65648">
        <ele>747.9</ele>
        <time>2022-06-21T09:50:54Z</time>
      </trkpt>
      <trkpt lat="43.41833" lon="2.65648">
        <ele>747.9</ele>
        <time>2022-06-21T09:50:55Z</time>
      </trkpt>
      <trkpt lat="43.41833" lon="2.65648">
        <ele>747.9</ele>
        <time>2022-06-21T09:50:56Z</time>
      </trkpt>
      <trkpt lat="43.41833" lon="2.65648">
        <ele>747.9</ele>
        <time>2022-06-21T09:50:57Z</time>
      </trkpt>
      <trkpt lat="43.41833" lon="2.65648">
        <ele>747.9</ele>
        <time>2022-06-21T09:50:58Z</time>
      </trkpt>
      <trkpt lat="43.41833" lon="2.65648">
        <ele>747.9</ele>
        <time>2022-06-21T09:50:59Z</time>
      </trkpt>
      <trkpt lat="43.41833" lon="2.65648">
        <ele>747.9</ele>
        <time>2022-06-21T09:51:00Z</time>
      </trkpt>
      <trkpt lat="43.41833" lon="2.65648">
        <ele>747.9</ele>
        <time>2022-06-21T09:51:01Z</time>
      </trkpt>
      <trkpt lat="43.41833" lon="2.65648">
        <ele>747.9</ele>
        <time>2022-06-21T09:51:02Z</time>
      </trkpt>
      <trkpt lat="43.41833" lon="2.65648">
        <ele>747.9</ele>
        <time>2022-06-21T09:51:03Z</time>
      </trkpt>
      <trkpt lat="43.41833" lon="2.65648">
        <ele>747.9</ele>
        <time>2022-06-21T09:51:04Z</time>
      </trkpt>
      <trkpt lat="43.41833" lon="2.65648">
        <ele>747.9</ele>
        <time>2022-06-21T09:51:05Z</time>
      </trkpt>
      <trkpt lat="43.41833" lon="2.65648">
        <ele>747.9</ele>
        <time>2022-06-21T09:51:06Z</time>
      </trkpt>
      <trkpt lat="43.41833" lon="2.65648">
        <ele>747.9</ele>
        <time>2022-06-21T09:51:07Z</time>
      </trkpt>
      <trkpt lat="43.41833" lon="2.65648">
        <ele>747.9</ele>
        <time>2022-06-21T09:51:08Z</time>
      </trkpt>
      <trkpt lat="43.41833" lon="2.65648">
        <ele>747.9</ele>
        <time>2022-06-21T09:51:09Z</time>
      </trkpt>
      <trkpt lat="43.41833" lon="2.65648">
        <ele>747.9</ele>
        <time>2022-06-21T09:51:10Z</time>
      </trkpt>
      <trkpt lat="43.41833" lon="2.65648">
        <ele>747.9</ele>
        <time>2022-06-21T09:51:11Z</time>
      </trkpt>
      <trkpt lat="43.41833" lon="2.65648">
        <ele>747.9</ele>
        <time>2022-06-21T09:51:12Z</time>
      </trkpt>
      <trkpt lat="43.41833" lon="2.65648">
        <ele>747.9</ele>
        <time>2022-06-21T09:51:13Z</time>
      </trkpt>
      <trkpt lat="43.41833" lon="2.65648">
        <ele>747.9</ele>
        <time>2022-06-21T09:51:14Z</time>
      </trkpt>
      <trkpt lat="43.41833" lon="2.65648">
        <ele>747.9</ele>
        <time>2022-06-21T09:51:15Z</time>
      </trkpt>
      <trkpt lat="43.41833" lon="2.65648">
        <ele>747.9</ele>
        <time>2022-06-21T09:51:16Z</time>
      </trkpt>
      <trkpt lat="43.41833" lon="2.65648">
        <ele>747.9</ele>
        <time>2022-06-21T09:51:17Z</time>
      </trkpt>
      <trkpt lat="43.41833" lon="2.65648">
        <ele>747.9</ele>
        <time>2022-06-21T09:51:18Z</time>
      </trkpt>
      <trkpt lat="43.41833" lon="2.65648">
        <ele>747.9</ele>
        <time>2022-06-21T09:51:19Z</time>
      </trkpt>
      <trkpt lat="43.41833" lon="2.65648">
        <ele>747.9</ele>
        <time>2022-06-21T09:51:20Z</time>
      </trkpt>
      <trkpt lat="43.41833" lon="2.65648">
        <ele>747.9</ele>
        <time>2022-06-21T09:51:21Z</time>
      </trkpt>
      <trkpt lat="43.41833" lon="2.65648">
        <ele>747.9</ele>
        <time>2022-06-21T09:51:22Z</time>
      </trkpt>
      <trkpt lat="43.41833" lon="2.65648">
        <ele>747.9</ele>
        <time>2022-06-21T09:51:23Z</time>
      </trkpt>
      <trkpt lat="43.41833" lon="2.65648">
        <ele>747.9</ele>
        <time>2022-06-21T09:51:24Z</time>
      </trkpt>
      <trkpt lat="43.41833" lon="2.65648">
        <ele>747.9</ele>
        <time>2022-06-21T09:51:25Z</time>
      </trkpt>
      <trkpt lat="43.41833" lon="2.65648">
        <ele>747.9</ele>
        <time>2022-06-21T09:51:26Z</time>
      </trkpt>
      <trkpt lat="43.41833" lon="2.65648">
        <ele>747.9</ele>
        <time>2022-06-21T09:51:27Z</time>
      </trkpt>
      <trkpt lat="43.41834" lon="2.65649">
        <ele>747.9</ele>
        <time>2022-06-21T09:51:28Z</time>
      </trkpt>
      <trkpt lat="43.41834" lon="2.65649">
        <ele>747.9</ele>
        <time>2022-06-21T09:51:29Z</time>
      </trkpt>
      <trkpt lat="43.41834" lon="2.65649">
        <ele>747.9</ele>
        <time>2022-06-21T09:51:30Z</time>
      </trkpt>
      <trkpt lat="43.41834" lon="2.65649">
        <ele>747.9</ele>
        <time>2022-06-21T09:51:31Z</time>
      </trkpt>
      <trkpt lat="43.41834" lon="2.65649">
        <ele>747.9</ele>
        <time>2022-06-21T09:51:32Z</time>
      </trkpt>
      <trkpt lat="43.41834" lon="2.65649">
        <ele>747.9</ele>
        <time>2022-06-21T09:51:33Z</time>
      </trkpt>
      <trkpt lat="43.41834" lon="2.65649">
        <ele>747.9</ele>
        <time>2022-06-21T09:51:34Z</time>
      </trkpt>
      <trkpt lat="43.41834" lon="2.65649">
        <ele>747.9</ele>
        <time>2022-06-21T09:51:35Z</time>
      </trkpt>
      <trkpt lat="43.41834" lon="2.65649">
        <ele>747.9</ele>
        <time>2022-06-21T09:51:36Z</time>
      </trkpt>
      <trkpt lat="43.41834" lon="2.65649">
        <ele>747.9</ele>
        <time>2022-06-21T09:51:37Z</time>
      </trkpt>
      <trkpt lat="43.41835" lon="2.6565">
        <ele>747.9</ele>
        <time>2022-06-21T09:51:38Z</time>
      </trkpt>
      <trkpt lat="43.41836" lon="2.6565">
        <ele>747.5</ele>
        <time>2022-06-21T09:51:39Z</time>
      </trkpt>
      <trkpt lat="43.41837" lon="2.65651">
        <ele>747.4</ele>
        <time>2022-06-21T09:51:40Z</time>
      </trkpt>
      <trkpt lat="43.41838" lon="2.65651">
        <ele>747.4</ele>
        <time>2022-06-21T09:51:41Z</time>
      </trkpt>
      <trkpt lat="43.41839" lon="2.65652">
        <ele>747.4</ele>
        <time>2022-06-21T09:51:42Z</time>
      </trkpt>
      <trkpt lat="43.4184" lon="2.65653">
        <ele>747.1</ele>
        <time>2022-06-21T09:51:43Z</time>
      </trkpt>
      <trkpt lat="43.41841" lon="2.65654">
        <ele>747.1</ele>
        <time>2022-06-21T09:51:44Z</time>
      </trkpt>
      <trkpt lat="43.41841" lon="2.65655">
        <ele>747.1</ele>
        <time>2022-06-21T09:51:45Z</time>
      </trkpt>
      <trkpt lat="43.41841" lon="2.65656">
        <ele>747.1</ele>
        <time>2022-06-21T09:51:46Z</time>
      </trkpt>
      <trkpt lat="43.41842" lon="2.65656">
        <ele>747.1</ele>
        <time>2022-06-21T09:51:47Z</time>
      </trkpt>
      <trkpt lat="43.41843" lon="2.65656">
        <ele>746.8</ele>
        <time>2022-06-21T09:51:48Z</time>
      </trkpt>
      <trkpt lat="43.41843" lon="2.65656">
        <ele>746.8</ele>
        <time>2022-06-21T09:51:49Z</time>
      </trkpt>
      <trkpt lat="43.41843" lon="2.65656">
        <ele>746.8</ele>
        <time>2022-06-21T09:51:50Z</time>
      </trkpt>
      <trkpt lat="43.41843" lon="2.65656">
        <ele>746.8</ele>
        <time>2022-06-21T09:51:51Z</time>
      </trkpt>
      <trkpt lat="43.41843" lon="2.65656">
        <ele>746.8</ele>
        <time>2022-06-21T09:51:52Z</time>
      </trkpt>
      <trkpt lat="43.41843" lon="2.65656">
        <ele>746.8</ele>
        <time>2022-06-21T09:51:53Z</time>
      </trkpt>
      <trkpt lat="43.41843" lon="2.65656">
        <ele>746.8</ele>
        <time>2022-06-21T09:51:54Z</time>
      </trkpt>
      <trkpt lat="43.41843" lon="2.65656">
        <ele>746.8</ele>
        <time>2022-06-21T09:51:55Z</time>
      </trkpt>
      <trkpt lat="43.41843" lon="2.65656">
        <ele>746.8</ele>
        <time>2022-06-21T09:51:56Z</time>
      </trkpt>
      <trkpt lat="43.41843" lon="2.65656">
        <ele>746.8</ele>
        <time>2022-06-21T09:51:57Z</time>
      </trkpt>
      <trkpt lat="43.41843" lon="2.65656">
        <ele>746.8</ele>
        <time>2022-06-21T09:51:58Z</time>
      </trkpt>
      <trkpt lat="43.41843" lon="2.65656">
        <ele>746.8</ele>
        <time>2022-06-21T09:51:59Z</time>
      </trkpt>
      <trkpt lat="43.41843" lon="2.65656">
        <ele>746.8</ele>
        <time>2022-06-21T09:52:00Z</time>
      </trkpt>
      <trkpt lat="43.41843" lon="2.65656">
        <ele>746.8</ele>
        <time>2022-06-21T09:52:01Z</time>
      </trkpt>
      <trkpt lat="43.41843" lon="2.65656">
        <ele>746.8</ele>
        <time>2022-06-21T09:52:02Z</time>
      </trkpt>
      <trkpt lat="43.41843" lon="2.65656">
        <ele>746.8</ele>
        <time>2022-06-21T09:52:03Z</time>
      </trkpt>
      <trkpt lat="43.41844" lon="2.65656">
        <ele>746.8</ele>
        <time>2022-06-21T09:52:04Z</time>
      </trkpt>
      <trkpt lat="43.41845" lon="2.65656">
        <ele>746.8</ele>
        <time>2022-06-21T09:52:05Z</time>
      </trkpt>
      <trkpt lat="43.41846" lon="2.65657">
        <ele>746.5</ele>
        <time>2022-06-21T09:52:06Z</time>
      </trkpt>
      <trkpt lat="43.41846" lon="2.65657">
        <ele>746.5</ele>
        <time>2022-06-21T09:52:07Z</time>
      </trkpt>
      <trkpt lat="43.41846" lon="2.65657">
        <ele>746.5</ele>
        <time>2022-06-21T09:52:08Z</time>
      </trkpt>
      <trkpt lat="43.41846" lon="2.65657">
        <ele>746.5</ele>
        <time>2022-06-21T09:52:09Z</time>
      </trkpt>
      <trkpt lat="43.41846" lon="2.65657">
        <ele>746.5</ele>
        <time>2022-06-21T09:52:10Z</time>
      </trkpt>
      <trkpt lat="43.41846" lon="2.65657">
        <ele>746.5</ele>
        <time>2022-06-21T09:52:11Z</time>
      </trkpt>
      <trkpt lat="43.41846" lon="2.65657">
        <ele>746.5</ele>
        <time>2022-06-21T09:52:12Z</time>
      </trkpt>
      <trkpt lat="43.41846" lon="2.65657">
        <ele>746.5</ele>
        <time>2022-06-21T09:52:13Z</time>
      </trkpt>
      <trkpt lat="43.41846" lon="2.65657">
        <ele>746.5</ele>
        <time>2022-06-21T09:52:14Z</time>
      </trkpt>
      <trkpt lat="43.41846" lon="2.65657">
        <ele>746.5</ele>
        <time>2022-06-21T09:52:15Z</time>
      </trkpt>
      <trkpt lat="43.41846" lon="2.65657">
        <ele>746.5</ele>
        <time>2022-06-21T09:52:16Z</time>
      </trkpt>
      <trkpt lat="43.41846" lon="2.65657">
        <ele>746.5</ele>
        <time>2022-06-21T09:52:17Z</time>
      </trkpt>
      <trkpt lat="43.41846" lon="2.65657">
        <ele>746.5</ele>
        <time>2022-06-21T09:52:18Z</time>
      </trkpt>
      <trkpt lat="43.41846" lon="2.65657">
        <ele>746.5</ele>
        <time>2022-06-21T09:52:19Z</time>
      </trkpt>
      <trkpt lat="43.41846" lon="2.65657">
        <ele>746.5</ele>
        <time>2022-06-21T09:52:20Z</time>
      </trkpt>
      <trkpt lat="43.41846" lon="2.65657">
        <ele>746.5</ele>
        <time>2022-06-21T09:52:21Z</time>
      </trkpt>
      <trkpt lat="43.41846" lon="2.65657">
        <ele>746.5</ele>
        <time>2022-06-21T09:52:22Z</time>
      </trkpt>
      <trkpt lat="43.41846" lon="2.65657">
        <ele>746.5</ele>
        <time>2022-06-21T09:52:23Z</time>
      </trkpt>
      <trkpt lat="43.41846" lon="2.65657">
        <ele>746.5</ele>
        <time>2022-06-21T09:52:24Z</time>
      </trkpt>
      <trkpt lat="43.41846" lon="2.65657">
        <ele>746.5</ele>
        <time>2022-06-21T09:52:25Z</time>
      </trkpt>
      <trkpt lat="43.41846" lon="2.65657">
        <ele>746.5</ele>
        <time>2022-06-21T09:52:26Z</time>
      </trkpt>
      <trkpt lat="43.41846" lon="2.65657">
        <ele>746.5</ele>
        <time>2022-06-21T09:52:27Z</time>
      </trkpt>
      <trkpt lat="43.41846" lon="2.65657">
        <ele>746.5</ele>
        <time>2022-06-21T09:52:28Z</time>
      </trkpt>
      <trkpt lat="43.41846" lon="2.65657">
        <ele>746.5</ele>
        <time>2022-06-21T09:52:29Z</time>
      </trkpt>
      <trkpt lat="43.41846" lon="2.65657">
        <ele>746.5</ele>
        <time>2022-06-21T09:52:30Z</time>
      </trkpt>
      <trkpt lat="43.41846" lon="2.65657">
        <ele>746.5</ele>
        <time>2022-06-21T09:52:31Z</time>
      </trkpt>
      <trkpt lat="43.41846" lon="2.65657">
        <ele>746.5</ele>
        <time>2022-06-21T09:52:32Z</time>
      </trkpt>
      <trkpt lat="43.41846" lon="2.65657">
        <ele>746.5</ele>
        <time>2022-06-21T09:52:33Z</time>
      </trkpt>
      <trkpt lat="43.41846" lon="2.65657">
        <ele>746.5</ele>
        <time>2022-06-21T09:52:34Z</time>
      </trkpt>
      <trkpt lat="43.41846" lon="2.65657">
        <ele>746.5</ele>
        <time>2022-06-21T09:52:35Z</time>
      </trkpt>
      <trkpt lat="43.41846" lon="2.65657">
        <ele>746.5</ele>
        <time>2022-06-21T09:52:36Z</time>
      </trkpt>
      <trkpt lat="43.41846" lon="2.65657">
        <ele>746.5</ele>
        <time>2022-06-21T09:52:37Z</time>
      </trkpt>
      <trkpt lat="43.41846" lon="2.65657">
        <ele>746.5</ele>
        <time>2022-06-21T09:52:38Z</time>
      </trkpt>
      <trkpt lat="43.41846" lon="2.65657">
        <ele>746.5</ele>
        <time>2022-06-21T09:52:39Z</time>
      </trkpt>
      <trkpt lat="43.41846" lon="2.65657">
        <ele>746.5</ele>
        <time>2022-06-21T09:52:40Z</time>
      </trkpt>
      <trkpt lat="43.41846" lon="2.65657">
        <ele>746.5</ele>
        <time>2022-06-21T09:52:41Z</time>
      </trkpt>
      <trkpt lat="43.41846" lon="2.65657">
        <ele>746.5</ele>
        <time>2022-06-21T09:52:42Z</time>
      </trkpt>
      <trkpt lat="43.41846" lon="2.65657">
        <ele>746.5</ele>
        <time>2022-06-21T09:52:43Z</time>
      </trkpt>
      <trkpt lat="43.41846" lon="2.65657">
        <ele>746.5</ele>
        <time>2022-06-21T09:52:44Z</time>
      </trkpt>
      <trkpt lat="43.41846" lon="2.65657">
        <ele>746.5</ele>
        <time>2022-06-21T09:52:45Z</time>
      </trkpt>
      <trkpt lat="43.41846" lon="2.65657">
        <ele>746.5</ele>
        <time>2022-06-21T09:52:46Z</time>
      </trkpt>
      <trkpt lat="43.41847" lon="2.65657">
        <ele>746.5</ele>
        <time>2022-06-21T09:52:47Z</time>
      </trkpt>
      <trkpt lat="43.41848" lon="2.65657">
        <ele>746.5</ele>
        <time>2022-06-21T09:52:48Z</time>
      </trkpt>
      <trkpt lat="43.4185" lon="2.65658">
        <ele>746.3</ele>
        <time>2022-06-21T09:52:49Z</time>
      </trkpt>
      <trkpt lat="43.41851" lon="2.65658">
        <ele>746.3</ele>
        <time>2022-06-21T09:52:50Z</time>
      </trkpt>
      <trkpt lat="43.41852" lon="2.65658">
        <ele>746</ele>
        <time>2022-06-21T09:52:51Z</time>
      </trkpt>
      <trkpt lat="43.41853" lon="2.65658">
        <ele>746</ele>
        <time>2022-06-21T09:52:52Z</time>
      </trkpt>
      <trkpt lat="43.41855" lon="2.65658">
        <ele>746</ele>
        <time>2022-06-21T09:52:53Z</time>
      </trkpt>
      <trkpt lat="43.41856" lon="2.65659">
        <ele>745.8</ele>
        <time>2022-06-21T09:52:54Z</time>
      </trkpt>
      <trkpt lat="43.41857" lon="2.65659">
        <ele>745.8</ele>
        <time>2022-06-21T09:52:55Z</time>
      </trkpt>
      <trkpt lat="43.41858" lon="2.65659">
        <ele>745.6</ele>
        <time>2022-06-21T09:52:56Z</time>
      </trkpt>
      <trkpt lat="43.41859" lon="2.65659">
        <ele>745.6</ele>
        <time>2022-06-21T09:52:57Z</time>
      </trkpt>
      <trkpt lat="43.4186" lon="2.65659">
        <ele>745.6</ele>
        <time>2022-06-21T09:52:58Z</time>
      </trkpt>
      <trkpt lat="43.41861" lon="2.65659">
        <ele>745.6</ele>
        <time>2022-06-21T09:52:59Z</time>
      </trkpt>
      <trkpt lat="43.41862" lon="2.65659">
        <ele>745.4</ele>
        <time>2022-06-21T09:53:00Z</time>
      </trkpt>
      <trkpt lat="43.41862" lon="2.65659">
        <ele>745.4</ele>
        <time>2022-06-21T09:53:01Z</time>
      </trkpt>
      <trkpt lat="43.41863" lon="2.65659">
        <ele>745.4</ele>
        <time>2022-06-21T09:53:02Z</time>
      </trkpt>
      <trkpt lat="43.41864" lon="2.65659">
        <ele>745.4</ele>
        <time>2022-06-21T09:53:03Z</time>
      </trkpt>
      <trkpt lat="43.41865" lon="2.65659">
        <ele>745.2</ele>
        <time>2022-06-21T09:53:04Z</time>
      </trkpt>
      <trkpt lat="43.41866" lon="2.65659">
        <ele>745.2</ele>
        <time>2022-06-21T09:53:05Z</time>
      </trkpt>
      <trkpt lat="43.41867" lon="2.65659">
        <ele>745.2</ele>
        <time>2022-06-21T09:53:06Z</time>
      </trkpt>
      <trkpt lat="43.41867" lon="2.65659">
        <ele>745.2</ele>
        <time>2022-06-21T09:53:07Z</time>
      </trkpt>
      <trkpt lat="43.41868" lon="2.65659">
        <ele>745</ele>
        <time>2022-06-21T09:53:08Z</time>
      </trkpt>
      <trkpt lat="43.41869" lon="2.65658">
        <ele>745</ele>
        <time>2022-06-21T09:53:09Z</time>
      </trkpt>
      <trkpt lat="43.4187" lon="2.65658">
        <ele>745</ele>
        <time>2022-06-21T09:53:10Z</time>
      </trkpt>
      <trkpt lat="43.41871" lon="2.65658">
        <ele>744.8</ele>
        <time>2022-06-21T09:53:11Z</time>
      </trkpt>
      <trkpt lat="43.41872" lon="2.65658">
        <ele>744.8</ele>
        <time>2022-06-21T09:53:12Z</time>
      </trkpt>
      <trkpt lat="43.41873" lon="2.65658">
        <ele>744.8</ele>
        <time>2022-06-21T09:53:13Z</time>
      </trkpt>
      <trkpt lat="43.41874" lon="2.65657">
        <ele>744.7</ele>
        <time>2022-06-21T09:53:14Z</time>
      </trkpt>
      <trkpt lat="43.41875" lon="2.65657">
        <ele>744.7</ele>
        <time>2022-06-21T09:53:15Z</time>
      </trkpt>
      <trkpt lat="43.41876" lon="2.65657">
        <ele>744.7</ele>
        <time>2022-06-21T09:53:16Z</time>
      </trkpt>
      <trkpt lat="43.41877" lon="2.65657">
        <ele>744.5</ele>
        <time>2022-06-21T09:53:17Z</time>
      </trkpt>
      <trkpt lat="43.41878" lon="2.65656">
        <ele>744.5</ele>
        <time>2022-06-21T09:53:18Z</time>
      </trkpt>
      <trkpt lat="43.41879" lon="2.65656">
        <ele>744.5</ele>
        <time>2022-06-21T09:53:19Z</time>
      </trkpt>
      <trkpt lat="43.4188" lon="2.65656">
        <ele>744.4</ele>
        <time>2022-06-21T09:53:20Z</time>
      </trkpt>
      <trkpt lat="43.41881" lon="2.65657">
        <ele>744.4</ele>
        <time>2022-06-21T09:53:21Z</time>
      </trkpt>
      <trkpt lat="43.41882" lon="2.65657">
        <ele>744.4</ele>
        <time>2022-06-21T09:53:22Z</time>
      </trkpt>
      <trkpt lat="43.41884" lon="2.65657">
        <ele>744.3</ele>
        <time>2022-06-21T09:53:23Z</time>
      </trkpt>
      <trkpt lat="43.41885" lon="2.65657">
        <ele>744.3</ele>
        <time>2022-06-21T09:53:24Z</time>
      </trkpt>
      <trkpt lat="43.41886" lon="2.65657">
        <ele>744.3</ele>
        <time>2022-06-21T09:53:26Z</time>
      </trkpt>
      <trkpt lat="43.41886" lon="2.65657">
        <ele>744.3</ele>
        <time>2022-06-21T09:53:27Z</time>
      </trkpt>
      <trkpt lat="43.41887" lon="2.65657">
        <ele>744.3</ele>
        <time>2022-06-21T09:53:28Z</time>
      </trkpt>
      <trkpt lat="43.41888" lon="2.65657">
        <ele>744.3</ele>
        <time>2022-06-21T09:53:29Z</time>
      </trkpt>
      <trkpt lat="43.41889" lon="2.65657">
        <ele>744.3</ele>
        <time>2022-06-21T09:53:30Z</time>
      </trkpt>
      <trkpt lat="43.4189" lon="2.65656">
        <ele>744.3</ele>
        <time>2022-06-21T09:53:31Z</time>
      </trkpt>
      <trkpt lat="43.41891" lon="2.65656">
        <ele>744.3</ele>
        <time>2022-06-21T09:53:32Z</time>
      </trkpt>
      <trkpt lat="43.41892" lon="2.65656">
        <ele>744.4</ele>
        <time>2022-06-21T09:53:33Z</time>
      </trkpt>
      <trkpt lat="43.41893" lon="2.65656">
        <ele>744.4</ele>
        <time>2022-06-21T09:53:34Z</time>
      </trkpt>
      <trkpt lat="43.41894" lon="2.65656">
        <ele>744.4</ele>
        <time>2022-06-21T09:53:35Z</time>
      </trkpt>
      <trkpt lat="43.41895" lon="2.65656">
        <ele>744.4</ele>
        <time>2022-06-21T09:53:36Z</time>
      </trkpt>
      <trkpt lat="43.41896" lon="2.65656">
        <ele>744.5</ele>
        <time>2022-06-21T09:53:37Z</time>
      </trkpt>
      <trkpt lat="43.41897" lon="2.65656">
        <ele>744.5</ele>
        <time>2022-06-21T09:53:38Z</time>
      </trkpt>
      <trkpt lat="43.41898" lon="2.65656">
        <ele>744.5</ele>
        <time>2022-06-21T09:53:39Z</time>
      </trkpt>
      <trkpt lat="43.41899" lon="2.65656">
        <ele>744.5</ele>
        <time>2022-06-21T09:53:40Z</time>
      </trkpt>
      <trkpt lat="43.419" lon="2.65656">
        <ele>744.5</ele>
        <time>2022-06-21T09:53:41Z</time>
      </trkpt>
      <trkpt lat="43.41901" lon="2.65656">
        <ele>744.6</ele>
        <time>2022-06-21T09:53:42Z</time>
      </trkpt>
      <trkpt lat="43.41902" lon="2.65656">
        <ele>744.6</ele>
        <time>2022-06-21T09:53:43Z</time>
      </trkpt>
      <trkpt lat="43.41903" lon="2.65656">
        <ele>744.6</ele>
        <time>2022-06-21T09:53:44Z</time>
      </trkpt>
      <trkpt lat="43.41904" lon="2.65656">
        <ele>744.6</ele>
        <time>2022-06-21T09:53:45Z</time>
      </trkpt>
      <trkpt lat="43.41905" lon="2.65656">
        <ele>744.7</ele>
        <time>2022-06-21T09:53:46Z</time>
      </trkpt>
      <trkpt lat="43.41906" lon="2.65656">
        <ele>744.7</ele>
        <time>2022-06-21T09:53:47Z</time>
      </trkpt>
      <trkpt lat="43.41906" lon="2.65656">
        <ele>744.7</ele>
        <time>2022-06-21T09:53:48Z</time>
      </trkpt>
      <trkpt lat="43.41907" lon="2.65657">
        <ele>744.7</ele>
        <time>2022-06-21T09:53:49Z</time>
      </trkpt>
      <trkpt lat="43.41907" lon="2.65657">
        <ele>744.7</ele>
        <time>2022-06-21T09:53:50Z</time>
      </trkpt>
      <trkpt lat="43.41907" lon="2.65657">
        <ele>744.7</ele>
        <time>2022-06-21T09:53:51Z</time>
      </trkpt>
      <trkpt lat="43.41907" lon="2.65657">
        <ele>744.7</ele>
        <time>2022-06-21T09:53:52Z</time>
      </trkpt>
      <trkpt lat="43.41907" lon="2.65657">
        <ele>744.7</ele>
        <time>2022-06-21T09:53:53Z</time>
      </trkpt>
      <trkpt lat="43.41907" lon="2.65657">
        <ele>744.7</ele>
        <time>2022-06-21T09:53:54Z</time>
      </trkpt>
      <trkpt lat="43.41907" lon="2.65657">
        <ele>744.7</ele>
        <time>2022-06-21T09:53:55Z</time>
      </trkpt>
      <trkpt lat="43.41907" lon="2.65657">
        <ele>744.7</ele>
        <time>2022-06-21T09:53:56Z</time>
      </trkpt>
      <trkpt lat="43.41907" lon="2.65657">
        <ele>744.7</ele>
        <time>2022-06-21T09:53:57Z</time>
      </trkpt>
      <trkpt lat="43.41906" lon="2.65657">
        <ele>744.7</ele>
        <time>2022-06-21T09:53:58Z</time>
      </trkpt>
      <trkpt lat="43.41907" lon="2.65657">
        <ele>744.7</ele>
        <time>2022-06-21T09:53:59Z</time>
      </trkpt>
      <trkpt lat="43.41907" lon="2.65657">
        <ele>744.8</ele>
        <time>2022-06-21T09:54:00Z</time>
      </trkpt>
      <trkpt lat="43.41908" lon="2.65658">
        <ele>744.8</ele>
        <time>2022-06-21T09:54:01Z</time>
      </trkpt>
      <trkpt lat="43.41908" lon="2.65658">
        <ele>744.8</ele>
        <time>2022-06-21T09:54:02Z</time>
      </trkpt>
      <trkpt lat="43.4191" lon="2.65658">
        <ele>744.8</ele>
        <time>2022-06-21T09:54:03Z</time>
      </trkpt>
      <trkpt lat="43.4191" lon="2.65658">
        <ele>744.8</ele>
        <time>2022-06-21T09:54:04Z</time>
      </trkpt>
      <trkpt lat="43.41911" lon="2.65658">
        <ele>744.8</ele>
        <time>2022-06-21T09:54:05Z</time>
      </trkpt>
      <trkpt lat="43.41911" lon="2.65658">
        <ele>744.9</ele>
        <time>2022-06-21T09:54:06Z</time>
      </trkpt>
      <trkpt lat="43.41912" lon="2.65658">
        <ele>744.9</ele>
        <time>2022-06-21T09:54:07Z</time>
      </trkpt>
      <trkpt lat="43.41913" lon="2.65659">
        <ele>744.9</ele>
        <time>2022-06-21T09:54:08Z</time>
      </trkpt>
      <trkpt lat="43.41914" lon="2.65659">
        <ele>744.9</ele>
        <time>2022-06-21T09:54:09Z</time>
      </trkpt>
      <trkpt lat="43.41914" lon="2.6566">
        <ele>744.9</ele>
        <time>2022-06-21T09:54:10Z</time>
      </trkpt>
      <trkpt lat="43.41915" lon="2.6566">
        <ele>744.9</ele>
        <time>2022-06-21T09:54:11Z</time>
      </trkpt>
      <trkpt lat="43.41915" lon="2.6566">
        <ele>744.9</ele>
        <time>2022-06-21T09:54:12Z</time>
      </trkpt>
      <trkpt lat="43.41915" lon="2.6566">
        <ele>744.9</ele>
        <time>2022-06-21T09:54:13Z</time>
      </trkpt>
      <trkpt lat="43.41915" lon="2.6566">
        <ele>744.9</ele>
        <time>2022-06-21T09:54:14Z</time>
      </trkpt>
      <trkpt lat="43.41915" lon="2.6566">
        <ele>744.9</ele>
        <time>2022-06-21T09:54:15Z</time>
      </trkpt>
      <trkpt lat="43.41915" lon="2.65661">
        <ele>745</ele>
        <time>2022-06-21T09:54:16Z</time>
      </trkpt>
      <trkpt lat="43.41915" lon="2.65661">
        <ele>745</ele>
        <time>2022-06-21T09:54:17Z</time>
      </trkpt>
      <trkpt lat="43.41916" lon="2.65662">
        <ele>745</ele>
        <time>2022-06-21T09:54:18Z</time>
      </trkpt>
      <trkpt lat="43.41916" lon="2.65662">
        <ele>744.7</ele>
        <time>2022-06-21T09:54:19Z</time>
      </trkpt>
      <trkpt lat="43.41916" lon="2.65663">
        <ele>744.7</ele>
        <time>2022-06-21T09:54:20Z</time>
      </trkpt>
      <trkpt lat="43.41916" lon="2.65663">
        <ele>744.7</ele>
        <time>2022-06-21T09:54:21Z</time>
      </trkpt>
      <trkpt lat="43.41916" lon="2.65663">
        <ele>744.7</ele>
        <time>2022-06-21T09:54:22Z</time>
      </trkpt>
      <trkpt lat="43.41916" lon="2.65663">
        <ele>744.7</ele>
        <time>2022-06-21T09:54:23Z</time>
      </trkpt>
      <trkpt lat="43.41916" lon="2.65663">
        <ele>744.7</ele>
        <time>2022-06-21T09:54:24Z</time>
      </trkpt>
      <trkpt lat="43.41916" lon="2.65663">
        <ele>744.6</ele>
        <time>2022-06-21T09:54:25Z</time>
      </trkpt>
      <trkpt lat="43.41917" lon="2.65664">
        <ele>744.6</ele>
        <time>2022-06-21T09:54:26Z</time>
      </trkpt>
      <trkpt lat="43.41918" lon="2.65665">
        <ele>744.5</ele>
        <time>2022-06-21T09:54:27Z</time>
      </trkpt>
      <trkpt lat="43.41919" lon="2.65666">
        <ele>744.5</ele>
        <time>2022-06-21T09:54:28Z</time>
      </trkpt>
      <trkpt lat="43.41919" lon="2.65667">
        <ele>744.5</ele>
        <time>2022-06-21T09:54:29Z</time>
      </trkpt>
      <trkpt lat="43.4192" lon="2.65668">
        <ele>744.4</ele>
        <time>2022-06-21T09:54:30Z</time>
      </trkpt>
      <trkpt lat="43.4192" lon="2.65669">
        <ele>744.4</ele>
        <time>2022-06-21T09:54:31Z</time>
      </trkpt>
      <trkpt lat="43.4192" lon="2.6567">
        <ele>744.4</ele>
        <time>2022-06-21T09:54:32Z</time>
      </trkpt>
      <trkpt lat="43.41921" lon="2.65671">
        <ele>744.4</ele>
        <time>2022-06-21T09:54:33Z</time>
      </trkpt>
      <trkpt lat="43.41921" lon="2.65672">
        <ele>744.4</ele>
        <time>2022-06-21T09:54:34Z</time>
      </trkpt>
      <trkpt lat="43.41922" lon="2.65673">
        <ele>744.4</ele>
        <time>2022-06-21T09:54:35Z</time>
      </trkpt>
      <trkpt lat="43.41922" lon="2.65675">
        <ele>744.4</ele>
        <time>2022-06-21T09:54:36Z</time>
      </trkpt>
      <trkpt lat="43.41922" lon="2.65676">
        <ele>744.4</ele>
        <time>2022-06-21T09:54:37Z</time>
      </trkpt>
      <trkpt lat="43.41922" lon="2.65677">
        <ele>744.4</ele>
        <time>2022-06-21T09:54:38Z</time>
      </trkpt>
      <trkpt lat="43.41923" lon="2.65678">
        <ele>744.4</ele>
        <time>2022-06-21T09:54:39Z</time>
      </trkpt>
      <trkpt lat="43.41923" lon="2.65679">
        <ele>744.4</ele>
        <time>2022-06-21T09:54:40Z</time>
      </trkpt>
      <trkpt lat="43.41923" lon="2.6568">
        <ele>744.4</ele>
        <time>2022-06-21T09:54:41Z</time>
      </trkpt>
      <trkpt lat="43.41924" lon="2.65681">
        <ele>744.4</ele>
        <time>2022-06-21T09:54:42Z</time>
      </trkpt>
      <trkpt lat="43.41924" lon="2.65682">
        <ele>744.4</ele>
        <time>2022-06-21T09:54:43Z</time>
      </trkpt>
      <trkpt lat="43.41924" lon="2.65683">
        <ele>744.4</ele>
        <time>2022-06-21T09:54:44Z</time>
      </trkpt>
      <trkpt lat="43.41925" lon="2.65684">
        <ele>744.5</ele>
        <time>2022-06-21T09:54:45Z</time>
      </trkpt>
      <trkpt lat="43.41925" lon="2.65686">
        <ele>744.5</ele>
        <time>2022-06-21T09:54:46Z</time>
      </trkpt>
      <trkpt lat="43.41925" lon="2.65687">
        <ele>744.5</ele>
        <time>2022-06-21T09:54:47Z</time>
      </trkpt>
      <trkpt lat="43.41926" lon="2.65688">
        <ele>744.5</ele>
        <time>2022-06-21T09:54:48Z</time>
      </trkpt>
      <trkpt lat="43.41926" lon="2.65688">
        <ele>744.5</ele>
        <time>2022-06-21T09:54:49Z</time>
      </trkpt>
      <trkpt lat="43.41926" lon="2.65689">
        <ele>744.6</ele>
        <time>2022-06-21T09:54:50Z</time>
      </trkpt>
      <trkpt lat="43.41927" lon="2.6569">
        <ele>744.6</ele>
        <time>2022-06-21T09:54:51Z</time>
      </trkpt>
      <trkpt lat="43.41927" lon="2.65691">
        <ele>744.6</ele>
        <time>2022-06-21T09:54:52Z</time>
      </trkpt>
      <trkpt lat="43.41927" lon="2.65692">
        <ele>744.7</ele>
        <time>2022-06-21T09:54:53Z</time>
      </trkpt>
      <trkpt lat="43.41928" lon="2.65694">
        <ele>744.7</ele>
        <time>2022-06-21T09:54:54Z</time>
      </trkpt>
      <trkpt lat="43.41928" lon="2.65695">
        <ele>744.7</ele>
        <time>2022-06-21T09:54:55Z</time>
      </trkpt>
      <trkpt lat="43.41929" lon="2.65696">
        <ele>744.7</ele>
        <time>2022-06-21T09:54:56Z</time>
      </trkpt>
      <trkpt lat="43.41929" lon="2.65697">
        <ele>744.8</ele>
        <time>2022-06-21T09:54:57Z</time>
      </trkpt>
      <trkpt lat="43.41929" lon="2.65698">
        <ele>744.8</ele>
        <time>2022-06-21T09:54:58Z</time>
      </trkpt>
      <trkpt lat="43.41929" lon="2.657">
        <ele>744.8</ele>
        <time>2022-06-21T09:54:59Z</time>
      </trkpt>
      <trkpt lat="43.41929" lon="2.65701">
        <ele>744.9</ele>
        <time>2022-06-21T09:55:00Z</time>
      </trkpt>
      <trkpt lat="43.4193" lon="2.65702">
        <ele>744.9</ele>
        <time>2022-06-21T09:55:01Z</time>
      </trkpt>
      <trkpt lat="43.4193" lon="2.65704">
        <ele>744.9</ele>
        <time>2022-06-21T09:55:02Z</time>
      </trkpt>
      <trkpt lat="43.41931" lon="2.65705">
        <ele>744.9</ele>
        <time>2022-06-21T09:55:03Z</time>
      </trkpt>
      <trkpt lat="43.41931" lon="2.65706">
        <ele>745</ele>
        <time>2022-06-21T09:55:04Z</time>
      </trkpt>
      <trkpt lat="43.41931" lon="2.65707">
        <ele>745</ele>
        <time>2022-06-21T09:55:05Z</time>
      </trkpt>
      <trkpt lat="43.41932" lon="2.65708">
        <ele>745</ele>
        <time>2022-06-21T09:55:06Z</time>
      </trkpt>
      <trkpt lat="43.41932" lon="2.65709">
        <ele>745</ele>
        <time>2022-06-21T09:55:07Z</time>
      </trkpt>
      <trkpt lat="43.41933" lon="2.6571">
        <ele>745</ele>
        <time>2022-06-21T09:55:08Z</time>
      </trkpt>
      <trkpt lat="43.41933" lon="2.65711">
        <ele>745</ele>
        <time>2022-06-21T09:55:09Z</time>
      </trkpt>
      <trkpt lat="43.41933" lon="2.65712">
        <ele>745</ele>
        <time>2022-06-21T09:55:10Z</time>
      </trkpt>
      <trkpt lat="43.41934" lon="2.65713">
        <ele>745.1</ele>
        <time>2022-06-21T09:55:11Z</time>
      </trkpt>
      <trkpt lat="43.41934" lon="2.65714">
        <ele>745.1</ele>
        <time>2022-06-21T09:55:12Z</time>
      </trkpt>
      <trkpt lat="43.41935" lon="2.65715">
        <ele>745.1</ele>
        <time>2022-06-21T09:55:13Z</time>
      </trkpt>
      <trkpt lat="43.41935" lon="2.65716">
        <ele>745.1</ele>
        <time>2022-06-21T09:55:14Z</time>
      </trkpt>
      <trkpt lat="43.41936" lon="2.65718">
        <ele>745.1</ele>
        <time>2022-06-21T09:55:15Z</time>
      </trkpt>
      <trkpt lat="43.41936" lon="2.65719">
        <ele>745.1</ele>
        <time>2022-06-21T09:55:16Z</time>
      </trkpt>
      <trkpt lat="43.41937" lon="2.6572">
        <ele>745.1</ele>
        <time>2022-06-21T09:55:17Z</time>
      </trkpt>
      <trkpt lat="43.41937" lon="2.65721">
        <ele>745</ele>
        <time>2022-06-21T09:55:18Z</time>
      </trkpt>
      <trkpt lat="43.41938" lon="2.65722">
        <ele>745</ele>
        <time>2022-06-21T09:55:19Z</time>
      </trkpt>
      <trkpt lat="43.41938" lon="2.65723">
        <ele>745</ele>
        <time>2022-06-21T09:55:20Z</time>
      </trkpt>
      <trkpt lat="43.41939" lon="2.65725">
        <ele>745</ele>
        <time>2022-06-21T09:55:21Z</time>
      </trkpt>
      <trkpt lat="43.41939" lon="2.65726">
        <ele>745</ele>
        <time>2022-06-21T09:55:22Z</time>
      </trkpt>
      <trkpt lat="43.4194" lon="2.65727">
        <ele>744.9</ele>
        <time>2022-06-21T09:55:23Z</time>
      </trkpt>
      <trkpt lat="43.4194" lon="2.65728">
        <ele>744.9</ele>
        <time>2022-06-21T09:55:24Z</time>
      </trkpt>
      <trkpt lat="43.4194" lon="2.6573">
        <ele>744.9</ele>
        <time>2022-06-21T09:55:25Z</time>
      </trkpt>
      <trkpt lat="43.41941" lon="2.65731">
        <ele>744.9</ele>
        <time>2022-06-21T09:55:26Z</time>
      </trkpt>
      <trkpt lat="43.41941" lon="2.65732">
        <ele>744.9</ele>
        <time>2022-06-21T09:55:27Z</time>
      </trkpt>
      <trkpt lat="43.41942" lon="2.65733">
        <ele>744.8</ele>
        <time>2022-06-21T09:55:28Z</time>
      </trkpt>
      <trkpt lat="43.41942" lon="2.65734">
        <ele>744.8</ele>
        <time>2022-06-21T09:55:29Z</time>
      </trkpt>
      <trkpt lat="43.41943" lon="2.65735">
        <ele>744.8</ele>
        <time>2022-06-21T09:55:30Z</time>
      </trkpt>
      <trkpt lat="43.41943" lon="2.65737">
        <ele>744.8</ele>
        <time>2022-06-21T09:55:31Z</time>
      </trkpt>
      <trkpt lat="43.41943" lon="2.65738">
        <ele>744.8</ele>
        <time>2022-06-21T09:55:32Z</time>
      </trkpt>
      <trkpt lat="43.41944" lon="2.65739">
        <ele>744.8</ele>
        <time>2022-06-21T09:55:33Z</time>
      </trkpt>
      <trkpt lat="43.41944" lon="2.6574">
        <ele>744.7</ele>
        <time>2022-06-21T09:55:34Z</time>
      </trkpt>
      <trkpt lat="43.41944" lon="2.65741">
        <ele>744.7</ele>
        <time>2022-06-21T09:55:35Z</time>
      </trkpt>
      <trkpt lat="43.41945" lon="2.65743">
        <ele>744.7</ele>
        <time>2022-06-21T09:55:36Z</time>
      </trkpt>
      <trkpt lat="43.41945" lon="2.65744">
        <ele>744.7</ele>
        <time>2022-06-21T09:55:37Z</time>
      </trkpt>
      <trkpt lat="43.41945" lon="2.65745">
        <ele>744.7</ele>
        <time>2022-06-21T09:55:38Z</time>
      </trkpt>
      <trkpt lat="43.41946" lon="2.65746">
        <ele>744.7</ele>
        <time>2022-06-21T09:55:39Z</time>
      </trkpt>
      <trkpt lat="43.41946" lon="2.65747">
        <ele>744.7</ele>
        <time>2022-06-21T09:55:40Z</time>
      </trkpt>
      <trkpt lat="43.41946" lon="2.65748">
        <ele>744.7</ele>
        <time>2022-06-21T09:55:41Z</time>
      </trkpt>
      <trkpt lat="43.41947" lon="2.6575">
        <ele>744.7</ele>
        <time>2022-06-21T09:55:42Z</time>
      </trkpt>
      <trkpt lat="43.41947" lon="2.65751">
        <ele>744.8</ele>
        <time>2022-06-21T09:55:43Z</time>
      </trkpt>
      <trkpt lat="43.41947" lon="2.65752">
        <ele>744.8</ele>
        <time>2022-06-21T09:55:44Z</time>
      </trkpt>
      <trkpt lat="43.41948" lon="2.65753">
        <ele>744.8</ele>
        <time>2022-06-21T09:55:45Z</time>
      </trkpt>
      <trkpt lat="43.41948" lon="2.65755">
        <ele>744.8</ele>
        <time>2022-06-21T09:55:46Z</time>
      </trkpt>
      <trkpt lat="43.41948" lon="2.65756">
        <ele>744.8</ele>
        <time>2022-06-21T09:55:47Z</time>
      </trkpt>
      <trkpt lat="43.41949" lon="2.65757">
        <ele>744.8</ele>
        <time>2022-06-21T09:55:48Z</time>
      </trkpt>
      <trkpt lat="43.41949" lon="2.65759">
        <ele>744.8</ele>
        <time>2022-06-21T09:55:49Z</time>
      </trkpt>
      <trkpt lat="43.41949" lon="2.6576">
        <ele>744.8</ele>
        <time>2022-06-21T09:55:50Z</time>
      </trkpt>
      <trkpt lat="43.4195" lon="2.65761">
        <ele>744.8</ele>
        <time>2022-06-21T09:55:51Z</time>
      </trkpt>
      <trkpt lat="43.4195" lon="2.65762">
        <ele>744.8</ele>
        <time>2022-06-21T09:55:52Z</time>
      </trkpt>
      <trkpt lat="43.4195" lon="2.65763">
        <ele>744.8</ele>
        <time>2022-06-21T09:55:53Z</time>
      </trkpt>
      <trkpt lat="43.4195" lon="2.65765">
        <ele>744.8</ele>
        <time>2022-06-21T09:55:54Z</time>
      </trkpt>
      <trkpt lat="43.41951" lon="2.65766">
        <ele>744.8</ele>
        <time>2022-06-21T09:55:55Z</time>
      </trkpt>
      <trkpt lat="43.41951" lon="2.65767">
        <ele>744.8</ele>
        <time>2022-06-21T09:55:56Z</time>
      </trkpt>
      <trkpt lat="43.41951" lon="2.65769">
        <ele>744.8</ele>
        <time>2022-06-21T09:55:57Z</time>
      </trkpt>
      <trkpt lat="43.41952" lon="2.6577">
        <ele>744.8</ele>
        <time>2022-06-21T09:55:58Z</time>
      </trkpt>
      <trkpt lat="43.41952" lon="2.65771">
        <ele>744.8</ele>
        <time>2022-06-21T09:55:59Z</time>
      </trkpt>
      <trkpt lat="43.41952" lon="2.65773">
        <ele>744.7</ele>
        <time>2022-06-21T09:56:00Z</time>
      </trkpt>
      <trkpt lat="43.41953" lon="2.65774">
        <ele>744.7</ele>
        <time>2022-06-21T09:56:01Z</time>
      </trkpt>
      <trkpt lat="43.41953" lon="2.65775">
        <ele>744.7</ele>
        <time>2022-06-21T09:56:02Z</time>
      </trkpt>
      <trkpt lat="43.41953" lon="2.65776">
        <ele>744.7</ele>
        <time>2022-06-21T09:56:03Z</time>
      </trkpt>
      <trkpt lat="43.41954" lon="2.65777">
        <ele>744.7</ele>
        <time>2022-06-21T09:56:04Z</time>
      </trkpt>
      <trkpt lat="43.41954" lon="2.65778">
        <ele>744.7</ele>
        <time>2022-06-21T09:56:05Z</time>
      </trkpt>
      <trkpt lat="43.41955" lon="2.6578">
        <ele>744.6</ele>
        <time>2022-06-21T09:56:06Z</time>
      </trkpt>
      <trkpt lat="43.41955" lon="2.6578">
        <ele>744.6</ele>
        <time>2022-06-21T09:56:07Z</time>
      </trkpt>
      <trkpt lat="43.41955" lon="2.65782">
        <ele>744.6</ele>
        <time>2022-06-21T09:56:08Z</time>
      </trkpt>
      <trkpt lat="43.41955" lon="2.65783">
        <ele>744.6</ele>
        <time>2022-06-21T09:56:09Z</time>
      </trkpt>
      <trkpt lat="43.41955" lon="2.65784">
        <ele>744.6</ele>
        <time>2022-06-21T09:56:10Z</time>
      </trkpt>
      <trkpt lat="43.41955" lon="2.65785">
        <ele>744.5</ele>
        <time>2022-06-21T09:56:11Z</time>
      </trkpt>
      <trkpt lat="43.41956" lon="2.65786">
        <ele>744.5</ele>
        <time>2022-06-21T09:56:12Z</time>
      </trkpt>
      <trkpt lat="43.41956" lon="2.65787">
        <ele>744.5</ele>
        <time>2022-06-21T09:56:13Z</time>
      </trkpt>
      <trkpt lat="43.41956" lon="2.65788">
        <ele>744.5</ele>
        <time>2022-06-21T09:56:14Z</time>
      </trkpt>
      <trkpt lat="43.41957" lon="2.65789">
        <ele>744.5</ele>
        <time>2022-06-21T09:56:15Z</time>
      </trkpt>
      <trkpt lat="43.41957" lon="2.6579">
        <ele>744.5</ele>
        <time>2022-06-21T09:56:16Z</time>
      </trkpt>
      <trkpt lat="43.41958" lon="2.6579">
        <ele>744.5</ele>
        <time>2022-06-21T09:56:17Z</time>
      </trkpt>
      <trkpt lat="43.41958" lon="2.65792">
        <ele>744.5</ele>
        <time>2022-06-21T09:56:18Z</time>
      </trkpt>
      <trkpt lat="43.41959" lon="2.65792">
        <ele>744.4</ele>
        <time>2022-06-21T09:56:19Z</time>
      </trkpt>
      <trkpt lat="43.41959" lon="2.65793">
        <ele>744.4</ele>
        <time>2022-06-21T09:56:20Z</time>
      </trkpt>
      <trkpt lat="43.4196" lon="2.65794">
        <ele>744.4</ele>
        <time>2022-06-21T09:56:21Z</time>
      </trkpt>
      <trkpt lat="43.4196" lon="2.65795">
        <ele>744.4</ele>
        <time>2022-06-21T09:56:22Z</time>
      </trkpt>
      <trkpt lat="43.41961" lon="2.65796">
        <ele>744.4</ele>
        <time>2022-06-21T09:56:23Z</time>
      </trkpt>
      <trkpt lat="43.41961" lon="2.65798">
        <ele>744.4</ele>
        <time>2022-06-21T09:56:24Z</time>
      </trkpt>
      <trkpt lat="43.41962" lon="2.65799">
        <ele>744.4</ele>
        <time>2022-06-21T09:56:25Z</time>
      </trkpt>
      <trkpt lat="43.41962" lon="2.65799">
        <ele>744.4</ele>
        <time>2022-06-21T09:56:26Z</time>
      </trkpt>
      <trkpt lat="43.41963" lon="2.658">
        <ele>744.4</ele>
        <time>2022-06-21T09:56:27Z</time>
      </trkpt>
      <trkpt lat="43.41963" lon="2.65801">
        <ele>744.4</ele>
        <time>2022-06-21T09:56:28Z</time>
      </trkpt>
      <trkpt lat="43.41964" lon="2.65802">
        <ele>744.4</ele>
        <time>2022-06-21T09:56:29Z</time>
      </trkpt>
      <trkpt lat="43.41965" lon="2.65803">
        <ele>744.4</ele>
        <time>2022-06-21T09:56:30Z</time>
      </trkpt>
      <trkpt lat="43.41965" lon="2.65804">
        <ele>744.3</ele>
        <time>2022-06-21T09:56:31Z</time>
      </trkpt>
      <trkpt lat="43.41966" lon="2.65805">
        <ele>744.3</ele>
        <time>2022-06-21T09:56:32Z</time>
      </trkpt>
      <trkpt lat="43.41966" lon="2.65806">
        <ele>744.3</ele>
        <time>2022-06-21T09:56:33Z</time>
      </trkpt>
      <trkpt lat="43.41966" lon="2.65806">
        <ele>744.3</ele>
        <time>2022-06-21T09:56:34Z</time>
      </trkpt>
      <trkpt lat="43.41966" lon="2.65806">
        <ele>744.3</ele>
        <time>2022-06-21T09:56:35Z</time>
      </trkpt>
      <trkpt lat="43.41966" lon="2.65806">
        <ele>744.3</ele>
        <time>2022-06-21T09:56:36Z</time>
      </trkpt>
      <trkpt lat="43.41966" lon="2.65806">
        <ele>744.3</ele>
        <time>2022-06-21T09:56:37Z</time>
      </trkpt>
      <trkpt lat="43.41966" lon="2.65806">
        <ele>744.3</ele>
        <time>2022-06-21T09:56:38Z</time>
      </trkpt>
      <trkpt lat="43.41966" lon="2.65806">
        <ele>744.3</ele>
        <time>2022-06-21T09:56:39Z</time>
      </trkpt>
      <trkpt lat="43.41966" lon="2.65806">
        <ele>744.3</ele>
        <time>2022-06-21T09:56:40Z</time>
      </trkpt>
      <trkpt lat="43.41966" lon="2.65806">
        <ele>744.3</ele>
        <time>2022-06-21T09:56:41Z</time>
      </trkpt>
      <trkpt lat="43.41966" lon="2.65806">
        <ele>744.3</ele>
        <time>2022-06-21T09:56:42Z</time>
      </trkpt>
      <trkpt lat="43.41966" lon="2.65806">
        <ele>744.3</ele>
        <time>2022-06-21T09:56:43Z</time>
      </trkpt>
      <trkpt lat="43.41966" lon="2.65806">
        <ele>744.3</ele>
        <time>2022-06-21T09:56:44Z</time>
      </trkpt>
      <trkpt lat="43.41966" lon="2.65806">
        <ele>744.3</ele>
        <time>2022-06-21T09:56:45Z</time>
      </trkpt>
      <trkpt lat="43.41966" lon="2.65806">
        <ele>744.3</ele>
        <time>2022-06-21T09:56:46Z</time>
      </trkpt>
      <trkpt lat="43.41966" lon="2.65807">
        <ele>744.3</ele>
        <time>2022-06-21T09:56:47Z</time>
      </trkpt>
      <trkpt lat="43.41966" lon="2.65807">
        <ele>744.3</ele>
        <time>2022-06-21T09:56:48Z</time>
      </trkpt>
      <trkpt lat="43.41966" lon="2.65808">
        <ele>744.3</ele>
        <time>2022-06-21T09:56:49Z</time>
      </trkpt>
      <trkpt lat="43.41966" lon="2.65808">
        <ele>744.3</ele>
        <time>2022-06-21T09:56:50Z</time>
      </trkpt>
      <trkpt lat="43.41966" lon="2.65808">
        <ele>744.3</ele>
        <time>2022-06-21T09:56:51Z</time>
      </trkpt>
      <trkpt lat="43.41966" lon="2.65808">
        <ele>744.3</ele>
        <time>2022-06-21T09:56:52Z</time>
      </trkpt>
      <trkpt lat="43.41966" lon="2.65808">
        <ele>744.3</ele>
        <time>2022-06-21T09:56:53Z</time>
      </trkpt>
      <trkpt lat="43.41966" lon="2.65808">
        <ele>744.3</ele>
        <time>2022-06-21T09:56:54Z</time>
      </trkpt>
      <trkpt lat="43.41966" lon="2.65808">
        <ele>744.3</ele>
        <time>2022-06-21T09:56:55Z</time>
      </trkpt>
      <trkpt lat="43.41966" lon="2.65808">
        <ele>744.3</ele>
        <time>2022-06-21T09:56:56Z</time>
      </trkpt>
      <trkpt lat="43.41966" lon="2.65808">
        <ele>744.3</ele>
        <time>2022-06-21T09:56:57Z</time>
      </trkpt>
      <trkpt lat="43.41966" lon="2.65808">
        <ele>744.3</ele>
        <time>2022-06-21T09:56:58Z</time>
      </trkpt>
      <trkpt lat="43.41967" lon="2.65808">
        <ele>744.3</ele>
        <time>2022-06-21T09:56:59Z</time>
      </trkpt>
      <trkpt lat="43.41967" lon="2.65809">
        <ele>744.2</ele>
        <time>2022-06-21T09:57:00Z</time>
      </trkpt>
      <trkpt lat="43.41967" lon="2.65809">
        <ele>744.2</ele>
        <time>2022-06-21T09:57:01Z</time>
      </trkpt>
      <trkpt lat="43.41967" lon="2.65809">
        <ele>744.2</ele>
        <time>2022-06-21T09:57:02Z</time>
      </trkpt>
      <trkpt lat="43.41967" lon="2.65809">
        <ele>744.2</ele>
        <time>2022-06-21T09:57:03Z</time>
      </trkpt>
      <trkpt lat="43.41967" lon="2.65809">
        <ele>744.2</ele>
        <time>2022-06-21T09:57:04Z</time>
      </trkpt>
      <trkpt lat="43.41967" lon="2.65809">
        <ele>744.2</ele>
        <time>2022-06-21T09:57:05Z</time>
      </trkpt>
      <trkpt lat="43.41967" lon="2.65809">
        <ele>744.2</ele>
        <time>2022-06-21T09:57:06Z</time>
      </trkpt>
      <trkpt lat="43.41967" lon="2.65809">
        <ele>744.2</ele>
        <time>2022-06-21T09:57:07Z</time>
      </trkpt>
      <trkpt lat="43.41967" lon="2.65809">
        <ele>744.2</ele>
        <time>2022-06-21T09:57:08Z</time>
      </trkpt>
      <trkpt lat="43.41967" lon="2.65809">
        <ele>744.2</ele>
        <time>2022-06-21T09:57:09Z</time>
      </trkpt>
      <trkpt lat="43.41967" lon="2.65809">
        <ele>744.2</ele>
        <time>2022-06-21T09:57:10Z</time>
      </trkpt>
      <trkpt lat="43.41967" lon="2.65809">
        <ele>744.2</ele>
        <time>2022-06-21T09:57:11Z</time>
      </trkpt>
      <trkpt lat="43.41967" lon="2.65809">
        <ele>744.2</ele>
        <time>2022-06-21T09:57:12Z</time>
      </trkpt>
      <trkpt lat="43.41967" lon="2.65809">
        <ele>744.2</ele>
        <time>2022-06-21T09:57:13Z</time>
      </trkpt>
      <trkpt lat="43.41967" lon="2.65809">
        <ele>744.2</ele>
        <time>2022-06-21T09:57:14Z</time>
      </trkpt>
      <trkpt lat="43.41967" lon="2.65809">
        <ele>744.2</ele>
        <time>2022-06-21T09:57:15Z</time>
      </trkpt>
      <trkpt lat="43.41967" lon="2.65809">
        <ele>744.2</ele>
        <time>2022-06-21T09:57:16Z</time>
      </trkpt>
      <trkpt lat="43.41967" lon="2.65809">
        <ele>744.2</ele>
        <time>2022-06-21T09:57:17Z</time>
      </trkpt>
      <trkpt lat="43.41967" lon="2.65809">
        <ele>744.2</ele>
        <time>2022-06-21T09:57:18Z</time>
      </trkpt>
      <trkpt lat="43.41967" lon="2.65809">
        <ele>744.2</ele>
        <time>2022-06-21T09:57:19Z</time>
      </trkpt>
      <trkpt lat="43.41967" lon="2.65809">
        <ele>744.2</ele>
        <time>2022-06-21T09:57:20Z</time>
      </trkpt>
      <trkpt lat="43.41967" lon="2.65809">
        <ele>744.2</ele>
        <time>2022-06-21T09:57:21Z</time>
      </trkpt>
      <trkpt lat="43.41967" lon="2.65809">
        <ele>744.2</ele>
        <time>2022-06-21T09:57:22Z</time>
      </trkpt>
      <trkpt lat="43.41967" lon="2.65809">
        <ele>744.2</ele>
        <time>2022-06-21T09:57:23Z</time>
      </trkpt>
      <trkpt lat="43.41967" lon="2.65809">
        <ele>744.2</ele>
        <time>2022-06-21T09:57:24Z</time>
      </trkpt>
      <trkpt lat="43.41967" lon="2.65809">
        <ele>744.2</ele>
        <time>2022-06-21T09:57:25Z</time>
      </trkpt>
      <trkpt lat="43.41967" lon="2.65809">
        <ele>744.2</ele>
        <time>2022-06-21T09:57:26Z</time>
      </trkpt>
      <trkpt lat="43.41967" lon="2.65809">
        <ele>744.2</ele>
        <time>2022-06-21T09:57:27Z</time>
      </trkpt>
      <trkpt lat="43.41967" lon="2.65809">
        <ele>744.2</ele>
        <time>2022-06-21T09:57:28Z</time>
      </trkpt>
      <trkpt lat="43.41967" lon="2.65809">
        <ele>744.2</ele>
        <time>2022-06-21T09:57:29Z</time>
      </trkpt>
      <trkpt lat="43.41967" lon="2.65809">
        <ele>744.2</ele>
        <time>2022-06-21T09:57:30Z</time>
      </trkpt>
      <trkpt lat="43.41967" lon="2.65809">
        <ele>744.2</ele>
        <time>2022-06-21T09:57:31Z</time>
      </trkpt>
      <trkpt lat="43.41967" lon="2.65809">
        <ele>744.2</ele>
        <time>2022-06-21T09:57:32Z</time>
      </trkpt>
      <trkpt lat="43.41967" lon="2.65809">
        <ele>744.2</ele>
        <time>2022-06-21T09:57:33Z</time>
      </trkpt>
      <trkpt lat="43.41967" lon="2.65809">
        <ele>744.2</ele>
        <time>2022-06-21T09:57:34Z</time>
      </trkpt>
      <trkpt lat="43.41967" lon="2.65809">
        <ele>744.2</ele>
        <time>2022-06-21T09:57:35Z</time>
      </trkpt>
      <trkpt lat="43.41968" lon="2.6581">
        <ele>744.2</ele>
        <time>2022-06-21T09:57:36Z</time>
      </trkpt>
      <trkpt lat="43.41968" lon="2.6581">
        <ele>744.2</ele>
        <time>2022-06-21T09:57:37Z</time>
      </trkpt>
      <trkpt lat="43.41969" lon="2.6581">
        <ele>744.2</ele>
        <time>2022-06-21T09:57:38Z</time>
      </trkpt>
      <trkpt lat="43.4197" lon="2.65811">
        <ele>744.2</ele>
        <time>2022-06-21T09:57:39Z</time>
      </trkpt>
      <trkpt lat="43.41971" lon="2.65811">
        <ele>744.2</ele>
        <time>2022-06-21T09:57:40Z</time>
      </trkpt>
      <trkpt lat="43.41971" lon="2.65812">
        <ele>744.2</ele>
        <time>2022-06-21T09:57:41Z</time>
      </trkpt>
      <trkpt lat="43.41971" lon="2.65811">
        <ele>744.2</ele>
        <time>2022-06-21T09:57:42Z</time>
      </trkpt>
      <trkpt lat="43.41972" lon="2.65811">
        <ele>744.2</ele>
        <time>2022-06-21T09:57:43Z</time>
      </trkpt>
      <trkpt lat="43.41971" lon="2.65811">
        <ele>744.2</ele>
        <time>2022-06-21T09:57:44Z</time>
      </trkpt>
      <trkpt lat="43.41971" lon="2.65811">
        <ele>744.2</ele>
        <time>2022-06-21T09:57:45Z</time>
      </trkpt>
      <trkpt lat="43.41971" lon="2.65811">
        <ele>744.2</ele>
        <time>2022-06-21T09:57:46Z</time>
      </trkpt>
      <trkpt lat="43.41971" lon="2.65811">
        <ele>744.2</ele>
        <time>2022-06-21T09:57:47Z</time>
      </trkpt>
      <trkpt lat="43.41971" lon="2.65811">
        <ele>744.2</ele>
        <time>2022-06-21T09:57:48Z</time>
      </trkpt>
      <trkpt lat="43.41971" lon="2.65811">
        <ele>744.2</ele>
        <time>2022-06-21T09:57:49Z</time>
      </trkpt>
      <trkpt lat="43.41971" lon="2.65811">
        <ele>744.2</ele>
        <time>2022-06-21T09:57:50Z</time>
      </trkpt>
      <trkpt lat="43.41971" lon="2.65811">
        <ele>744.2</ele>
        <time>2022-06-21T09:57:51Z</time>
      </trkpt>
      <trkpt lat="43.41971" lon="2.65811">
        <ele>744.2</ele>
        <time>2022-06-21T09:57:52Z</time>
      </trkpt>
      <trkpt lat="43.41971" lon="2.65811">
        <ele>744.2</ele>
        <time>2022-06-21T09:57:53Z</time>
      </trkpt>
      <trkpt lat="43.41972" lon="2.65811">
        <ele>744.2</ele>
        <time>2022-06-21T09:57:54Z</time>
      </trkpt>
      <trkpt lat="43.41972" lon="2.65812">
        <ele>744.2</ele>
        <time>2022-06-21T09:57:55Z</time>
      </trkpt>
      <trkpt lat="43.41973" lon="2.65812">
        <ele>744.1</ele>
        <time>2022-06-21T09:57:56Z</time>
      </trkpt>
      <trkpt lat="43.41974" lon="2.65813">
        <ele>744.1</ele>
        <time>2022-06-21T09:57:57Z</time>
      </trkpt>
      <trkpt lat="43.41974" lon="2.65814">
        <ele>744.1</ele>
        <time>2022-06-21T09:57:58Z</time>
      </trkpt>
      <trkpt lat="43.41975" lon="2.65815">
        <ele>744.1</ele>
        <time>2022-06-21T09:57:59Z</time>
      </trkpt>
      <trkpt lat="43.41975" lon="2.65816">
        <ele>744.1</ele>
        <time>2022-06-21T09:58:00Z</time>
      </trkpt>
      <trkpt lat="43.41975" lon="2.65817">
        <ele>744.1</ele>
        <time>2022-06-21T09:58:01Z</time>
      </trkpt>
      <trkpt lat="43.41976" lon="2.65817">
        <ele>744.1</ele>
        <time>2022-06-21T09:58:02Z</time>
      </trkpt>
      <trkpt lat="43.41976" lon="2.65817">
        <ele>744.1</ele>
        <time>2022-06-21T09:58:03Z</time>
      </trkpt>
      <trkpt lat="43.41976" lon="2.65817">
        <ele>744.1</ele>
        <time>2022-06-21T09:58:04Z</time>
      </trkpt>
      <trkpt lat="43.41976" lon="2.65817">
        <ele>744.1</ele>
        <time>2022-06-21T09:58:05Z</time>
      </trkpt>
      <trkpt lat="43.41976" lon="2.65817">
        <ele>744.1</ele>
        <time>2022-06-21T09:58:06Z</time>
      </trkpt>
      <trkpt lat="43.41976" lon="2.65817">
        <ele>744.1</ele>
        <time>2022-06-21T09:58:07Z</time>
      </trkpt>
      <trkpt lat="43.41976" lon="2.65817">
        <ele>744.1</ele>
        <time>2022-06-21T09:58:08Z</time>
      </trkpt>
      <trkpt lat="43.41976" lon="2.65817">
        <ele>744.1</ele>
        <time>2022-06-21T09:58:09Z</time>
      </trkpt>
      <trkpt lat="43.41976" lon="2.65817">
        <ele>744.1</ele>
        <time>2022-06-21T09:58:10Z</time>
      </trkpt>
      <trkpt lat="43.41976" lon="2.65817">
        <ele>744.1</ele>
        <time>2022-06-21T09:58:11Z</time>
      </trkpt>
      <trkpt lat="43.41976" lon="2.65817">
        <ele>744.1</ele>
        <time>2022-06-21T09:58:12Z</time>
      </trkpt>
      <trkpt lat="43.41976" lon="2.65817">
        <ele>744.1</ele>
        <time>2022-06-21T09:58:13Z</time>
      </trkpt>
      <trkpt lat="43.41976" lon="2.65817">
        <ele>744.1</ele>
        <time>2022-06-21T09:58:14Z</time>
      </trkpt>
      <trkpt lat="43.41976" lon="2.65817">
        <ele>744.1</ele>
        <time>2022-06-21T09:58:15Z</time>
      </trkpt>
      <trkpt lat="43.41977" lon="2.65817">
        <ele>744.1</ele>
        <time>2022-06-21T09:58:16Z</time>
      </trkpt>
      <trkpt lat="43.41977" lon="2.65817">
        <ele>744.1</ele>
        <time>2022-06-21T09:58:17Z</time>
      </trkpt>
      <trkpt lat="43.41977" lon="2.65817">
        <ele>744.1</ele>
        <time>2022-06-21T09:58:18Z</time>
      </trkpt>
      <trkpt lat="43.41977" lon="2.65817">
        <ele>744.1</ele>
        <time>2022-06-21T09:58:19Z</time>
      </trkpt>
      <trkpt lat="43.41977" lon="2.65817">
        <ele>744.1</ele>
        <time>2022-06-21T09:58:20Z</time>
      </trkpt>
      <trkpt lat="43.41977" lon="2.65817">
        <ele>744.1</ele>
        <time>2022-06-21T09:58:21Z</time>
      </trkpt>
      <trkpt lat="43.41977" lon="2.65817">
        <ele>744.1</ele>
        <time>2022-06-21T09:58:22Z</time>
      </trkpt>
      <trkpt lat="43.41977" lon="2.65817">
        <ele>744.1</ele>
        <time>2022-06-21T09:58:23Z</time>
      </trkpt>
      <trkpt lat="43.41977" lon="2.65817">
        <ele>744.1</ele>
        <time>2022-06-21T09:58:24Z</time>
      </trkpt>
      <trkpt lat="43.41977" lon="2.65817">
        <ele>744.1</ele>
        <time>2022-06-21T09:58:25Z</time>
      </trkpt>
      <trkpt lat="43.41977" lon="2.65817">
        <ele>744.1</ele>
        <time>2022-06-21T09:58:26Z</time>
      </trkpt>
      <trkpt lat="43.41977" lon="2.65817">
        <ele>744.1</ele>
        <time>2022-06-21T09:58:27Z</time>
      </trkpt>
      <trkpt lat="43.41977" lon="2.65817">
        <ele>744.1</ele>
        <time>2022-06-21T09:58:28Z</time>
      </trkpt>
      <trkpt lat="43.41977" lon="2.65817">
        <ele>744.1</ele>
        <time>2022-06-21T09:58:29Z</time>
      </trkpt>
      <trkpt lat="43.41977" lon="2.65817">
        <ele>744.1</ele>
        <time>2022-06-21T09:58:30Z</time>
      </trkpt>
      <trkpt lat="43.41977" lon="2.65817">
        <ele>744.1</ele>
        <time>2022-06-21T09:58:31Z</time>
      </trkpt>
      <trkpt lat="43.41977" lon="2.65817">
        <ele>744.1</ele>
        <time>2022-06-21T09:58:32Z</time>
      </trkpt>
      <trkpt lat="43.41977" lon="2.65817">
        <ele>744.1</ele>
        <time>2022-06-21T09:58:33Z</time>
      </trkpt>
      <trkpt lat="43.41977" lon="2.65817">
        <ele>744.1</ele>
        <time>2022-06-21T09:58:34Z</time>
      </trkpt>
      <trkpt lat="43.41977" lon="2.65817">
        <ele>744.1</ele>
        <time>2022-06-21T09:58:35Z</time>
      </trkpt>
      <trkpt lat="43.41977" lon="2.65817">
        <ele>744.1</ele>
        <time>2022-06-21T09:58:36Z</time>
      </trkpt>
      <trkpt lat="43.41977" lon="2.65817">
        <ele>744.1</ele>
        <time>2022-06-21T09:58:37Z</time>
      </trkpt>
      <trkpt lat="43.41977" lon="2.65817">
        <ele>744.1</ele>
        <time>2022-06-21T09:58:38Z</time>
      </trkpt>
      <trkpt lat="43.41977" lon="2.65817">
        <ele>744.1</ele>
        <time>2022-06-21T09:58:39Z</time>
      </trkpt>
      <trkpt lat="43.41977" lon="2.65817">
        <ele>744.1</ele>
        <time>2022-06-21T09:58:40Z</time>
      </trkpt>
      <trkpt lat="43.41977" lon="2.65817">
        <ele>744.1</ele>
        <time>2022-06-21T09:58:41Z</time>
      </trkpt>
      <trkpt lat="43.41977" lon="2.65817">
        <ele>744.1</ele>
        <time>2022-06-21T09:58:42Z</time>
      </trkpt>
      <trkpt lat="43.41977" lon="2.65817">
        <ele>744.1</ele>
        <time>2022-06-21T09:58:43Z</time>
      </trkpt>
      <trkpt lat="43.41977" lon="2.65817">
        <ele>744.1</ele>
        <time>2022-06-21T09:58:44Z</time>
      </trkpt>
      <trkpt lat="43.41977" lon="2.65817">
        <ele>744.1</ele>
        <time>2022-06-21T09:58:45Z</time>
      </trkpt>
      <trkpt lat="43.41977" lon="2.65817">
        <ele>744.1</ele>
        <time>2022-06-21T09:58:46Z</time>
      </trkpt>
      <trkpt lat="43.41977" lon="2.65817">
        <ele>744.1</ele>
        <time>2022-06-21T09:58:47Z</time>
      </trkpt>
      <trkpt lat="43.41977" lon="2.65817">
        <ele>744.1</ele>
        <time>2022-06-21T09:58:48Z</time>
      </trkpt>
      <trkpt lat="43.41977" lon="2.65817">
        <ele>744.1</ele>
        <time>2022-06-21T09:58:49Z</time>
      </trkpt>
      <trkpt lat="43.41977" lon="2.65817">
        <ele>744.1</ele>
        <time>2022-06-21T09:58:50Z</time>
      </trkpt>
      <trkpt lat="43.41977" lon="2.65818">
        <ele>744.1</ele>
        <time>2022-06-21T09:58:51Z</time>
      </trkpt>
      <trkpt lat="43.41977" lon="2.65818">
        <ele>744.1</ele>
        <time>2022-06-21T09:58:52Z</time>
      </trkpt>
      <trkpt lat="43.41978" lon="2.65818">
        <ele>744.1</ele>
        <time>2022-06-21T09:58:53Z</time>
      </trkpt>
      <trkpt lat="43.41978" lon="2.65818">
        <ele>744.1</ele>
        <time>2022-06-21T09:58:54Z</time>
      </trkpt>
      <trkpt lat="43.41978" lon="2.65818">
        <ele>744.1</ele>
        <time>2022-06-21T09:58:55Z</time>
      </trkpt>
      <trkpt lat="43.41978" lon="2.65818">
        <ele>744.1</ele>
        <time>2022-06-21T09:58:56Z</time>
      </trkpt>
      <trkpt lat="43.41978" lon="2.65818">
        <ele>744.1</ele>
        <time>2022-06-21T09:58:57Z</time>
      </trkpt>
      <trkpt lat="43.41978" lon="2.65818">
        <ele>744.1</ele>
        <time>2022-06-21T09:58:58Z</time>
      </trkpt>
      <trkpt lat="43.41978" lon="2.65818">
        <ele>744.1</ele>
        <time>2022-06-21T09:58:59Z</time>
      </trkpt>
      <trkpt lat="43.41978" lon="2.65818">
        <ele>744.1</ele>
        <time>2022-06-21T09:59:00Z</time>
      </trkpt>
      <trkpt lat="43.41978" lon="2.65818">
        <ele>744.1</ele>
        <time>2022-06-21T09:59:01Z</time>
      </trkpt>
      <trkpt lat="43.41978" lon="2.65818">
        <ele>744.1</ele>
        <time>2022-06-21T09:59:02Z</time>
      </trkpt>
      <trkpt lat="43.41978" lon="2.65818">
        <ele>744.1</ele>
        <time>2022-06-21T09:59:03Z</time>
      </trkpt>
      <trkpt lat="43.41978" lon="2.65818">
        <ele>744.1</ele>
        <time>2022-06-21T09:59:04Z</time>
      </trkpt>
      <trkpt lat="43.41978" lon="2.65818">
        <ele>744.1</ele>
        <time>2022-06-21T09:59:05Z</time>
      </trkpt>
      <trkpt lat="43.41978" lon="2.65819">
        <ele>744.1</ele>
        <time>2022-06-21T09:59:06Z</time>
      </trkpt>
      <trkpt lat="43.41979" lon="2.6582">
        <ele>744.1</ele>
        <time>2022-06-21T09:59:07Z</time>
      </trkpt>
      <trkpt lat="43.41979" lon="2.6582">
        <ele>744.1</ele>
        <time>2022-06-21T09:59:08Z</time>
      </trkpt>
      <trkpt lat="43.4198" lon="2.65821">
        <ele>744.1</ele>
        <time>2022-06-21T09:59:09Z</time>
      </trkpt>
      <trkpt lat="43.41981" lon="2.65822">
        <ele>744.1</ele>
        <time>2022-06-21T09:59:10Z</time>
      </trkpt>
      <trkpt lat="43.41982" lon="2.65823">
        <ele>744.1</ele>
        <time>2022-06-21T09:59:11Z</time>
      </trkpt>
      <trkpt lat="43.41983" lon="2.65823">
        <ele>744.1</ele>
        <time>2022-06-21T09:59:12Z</time>
      </trkpt>
      <trkpt lat="43.41984" lon="2.65824">
        <ele>744.2</ele>
        <time>2022-06-21T09:59:13Z</time>
      </trkpt>
      <trkpt lat="43.41985" lon="2.65825">
        <ele>744.2</ele>
        <time>2022-06-21T09:59:14Z</time>
      </trkpt>
      <trkpt lat="43.41986" lon="2.65826">
        <ele>744.2</ele>
        <time>2022-06-21T09:59:15Z</time>
      </trkpt>
      <trkpt lat="43.41986" lon="2.65827">
        <ele>744.2</ele>
        <time>2022-06-21T09:59:16Z</time>
      </trkpt>
      <trkpt lat="43.41987" lon="2.65827">
        <ele>744.2</ele>
        <time>2022-06-21T09:59:17Z</time>
      </trkpt>
      <trkpt lat="43.41987" lon="2.65828">
        <ele>744.2</ele>
        <time>2022-06-21T09:59:18Z</time>
      </trkpt>
      <trkpt lat="43.41988" lon="2.65828">
        <ele>744.2</ele>
        <time>2022-06-21T09:59:19Z</time>
      </trkpt>
      <trkpt lat="43.41989" lon="2.65829">
        <ele>744.2</ele>
        <time>2022-06-21T09:59:20Z</time>
      </trkpt>
      <trkpt lat="43.41989" lon="2.6583">
        <ele>744.3</ele>
        <time>2022-06-21T09:59:21Z</time>
      </trkpt>
      <trkpt lat="43.4199" lon="2.6583">
        <ele>744.3</ele>
        <time>2022-06-21T09:59:22Z</time>
      </trkpt>
      <trkpt lat="43.4199" lon="2.65831">
        <ele>744.3</ele>
        <time>2022-06-21T09:59:23Z</time>
      </trkpt>
      <trkpt lat="43.41991" lon="2.65831">
        <ele>744.3</ele>
        <time>2022-06-21T09:59:24Z</time>
      </trkpt>
      <trkpt lat="43.41992" lon="2.65832">
        <ele>744.4</ele>
        <time>2022-06-21T09:59:25Z</time>
      </trkpt>
      <trkpt lat="43.41993" lon="2.65833">
        <ele>744.4</ele>
        <time>2022-06-21T09:59:26Z</time>
      </trkpt>
      <trkpt lat="43.41994" lon="2.65833">
        <ele>744.4</ele>
        <time>2022-06-21T09:59:27Z</time>
      </trkpt>
      <trkpt lat="43.41994" lon="2.65834">
        <ele>744.4</ele>
        <time>2022-06-21T09:59:28Z</time>
      </trkpt>
      <trkpt lat="43.41995" lon="2.65835">
        <ele>744.5</ele>
        <time>2022-06-21T09:59:29Z</time>
      </trkpt>
      <trkpt lat="43.41995" lon="2.65835">
        <ele>744.5</ele>
        <time>2022-06-21T09:59:30Z</time>
      </trkpt>
      <trkpt lat="43.41996" lon="2.65836">
        <ele>744.5</ele>
        <time>2022-06-21T09:59:31Z</time>
      </trkpt>
      <trkpt lat="43.41997" lon="2.65836">
        <ele>744.5</ele>
        <time>2022-06-21T09:59:32Z</time>
      </trkpt>
      <trkpt lat="43.41998" lon="2.65837">
        <ele>744.6</ele>
        <time>2022-06-21T09:59:33Z</time>
      </trkpt>
      <trkpt lat="43.41998" lon="2.65838">
        <ele>744.6</ele>
        <time>2022-06-21T09:59:34Z</time>
      </trkpt>
      <trkpt lat="43.41999" lon="2.65838">
        <ele>744.6</ele>
        <time>2022-06-21T09:59:35Z</time>
      </trkpt>
      <trkpt lat="43.42" lon="2.65838">
        <ele>744.7</ele>
        <time>2022-06-21T09:59:36Z</time>
      </trkpt>
      <trkpt lat="43.42" lon="2.65839">
        <ele>744.7</ele>
        <time>2022-06-21T09:59:37Z</time>
      </trkpt>
      <trkpt lat="43.42001" lon="2.65839">
        <ele>744.7</ele>
        <time>2022-06-21T09:59:38Z</time>
      </trkpt>
      <trkpt lat="43.42002" lon="2.6584">
        <ele>744.7</ele>
        <time>2022-06-21T09:59:39Z</time>
      </trkpt>
      <trkpt lat="43.42002" lon="2.6584">
        <ele>744.8</ele>
        <time>2022-06-21T09:59:40Z</time>
      </trkpt>
      <trkpt lat="43.42003" lon="2.65841">
        <ele>744.8</ele>
        <time>2022-06-21T09:59:41Z</time>
      </trkpt>
      <trkpt lat="43.42003" lon="2.65842">
        <ele>744.8</ele>
        <time>2022-06-21T09:59:42Z</time>
      </trkpt>
      <trkpt lat="43.42004" lon="2.65842">
        <ele>744.9</ele>
        <time>2022-06-21T09:59:43Z</time>
      </trkpt>
      <trkpt lat="43.42004" lon="2.65843">
        <ele>744.9</ele>
        <time>2022-06-21T09:59:44Z</time>
      </trkpt>
      <trkpt lat="43.42005" lon="2.65844">
        <ele>744.9</ele>
        <time>2022-06-21T09:59:45Z</time>
      </trkpt>
      <trkpt lat="43.42006" lon="2.65844">
        <ele>745</ele>
        <time>2022-06-21T09:59:46Z</time>
      </trkpt>
      <trkpt lat="43.42007" lon="2.65845">
        <ele>745</ele>
        <time>2022-06-21T09:59:47Z</time>
      </trkpt>
      <trkpt lat="43.42007" lon="2.65846">
        <ele>745</ele>
        <time>2022-06-21T09:59:48Z</time>
      </trkpt>
      <trkpt lat="43.42008" lon="2.65846">
        <ele>745.1</ele>
        <time>2022-06-21T09:59:49Z</time>
      </trkpt>
      <trkpt lat="43.42009" lon="2.65847">
        <ele>745.1</ele>
        <time>2022-06-21T09:59:50Z</time>
      </trkpt>
      <trkpt lat="43.4201" lon="2.65848">
        <ele>745.2</ele>
        <time>2022-06-21T09:59:51Z</time>
      </trkpt>
      <trkpt lat="43.42011" lon="2.65849">
        <ele>745.2</ele>
        <time>2022-06-21T09:59:52Z</time>
      </trkpt>
      <trkpt lat="43.42011" lon="2.6585">
        <ele>745.2</ele>
        <time>2022-06-21T09:59:53Z</time>
      </trkpt>
      <trkpt lat="43.42012" lon="2.65851">
        <ele>745.3</ele>
        <time>2022-06-21T09:59:54Z</time>
      </trkpt>
      <trkpt lat="43.42013" lon="2.65851">
        <ele>745.3</ele>
        <time>2022-06-21T09:59:55Z</time>
      </trkpt>
      <trkpt lat="43.42014" lon="2.65852">
        <ele>745.4</ele>
        <time>2022-06-21T09:59:56Z</time>
      </trkpt>
      <trkpt lat="43.42014" lon="2.65853">
        <ele>745.4</ele>
        <time>2022-06-21T09:59:57Z</time>
      </trkpt>
      <trkpt lat="43.42015" lon="2.65853">
        <ele>745.4</ele>
        <time>2022-06-21T09:59:58Z</time>
      </trkpt>
      <trkpt lat="43.42016" lon="2.65854">
        <ele>745.5</ele>
        <time>2022-06-21T09:59:59Z</time>
      </trkpt>
      <trkpt lat="43.42016" lon="2.65855">
        <ele>745.5</ele>
        <time>2022-06-21T10:00:00Z</time>
      </trkpt>
      <trkpt lat="43.42017" lon="2.65855">
        <ele>745.5</ele>
        <time>2022-06-21T10:00:01Z</time>
      </trkpt>
      <trkpt lat="43.42018" lon="2.65856">
        <ele>745.6</ele>
        <time>2022-06-21T10:00:02Z</time>
      </trkpt>
      <trkpt lat="43.42018" lon="2.65857">
        <ele>745.6</ele>
        <time>2022-06-21T10:00:03Z</time>
      </trkpt>
      <trkpt lat="43.42019" lon="2.65857">
        <ele>745.7</ele>
        <time>2022-06-21T10:00:04Z</time>
      </trkpt>
      <trkpt lat="43.4202" lon="2.65858">
        <ele>745.7</ele>
        <time>2022-06-21T10:00:05Z</time>
      </trkpt>
      <trkpt lat="43.42021" lon="2.65859">
        <ele>745.8</ele>
        <time>2022-06-21T10:00:06Z</time>
      </trkpt>
      <trkpt lat="43.42021" lon="2.65859">
        <ele>745.8</ele>
        <time>2022-06-21T10:00:07Z</time>
      </trkpt>
      <trkpt lat="43.42022" lon="2.6586">
        <ele>745.9</ele>
        <time>2022-06-21T10:00:08Z</time>
      </trkpt>
      <trkpt lat="43.42023" lon="2.65861">
        <ele>745.9</ele>
        <time>2022-06-21T10:00:09Z</time>
      </trkpt>
      <trkpt lat="43.42024" lon="2.65861">
        <ele>746</ele>
        <time>2022-06-21T10:00:10Z</time>
      </trkpt>
      <trkpt lat="43.42024" lon="2.65862">
        <ele>746</ele>
        <time>2022-06-21T10:00:11Z</time>
      </trkpt>
      <trkpt lat="43.42025" lon="2.65862">
        <ele>746</ele>
        <time>2022-06-21T10:00:12Z</time>
      </trkpt>
      <trkpt lat="43.42026" lon="2.65863">
        <ele>746.1</ele>
        <time>2022-06-21T10:00:13Z</time>
      </trkpt>
      <trkpt lat="43.42027" lon="2.65863">
        <ele>746.1</ele>
        <time>2022-06-21T10:00:14Z</time>
      </trkpt>
      <trkpt lat="43.42027" lon="2.65864">
        <ele>746.2</ele>
        <time>2022-06-21T10:00:15Z</time>
      </trkpt>
      <trkpt lat="43.42028" lon="2.65864">
        <ele>746.2</ele>
        <time>2022-06-21T10:00:16Z</time>
      </trkpt>
      <trkpt lat="43.42029" lon="2.65865">
        <ele>746.3</ele>
        <time>2022-06-21T10:00:17Z</time>
      </trkpt>
      <trkpt lat="43.4203" lon="2.65865">
        <ele>746.3</ele>
        <time>2022-06-21T10:00:18Z</time>
      </trkpt>
      <trkpt lat="43.4203" lon="2.65866">
        <ele>746.4</ele>
        <time>2022-06-21T10:00:19Z</time>
      </trkpt>
      <trkpt lat="43.42031" lon="2.65866">
        <ele>746.4</ele>
        <time>2022-06-21T10:00:20Z</time>
      </trkpt>
      <trkpt lat="43.42032" lon="2.65867">
        <ele>746.5</ele>
        <time>2022-06-21T10:00:21Z</time>
      </trkpt>
      <trkpt lat="43.42032" lon="2.65867">
        <ele>746.5</ele>
        <time>2022-06-21T10:00:22Z</time>
      </trkpt>
      <trkpt lat="43.42033" lon="2.65867">
        <ele>746.5</ele>
        <time>2022-06-21T10:00:23Z</time>
      </trkpt>
      <trkpt lat="43.42034" lon="2.65868">
        <ele>746.6</ele>
        <time>2022-06-21T10:00:24Z</time>
      </trkpt>
      <trkpt lat="43.42034" lon="2.65868">
        <ele>746.6</ele>
        <time>2022-06-21T10:00:25Z</time>
      </trkpt>
      <trkpt lat="43.42035" lon="2.65869">
        <ele>746.7</ele>
        <time>2022-06-21T10:00:26Z</time>
      </trkpt>
      <trkpt lat="43.42036" lon="2.6587">
        <ele>746.8</ele>
        <time>2022-06-21T10:00:27Z</time>
      </trkpt>
      <trkpt lat="43.42037" lon="2.6587">
        <ele>746.8</ele>
        <time>2022-06-21T10:00:28Z</time>
      </trkpt>
      <trkpt lat="43.42038" lon="2.65871">
        <ele>746.9</ele>
        <time>2022-06-21T10:00:29Z</time>
      </trkpt>
      <trkpt lat="43.42038" lon="2.65872">
        <ele>746.9</ele>
        <time>2022-06-21T10:00:30Z</time>
      </trkpt>
      <trkpt lat="43.42039" lon="2.65873">
        <ele>747</ele>
        <time>2022-06-21T10:00:31Z</time>
      </trkpt>
      <trkpt lat="43.4204" lon="2.65874">
        <ele>747</ele>
        <time>2022-06-21T10:00:32Z</time>
      </trkpt>
      <trkpt lat="43.42041" lon="2.65874">
        <ele>747.1</ele>
        <time>2022-06-21T10:00:33Z</time>
      </trkpt>
      <trkpt lat="43.42041" lon="2.65875">
        <ele>747.1</ele>
        <time>2022-06-21T10:00:34Z</time>
      </trkpt>
      <trkpt lat="43.42042" lon="2.65875">
        <ele>747.2</ele>
        <time>2022-06-21T10:00:35Z</time>
      </trkpt>
      <trkpt lat="43.42043" lon="2.65876">
        <ele>747.2</ele>
        <time>2022-06-21T10:00:36Z</time>
      </trkpt>
      <trkpt lat="43.42044" lon="2.65876">
        <ele>747.3</ele>
        <time>2022-06-21T10:00:37Z</time>
      </trkpt>
      <trkpt lat="43.42044" lon="2.65877">
        <ele>747.3</ele>
        <time>2022-06-21T10:00:38Z</time>
      </trkpt>
      <trkpt lat="43.42045" lon="2.65878">
        <ele>747.3</ele>
        <time>2022-06-21T10:00:39Z</time>
      </trkpt>
      <trkpt lat="43.42046" lon="2.65878">
        <ele>747.4</ele>
        <time>2022-06-21T10:00:40Z</time>
      </trkpt>
      <trkpt lat="43.42046" lon="2.65878">
        <ele>747.4</ele>
        <time>2022-06-21T10:00:41Z</time>
      </trkpt>
      <trkpt lat="43.42047" lon="2.65879">
        <ele>747.5</ele>
        <time>2022-06-21T10:00:42Z</time>
      </trkpt>
      <trkpt lat="43.42048" lon="2.65879">
        <ele>747.5</ele>
        <time>2022-06-21T10:00:43Z</time>
      </trkpt>
      <trkpt lat="43.42049" lon="2.6588">
        <ele>747.6</ele>
        <time>2022-06-21T10:00:44Z</time>
      </trkpt>
      <trkpt lat="43.42049" lon="2.6588">
        <ele>747.6</ele>
        <time>2022-06-21T10:00:45Z</time>
      </trkpt>
      <trkpt lat="43.4205" lon="2.65881">
        <ele>747.6</ele>
        <time>2022-06-21T10:00:46Z</time>
      </trkpt>
      <trkpt lat="43.42051" lon="2.65881">
        <ele>747.6</ele>
        <time>2022-06-21T10:00:47Z</time>
      </trkpt>
      <trkpt lat="43.42051" lon="2.65882">
        <ele>747.7</ele>
        <time>2022-06-21T10:00:48Z</time>
      </trkpt>
      <trkpt lat="43.42052" lon="2.65882">
        <ele>747.7</ele>
        <time>2022-06-21T10:00:49Z</time>
      </trkpt>
      <trkpt lat="43.42053" lon="2.65883">
        <ele>747.8</ele>
        <time>2022-06-21T10:00:50Z</time>
      </trkpt>
      <trkpt lat="43.42054" lon="2.65883">
        <ele>747.8</ele>
        <time>2022-06-21T10:00:51Z</time>
      </trkpt>
      <trkpt lat="43.42055" lon="2.65884">
        <ele>747.8</ele>
        <time>2022-06-21T10:00:52Z</time>
      </trkpt>
      <trkpt lat="43.42055" lon="2.65884">
        <ele>747.8</ele>
        <time>2022-06-21T10:00:53Z</time>
      </trkpt>
      <trkpt lat="43.42056" lon="2.65884">
        <ele>747.8</ele>
        <time>2022-06-21T10:00:54Z</time>
      </trkpt>
      <trkpt lat="43.42057" lon="2.65885">
        <ele>747.9</ele>
        <time>2022-06-21T10:00:55Z</time>
      </trkpt>
      <trkpt lat="43.42058" lon="2.65885">
        <ele>747.9</ele>
        <time>2022-06-21T10:00:56Z</time>
      </trkpt>
      <trkpt lat="43.42058" lon="2.65886">
        <ele>747.9</ele>
        <time>2022-06-21T10:00:57Z</time>
      </trkpt>
      <trkpt lat="43.42059" lon="2.65886">
        <ele>747.9</ele>
        <time>2022-06-21T10:00:58Z</time>
      </trkpt>
      <trkpt lat="43.4206" lon="2.65887">
        <ele>748</ele>
        <time>2022-06-21T10:00:59Z</time>
      </trkpt>
      <trkpt lat="43.4206" lon="2.65888">
        <ele>748</ele>
        <time>2022-06-21T10:01:00Z</time>
      </trkpt>
      <trkpt lat="43.42061" lon="2.65889">
        <ele>748</ele>
        <time>2022-06-21T10:01:01Z</time>
      </trkpt>
      <trkpt lat="43.42062" lon="2.65889">
        <ele>748</ele>
        <time>2022-06-21T10:01:02Z</time>
      </trkpt>
      <trkpt lat="43.42063" lon="2.65889">
        <ele>748</ele>
        <time>2022-06-21T10:01:03Z</time>
      </trkpt>
      <trkpt lat="43.42064" lon="2.6589">
        <ele>748.1</ele>
        <time>2022-06-21T10:01:04Z</time>
      </trkpt>
      <trkpt lat="43.42065" lon="2.6589">
        <ele>748.1</ele>
        <time>2022-06-21T10:01:05Z</time>
      </trkpt>
      <trkpt lat="43.42066" lon="2.65891">
        <ele>748.1</ele>
        <time>2022-06-21T10:01:06Z</time>
      </trkpt>
      <trkpt lat="43.42067" lon="2.65891">
        <ele>748.1</ele>
        <time>2022-06-21T10:01:07Z</time>
      </trkpt>
      <trkpt lat="43.42068" lon="2.65892">
        <ele>748.1</ele>
        <time>2022-06-21T10:01:08Z</time>
      </trkpt>
      <trkpt lat="43.42069" lon="2.65892">
        <ele>748.2</ele>
        <time>2022-06-21T10:01:09Z</time>
      </trkpt>
      <trkpt lat="43.4207" lon="2.65893">
        <ele>748.2</ele>
        <time>2022-06-21T10:01:10Z</time>
      </trkpt>
      <trkpt lat="43.4207" lon="2.65893">
        <ele>748.2</ele>
        <time>2022-06-21T10:01:11Z</time>
      </trkpt>
      <trkpt lat="43.42071" lon="2.65894">
        <ele>748.2</ele>
        <time>2022-06-21T10:01:12Z</time>
      </trkpt>
      <trkpt lat="43.42073" lon="2.65895">
        <ele>748.3</ele>
        <time>2022-06-21T10:01:13Z</time>
      </trkpt>
      <trkpt lat="43.42074" lon="2.65895">
        <ele>748.3</ele>
        <time>2022-06-21T10:01:14Z</time>
      </trkpt>
      <trkpt lat="43.42074" lon="2.65895">
        <ele>748.3</ele>
        <time>2022-06-21T10:01:15Z</time>
      </trkpt>
      <trkpt lat="43.42075" lon="2.65896">
        <ele>748.3</ele>
        <time>2022-06-21T10:01:16Z</time>
      </trkpt>
      <trkpt lat="43.42076" lon="2.65896">
        <ele>748.3</ele>
        <time>2022-06-21T10:01:17Z</time>
      </trkpt>
      <trkpt lat="43.42077" lon="2.65896">
        <ele>748.3</ele>
        <time>2022-06-21T10:01:18Z</time>
      </trkpt>
      <trkpt lat="43.42078" lon="2.65897">
        <ele>748.3</ele>
        <time>2022-06-21T10:01:19Z</time>
      </trkpt>
      <trkpt lat="43.42079" lon="2.65897">
        <ele>748.4</ele>
        <time>2022-06-21T10:01:20Z</time>
      </trkpt>
      <trkpt lat="43.4208" lon="2.65898">
        <ele>748.4</ele>
        <time>2022-06-21T10:01:21Z</time>
      </trkpt>
      <trkpt lat="43.42081" lon="2.65898">
        <ele>748.4</ele>
        <time>2022-06-21T10:01:22Z</time>
      </trkpt>
      <trkpt lat="43.42082" lon="2.65899">
        <ele>748.4</ele>
        <time>2022-06-21T10:01:23Z</time>
      </trkpt>
      <trkpt lat="43.42083" lon="2.65899">
        <ele>748.4</ele>
        <time>2022-06-21T10:01:24Z</time>
      </trkpt>
      <trkpt lat="43.42084" lon="2.659">
        <ele>748.4</ele>
        <time>2022-06-21T10:01:25Z</time>
      </trkpt>
      <trkpt lat="43.42085" lon="2.65901">
        <ele>748.5</ele>
        <time>2022-06-21T10:01:26Z</time>
      </trkpt>
      <trkpt lat="43.42086" lon="2.65901">
        <ele>748.5</ele>
        <time>2022-06-21T10:01:27Z</time>
      </trkpt>
      <trkpt lat="43.42086" lon="2.65902">
        <ele>748.5</ele>
        <time>2022-06-21T10:01:28Z</time>
      </trkpt>
      <trkpt lat="43.42087" lon="2.65903">
        <ele>748.5</ele>
        <time>2022-06-21T10:01:29Z</time>
      </trkpt>
      <trkpt lat="43.42087" lon="2.65904">
        <ele>748.5</ele>
        <time>2022-06-21T10:01:30Z</time>
      </trkpt>
      <trkpt lat="43.42088" lon="2.65905">
        <ele>748.5</ele>
        <time>2022-06-21T10:01:31Z</time>
      </trkpt>
      <trkpt lat="43.42089" lon="2.65905">
        <ele>748.5</ele>
        <time>2022-06-21T10:01:32Z</time>
      </trkpt>
      <trkpt lat="43.4209" lon="2.65905">
        <ele>748.6</ele>
        <time>2022-06-21T10:01:33Z</time>
      </trkpt>
      <trkpt lat="43.42091" lon="2.65906">
        <ele>748.6</ele>
        <time>2022-06-21T10:01:34Z</time>
      </trkpt>
      <trkpt lat="43.42091" lon="2.65906">
        <ele>748.6</ele>
        <time>2022-06-21T10:01:35Z</time>
      </trkpt>
      <trkpt lat="43.42092" lon="2.65907">
        <ele>748.6</ele>
        <time>2022-06-21T10:01:36Z</time>
      </trkpt>
      <trkpt lat="43.42094" lon="2.65908">
        <ele>748.6</ele>
        <time>2022-06-21T10:01:37Z</time>
      </trkpt>
      <trkpt lat="43.42094" lon="2.65908">
        <ele>748.6</ele>
        <time>2022-06-21T10:01:38Z</time>
      </trkpt>
      <trkpt lat="43.42095" lon="2.65909">
        <ele>748.7</ele>
        <time>2022-06-21T10:01:39Z</time>
      </trkpt>
      <trkpt lat="43.42096" lon="2.65909">
        <ele>748.7</ele>
        <time>2022-06-21T10:01:40Z</time>
      </trkpt>
      <trkpt lat="43.42097" lon="2.65909">
        <ele>748.7</ele>
        <time>2022-06-21T10:01:41Z</time>
      </trkpt>
      <trkpt lat="43.42097" lon="2.6591">
        <ele>748.7</ele>
        <time>2022-06-21T10:01:42Z</time>
      </trkpt>
      <trkpt lat="43.42099" lon="2.65911">
        <ele>748.7</ele>
        <time>2022-06-21T10:01:43Z</time>
      </trkpt>
      <trkpt lat="43.42099" lon="2.65911">
        <ele>748.7</ele>
        <time>2022-06-21T10:01:44Z</time>
      </trkpt>
      <trkpt lat="43.421" lon="2.65912">
        <ele>748.8</ele>
        <time>2022-06-21T10:01:45Z</time>
      </trkpt>
      <trkpt lat="43.42101" lon="2.65912">
        <ele>748.8</ele>
        <time>2022-06-21T10:01:46Z</time>
      </trkpt>
      <trkpt lat="43.42102" lon="2.65913">
        <ele>748.8</ele>
        <time>2022-06-21T10:01:47Z</time>
      </trkpt>
      <trkpt lat="43.42103" lon="2.65914">
        <ele>748.8</ele>
        <time>2022-06-21T10:01:48Z</time>
      </trkpt>
      <trkpt lat="43.42103" lon="2.65914">
        <ele>748.8</ele>
        <time>2022-06-21T10:01:49Z</time>
      </trkpt>
      <trkpt lat="43.42104" lon="2.65915">
        <ele>748.9</ele>
        <time>2022-06-21T10:01:50Z</time>
      </trkpt>
      <trkpt lat="43.42105" lon="2.65916">
        <ele>748.9</ele>
        <time>2022-06-21T10:01:51Z</time>
      </trkpt>
      <trkpt lat="43.42106" lon="2.65916">
        <ele>748.9</ele>
        <time>2022-06-21T10:01:52Z</time>
      </trkpt>
      <trkpt lat="43.42106" lon="2.65917">
        <ele>748.9</ele>
        <time>2022-06-21T10:01:53Z</time>
      </trkpt>
      <trkpt lat="43.42107" lon="2.65918">
        <ele>748.9</ele>
        <time>2022-06-21T10:01:54Z</time>
      </trkpt>
      <trkpt lat="43.42108" lon="2.65919">
        <ele>748.9</ele>
        <time>2022-06-21T10:01:55Z</time>
      </trkpt>
      <trkpt lat="43.42109" lon="2.6592">
        <ele>748.9</ele>
        <time>2022-06-21T10:01:56Z</time>
      </trkpt>
      <trkpt lat="43.42109" lon="2.65921">
        <ele>748.9</ele>
        <time>2022-06-21T10:01:57Z</time>
      </trkpt>
      <trkpt lat="43.4211" lon="2.65922">
        <ele>748.9</ele>
        <time>2022-06-21T10:01:58Z</time>
      </trkpt>
      <trkpt lat="43.42111" lon="2.65922">
        <ele>748.9</ele>
        <time>2022-06-21T10:01:59Z</time>
      </trkpt>
      <trkpt lat="43.42112" lon="2.65924">
        <ele>748.9</ele>
        <time>2022-06-21T10:02:00Z</time>
      </trkpt>
      <trkpt lat="43.42112" lon="2.65925">
        <ele>748.9</ele>
        <time>2022-06-21T10:02:01Z</time>
      </trkpt>
      <trkpt lat="43.42113" lon="2.65926">
        <ele>748.9</ele>
        <time>2022-06-21T10:02:02Z</time>
      </trkpt>
      <trkpt lat="43.42114" lon="2.65927">
        <ele>748.9</ele>
        <time>2022-06-21T10:02:03Z</time>
      </trkpt>
      <trkpt lat="43.42114" lon="2.65928">
        <ele>748.9</ele>
        <time>2022-06-21T10:02:04Z</time>
      </trkpt>
      <trkpt lat="43.42115" lon="2.65929">
        <ele>748.9</ele>
        <time>2022-06-21T10:02:05Z</time>
      </trkpt>
      <trkpt lat="43.42116" lon="2.65931">
        <ele>748.9</ele>
        <time>2022-06-21T10:02:06Z</time>
      </trkpt>
      <trkpt lat="43.42116" lon="2.65931">
        <ele>748.9</ele>
        <time>2022-06-21T10:02:07Z</time>
      </trkpt>
      <trkpt lat="43.42117" lon="2.65932">
        <ele>748.9</ele>
        <time>2022-06-21T10:02:08Z</time>
      </trkpt>
      <trkpt lat="43.42117" lon="2.65932">
        <ele>748.9</ele>
        <time>2022-06-21T10:02:09Z</time>
      </trkpt>
      <trkpt lat="43.42118" lon="2.65933">
        <ele>748.8</ele>
        <time>2022-06-21T10:02:10Z</time>
      </trkpt>
      <trkpt lat="43.42119" lon="2.65934">
        <ele>748.8</ele>
        <time>2022-06-21T10:02:11Z</time>
      </trkpt>
      <trkpt lat="43.4212" lon="2.65936">
        <ele>748.8</ele>
        <time>2022-06-21T10:02:12Z</time>
      </trkpt>
      <trkpt lat="43.4212" lon="2.65936">
        <ele>748.8</ele>
        <time>2022-06-21T10:02:13Z</time>
      </trkpt>
      <trkpt lat="43.42121" lon="2.65937">
        <ele>748.8</ele>
        <time>2022-06-21T10:02:14Z</time>
      </trkpt>
      <trkpt lat="43.42122" lon="2.65938">
        <ele>748.7</ele>
        <time>2022-06-21T10:02:15Z</time>
      </trkpt>
      <trkpt lat="43.42123" lon="2.65938">
        <ele>748.7</ele>
        <time>2022-06-21T10:02:16Z</time>
      </trkpt>
      <trkpt lat="43.42124" lon="2.65939">
        <ele>748.7</ele>
        <time>2022-06-21T10:02:17Z</time>
      </trkpt>
      <trkpt lat="43.42125" lon="2.6594">
        <ele>748.7</ele>
        <time>2022-06-21T10:02:18Z</time>
      </trkpt>
      <trkpt lat="43.42125" lon="2.6594">
        <ele>748.6</ele>
        <time>2022-06-21T10:02:19Z</time>
      </trkpt>
      <trkpt lat="43.42126" lon="2.65941">
        <ele>748.6</ele>
        <time>2022-06-21T10:02:20Z</time>
      </trkpt>
      <trkpt lat="43.42127" lon="2.65942">
        <ele>748.6</ele>
        <time>2022-06-21T10:02:21Z</time>
      </trkpt>
      <trkpt lat="43.42128" lon="2.65942">
        <ele>748.6</ele>
        <time>2022-06-21T10:02:22Z</time>
      </trkpt>
      <trkpt lat="43.42129" lon="2.65943">
        <ele>748.6</ele>
        <time>2022-06-21T10:02:23Z</time>
      </trkpt>
      <trkpt lat="43.4213" lon="2.65943">
        <ele>748.5</ele>
        <time>2022-06-21T10:02:24Z</time>
      </trkpt>
      <trkpt lat="43.42131" lon="2.65944">
        <ele>748.5</ele>
        <time>2022-06-21T10:02:25Z</time>
      </trkpt>
      <trkpt lat="43.42132" lon="2.65945">
        <ele>748.5</ele>
        <time>2022-06-21T10:02:26Z</time>
      </trkpt>
      <trkpt lat="43.42133" lon="2.65946">
        <ele>748.5</ele>
        <time>2022-06-21T10:02:27Z</time>
      </trkpt>
      <trkpt lat="43.42134" lon="2.65946">
        <ele>748.5</ele>
        <time>2022-06-21T10:02:28Z</time>
      </trkpt>
      <trkpt lat="43.42135" lon="2.65947">
        <ele>748.4</ele>
        <time>2022-06-21T10:02:29Z</time>
      </trkpt>
      <trkpt lat="43.42136" lon="2.65947">
        <ele>748.4</ele>
        <time>2022-06-21T10:02:30Z</time>
      </trkpt>
      <trkpt lat="43.42137" lon="2.65948">
        <ele>748.4</ele>
        <time>2022-06-21T10:02:31Z</time>
      </trkpt>
      <trkpt lat="43.42138" lon="2.65948">
        <ele>748.4</ele>
        <time>2022-06-21T10:02:32Z</time>
      </trkpt>
      <trkpt lat="43.42139" lon="2.65948">
        <ele>748.4</ele>
        <time>2022-06-21T10:02:33Z</time>
      </trkpt>
      <trkpt lat="43.4214" lon="2.65949">
        <ele>748.4</ele>
        <time>2022-06-21T10:02:34Z</time>
      </trkpt>
      <trkpt lat="43.42141" lon="2.65949">
        <ele>748.4</ele>
        <time>2022-06-21T10:02:35Z</time>
      </trkpt>
      <trkpt lat="43.42142" lon="2.6595">
        <ele>748.3</ele>
        <time>2022-06-21T10:02:36Z</time>
      </trkpt>
      <trkpt lat="43.42143" lon="2.6595">
        <ele>748.3</ele>
        <time>2022-06-21T10:02:37Z</time>
      </trkpt>
      <trkpt lat="43.42144" lon="2.65951">
        <ele>748.3</ele>
        <time>2022-06-21T10:02:38Z</time>
      </trkpt>
      <trkpt lat="43.42145" lon="2.65951">
        <ele>748.3</ele>
        <time>2022-06-21T10:02:39Z</time>
      </trkpt>
      <trkpt lat="43.42146" lon="2.65951">
        <ele>748.3</ele>
        <time>2022-06-21T10:02:40Z</time>
      </trkpt>
      <trkpt lat="43.42147" lon="2.65951">
        <ele>748.3</ele>
        <time>2022-06-21T10:02:41Z</time>
      </trkpt>
      <trkpt lat="43.42148" lon="2.65951">
        <ele>748.3</ele>
        <time>2022-06-21T10:02:42Z</time>
      </trkpt>
      <trkpt lat="43.42149" lon="2.65951">
        <ele>748.3</ele>
        <time>2022-06-21T10:02:43Z</time>
      </trkpt>
      <trkpt lat="43.4215" lon="2.65951">
        <ele>748.3</ele>
        <time>2022-06-21T10:02:44Z</time>
      </trkpt>
      <trkpt lat="43.42152" lon="2.65951">
        <ele>748.3</ele>
        <time>2022-06-21T10:02:45Z</time>
      </trkpt>
      <trkpt lat="43.42153" lon="2.65951">
        <ele>748.3</ele>
        <time>2022-06-21T10:02:46Z</time>
      </trkpt>
      <trkpt lat="43.42153" lon="2.65951">
        <ele>748.3</ele>
        <time>2022-06-21T10:02:47Z</time>
      </trkpt>
      <trkpt lat="43.42154" lon="2.65951">
        <ele>748.3</ele>
        <time>2022-06-21T10:02:48Z</time>
      </trkpt>
      <trkpt lat="43.42155" lon="2.6595">
        <ele>748.3</ele>
        <time>2022-06-21T10:02:49Z</time>
      </trkpt>
      <trkpt lat="43.42156" lon="2.6595">
        <ele>748.3</ele>
        <time>2022-06-21T10:02:50Z</time>
      </trkpt>
      <trkpt lat="43.42157" lon="2.6595">
        <ele>748.3</ele>
        <time>2022-06-21T10:02:51Z</time>
      </trkpt>
      <trkpt lat="43.42158" lon="2.6595">
        <ele>748.3</ele>
        <time>2022-06-21T10:02:52Z</time>
      </trkpt>
      <trkpt lat="43.4216" lon="2.6595">
        <ele>748.3</ele>
        <time>2022-06-21T10:02:53Z</time>
      </trkpt>
      <trkpt lat="43.42161" lon="2.6595">
        <ele>748.3</ele>
        <time>2022-06-21T10:02:54Z</time>
      </trkpt>
      <trkpt lat="43.42161" lon="2.6595">
        <ele>748.3</ele>
        <time>2022-06-21T10:02:55Z</time>
      </trkpt>
      <trkpt lat="43.42162" lon="2.6595">
        <ele>748.3</ele>
        <time>2022-06-21T10:02:56Z</time>
      </trkpt>
      <trkpt lat="43.42164" lon="2.6595">
        <ele>748.4</ele>
        <time>2022-06-21T10:02:57Z</time>
      </trkpt>
      <trkpt lat="43.42165" lon="2.6595">
        <ele>748.5</ele>
        <time>2022-06-21T10:02:58Z</time>
      </trkpt>
      <trkpt lat="43.42166" lon="2.6595">
        <ele>748.6</ele>
        <time>2022-06-21T10:02:59Z</time>
      </trkpt>
      <trkpt lat="43.42167" lon="2.6595">
        <ele>748.6</ele>
        <time>2022-06-21T10:03:00Z</time>
      </trkpt>
      <trkpt lat="43.42168" lon="2.65949">
        <ele>748.7</ele>
        <time>2022-06-21T10:03:01Z</time>
      </trkpt>
      <trkpt lat="43.42168" lon="2.65949">
        <ele>748.8</ele>
        <time>2022-06-21T10:03:02Z</time>
      </trkpt>
      <trkpt lat="43.42169" lon="2.65949">
        <ele>748.9</ele>
        <time>2022-06-21T10:03:03Z</time>
      </trkpt>
      <trkpt lat="43.4217" lon="2.65949">
        <ele>748.9</ele>
        <time>2022-06-21T10:03:04Z</time>
      </trkpt>
      <trkpt lat="43.42171" lon="2.65949">
        <ele>749</ele>
        <time>2022-06-21T10:03:05Z</time>
      </trkpt>
      <trkpt lat="43.42172" lon="2.65949">
        <ele>749.1</ele>
        <time>2022-06-21T10:03:06Z</time>
      </trkpt>
      <trkpt lat="43.42173" lon="2.65949">
        <ele>749.2</ele>
        <time>2022-06-21T10:03:07Z</time>
      </trkpt>
      <trkpt lat="43.42174" lon="2.65949">
        <ele>749.3</ele>
        <time>2022-06-21T10:03:08Z</time>
      </trkpt>
      <trkpt lat="43.42175" lon="2.65949">
        <ele>749.4</ele>
        <time>2022-06-21T10:03:09Z</time>
      </trkpt>
      <trkpt lat="43.42176" lon="2.65948">
        <ele>749.5</ele>
        <time>2022-06-21T10:03:10Z</time>
      </trkpt>
      <trkpt lat="43.42177" lon="2.65948">
        <ele>749.7</ele>
        <time>2022-06-21T10:03:11Z</time>
      </trkpt>
      <trkpt lat="43.42178" lon="2.65948">
        <ele>749.8</ele>
        <time>2022-06-21T10:03:12Z</time>
      </trkpt>
      <trkpt lat="43.42179" lon="2.65948">
        <ele>749.9</ele>
        <time>2022-06-21T10:03:13Z</time>
      </trkpt>
      <trkpt lat="43.4218" lon="2.65948">
        <ele>750.1</ele>
        <time>2022-06-21T10:03:14Z</time>
      </trkpt>
      <trkpt lat="43.42181" lon="2.65948">
        <ele>750.2</ele>
        <time>2022-06-21T10:03:15Z</time>
      </trkpt>
      <trkpt lat="43.42182" lon="2.65947">
        <ele>750.4</ele>
        <time>2022-06-21T10:03:16Z</time>
      </trkpt>
      <trkpt lat="43.42183" lon="2.65947">
        <ele>750.6</ele>
        <time>2022-06-21T10:03:17Z</time>
      </trkpt>
      <trkpt lat="43.42184" lon="2.65947">
        <ele>750.8</ele>
        <time>2022-06-21T10:03:18Z</time>
      </trkpt>
      <trkpt lat="43.42185" lon="2.65947">
        <ele>750.9</ele>
        <time>2022-06-21T10:03:19Z</time>
      </trkpt>
      <trkpt lat="43.42187" lon="2.65946">
        <ele>751.1</ele>
        <time>2022-06-21T10:03:20Z</time>
      </trkpt>
      <trkpt lat="43.42187" lon="2.65946">
        <ele>751.3</ele>
        <time>2022-06-21T10:03:21Z</time>
      </trkpt>
      <trkpt lat="43.42188" lon="2.65946">
        <ele>751.4</ele>
        <time>2022-06-21T10:03:22Z</time>
      </trkpt>
      <trkpt lat="43.42189" lon="2.65945">
        <ele>751.5</ele>
        <time>2022-06-21T10:03:23Z</time>
      </trkpt>
      <trkpt lat="43.4219" lon="2.65945">
        <ele>751.7</ele>
        <time>2022-06-21T10:03:24Z</time>
      </trkpt>
      <trkpt lat="43.4219" lon="2.65945">
        <ele>751.8</ele>
        <time>2022-06-21T10:03:25Z</time>
      </trkpt>
      <trkpt lat="43.42191" lon="2.65945">
        <ele>751.9</ele>
        <time>2022-06-21T10:03:26Z</time>
      </trkpt>
      <trkpt lat="43.42192" lon="2.65945">
        <ele>752.1</ele>
        <time>2022-06-21T10:03:27Z</time>
      </trkpt>
      <trkpt lat="43.42193" lon="2.65944">
        <ele>752.3</ele>
        <time>2022-06-21T10:03:28Z</time>
      </trkpt>
      <trkpt lat="43.42195" lon="2.65944">
        <ele>752.5</ele>
        <time>2022-06-21T10:03:29Z</time>
      </trkpt>
      <trkpt lat="43.42196" lon="2.65944">
        <ele>752.6</ele>
        <time>2022-06-21T10:03:30Z</time>
      </trkpt>
      <trkpt lat="43.42196" lon="2.65944">
        <ele>752.8</ele>
        <time>2022-06-21T10:03:31Z</time>
      </trkpt>
      <trkpt lat="43.42197" lon="2.65943">
        <ele>752.9</ele>
        <time>2022-06-21T10:03:32Z</time>
      </trkpt>
      <trkpt lat="43.42198" lon="2.65943">
        <ele>753.1</ele>
        <time>2022-06-21T10:03:33Z</time>
      </trkpt>
      <trkpt lat="43.42199" lon="2.65943">
        <ele>753.3</ele>
        <time>2022-06-21T10:03:34Z</time>
      </trkpt>
      <trkpt lat="43.42201" lon="2.65942">
        <ele>753.5</ele>
        <time>2022-06-21T10:03:35Z</time>
      </trkpt>
      <trkpt lat="43.42201" lon="2.65942">
        <ele>753.6</ele>
        <time>2022-06-21T10:03:36Z</time>
      </trkpt>
      <trkpt lat="43.42202" lon="2.65941">
        <ele>753.7</ele>
        <time>2022-06-21T10:03:37Z</time>
      </trkpt>
      <trkpt lat="43.42203" lon="2.65941">
        <ele>753.9</ele>
        <time>2022-06-21T10:03:38Z</time>
      </trkpt>
      <trkpt lat="43.42204" lon="2.65941">
        <ele>754.1</ele>
        <time>2022-06-21T10:03:39Z</time>
      </trkpt>
      <trkpt lat="43.42205" lon="2.6594">
        <ele>754.3</ele>
        <time>2022-06-21T10:03:40Z</time>
      </trkpt>
      <trkpt lat="43.42206" lon="2.6594">
        <ele>754.4</ele>
        <time>2022-06-21T10:03:41Z</time>
      </trkpt>
      <trkpt lat="43.42207" lon="2.6594">
        <ele>754.6</ele>
        <time>2022-06-21T10:03:42Z</time>
      </trkpt>
      <trkpt lat="43.42208" lon="2.65939">
        <ele>754.7</ele>
        <time>2022-06-21T10:03:43Z</time>
      </trkpt>
      <trkpt lat="43.42209" lon="2.65939">
        <ele>754.9</ele>
        <time>2022-06-21T10:03:44Z</time>
      </trkpt>
      <trkpt lat="43.4221" lon="2.65938">
        <ele>755.1</ele>
        <time>2022-06-21T10:03:45Z</time>
      </trkpt>
      <trkpt lat="43.42211" lon="2.65938">
        <ele>755.3</ele>
        <time>2022-06-21T10:03:46Z</time>
      </trkpt>
      <trkpt lat="43.42212" lon="2.65938">
        <ele>755.4</ele>
        <time>2022-06-21T10:03:47Z</time>
      </trkpt>
      <trkpt lat="43.42213" lon="2.65938">
        <ele>755.5</ele>
        <time>2022-06-21T10:03:48Z</time>
      </trkpt>
      <trkpt lat="43.42214" lon="2.65938">
        <ele>755.7</ele>
        <time>2022-06-21T10:03:49Z</time>
      </trkpt>
      <trkpt lat="43.42214" lon="2.65937">
        <ele>755.8</ele>
        <time>2022-06-21T10:03:50Z</time>
      </trkpt>
      <trkpt lat="43.42215" lon="2.65937">
        <ele>755.9</ele>
        <time>2022-06-21T10:03:51Z</time>
      </trkpt>
      <trkpt lat="43.42216" lon="2.65937">
        <ele>756.1</ele>
        <time>2022-06-21T10:03:52Z</time>
      </trkpt>
      <trkpt lat="43.42217" lon="2.65937">
        <ele>756.2</ele>
        <time>2022-06-21T10:03:53Z</time>
      </trkpt>
      <trkpt lat="43.42217" lon="2.65937">
        <ele>756.3</ele>
        <time>2022-06-21T10:03:54Z</time>
      </trkpt>
      <trkpt lat="43.42218" lon="2.65937">
        <ele>756.4</ele>
        <time>2022-06-21T10:03:55Z</time>
      </trkpt>
      <trkpt lat="43.42219" lon="2.65936">
        <ele>756.6</ele>
        <time>2022-06-21T10:03:56Z</time>
      </trkpt>
      <trkpt lat="43.4222" lon="2.65936">
        <ele>756.7</ele>
        <time>2022-06-21T10:03:57Z</time>
      </trkpt>
      <trkpt lat="43.42221" lon="2.65936">
        <ele>756.9</ele>
        <time>2022-06-21T10:03:58Z</time>
      </trkpt>
      <trkpt lat="43.42222" lon="2.65936">
        <ele>757.1</ele>
        <time>2022-06-21T10:03:59Z</time>
      </trkpt>
      <trkpt lat="43.42223" lon="2.65935">
        <ele>757.3</ele>
        <time>2022-06-21T10:04:00Z</time>
      </trkpt>
      <trkpt lat="43.42224" lon="2.65935">
        <ele>757.4</ele>
        <time>2022-06-21T10:04:01Z</time>
      </trkpt>
      <trkpt lat="43.42225" lon="2.65935">
        <ele>757.5</ele>
        <time>2022-06-21T10:04:02Z</time>
      </trkpt>
      <trkpt lat="43.42225" lon="2.65935">
        <ele>757.6</ele>
        <time>2022-06-21T10:04:03Z</time>
      </trkpt>
      <trkpt lat="43.42227" lon="2.65934">
        <ele>757.9</ele>
        <time>2022-06-21T10:04:04Z</time>
      </trkpt>
      <trkpt lat="43.42227" lon="2.65934">
        <ele>758</ele>
        <time>2022-06-21T10:04:05Z</time>
      </trkpt>
      <trkpt lat="43.42228" lon="2.65934">
        <ele>758.1</ele>
        <time>2022-06-21T10:04:06Z</time>
      </trkpt>
      <trkpt lat="43.42229" lon="2.65934">
        <ele>758.2</ele>
        <time>2022-06-21T10:04:07Z</time>
      </trkpt>
      <trkpt lat="43.4223" lon="2.65933">
        <ele>758.3</ele>
        <time>2022-06-21T10:04:08Z</time>
      </trkpt>
      <trkpt lat="43.42231" lon="2.65933">
        <ele>758.5</ele>
        <time>2022-06-21T10:04:09Z</time>
      </trkpt>
      <trkpt lat="43.42232" lon="2.65932">
        <ele>758.7</ele>
        <time>2022-06-21T10:04:10Z</time>
      </trkpt>
      <trkpt lat="43.42233" lon="2.65932">
        <ele>758.8</ele>
        <time>2022-06-21T10:04:11Z</time>
      </trkpt>
      <trkpt lat="43.42234" lon="2.65932">
        <ele>759</ele>
        <time>2022-06-21T10:04:12Z</time>
      </trkpt>
      <trkpt lat="43.42235" lon="2.65931">
        <ele>759.1</ele>
        <time>2022-06-21T10:04:13Z</time>
      </trkpt>
      <trkpt lat="43.42236" lon="2.65931">
        <ele>759.3</ele>
        <time>2022-06-21T10:04:14Z</time>
      </trkpt>
      <trkpt lat="43.42237" lon="2.6593">
        <ele>759.4</ele>
        <time>2022-06-21T10:04:15Z</time>
      </trkpt>
      <trkpt lat="43.42238" lon="2.6593">
        <ele>759.6</ele>
        <time>2022-06-21T10:04:16Z</time>
      </trkpt>
      <trkpt lat="43.42239" lon="2.65929">
        <ele>759.7</ele>
        <time>2022-06-21T10:04:17Z</time>
      </trkpt>
      <trkpt lat="43.4224" lon="2.65929">
        <ele>759.9</ele>
        <time>2022-06-21T10:04:18Z</time>
      </trkpt>
      <trkpt lat="43.42242" lon="2.65929">
        <ele>760.1</ele>
        <time>2022-06-21T10:04:19Z</time>
      </trkpt>
      <trkpt lat="43.42243" lon="2.65928">
        <ele>760.2</ele>
        <time>2022-06-21T10:04:20Z</time>
      </trkpt>
      <trkpt lat="43.42244" lon="2.65928">
        <ele>760.4</ele>
        <time>2022-06-21T10:04:21Z</time>
      </trkpt>
      <trkpt lat="43.42245" lon="2.65928">
        <ele>760.5</ele>
        <time>2022-06-21T10:04:22Z</time>
      </trkpt>
      <trkpt lat="43.42246" lon="2.65927">
        <ele>760.7</ele>
        <time>2022-06-21T10:04:23Z</time>
      </trkpt>
      <trkpt lat="43.42247" lon="2.65927">
        <ele>760.8</ele>
        <time>2022-06-21T10:04:24Z</time>
      </trkpt>
      <trkpt lat="43.42247" lon="2.65926">
        <ele>761</ele>
        <time>2022-06-21T10:04:25Z</time>
      </trkpt>
      <trkpt lat="43.42248" lon="2.65926">
        <ele>761.1</ele>
        <time>2022-06-21T10:04:26Z</time>
      </trkpt>
      <trkpt lat="43.42249" lon="2.65925">
        <ele>761.3</ele>
        <time>2022-06-21T10:04:27Z</time>
      </trkpt>
      <trkpt lat="43.4225" lon="2.65925">
        <ele>761.4</ele>
        <time>2022-06-21T10:04:28Z</time>
      </trkpt>
      <trkpt lat="43.42251" lon="2.65925">
        <ele>761.6</ele>
        <time>2022-06-21T10:04:29Z</time>
      </trkpt>
      <trkpt lat="43.42252" lon="2.65924">
        <ele>761.7</ele>
        <time>2022-06-21T10:04:30Z</time>
      </trkpt>
      <trkpt lat="43.42253" lon="2.65924">
        <ele>761.8</ele>
        <time>2022-06-21T10:04:31Z</time>
      </trkpt>
      <trkpt lat="43.42254" lon="2.65923">
        <ele>762</ele>
        <time>2022-06-21T10:04:32Z</time>
      </trkpt>
      <trkpt lat="43.42255" lon="2.65923">
        <ele>762.1</ele>
        <time>2022-06-21T10:04:33Z</time>
      </trkpt>
      <trkpt lat="43.42256" lon="2.65922">
        <ele>762.3</ele>
        <time>2022-06-21T10:04:34Z</time>
      </trkpt>
      <trkpt lat="43.42257" lon="2.65922">
        <ele>762.4</ele>
        <time>2022-06-21T10:04:35Z</time>
      </trkpt>
      <trkpt lat="43.42258" lon="2.65922">
        <ele>762.5</ele>
        <time>2022-06-21T10:04:36Z</time>
      </trkpt>
      <trkpt lat="43.42258" lon="2.65921">
        <ele>762.6</ele>
        <time>2022-06-21T10:04:37Z</time>
      </trkpt>
      <trkpt lat="43.42259" lon="2.65921">
        <ele>762.7</ele>
        <time>2022-06-21T10:04:38Z</time>
      </trkpt>
      <trkpt lat="43.42261" lon="2.65921">
        <ele>762.9</ele>
        <time>2022-06-21T10:04:39Z</time>
      </trkpt>
      <trkpt lat="43.42261" lon="2.6592">
        <ele>763</ele>
        <time>2022-06-21T10:04:40Z</time>
      </trkpt>
      <trkpt lat="43.42262" lon="2.6592">
        <ele>763.1</ele>
        <time>2022-06-21T10:04:41Z</time>
      </trkpt>
      <trkpt lat="43.42263" lon="2.65919">
        <ele>763.3</ele>
        <time>2022-06-21T10:04:42Z</time>
      </trkpt>
      <trkpt lat="43.42264" lon="2.65919">
        <ele>763.4</ele>
        <time>2022-06-21T10:04:43Z</time>
      </trkpt>
      <trkpt lat="43.42265" lon="2.65918">
        <ele>763.5</ele>
        <time>2022-06-21T10:04:44Z</time>
      </trkpt>
      <trkpt lat="43.42267" lon="2.65918">
        <ele>763.7</ele>
        <time>2022-06-21T10:04:45Z</time>
      </trkpt>
      <trkpt lat="43.42267" lon="2.65918">
        <ele>763.8</ele>
        <time>2022-06-21T10:04:46Z</time>
      </trkpt>
      <trkpt lat="43.42268" lon="2.65917">
        <ele>763.9</ele>
        <time>2022-06-21T10:04:47Z</time>
      </trkpt>
      <trkpt lat="43.42269" lon="2.65917">
        <ele>764</ele>
        <time>2022-06-21T10:04:48Z</time>
      </trkpt>
      <trkpt lat="43.42271" lon="2.65916">
        <ele>764.3</ele>
        <time>2022-06-21T10:04:49Z</time>
      </trkpt>
      <trkpt lat="43.42272" lon="2.65915">
        <ele>764.4</ele>
        <time>2022-06-21T10:04:50Z</time>
      </trkpt>
      <trkpt lat="43.42273" lon="2.65915">
        <ele>764.5</ele>
        <time>2022-06-21T10:04:51Z</time>
      </trkpt>
      <trkpt lat="43.42274" lon="2.65914">
        <ele>764.6</ele>
        <time>2022-06-21T10:04:52Z</time>
      </trkpt>
      <trkpt lat="43.42275" lon="2.65914">
        <ele>764.7</ele>
        <time>2022-06-21T10:04:53Z</time>
      </trkpt>
      <trkpt lat="43.42275" lon="2.65913">
        <ele>764.8</ele>
        <time>2022-06-21T10:04:54Z</time>
      </trkpt>
      <trkpt lat="43.42277" lon="2.65913">
        <ele>765</ele>
        <time>2022-06-21T10:04:55Z</time>
      </trkpt>
      <trkpt lat="43.42277" lon="2.65913">
        <ele>765.1</ele>
        <time>2022-06-21T10:04:56Z</time>
      </trkpt>
      <trkpt lat="43.42278" lon="2.65912">
        <ele>765.2</ele>
        <time>2022-06-21T10:04:57Z</time>
      </trkpt>
      <trkpt lat="43.42279" lon="2.65912">
        <ele>765.3</ele>
        <time>2022-06-21T10:04:58Z</time>
      </trkpt>
      <trkpt lat="43.4228" lon="2.65911">
        <ele>765.4</ele>
        <time>2022-06-21T10:04:59Z</time>
      </trkpt>
      <trkpt lat="43.42281" lon="2.65911">
        <ele>765.5</ele>
        <time>2022-06-21T10:05:00Z</time>
      </trkpt>
      <trkpt lat="43.42282" lon="2.65911">
        <ele>765.7</ele>
        <time>2022-06-21T10:05:01Z</time>
      </trkpt>
      <trkpt lat="43.42283" lon="2.6591">
        <ele>765.8</ele>
        <time>2022-06-21T10:05:02Z</time>
      </trkpt>
      <trkpt lat="43.42284" lon="2.6591">
        <ele>765.9</ele>
        <time>2022-06-21T10:05:03Z</time>
      </trkpt>
      <trkpt lat="43.42285" lon="2.65909">
        <ele>766.1</ele>
        <time>2022-06-21T10:05:04Z</time>
      </trkpt>
      <trkpt lat="43.42285" lon="2.65909">
        <ele>766.2</ele>
        <time>2022-06-21T10:05:05Z</time>
      </trkpt>
      <trkpt lat="43.42286" lon="2.65909">
        <ele>766.2</ele>
        <time>2022-06-21T10:05:06Z</time>
      </trkpt>
      <trkpt lat="43.42286" lon="2.65909">
        <ele>766.3</ele>
        <time>2022-06-21T10:05:07Z</time>
      </trkpt>
      <trkpt lat="43.42286" lon="2.65909">
        <ele>766.3</ele>
        <time>2022-06-21T10:05:08Z</time>
      </trkpt>
      <trkpt lat="43.42286" lon="2.65909">
        <ele>766.3</ele>
        <time>2022-06-21T10:05:09Z</time>
      </trkpt>
      <trkpt lat="43.42286" lon="2.65909">
        <ele>766.3</ele>
        <time>2022-06-21T10:05:10Z</time>
      </trkpt>
      <trkpt lat="43.42286" lon="2.65909">
        <ele>766.3</ele>
        <time>2022-06-21T10:05:11Z</time>
      </trkpt>
      <trkpt lat="43.42286" lon="2.65909">
        <ele>766.3</ele>
        <time>2022-06-21T10:05:12Z</time>
      </trkpt>
      <trkpt lat="43.42286" lon="2.65909">
        <ele>766.3</ele>
        <time>2022-06-21T10:05:13Z</time>
      </trkpt>
      <trkpt lat="43.42286" lon="2.65909">
        <ele>766.3</ele>
        <time>2022-06-21T10:05:14Z</time>
      </trkpt>
      <trkpt lat="43.42286" lon="2.65909">
        <ele>766.3</ele>
        <time>2022-06-21T10:05:15Z</time>
      </trkpt>
      <trkpt lat="43.42286" lon="2.65909">
        <ele>766.3</ele>
        <time>2022-06-21T10:05:16Z</time>
      </trkpt>
      <trkpt lat="43.42287" lon="2.65909">
        <ele>766.4</ele>
        <time>2022-06-21T10:05:17Z</time>
      </trkpt>
      <trkpt lat="43.42287" lon="2.65909">
        <ele>766.5</ele>
        <time>2022-06-21T10:05:18Z</time>
      </trkpt>
      <trkpt lat="43.42288" lon="2.65908">
        <ele>766.6</ele>
        <time>2022-06-21T10:05:19Z</time>
      </trkpt>
      <trkpt lat="43.4229" lon="2.65908">
        <ele>766.8</ele>
        <time>2022-06-21T10:05:20Z</time>
      </trkpt>
      <trkpt lat="43.42291" lon="2.65907">
        <ele>766.9</ele>
        <time>2022-06-21T10:05:21Z</time>
      </trkpt>
      <trkpt lat="43.42292" lon="2.65906">
        <ele>767</ele>
        <time>2022-06-21T10:05:22Z</time>
      </trkpt>
      <trkpt lat="43.42293" lon="2.65906">
        <ele>767.2</ele>
        <time>2022-06-21T10:05:23Z</time>
      </trkpt>
      <trkpt lat="43.42293" lon="2.65906">
        <ele>767.3</ele>
        <time>2022-06-21T10:05:24Z</time>
      </trkpt>
      <trkpt lat="43.42294" lon="2.65905">
        <ele>767.4</ele>
        <time>2022-06-21T10:05:25Z</time>
      </trkpt>
      <trkpt lat="43.42296" lon="2.65904">
        <ele>767.5</ele>
        <time>2022-06-21T10:05:26Z</time>
      </trkpt>
      <trkpt lat="43.42297" lon="2.65904">
        <ele>767.6</ele>
        <time>2022-06-21T10:05:27Z</time>
      </trkpt>
      <trkpt lat="43.42298" lon="2.65904">
        <ele>767.7</ele>
        <time>2022-06-21T10:05:28Z</time>
      </trkpt>
      <trkpt lat="43.42299" lon="2.65903">
        <ele>767.9</ele>
        <time>2022-06-21T10:05:29Z</time>
      </trkpt>
      <trkpt lat="43.42301" lon="2.65903">
        <ele>768.1</ele>
        <time>2022-06-21T10:05:30Z</time>
      </trkpt>
      <trkpt lat="43.42302" lon="2.65903">
        <ele>768.2</ele>
        <time>2022-06-21T10:05:31Z</time>
      </trkpt>
      <trkpt lat="43.42302" lon="2.65903">
        <ele>768.3</ele>
        <time>2022-06-21T10:05:32Z</time>
      </trkpt>
      <trkpt lat="43.42303" lon="2.65903">
        <ele>768.4</ele>
        <time>2022-06-21T10:05:33Z</time>
      </trkpt>
      <trkpt lat="43.42304" lon="2.65903">
        <ele>768.5</ele>
        <time>2022-06-21T10:05:34Z</time>
      </trkpt>
      <trkpt lat="43.42305" lon="2.65902">
        <ele>768.6</ele>
        <time>2022-06-21T10:05:35Z</time>
      </trkpt>
      <trkpt lat="43.42306" lon="2.65902">
        <ele>768.8</ele>
        <time>2022-06-21T10:05:36Z</time>
      </trkpt>
      <trkpt lat="43.42307" lon="2.65901">
        <ele>768.9</ele>
        <time>2022-06-21T10:05:37Z</time>
      </trkpt>
      <trkpt lat="43.42308" lon="2.65901">
        <ele>769.2</ele>
        <time>2022-06-21T10:05:38Z</time>
      </trkpt>
      <trkpt lat="43.4231" lon="2.659">
        <ele>769.4</ele>
        <time>2022-06-21T10:05:39Z</time>
      </trkpt>
      <trkpt lat="43.42311" lon="2.659">
        <ele>769.5</ele>
        <time>2022-06-21T10:05:40Z</time>
      </trkpt>
      <trkpt lat="43.42311" lon="2.659">
        <ele>769.7</ele>
        <time>2022-06-21T10:05:41Z</time>
      </trkpt>
      <trkpt lat="43.42312" lon="2.659">
        <ele>769.8</ele>
        <time>2022-06-21T10:05:42Z</time>
      </trkpt>
      <trkpt lat="43.42313" lon="2.65899">
        <ele>770</ele>
        <time>2022-06-21T10:05:43Z</time>
      </trkpt>
      <trkpt lat="43.42314" lon="2.65899">
        <ele>770.2</ele>
        <time>2022-06-21T10:05:44Z</time>
      </trkpt>
      <trkpt lat="43.42315" lon="2.65898">
        <ele>770.4</ele>
        <time>2022-06-21T10:05:45Z</time>
      </trkpt>
      <trkpt lat="43.42316" lon="2.65898">
        <ele>770.5</ele>
        <time>2022-06-21T10:05:46Z</time>
      </trkpt>
      <trkpt lat="43.42317" lon="2.65898">
        <ele>770.6</ele>
        <time>2022-06-21T10:05:47Z</time>
      </trkpt>
      <trkpt lat="43.42317" lon="2.65898">
        <ele>770.8</ele>
        <time>2022-06-21T10:05:48Z</time>
      </trkpt>
      <trkpt lat="43.42318" lon="2.65898">
        <ele>771</ele>
        <time>2022-06-21T10:05:49Z</time>
      </trkpt>
      <trkpt lat="43.42319" lon="2.65897">
        <ele>771.1</ele>
        <time>2022-06-21T10:05:50Z</time>
      </trkpt>
      <trkpt lat="43.4232" lon="2.65897">
        <ele>771.3</ele>
        <time>2022-06-21T10:05:51Z</time>
      </trkpt>
      <trkpt lat="43.42321" lon="2.65896">
        <ele>771.5</ele>
        <time>2022-06-21T10:05:52Z</time>
      </trkpt>
      <trkpt lat="43.42322" lon="2.65896">
        <ele>771.6</ele>
        <time>2022-06-21T10:05:53Z</time>
      </trkpt>
      <trkpt lat="43.42322" lon="2.65895">
        <ele>771.8</ele>
        <time>2022-06-21T10:05:54Z</time>
      </trkpt>
      <trkpt lat="43.42323" lon="2.65895">
        <ele>772</ele>
        <time>2022-06-21T10:05:55Z</time>
      </trkpt>
      <trkpt lat="43.42324" lon="2.65894">
        <ele>772.1</ele>
        <time>2022-06-21T10:05:56Z</time>
      </trkpt>
      <trkpt lat="43.42325" lon="2.65894">
        <ele>772.2</ele>
        <time>2022-06-21T10:05:57Z</time>
      </trkpt>
      <trkpt lat="43.42326" lon="2.65894">
        <ele>772.4</ele>
        <time>2022-06-21T10:05:58Z</time>
      </trkpt>
      <trkpt lat="43.42327" lon="2.65894">
        <ele>772.6</ele>
        <time>2022-06-21T10:05:59Z</time>
      </trkpt>
      <trkpt lat="43.42328" lon="2.65893">
        <ele>772.8</ele>
        <time>2022-06-21T10:06:00Z</time>
      </trkpt>
      <trkpt lat="43.42329" lon="2.65892">
        <ele>773.1</ele>
        <time>2022-06-21T10:06:01Z</time>
      </trkpt>
      <trkpt lat="43.4233" lon="2.65892">
        <ele>773.3</ele>
        <time>2022-06-21T10:06:02Z</time>
      </trkpt>
      <trkpt lat="43.42331" lon="2.65892">
        <ele>773.4</ele>
        <time>2022-06-21T10:06:03Z</time>
      </trkpt>
      <trkpt lat="43.42332" lon="2.65891">
        <ele>773.6</ele>
        <time>2022-06-21T10:06:04Z</time>
      </trkpt>
      <trkpt lat="43.42333" lon="2.65891">
        <ele>773.7</ele>
        <time>2022-06-21T10:06:05Z</time>
      </trkpt>
      <trkpt lat="43.42333" lon="2.65891">
        <ele>773.9</ele>
        <time>2022-06-21T10:06:06Z</time>
      </trkpt>
      <trkpt lat="43.42334" lon="2.6589">
        <ele>774</ele>
        <time>2022-06-21T10:06:07Z</time>
      </trkpt>
      <trkpt lat="43.42335" lon="2.6589">
        <ele>774.2</ele>
        <time>2022-06-21T10:06:08Z</time>
      </trkpt>
      <trkpt lat="43.42336" lon="2.6589">
        <ele>774.3</ele>
        <time>2022-06-21T10:06:09Z</time>
      </trkpt>
      <trkpt lat="43.42336" lon="2.6589">
        <ele>774.4</ele>
        <time>2022-06-21T10:06:10Z</time>
      </trkpt>
      <trkpt lat="43.42337" lon="2.6589">
        <ele>774.6</ele>
        <time>2022-06-21T10:06:11Z</time>
      </trkpt>
      <trkpt lat="43.42338" lon="2.65889">
        <ele>774.7</ele>
        <time>2022-06-21T10:06:12Z</time>
      </trkpt>
      <trkpt lat="43.42339" lon="2.65889">
        <ele>774.9</ele>
        <time>2022-06-21T10:06:13Z</time>
      </trkpt>
      <trkpt lat="43.4234" lon="2.65889">
        <ele>775.1</ele>
        <time>2022-06-21T10:06:14Z</time>
      </trkpt>
      <trkpt lat="43.4234" lon="2.65889">
        <ele>775.2</ele>
        <time>2022-06-21T10:06:15Z</time>
      </trkpt>
      <trkpt lat="43.42341" lon="2.65889">
        <ele>775.3</ele>
        <time>2022-06-21T10:06:16Z</time>
      </trkpt>
      <trkpt lat="43.42342" lon="2.65888">
        <ele>775.5</ele>
        <time>2022-06-21T10:06:17Z</time>
      </trkpt>
      <trkpt lat="43.42343" lon="2.65888">
        <ele>775.7</ele>
        <time>2022-06-21T10:06:18Z</time>
      </trkpt>
      <trkpt lat="43.42344" lon="2.65887">
        <ele>775.9</ele>
        <time>2022-06-21T10:06:19Z</time>
      </trkpt>
      <trkpt lat="43.42345" lon="2.65887">
        <ele>776</ele>
        <time>2022-06-21T10:06:20Z</time>
      </trkpt>
      <trkpt lat="43.42346" lon="2.65887">
        <ele>776.2</ele>
        <time>2022-06-21T10:06:21Z</time>
      </trkpt>
      <trkpt lat="43.42347" lon="2.65886">
        <ele>776.3</ele>
        <time>2022-06-21T10:06:22Z</time>
      </trkpt>
      <trkpt lat="43.42348" lon="2.65886">
        <ele>776.5</ele>
        <time>2022-06-21T10:06:23Z</time>
      </trkpt>
      <trkpt lat="43.42349" lon="2.65886">
        <ele>776.6</ele>
        <time>2022-06-21T10:06:24Z</time>
      </trkpt>
      <trkpt lat="43.4235" lon="2.65885">
        <ele>776.9</ele>
        <time>2022-06-21T10:06:25Z</time>
      </trkpt>
      <trkpt lat="43.42351" lon="2.65885">
        <ele>777</ele>
        <time>2022-06-21T10:06:26Z</time>
      </trkpt>
      <trkpt lat="43.42352" lon="2.65884">
        <ele>777.1</ele>
        <time>2022-06-21T10:06:27Z</time>
      </trkpt>
      <trkpt lat="43.42353" lon="2.65884">
        <ele>777.3</ele>
        <time>2022-06-21T10:06:28Z</time>
      </trkpt>
      <trkpt lat="43.42354" lon="2.65884">
        <ele>777.5</ele>
        <time>2022-06-21T10:06:29Z</time>
      </trkpt>
      <trkpt lat="43.42355" lon="2.65883">
        <ele>777.6</ele>
        <time>2022-06-21T10:06:30Z</time>
      </trkpt>
      <trkpt lat="43.42355" lon="2.65883">
        <ele>777.7</ele>
        <time>2022-06-21T10:06:31Z</time>
      </trkpt>
      <trkpt lat="43.42356" lon="2.65883">
        <ele>777.8</ele>
        <time>2022-06-21T10:06:32Z</time>
      </trkpt>
      <trkpt lat="43.42357" lon="2.65883">
        <ele>777.9</ele>
        <time>2022-06-21T10:06:33Z</time>
      </trkpt>
      <trkpt lat="43.42358" lon="2.65882">
        <ele>778</ele>
        <time>2022-06-21T10:06:34Z</time>
      </trkpt>
      <trkpt lat="43.42358" lon="2.65882">
        <ele>778.1</ele>
        <time>2022-06-21T10:06:35Z</time>
      </trkpt>
      <trkpt lat="43.42359" lon="2.65882">
        <ele>778.2</ele>
        <time>2022-06-21T10:06:36Z</time>
      </trkpt>
      <trkpt lat="43.4236" lon="2.65882">
        <ele>778.4</ele>
        <time>2022-06-21T10:06:37Z</time>
      </trkpt>
      <trkpt lat="43.42361" lon="2.65881">
        <ele>778.4</ele>
        <time>2022-06-21T10:06:38Z</time>
      </trkpt>
      <trkpt lat="43.42361" lon="2.65881">
        <ele>778.5</ele>
        <time>2022-06-21T10:06:39Z</time>
      </trkpt>
      <trkpt lat="43.42362" lon="2.65881">
        <ele>778.6</ele>
        <time>2022-06-21T10:06:40Z</time>
      </trkpt>
      <trkpt lat="43.42362" lon="2.65881">
        <ele>778.6</ele>
        <time>2022-06-21T10:06:41Z</time>
      </trkpt>
      <trkpt lat="43.42363" lon="2.65881">
        <ele>778.7</ele>
        <time>2022-06-21T10:06:42Z</time>
      </trkpt>
      <trkpt lat="43.42363" lon="2.65881">
        <ele>778.8</ele>
        <time>2022-06-21T10:06:43Z</time>
      </trkpt>
      <trkpt lat="43.42364" lon="2.65881">
        <ele>778.8</ele>
        <time>2022-06-21T10:06:44Z</time>
      </trkpt>
      <trkpt lat="43.42364" lon="2.65882">
        <ele>778.9</ele>
        <time>2022-06-21T10:06:45Z</time>
      </trkpt>
      <trkpt lat="43.42364" lon="2.65882">
        <ele>778.9</ele>
        <time>2022-06-21T10:06:46Z</time>
      </trkpt>
      <trkpt lat="43.42364" lon="2.65882">
        <ele>778.8</ele>
        <time>2022-06-21T10:06:47Z</time>
      </trkpt>
      <trkpt lat="43.42364" lon="2.65882">
        <ele>778.8</ele>
        <time>2022-06-21T10:06:48Z</time>
      </trkpt>
      <trkpt lat="43.42364" lon="2.65882">
        <ele>778.9</ele>
        <time>2022-06-21T10:06:49Z</time>
      </trkpt>
      <trkpt lat="43.42363" lon="2.65882">
        <ele>778.9</ele>
        <time>2022-06-21T10:06:50Z</time>
      </trkpt>
      <trkpt lat="43.42363" lon="2.65882">
        <ele>778.9</ele>
        <time>2022-06-21T10:06:51Z</time>
      </trkpt>
      <trkpt lat="43.42363" lon="2.65882">
        <ele>778.9</ele>
        <time>2022-06-21T10:06:52Z</time>
      </trkpt>
      <trkpt lat="43.42363" lon="2.65882">
        <ele>778.9</ele>
        <time>2022-06-21T10:06:53Z</time>
      </trkpt>
      <trkpt lat="43.42363" lon="2.65882">
        <ele>778.9</ele>
        <time>2022-06-21T10:06:54Z</time>
      </trkpt>
      <trkpt lat="43.42363" lon="2.65882">
        <ele>778.9</ele>
        <time>2022-06-21T10:06:55Z</time>
      </trkpt>
      <trkpt lat="43.42363" lon="2.65882">
        <ele>778.9</ele>
        <time>2022-06-21T10:06:56Z</time>
      </trkpt>
      <trkpt lat="43.42363" lon="2.65882">
        <ele>778.9</ele>
        <time>2022-06-21T10:06:57Z</time>
      </trkpt>
      <trkpt lat="43.42363" lon="2.65882">
        <ele>778.9</ele>
        <time>2022-06-21T10:06:58Z</time>
      </trkpt>
      <trkpt lat="43.42363" lon="2.65882">
        <ele>778.9</ele>
        <time>2022-06-21T10:06:59Z</time>
      </trkpt>
      <trkpt lat="43.42364" lon="2.65882">
        <ele>778.9</ele>
        <time>2022-06-21T10:07:00Z</time>
      </trkpt>
      <trkpt lat="43.42364" lon="2.65882">
        <ele>779</ele>
        <time>2022-06-21T10:07:01Z</time>
      </trkpt>
      <trkpt lat="43.42365" lon="2.65881">
        <ele>779.1</ele>
        <time>2022-06-21T10:07:02Z</time>
      </trkpt>
      <trkpt lat="43.42366" lon="2.6588">
        <ele>779.2</ele>
        <time>2022-06-21T10:07:03Z</time>
      </trkpt>
      <trkpt lat="43.42367" lon="2.6588">
        <ele>779.4</ele>
        <time>2022-06-21T10:07:04Z</time>
      </trkpt>
      <trkpt lat="43.42369" lon="2.65879">
        <ele>779.7</ele>
        <time>2022-06-21T10:07:05Z</time>
      </trkpt>
      <trkpt lat="43.4237" lon="2.65879">
        <ele>779.8</ele>
        <time>2022-06-21T10:07:06Z</time>
      </trkpt>
      <trkpt lat="43.4237" lon="2.65879">
        <ele>779.9</ele>
        <time>2022-06-21T10:07:07Z</time>
      </trkpt>
      <trkpt lat="43.42372" lon="2.65879">
        <ele>780.1</ele>
        <time>2022-06-21T10:07:08Z</time>
      </trkpt>
      <trkpt lat="43.42372" lon="2.65879">
        <ele>780.2</ele>
        <time>2022-06-21T10:07:09Z</time>
      </trkpt>
      <trkpt lat="43.42374" lon="2.65879">
        <ele>780.4</ele>
        <time>2022-06-21T10:07:10Z</time>
      </trkpt>
      <trkpt lat="43.42375" lon="2.65879">
        <ele>780.5</ele>
        <time>2022-06-21T10:07:11Z</time>
      </trkpt>
      <trkpt lat="43.42376" lon="2.65879">
        <ele>780.8</ele>
        <time>2022-06-21T10:07:12Z</time>
      </trkpt>
      <trkpt lat="43.42377" lon="2.65878">
        <ele>780.9</ele>
        <time>2022-06-21T10:07:13Z</time>
      </trkpt>
      <trkpt lat="43.42378" lon="2.65878">
        <ele>781</ele>
        <time>2022-06-21T10:07:14Z</time>
      </trkpt>
      <trkpt lat="43.42379" lon="2.65878">
        <ele>781.1</ele>
        <time>2022-06-21T10:07:15Z</time>
      </trkpt>
      <trkpt lat="43.42381" lon="2.65878">
        <ele>781.3</ele>
        <time>2022-06-21T10:07:16Z</time>
      </trkpt>
      <trkpt lat="43.42382" lon="2.65877">
        <ele>781.4</ele>
        <time>2022-06-21T10:07:17Z</time>
      </trkpt>
      <trkpt lat="43.42383" lon="2.65877">
        <ele>781.5</ele>
        <time>2022-06-21T10:07:18Z</time>
      </trkpt>
      <trkpt lat="43.42384" lon="2.65877">
        <ele>781.6</ele>
        <time>2022-06-21T10:07:19Z</time>
      </trkpt>
      <trkpt lat="43.42385" lon="2.65877">
        <ele>781.7</ele>
        <time>2022-06-21T10:07:20Z</time>
      </trkpt>
      <trkpt lat="43.42386" lon="2.65877">
        <ele>781.8</ele>
        <time>2022-06-21T10:07:21Z</time>
      </trkpt>
      <trkpt lat="43.42387" lon="2.65877">
        <ele>781.9</ele>
        <time>2022-06-21T10:07:22Z</time>
      </trkpt>
      <trkpt lat="43.42387" lon="2.65877">
        <ele>782</ele>
        <time>2022-06-21T10:07:23Z</time>
      </trkpt>
      <trkpt lat="43.42389" lon="2.65877">
        <ele>782.2</ele>
        <time>2022-06-21T10:07:24Z</time>
      </trkpt>
      <trkpt lat="43.4239" lon="2.65877">
        <ele>782.3</ele>
        <time>2022-06-21T10:07:25Z</time>
      </trkpt>
      <trkpt lat="43.4239" lon="2.65876">
        <ele>782.4</ele>
        <time>2022-06-21T10:07:26Z</time>
      </trkpt>
      <trkpt lat="43.42391" lon="2.65876">
        <ele>782.5</ele>
        <time>2022-06-21T10:07:27Z</time>
      </trkpt>
      <trkpt lat="43.42392" lon="2.65876">
        <ele>782.6</ele>
        <time>2022-06-21T10:07:28Z</time>
      </trkpt>
      <trkpt lat="43.42393" lon="2.65876">
        <ele>782.6</ele>
        <time>2022-06-21T10:07:29Z</time>
      </trkpt>
      <trkpt lat="43.42393" lon="2.65876">
        <ele>782.7</ele>
        <time>2022-06-21T10:07:30Z</time>
      </trkpt>
      <trkpt lat="43.42393" lon="2.65876">
        <ele>782.7</ele>
        <time>2022-06-21T10:07:31Z</time>
      </trkpt>
      <trkpt lat="43.42393" lon="2.65876">
        <ele>782.7</ele>
        <time>2022-06-21T10:07:32Z</time>
      </trkpt>
      <trkpt lat="43.42393" lon="2.65876">
        <ele>782.7</ele>
        <time>2022-06-21T10:07:33Z</time>
      </trkpt>
      <trkpt lat="43.42393" lon="2.65876">
        <ele>782.7</ele>
        <time>2022-06-21T10:07:34Z</time>
      </trkpt>
      <trkpt lat="43.42393" lon="2.65876">
        <ele>782.7</ele>
        <time>2022-06-21T10:07:35Z</time>
      </trkpt>
      <trkpt lat="43.42393" lon="2.65876">
        <ele>782.7</ele>
        <time>2022-06-21T10:07:36Z</time>
      </trkpt>
      <trkpt lat="43.42393" lon="2.65876">
        <ele>782.7</ele>
        <time>2022-06-21T10:07:37Z</time>
      </trkpt>
      <trkpt lat="43.42393" lon="2.65876">
        <ele>782.6</ele>
        <time>2022-06-21T10:07:38Z</time>
      </trkpt>
      <trkpt lat="43.42393" lon="2.65876">
        <ele>782.6</ele>
        <time>2022-06-21T10:07:39Z</time>
      </trkpt>
      <trkpt lat="43.42393" lon="2.65876">
        <ele>782.6</ele>
        <time>2022-06-21T10:07:40Z</time>
      </trkpt>
      <trkpt lat="43.42393" lon="2.65876">
        <ele>782.6</ele>
        <time>2022-06-21T10:07:41Z</time>
      </trkpt>
      <trkpt lat="43.42395" lon="2.65876">
        <ele>782.8</ele>
        <time>2022-06-21T10:07:42Z</time>
      </trkpt>
      <trkpt lat="43.42396" lon="2.65876">
        <ele>782.9</ele>
        <time>2022-06-21T10:07:43Z</time>
      </trkpt>
      <trkpt lat="43.42397" lon="2.65876">
        <ele>783.1</ele>
        <time>2022-06-21T10:07:44Z</time>
      </trkpt>
      <trkpt lat="43.42398" lon="2.65876">
        <ele>783.2</ele>
        <time>2022-06-21T10:07:45Z</time>
      </trkpt>
      <trkpt lat="43.42399" lon="2.65876">
        <ele>783.3</ele>
        <time>2022-06-21T10:07:46Z</time>
      </trkpt>
      <trkpt lat="43.42401" lon="2.65876">
        <ele>783.6</ele>
        <time>2022-06-21T10:07:47Z</time>
      </trkpt>
      <trkpt lat="43.42402" lon="2.65876">
        <ele>783.7</ele>
        <time>2022-06-21T10:07:48Z</time>
      </trkpt>
      <trkpt lat="43.42403" lon="2.65876">
        <ele>783.8</ele>
        <time>2022-06-21T10:07:49Z</time>
      </trkpt>
      <trkpt lat="43.42404" lon="2.65875">
        <ele>783.9</ele>
        <time>2022-06-21T10:07:50Z</time>
      </trkpt>
      <trkpt lat="43.42405" lon="2.65876">
        <ele>784.1</ele>
        <time>2022-06-21T10:07:51Z</time>
      </trkpt>
      <trkpt lat="43.42406" lon="2.65876">
        <ele>784.2</ele>
        <time>2022-06-21T10:07:52Z</time>
      </trkpt>
      <trkpt lat="43.42407" lon="2.65877">
        <ele>784.3</ele>
        <time>2022-06-21T10:07:53Z</time>
      </trkpt>
      <trkpt lat="43.42407" lon="2.65877">
        <ele>784.4</ele>
        <time>2022-06-21T10:07:54Z</time>
      </trkpt>
      <trkpt lat="43.42408" lon="2.65877">
        <ele>784.5</ele>
        <time>2022-06-21T10:07:55Z</time>
      </trkpt>
      <trkpt lat="43.42409" lon="2.65877">
        <ele>784.7</ele>
        <time>2022-06-21T10:07:56Z</time>
      </trkpt>
      <trkpt lat="43.4241" lon="2.65877">
        <ele>784.8</ele>
        <time>2022-06-21T10:07:57Z</time>
      </trkpt>
      <trkpt lat="43.42411" lon="2.65877">
        <ele>784.9</ele>
        <time>2022-06-21T10:07:58Z</time>
      </trkpt>
      <trkpt lat="43.42412" lon="2.65877">
        <ele>785.1</ele>
        <time>2022-06-21T10:07:59Z</time>
      </trkpt>
      <trkpt lat="43.42413" lon="2.65877">
        <ele>785.2</ele>
        <time>2022-06-21T10:08:00Z</time>
      </trkpt>
      <trkpt lat="43.42415" lon="2.65878">
        <ele>785.4</ele>
        <time>2022-06-21T10:08:01Z</time>
      </trkpt>
      <trkpt lat="43.42416" lon="2.65878">
        <ele>785.6</ele>
        <time>2022-06-21T10:08:02Z</time>
      </trkpt>
      <trkpt lat="43.42416" lon="2.65878">
        <ele>785.7</ele>
        <time>2022-06-21T10:08:03Z</time>
      </trkpt>
      <trkpt lat="43.42417" lon="2.65878">
        <ele>785.8</ele>
        <time>2022-06-21T10:08:04Z</time>
      </trkpt>
      <trkpt lat="43.42418" lon="2.65878">
        <ele>786</ele>
        <time>2022-06-21T10:08:05Z</time>
      </trkpt>
      <trkpt lat="43.42419" lon="2.65878">
        <ele>786.1</ele>
        <time>2022-06-21T10:08:06Z</time>
      </trkpt>
      <trkpt lat="43.42421" lon="2.65878">
        <ele>786.2</ele>
        <time>2022-06-21T10:08:07Z</time>
      </trkpt>
      <trkpt lat="43.42422" lon="2.65878">
        <ele>786.4</ele>
        <time>2022-06-21T10:08:08Z</time>
      </trkpt>
      <trkpt lat="43.42423" lon="2.65878">
        <ele>786.6</ele>
        <time>2022-06-21T10:08:09Z</time>
      </trkpt>
      <trkpt lat="43.42424" lon="2.65878">
        <ele>786.7</ele>
        <time>2022-06-21T10:08:10Z</time>
      </trkpt>
      <trkpt lat="43.42426" lon="2.65879">
        <ele>786.9</ele>
        <time>2022-06-21T10:08:11Z</time>
      </trkpt>
      <trkpt lat="43.42426" lon="2.65879">
        <ele>787</ele>
        <time>2022-06-21T10:08:12Z</time>
      </trkpt>
      <trkpt lat="43.42427" lon="2.65879">
        <ele>787.1</ele>
        <time>2022-06-21T10:08:13Z</time>
      </trkpt>
      <trkpt lat="43.42428" lon="2.65879">
        <ele>787.2</ele>
        <time>2022-06-21T10:08:14Z</time>
      </trkpt>
      <trkpt lat="43.42429" lon="2.65879">
        <ele>787.3</ele>
        <time>2022-06-21T10:08:15Z</time>
      </trkpt>
      <trkpt lat="43.4243" lon="2.65879">
        <ele>787.4</ele>
        <time>2022-06-21T10:08:16Z</time>
      </trkpt>
      <trkpt lat="43.42432" lon="2.65879">
        <ele>787.6</ele>
        <time>2022-06-21T10:08:17Z</time>
      </trkpt>
      <trkpt lat="43.42433" lon="2.65879">
        <ele>787.7</ele>
        <time>2022-06-21T10:08:18Z</time>
      </trkpt>
      <trkpt lat="43.42434" lon="2.65879">
        <ele>787.7</ele>
        <time>2022-06-21T10:08:19Z</time>
      </trkpt>
      <trkpt lat="43.42435" lon="2.6588">
        <ele>787.8</ele>
        <time>2022-06-21T10:08:20Z</time>
      </trkpt>
      <trkpt lat="43.42436" lon="2.6588">
        <ele>787.9</ele>
        <time>2022-06-21T10:08:21Z</time>
      </trkpt>
      <trkpt lat="43.42437" lon="2.65881">
        <ele>788</ele>
        <time>2022-06-21T10:08:22Z</time>
      </trkpt>
      <trkpt lat="43.42438" lon="2.65881">
        <ele>788.1</ele>
        <time>2022-06-21T10:08:23Z</time>
      </trkpt>
      <trkpt lat="43.42439" lon="2.65882">
        <ele>788.2</ele>
        <time>2022-06-21T10:08:24Z</time>
      </trkpt>
      <trkpt lat="43.4244" lon="2.65882">
        <ele>788.3</ele>
        <time>2022-06-21T10:08:25Z</time>
      </trkpt>
      <trkpt lat="43.42441" lon="2.65883">
        <ele>788.4</ele>
        <time>2022-06-21T10:08:26Z</time>
      </trkpt>
      <trkpt lat="43.42442" lon="2.65883">
        <ele>788.5</ele>
        <time>2022-06-21T10:08:27Z</time>
      </trkpt>
      <trkpt lat="43.42444" lon="2.65883">
        <ele>788.6</ele>
        <time>2022-06-21T10:08:28Z</time>
      </trkpt>
      <trkpt lat="43.42445" lon="2.65883">
        <ele>788.7</ele>
        <time>2022-06-21T10:08:29Z</time>
      </trkpt>
      <trkpt lat="43.42446" lon="2.65884">
        <ele>788.8</ele>
        <time>2022-06-21T10:08:30Z</time>
      </trkpt>
      <trkpt lat="43.42447" lon="2.65884">
        <ele>788.8</ele>
        <time>2022-06-21T10:08:31Z</time>
      </trkpt>
      <trkpt lat="43.42448" lon="2.65884">
        <ele>788.9</ele>
        <time>2022-06-21T10:08:32Z</time>
      </trkpt>
      <trkpt lat="43.42449" lon="2.65885">
        <ele>789</ele>
        <time>2022-06-21T10:08:33Z</time>
      </trkpt>
      <trkpt lat="43.4245" lon="2.65885">
        <ele>789</ele>
        <time>2022-06-21T10:08:34Z</time>
      </trkpt>
      <trkpt lat="43.42451" lon="2.65885">
        <ele>789.1</ele>
        <time>2022-06-21T10:08:35Z</time>
      </trkpt>
      <trkpt lat="43.42452" lon="2.65885">
        <ele>789.2</ele>
        <time>2022-06-21T10:08:36Z</time>
      </trkpt>
      <trkpt lat="43.42453" lon="2.65885">
        <ele>789.3</ele>
        <time>2022-06-21T10:08:37Z</time>
      </trkpt>
      <trkpt lat="43.42454" lon="2.65885">
        <ele>789.3</ele>
        <time>2022-06-21T10:08:38Z</time>
      </trkpt>
      <trkpt lat="43.42455" lon="2.65885">
        <ele>789.4</ele>
        <time>2022-06-21T10:08:39Z</time>
      </trkpt>
      <trkpt lat="43.42456" lon="2.65885">
        <ele>789.5</ele>
        <time>2022-06-21T10:08:40Z</time>
      </trkpt>
      <trkpt lat="43.42457" lon="2.65886">
        <ele>789.5</ele>
        <time>2022-06-21T10:08:41Z</time>
      </trkpt>
      <trkpt lat="43.42458" lon="2.65886">
        <ele>789.6</ele>
        <time>2022-06-21T10:08:42Z</time>
      </trkpt>
      <trkpt lat="43.42459" lon="2.65887">
        <ele>789.7</ele>
        <time>2022-06-21T10:08:43Z</time>
      </trkpt>
      <trkpt lat="43.4246" lon="2.65888">
        <ele>789.7</ele>
        <time>2022-06-21T10:08:44Z</time>
      </trkpt>
      <trkpt lat="43.42461" lon="2.65888">
        <ele>789.8</ele>
        <time>2022-06-21T10:08:45Z</time>
      </trkpt>
      <trkpt lat="43.42462" lon="2.65888">
        <ele>789.8</ele>
        <time>2022-06-21T10:08:46Z</time>
      </trkpt>
      <trkpt lat="43.42464" lon="2.65889">
        <ele>789.9</ele>
        <time>2022-06-21T10:08:47Z</time>
      </trkpt>
      <trkpt lat="43.42465" lon="2.65889">
        <ele>790</ele>
        <time>2022-06-21T10:08:48Z</time>
      </trkpt>
      <trkpt lat="43.42466" lon="2.65889">
        <ele>790</ele>
        <time>2022-06-21T10:08:49Z</time>
      </trkpt>
      <trkpt lat="43.42468" lon="2.6589">
        <ele>790.1</ele>
        <time>2022-06-21T10:08:50Z</time>
      </trkpt>
      <trkpt lat="43.42469" lon="2.6589">
        <ele>790.1</ele>
        <time>2022-06-21T10:08:51Z</time>
      </trkpt>
      <trkpt lat="43.4247" lon="2.6589">
        <ele>790.2</ele>
        <time>2022-06-21T10:08:52Z</time>
      </trkpt>
      <trkpt lat="43.42471" lon="2.65891">
        <ele>790.2</ele>
        <time>2022-06-21T10:08:53Z</time>
      </trkpt>
      <trkpt lat="43.42472" lon="2.65891">
        <ele>790.2</ele>
        <time>2022-06-21T10:08:54Z</time>
      </trkpt>
      <trkpt lat="43.42473" lon="2.65891">
        <ele>790.3</ele>
        <time>2022-06-21T10:08:55Z</time>
      </trkpt>
      <trkpt lat="43.42475" lon="2.65892">
        <ele>790.4</ele>
        <time>2022-06-21T10:08:56Z</time>
      </trkpt>
      <trkpt lat="43.42476" lon="2.65892">
        <ele>790.4</ele>
        <time>2022-06-21T10:08:57Z</time>
      </trkpt>
      <trkpt lat="43.42476" lon="2.65892">
        <ele>790.4</ele>
        <time>2022-06-21T10:08:58Z</time>
      </trkpt>
      <trkpt lat="43.42477" lon="2.65893">
        <ele>790.5</ele>
        <time>2022-06-21T10:08:59Z</time>
      </trkpt>
      <trkpt lat="43.42479" lon="2.65893">
        <ele>790.5</ele>
        <time>2022-06-21T10:09:00Z</time>
      </trkpt>
      <trkpt lat="43.4248" lon="2.65894">
        <ele>790.6</ele>
        <time>2022-06-21T10:09:01Z</time>
      </trkpt>
      <trkpt lat="43.42481" lon="2.65894">
        <ele>790.6</ele>
        <time>2022-06-21T10:09:02Z</time>
      </trkpt>
      <trkpt lat="43.42482" lon="2.65894">
        <ele>790.6</ele>
        <time>2022-06-21T10:09:03Z</time>
      </trkpt>
      <trkpt lat="43.42483" lon="2.65895">
        <ele>790.7</ele>
        <time>2022-06-21T10:09:04Z</time>
      </trkpt>
      <trkpt lat="43.42484" lon="2.65895">
        <ele>790.7</ele>
        <time>2022-06-21T10:09:05Z</time>
      </trkpt>
      <trkpt lat="43.42485" lon="2.65895">
        <ele>790.8</ele>
        <time>2022-06-21T10:09:06Z</time>
      </trkpt>
      <trkpt lat="43.42486" lon="2.65895">
        <ele>790.8</ele>
        <time>2022-06-21T10:09:07Z</time>
      </trkpt>
      <trkpt lat="43.42488" lon="2.65896">
        <ele>790.9</ele>
        <time>2022-06-21T10:09:08Z</time>
      </trkpt>
      <trkpt lat="43.42489" lon="2.65896">
        <ele>790.9</ele>
        <time>2022-06-21T10:09:09Z</time>
      </trkpt>
      <trkpt lat="43.4249" lon="2.65896">
        <ele>790.9</ele>
        <time>2022-06-21T10:09:10Z</time>
      </trkpt>
      <trkpt lat="43.42491" lon="2.65896">
        <ele>791</ele>
        <time>2022-06-21T10:09:11Z</time>
      </trkpt>
      <trkpt lat="43.42492" lon="2.65896">
        <ele>791</ele>
        <time>2022-06-21T10:09:12Z</time>
      </trkpt>
      <trkpt lat="43.42493" lon="2.65897">
        <ele>791</ele>
        <time>2022-06-21T10:09:13Z</time>
      </trkpt>
      <trkpt lat="43.42494" lon="2.65897">
        <ele>791.1</ele>
        <time>2022-06-21T10:09:14Z</time>
      </trkpt>
      <trkpt lat="43.42496" lon="2.65897">
        <ele>791.1</ele>
        <time>2022-06-21T10:09:15Z</time>
      </trkpt>
      <trkpt lat="43.42497" lon="2.65897">
        <ele>791.2</ele>
        <time>2022-06-21T10:09:16Z</time>
      </trkpt>
      <trkpt lat="43.42498" lon="2.65898">
        <ele>791.2</ele>
        <time>2022-06-21T10:09:17Z</time>
      </trkpt>
      <trkpt lat="43.42499" lon="2.65898">
        <ele>791.2</ele>
        <time>2022-06-21T10:09:18Z</time>
      </trkpt>
      <trkpt lat="43.425" lon="2.65898">
        <ele>791.3</ele>
        <time>2022-06-21T10:09:19Z</time>
      </trkpt>
      <trkpt lat="43.42501" lon="2.65898">
        <ele>791.3</ele>
        <time>2022-06-21T10:09:20Z</time>
      </trkpt>
      <trkpt lat="43.42502" lon="2.65898">
        <ele>791.4</ele>
        <time>2022-06-21T10:09:21Z</time>
      </trkpt>
      <trkpt lat="43.42503" lon="2.65898">
        <ele>791.4</ele>
        <time>2022-06-21T10:09:22Z</time>
      </trkpt>
      <trkpt lat="43.42504" lon="2.65898">
        <ele>791.4</ele>
        <time>2022-06-21T10:09:23Z</time>
      </trkpt>
      <trkpt lat="43.42505" lon="2.65898">
        <ele>791.5</ele>
        <time>2022-06-21T10:09:24Z</time>
      </trkpt>
      <trkpt lat="43.42506" lon="2.65898">
        <ele>791.5</ele>
        <time>2022-06-21T10:09:25Z</time>
      </trkpt>
      <trkpt lat="43.42507" lon="2.65899">
        <ele>791.6</ele>
        <time>2022-06-21T10:09:26Z</time>
      </trkpt>
      <trkpt lat="43.42509" lon="2.65899">
        <ele>791.7</ele>
        <time>2022-06-21T10:09:27Z</time>
      </trkpt>
      <trkpt lat="43.4251" lon="2.65898">
        <ele>791.7</ele>
        <time>2022-06-21T10:09:28Z</time>
      </trkpt>
      <trkpt lat="43.42511" lon="2.65898">
        <ele>791.8</ele>
        <time>2022-06-21T10:09:29Z</time>
      </trkpt>
      <trkpt lat="43.42512" lon="2.65898">
        <ele>791.8</ele>
        <time>2022-06-21T10:09:30Z</time>
      </trkpt>
      <trkpt lat="43.42514" lon="2.65899">
        <ele>791.9</ele>
        <time>2022-06-21T10:09:31Z</time>
      </trkpt>
      <trkpt lat="43.42515" lon="2.65899">
        <ele>791.9</ele>
        <time>2022-06-21T10:09:32Z</time>
      </trkpt>
      <trkpt lat="43.42516" lon="2.659">
        <ele>792</ele>
        <time>2022-06-21T10:09:33Z</time>
      </trkpt>
      <trkpt lat="43.42517" lon="2.659">
        <ele>792</ele>
        <time>2022-06-21T10:09:34Z</time>
      </trkpt>
      <trkpt lat="43.42518" lon="2.659">
        <ele>792.1</ele>
        <time>2022-06-21T10:09:35Z</time>
      </trkpt>
      <trkpt lat="43.42519" lon="2.659">
        <ele>792.1</ele>
        <time>2022-06-21T10:09:36Z</time>
      </trkpt>
      <trkpt lat="43.42521" lon="2.659">
        <ele>792.2</ele>
        <time>2022-06-21T10:09:37Z</time>
      </trkpt>
      <trkpt lat="43.42522" lon="2.659">
        <ele>792.2</ele>
        <time>2022-06-21T10:09:38Z</time>
      </trkpt>
      <trkpt lat="43.42523" lon="2.659">
        <ele>792.3</ele>
        <time>2022-06-21T10:09:39Z</time>
      </trkpt>
      <trkpt lat="43.42523" lon="2.659">
        <ele>792.3</ele>
        <time>2022-06-21T10:09:40Z</time>
      </trkpt>
      <trkpt lat="43.42524" lon="2.659">
        <ele>792.4</ele>
        <time>2022-06-21T10:09:41Z</time>
      </trkpt>
      <trkpt lat="43.42526" lon="2.65899">
        <ele>792.4</ele>
        <time>2022-06-21T10:09:42Z</time>
      </trkpt>
      <trkpt lat="43.42528" lon="2.65899">
        <ele>792.5</ele>
        <time>2022-06-21T10:09:43Z</time>
      </trkpt>
      <trkpt lat="43.42529" lon="2.65899">
        <ele>792.6</ele>
        <time>2022-06-21T10:09:44Z</time>
      </trkpt>
      <trkpt lat="43.4253" lon="2.65899">
        <ele>792.6</ele>
        <time>2022-06-21T10:09:45Z</time>
      </trkpt>
      <trkpt lat="43.4253" lon="2.65899">
        <ele>792.7</ele>
        <time>2022-06-21T10:09:46Z</time>
      </trkpt>
      <trkpt lat="43.42532" lon="2.65899">
        <ele>792.7</ele>
        <time>2022-06-21T10:09:47Z</time>
      </trkpt>
      <trkpt lat="43.42532" lon="2.65899">
        <ele>792.8</ele>
        <time>2022-06-21T10:09:48Z</time>
      </trkpt>
      <trkpt lat="43.42534" lon="2.65898">
        <ele>792.9</ele>
        <time>2022-06-21T10:09:49Z</time>
      </trkpt>
      <trkpt lat="43.42535" lon="2.65898">
        <ele>792.9</ele>
        <time>2022-06-21T10:09:50Z</time>
      </trkpt>
      <trkpt lat="43.42536" lon="2.65897">
        <ele>793</ele>
        <time>2022-06-21T10:09:51Z</time>
      </trkpt>
      <trkpt lat="43.42537" lon="2.65897">
        <ele>793.1</ele>
        <time>2022-06-21T10:09:52Z</time>
      </trkpt>
      <trkpt lat="43.42538" lon="2.65896">
        <ele>793.1</ele>
        <time>2022-06-21T10:09:53Z</time>
      </trkpt>
      <trkpt lat="43.42539" lon="2.65896">
        <ele>793.2</ele>
        <time>2022-06-21T10:09:54Z</time>
      </trkpt>
      <trkpt lat="43.4254" lon="2.65895">
        <ele>793.3</ele>
        <time>2022-06-21T10:09:55Z</time>
      </trkpt>
      <trkpt lat="43.42541" lon="2.65894">
        <ele>793.4</ele>
        <time>2022-06-21T10:09:56Z</time>
      </trkpt>
      <trkpt lat="43.42542" lon="2.65893">
        <ele>793.5</ele>
        <time>2022-06-21T10:09:57Z</time>
      </trkpt>
      <trkpt lat="43.42543" lon="2.65893">
        <ele>793.5</ele>
        <time>2022-06-21T10:09:58Z</time>
      </trkpt>
      <trkpt lat="43.42544" lon="2.65893">
        <ele>793.6</ele>
        <time>2022-06-21T10:09:59Z</time>
      </trkpt>
      <trkpt lat="43.42545" lon="2.65892">
        <ele>793.7</ele>
        <time>2022-06-21T10:10:00Z</time>
      </trkpt>
      <trkpt lat="43.42546" lon="2.65892">
        <ele>793.8</ele>
        <time>2022-06-21T10:10:01Z</time>
      </trkpt>
      <trkpt lat="43.42547" lon="2.65891">
        <ele>793.9</ele>
        <time>2022-06-21T10:10:02Z</time>
      </trkpt>
      <trkpt lat="43.42548" lon="2.6589">
        <ele>794.1</ele>
        <time>2022-06-21T10:10:03Z</time>
      </trkpt>
      <trkpt lat="43.42549" lon="2.65889">
        <ele>794.2</ele>
        <time>2022-06-21T10:10:04Z</time>
      </trkpt>
      <trkpt lat="43.42549" lon="2.65889">
        <ele>794.2</ele>
        <time>2022-06-21T10:10:05Z</time>
      </trkpt>
      <trkpt lat="43.4255" lon="2.65888">
        <ele>794.4</ele>
        <time>2022-06-21T10:10:06Z</time>
      </trkpt>
      <trkpt lat="43.42551" lon="2.65887">
        <ele>794.5</ele>
        <time>2022-06-21T10:10:07Z</time>
      </trkpt>
      <trkpt lat="43.42551" lon="2.65886">
        <ele>794.6</ele>
        <time>2022-06-21T10:10:08Z</time>
      </trkpt>
      <trkpt lat="43.42552" lon="2.65885">
        <ele>794.7</ele>
        <time>2022-06-21T10:10:09Z</time>
      </trkpt>
      <trkpt lat="43.42553" lon="2.65885">
        <ele>794.8</ele>
        <time>2022-06-21T10:10:10Z</time>
      </trkpt>
      <trkpt lat="43.42554" lon="2.65883">
        <ele>795</ele>
        <time>2022-06-21T10:10:11Z</time>
      </trkpt>
      <trkpt lat="43.42555" lon="2.65883">
        <ele>795.1</ele>
        <time>2022-06-21T10:10:12Z</time>
      </trkpt>
      <trkpt lat="43.42555" lon="2.65882">
        <ele>795.2</ele>
        <time>2022-06-21T10:10:13Z</time>
      </trkpt>
      <trkpt lat="43.42556" lon="2.65882">
        <ele>795.3</ele>
        <time>2022-06-21T10:10:14Z</time>
      </trkpt>
      <trkpt lat="43.42557" lon="2.6588">
        <ele>795.5</ele>
        <time>2022-06-21T10:10:15Z</time>
      </trkpt>
      <trkpt lat="43.42558" lon="2.6588">
        <ele>795.6</ele>
        <time>2022-06-21T10:10:16Z</time>
      </trkpt>
      <trkpt lat="43.42558" lon="2.65879">
        <ele>795.7</ele>
        <time>2022-06-21T10:10:17Z</time>
      </trkpt>
      <trkpt lat="43.42559" lon="2.65878">
        <ele>795.8</ele>
        <time>2022-06-21T10:10:18Z</time>
      </trkpt>
      <trkpt lat="43.42559" lon="2.65877">
        <ele>795.9</ele>
        <time>2022-06-21T10:10:19Z</time>
      </trkpt>
      <trkpt lat="43.4256" lon="2.65876">
        <ele>796</ele>
        <time>2022-06-21T10:10:20Z</time>
      </trkpt>
      <trkpt lat="43.4256" lon="2.65875">
        <ele>796.1</ele>
        <time>2022-06-21T10:10:21Z</time>
      </trkpt>
      <trkpt lat="43.42561" lon="2.65875">
        <ele>796.3</ele>
        <time>2022-06-21T10:10:22Z</time>
      </trkpt>
      <trkpt lat="43.42562" lon="2.65874">
        <ele>796.4</ele>
        <time>2022-06-21T10:10:23Z</time>
      </trkpt>
      <trkpt lat="43.42563" lon="2.65873">
        <ele>796.5</ele>
        <time>2022-06-21T10:10:24Z</time>
      </trkpt>
      <trkpt lat="43.42563" lon="2.65872">
        <ele>796.7</ele>
        <time>2022-06-21T10:10:25Z</time>
      </trkpt>
      <trkpt lat="43.42564" lon="2.65871">
        <ele>796.8</ele>
        <time>2022-06-21T10:10:26Z</time>
      </trkpt>
      <trkpt lat="43.42565" lon="2.6587">
        <ele>797</ele>
        <time>2022-06-21T10:10:27Z</time>
      </trkpt>
      <trkpt lat="43.42566" lon="2.65869">
        <ele>797.1</ele>
        <time>2022-06-21T10:10:28Z</time>
      </trkpt>
      <trkpt lat="43.42567" lon="2.65868">
        <ele>797.3</ele>
        <time>2022-06-21T10:10:29Z</time>
      </trkpt>
      <trkpt lat="43.42568" lon="2.65867">
        <ele>797.4</ele>
        <time>2022-06-21T10:10:30Z</time>
      </trkpt>
      <trkpt lat="43.42568" lon="2.65866">
        <ele>797.5</ele>
        <time>2022-06-21T10:10:31Z</time>
      </trkpt>
      <trkpt lat="43.42569" lon="2.65866">
        <ele>797.6</ele>
        <time>2022-06-21T10:10:32Z</time>
      </trkpt>
      <trkpt lat="43.42569" lon="2.65865">
        <ele>797.8</ele>
        <time>2022-06-21T10:10:33Z</time>
      </trkpt>
      <trkpt lat="43.4257" lon="2.65864">
        <ele>797.9</ele>
        <time>2022-06-21T10:10:34Z</time>
      </trkpt>
      <trkpt lat="43.42571" lon="2.65864">
        <ele>798</ele>
        <time>2022-06-21T10:10:35Z</time>
      </trkpt>
      <trkpt lat="43.42572" lon="2.65863">
        <ele>798.2</ele>
        <time>2022-06-21T10:10:36Z</time>
      </trkpt>
      <trkpt lat="43.42573" lon="2.65863">
        <ele>798.3</ele>
        <time>2022-06-21T10:10:37Z</time>
      </trkpt>
      <trkpt lat="43.42574" lon="2.65863">
        <ele>798.4</ele>
        <time>2022-06-21T10:10:38Z</time>
      </trkpt>
      <trkpt lat="43.42574" lon="2.65863">
        <ele>798.5</ele>
        <time>2022-06-21T10:10:39Z</time>
      </trkpt>
      <trkpt lat="43.42575" lon="2.65862">
        <ele>798.6</ele>
        <time>2022-06-21T10:10:40Z</time>
      </trkpt>
      <trkpt lat="43.42575" lon="2.65862">
        <ele>798.6</ele>
        <time>2022-06-21T10:10:41Z</time>
      </trkpt>
      <trkpt lat="43.42575" lon="2.65862">
        <ele>798.7</ele>
        <time>2022-06-21T10:10:42Z</time>
      </trkpt>
      <trkpt lat="43.42575" lon="2.65861">
        <ele>798.7</ele>
        <time>2022-06-21T10:10:43Z</time>
      </trkpt>
      <trkpt lat="43.42575" lon="2.65861">
        <ele>798.8</ele>
        <time>2022-06-21T10:10:44Z</time>
      </trkpt>
      <trkpt lat="43.42575" lon="2.65861">
        <ele>798.8</ele>
        <time>2022-06-21T10:10:45Z</time>
      </trkpt>
      <trkpt lat="43.42575" lon="2.65861">
        <ele>798.8</ele>
        <time>2022-06-21T10:10:46Z</time>
      </trkpt>
      <trkpt lat="43.42576" lon="2.6586">
        <ele>798.9</ele>
        <time>2022-06-21T10:10:47Z</time>
      </trkpt>
      <trkpt lat="43.42576" lon="2.6586">
        <ele>798.9</ele>
        <time>2022-06-21T10:10:48Z</time>
      </trkpt>
      <trkpt lat="43.42576" lon="2.65859">
        <ele>799</ele>
        <time>2022-06-21T10:10:49Z</time>
      </trkpt>
      <trkpt lat="43.42577" lon="2.65859">
        <ele>799.1</ele>
        <time>2022-06-21T10:10:50Z</time>
      </trkpt>
      <trkpt lat="43.42578" lon="2.65858">
        <ele>799.2</ele>
        <time>2022-06-21T10:10:51Z</time>
      </trkpt>
      <trkpt lat="43.42578" lon="2.65857">
        <ele>799.3</ele>
        <time>2022-06-21T10:10:52Z</time>
      </trkpt>
      <trkpt lat="43.42579" lon="2.65856">
        <ele>799.5</ele>
        <time>2022-06-21T10:10:53Z</time>
      </trkpt>
      <trkpt lat="43.4258" lon="2.65854">
        <ele>799.6</ele>
        <time>2022-06-21T10:10:54Z</time>
      </trkpt>
      <trkpt lat="43.42581" lon="2.65853">
        <ele>799.7</ele>
        <time>2022-06-21T10:10:55Z</time>
      </trkpt>
      <trkpt lat="43.42582" lon="2.65852">
        <ele>799.9</ele>
        <time>2022-06-21T10:10:56Z</time>
      </trkpt>
      <trkpt lat="43.42582" lon="2.65851">
        <ele>800</ele>
        <time>2022-06-21T10:10:57Z</time>
      </trkpt>
      <trkpt lat="43.42583" lon="2.6585">
        <ele>800.1</ele>
        <time>2022-06-21T10:10:58Z</time>
      </trkpt>
      <trkpt lat="43.42584" lon="2.65849">
        <ele>800.2</ele>
        <time>2022-06-21T10:10:59Z</time>
      </trkpt>
      <trkpt lat="43.42584" lon="2.65849">
        <ele>800.3</ele>
        <time>2022-06-21T10:11:00Z</time>
      </trkpt>
      <trkpt lat="43.42585" lon="2.65849">
        <ele>800.3</ele>
        <time>2022-06-21T10:11:01Z</time>
      </trkpt>
      <trkpt lat="43.42585" lon="2.65848">
        <ele>800.4</ele>
        <time>2022-06-21T10:11:02Z</time>
      </trkpt>
      <trkpt lat="43.42585" lon="2.65848">
        <ele>800.4</ele>
        <time>2022-06-21T10:11:03Z</time>
      </trkpt>
      <trkpt lat="43.42586" lon="2.65847">
        <ele>800.5</ele>
        <time>2022-06-21T10:11:04Z</time>
      </trkpt>
      <trkpt lat="43.42586" lon="2.65847">
        <ele>800.5</ele>
        <time>2022-06-21T10:11:05Z</time>
      </trkpt>
      <trkpt lat="43.42587" lon="2.65846">
        <ele>800.6</ele>
        <time>2022-06-21T10:11:06Z</time>
      </trkpt>
      <trkpt lat="43.42588" lon="2.65845">
        <ele>800.8</ele>
        <time>2022-06-21T10:11:07Z</time>
      </trkpt>
      <trkpt lat="43.42588" lon="2.65845">
        <ele>800.8</ele>
        <time>2022-06-21T10:11:08Z</time>
      </trkpt>
      <trkpt lat="43.42588" lon="2.65845">
        <ele>800.8</ele>
        <time>2022-06-21T10:11:09Z</time>
      </trkpt>
      <trkpt lat="43.42588" lon="2.65845">
        <ele>800.8</ele>
        <time>2022-06-21T10:11:10Z</time>
      </trkpt>
      <trkpt lat="43.42589" lon="2.65845">
        <ele>800.9</ele>
        <time>2022-06-21T10:11:11Z</time>
      </trkpt>
      <trkpt lat="43.42589" lon="2.65844">
        <ele>801</ele>
        <time>2022-06-21T10:11:12Z</time>
      </trkpt>
      <trkpt lat="43.42591" lon="2.65843">
        <ele>801.2</ele>
        <time>2022-06-21T10:11:13Z</time>
      </trkpt>
      <trkpt lat="43.42591" lon="2.65843">
        <ele>801.3</ele>
        <time>2022-06-21T10:11:14Z</time>
      </trkpt>
      <trkpt lat="43.42592" lon="2.65842">
        <ele>801.3</ele>
        <time>2022-06-21T10:11:15Z</time>
      </trkpt>
      <trkpt lat="43.42592" lon="2.65842">
        <ele>801.4</ele>
        <time>2022-06-21T10:11:16Z</time>
      </trkpt>
      <trkpt lat="43.42593" lon="2.65842">
        <ele>801.4</ele>
        <time>2022-06-21T10:11:17Z</time>
      </trkpt>
      <trkpt lat="43.42593" lon="2.65841">
        <ele>801.5</ele>
        <time>2022-06-21T10:11:18Z</time>
      </trkpt>
      <trkpt lat="43.42594" lon="2.6584">
        <ele>801.7</ele>
        <time>2022-06-21T10:11:19Z</time>
      </trkpt>
      <trkpt lat="43.42595" lon="2.6584">
        <ele>801.8</ele>
        <time>2022-06-21T10:11:20Z</time>
      </trkpt>
      <trkpt lat="43.42595" lon="2.65839">
        <ele>801.9</ele>
        <time>2022-06-21T10:11:21Z</time>
      </trkpt>
      <trkpt lat="43.42596" lon="2.65838">
        <ele>802</ele>
        <time>2022-06-21T10:11:22Z</time>
      </trkpt>
      <trkpt lat="43.42597" lon="2.65837">
        <ele>802.1</ele>
        <time>2022-06-21T10:11:23Z</time>
      </trkpt>
      <trkpt lat="43.42597" lon="2.65836">
        <ele>802.3</ele>
        <time>2022-06-21T10:11:24Z</time>
      </trkpt>
      <trkpt lat="43.42598" lon="2.65835">
        <ele>802.4</ele>
        <time>2022-06-21T10:11:25Z</time>
      </trkpt>
      <trkpt lat="43.42598" lon="2.65835">
        <ele>802.4</ele>
        <time>2022-06-21T10:11:26Z</time>
      </trkpt>
      <trkpt lat="43.42598" lon="2.65835">
        <ele>802.4</ele>
        <time>2022-06-21T10:11:27Z</time>
      </trkpt>
      <trkpt lat="43.42598" lon="2.65835">
        <ele>802.4</ele>
        <time>2022-06-21T10:11:28Z</time>
      </trkpt>
      <trkpt lat="43.42598" lon="2.65835">
        <ele>802.4</ele>
        <time>2022-06-21T10:11:29Z</time>
      </trkpt>
      <trkpt lat="43.42598" lon="2.65835">
        <ele>802.4</ele>
        <time>2022-06-21T10:11:30Z</time>
      </trkpt>
      <trkpt lat="43.42598" lon="2.65835">
        <ele>802.4</ele>
        <time>2022-06-21T10:11:31Z</time>
      </trkpt>
      <trkpt lat="43.42598" lon="2.65834">
        <ele>802.5</ele>
        <time>2022-06-21T10:11:32Z</time>
      </trkpt>
      <trkpt lat="43.42598" lon="2.65834">
        <ele>802.6</ele>
        <time>2022-06-21T10:11:33Z</time>
      </trkpt>
      <trkpt lat="43.42599" lon="2.65833">
        <ele>802.7</ele>
        <time>2022-06-21T10:11:34Z</time>
      </trkpt>
      <trkpt lat="43.42599" lon="2.65831">
        <ele>802.8</ele>
        <time>2022-06-21T10:11:35Z</time>
      </trkpt>
      <trkpt lat="43.42599" lon="2.6583">
        <ele>802.9</ele>
        <time>2022-06-21T10:11:36Z</time>
      </trkpt>
      <trkpt lat="43.426" lon="2.65828">
        <ele>803.1</ele>
        <time>2022-06-21T10:11:37Z</time>
      </trkpt>
      <trkpt lat="43.426" lon="2.65827">
        <ele>803.2</ele>
        <time>2022-06-21T10:11:38Z</time>
      </trkpt>
      <trkpt lat="43.426" lon="2.65826">
        <ele>803.4</ele>
        <time>2022-06-21T10:11:39Z</time>
      </trkpt>
      <trkpt lat="43.426" lon="2.65825">
        <ele>803.5</ele>
        <time>2022-06-21T10:11:40Z</time>
      </trkpt>
      <trkpt lat="43.42599" lon="2.65823">
        <ele>804</ele>
        <time>2022-06-21T10:11:41Z</time>
      </trkpt>
      <trkpt lat="43.42599" lon="2.65822">
        <ele>804</ele>
        <time>2022-06-21T10:11:42Z</time>
      </trkpt>
      <trkpt lat="43.42599" lon="2.6582">
        <ele>804</ele>
        <time>2022-06-21T10:11:43Z</time>
      </trkpt>
      <trkpt lat="43.42599" lon="2.65819">
        <ele>804</ele>
        <time>2022-06-21T10:11:44Z</time>
      </trkpt>
      <trkpt lat="43.42599" lon="2.65819">
        <ele>804</ele>
        <time>2022-06-21T10:11:45Z</time>
      </trkpt>
      <trkpt lat="43.42598" lon="2.65818">
        <ele>804</ele>
        <time>2022-06-21T10:11:46Z</time>
      </trkpt>
      <trkpt lat="43.42598" lon="2.65817">
        <ele>804</ele>
        <time>2022-06-21T10:11:47Z</time>
      </trkpt>
      <trkpt lat="43.42598" lon="2.65816">
        <ele>804</ele>
        <time>2022-06-21T10:11:48Z</time>
      </trkpt>
      <trkpt lat="43.42598" lon="2.65816">
        <ele>804</ele>
        <time>2022-06-21T10:11:49Z</time>
      </trkpt>
      <trkpt lat="43.42598" lon="2.65816">
        <ele>804</ele>
        <time>2022-06-21T10:11:50Z</time>
      </trkpt>
      <trkpt lat="43.42598" lon="2.65815">
        <ele>804</ele>
        <time>2022-06-21T10:11:51Z</time>
      </trkpt>
      <trkpt lat="43.42598" lon="2.65815">
        <ele>804</ele>
        <time>2022-06-21T10:11:52Z</time>
      </trkpt>
      <trkpt lat="43.42598" lon="2.65815">
        <ele>804</ele>
        <time>2022-06-21T10:11:53Z</time>
      </trkpt>
      <trkpt lat="43.42598" lon="2.65816">
        <ele>804</ele>
        <time>2022-06-21T10:11:54Z</time>
      </trkpt>
      <trkpt lat="43.42598" lon="2.65816">
        <ele>804</ele>
        <time>2022-06-21T10:11:55Z</time>
      </trkpt>
      <trkpt lat="43.42598" lon="2.65816">
        <ele>804</ele>
        <time>2022-06-21T10:11:56Z</time>
      </trkpt>
      <trkpt lat="43.42598" lon="2.65816">
        <ele>804</ele>
        <time>2022-06-21T10:11:57Z</time>
      </trkpt>
      <trkpt lat="43.42598" lon="2.65816">
        <ele>804</ele>
        <time>2022-06-21T10:11:58Z</time>
      </trkpt>
      <trkpt lat="43.42598" lon="2.65816">
        <ele>804</ele>
        <time>2022-06-21T10:11:59Z</time>
      </trkpt>
      <trkpt lat="43.42598" lon="2.65816">
        <ele>804</ele>
        <time>2022-06-21T10:12:00Z</time>
      </trkpt>
      <trkpt lat="43.42598" lon="2.65815">
        <ele>804</ele>
        <time>2022-06-21T10:12:01Z</time>
      </trkpt>
      <trkpt lat="43.42598" lon="2.65815">
        <ele>804</ele>
        <time>2022-06-21T10:12:02Z</time>
      </trkpt>
      <trkpt lat="43.42598" lon="2.65814">
        <ele>804</ele>
        <time>2022-06-21T10:12:03Z</time>
      </trkpt>
      <trkpt lat="43.42598" lon="2.65813">
        <ele>803.9</ele>
        <time>2022-06-21T10:12:04Z</time>
      </trkpt>
      <trkpt lat="43.42598" lon="2.65812">
        <ele>803.9</ele>
        <time>2022-06-21T10:12:05Z</time>
      </trkpt>
      <trkpt lat="43.42597" lon="2.65811">
        <ele>803.9</ele>
        <time>2022-06-21T10:12:06Z</time>
      </trkpt>
      <trkpt lat="43.42597" lon="2.6581">
        <ele>803.9</ele>
        <time>2022-06-21T10:12:07Z</time>
      </trkpt>
      <trkpt lat="43.42597" lon="2.65809">
        <ele>803.9</ele>
        <time>2022-06-21T10:12:08Z</time>
      </trkpt>
      <trkpt lat="43.42597" lon="2.65808">
        <ele>803.9</ele>
        <time>2022-06-21T10:12:09Z</time>
      </trkpt>
      <trkpt lat="43.42597" lon="2.65808">
        <ele>803.9</ele>
        <time>2022-06-21T10:12:10Z</time>
      </trkpt>
      <trkpt lat="43.42597" lon="2.65808">
        <ele>803.9</ele>
        <time>2022-06-21T10:12:11Z</time>
      </trkpt>
      <trkpt lat="43.42597" lon="2.65808">
        <ele>803.9</ele>
        <time>2022-06-21T10:12:12Z</time>
      </trkpt>
      <trkpt lat="43.42597" lon="2.65808">
        <ele>803.9</ele>
        <time>2022-06-21T10:12:13Z</time>
      </trkpt>
      <trkpt lat="43.42597" lon="2.65808">
        <ele>803.9</ele>
        <time>2022-06-21T10:12:14Z</time>
      </trkpt>
      <trkpt lat="43.42597" lon="2.65808">
        <ele>803.9</ele>
        <time>2022-06-21T10:12:15Z</time>
      </trkpt>
      <trkpt lat="43.42597" lon="2.65808">
        <ele>803.9</ele>
        <time>2022-06-21T10:12:16Z</time>
      </trkpt>
      <trkpt lat="43.42597" lon="2.65808">
        <ele>803.9</ele>
        <time>2022-06-21T10:12:17Z</time>
      </trkpt>
      <trkpt lat="43.42597" lon="2.65808">
        <ele>803.9</ele>
        <time>2022-06-21T10:12:18Z</time>
      </trkpt>
      <trkpt lat="43.42597" lon="2.65808">
        <ele>803.9</ele>
        <time>2022-06-21T10:12:19Z</time>
      </trkpt>
      <trkpt lat="43.42597" lon="2.65808">
        <ele>803.9</ele>
        <time>2022-06-21T10:12:20Z</time>
      </trkpt>
      <trkpt lat="43.42597" lon="2.65808">
        <ele>803.9</ele>
        <time>2022-06-21T10:12:21Z</time>
      </trkpt>
      <trkpt lat="43.42597" lon="2.65808">
        <ele>803.9</ele>
        <time>2022-06-21T10:12:22Z</time>
      </trkpt>
      <trkpt lat="43.42597" lon="2.65807">
        <ele>803.9</ele>
        <time>2022-06-21T10:12:23Z</time>
      </trkpt>
      <trkpt lat="43.42597" lon="2.65807">
        <ele>803.9</ele>
        <time>2022-06-21T10:12:24Z</time>
      </trkpt>
      <trkpt lat="43.42596" lon="2.65806">
        <ele>803.9</ele>
        <time>2022-06-21T10:12:25Z</time>
      </trkpt>
      <trkpt lat="43.42596" lon="2.65805">
        <ele>803.9</ele>
        <time>2022-06-21T10:12:26Z</time>
      </trkpt>
      <trkpt lat="43.42595" lon="2.65804">
        <ele>803.9</ele>
        <time>2022-06-21T10:12:27Z</time>
      </trkpt>
      <trkpt lat="43.42595" lon="2.65803">
        <ele>803.9</ele>
        <time>2022-06-21T10:12:28Z</time>
      </trkpt>
      <trkpt lat="43.42595" lon="2.65802">
        <ele>803.9</ele>
        <time>2022-06-21T10:12:29Z</time>
      </trkpt>
      <trkpt lat="43.42595" lon="2.65802">
        <ele>803.9</ele>
        <time>2022-06-21T10:12:30Z</time>
      </trkpt>
      <trkpt lat="43.42595" lon="2.65802">
        <ele>803.9</ele>
        <time>2022-06-21T10:12:31Z</time>
      </trkpt>
      <trkpt lat="43.42595" lon="2.65802">
        <ele>803.9</ele>
        <time>2022-06-21T10:12:32Z</time>
      </trkpt>
      <trkpt lat="43.42595" lon="2.65802">
        <ele>803.9</ele>
        <time>2022-06-21T10:12:33Z</time>
      </trkpt>
      <trkpt lat="43.42596" lon="2.65803">
        <ele>803.9</ele>
        <time>2022-06-21T10:12:34Z</time>
      </trkpt>
      <trkpt lat="43.42596" lon="2.65803">
        <ele>803.9</ele>
        <time>2022-06-21T10:12:35Z</time>
      </trkpt>
      <trkpt lat="43.42596" lon="2.65803">
        <ele>803.9</ele>
        <time>2022-06-21T10:12:36Z</time>
      </trkpt>
      <trkpt lat="43.42596" lon="2.65803">
        <ele>803.9</ele>
        <time>2022-06-21T10:12:37Z</time>
      </trkpt>
      <trkpt lat="43.42596" lon="2.65803">
        <ele>803.9</ele>
        <time>2022-06-21T10:12:38Z</time>
      </trkpt>
      <trkpt lat="43.42596" lon="2.65804">
        <ele>803.9</ele>
        <time>2022-06-21T10:12:39Z</time>
      </trkpt>
      <trkpt lat="43.42596" lon="2.65804">
        <ele>803.9</ele>
        <time>2022-06-21T10:12:40Z</time>
      </trkpt>
      <trkpt lat="43.42596" lon="2.65804">
        <ele>803.9</ele>
        <time>2022-06-21T10:12:41Z</time>
      </trkpt>
      <trkpt lat="43.42596" lon="2.65804">
        <ele>803.9</ele>
        <time>2022-06-21T10:12:42Z</time>
      </trkpt>
      <trkpt lat="43.42596" lon="2.65804">
        <ele>803.9</ele>
        <time>2022-06-21T10:12:43Z</time>
      </trkpt>
      <trkpt lat="43.42596" lon="2.65805">
        <ele>803.9</ele>
        <time>2022-06-21T10:12:44Z</time>
      </trkpt>
      <trkpt lat="43.42597" lon="2.65805">
        <ele>803.9</ele>
        <time>2022-06-21T10:12:45Z</time>
      </trkpt>
      <trkpt lat="43.42597" lon="2.65805">
        <ele>803.9</ele>
        <time>2022-06-21T10:12:46Z</time>
      </trkpt>
      <trkpt lat="43.42597" lon="2.65805">
        <ele>803.9</ele>
        <time>2022-06-21T10:12:47Z</time>
      </trkpt>
      <trkpt lat="43.42597" lon="2.65805">
        <ele>803.9</ele>
        <time>2022-06-21T10:12:48Z</time>
      </trkpt>
      <trkpt lat="43.42597" lon="2.65806">
        <ele>803.9</ele>
        <time>2022-06-21T10:12:49Z</time>
      </trkpt>
      <trkpt lat="43.42597" lon="2.65806">
        <ele>803.9</ele>
        <time>2022-06-21T10:12:50Z</time>
      </trkpt>
      <trkpt lat="43.42597" lon="2.65806">
        <ele>803.9</ele>
        <time>2022-06-21T10:12:51Z</time>
      </trkpt>
      <trkpt lat="43.42597" lon="2.65806">
        <ele>803.9</ele>
        <time>2022-06-21T10:12:52Z</time>
      </trkpt>
      <trkpt lat="43.42598" lon="2.65807">
        <ele>803.9</ele>
        <time>2022-06-21T10:12:53Z</time>
      </trkpt>
      <trkpt lat="43.42599" lon="2.65808">
        <ele>803.9</ele>
        <time>2022-06-21T10:12:54Z</time>
      </trkpt>
      <trkpt lat="43.42599" lon="2.65809">
        <ele>803.9</ele>
        <time>2022-06-21T10:12:55Z</time>
      </trkpt>
      <trkpt lat="43.42599" lon="2.6581">
        <ele>803.9</ele>
        <time>2022-06-21T10:12:56Z</time>
      </trkpt>
      <trkpt lat="43.42599" lon="2.65811">
        <ele>803.9</ele>
        <time>2022-06-21T10:12:57Z</time>
      </trkpt>
      <trkpt lat="43.426" lon="2.65812">
        <ele>803.9</ele>
        <time>2022-06-21T10:12:58Z</time>
      </trkpt>
      <trkpt lat="43.426" lon="2.65812">
        <ele>803.9</ele>
        <time>2022-06-21T10:12:59Z</time>
      </trkpt>
      <trkpt lat="43.42601" lon="2.65814">
        <ele>803.9</ele>
        <time>2022-06-21T10:13:00Z</time>
      </trkpt>
      <trkpt lat="43.42601" lon="2.65814">
        <ele>803.9</ele>
        <time>2022-06-21T10:13:01Z</time>
      </trkpt>
      <trkpt lat="43.42602" lon="2.65815">
        <ele>803.9</ele>
        <time>2022-06-21T10:13:02Z</time>
      </trkpt>
      <trkpt lat="43.42602" lon="2.65815">
        <ele>803.9</ele>
        <time>2022-06-21T10:13:03Z</time>
      </trkpt>
      <trkpt lat="43.42603" lon="2.65816">
        <ele>803.9</ele>
        <time>2022-06-21T10:13:04Z</time>
      </trkpt>
      <trkpt lat="43.42603" lon="2.65817">
        <ele>803.9</ele>
        <time>2022-06-21T10:13:05Z</time>
      </trkpt>
      <trkpt lat="43.42604" lon="2.65819">
        <ele>803.9</ele>
        <time>2022-06-21T10:13:06Z</time>
      </trkpt>
      <trkpt lat="43.42604" lon="2.6582">
        <ele>803.9</ele>
        <time>2022-06-21T10:13:07Z</time>
      </trkpt>
      <trkpt lat="43.42604" lon="2.65821">
        <ele>803.9</ele>
        <time>2022-06-21T10:13:08Z</time>
      </trkpt>
      <trkpt lat="43.42604" lon="2.65822">
        <ele>803.9</ele>
        <time>2022-06-21T10:13:09Z</time>
      </trkpt>
      <trkpt lat="43.42605" lon="2.65823">
        <ele>803.9</ele>
        <time>2022-06-21T10:13:10Z</time>
      </trkpt>
      <trkpt lat="43.42605" lon="2.65824">
        <ele>803.9</ele>
        <time>2022-06-21T10:13:11Z</time>
      </trkpt>
      <trkpt lat="43.42606" lon="2.65825">
        <ele>803.9</ele>
        <time>2022-06-21T10:13:12Z</time>
      </trkpt>
      <trkpt lat="43.42606" lon="2.65825">
        <ele>803.9</ele>
        <time>2022-06-21T10:13:13Z</time>
      </trkpt>
      <trkpt lat="43.42607" lon="2.65826">
        <ele>803.9</ele>
        <time>2022-06-21T10:13:14Z</time>
      </trkpt>
      <trkpt lat="43.42608" lon="2.65825">
        <ele>803.9</ele>
        <time>2022-06-21T10:13:15Z</time>
      </trkpt>
      <trkpt lat="43.42608" lon="2.65825">
        <ele>803.9</ele>
        <time>2022-06-21T10:13:16Z</time>
      </trkpt>
      <trkpt lat="43.42609" lon="2.65825">
        <ele>803.9</ele>
        <time>2022-06-21T10:13:17Z</time>
      </trkpt>
      <trkpt lat="43.4261" lon="2.65824">
        <ele>803.9</ele>
        <time>2022-06-21T10:13:18Z</time>
      </trkpt>
      <trkpt lat="43.4261" lon="2.65823">
        <ele>803.9</ele>
        <time>2022-06-21T10:13:19Z</time>
      </trkpt>
      <trkpt lat="43.42611" lon="2.65823">
        <ele>803.9</ele>
        <time>2022-06-21T10:13:20Z</time>
      </trkpt>
      <trkpt lat="43.42611" lon="2.65821">
        <ele>803.9</ele>
        <time>2022-06-21T10:13:21Z</time>
      </trkpt>
      <trkpt lat="43.42611" lon="2.65821">
        <ele>803.9</ele>
        <time>2022-06-21T10:13:22Z</time>
      </trkpt>
      <trkpt lat="43.42611" lon="2.6582">
        <ele>803.9</ele>
        <time>2022-06-21T10:13:23Z</time>
      </trkpt>
      <trkpt lat="43.4261" lon="2.6582">
        <ele>803.9</ele>
        <time>2022-06-21T10:13:24Z</time>
      </trkpt>
      <trkpt lat="43.42611" lon="2.65819">
        <ele>803.9</ele>
        <time>2022-06-21T10:13:25Z</time>
      </trkpt>
      <trkpt lat="43.42611" lon="2.65818">
        <ele>803.9</ele>
        <time>2022-06-21T10:13:26Z</time>
      </trkpt>
      <trkpt lat="43.42611" lon="2.65817">
        <ele>803.9</ele>
        <time>2022-06-21T10:13:27Z</time>
      </trkpt>
      <trkpt lat="43.42611" lon="2.65816">
        <ele>803.9</ele>
        <time>2022-06-21T10:13:28Z</time>
      </trkpt>
      <trkpt lat="43.42611" lon="2.65816">
        <ele>803.9</ele>
        <time>2022-06-21T10:13:29Z</time>
      </trkpt>
      <trkpt lat="43.42611" lon="2.65816">
        <ele>803.9</ele>
        <time>2022-06-21T10:13:30Z</time>
      </trkpt>
      <trkpt lat="43.42611" lon="2.65816">
        <ele>803.9</ele>
        <time>2022-06-21T10:13:31Z</time>
      </trkpt>
      <trkpt lat="43.42611" lon="2.65816">
        <ele>803.9</ele>
        <time>2022-06-21T10:13:32Z</time>
      </trkpt>
      <trkpt lat="43.42611" lon="2.65816">
        <ele>803.9</ele>
        <time>2022-06-21T10:13:33Z</time>
      </trkpt>
      <trkpt lat="43.42611" lon="2.65815">
        <ele>803.9</ele>
        <time>2022-06-21T10:13:34Z</time>
      </trkpt>
      <trkpt lat="43.42611" lon="2.65816">
        <ele>803.9</ele>
        <time>2022-06-21T10:13:35Z</time>
      </trkpt>
      <trkpt lat="43.42611" lon="2.65816">
        <ele>803.9</ele>
        <time>2022-06-21T10:13:36Z</time>
      </trkpt>
      <trkpt lat="43.42611" lon="2.65816">
        <ele>803.9</ele>
        <time>2022-06-21T10:13:37Z</time>
      </trkpt>
      <trkpt lat="43.42611" lon="2.65816">
        <ele>803.9</ele>
        <time>2022-06-21T10:13:38Z</time>
      </trkpt>
      <trkpt lat="43.42611" lon="2.65816">
        <ele>803.9</ele>
        <time>2022-06-21T10:13:39Z</time>
      </trkpt>
      <trkpt lat="43.42611" lon="2.65816">
        <ele>803.9</ele>
        <time>2022-06-21T10:13:40Z</time>
      </trkpt>
      <trkpt lat="43.42611" lon="2.65816">
        <ele>803.9</ele>
        <time>2022-06-21T10:13:41Z</time>
      </trkpt>
      <trkpt lat="43.42611" lon="2.65816">
        <ele>803.9</ele>
        <time>2022-06-21T10:13:42Z</time>
      </trkpt>
      <trkpt lat="43.42611" lon="2.65816">
        <ele>803.9</ele>
        <time>2022-06-21T10:13:43Z</time>
      </trkpt>
      <trkpt lat="43.42611" lon="2.65816">
        <ele>803.9</ele>
        <time>2022-06-21T10:13:44Z</time>
      </trkpt>
      <trkpt lat="43.42611" lon="2.65816">
        <ele>803.9</ele>
        <time>2022-06-21T10:13:45Z</time>
      </trkpt>
      <trkpt lat="43.42611" lon="2.65815">
        <ele>803.9</ele>
        <time>2022-06-21T10:13:46Z</time>
      </trkpt>
      <trkpt lat="43.4261" lon="2.65815">
        <ele>803.9</ele>
        <time>2022-06-21T10:13:47Z</time>
      </trkpt>
      <trkpt lat="43.4261" lon="2.65815">
        <ele>803.9</ele>
        <time>2022-06-21T10:13:48Z</time>
      </trkpt>
      <trkpt lat="43.4261" lon="2.65815">
        <ele>803.9</ele>
        <time>2022-06-21T10:13:49Z</time>
      </trkpt>
      <trkpt lat="43.4261" lon="2.65815">
        <ele>803.9</ele>
        <time>2022-06-21T10:13:50Z</time>
      </trkpt>
      <trkpt lat="43.4261" lon="2.65815">
        <ele>803.9</ele>
        <time>2022-06-21T10:13:51Z</time>
      </trkpt>
      <trkpt lat="43.4261" lon="2.65815">
        <ele>803.9</ele>
        <time>2022-06-21T10:13:52Z</time>
      </trkpt>
      <trkpt lat="43.4261" lon="2.65815">
        <ele>803.9</ele>
        <time>2022-06-21T10:13:53Z</time>
      </trkpt>
      <trkpt lat="43.4261" lon="2.65815">
        <ele>803.9</ele>
        <time>2022-06-21T10:13:54Z</time>
      </trkpt>
      <trkpt lat="43.4261" lon="2.65815">
        <ele>803.9</ele>
        <time>2022-06-21T10:13:55Z</time>
      </trkpt>
      <trkpt lat="43.4261" lon="2.65815">
        <ele>803.9</ele>
        <time>2022-06-21T10:13:56Z</time>
      </trkpt>
      <trkpt lat="43.4261" lon="2.65815">
        <ele>803.9</ele>
        <time>2022-06-21T10:13:57Z</time>
      </trkpt>
      <trkpt lat="43.4261" lon="2.65815">
        <ele>803.9</ele>
        <time>2022-06-21T10:13:58Z</time>
      </trkpt>
      <trkpt lat="43.4261" lon="2.65815">
        <ele>803.9</ele>
        <time>2022-06-21T10:13:59Z</time>
      </trkpt>
      <trkpt lat="43.4261" lon="2.65815">
        <ele>803.9</ele>
        <time>2022-06-21T10:14:00Z</time>
      </trkpt>
      <trkpt lat="43.4261" lon="2.65815">
        <ele>803.9</ele>
        <time>2022-06-21T10:14:01Z</time>
      </trkpt>
      <trkpt lat="43.4261" lon="2.65815">
        <ele>803.9</ele>
        <time>2022-06-21T10:14:02Z</time>
      </trkpt>
      <trkpt lat="43.4261" lon="2.65815">
        <ele>803.9</ele>
        <time>2022-06-21T10:14:03Z</time>
      </trkpt>
      <trkpt lat="43.4261" lon="2.65815">
        <ele>803.9</ele>
        <time>2022-06-21T10:14:04Z</time>
      </trkpt>
      <trkpt lat="43.4261" lon="2.65815">
        <ele>803.9</ele>
        <time>2022-06-21T10:14:05Z</time>
      </trkpt>
      <trkpt lat="43.4261" lon="2.65815">
        <ele>803.9</ele>
        <time>2022-06-21T10:14:06Z</time>
      </trkpt>
      <trkpt lat="43.4261" lon="2.65815">
        <ele>803.9</ele>
        <time>2022-06-21T10:14:07Z</time>
      </trkpt>
      <trkpt lat="43.4261" lon="2.65815">
        <ele>803.9</ele>
        <time>2022-06-21T10:14:08Z</time>
      </trkpt>
      <trkpt lat="43.4261" lon="2.65815">
        <ele>803.9</ele>
        <time>2022-06-21T10:14:09Z</time>
      </trkpt>
      <trkpt lat="43.4261" lon="2.65815">
        <ele>803.9</ele>
        <time>2022-06-21T10:14:10Z</time>
      </trkpt>
      <trkpt lat="43.4261" lon="2.65815">
        <ele>803.9</ele>
        <time>2022-06-21T10:14:11Z</time>
      </trkpt>
      <trkpt lat="43.4261" lon="2.65815">
        <ele>803.9</ele>
        <time>2022-06-21T10:14:12Z</time>
      </trkpt>
      <trkpt lat="43.4261" lon="2.65815">
        <ele>803.9</ele>
        <time>2022-06-21T10:14:13Z</time>
      </trkpt>
      <trkpt lat="43.4261" lon="2.65815">
        <ele>803.9</ele>
        <time>2022-06-21T10:14:14Z</time>
      </trkpt>
      <trkpt lat="43.4261" lon="2.65815">
        <ele>803.9</ele>
        <time>2022-06-21T10:14:15Z</time>
      </trkpt>
      <trkpt lat="43.4261" lon="2.65814">
        <ele>803.9</ele>
        <time>2022-06-21T10:14:16Z</time>
      </trkpt>
      <trkpt lat="43.4261" lon="2.65814">
        <ele>803.9</ele>
        <time>2022-06-21T10:14:17Z</time>
      </trkpt>
      <trkpt lat="43.4261" lon="2.65813">
        <ele>803.9</ele>
        <time>2022-06-21T10:14:18Z</time>
      </trkpt>
      <trkpt lat="43.4261" lon="2.65813">
        <ele>803.9</ele>
        <time>2022-06-21T10:14:19Z</time>
      </trkpt>
      <trkpt lat="43.4261" lon="2.65813">
        <ele>803.9</ele>
        <time>2022-06-21T10:14:20Z</time>
      </trkpt>
      <trkpt lat="43.4261" lon="2.65813">
        <ele>803.9</ele>
        <time>2022-06-21T10:14:21Z</time>
      </trkpt>
      <trkpt lat="43.4261" lon="2.65813">
        <ele>803.9</ele>
        <time>2022-06-21T10:14:22Z</time>
      </trkpt>
      <trkpt lat="43.4261" lon="2.65813">
        <ele>803.9</ele>
        <time>2022-06-21T10:14:23Z</time>
      </trkpt>
      <trkpt lat="43.4261" lon="2.65813">
        <ele>803.9</ele>
        <time>2022-06-21T10:14:24Z</time>
      </trkpt>
      <trkpt lat="43.4261" lon="2.65813">
        <ele>803.9</ele>
        <time>2022-06-21T10:14:25Z</time>
      </trkpt>
      <trkpt lat="43.4261" lon="2.65813">
        <ele>803.9</ele>
        <time>2022-06-21T10:14:26Z</time>
      </trkpt>
      <trkpt lat="43.4261" lon="2.65813">
        <ele>803.9</ele>
        <time>2022-06-21T10:14:27Z</time>
      </trkpt>
      <trkpt lat="43.4261" lon="2.65813">
        <ele>803.9</ele>
        <time>2022-06-21T10:14:28Z</time>
      </trkpt>
      <trkpt lat="43.4261" lon="2.65813">
        <ele>803.9</ele>
        <time>2022-06-21T10:14:29Z</time>
      </trkpt>
      <trkpt lat="43.4261" lon="2.65813">
        <ele>803.9</ele>
        <time>2022-06-21T10:14:30Z</time>
      </trkpt>
      <trkpt lat="43.4261" lon="2.65813">
        <ele>803.9</ele>
        <time>2022-06-21T10:14:31Z</time>
      </trkpt>
      <trkpt lat="43.4261" lon="2.65813">
        <ele>803.9</ele>
        <time>2022-06-21T10:14:32Z</time>
      </trkpt>
      <trkpt lat="43.4261" lon="2.65813">
        <ele>803.9</ele>
        <time>2022-06-21T10:14:33Z</time>
      </trkpt>
      <trkpt lat="43.4261" lon="2.65813">
        <ele>803.9</ele>
        <time>2022-06-21T10:14:34Z</time>
      </trkpt>
      <trkpt lat="43.4261" lon="2.65813">
        <ele>803.9</ele>
        <time>2022-06-21T10:14:35Z</time>
      </trkpt>
      <trkpt lat="43.4261" lon="2.65813">
        <ele>803.9</ele>
        <time>2022-06-21T10:14:36Z</time>
      </trkpt>
      <trkpt lat="43.4261" lon="2.65813">
        <ele>803.9</ele>
        <time>2022-06-21T10:14:37Z</time>
      </trkpt>
      <trkpt lat="43.4261" lon="2.65813">
        <ele>803.9</ele>
        <time>2022-06-21T10:14:38Z</time>
      </trkpt>
      <trkpt lat="43.4261" lon="2.65813">
        <ele>803.9</ele>
        <time>2022-06-21T10:14:39Z</time>
      </trkpt>
      <trkpt lat="43.4261" lon="2.65813">
        <ele>803.9</ele>
        <time>2022-06-21T10:14:40Z</time>
      </trkpt>
      <trkpt lat="43.4261" lon="2.65813">
        <ele>803.9</ele>
        <time>2022-06-21T10:14:41Z</time>
      </trkpt>
      <trkpt lat="43.4261" lon="2.65813">
        <ele>803.9</ele>
        <time>2022-06-21T10:14:42Z</time>
      </trkpt>
      <trkpt lat="43.4261" lon="2.65813">
        <ele>803.9</ele>
        <time>2022-06-21T10:14:43Z</time>
      </trkpt>
      <trkpt lat="43.4261" lon="2.65813">
        <ele>803.9</ele>
        <time>2022-06-21T10:14:44Z</time>
      </trkpt>
      <trkpt lat="43.4261" lon="2.65813">
        <ele>803.9</ele>
        <time>2022-06-21T10:14:45Z</time>
      </trkpt>
      <trkpt lat="43.4261" lon="2.65813">
        <ele>803.9</ele>
        <time>2022-06-21T10:14:46Z</time>
      </trkpt>
      <trkpt lat="43.4261" lon="2.65813">
        <ele>803.9</ele>
        <time>2022-06-21T10:14:47Z</time>
      </trkpt>
      <trkpt lat="43.4261" lon="2.65813">
        <ele>803.9</ele>
        <time>2022-06-21T10:14:48Z</time>
      </trkpt>
      <trkpt lat="43.4261" lon="2.65813">
        <ele>803.9</ele>
        <time>2022-06-21T10:14:49Z</time>
      </trkpt>
      <trkpt lat="43.4261" lon="2.65813">
        <ele>803.9</ele>
        <time>2022-06-21T10:14:50Z</time>
      </trkpt>
      <trkpt lat="43.4261" lon="2.65813">
        <ele>803.9</ele>
        <time>2022-06-21T10:14:51Z</time>
      </trkpt>
      <trkpt lat="43.4261" lon="2.65813">
        <ele>803.9</ele>
        <time>2022-06-21T10:14:52Z</time>
      </trkpt>
      <trkpt lat="43.4261" lon="2.65813">
        <ele>803.9</ele>
        <time>2022-06-21T10:14:53Z</time>
      </trkpt>
      <trkpt lat="43.4261" lon="2.65813">
        <ele>803.9</ele>
        <time>2022-06-21T10:14:54Z</time>
      </trkpt>
      <trkpt lat="43.4261" lon="2.65813">
        <ele>803.9</ele>
        <time>2022-06-21T10:14:55Z</time>
      </trkpt>
      <trkpt lat="43.4261" lon="2.65813">
        <ele>803.9</ele>
        <time>2022-06-21T10:14:56Z</time>
      </trkpt>
      <trkpt lat="43.4261" lon="2.65813">
        <ele>803.9</ele>
        <time>2022-06-21T10:14:57Z</time>
      </trkpt>
      <trkpt lat="43.4261" lon="2.65813">
        <ele>803.9</ele>
        <time>2022-06-21T10:14:58Z</time>
      </trkpt>
      <trkpt lat="43.4261" lon="2.65813">
        <ele>803.9</ele>
        <time>2022-06-21T10:14:59Z</time>
      </trkpt>
      <trkpt lat="43.4261" lon="2.65813">
        <ele>803.9</ele>
        <time>2022-06-21T10:15:00Z</time>
      </trkpt>
      <trkpt lat="43.4261" lon="2.65813">
        <ele>803.9</ele>
        <time>2022-06-21T10:15:01Z</time>
      </trkpt>
      <trkpt lat="43.4261" lon="2.65813">
        <ele>803.9</ele>
        <time>2022-06-21T10:15:02Z</time>
      </trkpt>
      <trkpt lat="43.4261" lon="2.65813">
        <ele>803.9</ele>
        <time>2022-06-21T10:15:03Z</time>
      </trkpt>
      <trkpt lat="43.4261" lon="2.65813">
        <ele>803.9</ele>
        <time>2022-06-21T10:15:04Z</time>
      </trkpt>
      <trkpt lat="43.4261" lon="2.65813">
        <ele>803.9</ele>
        <time>2022-06-21T10:15:05Z</time>
      </trkpt>
      <trkpt lat="43.4261" lon="2.65813">
        <ele>803.9</ele>
        <time>2022-06-21T10:15:06Z</time>
      </trkpt>
      <trkpt lat="43.4261" lon="2.65813">
        <ele>803.9</ele>
        <time>2022-06-21T10:15:07Z</time>
      </trkpt>
      <trkpt lat="43.4261" lon="2.65813">
        <ele>803.9</ele>
        <time>2022-06-21T10:15:08Z</time>
      </trkpt>
      <trkpt lat="43.4261" lon="2.65813">
        <ele>803.9</ele>
        <time>2022-06-21T10:15:09Z</time>
      </trkpt>
      <trkpt lat="43.4261" lon="2.65813">
        <ele>803.9</ele>
        <time>2022-06-21T10:15:10Z</time>
      </trkpt>
      <trkpt lat="43.4261" lon="2.65813">
        <ele>803.9</ele>
        <time>2022-06-21T10:15:11Z</time>
      </trkpt>
      <trkpt lat="43.4261" lon="2.65813">
        <ele>803.9</ele>
        <time>2022-06-21T10:15:12Z</time>
      </trkpt>
      <trkpt lat="43.4261" lon="2.65813">
        <ele>803.9</ele>
        <time>2022-06-21T10:15:13Z</time>
      </trkpt>
      <trkpt lat="43.4261" lon="2.65813">
        <ele>803.9</ele>
        <time>2022-06-21T10:15:14Z</time>
      </trkpt>
      <trkpt lat="43.4261" lon="2.65813">
        <ele>803.9</ele>
        <time>2022-06-21T10:15:15Z</time>
      </trkpt>
      <trkpt lat="43.4261" lon="2.65813">
        <ele>803.9</ele>
        <time>2022-06-21T10:15:16Z</time>
      </trkpt>
      <trkpt lat="43.4261" lon="2.65813">
        <ele>803.9</ele>
        <time>2022-06-21T10:15:17Z</time>
      </trkpt>
      <trkpt lat="43.4261" lon="2.65813">
        <ele>803.9</ele>
        <time>2022-06-21T10:15:18Z</time>
      </trkpt>
      <trkpt lat="43.4261" lon="2.65813">
        <ele>803.9</ele>
        <time>2022-06-21T10:15:19Z</time>
      </trkpt>
      <trkpt lat="43.4261" lon="2.65813">
        <ele>803.9</ele>
        <time>2022-06-21T10:15:20Z</time>
      </trkpt>
      <trkpt lat="43.4261" lon="2.65813">
        <ele>803.9</ele>
        <time>2022-06-21T10:15:21Z</time>
      </trkpt>
      <trkpt lat="43.4261" lon="2.65813">
        <ele>803.9</ele>
        <time>2022-06-21T10:15:22Z</time>
      </trkpt>
      <trkpt lat="43.4261" lon="2.65813">
        <ele>803.9</ele>
        <time>2022-06-21T10:15:23Z</time>
      </trkpt>
      <trkpt lat="43.4261" lon="2.65813">
        <ele>803.9</ele>
        <time>2022-06-21T10:15:24Z</time>
      </trkpt>
      <trkpt lat="43.4261" lon="2.65813">
        <ele>803.9</ele>
        <time>2022-06-21T10:15:25Z</time>
      </trkpt>
      <trkpt lat="43.4261" lon="2.65813">
        <ele>803.9</ele>
        <time>2022-06-21T10:15:26Z</time>
      </trkpt>
      <trkpt lat="43.4261" lon="2.65813">
        <ele>803.9</ele>
        <time>2022-06-21T10:15:27Z</time>
      </trkpt>
      <trkpt lat="43.4261" lon="2.65813">
        <ele>803.9</ele>
        <time>2022-06-21T10:15:28Z</time>
      </trkpt>
      <trkpt lat="43.4261" lon="2.65813">
        <ele>803.9</ele>
        <time>2022-06-21T10:15:29Z</time>
      </trkpt>
      <trkpt lat="43.4261" lon="2.65813">
        <ele>803.9</ele>
        <time>2022-06-21T10:15:30Z</time>
      </trkpt>
      <trkpt lat="43.4261" lon="2.65813">
        <ele>803.9</ele>
        <time>2022-06-21T10:15:31Z</time>
      </trkpt>
      <trkpt lat="43.4261" lon="2.65813">
        <ele>803.9</ele>
        <time>2022-06-21T10:15:32Z</time>
      </trkpt>
      <trkpt lat="43.4261" lon="2.65813">
        <ele>803.9</ele>
        <time>2022-06-21T10:15:33Z</time>
      </trkpt>
      <trkpt lat="43.4261" lon="2.65813">
        <ele>803.9</ele>
        <time>2022-06-21T10:15:34Z</time>
      </trkpt>
      <trkpt lat="43.4261" lon="2.65813">
        <ele>803.9</ele>
        <time>2022-06-21T10:15:35Z</time>
      </trkpt>
      <trkpt lat="43.4261" lon="2.65813">
        <ele>803.9</ele>
        <time>2022-06-21T10:15:36Z</time>
      </trkpt>
      <trkpt lat="43.4261" lon="2.65813">
        <ele>803.9</ele>
        <time>2022-06-21T10:15:37Z</time>
      </trkpt>
      <trkpt lat="43.4261" lon="2.65813">
        <ele>803.9</ele>
        <time>2022-06-21T10:15:38Z</time>
      </trkpt>
      <trkpt lat="43.42609" lon="2.65811">
        <ele>803.9</ele>
        <time>2022-06-21T10:15:39Z</time>
      </trkpt>
      <trkpt lat="43.42609" lon="2.65811">
        <ele>803.9</ele>
        <time>2022-06-21T10:15:40Z</time>
      </trkpt>
      <trkpt lat="43.42608" lon="2.6581">
        <ele>803.9</ele>
        <time>2022-06-21T10:15:41Z</time>
      </trkpt>
      <trkpt lat="43.42608" lon="2.6581">
        <ele>803.9</ele>
        <time>2022-06-21T10:15:42Z</time>
      </trkpt>
      <trkpt lat="43.42608" lon="2.6581">
        <ele>803.9</ele>
        <time>2022-06-21T10:15:43Z</time>
      </trkpt>
      <trkpt lat="43.42608" lon="2.6581">
        <ele>803.9</ele>
        <time>2022-06-21T10:15:44Z</time>
      </trkpt>
      <trkpt lat="43.42608" lon="2.6581">
        <ele>803.9</ele>
        <time>2022-06-21T10:15:45Z</time>
      </trkpt>
      <trkpt lat="43.42608" lon="2.6581">
        <ele>803.9</ele>
        <time>2022-06-21T10:15:46Z</time>
      </trkpt>
      <trkpt lat="43.42608" lon="2.6581">
        <ele>803.9</ele>
        <time>2022-06-21T10:15:47Z</time>
      </trkpt>
      <trkpt lat="43.42608" lon="2.6581">
        <ele>803.9</ele>
        <time>2022-06-21T10:15:48Z</time>
      </trkpt>
      <trkpt lat="43.42608" lon="2.6581">
        <ele>803.9</ele>
        <time>2022-06-21T10:15:49Z</time>
      </trkpt>
      <trkpt lat="43.42608" lon="2.6581">
        <ele>803.9</ele>
        <time>2022-06-21T10:15:50Z</time>
      </trkpt>
      <trkpt lat="43.42608" lon="2.6581">
        <ele>803.9</ele>
        <time>2022-06-21T10:15:51Z</time>
      </trkpt>
      <trkpt lat="43.42608" lon="2.6581">
        <ele>803.9</ele>
        <time>2022-06-21T10:15:52Z</time>
      </trkpt>
      <trkpt lat="43.42608" lon="2.6581">
        <ele>803.9</ele>
        <time>2022-06-21T10:15:53Z</time>
      </trkpt>
      <trkpt lat="43.42608" lon="2.6581">
        <ele>803.9</ele>
        <time>2022-06-21T10:15:54Z</time>
      </trkpt>
      <trkpt lat="43.42608" lon="2.6581">
        <ele>803.9</ele>
        <time>2022-06-21T10:15:55Z</time>
      </trkpt>
      <trkpt lat="43.42608" lon="2.6581">
        <ele>803.9</ele>
        <time>2022-06-21T10:15:56Z</time>
      </trkpt>
      <trkpt lat="43.42608" lon="2.6581">
        <ele>803.9</ele>
        <time>2022-06-21T10:15:57Z</time>
      </trkpt>
      <trkpt lat="43.42608" lon="2.6581">
        <ele>803.9</ele>
        <time>2022-06-21T10:15:58Z</time>
      </trkpt>
      <trkpt lat="43.42608" lon="2.6581">
        <ele>803.9</ele>
        <time>2022-06-21T10:15:59Z</time>
      </trkpt>
      <trkpt lat="43.42608" lon="2.6581">
        <ele>803.9</ele>
        <time>2022-06-21T10:16:00Z</time>
      </trkpt>
      <trkpt lat="43.42608" lon="2.6581">
        <ele>803.9</ele>
        <time>2022-06-21T10:16:01Z</time>
      </trkpt>
      <trkpt lat="43.42608" lon="2.6581">
        <ele>803.9</ele>
        <time>2022-06-21T10:16:02Z</time>
      </trkpt>
      <trkpt lat="43.42608" lon="2.6581">
        <ele>803.9</ele>
        <time>2022-06-21T10:16:03Z</time>
      </trkpt>
      <trkpt lat="43.42608" lon="2.6581">
        <ele>803.9</ele>
        <time>2022-06-21T10:16:04Z</time>
      </trkpt>
      <trkpt lat="43.42608" lon="2.6581">
        <ele>803.9</ele>
        <time>2022-06-21T10:16:05Z</time>
      </trkpt>
      <trkpt lat="43.42608" lon="2.6581">
        <ele>803.9</ele>
        <time>2022-06-21T10:16:08Z</time>
      </trkpt>
      <trkpt lat="43.42608" lon="2.6581">
        <ele>803.9</ele>
        <time>2022-06-21T10:16:09Z</time>
      </trkpt>
      <trkpt lat="43.42608" lon="2.6581">
        <ele>803.9</ele>
        <time>2022-06-21T10:16:10Z</time>
      </trkpt>
      <trkpt lat="43.42608" lon="2.6581">
        <ele>803.9</ele>
        <time>2022-06-21T10:16:11Z</time>
      </trkpt>
      <trkpt lat="43.42608" lon="2.6581">
        <ele>803.9</ele>
        <time>2022-06-21T10:16:12Z</time>
      </trkpt>
      <trkpt lat="43.42608" lon="2.6581">
        <ele>803.9</ele>
        <time>2022-06-21T10:16:13Z</time>
      </trkpt>
      <trkpt lat="43.42608" lon="2.6581">
        <ele>803.9</ele>
        <time>2022-06-21T10:16:14Z</time>
      </trkpt>
      <trkpt lat="43.42608" lon="2.6581">
        <ele>803.9</ele>
        <time>2022-06-21T10:16:15Z</time>
      </trkpt>
      <trkpt lat="43.42608" lon="2.6581">
        <ele>803.9</ele>
        <time>2022-06-21T10:16:16Z</time>
      </trkpt>
      <trkpt lat="43.42608" lon="2.6581">
        <ele>803.9</ele>
        <time>2022-06-21T10:16:17Z</time>
      </trkpt>
      <trkpt lat="43.42608" lon="2.6581">
        <ele>803.9</ele>
        <time>2022-06-21T10:16:18Z</time>
      </trkpt>
      <trkpt lat="43.42608" lon="2.6581">
        <ele>803.9</ele>
        <time>2022-06-21T10:16:19Z</time>
      </trkpt>
      <trkpt lat="43.42608" lon="2.6581">
        <ele>803.9</ele>
        <time>2022-06-21T10:16:20Z</time>
      </trkpt>
      <trkpt lat="43.42608" lon="2.6581">
        <ele>803.9</ele>
        <time>2022-06-21T10:16:21Z</time>
      </trkpt>
      <trkpt lat="43.42608" lon="2.6581">
        <ele>803.9</ele>
        <time>2022-06-21T10:16:22Z</time>
      </trkpt>
      <trkpt lat="43.42608" lon="2.6581">
        <ele>803.9</ele>
        <time>2022-06-21T10:16:23Z</time>
      </trkpt>
      <trkpt lat="43.42608" lon="2.6581">
        <ele>803.9</ele>
        <time>2022-06-21T10:16:24Z</time>
      </trkpt>
      <trkpt lat="43.42608" lon="2.6581">
        <ele>803.9</ele>
        <time>2022-06-21T10:16:25Z</time>
      </trkpt>
      <trkpt lat="43.42608" lon="2.6581">
        <ele>803.9</ele>
        <time>2022-06-21T10:16:26Z</time>
      </trkpt>
      <trkpt lat="43.42608" lon="2.6581">
        <ele>803.9</ele>
        <time>2022-06-21T10:16:27Z</time>
      </trkpt>
      <trkpt lat="43.42608" lon="2.6581">
        <ele>803.9</ele>
        <time>2022-06-21T10:16:28Z</time>
      </trkpt>
      <trkpt lat="43.42608" lon="2.6581">
        <ele>803.9</ele>
        <time>2022-06-21T10:16:29Z</time>
      </trkpt>
      <trkpt lat="43.42608" lon="2.6581">
        <ele>803.9</ele>
        <time>2022-06-21T10:16:30Z</time>
      </trkpt>
      <trkpt lat="43.42608" lon="2.6581">
        <ele>803.9</ele>
        <time>2022-06-21T10:16:31Z</time>
      </trkpt>
      <trkpt lat="43.42608" lon="2.6581">
        <ele>803.9</ele>
        <time>2022-06-21T10:16:32Z</time>
      </trkpt>
      <trkpt lat="43.42608" lon="2.6581">
        <ele>803.9</ele>
        <time>2022-06-21T10:16:33Z</time>
      </trkpt>
      <trkpt lat="43.42608" lon="2.6581">
        <ele>803.9</ele>
        <time>2022-06-21T10:16:34Z</time>
      </trkpt>
      <trkpt lat="43.42608" lon="2.6581">
        <ele>803.9</ele>
        <time>2022-06-21T10:16:35Z</time>
      </trkpt>
      <trkpt lat="43.42608" lon="2.6581">
        <ele>803.9</ele>
        <time>2022-06-21T10:16:36Z</time>
      </trkpt>
      <trkpt lat="43.42608" lon="2.6581">
        <ele>803.9</ele>
        <time>2022-06-21T10:16:37Z</time>
      </trkpt>
      <trkpt lat="43.42608" lon="2.6581">
        <ele>803.9</ele>
        <time>2022-06-21T10:16:38Z</time>
      </trkpt>
      <trkpt lat="43.42608" lon="2.6581">
        <ele>803.9</ele>
        <time>2022-06-21T10:16:39Z</time>
      </trkpt>
      <trkpt lat="43.42608" lon="2.6581">
        <ele>803.9</ele>
        <time>2022-06-21T10:16:40Z</time>
      </trkpt>
      <trkpt lat="43.42608" lon="2.6581">
        <ele>803.9</ele>
        <time>2022-06-21T10:16:41Z</time>
      </trkpt>
      <trkpt lat="43.42608" lon="2.6581">
        <ele>803.9</ele>
        <time>2022-06-21T10:16:42Z</time>
      </trkpt>
      <trkpt lat="43.42608" lon="2.6581">
        <ele>803.9</ele>
        <time>2022-06-21T10:16:43Z</time>
      </trkpt>
      <trkpt lat="43.42608" lon="2.6581">
        <ele>803.9</ele>
        <time>2022-06-21T10:16:44Z</time>
      </trkpt>
      <trkpt lat="43.42608" lon="2.6581">
        <ele>803.9</ele>
        <time>2022-06-21T10:16:45Z</time>
      </trkpt>
      <trkpt lat="43.42608" lon="2.6581">
        <ele>803.9</ele>
        <time>2022-06-21T10:16:46Z</time>
      </trkpt>
      <trkpt lat="43.42608" lon="2.6581">
        <ele>803.9</ele>
        <time>2022-06-21T10:16:47Z</time>
      </trkpt>
      <trkpt lat="43.42608" lon="2.6581">
        <ele>803.9</ele>
        <time>2022-06-21T10:16:48Z</time>
      </trkpt>
      <trkpt lat="43.42608" lon="2.6581">
        <ele>803.9</ele>
        <time>2022-06-21T10:16:49Z</time>
      </trkpt>
      <trkpt lat="43.42608" lon="2.6581">
        <ele>803.9</ele>
        <time>2022-06-21T10:16:50Z</time>
      </trkpt>
      <trkpt lat="43.42608" lon="2.6581">
        <ele>803.9</ele>
        <time>2022-06-21T10:16:51Z</time>
      </trkpt>
      <trkpt lat="43.42608" lon="2.6581">
        <ele>803.9</ele>
        <time>2022-06-21T10:16:52Z</time>
      </trkpt>
      <trkpt lat="43.42608" lon="2.6581">
        <ele>803.9</ele>
        <time>2022-06-21T10:16:53Z</time>
      </trkpt>
      <trkpt lat="43.42608" lon="2.6581">
        <ele>803.9</ele>
        <time>2022-06-21T10:16:54Z</time>
      </trkpt>
      <trkpt lat="43.42608" lon="2.6581">
        <ele>803.9</ele>
        <time>2022-06-21T10:16:55Z</time>
      </trkpt>
      <trkpt lat="43.42608" lon="2.6581">
        <ele>803.9</ele>
        <time>2022-06-21T10:16:56Z</time>
      </trkpt>
      <trkpt lat="43.42608" lon="2.6581">
        <ele>803.9</ele>
        <time>2022-06-21T10:16:57Z</time>
      </trkpt>
      <trkpt lat="43.42608" lon="2.6581">
        <ele>803.9</ele>
        <time>2022-06-21T10:16:58Z</time>
      </trkpt>
      <trkpt lat="43.42608" lon="2.6581">
        <ele>803.9</ele>
        <time>2022-06-21T10:16:59Z</time>
      </trkpt>
      <trkpt lat="43.42608" lon="2.6581">
        <ele>803.9</ele>
        <time>2022-06-21T10:17:00Z</time>
      </trkpt>
      <trkpt lat="43.42608" lon="2.6581">
        <ele>803.9</ele>
        <time>2022-06-21T10:17:01Z</time>
      </trkpt>
      <trkpt lat="43.42608" lon="2.6581">
        <ele>803.9</ele>
        <time>2022-06-21T10:17:02Z</time>
      </trkpt>
      <trkpt lat="43.42608" lon="2.6581">
        <ele>803.9</ele>
        <time>2022-06-21T10:17:03Z</time>
      </trkpt>
      <trkpt lat="43.42608" lon="2.6581">
        <ele>803.9</ele>
        <time>2022-06-21T10:17:04Z</time>
      </trkpt>
      <trkpt lat="43.42608" lon="2.6581">
        <ele>803.9</ele>
        <time>2022-06-21T10:17:05Z</time>
      </trkpt>
      <trkpt lat="43.42608" lon="2.6581">
        <ele>803.9</ele>
        <time>2022-06-21T10:17:06Z</time>
      </trkpt>
      <trkpt lat="43.42608" lon="2.6581">
        <ele>803.9</ele>
        <time>2022-06-21T10:17:07Z</time>
      </trkpt>
      <trkpt lat="43.42608" lon="2.6581">
        <ele>803.9</ele>
        <time>2022-06-21T10:17:08Z</time>
      </trkpt>
      <trkpt lat="43.42608" lon="2.6581">
        <ele>803.9</ele>
        <time>2022-06-21T10:17:09Z</time>
      </trkpt>
      <trkpt lat="43.42608" lon="2.6581">
        <ele>803.9</ele>
        <time>2022-06-21T10:17:10Z</time>
      </trkpt>
      <trkpt lat="43.42608" lon="2.6581">
        <ele>803.9</ele>
        <time>2022-06-21T10:17:11Z</time>
      </trkpt>
      <trkpt lat="43.42608" lon="2.6581">
        <ele>803.9</ele>
        <time>2022-06-21T10:17:12Z</time>
      </trkpt>
      <trkpt lat="43.42608" lon="2.6581">
        <ele>803.9</ele>
        <time>2022-06-21T10:17:13Z</time>
      </trkpt>
      <trkpt lat="43.42608" lon="2.6581">
        <ele>803.9</ele>
        <time>2022-06-21T10:17:14Z</time>
      </trkpt>
      <trkpt lat="43.42608" lon="2.6581">
        <ele>803.9</ele>
        <time>2022-06-21T10:17:15Z</time>
      </trkpt>
      <trkpt lat="43.42608" lon="2.6581">
        <ele>803.9</ele>
        <time>2022-06-21T10:17:16Z</time>
      </trkpt>
      <trkpt lat="43.42608" lon="2.6581">
        <ele>803.9</ele>
        <time>2022-06-21T10:17:17Z</time>
      </trkpt>
      <trkpt lat="43.42608" lon="2.6581">
        <ele>803.9</ele>
        <time>2022-06-21T10:17:18Z</time>
      </trkpt>
      <trkpt lat="43.42608" lon="2.6581">
        <ele>803.9</ele>
        <time>2022-06-21T10:17:19Z</time>
      </trkpt>
      <trkpt lat="43.42608" lon="2.6581">
        <ele>803.9</ele>
        <time>2022-06-21T10:17:20Z</time>
      </trkpt>
      <trkpt lat="43.42608" lon="2.6581">
        <ele>803.9</ele>
        <time>2022-06-21T10:17:21Z</time>
      </trkpt>
      <trkpt lat="43.42608" lon="2.6581">
        <ele>803.9</ele>
        <time>2022-06-21T10:17:22Z</time>
      </trkpt>
      <trkpt lat="43.42608" lon="2.6581">
        <ele>803.9</ele>
        <time>2022-06-21T10:17:23Z</time>
      </trkpt>
      <trkpt lat="43.42608" lon="2.6581">
        <ele>803.9</ele>
        <time>2022-06-21T10:17:24Z</time>
      </trkpt>
      <trkpt lat="43.42608" lon="2.6581">
        <ele>803.9</ele>
        <time>2022-06-21T10:17:25Z</time>
      </trkpt>
      <trkpt lat="43.42608" lon="2.6581">
        <ele>803.9</ele>
        <time>2022-06-21T10:17:26Z</time>
      </trkpt>
      <trkpt lat="43.42608" lon="2.6581">
        <ele>803.9</ele>
        <time>2022-06-21T10:17:27Z</time>
      </trkpt>
      <trkpt lat="43.42608" lon="2.6581">
        <ele>803.9</ele>
        <time>2022-06-21T10:17:28Z</time>
      </trkpt>
      <trkpt lat="43.42608" lon="2.6581">
        <ele>803.9</ele>
        <time>2022-06-21T10:17:29Z</time>
      </trkpt>
      <trkpt lat="43.42608" lon="2.6581">
        <ele>803.9</ele>
        <time>2022-06-21T10:17:30Z</time>
      </trkpt>
      <trkpt lat="43.42608" lon="2.6581">
        <ele>803.9</ele>
        <time>2022-06-21T10:17:31Z</time>
      </trkpt>
      <trkpt lat="43.42608" lon="2.6581">
        <ele>803.9</ele>
        <time>2022-06-21T10:17:32Z</time>
      </trkpt>
      <trkpt lat="43.42608" lon="2.6581">
        <ele>803.9</ele>
        <time>2022-06-21T10:17:33Z</time>
      </trkpt>
      <trkpt lat="43.42608" lon="2.6581">
        <ele>803.9</ele>
        <time>2022-06-21T10:17:34Z</time>
      </trkpt>
      <trkpt lat="43.42608" lon="2.6581">
        <ele>803.9</ele>
        <time>2022-06-21T10:17:35Z</time>
      </trkpt>
      <trkpt lat="43.42608" lon="2.6581">
        <ele>803.9</ele>
        <time>2022-06-21T10:17:36Z</time>
      </trkpt>
      <trkpt lat="43.42608" lon="2.6581">
        <ele>803.9</ele>
        <time>2022-06-21T10:17:37Z</time>
      </trkpt>
      <trkpt lat="43.42608" lon="2.6581">
        <ele>803.9</ele>
        <time>2022-06-21T10:17:38Z</time>
      </trkpt>
      <trkpt lat="43.42608" lon="2.6581">
        <ele>803.9</ele>
        <time>2022-06-21T10:17:39Z</time>
      </trkpt>
      <trkpt lat="43.42608" lon="2.6581">
        <ele>803.9</ele>
        <time>2022-06-21T10:17:40Z</time>
      </trkpt>
      <trkpt lat="43.42608" lon="2.6581">
        <ele>803.9</ele>
        <time>2022-06-21T10:17:41Z</time>
      </trkpt>
      <trkpt lat="43.42608" lon="2.6581">
        <ele>803.9</ele>
        <time>2022-06-21T10:17:42Z</time>
      </trkpt>
      <trkpt lat="43.42608" lon="2.6581">
        <ele>803.9</ele>
        <time>2022-06-21T10:17:43Z</time>
      </trkpt>
      <trkpt lat="43.42608" lon="2.6581">
        <ele>803.9</ele>
        <time>2022-06-21T10:17:44Z</time>
      </trkpt>
      <trkpt lat="43.42608" lon="2.6581">
        <ele>803.9</ele>
        <time>2022-06-21T10:17:45Z</time>
      </trkpt>
      <trkpt lat="43.42608" lon="2.6581">
        <ele>803.9</ele>
        <time>2022-06-21T10:17:46Z</time>
      </trkpt>
      <trkpt lat="43.42608" lon="2.6581">
        <ele>803.9</ele>
        <time>2022-06-21T10:17:47Z</time>
      </trkpt>
      <trkpt lat="43.42608" lon="2.6581">
        <ele>803.9</ele>
        <time>2022-06-21T10:17:48Z</time>
      </trkpt>
      <trkpt lat="43.42608" lon="2.6581">
        <ele>803.9</ele>
        <time>2022-06-21T10:17:49Z</time>
      </trkpt>
      <trkpt lat="43.42608" lon="2.6581">
        <ele>803.9</ele>
        <time>2022-06-21T10:17:50Z</time>
      </trkpt>
      <trkpt lat="43.42608" lon="2.6581">
        <ele>803.9</ele>
        <time>2022-06-21T10:17:51Z</time>
      </trkpt>
      <trkpt lat="43.42608" lon="2.6581">
        <ele>803.9</ele>
        <time>2022-06-21T10:17:52Z</time>
      </trkpt>
      <trkpt lat="43.42608" lon="2.6581">
        <ele>803.9</ele>
        <time>2022-06-21T10:17:53Z</time>
      </trkpt>
      <trkpt lat="43.42608" lon="2.6581">
        <ele>803.9</ele>
        <time>2022-06-21T10:17:54Z</time>
      </trkpt>
      <trkpt lat="43.42608" lon="2.6581">
        <ele>803.9</ele>
        <time>2022-06-21T10:17:55Z</time>
      </trkpt>
      <trkpt lat="43.42608" lon="2.6581">
        <ele>803.9</ele>
        <time>2022-06-21T10:17:56Z</time>
      </trkpt>
      <trkpt lat="43.42608" lon="2.6581">
        <ele>803.9</ele>
        <time>2022-06-21T10:17:57Z</time>
      </trkpt>
      <trkpt lat="43.42608" lon="2.6581">
        <ele>803.9</ele>
        <time>2022-06-21T10:17:58Z</time>
      </trkpt>
      <trkpt lat="43.42608" lon="2.6581">
        <ele>803.9</ele>
        <time>2022-06-21T10:17:59Z</time>
      </trkpt>
      <trkpt lat="43.42608" lon="2.6581">
        <ele>803.9</ele>
        <time>2022-06-21T10:18:00Z</time>
      </trkpt>
      <trkpt lat="43.42608" lon="2.6581">
        <ele>803.9</ele>
        <time>2022-06-21T10:18:01Z</time>
      </trkpt>
      <trkpt lat="43.42608" lon="2.6581">
        <ele>803.9</ele>
        <time>2022-06-21T10:18:02Z</time>
      </trkpt>
      <trkpt lat="43.42608" lon="2.6581">
        <ele>803.9</ele>
        <time>2022-06-21T10:18:03Z</time>
      </trkpt>
      <trkpt lat="43.42608" lon="2.6581">
        <ele>803.9</ele>
        <time>2022-06-21T10:18:04Z</time>
      </trkpt>
      <trkpt lat="43.42608" lon="2.6581">
        <ele>803.9</ele>
        <time>2022-06-21T10:18:05Z</time>
      </trkpt>
      <trkpt lat="43.42608" lon="2.6581">
        <ele>803.9</ele>
        <time>2022-06-21T10:18:06Z</time>
      </trkpt>
      <trkpt lat="43.42608" lon="2.6581">
        <ele>803.9</ele>
        <time>2022-06-21T10:18:07Z</time>
      </trkpt>
      <trkpt lat="43.42608" lon="2.6581">
        <ele>803.9</ele>
        <time>2022-06-21T10:18:08Z</time>
      </trkpt>
      <trkpt lat="43.42608" lon="2.6581">
        <ele>803.9</ele>
        <time>2022-06-21T10:18:09Z</time>
      </trkpt>
      <trkpt lat="43.42608" lon="2.6581">
        <ele>803.9</ele>
        <time>2022-06-21T10:18:10Z</time>
      </trkpt>
      <trkpt lat="43.42608" lon="2.6581">
        <ele>803.9</ele>
        <time>2022-06-21T10:18:11Z</time>
      </trkpt>
      <trkpt lat="43.42608" lon="2.6581">
        <ele>803.9</ele>
        <time>2022-06-21T10:18:12Z</time>
      </trkpt>
      <trkpt lat="43.42608" lon="2.6581">
        <ele>803.9</ele>
        <time>2022-06-21T10:18:13Z</time>
      </trkpt>
      <trkpt lat="43.42608" lon="2.6581">
        <ele>803.9</ele>
        <time>2022-06-21T10:18:14Z</time>
      </trkpt>
      <trkpt lat="43.42608" lon="2.6581">
        <ele>803.9</ele>
        <time>2022-06-21T10:18:15Z</time>
      </trkpt>
      <trkpt lat="43.42608" lon="2.6581">
        <ele>803.9</ele>
        <time>2022-06-21T10:18:16Z</time>
      </trkpt>
      <trkpt lat="43.42608" lon="2.6581">
        <ele>803.9</ele>
        <time>2022-06-21T10:18:17Z</time>
      </trkpt>
      <trkpt lat="43.42608" lon="2.6581">
        <ele>803.9</ele>
        <time>2022-06-21T10:18:18Z</time>
      </trkpt>
      <trkpt lat="43.42608" lon="2.6581">
        <ele>803.9</ele>
        <time>2022-06-21T10:18:19Z</time>
      </trkpt>
      <trkpt lat="43.42608" lon="2.6581">
        <ele>803.9</ele>
        <time>2022-06-21T10:18:20Z</time>
      </trkpt>
      <trkpt lat="43.42608" lon="2.6581">
        <ele>803.9</ele>
        <time>2022-06-21T10:18:21Z</time>
      </trkpt>
      <trkpt lat="43.42608" lon="2.6581">
        <ele>803.9</ele>
        <time>2022-06-21T10:18:22Z</time>
      </trkpt>
      <trkpt lat="43.42608" lon="2.6581">
        <ele>803.9</ele>
        <time>2022-06-21T10:18:23Z</time>
      </trkpt>
      <trkpt lat="43.42608" lon="2.6581">
        <ele>803.9</ele>
        <time>2022-06-21T10:18:24Z</time>
      </trkpt>
      <trkpt lat="43.42608" lon="2.6581">
        <ele>803.9</ele>
        <time>2022-06-21T10:18:25Z</time>
      </trkpt>
      <trkpt lat="43.42608" lon="2.6581">
        <ele>803.9</ele>
        <time>2022-06-21T10:18:26Z</time>
      </trkpt>
      <trkpt lat="43.42608" lon="2.6581">
        <ele>803.9</ele>
        <time>2022-06-21T10:18:27Z</time>
      </trkpt>
      <trkpt lat="43.42608" lon="2.6581">
        <ele>803.9</ele>
        <time>2022-06-21T10:18:28Z</time>
      </trkpt>
      <trkpt lat="43.42608" lon="2.6581">
        <ele>803.9</ele>
        <time>2022-06-21T10:18:29Z</time>
      </trkpt>
      <trkpt lat="43.42608" lon="2.6581">
        <ele>803.9</ele>
        <time>2022-06-21T10:18:30Z</time>
      </trkpt>
      <trkpt lat="43.42608" lon="2.6581">
        <ele>803.9</ele>
        <time>2022-06-21T10:18:31Z</time>
      </trkpt>
      <trkpt lat="43.42608" lon="2.6581">
        <ele>803.9</ele>
        <time>2022-06-21T10:18:32Z</time>
      </trkpt>
      <trkpt lat="43.42608" lon="2.6581">
        <ele>803.9</ele>
        <time>2022-06-21T10:18:33Z</time>
      </trkpt>
      <trkpt lat="43.42608" lon="2.6581">
        <ele>803.9</ele>
        <time>2022-06-21T10:18:34Z</time>
      </trkpt>
      <trkpt lat="43.42608" lon="2.6581">
        <ele>803.9</ele>
        <time>2022-06-21T10:18:35Z</time>
      </trkpt>
      <trkpt lat="43.42608" lon="2.6581">
        <ele>803.9</ele>
        <time>2022-06-21T10:18:36Z</time>
      </trkpt>
      <trkpt lat="43.42608" lon="2.6581">
        <ele>803.9</ele>
        <time>2022-06-21T10:18:37Z</time>
      </trkpt>
      <trkpt lat="43.42608" lon="2.6581">
        <ele>803.9</ele>
        <time>2022-06-21T10:18:38Z</time>
      </trkpt>
      <trkpt lat="43.42608" lon="2.6581">
        <ele>803.9</ele>
        <time>2022-06-21T10:18:39Z</time>
      </trkpt>
      <trkpt lat="43.42608" lon="2.6581">
        <ele>803.9</ele>
        <time>2022-06-21T10:18:40Z</time>
      </trkpt>
      <trkpt lat="43.42608" lon="2.6581">
        <ele>803.9</ele>
        <time>2022-06-21T10:18:41Z</time>
      </trkpt>
      <trkpt lat="43.42608" lon="2.6581">
        <ele>803.9</ele>
        <time>2022-06-21T10:18:42Z</time>
      </trkpt>
      <trkpt lat="43.42608" lon="2.6581">
        <ele>803.9</ele>
        <time>2022-06-21T10:18:43Z</time>
      </trkpt>
      <trkpt lat="43.42608" lon="2.6581">
        <ele>803.9</ele>
        <time>2022-06-21T10:18:44Z</time>
      </trkpt>
      <trkpt lat="43.42608" lon="2.6581">
        <ele>803.9</ele>
        <time>2022-06-21T10:18:45Z</time>
      </trkpt>
      <trkpt lat="43.42608" lon="2.6581">
        <ele>803.9</ele>
        <time>2022-06-21T10:18:46Z</time>
      </trkpt>
      <trkpt lat="43.42608" lon="2.6581">
        <ele>803.9</ele>
        <time>2022-06-21T10:18:47Z</time>
      </trkpt>
      <trkpt lat="43.42608" lon="2.6581">
        <ele>803.9</ele>
        <time>2022-06-21T10:18:48Z</time>
      </trkpt>
      <trkpt lat="43.42608" lon="2.6581">
        <ele>803.9</ele>
        <time>2022-06-21T10:18:49Z</time>
      </trkpt>
      <trkpt lat="43.42608" lon="2.6581">
        <ele>803.9</ele>
        <time>2022-06-21T10:18:50Z</time>
      </trkpt>
      <trkpt lat="43.42608" lon="2.6581">
        <ele>803.9</ele>
        <time>2022-06-21T10:18:51Z</time>
      </trkpt>
      <trkpt lat="43.42608" lon="2.6581">
        <ele>803.9</ele>
        <time>2022-06-21T10:18:52Z</time>
      </trkpt>
      <trkpt lat="43.42608" lon="2.6581">
        <ele>803.9</ele>
        <time>2022-06-21T10:18:53Z</time>
      </trkpt>
      <trkpt lat="43.42608" lon="2.6581">
        <ele>803.9</ele>
        <time>2022-06-21T10:18:54Z</time>
      </trkpt>
      <trkpt lat="43.42608" lon="2.6581">
        <ele>803.9</ele>
        <time>2022-06-21T10:18:55Z</time>
      </trkpt>
      <trkpt lat="43.42608" lon="2.6581">
        <ele>803.9</ele>
        <time>2022-06-21T10:18:56Z</time>
      </trkpt>
      <trkpt lat="43.42608" lon="2.6581">
        <ele>803.9</ele>
        <time>2022-06-21T10:18:57Z</time>
      </trkpt>
      <trkpt lat="43.42608" lon="2.6581">
        <ele>803.9</ele>
        <time>2022-06-21T10:18:58Z</time>
      </trkpt>
      <trkpt lat="43.42608" lon="2.6581">
        <ele>803.9</ele>
        <time>2022-06-21T10:18:59Z</time>
      </trkpt>
      <trkpt lat="43.42608" lon="2.6581">
        <ele>803.9</ele>
        <time>2022-06-21T10:19:00Z</time>
      </trkpt>
      <trkpt lat="43.42608" lon="2.6581">
        <ele>803.9</ele>
        <time>2022-06-21T10:19:01Z</time>
      </trkpt>
      <trkpt lat="43.42608" lon="2.6581">
        <ele>803.9</ele>
        <time>2022-06-21T10:19:02Z</time>
      </trkpt>
      <trkpt lat="43.42608" lon="2.6581">
        <ele>803.9</ele>
        <time>2022-06-21T10:19:03Z</time>
      </trkpt>
      <trkpt lat="43.42608" lon="2.6581">
        <ele>803.9</ele>
        <time>2022-06-21T10:19:04Z</time>
      </trkpt>
      <trkpt lat="43.42608" lon="2.6581">
        <ele>803.9</ele>
        <time>2022-06-21T10:19:05Z</time>
      </trkpt>
      <trkpt lat="43.42608" lon="2.6581">
        <ele>803.9</ele>
        <time>2022-06-21T10:19:06Z</time>
      </trkpt>
      <trkpt lat="43.42608" lon="2.6581">
        <ele>803.9</ele>
        <time>2022-06-21T10:19:07Z</time>
      </trkpt>
      <trkpt lat="43.42608" lon="2.6581">
        <ele>803.9</ele>
        <time>2022-06-21T10:19:08Z</time>
      </trkpt>
      <trkpt lat="43.42608" lon="2.6581">
        <ele>803.9</ele>
        <time>2022-06-21T10:19:09Z</time>
      </trkpt>
      <trkpt lat="43.42608" lon="2.6581">
        <ele>803.9</ele>
        <time>2022-06-21T10:19:10Z</time>
      </trkpt>
      <trkpt lat="43.42608" lon="2.6581">
        <ele>803.9</ele>
        <time>2022-06-21T10:19:11Z</time>
      </trkpt>
      <trkpt lat="43.42608" lon="2.6581">
        <ele>803.9</ele>
        <time>2022-06-21T10:19:12Z</time>
      </trkpt>
      <trkpt lat="43.42608" lon="2.6581">
        <ele>803.9</ele>
        <time>2022-06-21T10:19:13Z</time>
      </trkpt>
      <trkpt lat="43.42608" lon="2.6581">
        <ele>803.9</ele>
        <time>2022-06-21T10:19:14Z</time>
      </trkpt>
      <trkpt lat="43.42608" lon="2.6581">
        <ele>803.9</ele>
        <time>2022-06-21T10:19:15Z</time>
      </trkpt>
      <trkpt lat="43.42608" lon="2.6581">
        <ele>803.9</ele>
        <time>2022-06-21T10:19:16Z</time>
      </trkpt>
      <trkpt lat="43.42608" lon="2.6581">
        <ele>803.9</ele>
        <time>2022-06-21T10:19:17Z</time>
      </trkpt>
      <trkpt lat="43.42608" lon="2.6581">
        <ele>803.9</ele>
        <time>2022-06-21T10:19:18Z</time>
      </trkpt>
      <trkpt lat="43.42608" lon="2.6581">
        <ele>803.9</ele>
        <time>2022-06-21T10:19:19Z</time>
      </trkpt>
      <trkpt lat="43.42608" lon="2.6581">
        <ele>803.9</ele>
        <time>2022-06-21T10:19:20Z</time>
      </trkpt>
      <trkpt lat="43.42608" lon="2.6581">
        <ele>803.9</ele>
        <time>2022-06-21T10:19:21Z</time>
      </trkpt>
      <trkpt lat="43.42608" lon="2.6581">
        <ele>803.9</ele>
        <time>2022-06-21T10:19:22Z</time>
      </trkpt>
      <trkpt lat="43.42608" lon="2.6581">
        <ele>803.9</ele>
        <time>2022-06-21T10:19:23Z</time>
      </trkpt>
      <trkpt lat="43.42608" lon="2.6581">
        <ele>803.9</ele>
        <time>2022-06-21T10:19:24Z</time>
      </trkpt>
      <trkpt lat="43.42608" lon="2.6581">
        <ele>803.9</ele>
        <time>2022-06-21T10:19:25Z</time>
      </trkpt>
      <trkpt lat="43.42608" lon="2.6581">
        <ele>803.9</ele>
        <time>2022-06-21T10:19:26Z</time>
      </trkpt>
      <trkpt lat="43.42608" lon="2.6581">
        <ele>803.9</ele>
        <time>2022-06-21T10:19:27Z</time>
      </trkpt>
      <trkpt lat="43.42608" lon="2.6581">
        <ele>803.9</ele>
        <time>2022-06-21T10:19:28Z</time>
      </trkpt>
      <trkpt lat="43.42608" lon="2.6581">
        <ele>803.9</ele>
        <time>2022-06-21T10:19:29Z</time>
      </trkpt>
      <trkpt lat="43.42608" lon="2.6581">
        <ele>803.9</ele>
        <time>2022-06-21T10:19:30Z</time>
      </trkpt>
      <trkpt lat="43.42608" lon="2.6581">
        <ele>803.9</ele>
        <time>2022-06-21T10:19:31Z</time>
      </trkpt>
      <trkpt lat="43.42608" lon="2.6581">
        <ele>803.9</ele>
        <time>2022-06-21T10:19:32Z</time>
      </trkpt>
      <trkpt lat="43.42608" lon="2.6581">
        <ele>803.9</ele>
        <time>2022-06-21T10:19:33Z</time>
      </trkpt>
      <trkpt lat="43.42608" lon="2.6581">
        <ele>803.9</ele>
        <time>2022-06-21T10:19:34Z</time>
      </trkpt>
      <trkpt lat="43.42608" lon="2.6581">
        <ele>803.9</ele>
        <time>2022-06-21T10:19:35Z</time>
      </trkpt>
      <trkpt lat="43.42608" lon="2.6581">
        <ele>803.9</ele>
        <time>2022-06-21T10:19:36Z</time>
      </trkpt>
      <trkpt lat="43.42608" lon="2.6581">
        <ele>803.9</ele>
        <time>2022-06-21T10:19:37Z</time>
      </trkpt>
      <trkpt lat="43.42608" lon="2.6581">
        <ele>803.9</ele>
        <time>2022-06-21T10:19:38Z</time>
      </trkpt>
      <trkpt lat="43.42608" lon="2.6581">
        <ele>803.9</ele>
        <time>2022-06-21T10:19:39Z</time>
      </trkpt>
      <trkpt lat="43.42608" lon="2.6581">
        <ele>803.9</ele>
        <time>2022-06-21T10:19:40Z</time>
      </trkpt>
      <trkpt lat="43.42608" lon="2.6581">
        <ele>803.9</ele>
        <time>2022-06-21T10:19:41Z</time>
      </trkpt>
      <trkpt lat="43.42608" lon="2.6581">
        <ele>803.9</ele>
        <time>2022-06-21T10:19:42Z</time>
      </trkpt>
      <trkpt lat="43.42608" lon="2.6581">
        <ele>803.9</ele>
        <time>2022-06-21T10:19:43Z</time>
      </trkpt>
      <trkpt lat="43.42608" lon="2.6581">
        <ele>803.9</ele>
        <time>2022-06-21T10:19:44Z</time>
      </trkpt>
      <trkpt lat="43.42608" lon="2.6581">
        <ele>803.9</ele>
        <time>2022-06-21T10:19:45Z</time>
      </trkpt>
      <trkpt lat="43.42608" lon="2.6581">
        <ele>803.9</ele>
        <time>2022-06-21T10:19:46Z</time>
      </trkpt>
      <trkpt lat="43.42608" lon="2.6581">
        <ele>803.9</ele>
        <time>2022-06-21T10:19:47Z</time>
      </trkpt>
      <trkpt lat="43.42608" lon="2.6581">
        <ele>803.9</ele>
        <time>2022-06-21T10:19:48Z</time>
      </trkpt>
      <trkpt lat="43.42608" lon="2.6581">
        <ele>803.9</ele>
        <time>2022-06-21T10:19:49Z</time>
      </trkpt>
      <trkpt lat="43.42608" lon="2.6581">
        <ele>803.9</ele>
        <time>2022-06-21T10:19:50Z</time>
      </trkpt>
      <trkpt lat="43.42608" lon="2.6581">
        <ele>803.9</ele>
        <time>2022-06-21T10:19:51Z</time>
      </trkpt>
      <trkpt lat="43.42608" lon="2.6581">
        <ele>803.9</ele>
        <time>2022-06-21T10:19:52Z</time>
      </trkpt>
      <trkpt lat="43.42608" lon="2.6581">
        <ele>803.9</ele>
        <time>2022-06-21T10:19:53Z</time>
      </trkpt>
      <trkpt lat="43.42608" lon="2.6581">
        <ele>803.9</ele>
        <time>2022-06-21T10:19:55Z</time>
      </trkpt>
      <trkpt lat="43.42608" lon="2.6581">
        <ele>803.9</ele>
        <time>2022-06-21T10:19:56Z</time>
      </trkpt>
      <trkpt lat="43.42608" lon="2.6581">
        <ele>803.9</ele>
        <time>2022-06-21T10:19:57Z</time>
      </trkpt>
      <trkpt lat="43.42608" lon="2.6581">
        <ele>803.9</ele>
        <time>2022-06-21T10:19:58Z</time>
      </trkpt>
      <trkpt lat="43.42608" lon="2.6581">
        <ele>803.9</ele>
        <time>2022-06-21T10:19:59Z</time>
      </trkpt>
      <trkpt lat="43.42608" lon="2.6581">
        <ele>803.9</ele>
        <time>2022-06-21T10:20:00Z</time>
      </trkpt>
      <trkpt lat="43.42608" lon="2.6581">
        <ele>803.9</ele>
        <time>2022-06-21T10:20:01Z</time>
      </trkpt>
      <trkpt lat="43.42608" lon="2.6581">
        <ele>803.9</ele>
        <time>2022-06-21T10:20:02Z</time>
      </trkpt>
      <trkpt lat="43.42608" lon="2.6581">
        <ele>803.9</ele>
        <time>2022-06-21T10:20:03Z</time>
      </trkpt>
      <trkpt lat="43.42608" lon="2.6581">
        <ele>803.9</ele>
        <time>2022-06-21T10:20:04Z</time>
      </trkpt>
      <trkpt lat="43.42608" lon="2.6581">
        <ele>803.9</ele>
        <time>2022-06-21T10:20:05Z</time>
      </trkpt>
      <trkpt lat="43.42608" lon="2.6581">
        <ele>803.9</ele>
        <time>2022-06-21T10:20:06Z</time>
      </trkpt>
      <trkpt lat="43.42608" lon="2.6581">
        <ele>803.9</ele>
        <time>2022-06-21T10:20:07Z</time>
      </trkpt>
      <trkpt lat="43.42608" lon="2.6581">
        <ele>803.9</ele>
        <time>2022-06-21T10:20:08Z</time>
      </trkpt>
      <trkpt lat="43.42608" lon="2.6581">
        <ele>803.9</ele>
        <time>2022-06-21T10:20:09Z</time>
      </trkpt>
      <trkpt lat="43.42608" lon="2.6581">
        <ele>803.9</ele>
        <time>2022-06-21T10:20:10Z</time>
      </trkpt>
      <trkpt lat="43.42608" lon="2.6581">
        <ele>803.9</ele>
        <time>2022-06-21T10:20:11Z</time>
      </trkpt>
      <trkpt lat="43.42608" lon="2.6581">
        <ele>803.9</ele>
        <time>2022-06-21T10:20:12Z</time>
      </trkpt>
      <trkpt lat="43.42608" lon="2.6581">
        <ele>803.9</ele>
        <time>2022-06-21T10:20:13Z</time>
      </trkpt>
      <trkpt lat="43.42608" lon="2.6581">
        <ele>803.9</ele>
        <time>2022-06-21T10:20:14Z</time>
      </trkpt>
      <trkpt lat="43.42608" lon="2.6581">
        <ele>803.9</ele>
        <time>2022-06-21T10:20:15Z</time>
      </trkpt>
      <trkpt lat="43.42608" lon="2.6581">
        <ele>803.9</ele>
        <time>2022-06-21T10:20:16Z</time>
      </trkpt>
      <trkpt lat="43.42608" lon="2.6581">
        <ele>803.9</ele>
        <time>2022-06-21T10:20:17Z</time>
      </trkpt>
      <trkpt lat="43.42608" lon="2.6581">
        <ele>803.9</ele>
        <time>2022-06-21T10:20:19Z</time>
      </trkpt>
      <trkpt lat="43.42608" lon="2.6581">
        <ele>803.9</ele>
        <time>2022-06-21T10:20:20Z</time>
      </trkpt>
      <trkpt lat="43.42608" lon="2.6581">
        <ele>803.9</ele>
        <time>2022-06-21T10:20:21Z</time>
      </trkpt>
      <trkpt lat="43.42608" lon="2.6581">
        <ele>803.9</ele>
        <time>2022-06-21T10:20:22Z</time>
      </trkpt>
      <trkpt lat="43.42608" lon="2.6581">
        <ele>803.9</ele>
        <time>2022-06-21T10:20:23Z</time>
      </trkpt>
      <trkpt lat="43.42608" lon="2.6581">
        <ele>803.9</ele>
        <time>2022-06-21T10:20:24Z</time>
      </trkpt>
      <trkpt lat="43.42608" lon="2.6581">
        <ele>803.9</ele>
        <time>2022-06-21T10:20:25Z</time>
      </trkpt>
      <trkpt lat="43.42608" lon="2.6581">
        <ele>803.9</ele>
        <time>2022-06-21T10:20:26Z</time>
      </trkpt>
      <trkpt lat="43.42608" lon="2.6581">
        <ele>803.9</ele>
        <time>2022-06-21T10:20:27Z</time>
      </trkpt>
      <trkpt lat="43.42608" lon="2.6581">
        <ele>803.9</ele>
        <time>2022-06-21T10:20:28Z</time>
      </trkpt>
      <trkpt lat="43.42608" lon="2.6581">
        <ele>803.9</ele>
        <time>2022-06-21T10:20:29Z</time>
      </trkpt>
      <trkpt lat="43.42608" lon="2.6581">
        <ele>803.9</ele>
        <time>2022-06-21T10:20:30Z</time>
      </trkpt>
      <trkpt lat="43.42608" lon="2.6581">
        <ele>803.9</ele>
        <time>2022-06-21T10:20:31Z</time>
      </trkpt>
      <trkpt lat="43.42608" lon="2.6581">
        <ele>803.9</ele>
        <time>2022-06-21T10:20:32Z</time>
      </trkpt>
      <trkpt lat="43.42608" lon="2.6581">
        <ele>803.9</ele>
        <time>2022-06-21T10:20:33Z</time>
      </trkpt>
      <trkpt lat="43.42608" lon="2.6581">
        <ele>803.9</ele>
        <time>2022-06-21T10:20:34Z</time>
      </trkpt>
      <trkpt lat="43.42608" lon="2.6581">
        <ele>803.9</ele>
        <time>2022-06-21T10:20:35Z</time>
      </trkpt>
      <trkpt lat="43.42608" lon="2.6581">
        <ele>803.9</ele>
        <time>2022-06-21T10:20:36Z</time>
      </trkpt>
      <trkpt lat="43.42608" lon="2.6581">
        <ele>803.9</ele>
        <time>2022-06-21T10:20:37Z</time>
      </trkpt>
      <trkpt lat="43.42608" lon="2.6581">
        <ele>803.9</ele>
        <time>2022-06-21T10:20:38Z</time>
      </trkpt>
      <trkpt lat="43.42608" lon="2.6581">
        <ele>803.9</ele>
        <time>2022-06-21T10:20:39Z</time>
      </trkpt>
      <trkpt lat="43.42608" lon="2.6581">
        <ele>803.9</ele>
        <time>2022-06-21T10:20:40Z</time>
      </trkpt>
      <trkpt lat="43.42608" lon="2.6581">
        <ele>803.9</ele>
        <time>2022-06-21T10:20:41Z</time>
      </trkpt>
      <trkpt lat="43.42608" lon="2.6581">
        <ele>803.9</ele>
        <time>2022-06-21T10:20:42Z</time>
      </trkpt>
      <trkpt lat="43.42608" lon="2.6581">
        <ele>803.9</ele>
        <time>2022-06-21T10:20:43Z</time>
      </trkpt>
      <trkpt lat="43.42608" lon="2.6581">
        <ele>803.9</ele>
        <time>2022-06-21T10:20:44Z</time>
      </trkpt>
      <trkpt lat="43.42608" lon="2.6581">
        <ele>803.9</ele>
        <time>2022-06-21T10:20:45Z</time>
      </trkpt>
      <trkpt lat="43.42608" lon="2.6581">
        <ele>803.9</ele>
        <time>2022-06-21T10:20:46Z</time>
      </trkpt>
      <trkpt lat="43.42608" lon="2.6581">
        <ele>803.9</ele>
        <time>2022-06-21T10:20:47Z</time>
      </trkpt>
      <trkpt lat="43.42608" lon="2.6581">
        <ele>803.9</ele>
        <time>2022-06-21T10:20:48Z</time>
      </trkpt>
      <trkpt lat="43.42608" lon="2.6581">
        <ele>803.9</ele>
        <time>2022-06-21T10:20:49Z</time>
      </trkpt>
      <trkpt lat="43.42608" lon="2.6581">
        <ele>803.9</ele>
        <time>2022-06-21T10:20:50Z</time>
      </trkpt>
      <trkpt lat="43.42608" lon="2.6581">
        <ele>803.9</ele>
        <time>2022-06-21T10:20:51Z</time>
      </trkpt>
      <trkpt lat="43.42608" lon="2.6581">
        <ele>803.9</ele>
        <time>2022-06-21T10:20:52Z</time>
      </trkpt>
      <trkpt lat="43.42608" lon="2.6581">
        <ele>803.9</ele>
        <time>2022-06-21T10:20:53Z</time>
      </trkpt>
      <trkpt lat="43.42608" lon="2.6581">
        <ele>803.9</ele>
        <time>2022-06-21T10:20:54Z</time>
      </trkpt>
      <trkpt lat="43.42608" lon="2.6581">
        <ele>803.9</ele>
        <time>2022-06-21T10:20:55Z</time>
      </trkpt>
      <trkpt lat="43.42608" lon="2.6581">
        <ele>803.9</ele>
        <time>2022-06-21T10:20:56Z</time>
      </trkpt>
      <trkpt lat="43.42608" lon="2.6581">
        <ele>803.9</ele>
        <time>2022-06-21T10:20:57Z</time>
      </trkpt>
      <trkpt lat="43.42608" lon="2.6581">
        <ele>803.9</ele>
        <time>2022-06-21T10:20:58Z</time>
      </trkpt>
      <trkpt lat="43.42608" lon="2.6581">
        <ele>803.9</ele>
        <time>2022-06-21T10:20:59Z</time>
      </trkpt>
      <trkpt lat="43.42608" lon="2.6581">
        <ele>803.9</ele>
        <time>2022-06-21T10:21:00Z</time>
      </trkpt>
      <trkpt lat="43.42608" lon="2.6581">
        <ele>803.9</ele>
        <time>2022-06-21T10:21:01Z</time>
      </trkpt>
      <trkpt lat="43.42608" lon="2.6581">
        <ele>803.9</ele>
        <time>2022-06-21T10:21:02Z</time>
      </trkpt>
      <trkpt lat="43.42608" lon="2.6581">
        <ele>803.9</ele>
        <time>2022-06-21T10:21:03Z</time>
      </trkpt>
      <trkpt lat="43.42608" lon="2.6581">
        <ele>803.9</ele>
        <time>2022-06-21T10:21:04Z</time>
      </trkpt>
      <trkpt lat="43.42608" lon="2.6581">
        <ele>803.9</ele>
        <time>2022-06-21T10:21:05Z</time>
      </trkpt>
      <trkpt lat="43.42608" lon="2.6581">
        <ele>803.9</ele>
        <time>2022-06-21T10:21:06Z</time>
      </trkpt>
      <trkpt lat="43.42608" lon="2.6581">
        <ele>803.9</ele>
        <time>2022-06-21T10:21:07Z</time>
      </trkpt>
      <trkpt lat="43.42608" lon="2.6581">
        <ele>803.9</ele>
        <time>2022-06-21T10:21:08Z</time>
      </trkpt>
      <trkpt lat="43.42608" lon="2.6581">
        <ele>803.9</ele>
        <time>2022-06-21T10:21:09Z</time>
      </trkpt>
      <trkpt lat="43.42608" lon="2.6581">
        <ele>803.9</ele>
        <time>2022-06-21T10:21:11Z</time>
      </trkpt>
      <trkpt lat="43.42608" lon="2.6581">
        <ele>803.9</ele>
        <time>2022-06-21T10:21:12Z</time>
      </trkpt>
      <trkpt lat="43.42608" lon="2.6581">
        <ele>803.9</ele>
        <time>2022-06-21T10:21:13Z</time>
      </trkpt>
      <trkpt lat="43.42608" lon="2.6581">
        <ele>803.9</ele>
        <time>2022-06-21T10:21:14Z</time>
      </trkpt>
      <trkpt lat="43.42608" lon="2.6581">
        <ele>803.9</ele>
        <time>2022-06-21T10:21:15Z</time>
      </trkpt>
      <trkpt lat="43.42608" lon="2.6581">
        <ele>803.9</ele>
        <time>2022-06-21T10:21:16Z</time>
      </trkpt>
      <trkpt lat="43.42608" lon="2.6581">
        <ele>803.9</ele>
        <time>2022-06-21T10:21:17Z</time>
      </trkpt>
      <trkpt lat="43.42608" lon="2.6581">
        <ele>803.9</ele>
        <time>2022-06-21T10:21:18Z</time>
      </trkpt>
      <trkpt lat="43.42608" lon="2.6581">
        <ele>803.9</ele>
        <time>2022-06-21T10:21:19Z</time>
      </trkpt>
      <trkpt lat="43.42608" lon="2.6581">
        <ele>803.9</ele>
        <time>2022-06-21T10:21:20Z</time>
      </trkpt>
      <trkpt lat="43.42608" lon="2.6581">
        <ele>803.9</ele>
        <time>2022-06-21T10:21:21Z</time>
      </trkpt>
      <trkpt lat="43.42608" lon="2.6581">
        <ele>803.9</ele>
        <time>2022-06-21T10:21:22Z</time>
      </trkpt>
      <trkpt lat="43.42608" lon="2.6581">
        <ele>803.9</ele>
        <time>2022-06-21T10:21:23Z</time>
      </trkpt>
      <trkpt lat="43.42608" lon="2.6581">
        <ele>803.9</ele>
        <time>2022-06-21T10:21:24Z</time>
      </trkpt>
      <trkpt lat="43.42608" lon="2.6581">
        <ele>803.9</ele>
        <time>2022-06-21T10:21:25Z</time>
      </trkpt>
      <trkpt lat="43.42608" lon="2.6581">
        <ele>803.9</ele>
        <time>2022-06-21T10:21:26Z</time>
      </trkpt>
      <trkpt lat="43.42608" lon="2.6581">
        <ele>803.9</ele>
        <time>2022-06-21T10:21:27Z</time>
      </trkpt>
      <trkpt lat="43.42608" lon="2.6581">
        <ele>803.9</ele>
        <time>2022-06-21T10:21:28Z</time>
      </trkpt>
      <trkpt lat="43.42608" lon="2.6581">
        <ele>803.9</ele>
        <time>2022-06-21T10:21:29Z</time>
      </trkpt>
      <trkpt lat="43.42608" lon="2.6581">
        <ele>803.9</ele>
        <time>2022-06-21T10:21:30Z</time>
      </trkpt>
      <trkpt lat="43.42608" lon="2.6581">
        <ele>803.9</ele>
        <time>2022-06-21T10:21:32Z</time>
      </trkpt>
      <trkpt lat="43.42608" lon="2.6581">
        <ele>803.9</ele>
        <time>2022-06-21T10:21:33Z</time>
      </trkpt>
      <trkpt lat="43.42608" lon="2.6581">
        <ele>803.9</ele>
        <time>2022-06-21T10:21:34Z</time>
      </trkpt>
      <trkpt lat="43.42608" lon="2.6581">
        <ele>803.9</ele>
        <time>2022-06-21T10:21:35Z</time>
      </trkpt>
      <trkpt lat="43.42608" lon="2.6581">
        <ele>803.9</ele>
        <time>2022-06-21T10:21:36Z</time>
      </trkpt>
      <trkpt lat="43.42608" lon="2.6581">
        <ele>803.9</ele>
        <time>2022-06-21T10:21:37Z</time>
      </trkpt>
      <trkpt lat="43.42608" lon="2.6581">
        <ele>803.9</ele>
        <time>2022-06-21T10:21:38Z</time>
      </trkpt>
      <trkpt lat="43.42608" lon="2.6581">
        <ele>803.9</ele>
        <time>2022-06-21T10:21:39Z</time>
      </trkpt>
      <trkpt lat="43.42608" lon="2.6581">
        <ele>803.9</ele>
        <time>2022-06-21T10:21:40Z</time>
      </trkpt>
      <trkpt lat="43.42608" lon="2.6581">
        <ele>803.9</ele>
        <time>2022-06-21T10:21:41Z</time>
      </trkpt>
      <trkpt lat="43.42608" lon="2.6581">
        <ele>803.9</ele>
        <time>2022-06-21T10:21:42Z</time>
      </trkpt>
      <trkpt lat="43.42608" lon="2.6581">
        <ele>803.9</ele>
        <time>2022-06-21T10:21:43Z</time>
      </trkpt>
      <trkpt lat="43.42608" lon="2.6581">
        <ele>803.9</ele>
        <time>2022-06-21T10:21:44Z</time>
      </trkpt>
      <trkpt lat="43.42608" lon="2.6581">
        <ele>803.9</ele>
        <time>2022-06-21T10:21:46Z</time>
      </trkpt>
      <trkpt lat="43.42608" lon="2.6581">
        <ele>803.9</ele>
        <time>2022-06-21T10:21:47Z</time>
      </trkpt>
      <trkpt lat="43.42608" lon="2.6581">
        <ele>803.9</ele>
        <time>2022-06-21T10:21:48Z</time>
      </trkpt>
      <trkpt lat="43.42608" lon="2.6581">
        <ele>803.9</ele>
        <time>2022-06-21T10:21:49Z</time>
      </trkpt>
      <trkpt lat="43.42608" lon="2.6581">
        <ele>803.9</ele>
        <time>2022-06-21T10:21:50Z</time>
      </trkpt>
      <trkpt lat="43.42608" lon="2.6581">
        <ele>803.9</ele>
        <time>2022-06-21T10:21:51Z</time>
      </trkpt>
      <trkpt lat="43.42608" lon="2.6581">
        <ele>803.9</ele>
        <time>2022-06-21T10:21:52Z</time>
      </trkpt>
      <trkpt lat="43.42608" lon="2.6581">
        <ele>803.9</ele>
        <time>2022-06-21T10:21:53Z</time>
      </trkpt>
      <trkpt lat="43.42608" lon="2.6581">
        <ele>803.9</ele>
        <time>2022-06-21T10:21:54Z</time>
      </trkpt>
      <trkpt lat="43.42608" lon="2.6581">
        <ele>803.9</ele>
        <time>2022-06-21T10:21:55Z</time>
      </trkpt>
      <trkpt lat="43.42608" lon="2.6581">
        <ele>803.9</ele>
        <time>2022-06-21T10:21:56Z</time>
      </trkpt>
      <trkpt lat="43.42608" lon="2.6581">
        <ele>803.9</ele>
        <time>2022-06-21T10:21:57Z</time>
      </trkpt>
      <trkpt lat="43.42608" lon="2.6581">
        <ele>803.9</ele>
        <time>2022-06-21T10:21:58Z</time>
      </trkpt>
      <trkpt lat="43.42608" lon="2.6581">
        <ele>803.9</ele>
        <time>2022-06-21T10:22:00Z</time>
      </trkpt>
      <trkpt lat="43.42608" lon="2.6581">
        <ele>803.9</ele>
        <time>2022-06-21T10:22:01Z</time>
      </trkpt>
      <trkpt lat="43.42608" lon="2.6581">
        <ele>803.9</ele>
        <time>2022-06-21T10:22:02Z</time>
      </trkpt>
      <trkpt lat="43.42608" lon="2.6581">
        <ele>803.9</ele>
        <time>2022-06-21T10:22:03Z</time>
      </trkpt>
      <trkpt lat="43.42608" lon="2.6581">
        <ele>803.9</ele>
        <time>2022-06-21T10:22:04Z</time>
      </trkpt>
      <trkpt lat="43.42608" lon="2.6581">
        <ele>803.9</ele>
        <time>2022-06-21T10:22:05Z</time>
      </trkpt>
      <trkpt lat="43.42608" lon="2.6581">
        <ele>803.9</ele>
        <time>2022-06-21T10:22:06Z</time>
      </trkpt>
      <trkpt lat="43.42608" lon="2.6581">
        <ele>803.9</ele>
        <time>2022-06-21T10:22:07Z</time>
      </trkpt>
      <trkpt lat="43.42608" lon="2.6581">
        <ele>803.9</ele>
        <time>2022-06-21T10:22:08Z</time>
      </trkpt>
      <trkpt lat="43.42608" lon="2.6581">
        <ele>803.9</ele>
        <time>2022-06-21T10:22:09Z</time>
      </trkpt>
      <trkpt lat="43.42608" lon="2.6581">
        <ele>803.9</ele>
        <time>2022-06-21T10:22:10Z</time>
      </trkpt>
      <trkpt lat="43.42608" lon="2.6581">
        <ele>803.9</ele>
        <time>2022-06-21T10:22:11Z</time>
      </trkpt>
      <trkpt lat="43.42608" lon="2.6581">
        <ele>803.9</ele>
        <time>2022-06-21T10:22:12Z</time>
      </trkpt>
      <trkpt lat="43.42608" lon="2.6581">
        <ele>803.9</ele>
        <time>2022-06-21T10:22:13Z</time>
      </trkpt>
      <trkpt lat="43.42608" lon="2.6581">
        <ele>803.9</ele>
        <time>2022-06-21T10:22:14Z</time>
      </trkpt>
      <trkpt lat="43.42608" lon="2.6581">
        <ele>803.9</ele>
        <time>2022-06-21T10:22:15Z</time>
      </trkpt>
      <trkpt lat="43.42608" lon="2.6581">
        <ele>803.9</ele>
        <time>2022-06-21T10:22:16Z</time>
      </trkpt>
      <trkpt lat="43.42608" lon="2.6581">
        <ele>803.9</ele>
        <time>2022-06-21T10:22:17Z</time>
      </trkpt>
      <trkpt lat="43.42608" lon="2.6581">
        <ele>803.9</ele>
        <time>2022-06-21T10:22:18Z</time>
      </trkpt>
      <trkpt lat="43.42608" lon="2.6581">
        <ele>803.9</ele>
        <time>2022-06-21T10:22:19Z</time>
      </trkpt>
      <trkpt lat="43.42608" lon="2.6581">
        <ele>803.9</ele>
        <time>2022-06-21T10:22:20Z</time>
      </trkpt>
      <trkpt lat="43.42608" lon="2.6581">
        <ele>803.9</ele>
        <time>2022-06-21T10:22:21Z</time>
      </trkpt>
      <trkpt lat="43.42608" lon="2.6581">
        <ele>803.9</ele>
        <time>2022-06-21T10:22:22Z</time>
      </trkpt>
      <trkpt lat="43.42608" lon="2.6581">
        <ele>803.9</ele>
        <time>2022-06-21T10:22:23Z</time>
      </trkpt>
      <trkpt lat="43.42608" lon="2.6581">
        <ele>803.9</ele>
        <time>2022-06-21T10:22:24Z</time>
      </trkpt>
      <trkpt lat="43.42608" lon="2.6581">
        <ele>803.9</ele>
        <time>2022-06-21T10:22:25Z</time>
      </trkpt>
      <trkpt lat="43.42608" lon="2.6581">
        <ele>803.9</ele>
        <time>2022-06-21T10:22:26Z</time>
      </trkpt>
      <trkpt lat="43.42608" lon="2.6581">
        <ele>803.9</ele>
        <time>2022-06-21T10:22:27Z</time>
      </trkpt>
      <trkpt lat="43.42608" lon="2.6581">
        <ele>803.9</ele>
        <time>2022-06-21T10:22:28Z</time>
      </trkpt>
      <trkpt lat="43.42608" lon="2.6581">
        <ele>803.9</ele>
        <time>2022-06-21T10:22:29Z</time>
      </trkpt>
      <trkpt lat="43.42608" lon="2.6581">
        <ele>803.9</ele>
        <time>2022-06-21T10:22:30Z</time>
      </trkpt>
      <trkpt lat="43.42608" lon="2.6581">
        <ele>803.9</ele>
        <time>2022-06-21T10:22:31Z</time>
      </trkpt>
      <trkpt lat="43.42608" lon="2.6581">
        <ele>803.9</ele>
        <time>2022-06-21T10:22:32Z</time>
      </trkpt>
      <trkpt lat="43.42608" lon="2.6581">
        <ele>803.9</ele>
        <time>2022-06-21T10:22:33Z</time>
      </trkpt>
      <trkpt lat="43.42608" lon="2.6581">
        <ele>803.9</ele>
        <time>2022-06-21T10:22:34Z</time>
      </trkpt>
      <trkpt lat="43.42608" lon="2.6581">
        <ele>803.9</ele>
        <time>2022-06-21T10:22:35Z</time>
      </trkpt>
      <trkpt lat="43.42608" lon="2.6581">
        <ele>803.9</ele>
        <time>2022-06-21T10:22:36Z</time>
      </trkpt>
      <trkpt lat="43.42608" lon="2.6581">
        <ele>803.9</ele>
        <time>2022-06-21T10:22:37Z</time>
      </trkpt>
      <trkpt lat="43.42608" lon="2.6581">
        <ele>803.9</ele>
        <time>2022-06-21T10:22:38Z</time>
      </trkpt>
      <trkpt lat="43.42608" lon="2.6581">
        <ele>803.9</ele>
        <time>2022-06-21T10:22:39Z</time>
      </trkpt>
      <trkpt lat="43.42608" lon="2.6581">
        <ele>803.9</ele>
        <time>2022-06-21T10:22:40Z</time>
      </trkpt>
      <trkpt lat="43.42608" lon="2.6581">
        <ele>803.9</ele>
        <time>2022-06-21T10:22:41Z</time>
      </trkpt>
      <trkpt lat="43.42608" lon="2.6581">
        <ele>803.9</ele>
        <time>2022-06-21T10:22:42Z</time>
      </trkpt>
      <trkpt lat="43.42608" lon="2.6581">
        <ele>803.9</ele>
        <time>2022-06-21T10:22:43Z</time>
      </trkpt>
      <trkpt lat="43.42608" lon="2.6581">
        <ele>803.9</ele>
        <time>2022-06-21T10:22:44Z</time>
      </trkpt>
      <trkpt lat="43.42608" lon="2.6581">
        <ele>803.9</ele>
        <time>2022-06-21T10:22:45Z</time>
      </trkpt>
      <trkpt lat="43.42608" lon="2.6581">
        <ele>803.9</ele>
        <time>2022-06-21T10:22:46Z</time>
      </trkpt>
      <trkpt lat="43.42608" lon="2.6581">
        <ele>803.9</ele>
        <time>2022-06-21T10:22:47Z</time>
      </trkpt>
      <trkpt lat="43.42608" lon="2.6581">
        <ele>803.9</ele>
        <time>2022-06-21T10:22:49Z</time>
      </trkpt>
      <trkpt lat="43.42608" lon="2.6581">
        <ele>803.9</ele>
        <time>2022-06-21T10:22:50Z</time>
      </trkpt>
      <trkpt lat="43.42608" lon="2.6581">
        <ele>803.9</ele>
        <time>2022-06-21T10:22:51Z</time>
      </trkpt>
      <trkpt lat="43.42608" lon="2.6581">
        <ele>803.9</ele>
        <time>2022-06-21T10:22:52Z</time>
      </trkpt>
      <trkpt lat="43.42608" lon="2.6581">
        <ele>803.9</ele>
        <time>2022-06-21T10:22:53Z</time>
      </trkpt>
      <trkpt lat="43.42608" lon="2.6581">
        <ele>803.9</ele>
        <time>2022-06-21T10:22:54Z</time>
      </trkpt>
      <trkpt lat="43.42608" lon="2.6581">
        <ele>803.9</ele>
        <time>2022-06-21T10:22:55Z</time>
      </trkpt>
      <trkpt lat="43.42608" lon="2.6581">
        <ele>803.9</ele>
        <time>2022-06-21T10:22:56Z</time>
      </trkpt>
      <trkpt lat="43.42608" lon="2.6581">
        <ele>803.9</ele>
        <time>2022-06-21T10:22:57Z</time>
      </trkpt>
      <trkpt lat="43.42608" lon="2.6581">
        <ele>803.9</ele>
        <time>2022-06-21T10:22:58Z</time>
      </trkpt>
      <trkpt lat="43.42608" lon="2.6581">
        <ele>803.9</ele>
        <time>2022-06-21T10:22:59Z</time>
      </trkpt>
      <trkpt lat="43.42608" lon="2.6581">
        <ele>803.9</ele>
        <time>2022-06-21T10:23:00Z</time>
      </trkpt>
      <trkpt lat="43.42608" lon="2.6581">
        <ele>803.9</ele>
        <time>2022-06-21T10:23:01Z</time>
      </trkpt>
      <trkpt lat="43.42608" lon="2.6581">
        <ele>803.9</ele>
        <time>2022-06-21T10:23:02Z</time>
      </trkpt>
      <trkpt lat="43.42608" lon="2.6581">
        <ele>803.9</ele>
        <time>2022-06-21T10:23:03Z</time>
      </trkpt>
      <trkpt lat="43.42608" lon="2.6581">
        <ele>803.9</ele>
        <time>2022-06-21T10:23:04Z</time>
      </trkpt>
      <trkpt lat="43.42608" lon="2.6581">
        <ele>803.9</ele>
        <time>2022-06-21T10:23:05Z</time>
      </trkpt>
      <trkpt lat="43.42608" lon="2.6581">
        <ele>803.9</ele>
        <time>2022-06-21T10:23:06Z</time>
      </trkpt>
      <trkpt lat="43.42608" lon="2.6581">
        <ele>803.9</ele>
        <time>2022-06-21T10:23:07Z</time>
      </trkpt>
      <trkpt lat="43.42608" lon="2.6581">
        <ele>803.9</ele>
        <time>2022-06-21T10:23:08Z</time>
      </trkpt>
      <trkpt lat="43.42608" lon="2.6581">
        <ele>803.9</ele>
        <time>2022-06-21T10:23:09Z</time>
      </trkpt>
      <trkpt lat="43.42608" lon="2.6581">
        <ele>803.9</ele>
        <time>2022-06-21T10:23:10Z</time>
      </trkpt>
      <trkpt lat="43.42608" lon="2.6581">
        <ele>803.9</ele>
        <time>2022-06-21T10:23:11Z</time>
      </trkpt>
      <trkpt lat="43.42608" lon="2.6581">
        <ele>803.9</ele>
        <time>2022-06-21T10:23:12Z</time>
      </trkpt>
      <trkpt lat="43.42608" lon="2.6581">
        <ele>803.9</ele>
        <time>2022-06-21T10:23:13Z</time>
      </trkpt>
      <trkpt lat="43.42608" lon="2.6581">
        <ele>803.9</ele>
        <time>2022-06-21T10:23:14Z</time>
      </trkpt>
      <trkpt lat="43.42608" lon="2.6581">
        <ele>803.9</ele>
        <time>2022-06-21T10:23:15Z</time>
      </trkpt>
      <trkpt lat="43.42608" lon="2.6581">
        <ele>803.9</ele>
        <time>2022-06-21T10:23:16Z</time>
      </trkpt>
      <trkpt lat="43.42608" lon="2.6581">
        <ele>803.9</ele>
        <time>2022-06-21T10:23:17Z</time>
      </trkpt>
      <trkpt lat="43.42608" lon="2.6581">
        <ele>803.9</ele>
        <time>2022-06-21T10:23:18Z</time>
      </trkpt>
      <trkpt lat="43.42608" lon="2.6581">
        <ele>803.9</ele>
        <time>2022-06-21T10:23:19Z</time>
      </trkpt>
      <trkpt lat="43.42608" lon="2.6581">
        <ele>803.9</ele>
        <time>2022-06-21T10:23:20Z</time>
      </trkpt>
      <trkpt lat="43.42608" lon="2.6581">
        <ele>803.9</ele>
        <time>2022-06-21T10:23:21Z</time>
      </trkpt>
      <trkpt lat="43.42608" lon="2.6581">
        <ele>803.9</ele>
        <time>2022-06-21T10:23:22Z</time>
      </trkpt>
      <trkpt lat="43.42608" lon="2.6581">
        <ele>803.9</ele>
        <time>2022-06-21T10:23:23Z</time>
      </trkpt>
      <trkpt lat="43.42608" lon="2.6581">
        <ele>803.9</ele>
        <time>2022-06-21T10:23:24Z</time>
      </trkpt>
      <trkpt lat="43.42608" lon="2.6581">
        <ele>803.9</ele>
        <time>2022-06-21T10:23:25Z</time>
      </trkpt>
      <trkpt lat="43.42608" lon="2.6581">
        <ele>803.9</ele>
        <time>2022-06-21T10:23:26Z</time>
      </trkpt>
      <trkpt lat="43.42608" lon="2.6581">
        <ele>803.9</ele>
        <time>2022-06-21T10:23:27Z</time>
      </trkpt>
      <trkpt lat="43.42608" lon="2.6581">
        <ele>803.9</ele>
        <time>2022-06-21T10:23:28Z</time>
      </trkpt>
      <trkpt lat="43.42608" lon="2.6581">
        <ele>803.9</ele>
        <time>2022-06-21T10:23:29Z</time>
      </trkpt>
      <trkpt lat="43.42608" lon="2.6581">
        <ele>803.9</ele>
        <time>2022-06-21T10:23:30Z</time>
      </trkpt>
      <trkpt lat="43.42608" lon="2.6581">
        <ele>803.9</ele>
        <time>2022-06-21T10:23:31Z</time>
      </trkpt>
      <trkpt lat="43.42608" lon="2.6581">
        <ele>803.9</ele>
        <time>2022-06-21T10:23:32Z</time>
      </trkpt>
      <trkpt lat="43.42608" lon="2.6581">
        <ele>803.9</ele>
        <time>2022-06-21T10:23:33Z</time>
      </trkpt>
      <trkpt lat="43.42608" lon="2.6581">
        <ele>803.9</ele>
        <time>2022-06-21T10:23:34Z</time>
      </trkpt>
      <trkpt lat="43.42608" lon="2.6581">
        <ele>803.9</ele>
        <time>2022-06-21T10:23:35Z</time>
      </trkpt>
      <trkpt lat="43.42608" lon="2.6581">
        <ele>803.9</ele>
        <time>2022-06-21T10:23:36Z</time>
      </trkpt>
      <trkpt lat="43.42608" lon="2.6581">
        <ele>803.9</ele>
        <time>2022-06-21T10:23:37Z</time>
      </trkpt>
      <trkpt lat="43.42608" lon="2.6581">
        <ele>803.9</ele>
        <time>2022-06-21T10:23:38Z</time>
      </trkpt>
      <trkpt lat="43.42608" lon="2.6581">
        <ele>803.9</ele>
        <time>2022-06-21T10:23:39Z</time>
      </trkpt>
      <trkpt lat="43.42608" lon="2.6581">
        <ele>803.9</ele>
        <time>2022-06-21T10:23:40Z</time>
      </trkpt>
      <trkpt lat="43.42608" lon="2.6581">
        <ele>803.9</ele>
        <time>2022-06-21T10:23:41Z</time>
      </trkpt>
      <trkpt lat="43.42608" lon="2.6581">
        <ele>803.9</ele>
        <time>2022-06-21T10:23:42Z</time>
      </trkpt>
      <trkpt lat="43.42608" lon="2.6581">
        <ele>803.9</ele>
        <time>2022-06-21T10:23:43Z</time>
      </trkpt>
      <trkpt lat="43.42608" lon="2.6581">
        <ele>803.9</ele>
        <time>2022-06-21T10:23:44Z</time>
      </trkpt>
      <trkpt lat="43.42608" lon="2.6581">
        <ele>803.9</ele>
        <time>2022-06-21T10:23:45Z</time>
      </trkpt>
      <trkpt lat="43.42608" lon="2.6581">
        <ele>803.9</ele>
        <time>2022-06-21T10:23:46Z</time>
      </trkpt>
      <trkpt lat="43.42608" lon="2.6581">
        <ele>803.9</ele>
        <time>2022-06-21T10:23:47Z</time>
      </trkpt>
      <trkpt lat="43.42608" lon="2.6581">
        <ele>803.9</ele>
        <time>2022-06-21T10:23:48Z</time>
      </trkpt>
      <trkpt lat="43.42608" lon="2.6581">
        <ele>803.9</ele>
        <time>2022-06-21T10:23:49Z</time>
      </trkpt>
      <trkpt lat="43.42608" lon="2.6581">
        <ele>803.9</ele>
        <time>2022-06-21T10:23:50Z</time>
      </trkpt>
      <trkpt lat="43.42608" lon="2.6581">
        <ele>803.9</ele>
        <time>2022-06-21T10:23:51Z</time>
      </trkpt>
      <trkpt lat="43.42608" lon="2.6581">
        <ele>803.9</ele>
        <time>2022-06-21T10:23:52Z</time>
      </trkpt>
      <trkpt lat="43.42608" lon="2.6581">
        <ele>803.9</ele>
        <time>2022-06-21T10:23:53Z</time>
      </trkpt>
      <trkpt lat="43.42608" lon="2.6581">
        <ele>803.9</ele>
        <time>2022-06-21T10:23:54Z</time>
      </trkpt>
      <trkpt lat="43.42608" lon="2.6581">
        <ele>803.9</ele>
        <time>2022-06-21T10:23:55Z</time>
      </trkpt>
      <trkpt lat="43.42608" lon="2.6581">
        <ele>803.9</ele>
        <time>2022-06-21T10:23:56Z</time>
      </trkpt>
      <trkpt lat="43.42608" lon="2.6581">
        <ele>803.9</ele>
        <time>2022-06-21T10:23:58Z</time>
      </trkpt>
      <trkpt lat="43.42608" lon="2.6581">
        <ele>803.9</ele>
        <time>2022-06-21T10:23:59Z</time>
      </trkpt>
      <trkpt lat="43.42608" lon="2.6581">
        <ele>803.9</ele>
        <time>2022-06-21T10:24:00Z</time>
      </trkpt>
      <trkpt lat="43.42608" lon="2.6581">
        <ele>803.9</ele>
        <time>2022-06-21T10:24:01Z</time>
      </trkpt>
      <trkpt lat="43.42608" lon="2.6581">
        <ele>803.9</ele>
        <time>2022-06-21T10:24:02Z</time>
      </trkpt>
      <trkpt lat="43.42608" lon="2.6581">
        <ele>803.9</ele>
        <time>2022-06-21T10:24:03Z</time>
      </trkpt>
      <trkpt lat="43.42608" lon="2.6581">
        <ele>803.9</ele>
        <time>2022-06-21T10:24:04Z</time>
      </trkpt>
      <trkpt lat="43.42608" lon="2.6581">
        <ele>803.9</ele>
        <time>2022-06-21T10:24:05Z</time>
      </trkpt>
      <trkpt lat="43.42608" lon="2.6581">
        <ele>803.9</ele>
        <time>2022-06-21T10:24:06Z</time>
      </trkpt>
      <trkpt lat="43.42608" lon="2.6581">
        <ele>803.9</ele>
        <time>2022-06-21T10:24:07Z</time>
      </trkpt>
      <trkpt lat="43.42608" lon="2.6581">
        <ele>803.9</ele>
        <time>2022-06-21T10:24:08Z</time>
      </trkpt>
      <trkpt lat="43.42608" lon="2.6581">
        <ele>803.9</ele>
        <time>2022-06-21T10:24:09Z</time>
      </trkpt>
      <trkpt lat="43.42608" lon="2.6581">
        <ele>803.9</ele>
        <time>2022-06-21T10:24:10Z</time>
      </trkpt>
      <trkpt lat="43.42608" lon="2.6581">
        <ele>803.9</ele>
        <time>2022-06-21T10:24:12Z</time>
      </trkpt>
      <trkpt lat="43.42608" lon="2.6581">
        <ele>803.9</ele>
        <time>2022-06-21T10:24:13Z</time>
      </trkpt>
      <trkpt lat="43.42608" lon="2.6581">
        <ele>803.9</ele>
        <time>2022-06-21T10:24:14Z</time>
      </trkpt>
      <trkpt lat="43.42608" lon="2.6581">
        <ele>803.9</ele>
        <time>2022-06-21T10:24:15Z</time>
      </trkpt>
      <trkpt lat="43.42608" lon="2.6581">
        <ele>803.9</ele>
        <time>2022-06-21T10:24:16Z</time>
      </trkpt>
      <trkpt lat="43.42608" lon="2.6581">
        <ele>803.9</ele>
        <time>2022-06-21T10:24:17Z</time>
      </trkpt>
      <trkpt lat="43.42608" lon="2.6581">
        <ele>803.9</ele>
        <time>2022-06-21T10:24:18Z</time>
      </trkpt>
      <trkpt lat="43.42608" lon="2.6581">
        <ele>803.9</ele>
        <time>2022-06-21T10:24:19Z</time>
      </trkpt>
      <trkpt lat="43.42608" lon="2.6581">
        <ele>803.9</ele>
        <time>2022-06-21T10:24:20Z</time>
      </trkpt>
      <trkpt lat="43.42608" lon="2.6581">
        <ele>803.9</ele>
        <time>2022-06-21T10:24:21Z</time>
      </trkpt>
      <trkpt lat="43.42608" lon="2.6581">
        <ele>803.9</ele>
        <time>2022-06-21T10:24:22Z</time>
      </trkpt>
      <trkpt lat="43.42608" lon="2.6581">
        <ele>803.9</ele>
        <time>2022-06-21T10:24:23Z</time>
      </trkpt>
      <trkpt lat="43.42608" lon="2.6581">
        <ele>803.9</ele>
        <time>2022-06-21T10:24:24Z</time>
      </trkpt>
      <trkpt lat="43.42608" lon="2.6581">
        <ele>803.9</ele>
        <time>2022-06-21T10:24:25Z</time>
      </trkpt>
      <trkpt lat="43.42608" lon="2.6581">
        <ele>803.9</ele>
        <time>2022-06-21T10:24:26Z</time>
      </trkpt>
      <trkpt lat="43.42608" lon="2.6581">
        <ele>803.9</ele>
        <time>2022-06-21T10:24:27Z</time>
      </trkpt>
      <trkpt lat="43.42608" lon="2.6581">
        <ele>803.9</ele>
        <time>2022-06-21T10:24:28Z</time>
      </trkpt>
      <trkpt lat="43.42608" lon="2.6581">
        <ele>803.9</ele>
        <time>2022-06-21T10:24:29Z</time>
      </trkpt>
      <trkpt lat="43.42608" lon="2.6581">
        <ele>803.9</ele>
        <time>2022-06-21T10:24:30Z</time>
      </trkpt>
      <trkpt lat="43.42608" lon="2.6581">
        <ele>803.9</ele>
        <time>2022-06-21T10:24:31Z</time>
      </trkpt>
      <trkpt lat="43.42608" lon="2.6581">
        <ele>803.9</ele>
        <time>2022-06-21T10:24:32Z</time>
      </trkpt>
      <trkpt lat="43.42608" lon="2.6581">
        <ele>803.9</ele>
        <time>2022-06-21T10:24:33Z</time>
      </trkpt>
      <trkpt lat="43.42608" lon="2.6581">
        <ele>803.9</ele>
        <time>2022-06-21T10:24:34Z</time>
      </trkpt>
      <trkpt lat="43.42608" lon="2.6581">
        <ele>803.9</ele>
        <time>2022-06-21T10:24:35Z</time>
      </trkpt>
      <trkpt lat="43.42608" lon="2.6581">
        <ele>803.9</ele>
        <time>2022-06-21T10:24:36Z</time>
      </trkpt>
      <trkpt lat="43.42608" lon="2.6581">
        <ele>803.9</ele>
        <time>2022-06-21T10:24:37Z</time>
      </trkpt>
      <trkpt lat="43.42608" lon="2.6581">
        <ele>803.9</ele>
        <time>2022-06-21T10:24:38Z</time>
      </trkpt>
      <trkpt lat="43.42608" lon="2.6581">
        <ele>803.9</ele>
        <time>2022-06-21T10:24:39Z</time>
      </trkpt>
      <trkpt lat="43.42608" lon="2.6581">
        <ele>803.9</ele>
        <time>2022-06-21T10:24:40Z</time>
      </trkpt>
      <trkpt lat="43.42608" lon="2.6581">
        <ele>803.9</ele>
        <time>2022-06-21T10:24:41Z</time>
      </trkpt>
      <trkpt lat="43.42608" lon="2.6581">
        <ele>803.9</ele>
        <time>2022-06-21T10:24:42Z</time>
      </trkpt>
      <trkpt lat="43.42608" lon="2.6581">
        <ele>803.9</ele>
        <time>2022-06-21T10:24:43Z</time>
      </trkpt>
      <trkpt lat="43.42608" lon="2.6581">
        <ele>803.9</ele>
        <time>2022-06-21T10:24:44Z</time>
      </trkpt>
      <trkpt lat="43.42608" lon="2.6581">
        <ele>803.9</ele>
        <time>2022-06-21T10:24:45Z</time>
      </trkpt>
      <trkpt lat="43.42608" lon="2.6581">
        <ele>803.9</ele>
        <time>2022-06-21T10:24:46Z</time>
      </trkpt>
      <trkpt lat="43.42608" lon="2.6581">
        <ele>803.9</ele>
        <time>2022-06-21T10:24:47Z</time>
      </trkpt>
      <trkpt lat="43.42608" lon="2.6581">
        <ele>803.9</ele>
        <time>2022-06-21T10:24:48Z</time>
      </trkpt>
      <trkpt lat="43.42608" lon="2.6581">
        <ele>803.9</ele>
        <time>2022-06-21T10:24:49Z</time>
      </trkpt>
      <trkpt lat="43.42608" lon="2.6581">
        <ele>803.9</ele>
        <time>2022-06-21T10:24:50Z</time>
      </trkpt>
      <trkpt lat="43.42608" lon="2.6581">
        <ele>803.9</ele>
        <time>2022-06-21T10:24:51Z</time>
      </trkpt>
      <trkpt lat="43.42608" lon="2.6581">
        <ele>803.9</ele>
        <time>2022-06-21T10:24:52Z</time>
      </trkpt>
      <trkpt lat="43.42608" lon="2.6581">
        <ele>803.9</ele>
        <time>2022-06-21T10:24:53Z</time>
      </trkpt>
      <trkpt lat="43.42608" lon="2.6581">
        <ele>803.9</ele>
        <time>2022-06-21T10:24:54Z</time>
      </trkpt>
      <trkpt lat="43.42608" lon="2.6581">
        <ele>803.9</ele>
        <time>2022-06-21T10:24:55Z</time>
      </trkpt>
      <trkpt lat="43.42608" lon="2.6581">
        <ele>803.9</ele>
        <time>2022-06-21T10:24:56Z</time>
      </trkpt>
      <trkpt lat="43.42608" lon="2.6581">
        <ele>803.9</ele>
        <time>2022-06-21T10:24:57Z</time>
      </trkpt>
      <trkpt lat="43.42608" lon="2.6581">
        <ele>803.9</ele>
        <time>2022-06-21T10:24:58Z</time>
      </trkpt>
      <trkpt lat="43.42608" lon="2.6581">
        <ele>803.9</ele>
        <time>2022-06-21T10:24:59Z</time>
      </trkpt>
      <trkpt lat="43.42608" lon="2.6581">
        <ele>803.9</ele>
        <time>2022-06-21T10:25:00Z</time>
      </trkpt>
      <trkpt lat="43.42608" lon="2.6581">
        <ele>803.9</ele>
        <time>2022-06-21T10:25:02Z</time>
      </trkpt>
      <trkpt lat="43.42608" lon="2.6581">
        <ele>803.9</ele>
        <time>2022-06-21T10:25:03Z</time>
      </trkpt>
      <trkpt lat="43.42608" lon="2.6581">
        <ele>803.9</ele>
        <time>2022-06-21T10:25:04Z</time>
      </trkpt>
      <trkpt lat="43.42608" lon="2.6581">
        <ele>803.9</ele>
        <time>2022-06-21T10:25:05Z</time>
      </trkpt>
      <trkpt lat="43.42608" lon="2.6581">
        <ele>803.9</ele>
        <time>2022-06-21T10:25:06Z</time>
      </trkpt>
      <trkpt lat="43.42608" lon="2.6581">
        <ele>803.9</ele>
        <time>2022-06-21T10:25:07Z</time>
      </trkpt>
      <trkpt lat="43.42608" lon="2.6581">
        <ele>803.9</ele>
        <time>2022-06-21T10:25:08Z</time>
      </trkpt>
      <trkpt lat="43.42608" lon="2.6581">
        <ele>803.9</ele>
        <time>2022-06-21T10:25:09Z</time>
      </trkpt>
      <trkpt lat="43.42608" lon="2.6581">
        <ele>803.9</ele>
        <time>2022-06-21T10:25:10Z</time>
      </trkpt>
      <trkpt lat="43.42608" lon="2.6581">
        <ele>803.9</ele>
        <time>2022-06-21T10:25:11Z</time>
      </trkpt>
      <trkpt lat="43.42608" lon="2.6581">
        <ele>803.9</ele>
        <time>2022-06-21T10:25:12Z</time>
      </trkpt>
      <trkpt lat="43.42608" lon="2.6581">
        <ele>803.9</ele>
        <time>2022-06-21T10:25:13Z</time>
      </trkpt>
      <trkpt lat="43.42608" lon="2.6581">
        <ele>803.9</ele>
        <time>2022-06-21T10:25:14Z</time>
      </trkpt>
      <trkpt lat="43.42608" lon="2.6581">
        <ele>803.9</ele>
        <time>2022-06-21T10:25:15Z</time>
      </trkpt>
      <trkpt lat="43.42608" lon="2.6581">
        <ele>803.9</ele>
        <time>2022-06-21T10:25:16Z</time>
      </trkpt>
      <trkpt lat="43.42608" lon="2.6581">
        <ele>803.9</ele>
        <time>2022-06-21T10:25:17Z</time>
      </trkpt>
      <trkpt lat="43.42608" lon="2.6581">
        <ele>803.9</ele>
        <time>2022-06-21T10:25:18Z</time>
      </trkpt>
      <trkpt lat="43.42608" lon="2.6581">
        <ele>803.9</ele>
        <time>2022-06-21T10:25:19Z</time>
      </trkpt>
      <trkpt lat="43.42608" lon="2.6581">
        <ele>803.9</ele>
        <time>2022-06-21T10:25:20Z</time>
      </trkpt>
      <trkpt lat="43.42608" lon="2.6581">
        <ele>803.9</ele>
        <time>2022-06-21T10:25:21Z</time>
      </trkpt>
      <trkpt lat="43.42608" lon="2.6581">
        <ele>803.9</ele>
        <time>2022-06-21T10:25:22Z</time>
      </trkpt>
      <trkpt lat="43.42608" lon="2.6581">
        <ele>803.9</ele>
        <time>2022-06-21T10:25:23Z</time>
      </trkpt>
      <trkpt lat="43.42608" lon="2.6581">
        <ele>803.9</ele>
        <time>2022-06-21T10:25:24Z</time>
      </trkpt>
      <trkpt lat="43.42608" lon="2.6581">
        <ele>803.9</ele>
        <time>2022-06-21T10:25:25Z</time>
      </trkpt>
      <trkpt lat="43.42608" lon="2.6581">
        <ele>803.9</ele>
        <time>2022-06-21T10:25:26Z</time>
      </trkpt>
      <trkpt lat="43.42608" lon="2.6581">
        <ele>803.9</ele>
        <time>2022-06-21T10:25:27Z</time>
      </trkpt>
      <trkpt lat="43.42608" lon="2.6581">
        <ele>803.9</ele>
        <time>2022-06-21T10:25:28Z</time>
      </trkpt>
      <trkpt lat="43.42608" lon="2.6581">
        <ele>803.9</ele>
        <time>2022-06-21T10:25:29Z</time>
      </trkpt>
      <trkpt lat="43.42608" lon="2.6581">
        <ele>803.9</ele>
        <time>2022-06-21T10:25:30Z</time>
      </trkpt>
      <trkpt lat="43.42608" lon="2.6581">
        <ele>803.9</ele>
        <time>2022-06-21T10:25:31Z</time>
      </trkpt>
      <trkpt lat="43.42608" lon="2.6581">
        <ele>803.9</ele>
        <time>2022-06-21T10:25:32Z</time>
      </trkpt>
      <trkpt lat="43.42608" lon="2.6581">
        <ele>803.9</ele>
        <time>2022-06-21T10:25:33Z</time>
      </trkpt>
      <trkpt lat="43.42608" lon="2.6581">
        <ele>803.9</ele>
        <time>2022-06-21T10:25:34Z</time>
      </trkpt>
      <trkpt lat="43.42608" lon="2.6581">
        <ele>803.9</ele>
        <time>2022-06-21T10:25:35Z</time>
      </trkpt>
      <trkpt lat="43.42608" lon="2.6581">
        <ele>803.9</ele>
        <time>2022-06-21T10:25:36Z</time>
      </trkpt>
      <trkpt lat="43.42608" lon="2.6581">
        <ele>803.9</ele>
        <time>2022-06-21T10:25:37Z</time>
      </trkpt>
      <trkpt lat="43.42608" lon="2.6581">
        <ele>803.9</ele>
        <time>2022-06-21T10:25:38Z</time>
      </trkpt>
      <trkpt lat="43.42608" lon="2.6581">
        <ele>803.9</ele>
        <time>2022-06-21T10:25:39Z</time>
      </trkpt>
      <trkpt lat="43.42608" lon="2.6581">
        <ele>803.9</ele>
        <time>2022-06-21T10:25:40Z</time>
      </trkpt>
      <trkpt lat="43.42608" lon="2.6581">
        <ele>803.9</ele>
        <time>2022-06-21T10:25:41Z</time>
      </trkpt>
      <trkpt lat="43.42608" lon="2.6581">
        <ele>803.9</ele>
        <time>2022-06-21T10:25:42Z</time>
      </trkpt>
      <trkpt lat="43.42608" lon="2.6581">
        <ele>803.9</ele>
        <time>2022-06-21T10:25:43Z</time>
      </trkpt>
      <trkpt lat="43.42608" lon="2.6581">
        <ele>803.9</ele>
        <time>2022-06-21T10:25:44Z</time>
      </trkpt>
      <trkpt lat="43.42608" lon="2.6581">
        <ele>803.9</ele>
        <time>2022-06-21T10:25:45Z</time>
      </trkpt>
      <trkpt lat="43.42608" lon="2.6581">
        <ele>803.9</ele>
        <time>2022-06-21T10:25:46Z</time>
      </trkpt>
      <trkpt lat="43.42608" lon="2.6581">
        <ele>803.9</ele>
        <time>2022-06-21T10:25:47Z</time>
      </trkpt>
      <trkpt lat="43.42608" lon="2.6581">
        <ele>803.9</ele>
        <time>2022-06-21T10:25:48Z</time>
      </trkpt>
      <trkpt lat="43.42608" lon="2.6581">
        <ele>803.9</ele>
        <time>2022-06-21T10:25:49Z</time>
      </trkpt>
      <trkpt lat="43.42608" lon="2.6581">
        <ele>803.9</ele>
        <time>2022-06-21T10:25:50Z</time>
      </trkpt>
      <trkpt lat="43.42608" lon="2.6581">
        <ele>803.9</ele>
        <time>2022-06-21T10:25:51Z</time>
      </trkpt>
      <trkpt lat="43.42608" lon="2.6581">
        <ele>803.9</ele>
        <time>2022-06-21T10:25:52Z</time>
      </trkpt>
      <trkpt lat="43.42608" lon="2.6581">
        <ele>803.9</ele>
        <time>2022-06-21T10:25:53Z</time>
      </trkpt>
      <trkpt lat="43.42608" lon="2.6581">
        <ele>803.9</ele>
        <time>2022-06-21T10:25:54Z</time>
      </trkpt>
      <trkpt lat="43.42608" lon="2.6581">
        <ele>803.9</ele>
        <time>2022-06-21T10:25:55Z</time>
      </trkpt>
      <trkpt lat="43.42608" lon="2.6581">
        <ele>803.9</ele>
        <time>2022-06-21T10:25:56Z</time>
      </trkpt>
      <trkpt lat="43.42608" lon="2.6581">
        <ele>803.9</ele>
        <time>2022-06-21T10:25:57Z</time>
      </trkpt>
      <trkpt lat="43.42608" lon="2.6581">
        <ele>803.9</ele>
        <time>2022-06-21T10:25:58Z</time>
      </trkpt>
      <trkpt lat="43.42608" lon="2.6581">
        <ele>803.9</ele>
        <time>2022-06-21T10:25:59Z</time>
      </trkpt>
      <trkpt lat="43.42608" lon="2.6581">
        <ele>803.9</ele>
        <time>2022-06-21T10:26:00Z</time>
      </trkpt>
      <trkpt lat="43.42608" lon="2.6581">
        <ele>803.9</ele>
        <time>2022-06-21T10:26:01Z</time>
      </trkpt>
      <trkpt lat="43.42608" lon="2.6581">
        <ele>803.9</ele>
        <time>2022-06-21T10:26:02Z</time>
      </trkpt>
      <trkpt lat="43.42608" lon="2.6581">
        <ele>803.9</ele>
        <time>2022-06-21T10:26:03Z</time>
      </trkpt>
      <trkpt lat="43.42608" lon="2.6581">
        <ele>803.9</ele>
        <time>2022-06-21T10:26:04Z</time>
      </trkpt>
      <trkpt lat="43.42608" lon="2.6581">
        <ele>803.9</ele>
        <time>2022-06-21T10:26:05Z</time>
      </trkpt>
      <trkpt lat="43.42608" lon="2.6581">
        <ele>803.9</ele>
        <time>2022-06-21T10:26:06Z</time>
      </trkpt>
      <trkpt lat="43.42608" lon="2.6581">
        <ele>803.9</ele>
        <time>2022-06-21T10:26:07Z</time>
      </trkpt>
      <trkpt lat="43.42608" lon="2.6581">
        <ele>803.9</ele>
        <time>2022-06-21T10:26:08Z</time>
      </trkpt>
      <trkpt lat="43.42608" lon="2.6581">
        <ele>803.9</ele>
        <time>2022-06-21T10:26:09Z</time>
      </trkpt>
      <trkpt lat="43.42608" lon="2.6581">
        <ele>803.9</ele>
        <time>2022-06-21T10:26:10Z</time>
      </trkpt>
      <trkpt lat="43.42608" lon="2.6581">
        <ele>803.9</ele>
        <time>2022-06-21T10:26:11Z</time>
      </trkpt>
      <trkpt lat="43.42608" lon="2.6581">
        <ele>803.9</ele>
        <time>2022-06-21T10:26:12Z</time>
      </trkpt>
      <trkpt lat="43.42608" lon="2.6581">
        <ele>803.9</ele>
        <time>2022-06-21T10:26:13Z</time>
      </trkpt>
      <trkpt lat="43.42608" lon="2.6581">
        <ele>803.9</ele>
        <time>2022-06-21T10:26:14Z</time>
      </trkpt>
      <trkpt lat="43.42608" lon="2.6581">
        <ele>803.9</ele>
        <time>2022-06-21T10:26:15Z</time>
      </trkpt>
      <trkpt lat="43.42608" lon="2.6581">
        <ele>803.9</ele>
        <time>2022-06-21T10:26:16Z</time>
      </trkpt>
      <trkpt lat="43.42608" lon="2.6581">
        <ele>803.9</ele>
        <time>2022-06-21T10:26:17Z</time>
      </trkpt>
      <trkpt lat="43.42608" lon="2.6581">
        <ele>803.9</ele>
        <time>2022-06-21T10:26:18Z</time>
      </trkpt>
      <trkpt lat="43.42608" lon="2.6581">
        <ele>803.9</ele>
        <time>2022-06-21T10:26:19Z</time>
      </trkpt>
      <trkpt lat="43.42608" lon="2.6581">
        <ele>803.9</ele>
        <time>2022-06-21T10:26:20Z</time>
      </trkpt>
      <trkpt lat="43.42608" lon="2.6581">
        <ele>803.9</ele>
        <time>2022-06-21T10:26:21Z</time>
      </trkpt>
      <trkpt lat="43.42608" lon="2.6581">
        <ele>803.9</ele>
        <time>2022-06-21T10:26:22Z</time>
      </trkpt>
      <trkpt lat="43.42608" lon="2.6581">
        <ele>803.9</ele>
        <time>2022-06-21T10:26:23Z</time>
      </trkpt>
      <trkpt lat="43.42608" lon="2.6581">
        <ele>803.9</ele>
        <time>2022-06-21T10:26:24Z</time>
      </trkpt>
      <trkpt lat="43.42608" lon="2.6581">
        <ele>803.9</ele>
        <time>2022-06-21T10:26:25Z</time>
      </trkpt>
      <trkpt lat="43.42608" lon="2.6581">
        <ele>803.9</ele>
        <time>2022-06-21T10:26:26Z</time>
      </trkpt>
      <trkpt lat="43.42608" lon="2.6581">
        <ele>803.9</ele>
        <time>2022-06-21T10:26:27Z</time>
      </trkpt>
      <trkpt lat="43.42608" lon="2.6581">
        <ele>803.9</ele>
        <time>2022-06-21T10:26:28Z</time>
      </trkpt>
      <trkpt lat="43.42608" lon="2.6581">
        <ele>803.9</ele>
        <time>2022-06-21T10:26:29Z</time>
      </trkpt>
      <trkpt lat="43.42608" lon="2.6581">
        <ele>803.9</ele>
        <time>2022-06-21T10:26:30Z</time>
      </trkpt>
      <trkpt lat="43.42608" lon="2.6581">
        <ele>803.9</ele>
        <time>2022-06-21T10:26:31Z</time>
      </trkpt>
      <trkpt lat="43.42608" lon="2.6581">
        <ele>803.9</ele>
        <time>2022-06-21T10:26:32Z</time>
      </trkpt>
      <trkpt lat="43.42608" lon="2.6581">
        <ele>803.9</ele>
        <time>2022-06-21T10:26:33Z</time>
      </trkpt>
      <trkpt lat="43.42608" lon="2.6581">
        <ele>803.9</ele>
        <time>2022-06-21T10:26:34Z</time>
      </trkpt>
      <trkpt lat="43.42608" lon="2.6581">
        <ele>803.9</ele>
        <time>2022-06-21T10:26:35Z</time>
      </trkpt>
      <trkpt lat="43.42608" lon="2.6581">
        <ele>803.9</ele>
        <time>2022-06-21T10:26:36Z</time>
      </trkpt>
      <trkpt lat="43.42608" lon="2.6581">
        <ele>803.9</ele>
        <time>2022-06-21T10:26:37Z</time>
      </trkpt>
      <trkpt lat="43.42608" lon="2.6581">
        <ele>803.9</ele>
        <time>2022-06-21T10:26:38Z</time>
      </trkpt>
      <trkpt lat="43.42608" lon="2.6581">
        <ele>803.9</ele>
        <time>2022-06-21T10:26:39Z</time>
      </trkpt>
      <trkpt lat="43.42608" lon="2.6581">
        <ele>803.9</ele>
        <time>2022-06-21T10:26:40Z</time>
      </trkpt>
      <trkpt lat="43.42608" lon="2.6581">
        <ele>803.9</ele>
        <time>2022-06-21T10:26:41Z</time>
      </trkpt>
      <trkpt lat="43.42608" lon="2.6581">
        <ele>803.9</ele>
        <time>2022-06-21T10:26:42Z</time>
      </trkpt>
      <trkpt lat="43.42608" lon="2.6581">
        <ele>803.9</ele>
        <time>2022-06-21T10:26:43Z</time>
      </trkpt>
      <trkpt lat="43.42608" lon="2.6581">
        <ele>803.9</ele>
        <time>2022-06-21T10:26:44Z</time>
      </trkpt>
      <trkpt lat="43.42608" lon="2.6581">
        <ele>803.9</ele>
        <time>2022-06-21T10:26:45Z</time>
      </trkpt>
      <trkpt lat="43.42608" lon="2.6581">
        <ele>803.9</ele>
        <time>2022-06-21T10:26:46Z</time>
      </trkpt>
      <trkpt lat="43.42608" lon="2.6581">
        <ele>803.9</ele>
        <time>2022-06-21T10:26:47Z</time>
      </trkpt>
      <trkpt lat="43.42608" lon="2.6581">
        <ele>803.9</ele>
        <time>2022-06-21T10:26:48Z</time>
      </trkpt>
      <trkpt lat="43.42608" lon="2.6581">
        <ele>803.9</ele>
        <time>2022-06-21T10:26:49Z</time>
      </trkpt>
      <trkpt lat="43.42608" lon="2.6581">
        <ele>803.9</ele>
        <time>2022-06-21T10:26:50Z</time>
      </trkpt>
      <trkpt lat="43.42608" lon="2.6581">
        <ele>803.9</ele>
        <time>2022-06-21T10:26:51Z</time>
      </trkpt>
      <trkpt lat="43.42608" lon="2.6581">
        <ele>803.9</ele>
        <time>2022-06-21T10:26:52Z</time>
      </trkpt>
      <trkpt lat="43.42608" lon="2.6581">
        <ele>803.9</ele>
        <time>2022-06-21T10:26:53Z</time>
      </trkpt>
      <trkpt lat="43.42608" lon="2.6581">
        <ele>803.9</ele>
        <time>2022-06-21T10:26:54Z</time>
      </trkpt>
      <trkpt lat="43.42608" lon="2.6581">
        <ele>803.9</ele>
        <time>2022-06-21T10:26:55Z</time>
      </trkpt>
      <trkpt lat="43.42608" lon="2.6581">
        <ele>803.9</ele>
        <time>2022-06-21T10:26:56Z</time>
      </trkpt>
      <trkpt lat="43.42608" lon="2.6581">
        <ele>803.9</ele>
        <time>2022-06-21T10:26:57Z</time>
      </trkpt>
      <trkpt lat="43.42608" lon="2.6581">
        <ele>803.9</ele>
        <time>2022-06-21T10:26:58Z</time>
      </trkpt>
      <trkpt lat="43.42608" lon="2.6581">
        <ele>803.9</ele>
        <time>2022-06-21T10:26:59Z</time>
      </trkpt>
      <trkpt lat="43.42608" lon="2.6581">
        <ele>803.9</ele>
        <time>2022-06-21T10:27:00Z</time>
      </trkpt>
      <trkpt lat="43.42608" lon="2.6581">
        <ele>803.9</ele>
        <time>2022-06-21T10:27:01Z</time>
      </trkpt>
      <trkpt lat="43.42608" lon="2.6581">
        <ele>803.9</ele>
        <time>2022-06-21T10:27:02Z</time>
      </trkpt>
      <trkpt lat="43.42608" lon="2.6581">
        <ele>803.9</ele>
        <time>2022-06-21T10:27:03Z</time>
      </trkpt>
      <trkpt lat="43.42608" lon="2.6581">
        <ele>803.9</ele>
        <time>2022-06-21T10:27:04Z</time>
      </trkpt>
      <trkpt lat="43.42608" lon="2.6581">
        <ele>803.9</ele>
        <time>2022-06-21T10:27:05Z</time>
      </trkpt>
      <trkpt lat="43.42608" lon="2.6581">
        <ele>803.9</ele>
        <time>2022-06-21T10:27:06Z</time>
      </trkpt>
      <trkpt lat="43.42608" lon="2.6581">
        <ele>803.9</ele>
        <time>2022-06-21T10:27:07Z</time>
      </trkpt>
      <trkpt lat="43.42608" lon="2.6581">
        <ele>803.9</ele>
        <time>2022-06-21T10:27:08Z</time>
      </trkpt>
      <trkpt lat="43.42608" lon="2.6581">
        <ele>803.9</ele>
        <time>2022-06-21T10:27:09Z</time>
      </trkpt>
      <trkpt lat="43.42608" lon="2.6581">
        <ele>803.9</ele>
        <time>2022-06-21T10:27:10Z</time>
      </trkpt>
      <trkpt lat="43.42608" lon="2.6581">
        <ele>803.9</ele>
        <time>2022-06-21T10:27:11Z</time>
      </trkpt>
      <trkpt lat="43.42608" lon="2.6581">
        <ele>803.9</ele>
        <time>2022-06-21T10:27:12Z</time>
      </trkpt>
      <trkpt lat="43.42608" lon="2.6581">
        <ele>803.9</ele>
        <time>2022-06-21T10:27:13Z</time>
      </trkpt>
      <trkpt lat="43.42608" lon="2.6581">
        <ele>803.9</ele>
        <time>2022-06-21T10:27:14Z</time>
      </trkpt>
      <trkpt lat="43.42608" lon="2.6581">
        <ele>803.9</ele>
        <time>2022-06-21T10:27:15Z</time>
      </trkpt>
      <trkpt lat="43.42608" lon="2.6581">
        <ele>803.9</ele>
        <time>2022-06-21T10:27:16Z</time>
      </trkpt>
      <trkpt lat="43.42608" lon="2.6581">
        <ele>803.9</ele>
        <time>2022-06-21T10:27:17Z</time>
      </trkpt>
      <trkpt lat="43.42608" lon="2.6581">
        <ele>803.9</ele>
        <time>2022-06-21T10:27:18Z</time>
      </trkpt>
      <trkpt lat="43.42608" lon="2.6581">
        <ele>803.9</ele>
        <time>2022-06-21T10:27:19Z</time>
      </trkpt>
      <trkpt lat="43.42608" lon="2.6581">
        <ele>803.9</ele>
        <time>2022-06-21T10:27:20Z</time>
      </trkpt>
      <trkpt lat="43.42608" lon="2.6581">
        <ele>803.9</ele>
        <time>2022-06-21T10:27:21Z</time>
      </trkpt>
      <trkpt lat="43.42608" lon="2.6581">
        <ele>803.9</ele>
        <time>2022-06-21T10:27:22Z</time>
      </trkpt>
      <trkpt lat="43.42608" lon="2.6581">
        <ele>803.9</ele>
        <time>2022-06-21T10:27:23Z</time>
      </trkpt>
      <trkpt lat="43.42608" lon="2.6581">
        <ele>803.9</ele>
        <time>2022-06-21T10:27:24Z</time>
      </trkpt>
      <trkpt lat="43.42608" lon="2.6581">
        <ele>803.9</ele>
        <time>2022-06-21T10:27:25Z</time>
      </trkpt>
      <trkpt lat="43.42608" lon="2.6581">
        <ele>803.9</ele>
        <time>2022-06-21T10:27:26Z</time>
      </trkpt>
      <trkpt lat="43.42608" lon="2.6581">
        <ele>803.9</ele>
        <time>2022-06-21T10:27:27Z</time>
      </trkpt>
      <trkpt lat="43.42608" lon="2.6581">
        <ele>803.9</ele>
        <time>2022-06-21T10:27:28Z</time>
      </trkpt>
      <trkpt lat="43.42608" lon="2.6581">
        <ele>803.9</ele>
        <time>2022-06-21T10:27:29Z</time>
      </trkpt>
      <trkpt lat="43.42608" lon="2.6581">
        <ele>803.9</ele>
        <time>2022-06-21T10:27:30Z</time>
      </trkpt>
      <trkpt lat="43.42608" lon="2.6581">
        <ele>803.9</ele>
        <time>2022-06-21T10:27:31Z</time>
      </trkpt>
      <trkpt lat="43.42608" lon="2.6581">
        <ele>803.9</ele>
        <time>2022-06-21T10:27:32Z</time>
      </trkpt>
      <trkpt lat="43.42608" lon="2.6581">
        <ele>803.9</ele>
        <time>2022-06-21T10:27:33Z</time>
      </trkpt>
      <trkpt lat="43.42608" lon="2.6581">
        <ele>803.9</ele>
        <time>2022-06-21T10:27:34Z</time>
      </trkpt>
      <trkpt lat="43.42608" lon="2.6581">
        <ele>803.9</ele>
        <time>2022-06-21T10:27:35Z</time>
      </trkpt>
      <trkpt lat="43.42608" lon="2.6581">
        <ele>803.9</ele>
        <time>2022-06-21T10:27:36Z</time>
      </trkpt>
      <trkpt lat="43.42608" lon="2.6581">
        <ele>803.9</ele>
        <time>2022-06-21T10:27:37Z</time>
      </trkpt>
      <trkpt lat="43.42608" lon="2.6581">
        <ele>803.9</ele>
        <time>2022-06-21T10:27:38Z</time>
      </trkpt>
      <trkpt lat="43.42608" lon="2.6581">
        <ele>803.9</ele>
        <time>2022-06-21T10:27:39Z</time>
      </trkpt>
      <trkpt lat="43.42608" lon="2.6581">
        <ele>803.9</ele>
        <time>2022-06-21T10:27:40Z</time>
      </trkpt>
      <trkpt lat="43.42608" lon="2.6581">
        <ele>803.9</ele>
        <time>2022-06-21T10:27:41Z</time>
      </trkpt>
      <trkpt lat="43.42608" lon="2.6581">
        <ele>803.9</ele>
        <time>2022-06-21T10:27:42Z</time>
      </trkpt>
      <trkpt lat="43.42608" lon="2.6581">
        <ele>803.9</ele>
        <time>2022-06-21T10:27:43Z</time>
      </trkpt>
      <trkpt lat="43.42608" lon="2.6581">
        <ele>803.9</ele>
        <time>2022-06-21T10:27:44Z</time>
      </trkpt>
      <trkpt lat="43.42608" lon="2.6581">
        <ele>803.9</ele>
        <time>2022-06-21T10:27:45Z</time>
      </trkpt>
      <trkpt lat="43.42608" lon="2.6581">
        <ele>803.9</ele>
        <time>2022-06-21T10:27:46Z</time>
      </trkpt>
      <trkpt lat="43.42608" lon="2.6581">
        <ele>803.9</ele>
        <time>2022-06-21T10:27:47Z</time>
      </trkpt>
      <trkpt lat="43.42608" lon="2.6581">
        <ele>803.9</ele>
        <time>2022-06-21T10:27:48Z</time>
      </trkpt>
      <trkpt lat="43.42608" lon="2.6581">
        <ele>803.9</ele>
        <time>2022-06-21T10:27:49Z</time>
      </trkpt>
      <trkpt lat="43.42608" lon="2.6581">
        <ele>803.9</ele>
        <time>2022-06-21T10:27:50Z</time>
      </trkpt>
      <trkpt lat="43.42608" lon="2.6581">
        <ele>803.9</ele>
        <time>2022-06-21T10:27:51Z</time>
      </trkpt>
      <trkpt lat="43.42608" lon="2.6581">
        <ele>803.9</ele>
        <time>2022-06-21T10:27:52Z</time>
      </trkpt>
      <trkpt lat="43.42608" lon="2.6581">
        <ele>803.9</ele>
        <time>2022-06-21T10:27:53Z</time>
      </trkpt>
      <trkpt lat="43.42608" lon="2.6581">
        <ele>803.9</ele>
        <time>2022-06-21T10:27:54Z</time>
      </trkpt>
      <trkpt lat="43.42608" lon="2.6581">
        <ele>803.9</ele>
        <time>2022-06-21T10:27:55Z</time>
      </trkpt>
      <trkpt lat="43.42608" lon="2.6581">
        <ele>803.9</ele>
        <time>2022-06-21T10:27:56Z</time>
      </trkpt>
      <trkpt lat="43.42608" lon="2.6581">
        <ele>803.9</ele>
        <time>2022-06-21T10:27:57Z</time>
      </trkpt>
      <trkpt lat="43.42608" lon="2.6581">
        <ele>803.9</ele>
        <time>2022-06-21T10:27:58Z</time>
      </trkpt>
      <trkpt lat="43.42608" lon="2.6581">
        <ele>803.9</ele>
        <time>2022-06-21T10:27:59Z</time>
      </trkpt>
      <trkpt lat="43.42608" lon="2.6581">
        <ele>803.9</ele>
        <time>2022-06-21T10:28:00Z</time>
      </trkpt>
      <trkpt lat="43.42608" lon="2.6581">
        <ele>803.9</ele>
        <time>2022-06-21T10:28:01Z</time>
      </trkpt>
      <trkpt lat="43.42608" lon="2.6581">
        <ele>803.9</ele>
        <time>2022-06-21T10:28:02Z</time>
      </trkpt>
      <trkpt lat="43.42608" lon="2.6581">
        <ele>803.9</ele>
        <time>2022-06-21T10:28:03Z</time>
      </trkpt>
      <trkpt lat="43.42608" lon="2.6581">
        <ele>803.9</ele>
        <time>2022-06-21T10:28:04Z</time>
      </trkpt>
      <trkpt lat="43.42608" lon="2.6581">
        <ele>803.9</ele>
        <time>2022-06-21T10:28:05Z</time>
      </trkpt>
      <trkpt lat="43.42608" lon="2.6581">
        <ele>803.9</ele>
        <time>2022-06-21T10:28:06Z</time>
      </trkpt>
      <trkpt lat="43.42608" lon="2.6581">
        <ele>803.9</ele>
        <time>2022-06-21T10:28:07Z</time>
      </trkpt>
      <trkpt lat="43.42608" lon="2.6581">
        <ele>803.9</ele>
        <time>2022-06-21T10:28:08Z</time>
      </trkpt>
      <trkpt lat="43.42608" lon="2.6581">
        <ele>803.9</ele>
        <time>2022-06-21T10:28:09Z</time>
      </trkpt>
      <trkpt lat="43.42608" lon="2.6581">
        <ele>803.9</ele>
        <time>2022-06-21T10:28:10Z</time>
      </trkpt>
      <trkpt lat="43.42608" lon="2.6581">
        <ele>803.9</ele>
        <time>2022-06-21T10:28:11Z</time>
      </trkpt>
      <trkpt lat="43.42608" lon="2.6581">
        <ele>803.9</ele>
        <time>2022-06-21T10:28:12Z</time>
      </trkpt>
      <trkpt lat="43.42608" lon="2.6581">
        <ele>803.9</ele>
        <time>2022-06-21T10:28:13Z</time>
      </trkpt>
      <trkpt lat="43.42608" lon="2.6581">
        <ele>803.9</ele>
        <time>2022-06-21T10:28:14Z</time>
      </trkpt>
      <trkpt lat="43.42608" lon="2.6581">
        <ele>803.9</ele>
        <time>2022-06-21T10:28:15Z</time>
      </trkpt>
      <trkpt lat="43.42608" lon="2.6581">
        <ele>803.9</ele>
        <time>2022-06-21T10:28:16Z</time>
      </trkpt>
      <trkpt lat="43.42608" lon="2.6581">
        <ele>803.9</ele>
        <time>2022-06-21T10:28:17Z</time>
      </trkpt>
      <trkpt lat="43.42608" lon="2.6581">
        <ele>803.9</ele>
        <time>2022-06-21T10:28:18Z</time>
      </trkpt>
      <trkpt lat="43.42608" lon="2.6581">
        <ele>803.9</ele>
        <time>2022-06-21T10:28:19Z</time>
      </trkpt>
      <trkpt lat="43.42608" lon="2.6581">
        <ele>803.9</ele>
        <time>2022-06-21T10:28:20Z</time>
      </trkpt>
      <trkpt lat="43.42608" lon="2.6581">
        <ele>803.9</ele>
        <time>2022-06-21T10:28:21Z</time>
      </trkpt>
      <trkpt lat="43.42608" lon="2.6581">
        <ele>803.9</ele>
        <time>2022-06-21T10:28:22Z</time>
      </trkpt>
      <trkpt lat="43.42608" lon="2.6581">
        <ele>803.9</ele>
        <time>2022-06-21T10:28:23Z</time>
      </trkpt>
      <trkpt lat="43.42608" lon="2.6581">
        <ele>803.9</ele>
        <time>2022-06-21T10:28:24Z</time>
      </trkpt>
      <trkpt lat="43.42608" lon="2.6581">
        <ele>803.9</ele>
        <time>2022-06-21T10:28:25Z</time>
      </trkpt>
      <trkpt lat="43.42608" lon="2.6581">
        <ele>803.9</ele>
        <time>2022-06-21T10:28:26Z</time>
      </trkpt>
      <trkpt lat="43.42608" lon="2.6581">
        <ele>803.9</ele>
        <time>2022-06-21T10:28:27Z</time>
      </trkpt>
      <trkpt lat="43.42608" lon="2.6581">
        <ele>803.9</ele>
        <time>2022-06-21T10:28:28Z</time>
      </trkpt>
      <trkpt lat="43.42608" lon="2.6581">
        <ele>803.9</ele>
        <time>2022-06-21T10:28:29Z</time>
      </trkpt>
      <trkpt lat="43.42608" lon="2.6581">
        <ele>803.9</ele>
        <time>2022-06-21T10:28:30Z</time>
      </trkpt>
      <trkpt lat="43.42608" lon="2.6581">
        <ele>803.9</ele>
        <time>2022-06-21T10:28:31Z</time>
      </trkpt>
      <trkpt lat="43.42608" lon="2.6581">
        <ele>803.9</ele>
        <time>2022-06-21T10:28:32Z</time>
      </trkpt>
      <trkpt lat="43.42608" lon="2.6581">
        <ele>803.9</ele>
        <time>2022-06-21T10:28:33Z</time>
      </trkpt>
      <trkpt lat="43.42608" lon="2.6581">
        <ele>803.9</ele>
        <time>2022-06-21T10:28:34Z</time>
      </trkpt>
      <trkpt lat="43.42608" lon="2.6581">
        <ele>803.9</ele>
        <time>2022-06-21T10:28:35Z</time>
      </trkpt>
      <trkpt lat="43.42608" lon="2.6581">
        <ele>803.9</ele>
        <time>2022-06-21T10:28:36Z</time>
      </trkpt>
      <trkpt lat="43.42608" lon="2.6581">
        <ele>803.9</ele>
        <time>2022-06-21T10:28:37Z</time>
      </trkpt>
      <trkpt lat="43.42608" lon="2.6581">
        <ele>803.9</ele>
        <time>2022-06-21T10:28:38Z</time>
      </trkpt>
      <trkpt lat="43.42608" lon="2.6581">
        <ele>803.9</ele>
        <time>2022-06-21T10:28:39Z</time>
      </trkpt>
      <trkpt lat="43.42608" lon="2.6581">
        <ele>803.9</ele>
        <time>2022-06-21T10:28:40Z</time>
      </trkpt>
      <trkpt lat="43.42608" lon="2.6581">
        <ele>803.9</ele>
        <time>2022-06-21T10:28:41Z</time>
      </trkpt>
      <trkpt lat="43.42608" lon="2.6581">
        <ele>803.9</ele>
        <time>2022-06-21T10:28:42Z</time>
      </trkpt>
      <trkpt lat="43.42608" lon="2.6581">
        <ele>803.9</ele>
        <time>2022-06-21T10:28:43Z</time>
      </trkpt>
      <trkpt lat="43.42608" lon="2.6581">
        <ele>803.9</ele>
        <time>2022-06-21T10:28:44Z</time>
      </trkpt>
      <trkpt lat="43.42608" lon="2.6581">
        <ele>803.9</ele>
        <time>2022-06-21T10:28:45Z</time>
      </trkpt>
      <trkpt lat="43.42608" lon="2.6581">
        <ele>803.9</ele>
        <time>2022-06-21T10:28:46Z</time>
      </trkpt>
      <trkpt lat="43.42608" lon="2.6581">
        <ele>803.9</ele>
        <time>2022-06-21T10:28:47Z</time>
      </trkpt>
      <trkpt lat="43.42608" lon="2.6581">
        <ele>803.9</ele>
        <time>2022-06-21T10:28:48Z</time>
      </trkpt>
      <trkpt lat="43.42608" lon="2.6581">
        <ele>803.9</ele>
        <time>2022-06-21T10:28:49Z</time>
      </trkpt>
      <trkpt lat="43.42608" lon="2.6581">
        <ele>803.9</ele>
        <time>2022-06-21T10:28:50Z</time>
      </trkpt>
      <trkpt lat="43.42608" lon="2.6581">
        <ele>803.9</ele>
        <time>2022-06-21T10:28:51Z</time>
      </trkpt>
      <trkpt lat="43.42608" lon="2.6581">
        <ele>803.9</ele>
        <time>2022-06-21T10:28:52Z</time>
      </trkpt>
      <trkpt lat="43.42608" lon="2.6581">
        <ele>803.9</ele>
        <time>2022-06-21T10:28:53Z</time>
      </trkpt>
      <trkpt lat="43.42608" lon="2.6581">
        <ele>803.9</ele>
        <time>2022-06-21T10:28:54Z</time>
      </trkpt>
      <trkpt lat="43.42608" lon="2.6581">
        <ele>803.9</ele>
        <time>2022-06-21T10:28:55Z</time>
      </trkpt>
      <trkpt lat="43.42608" lon="2.6581">
        <ele>803.9</ele>
        <time>2022-06-21T10:28:56Z</time>
      </trkpt>
      <trkpt lat="43.42608" lon="2.6581">
        <ele>803.9</ele>
        <time>2022-06-21T10:28:57Z</time>
      </trkpt>
      <trkpt lat="43.42608" lon="2.6581">
        <ele>803.9</ele>
        <time>2022-06-21T10:28:58Z</time>
      </trkpt>
      <trkpt lat="43.42608" lon="2.6581">
        <ele>803.9</ele>
        <time>2022-06-21T10:28:59Z</time>
      </trkpt>
      <trkpt lat="43.42608" lon="2.6581">
        <ele>803.9</ele>
        <time>2022-06-21T10:29:00Z</time>
      </trkpt>
      <trkpt lat="43.42608" lon="2.6581">
        <ele>803.9</ele>
        <time>2022-06-21T10:29:01Z</time>
      </trkpt>
      <trkpt lat="43.42608" lon="2.6581">
        <ele>803.9</ele>
        <time>2022-06-21T10:29:02Z</time>
      </trkpt>
      <trkpt lat="43.42608" lon="2.6581">
        <ele>803.9</ele>
        <time>2022-06-21T10:29:03Z</time>
      </trkpt>
      <trkpt lat="43.42608" lon="2.6581">
        <ele>803.9</ele>
        <time>2022-06-21T10:29:04Z</time>
      </trkpt>
      <trkpt lat="43.42608" lon="2.6581">
        <ele>803.9</ele>
        <time>2022-06-21T10:29:05Z</time>
      </trkpt>
      <trkpt lat="43.42608" lon="2.6581">
        <ele>803.9</ele>
        <time>2022-06-21T10:29:06Z</time>
      </trkpt>
      <trkpt lat="43.42608" lon="2.6581">
        <ele>803.9</ele>
        <time>2022-06-21T10:29:07Z</time>
      </trkpt>
      <trkpt lat="43.42608" lon="2.6581">
        <ele>803.9</ele>
        <time>2022-06-21T10:29:08Z</time>
      </trkpt>
      <trkpt lat="43.42608" lon="2.6581">
        <ele>803.9</ele>
        <time>2022-06-21T10:29:09Z</time>
      </trkpt>
      <trkpt lat="43.42608" lon="2.6581">
        <ele>803.9</ele>
        <time>2022-06-21T10:29:10Z</time>
      </trkpt>
      <trkpt lat="43.42608" lon="2.6581">
        <ele>803.9</ele>
        <time>2022-06-21T10:29:11Z</time>
      </trkpt>
      <trkpt lat="43.42608" lon="2.6581">
        <ele>803.9</ele>
        <time>2022-06-21T10:29:12Z</time>
      </trkpt>
      <trkpt lat="43.42608" lon="2.6581">
        <ele>803.9</ele>
        <time>2022-06-21T10:29:13Z</time>
      </trkpt>
      <trkpt lat="43.42608" lon="2.6581">
        <ele>803.9</ele>
        <time>2022-06-21T10:29:14Z</time>
      </trkpt>
      <trkpt lat="43.42608" lon="2.6581">
        <ele>803.9</ele>
        <time>2022-06-21T10:29:15Z</time>
      </trkpt>
      <trkpt lat="43.42608" lon="2.6581">
        <ele>803.9</ele>
        <time>2022-06-21T10:29:16Z</time>
      </trkpt>
      <trkpt lat="43.42608" lon="2.6581">
        <ele>803.9</ele>
        <time>2022-06-21T10:29:17Z</time>
      </trkpt>
      <trkpt lat="43.42608" lon="2.6581">
        <ele>803.9</ele>
        <time>2022-06-21T10:29:18Z</time>
      </trkpt>
      <trkpt lat="43.42608" lon="2.6581">
        <ele>803.9</ele>
        <time>2022-06-21T10:29:19Z</time>
      </trkpt>
      <trkpt lat="43.42608" lon="2.6581">
        <ele>803.9</ele>
        <time>2022-06-21T10:29:20Z</time>
      </trkpt>
      <trkpt lat="43.42608" lon="2.6581">
        <ele>803.9</ele>
        <time>2022-06-21T10:29:21Z</time>
      </trkpt>
      <trkpt lat="43.42608" lon="2.6581">
        <ele>803.9</ele>
        <time>2022-06-21T10:29:22Z</time>
      </trkpt>
      <trkpt lat="43.42608" lon="2.6581">
        <ele>803.9</ele>
        <time>2022-06-21T10:29:23Z</time>
      </trkpt>
      <trkpt lat="43.42608" lon="2.6581">
        <ele>803.9</ele>
        <time>2022-06-21T10:29:24Z</time>
      </trkpt>
      <trkpt lat="43.42608" lon="2.6581">
        <ele>803.9</ele>
        <time>2022-06-21T10:29:25Z</time>
      </trkpt>
      <trkpt lat="43.42608" lon="2.6581">
        <ele>803.9</ele>
        <time>2022-06-21T10:29:26Z</time>
      </trkpt>
      <trkpt lat="43.42608" lon="2.6581">
        <ele>803.9</ele>
        <time>2022-06-21T10:29:27Z</time>
      </trkpt>
      <trkpt lat="43.42608" lon="2.6581">
        <ele>803.9</ele>
        <time>2022-06-21T10:29:28Z</time>
      </trkpt>
      <trkpt lat="43.42608" lon="2.6581">
        <ele>803.9</ele>
        <time>2022-06-21T10:29:29Z</time>
      </trkpt>
      <trkpt lat="43.42608" lon="2.6581">
        <ele>803.9</ele>
        <time>2022-06-21T10:29:30Z</time>
      </trkpt>
      <trkpt lat="43.42608" lon="2.6581">
        <ele>803.9</ele>
        <time>2022-06-21T10:29:31Z</time>
      </trkpt>
      <trkpt lat="43.42608" lon="2.6581">
        <ele>803.9</ele>
        <time>2022-06-21T10:29:32Z</time>
      </trkpt>
      <trkpt lat="43.42608" lon="2.6581">
        <ele>803.9</ele>
        <time>2022-06-21T10:29:33Z</time>
      </trkpt>
      <trkpt lat="43.42608" lon="2.6581">
        <ele>803.9</ele>
        <time>2022-06-21T10:29:34Z</time>
      </trkpt>
      <trkpt lat="43.42608" lon="2.6581">
        <ele>803.9</ele>
        <time>2022-06-21T10:29:35Z</time>
      </trkpt>
      <trkpt lat="43.42608" lon="2.6581">
        <ele>803.9</ele>
        <time>2022-06-21T10:29:36Z</time>
      </trkpt>
      <trkpt lat="43.42608" lon="2.6581">
        <ele>803.9</ele>
        <time>2022-06-21T10:29:37Z</time>
      </trkpt>
      <trkpt lat="43.42608" lon="2.6581">
        <ele>803.9</ele>
        <time>2022-06-21T10:29:38Z</time>
      </trkpt>
      <trkpt lat="43.42608" lon="2.6581">
        <ele>803.9</ele>
        <time>2022-06-21T10:29:39Z</time>
      </trkpt>
      <trkpt lat="43.42608" lon="2.6581">
        <ele>803.9</ele>
        <time>2022-06-21T10:29:40Z</time>
      </trkpt>
      <trkpt lat="43.42608" lon="2.6581">
        <ele>803.9</ele>
        <time>2022-06-21T10:29:41Z</time>
      </trkpt>
      <trkpt lat="43.42608" lon="2.6581">
        <ele>803.9</ele>
        <time>2022-06-21T10:29:42Z</time>
      </trkpt>
      <trkpt lat="43.42608" lon="2.6581">
        <ele>803.9</ele>
        <time>2022-06-21T10:29:43Z</time>
      </trkpt>
      <trkpt lat="43.42608" lon="2.6581">
        <ele>803.9</ele>
        <time>2022-06-21T10:29:44Z</time>
      </trkpt>
      <trkpt lat="43.42608" lon="2.6581">
        <ele>803.9</ele>
        <time>2022-06-21T10:29:45Z</time>
      </trkpt>
      <trkpt lat="43.42608" lon="2.6581">
        <ele>803.9</ele>
        <time>2022-06-21T10:29:46Z</time>
      </trkpt>
      <trkpt lat="43.42608" lon="2.6581">
        <ele>803.9</ele>
        <time>2022-06-21T10:29:47Z</time>
      </trkpt>
      <trkpt lat="43.42608" lon="2.6581">
        <ele>803.9</ele>
        <time>2022-06-21T10:29:48Z</time>
      </trkpt>
      <trkpt lat="43.42608" lon="2.6581">
        <ele>803.9</ele>
        <time>2022-06-21T10:29:49Z</time>
      </trkpt>
      <trkpt lat="43.42608" lon="2.6581">
        <ele>803.9</ele>
        <time>2022-06-21T10:29:50Z</time>
      </trkpt>
      <trkpt lat="43.42608" lon="2.6581">
        <ele>803.9</ele>
        <time>2022-06-21T10:29:51Z</time>
      </trkpt>
      <trkpt lat="43.42608" lon="2.6581">
        <ele>803.9</ele>
        <time>2022-06-21T10:29:52Z</time>
      </trkpt>
      <trkpt lat="43.42608" lon="2.6581">
        <ele>803.9</ele>
        <time>2022-06-21T10:29:53Z</time>
      </trkpt>
      <trkpt lat="43.42608" lon="2.6581">
        <ele>803.9</ele>
        <time>2022-06-21T10:29:54Z</time>
      </trkpt>
      <trkpt lat="43.42608" lon="2.6581">
        <ele>803.9</ele>
        <time>2022-06-21T10:29:55Z</time>
      </trkpt>
      <trkpt lat="43.42608" lon="2.6581">
        <ele>803.9</ele>
        <time>2022-06-21T10:29:56Z</time>
      </trkpt>
      <trkpt lat="43.42608" lon="2.6581">
        <ele>803.9</ele>
        <time>2022-06-21T10:29:57Z</time>
      </trkpt>
      <trkpt lat="43.42608" lon="2.6581">
        <ele>803.9</ele>
        <time>2022-06-21T10:29:58Z</time>
      </trkpt>
      <trkpt lat="43.42608" lon="2.6581">
        <ele>803.9</ele>
        <time>2022-06-21T10:29:59Z</time>
      </trkpt>
      <trkpt lat="43.42608" lon="2.6581">
        <ele>803.9</ele>
        <time>2022-06-21T10:30:00Z</time>
      </trkpt>
      <trkpt lat="43.42608" lon="2.6581">
        <ele>803.9</ele>
        <time>2022-06-21T10:30:01Z</time>
      </trkpt>
      <trkpt lat="43.42608" lon="2.6581">
        <ele>803.9</ele>
        <time>2022-06-21T10:30:02Z</time>
      </trkpt>
      <trkpt lat="43.42608" lon="2.6581">
        <ele>803.9</ele>
        <time>2022-06-21T10:30:03Z</time>
      </trkpt>
      <trkpt lat="43.42608" lon="2.6581">
        <ele>803.9</ele>
        <time>2022-06-21T10:30:04Z</time>
      </trkpt>
      <trkpt lat="43.42608" lon="2.6581">
        <ele>803.9</ele>
        <time>2022-06-21T10:30:05Z</time>
      </trkpt>
      <trkpt lat="43.42608" lon="2.6581">
        <ele>803.9</ele>
        <time>2022-06-21T10:30:06Z</time>
      </trkpt>
      <trkpt lat="43.42608" lon="2.6581">
        <ele>803.9</ele>
        <time>2022-06-21T10:30:07Z</time>
      </trkpt>
      <trkpt lat="43.42608" lon="2.6581">
        <ele>803.9</ele>
        <time>2022-06-21T10:30:08Z</time>
      </trkpt>
      <trkpt lat="43.42608" lon="2.6581">
        <ele>803.9</ele>
        <time>2022-06-21T10:30:09Z</time>
      </trkpt>
      <trkpt lat="43.42608" lon="2.6581">
        <ele>803.9</ele>
        <time>2022-06-21T10:30:10Z</time>
      </trkpt>
      <trkpt lat="43.42608" lon="2.6581">
        <ele>803.9</ele>
        <time>2022-06-21T10:30:11Z</time>
      </trkpt>
      <trkpt lat="43.42608" lon="2.6581">
        <ele>803.9</ele>
        <time>2022-06-21T10:30:12Z</time>
      </trkpt>
      <trkpt lat="43.42608" lon="2.6581">
        <ele>803.9</ele>
        <time>2022-06-21T10:30:13Z</time>
      </trkpt>
      <trkpt lat="43.42608" lon="2.6581">
        <ele>803.9</ele>
        <time>2022-06-21T10:30:14Z</time>
      </trkpt>
      <trkpt lat="43.42608" lon="2.6581">
        <ele>803.9</ele>
        <time>2022-06-21T10:30:15Z</time>
      </trkpt>
      <trkpt lat="43.42608" lon="2.6581">
        <ele>803.9</ele>
        <time>2022-06-21T10:30:16Z</time>
      </trkpt>
      <trkpt lat="43.42608" lon="2.6581">
        <ele>803.9</ele>
        <time>2022-06-21T10:30:17Z</time>
      </trkpt>
      <trkpt lat="43.42608" lon="2.6581">
        <ele>803.9</ele>
        <time>2022-06-21T10:30:18Z</time>
      </trkpt>
      <trkpt lat="43.42608" lon="2.6581">
        <ele>803.9</ele>
        <time>2022-06-21T10:30:19Z</time>
      </trkpt>
      <trkpt lat="43.42608" lon="2.6581">
        <ele>803.9</ele>
        <time>2022-06-21T10:30:20Z</time>
      </trkpt>
      <trkpt lat="43.42608" lon="2.6581">
        <ele>803.9</ele>
        <time>2022-06-21T10:30:21Z</time>
      </trkpt>
      <trkpt lat="43.42608" lon="2.6581">
        <ele>803.9</ele>
        <time>2022-06-21T10:30:22Z</time>
      </trkpt>
      <trkpt lat="43.42608" lon="2.6581">
        <ele>803.9</ele>
        <time>2022-06-21T10:30:23Z</time>
      </trkpt>
      <trkpt lat="43.42608" lon="2.6581">
        <ele>803.9</ele>
        <time>2022-06-21T10:30:24Z</time>
      </trkpt>
      <trkpt lat="43.42608" lon="2.6581">
        <ele>803.9</ele>
        <time>2022-06-21T10:30:25Z</time>
      </trkpt>
      <trkpt lat="43.42608" lon="2.6581">
        <ele>803.9</ele>
        <time>2022-06-21T10:30:26Z</time>
      </trkpt>
      <trkpt lat="43.42608" lon="2.6581">
        <ele>803.9</ele>
        <time>2022-06-21T10:30:27Z</time>
      </trkpt>
      <trkpt lat="43.42608" lon="2.6581">
        <ele>803.9</ele>
        <time>2022-06-21T10:30:28Z</time>
      </trkpt>
      <trkpt lat="43.42608" lon="2.6581">
        <ele>803.9</ele>
        <time>2022-06-21T10:30:29Z</time>
      </trkpt>
      <trkpt lat="43.42608" lon="2.6581">
        <ele>803.9</ele>
        <time>2022-06-21T10:30:30Z</time>
      </trkpt>
      <trkpt lat="43.42608" lon="2.6581">
        <ele>803.9</ele>
        <time>2022-06-21T10:30:31Z</time>
      </trkpt>
      <trkpt lat="43.42608" lon="2.6581">
        <ele>803.9</ele>
        <time>2022-06-21T10:30:32Z</time>
      </trkpt>
      <trkpt lat="43.42608" lon="2.6581">
        <ele>803.9</ele>
        <time>2022-06-21T10:30:33Z</time>
      </trkpt>
      <trkpt lat="43.42608" lon="2.6581">
        <ele>803.9</ele>
        <time>2022-06-21T10:30:34Z</time>
      </trkpt>
      <trkpt lat="43.42608" lon="2.6581">
        <ele>803.9</ele>
        <time>2022-06-21T10:30:35Z</time>
      </trkpt>
      <trkpt lat="43.42608" lon="2.6581">
        <ele>803.9</ele>
        <time>2022-06-21T10:30:36Z</time>
      </trkpt>
      <trkpt lat="43.42608" lon="2.6581">
        <ele>803.9</ele>
        <time>2022-06-21T10:30:37Z</time>
      </trkpt>
      <trkpt lat="43.42608" lon="2.6581">
        <ele>803.9</ele>
        <time>2022-06-21T10:30:38Z</time>
      </trkpt>
      <trkpt lat="43.42608" lon="2.6581">
        <ele>803.9</ele>
        <time>2022-06-21T10:30:39Z</time>
      </trkpt>
      <trkpt lat="43.42608" lon="2.6581">
        <ele>803.9</ele>
        <time>2022-06-21T10:30:40Z</time>
      </trkpt>
      <trkpt lat="43.42608" lon="2.6581">
        <ele>803.9</ele>
        <time>2022-06-21T10:30:41Z</time>
      </trkpt>
      <trkpt lat="43.42608" lon="2.6581">
        <ele>803.9</ele>
        <time>2022-06-21T10:30:42Z</time>
      </trkpt>
      <trkpt lat="43.42608" lon="2.6581">
        <ele>803.9</ele>
        <time>2022-06-21T10:30:43Z</time>
      </trkpt>
      <trkpt lat="43.42608" lon="2.6581">
        <ele>803.9</ele>
        <time>2022-06-21T10:30:44Z</time>
      </trkpt>
      <trkpt lat="43.42608" lon="2.6581">
        <ele>803.9</ele>
        <time>2022-06-21T10:30:45Z</time>
      </trkpt>
      <trkpt lat="43.42608" lon="2.6581">
        <ele>803.9</ele>
        <time>2022-06-21T10:30:46Z</time>
      </trkpt>
      <trkpt lat="43.42608" lon="2.6581">
        <ele>803.9</ele>
        <time>2022-06-21T10:30:47Z</time>
      </trkpt>
      <trkpt lat="43.42608" lon="2.6581">
        <ele>803.9</ele>
        <time>2022-06-21T10:30:48Z</time>
      </trkpt>
      <trkpt lat="43.42608" lon="2.6581">
        <ele>803.9</ele>
        <time>2022-06-21T10:30:49Z</time>
      </trkpt>
      <trkpt lat="43.42608" lon="2.6581">
        <ele>803.9</ele>
        <time>2022-06-21T10:30:50Z</time>
      </trkpt>
      <trkpt lat="43.42608" lon="2.6581">
        <ele>803.9</ele>
        <time>2022-06-21T10:30:51Z</time>
      </trkpt>
      <trkpt lat="43.42608" lon="2.6581">
        <ele>803.9</ele>
        <time>2022-06-21T10:30:52Z</time>
      </trkpt>
      <trkpt lat="43.42608" lon="2.6581">
        <ele>803.9</ele>
        <time>2022-06-21T10:30:53Z</time>
      </trkpt>
      <trkpt lat="43.42608" lon="2.6581">
        <ele>803.9</ele>
        <time>2022-06-21T10:30:54Z</time>
      </trkpt>
      <trkpt lat="43.42608" lon="2.6581">
        <ele>803.9</ele>
        <time>2022-06-21T10:30:55Z</time>
      </trkpt>
      <trkpt lat="43.42608" lon="2.6581">
        <ele>803.9</ele>
        <time>2022-06-21T10:30:56Z</time>
      </trkpt>
      <trkpt lat="43.42608" lon="2.6581">
        <ele>803.9</ele>
        <time>2022-06-21T10:30:57Z</time>
      </trkpt>
      <trkpt lat="43.42608" lon="2.6581">
        <ele>803.9</ele>
        <time>2022-06-21T10:30:58Z</time>
      </trkpt>
      <trkpt lat="43.42608" lon="2.6581">
        <ele>803.9</ele>
        <time>2022-06-21T10:30:59Z</time>
      </trkpt>
      <trkpt lat="43.42608" lon="2.6581">
        <ele>803.9</ele>
        <time>2022-06-21T10:31:00Z</time>
      </trkpt>
      <trkpt lat="43.42608" lon="2.6581">
        <ele>803.9</ele>
        <time>2022-06-21T10:31:01Z</time>
      </trkpt>
      <trkpt lat="43.42608" lon="2.6581">
        <ele>803.9</ele>
        <time>2022-06-21T10:31:02Z</time>
      </trkpt>
      <trkpt lat="43.42608" lon="2.6581">
        <ele>803.9</ele>
        <time>2022-06-21T10:31:03Z</time>
      </trkpt>
      <trkpt lat="43.42608" lon="2.6581">
        <ele>803.9</ele>
        <time>2022-06-21T10:31:04Z</time>
      </trkpt>
      <trkpt lat="43.42608" lon="2.6581">
        <ele>803.9</ele>
        <time>2022-06-21T10:31:05Z</time>
      </trkpt>
      <trkpt lat="43.42608" lon="2.6581">
        <ele>803.9</ele>
        <time>2022-06-21T10:31:06Z</time>
      </trkpt>
      <trkpt lat="43.42608" lon="2.6581">
        <ele>803.9</ele>
        <time>2022-06-21T10:31:07Z</time>
      </trkpt>
      <trkpt lat="43.42608" lon="2.6581">
        <ele>803.9</ele>
        <time>2022-06-21T10:31:08Z</time>
      </trkpt>
      <trkpt lat="43.42608" lon="2.6581">
        <ele>803.9</ele>
        <time>2022-06-21T10:31:09Z</time>
      </trkpt>
      <trkpt lat="43.42608" lon="2.6581">
        <ele>803.9</ele>
        <time>2022-06-21T10:31:10Z</time>
      </trkpt>
      <trkpt lat="43.42608" lon="2.6581">
        <ele>803.9</ele>
        <time>2022-06-21T10:31:11Z</time>
      </trkpt>
      <trkpt lat="43.42608" lon="2.6581">
        <ele>803.9</ele>
        <time>2022-06-21T10:31:12Z</time>
      </trkpt>
      <trkpt lat="43.42608" lon="2.6581">
        <ele>803.9</ele>
        <time>2022-06-21T10:31:13Z</time>
      </trkpt>
      <trkpt lat="43.42608" lon="2.6581">
        <ele>803.9</ele>
        <time>2022-06-21T10:31:14Z</time>
      </trkpt>
      <trkpt lat="43.42608" lon="2.6581">
        <ele>803.9</ele>
        <time>2022-06-21T10:31:15Z</time>
      </trkpt>
      <trkpt lat="43.42608" lon="2.6581">
        <ele>803.9</ele>
        <time>2022-06-21T10:31:16Z</time>
      </trkpt>
      <trkpt lat="43.42608" lon="2.6581">
        <ele>803.9</ele>
        <time>2022-06-21T10:31:17Z</time>
      </trkpt>
      <trkpt lat="43.42608" lon="2.6581">
        <ele>803.9</ele>
        <time>2022-06-21T10:31:18Z</time>
      </trkpt>
      <trkpt lat="43.42608" lon="2.6581">
        <ele>803.9</ele>
        <time>2022-06-21T10:31:19Z</time>
      </trkpt>
      <trkpt lat="43.42608" lon="2.6581">
        <ele>803.9</ele>
        <time>2022-06-21T10:31:20Z</time>
      </trkpt>
      <trkpt lat="43.42608" lon="2.6581">
        <ele>803.9</ele>
        <time>2022-06-21T10:31:21Z</time>
      </trkpt>
      <trkpt lat="43.42608" lon="2.6581">
        <ele>803.9</ele>
        <time>2022-06-21T10:31:22Z</time>
      </trkpt>
      <trkpt lat="43.42608" lon="2.6581">
        <ele>803.9</ele>
        <time>2022-06-21T10:31:23Z</time>
      </trkpt>
      <trkpt lat="43.42608" lon="2.6581">
        <ele>803.9</ele>
        <time>2022-06-21T10:31:24Z</time>
      </trkpt>
      <trkpt lat="43.42608" lon="2.6581">
        <ele>803.9</ele>
        <time>2022-06-21T10:31:25Z</time>
      </trkpt>
      <trkpt lat="43.42608" lon="2.6581">
        <ele>803.9</ele>
        <time>2022-06-21T10:31:26Z</time>
      </trkpt>
      <trkpt lat="43.42608" lon="2.6581">
        <ele>803.9</ele>
        <time>2022-06-21T10:31:27Z</time>
      </trkpt>
      <trkpt lat="43.42608" lon="2.6581">
        <ele>803.9</ele>
        <time>2022-06-21T10:31:28Z</time>
      </trkpt>
      <trkpt lat="43.42608" lon="2.6581">
        <ele>803.9</ele>
        <time>2022-06-21T10:31:29Z</time>
      </trkpt>
      <trkpt lat="43.42608" lon="2.6581">
        <ele>803.9</ele>
        <time>2022-06-21T10:31:30Z</time>
      </trkpt>
      <trkpt lat="43.42608" lon="2.6581">
        <ele>803.9</ele>
        <time>2022-06-21T10:31:31Z</time>
      </trkpt>
      <trkpt lat="43.42608" lon="2.6581">
        <ele>803.9</ele>
        <time>2022-06-21T10:31:32Z</time>
      </trkpt>
      <trkpt lat="43.42608" lon="2.6581">
        <ele>803.9</ele>
        <time>2022-06-21T10:31:33Z</time>
      </trkpt>
      <trkpt lat="43.42608" lon="2.6581">
        <ele>803.9</ele>
        <time>2022-06-21T10:31:34Z</time>
      </trkpt>
      <trkpt lat="43.42608" lon="2.6581">
        <ele>803.9</ele>
        <time>2022-06-21T10:31:35Z</time>
      </trkpt>
      <trkpt lat="43.42608" lon="2.6581">
        <ele>803.9</ele>
        <time>2022-06-21T10:31:37Z</time>
      </trkpt>
      <trkpt lat="43.42608" lon="2.6581">
        <ele>803.9</ele>
        <time>2022-06-21T10:31:38Z</time>
      </trkpt>
      <trkpt lat="43.42608" lon="2.6581">
        <ele>803.9</ele>
        <time>2022-06-21T10:31:39Z</time>
      </trkpt>
      <trkpt lat="43.42608" lon="2.6581">
        <ele>803.9</ele>
        <time>2022-06-21T10:31:40Z</time>
      </trkpt>
      <trkpt lat="43.42608" lon="2.6581">
        <ele>803.9</ele>
        <time>2022-06-21T10:31:41Z</time>
      </trkpt>
      <trkpt lat="43.42608" lon="2.6581">
        <ele>803.9</ele>
        <time>2022-06-21T10:31:42Z</time>
      </trkpt>
      <trkpt lat="43.42608" lon="2.6581">
        <ele>803.9</ele>
        <time>2022-06-21T10:31:43Z</time>
      </trkpt>
      <trkpt lat="43.42608" lon="2.6581">
        <ele>803.9</ele>
        <time>2022-06-21T10:31:44Z</time>
      </trkpt>
      <trkpt lat="43.42608" lon="2.6581">
        <ele>803.9</ele>
        <time>2022-06-21T10:31:45Z</time>
      </trkpt>
      <trkpt lat="43.42608" lon="2.6581">
        <ele>803.9</ele>
        <time>2022-06-21T10:31:46Z</time>
      </trkpt>
      <trkpt lat="43.42608" lon="2.6581">
        <ele>803.9</ele>
        <time>2022-06-21T10:31:47Z</time>
      </trkpt>
      <trkpt lat="43.42608" lon="2.6581">
        <ele>803.9</ele>
        <time>2022-06-21T10:31:48Z</time>
      </trkpt>
      <trkpt lat="43.42608" lon="2.6581">
        <ele>803.9</ele>
        <time>2022-06-21T10:31:50Z</time>
      </trkpt>
      <trkpt lat="43.42608" lon="2.6581">
        <ele>803.9</ele>
        <time>2022-06-21T10:31:51Z</time>
      </trkpt>
      <trkpt lat="43.42608" lon="2.6581">
        <ele>803.9</ele>
        <time>2022-06-21T10:31:52Z</time>
      </trkpt>
      <trkpt lat="43.42608" lon="2.6581">
        <ele>803.9</ele>
        <time>2022-06-21T10:31:53Z</time>
      </trkpt>
      <trkpt lat="43.42608" lon="2.6581">
        <ele>803.9</ele>
        <time>2022-06-21T10:31:54Z</time>
      </trkpt>
      <trkpt lat="43.42608" lon="2.6581">
        <ele>803.9</ele>
        <time>2022-06-21T10:31:55Z</time>
      </trkpt>
      <trkpt lat="43.42608" lon="2.6581">
        <ele>803.9</ele>
        <time>2022-06-21T10:31:56Z</time>
      </trkpt>
      <trkpt lat="43.42608" lon="2.6581">
        <ele>803.9</ele>
        <time>2022-06-21T10:31:57Z</time>
      </trkpt>
      <trkpt lat="43.42608" lon="2.6581">
        <ele>803.9</ele>
        <time>2022-06-21T10:31:58Z</time>
      </trkpt>
      <trkpt lat="43.42608" lon="2.6581">
        <ele>803.9</ele>
        <time>2022-06-21T10:31:59Z</time>
      </trkpt>
      <trkpt lat="43.42608" lon="2.6581">
        <ele>803.9</ele>
        <time>2022-06-21T10:32:00Z</time>
      </trkpt>
      <trkpt lat="43.42608" lon="2.6581">
        <ele>803.9</ele>
        <time>2022-06-21T10:32:01Z</time>
      </trkpt>
      <trkpt lat="43.42608" lon="2.6581">
        <ele>803.9</ele>
        <time>2022-06-21T10:32:02Z</time>
      </trkpt>
      <trkpt lat="43.42608" lon="2.6581">
        <ele>803.9</ele>
        <time>2022-06-21T10:32:03Z</time>
      </trkpt>
      <trkpt lat="43.42608" lon="2.6581">
        <ele>803.9</ele>
        <time>2022-06-21T10:32:04Z</time>
      </trkpt>
      <trkpt lat="43.42608" lon="2.6581">
        <ele>803.9</ele>
        <time>2022-06-21T10:32:05Z</time>
      </trkpt>
      <trkpt lat="43.42608" lon="2.6581">
        <ele>803.9</ele>
        <time>2022-06-21T10:32:06Z</time>
      </trkpt>
      <trkpt lat="43.42608" lon="2.6581">
        <ele>803.9</ele>
        <time>2022-06-21T10:32:07Z</time>
      </trkpt>
      <trkpt lat="43.42608" lon="2.6581">
        <ele>803.9</ele>
        <time>2022-06-21T10:32:08Z</time>
      </trkpt>
      <trkpt lat="43.42608" lon="2.6581">
        <ele>803.9</ele>
        <time>2022-06-21T10:32:09Z</time>
      </trkpt>
      <trkpt lat="43.42608" lon="2.6581">
        <ele>803.9</ele>
        <time>2022-06-21T10:32:10Z</time>
      </trkpt>
      <trkpt lat="43.42608" lon="2.6581">
        <ele>803.9</ele>
        <time>2022-06-21T10:32:11Z</time>
      </trkpt>
      <trkpt lat="43.42608" lon="2.6581">
        <ele>803.9</ele>
        <time>2022-06-21T10:32:12Z</time>
      </trkpt>
      <trkpt lat="43.42608" lon="2.6581">
        <ele>803.9</ele>
        <time>2022-06-21T10:32:13Z</time>
      </trkpt>
      <trkpt lat="43.42608" lon="2.6581">
        <ele>803.9</ele>
        <time>2022-06-21T10:32:14Z</time>
      </trkpt>
      <trkpt lat="43.42608" lon="2.6581">
        <ele>803.9</ele>
        <time>2022-06-21T10:32:15Z</time>
      </trkpt>
      <trkpt lat="43.42608" lon="2.6581">
        <ele>803.9</ele>
        <time>2022-06-21T10:32:16Z</time>
      </trkpt>
      <trkpt lat="43.42608" lon="2.6581">
        <ele>803.9</ele>
        <time>2022-06-21T10:32:17Z</time>
      </trkpt>
      <trkpt lat="43.42608" lon="2.6581">
        <ele>803.9</ele>
        <time>2022-06-21T10:32:18Z</time>
      </trkpt>
      <trkpt lat="43.42608" lon="2.6581">
        <ele>803.9</ele>
        <time>2022-06-21T10:32:19Z</time>
      </trkpt>
      <trkpt lat="43.42608" lon="2.6581">
        <ele>803.9</ele>
        <time>2022-06-21T10:32:20Z</time>
      </trkpt>
      <trkpt lat="43.42608" lon="2.6581">
        <ele>803.9</ele>
        <time>2022-06-21T10:32:21Z</time>
      </trkpt>
      <trkpt lat="43.42608" lon="2.6581">
        <ele>803.9</ele>
        <time>2022-06-21T10:32:22Z</time>
      </trkpt>
      <trkpt lat="43.42608" lon="2.6581">
        <ele>803.9</ele>
        <time>2022-06-21T10:32:23Z</time>
      </trkpt>
      <trkpt lat="43.42608" lon="2.6581">
        <ele>803.9</ele>
        <time>2022-06-21T10:32:24Z</time>
      </trkpt>
      <trkpt lat="43.42608" lon="2.6581">
        <ele>803.9</ele>
        <time>2022-06-21T10:32:25Z</time>
      </trkpt>
      <trkpt lat="43.42608" lon="2.6581">
        <ele>803.9</ele>
        <time>2022-06-21T10:32:26Z</time>
      </trkpt>
      <trkpt lat="43.42608" lon="2.6581">
        <ele>803.9</ele>
        <time>2022-06-21T10:32:27Z</time>
      </trkpt>
      <trkpt lat="43.42608" lon="2.6581">
        <ele>803.9</ele>
        <time>2022-06-21T10:32:28Z</time>
      </trkpt>
      <trkpt lat="43.42608" lon="2.6581">
        <ele>803.9</ele>
        <time>2022-06-21T10:32:29Z</time>
      </trkpt>
      <trkpt lat="43.42608" lon="2.6581">
        <ele>803.9</ele>
        <time>2022-06-21T10:32:30Z</time>
      </trkpt>
      <trkpt lat="43.42608" lon="2.6581">
        <ele>803.9</ele>
        <time>2022-06-21T10:32:31Z</time>
      </trkpt>
      <trkpt lat="43.42608" lon="2.6581">
        <ele>803.9</ele>
        <time>2022-06-21T10:32:32Z</time>
      </trkpt>
      <trkpt lat="43.42608" lon="2.6581">
        <ele>803.9</ele>
        <time>2022-06-21T10:32:33Z</time>
      </trkpt>
      <trkpt lat="43.42608" lon="2.6581">
        <ele>803.9</ele>
        <time>2022-06-21T10:32:34Z</time>
      </trkpt>
      <trkpt lat="43.42608" lon="2.6581">
        <ele>803.9</ele>
        <time>2022-06-21T10:32:35Z</time>
      </trkpt>
      <trkpt lat="43.42608" lon="2.6581">
        <ele>803.9</ele>
        <time>2022-06-21T10:32:36Z</time>
      </trkpt>
      <trkpt lat="43.42608" lon="2.6581">
        <ele>803.9</ele>
        <time>2022-06-21T10:32:37Z</time>
      </trkpt>
      <trkpt lat="43.42608" lon="2.6581">
        <ele>803.9</ele>
        <time>2022-06-21T10:32:38Z</time>
      </trkpt>
      <trkpt lat="43.42608" lon="2.6581">
        <ele>803.9</ele>
        <time>2022-06-21T10:32:39Z</time>
      </trkpt>
      <trkpt lat="43.42608" lon="2.6581">
        <ele>803.9</ele>
        <time>2022-06-21T10:32:40Z</time>
      </trkpt>
      <trkpt lat="43.42608" lon="2.6581">
        <ele>803.9</ele>
        <time>2022-06-21T10:32:41Z</time>
      </trkpt>
      <trkpt lat="43.42608" lon="2.6581">
        <ele>803.9</ele>
        <time>2022-06-21T10:32:42Z</time>
      </trkpt>
      <trkpt lat="43.42608" lon="2.6581">
        <ele>803.9</ele>
        <time>2022-06-21T10:32:43Z</time>
      </trkpt>
      <trkpt lat="43.42608" lon="2.6581">
        <ele>803.9</ele>
        <time>2022-06-21T10:32:44Z</time>
      </trkpt>
      <trkpt lat="43.42608" lon="2.6581">
        <ele>803.9</ele>
        <time>2022-06-21T10:32:45Z</time>
      </trkpt>
      <trkpt lat="43.42608" lon="2.6581">
        <ele>803.9</ele>
        <time>2022-06-21T10:32:46Z</time>
      </trkpt>
      <trkpt lat="43.42608" lon="2.6581">
        <ele>803.9</ele>
        <time>2022-06-21T10:32:47Z</time>
      </trkpt>
      <trkpt lat="43.42608" lon="2.6581">
        <ele>803.9</ele>
        <time>2022-06-21T10:32:48Z</time>
      </trkpt>
      <trkpt lat="43.42608" lon="2.6581">
        <ele>803.9</ele>
        <time>2022-06-21T10:32:49Z</time>
      </trkpt>
      <trkpt lat="43.42608" lon="2.6581">
        <ele>803.9</ele>
        <time>2022-06-21T10:32:50Z</time>
      </trkpt>
      <trkpt lat="43.42608" lon="2.6581">
        <ele>803.9</ele>
        <time>2022-06-21T10:32:51Z</time>
      </trkpt>
      <trkpt lat="43.42608" lon="2.6581">
        <ele>803.9</ele>
        <time>2022-06-21T10:32:52Z</time>
      </trkpt>
      <trkpt lat="43.42608" lon="2.6581">
        <ele>803.9</ele>
        <time>2022-06-21T10:32:53Z</time>
      </trkpt>
      <trkpt lat="43.42608" lon="2.6581">
        <ele>803.9</ele>
        <time>2022-06-21T10:32:54Z</time>
      </trkpt>
      <trkpt lat="43.42608" lon="2.6581">
        <ele>803.9</ele>
        <time>2022-06-21T10:32:55Z</time>
      </trkpt>
      <trkpt lat="43.42608" lon="2.6581">
        <ele>803.9</ele>
        <time>2022-06-21T10:32:56Z</time>
      </trkpt>
      <trkpt lat="43.42608" lon="2.6581">
        <ele>803.9</ele>
        <time>2022-06-21T10:32:57Z</time>
      </trkpt>
      <trkpt lat="43.42608" lon="2.6581">
        <ele>803.9</ele>
        <time>2022-06-21T10:32:58Z</time>
      </trkpt>
      <trkpt lat="43.42608" lon="2.6581">
        <ele>803.9</ele>
        <time>2022-06-21T10:32:59Z</time>
      </trkpt>
      <trkpt lat="43.42608" lon="2.6581">
        <ele>803.9</ele>
        <time>2022-06-21T10:33:00Z</time>
      </trkpt>
      <trkpt lat="43.42608" lon="2.6581">
        <ele>803.9</ele>
        <time>2022-06-21T10:33:01Z</time>
      </trkpt>
      <trkpt lat="43.42608" lon="2.6581">
        <ele>803.9</ele>
        <time>2022-06-21T10:33:02Z</time>
      </trkpt>
      <trkpt lat="43.42608" lon="2.6581">
        <ele>803.9</ele>
        <time>2022-06-21T10:33:03Z</time>
      </trkpt>
      <trkpt lat="43.42608" lon="2.6581">
        <ele>803.9</ele>
        <time>2022-06-21T10:33:04Z</time>
      </trkpt>
      <trkpt lat="43.42608" lon="2.6581">
        <ele>803.9</ele>
        <time>2022-06-21T10:33:05Z</time>
      </trkpt>
      <trkpt lat="43.42608" lon="2.6581">
        <ele>803.9</ele>
        <time>2022-06-21T10:33:06Z</time>
      </trkpt>
      <trkpt lat="43.42608" lon="2.6581">
        <ele>803.9</ele>
        <time>2022-06-21T10:33:07Z</time>
      </trkpt>
      <trkpt lat="43.42608" lon="2.6581">
        <ele>803.9</ele>
        <time>2022-06-21T10:33:08Z</time>
      </trkpt>
      <trkpt lat="43.42608" lon="2.6581">
        <ele>803.9</ele>
        <time>2022-06-21T10:33:09Z</time>
      </trkpt>
      <trkpt lat="43.42608" lon="2.6581">
        <ele>803.9</ele>
        <time>2022-06-21T10:33:10Z</time>
      </trkpt>
      <trkpt lat="43.42608" lon="2.6581">
        <ele>803.9</ele>
        <time>2022-06-21T10:33:11Z</time>
      </trkpt>
      <trkpt lat="43.42608" lon="2.6581">
        <ele>803.9</ele>
        <time>2022-06-21T10:33:12Z</time>
      </trkpt>
      <trkpt lat="43.42608" lon="2.6581">
        <ele>803.9</ele>
        <time>2022-06-21T10:33:13Z</time>
      </trkpt>
      <trkpt lat="43.42608" lon="2.6581">
        <ele>803.9</ele>
        <time>2022-06-21T10:33:14Z</time>
      </trkpt>
      <trkpt lat="43.42608" lon="2.6581">
        <ele>803.9</ele>
        <time>2022-06-21T10:33:15Z</time>
      </trkpt>
      <trkpt lat="43.42608" lon="2.6581">
        <ele>803.9</ele>
        <time>2022-06-21T10:33:16Z</time>
      </trkpt>
      <trkpt lat="43.42608" lon="2.6581">
        <ele>803.9</ele>
        <time>2022-06-21T10:33:17Z</time>
      </trkpt>
      <trkpt lat="43.42608" lon="2.6581">
        <ele>803.9</ele>
        <time>2022-06-21T10:33:18Z</time>
      </trkpt>
      <trkpt lat="43.42608" lon="2.6581">
        <ele>803.9</ele>
        <time>2022-06-21T10:33:19Z</time>
      </trkpt>
      <trkpt lat="43.42608" lon="2.6581">
        <ele>803.9</ele>
        <time>2022-06-21T10:33:20Z</time>
      </trkpt>
      <trkpt lat="43.42608" lon="2.6581">
        <ele>803.9</ele>
        <time>2022-06-21T10:33:21Z</time>
      </trkpt>
      <trkpt lat="43.42608" lon="2.6581">
        <ele>803.9</ele>
        <time>2022-06-21T10:33:22Z</time>
      </trkpt>
      <trkpt lat="43.42608" lon="2.6581">
        <ele>803.9</ele>
        <time>2022-06-21T10:33:23Z</time>
      </trkpt>
      <trkpt lat="43.42608" lon="2.6581">
        <ele>803.9</ele>
        <time>2022-06-21T10:33:24Z</time>
      </trkpt>
      <trkpt lat="43.42608" lon="2.6581">
        <ele>803.9</ele>
        <time>2022-06-21T10:33:25Z</time>
      </trkpt>
      <trkpt lat="43.42608" lon="2.6581">
        <ele>803.9</ele>
        <time>2022-06-21T10:33:26Z</time>
      </trkpt>
      <trkpt lat="43.42608" lon="2.6581">
        <ele>803.9</ele>
        <time>2022-06-21T10:33:27Z</time>
      </trkpt>
      <trkpt lat="43.42608" lon="2.6581">
        <ele>803.9</ele>
        <time>2022-06-21T10:33:28Z</time>
      </trkpt>
      <trkpt lat="43.42608" lon="2.6581">
        <ele>803.9</ele>
        <time>2022-06-21T10:33:29Z</time>
      </trkpt>
      <trkpt lat="43.42608" lon="2.6581">
        <ele>803.9</ele>
        <time>2022-06-21T10:33:30Z</time>
      </trkpt>
      <trkpt lat="43.42608" lon="2.6581">
        <ele>803.9</ele>
        <time>2022-06-21T10:33:31Z</time>
      </trkpt>
      <trkpt lat="43.42608" lon="2.6581">
        <ele>803.9</ele>
        <time>2022-06-21T10:33:32Z</time>
      </trkpt>
      <trkpt lat="43.42608" lon="2.6581">
        <ele>803.9</ele>
        <time>2022-06-21T10:33:33Z</time>
      </trkpt>
      <trkpt lat="43.42608" lon="2.6581">
        <ele>803.9</ele>
        <time>2022-06-21T10:33:34Z</time>
      </trkpt>
      <trkpt lat="43.42608" lon="2.6581">
        <ele>803.9</ele>
        <time>2022-06-21T10:33:35Z</time>
      </trkpt>
      <trkpt lat="43.42608" lon="2.6581">
        <ele>803.9</ele>
        <time>2022-06-21T10:33:36Z</time>
      </trkpt>
      <trkpt lat="43.42608" lon="2.6581">
        <ele>803.9</ele>
        <time>2022-06-21T10:33:37Z</time>
      </trkpt>
      <trkpt lat="43.42608" lon="2.6581">
        <ele>803.9</ele>
        <time>2022-06-21T10:33:38Z</time>
      </trkpt>
      <trkpt lat="43.42608" lon="2.6581">
        <ele>803.9</ele>
        <time>2022-06-21T10:33:39Z</time>
      </trkpt>
      <trkpt lat="43.42608" lon="2.6581">
        <ele>803.9</ele>
        <time>2022-06-21T10:33:40Z</time>
      </trkpt>
      <trkpt lat="43.42608" lon="2.6581">
        <ele>803.9</ele>
        <time>2022-06-21T10:33:41Z</time>
      </trkpt>
      <trkpt lat="43.42608" lon="2.6581">
        <ele>803.9</ele>
        <time>2022-06-21T10:33:42Z</time>
      </trkpt>
      <trkpt lat="43.42608" lon="2.6581">
        <ele>803.9</ele>
        <time>2022-06-21T10:33:43Z</time>
      </trkpt>
      <trkpt lat="43.42608" lon="2.6581">
        <ele>803.9</ele>
        <time>2022-06-21T10:33:44Z</time>
      </trkpt>
      <trkpt lat="43.42608" lon="2.6581">
        <ele>803.9</ele>
        <time>2022-06-21T10:33:45Z</time>
      </trkpt>
      <trkpt lat="43.42608" lon="2.6581">
        <ele>803.9</ele>
        <time>2022-06-21T10:33:46Z</time>
      </trkpt>
      <trkpt lat="43.42608" lon="2.6581">
        <ele>803.9</ele>
        <time>2022-06-21T10:33:47Z</time>
      </trkpt>
      <trkpt lat="43.42608" lon="2.6581">
        <ele>803.9</ele>
        <time>2022-06-21T10:33:48Z</time>
      </trkpt>
      <trkpt lat="43.42608" lon="2.6581">
        <ele>803.9</ele>
        <time>2022-06-21T10:33:49Z</time>
      </trkpt>
      <trkpt lat="43.42608" lon="2.6581">
        <ele>803.9</ele>
        <time>2022-06-21T10:33:50Z</time>
      </trkpt>
      <trkpt lat="43.42608" lon="2.6581">
        <ele>803.9</ele>
        <time>2022-06-21T10:33:51Z</time>
      </trkpt>
      <trkpt lat="43.42608" lon="2.6581">
        <ele>803.9</ele>
        <time>2022-06-21T10:33:52Z</time>
      </trkpt>
      <trkpt lat="43.42608" lon="2.6581">
        <ele>803.9</ele>
        <time>2022-06-21T10:33:53Z</time>
      </trkpt>
      <trkpt lat="43.42608" lon="2.6581">
        <ele>803.9</ele>
        <time>2022-06-21T10:33:54Z</time>
      </trkpt>
      <trkpt lat="43.42608" lon="2.6581">
        <ele>803.9</ele>
        <time>2022-06-21T10:33:55Z</time>
      </trkpt>
      <trkpt lat="43.42608" lon="2.6581">
        <ele>803.9</ele>
        <time>2022-06-21T10:33:56Z</time>
      </trkpt>
      <trkpt lat="43.42608" lon="2.6581">
        <ele>803.9</ele>
        <time>2022-06-21T10:33:57Z</time>
      </trkpt>
      <trkpt lat="43.42608" lon="2.6581">
        <ele>803.9</ele>
        <time>2022-06-21T10:33:58Z</time>
      </trkpt>
      <trkpt lat="43.42608" lon="2.6581">
        <ele>803.9</ele>
        <time>2022-06-21T10:33:59Z</time>
      </trkpt>
      <trkpt lat="43.42608" lon="2.6581">
        <ele>803.9</ele>
        <time>2022-06-21T10:34:00Z</time>
      </trkpt>
      <trkpt lat="43.42608" lon="2.6581">
        <ele>803.9</ele>
        <time>2022-06-21T10:34:01Z</time>
      </trkpt>
      <trkpt lat="43.42608" lon="2.6581">
        <ele>803.9</ele>
        <time>2022-06-21T10:34:02Z</time>
      </trkpt>
      <trkpt lat="43.42608" lon="2.6581">
        <ele>803.9</ele>
        <time>2022-06-21T10:34:03Z</time>
      </trkpt>
      <trkpt lat="43.42608" lon="2.6581">
        <ele>803.9</ele>
        <time>2022-06-21T10:34:04Z</time>
      </trkpt>
      <trkpt lat="43.42608" lon="2.6581">
        <ele>803.9</ele>
        <time>2022-06-21T10:34:05Z</time>
      </trkpt>
      <trkpt lat="43.42608" lon="2.6581">
        <ele>803.9</ele>
        <time>2022-06-21T10:34:06Z</time>
      </trkpt>
      <trkpt lat="43.42608" lon="2.6581">
        <ele>803.9</ele>
        <time>2022-06-21T10:34:07Z</time>
      </trkpt>
      <trkpt lat="43.42608" lon="2.6581">
        <ele>803.9</ele>
        <time>2022-06-21T10:34:08Z</time>
      </trkpt>
      <trkpt lat="43.42608" lon="2.6581">
        <ele>803.9</ele>
        <time>2022-06-21T10:34:09Z</time>
      </trkpt>
      <trkpt lat="43.42608" lon="2.6581">
        <ele>803.9</ele>
        <time>2022-06-21T10:34:10Z</time>
      </trkpt>
      <trkpt lat="43.42608" lon="2.6581">
        <ele>803.9</ele>
        <time>2022-06-21T10:34:11Z</time>
      </trkpt>
      <trkpt lat="43.42608" lon="2.6581">
        <ele>803.9</ele>
        <time>2022-06-21T10:34:12Z</time>
      </trkpt>
      <trkpt lat="43.42608" lon="2.6581">
        <ele>803.9</ele>
        <time>2022-06-21T10:34:13Z</time>
      </trkpt>
      <trkpt lat="43.42608" lon="2.6581">
        <ele>803.9</ele>
        <time>2022-06-21T10:34:14Z</time>
      </trkpt>
      <trkpt lat="43.42608" lon="2.6581">
        <ele>803.9</ele>
        <time>2022-06-21T10:34:15Z</time>
      </trkpt>
      <trkpt lat="43.42608" lon="2.6581">
        <ele>803.9</ele>
        <time>2022-06-21T10:34:16Z</time>
      </trkpt>
      <trkpt lat="43.42608" lon="2.6581">
        <ele>803.9</ele>
        <time>2022-06-21T10:34:17Z</time>
      </trkpt>
      <trkpt lat="43.42608" lon="2.6581">
        <ele>803.9</ele>
        <time>2022-06-21T10:34:18Z</time>
      </trkpt>
      <trkpt lat="43.42608" lon="2.6581">
        <ele>803.9</ele>
        <time>2022-06-21T10:34:19Z</time>
      </trkpt>
      <trkpt lat="43.42608" lon="2.6581">
        <ele>803.9</ele>
        <time>2022-06-21T10:34:20Z</time>
      </trkpt>
      <trkpt lat="43.42608" lon="2.6581">
        <ele>803.9</ele>
        <time>2022-06-21T10:34:21Z</time>
      </trkpt>
      <trkpt lat="43.42608" lon="2.6581">
        <ele>803.9</ele>
        <time>2022-06-21T10:34:22Z</time>
      </trkpt>
      <trkpt lat="43.42608" lon="2.6581">
        <ele>803.9</ele>
        <time>2022-06-21T10:34:23Z</time>
      </trkpt>
      <trkpt lat="43.42608" lon="2.6581">
        <ele>803.9</ele>
        <time>2022-06-21T10:34:24Z</time>
      </trkpt>
      <trkpt lat="43.42608" lon="2.6581">
        <ele>803.9</ele>
        <time>2022-06-21T10:34:25Z</time>
      </trkpt>
      <trkpt lat="43.42608" lon="2.6581">
        <ele>803.9</ele>
        <time>2022-06-21T10:34:26Z</time>
      </trkpt>
      <trkpt lat="43.42608" lon="2.6581">
        <ele>803.9</ele>
        <time>2022-06-21T10:34:27Z</time>
      </trkpt>
      <trkpt lat="43.42608" lon="2.6581">
        <ele>803.9</ele>
        <time>2022-06-21T10:34:28Z</time>
      </trkpt>
      <trkpt lat="43.42608" lon="2.6581">
        <ele>803.9</ele>
        <time>2022-06-21T10:34:29Z</time>
      </trkpt>
      <trkpt lat="43.42608" lon="2.6581">
        <ele>803.9</ele>
        <time>2022-06-21T10:34:30Z</time>
      </trkpt>
      <trkpt lat="43.42608" lon="2.6581">
        <ele>803.9</ele>
        <time>2022-06-21T10:34:31Z</time>
      </trkpt>
      <trkpt lat="43.42608" lon="2.6581">
        <ele>803.9</ele>
        <time>2022-06-21T10:34:32Z</time>
      </trkpt>
      <trkpt lat="43.42608" lon="2.6581">
        <ele>803.9</ele>
        <time>2022-06-21T10:34:33Z</time>
      </trkpt>
      <trkpt lat="43.42608" lon="2.6581">
        <ele>803.9</ele>
        <time>2022-06-21T10:34:34Z</time>
      </trkpt>
      <trkpt lat="43.42608" lon="2.6581">
        <ele>803.9</ele>
        <time>2022-06-21T10:34:35Z</time>
      </trkpt>
      <trkpt lat="43.42608" lon="2.6581">
        <ele>803.9</ele>
        <time>2022-06-21T10:34:36Z</time>
      </trkpt>
      <trkpt lat="43.42608" lon="2.6581">
        <ele>803.9</ele>
        <time>2022-06-21T10:34:37Z</time>
      </trkpt>
      <trkpt lat="43.42608" lon="2.6581">
        <ele>803.9</ele>
        <time>2022-06-21T10:34:38Z</time>
      </trkpt>
      <trkpt lat="43.42608" lon="2.6581">
        <ele>803.9</ele>
        <time>2022-06-21T10:34:39Z</time>
      </trkpt>
      <trkpt lat="43.42608" lon="2.6581">
        <ele>803.9</ele>
        <time>2022-06-21T10:34:40Z</time>
      </trkpt>
      <trkpt lat="43.42608" lon="2.6581">
        <ele>803.9</ele>
        <time>2022-06-21T10:34:41Z</time>
      </trkpt>
      <trkpt lat="43.42608" lon="2.6581">
        <ele>803.9</ele>
        <time>2022-06-21T10:34:42Z</time>
      </trkpt>
      <trkpt lat="43.42608" lon="2.6581">
        <ele>803.9</ele>
        <time>2022-06-21T10:34:43Z</time>
      </trkpt>
      <trkpt lat="43.42608" lon="2.6581">
        <ele>803.9</ele>
        <time>2022-06-21T10:34:44Z</time>
      </trkpt>
      <trkpt lat="43.42608" lon="2.6581">
        <ele>803.9</ele>
        <time>2022-06-21T10:34:45Z</time>
      </trkpt>
      <trkpt lat="43.42608" lon="2.6581">
        <ele>803.9</ele>
        <time>2022-06-21T10:34:46Z</time>
      </trkpt>
      <trkpt lat="43.42608" lon="2.6581">
        <ele>803.9</ele>
        <time>2022-06-21T10:34:47Z</time>
      </trkpt>
      <trkpt lat="43.42608" lon="2.6581">
        <ele>803.9</ele>
        <time>2022-06-21T10:34:48Z</time>
      </trkpt>
      <trkpt lat="43.42608" lon="2.6581">
        <ele>803.9</ele>
        <time>2022-06-21T10:34:49Z</time>
      </trkpt>
      <trkpt lat="43.42608" lon="2.6581">
        <ele>803.9</ele>
        <time>2022-06-21T10:34:50Z</time>
      </trkpt>
      <trkpt lat="43.42608" lon="2.6581">
        <ele>803.9</ele>
        <time>2022-06-21T10:34:51Z</time>
      </trkpt>
      <trkpt lat="43.42608" lon="2.6581">
        <ele>803.9</ele>
        <time>2022-06-21T10:34:52Z</time>
      </trkpt>
      <trkpt lat="43.42608" lon="2.6581">
        <ele>803.9</ele>
        <time>2022-06-21T10:34:53Z</time>
      </trkpt>
      <trkpt lat="43.42608" lon="2.6581">
        <ele>803.9</ele>
        <time>2022-06-21T10:34:54Z</time>
      </trkpt>
      <trkpt lat="43.42608" lon="2.6581">
        <ele>803.9</ele>
        <time>2022-06-21T10:34:55Z</time>
      </trkpt>
      <trkpt lat="43.42608" lon="2.6581">
        <ele>803.9</ele>
        <time>2022-06-21T10:34:56Z</time>
      </trkpt>
      <trkpt lat="43.42608" lon="2.6581">
        <ele>803.9</ele>
        <time>2022-06-21T10:34:57Z</time>
      </trkpt>
      <trkpt lat="43.42608" lon="2.6581">
        <ele>803.9</ele>
        <time>2022-06-21T10:34:58Z</time>
      </trkpt>
      <trkpt lat="43.42608" lon="2.6581">
        <ele>803.9</ele>
        <time>2022-06-21T10:34:59Z</time>
      </trkpt>
      <trkpt lat="43.42608" lon="2.6581">
        <ele>803.9</ele>
        <time>2022-06-21T10:35:00Z</time>
      </trkpt>
      <trkpt lat="43.42608" lon="2.6581">
        <ele>803.9</ele>
        <time>2022-06-21T10:35:01Z</time>
      </trkpt>
      <trkpt lat="43.42608" lon="2.6581">
        <ele>803.9</ele>
        <time>2022-06-21T10:35:02Z</time>
      </trkpt>
      <trkpt lat="43.42608" lon="2.6581">
        <ele>803.9</ele>
        <time>2022-06-21T10:35:03Z</time>
      </trkpt>
      <trkpt lat="43.42608" lon="2.6581">
        <ele>803.9</ele>
        <time>2022-06-21T10:35:04Z</time>
      </trkpt>
      <trkpt lat="43.42608" lon="2.6581">
        <ele>803.9</ele>
        <time>2022-06-21T10:35:05Z</time>
      </trkpt>
      <trkpt lat="43.42608" lon="2.6581">
        <ele>803.9</ele>
        <time>2022-06-21T10:35:06Z</time>
      </trkpt>
      <trkpt lat="43.42608" lon="2.6581">
        <ele>803.9</ele>
        <time>2022-06-21T10:35:07Z</time>
      </trkpt>
      <trkpt lat="43.42608" lon="2.6581">
        <ele>803.9</ele>
        <time>2022-06-21T10:35:08Z</time>
      </trkpt>
      <trkpt lat="43.42608" lon="2.6581">
        <ele>803.9</ele>
        <time>2022-06-21T10:35:09Z</time>
      </trkpt>
      <trkpt lat="43.42608" lon="2.6581">
        <ele>803.9</ele>
        <time>2022-06-21T10:35:10Z</time>
      </trkpt>
      <trkpt lat="43.42608" lon="2.6581">
        <ele>803.9</ele>
        <time>2022-06-21T10:35:11Z</time>
      </trkpt>
      <trkpt lat="43.42608" lon="2.6581">
        <ele>803.9</ele>
        <time>2022-06-21T10:35:12Z</time>
      </trkpt>
      <trkpt lat="43.42608" lon="2.6581">
        <ele>803.9</ele>
        <time>2022-06-21T10:35:13Z</time>
      </trkpt>
      <trkpt lat="43.42608" lon="2.6581">
        <ele>803.9</ele>
        <time>2022-06-21T10:35:14Z</time>
      </trkpt>
      <trkpt lat="43.42608" lon="2.6581">
        <ele>803.9</ele>
        <time>2022-06-21T10:35:15Z</time>
      </trkpt>
      <trkpt lat="43.42608" lon="2.6581">
        <ele>803.9</ele>
        <time>2022-06-21T10:35:16Z</time>
      </trkpt>
      <trkpt lat="43.42608" lon="2.6581">
        <ele>803.9</ele>
        <time>2022-06-21T10:35:17Z</time>
      </trkpt>
      <trkpt lat="43.42608" lon="2.6581">
        <ele>803.9</ele>
        <time>2022-06-21T10:35:18Z</time>
      </trkpt>
      <trkpt lat="43.42608" lon="2.6581">
        <ele>803.9</ele>
        <time>2022-06-21T10:35:19Z</time>
      </trkpt>
      <trkpt lat="43.42608" lon="2.6581">
        <ele>803.9</ele>
        <time>2022-06-21T10:35:20Z</time>
      </trkpt>
      <trkpt lat="43.42608" lon="2.6581">
        <ele>803.9</ele>
        <time>2022-06-21T10:35:21Z</time>
      </trkpt>
      <trkpt lat="43.42608" lon="2.6581">
        <ele>803.9</ele>
        <time>2022-06-21T10:35:22Z</time>
      </trkpt>
      <trkpt lat="43.42608" lon="2.6581">
        <ele>803.9</ele>
        <time>2022-06-21T10:35:23Z</time>
      </trkpt>
      <trkpt lat="43.42608" lon="2.6581">
        <ele>803.9</ele>
        <time>2022-06-21T10:35:24Z</time>
      </trkpt>
      <trkpt lat="43.42608" lon="2.6581">
        <ele>803.9</ele>
        <time>2022-06-21T10:35:25Z</time>
      </trkpt>
      <trkpt lat="43.42608" lon="2.6581">
        <ele>803.9</ele>
        <time>2022-06-21T10:35:26Z</time>
      </trkpt>
      <trkpt lat="43.42608" lon="2.6581">
        <ele>803.9</ele>
        <time>2022-06-21T10:35:27Z</time>
      </trkpt>
      <trkpt lat="43.42608" lon="2.6581">
        <ele>803.9</ele>
        <time>2022-06-21T10:35:28Z</time>
      </trkpt>
      <trkpt lat="43.42608" lon="2.6581">
        <ele>803.9</ele>
        <time>2022-06-21T10:35:29Z</time>
      </trkpt>
      <trkpt lat="43.42608" lon="2.6581">
        <ele>803.9</ele>
        <time>2022-06-21T10:35:30Z</time>
      </trkpt>
      <trkpt lat="43.42608" lon="2.6581">
        <ele>803.9</ele>
        <time>2022-06-21T10:35:31Z</time>
      </trkpt>
      <trkpt lat="43.42608" lon="2.6581">
        <ele>803.9</ele>
        <time>2022-06-21T10:35:32Z</time>
      </trkpt>
      <trkpt lat="43.42608" lon="2.6581">
        <ele>803.9</ele>
        <time>2022-06-21T10:35:33Z</time>
      </trkpt>
      <trkpt lat="43.42608" lon="2.6581">
        <ele>803.9</ele>
        <time>2022-06-21T10:35:34Z</time>
      </trkpt>
      <trkpt lat="43.42608" lon="2.6581">
        <ele>803.9</ele>
        <time>2022-06-21T10:35:35Z</time>
      </trkpt>
      <trkpt lat="43.42608" lon="2.6581">
        <ele>803.9</ele>
        <time>2022-06-21T10:35:36Z</time>
      </trkpt>
      <trkpt lat="43.42608" lon="2.6581">
        <ele>803.9</ele>
        <time>2022-06-21T10:35:37Z</time>
      </trkpt>
      <trkpt lat="43.42608" lon="2.6581">
        <ele>803.9</ele>
        <time>2022-06-21T10:35:38Z</time>
      </trkpt>
      <trkpt lat="43.42608" lon="2.6581">
        <ele>803.9</ele>
        <time>2022-06-21T10:35:39Z</time>
      </trkpt>
      <trkpt lat="43.42608" lon="2.6581">
        <ele>803.9</ele>
        <time>2022-06-21T10:35:40Z</time>
      </trkpt>
      <trkpt lat="43.42608" lon="2.6581">
        <ele>803.9</ele>
        <time>2022-06-21T10:35:41Z</time>
      </trkpt>
      <trkpt lat="43.42608" lon="2.6581">
        <ele>803.9</ele>
        <time>2022-06-21T10:35:42Z</time>
      </trkpt>
      <trkpt lat="43.42608" lon="2.6581">
        <ele>803.9</ele>
        <time>2022-06-21T10:35:43Z</time>
      </trkpt>
      <trkpt lat="43.42608" lon="2.6581">
        <ele>803.9</ele>
        <time>2022-06-21T10:35:44Z</time>
      </trkpt>
      <trkpt lat="43.42608" lon="2.6581">
        <ele>803.9</ele>
        <time>2022-06-21T10:35:45Z</time>
      </trkpt>
      <trkpt lat="43.42608" lon="2.6581">
        <ele>803.9</ele>
        <time>2022-06-21T10:35:46Z</time>
      </trkpt>
      <trkpt lat="43.42608" lon="2.6581">
        <ele>803.9</ele>
        <time>2022-06-21T10:35:47Z</time>
      </trkpt>
      <trkpt lat="43.42608" lon="2.6581">
        <ele>803.9</ele>
        <time>2022-06-21T10:35:48Z</time>
      </trkpt>
      <trkpt lat="43.42608" lon="2.6581">
        <ele>803.9</ele>
        <time>2022-06-21T10:35:49Z</time>
      </trkpt>
      <trkpt lat="43.42608" lon="2.6581">
        <ele>803.9</ele>
        <time>2022-06-21T10:35:50Z</time>
      </trkpt>
      <trkpt lat="43.42608" lon="2.6581">
        <ele>803.9</ele>
        <time>2022-06-21T10:35:51Z</time>
      </trkpt>
      <trkpt lat="43.42608" lon="2.6581">
        <ele>803.9</ele>
        <time>2022-06-21T10:35:52Z</time>
      </trkpt>
      <trkpt lat="43.42608" lon="2.6581">
        <ele>803.9</ele>
        <time>2022-06-21T10:35:53Z</time>
      </trkpt>
      <trkpt lat="43.42608" lon="2.6581">
        <ele>803.9</ele>
        <time>2022-06-21T10:35:54Z</time>
      </trkpt>
      <trkpt lat="43.42608" lon="2.6581">
        <ele>803.9</ele>
        <time>2022-06-21T10:35:55Z</time>
      </trkpt>
      <trkpt lat="43.42608" lon="2.6581">
        <ele>803.9</ele>
        <time>2022-06-21T10:35:56Z</time>
      </trkpt>
      <trkpt lat="43.42608" lon="2.6581">
        <ele>803.9</ele>
        <time>2022-06-21T10:35:57Z</time>
      </trkpt>
      <trkpt lat="43.42608" lon="2.6581">
        <ele>803.9</ele>
        <time>2022-06-21T10:35:58Z</time>
      </trkpt>
      <trkpt lat="43.42608" lon="2.6581">
        <ele>803.9</ele>
        <time>2022-06-21T10:35:59Z</time>
      </trkpt>
      <trkpt lat="43.42608" lon="2.6581">
        <ele>803.9</ele>
        <time>2022-06-21T10:36:00Z</time>
      </trkpt>
      <trkpt lat="43.42608" lon="2.6581">
        <ele>803.9</ele>
        <time>2022-06-21T10:36:01Z</time>
      </trkpt>
      <trkpt lat="43.42608" lon="2.6581">
        <ele>803.9</ele>
        <time>2022-06-21T10:36:02Z</time>
      </trkpt>
      <trkpt lat="43.42608" lon="2.6581">
        <ele>803.9</ele>
        <time>2022-06-21T10:36:03Z</time>
      </trkpt>
      <trkpt lat="43.42608" lon="2.6581">
        <ele>803.9</ele>
        <time>2022-06-21T10:36:04Z</time>
      </trkpt>
      <trkpt lat="43.42608" lon="2.6581">
        <ele>803.9</ele>
        <time>2022-06-21T10:36:05Z</time>
      </trkpt>
      <trkpt lat="43.42608" lon="2.6581">
        <ele>803.9</ele>
        <time>2022-06-21T10:36:06Z</time>
      </trkpt>
      <trkpt lat="43.42608" lon="2.6581">
        <ele>803.9</ele>
        <time>2022-06-21T10:36:07Z</time>
      </trkpt>
      <trkpt lat="43.42608" lon="2.6581">
        <ele>803.9</ele>
        <time>2022-06-21T10:36:08Z</time>
      </trkpt>
      <trkpt lat="43.42608" lon="2.6581">
        <ele>803.9</ele>
        <time>2022-06-21T10:36:09Z</time>
      </trkpt>
      <trkpt lat="43.42608" lon="2.6581">
        <ele>803.9</ele>
        <time>2022-06-21T10:36:10Z</time>
      </trkpt>
      <trkpt lat="43.42608" lon="2.6581">
        <ele>803.9</ele>
        <time>2022-06-21T10:36:11Z</time>
      </trkpt>
      <trkpt lat="43.42608" lon="2.6581">
        <ele>803.9</ele>
        <time>2022-06-21T10:36:12Z</time>
      </trkpt>
      <trkpt lat="43.42608" lon="2.6581">
        <ele>803.9</ele>
        <time>2022-06-21T10:36:13Z</time>
      </trkpt>
      <trkpt lat="43.42608" lon="2.6581">
        <ele>803.9</ele>
        <time>2022-06-21T10:36:14Z</time>
      </trkpt>
      <trkpt lat="43.42608" lon="2.6581">
        <ele>803.9</ele>
        <time>2022-06-21T10:36:15Z</time>
      </trkpt>
      <trkpt lat="43.42608" lon="2.6581">
        <ele>803.9</ele>
        <time>2022-06-21T10:36:16Z</time>
      </trkpt>
      <trkpt lat="43.42608" lon="2.6581">
        <ele>803.9</ele>
        <time>2022-06-21T10:36:17Z</time>
      </trkpt>
      <trkpt lat="43.42608" lon="2.6581">
        <ele>803.9</ele>
        <time>2022-06-21T10:36:18Z</time>
      </trkpt>
      <trkpt lat="43.42608" lon="2.6581">
        <ele>803.9</ele>
        <time>2022-06-21T10:36:19Z</time>
      </trkpt>
      <trkpt lat="43.42608" lon="2.6581">
        <ele>803.9</ele>
        <time>2022-06-21T10:36:20Z</time>
      </trkpt>
      <trkpt lat="43.42608" lon="2.6581">
        <ele>803.9</ele>
        <time>2022-06-21T10:36:21Z</time>
      </trkpt>
      <trkpt lat="43.42608" lon="2.6581">
        <ele>803.9</ele>
        <time>2022-06-21T10:36:22Z</time>
      </trkpt>
      <trkpt lat="43.42608" lon="2.6581">
        <ele>803.9</ele>
        <time>2022-06-21T10:36:23Z</time>
      </trkpt>
      <trkpt lat="43.42608" lon="2.6581">
        <ele>803.9</ele>
        <time>2022-06-21T10:36:24Z</time>
      </trkpt>
      <trkpt lat="43.42608" lon="2.6581">
        <ele>803.9</ele>
        <time>2022-06-21T10:36:25Z</time>
      </trkpt>
      <trkpt lat="43.42608" lon="2.6581">
        <ele>803.9</ele>
        <time>2022-06-21T10:36:26Z</time>
      </trkpt>
      <trkpt lat="43.42608" lon="2.6581">
        <ele>803.9</ele>
        <time>2022-06-21T10:36:27Z</time>
      </trkpt>
      <trkpt lat="43.42608" lon="2.6581">
        <ele>803.9</ele>
        <time>2022-06-21T10:36:28Z</time>
      </trkpt>
      <trkpt lat="43.42608" lon="2.6581">
        <ele>803.9</ele>
        <time>2022-06-21T10:36:29Z</time>
      </trkpt>
      <trkpt lat="43.42608" lon="2.6581">
        <ele>803.9</ele>
        <time>2022-06-21T10:36:30Z</time>
      </trkpt>
      <trkpt lat="43.42608" lon="2.6581">
        <ele>803.9</ele>
        <time>2022-06-21T10:36:31Z</time>
      </trkpt>
      <trkpt lat="43.42608" lon="2.6581">
        <ele>803.9</ele>
        <time>2022-06-21T10:36:32Z</time>
      </trkpt>
      <trkpt lat="43.42608" lon="2.6581">
        <ele>803.9</ele>
        <time>2022-06-21T10:36:33Z</time>
      </trkpt>
      <trkpt lat="43.42608" lon="2.6581">
        <ele>803.9</ele>
        <time>2022-06-21T10:36:34Z</time>
      </trkpt>
      <trkpt lat="43.42608" lon="2.6581">
        <ele>803.9</ele>
        <time>2022-06-21T10:36:35Z</time>
      </trkpt>
      <trkpt lat="43.42608" lon="2.6581">
        <ele>803.9</ele>
        <time>2022-06-21T10:36:36Z</time>
      </trkpt>
      <trkpt lat="43.42608" lon="2.6581">
        <ele>803.9</ele>
        <time>2022-06-21T10:36:37Z</time>
      </trkpt>
      <trkpt lat="43.42608" lon="2.6581">
        <ele>803.9</ele>
        <time>2022-06-21T10:36:38Z</time>
      </trkpt>
      <trkpt lat="43.42608" lon="2.6581">
        <ele>803.9</ele>
        <time>2022-06-21T10:36:39Z</time>
      </trkpt>
      <trkpt lat="43.42608" lon="2.6581">
        <ele>803.9</ele>
        <time>2022-06-21T10:36:40Z</time>
      </trkpt>
      <trkpt lat="43.42608" lon="2.6581">
        <ele>803.9</ele>
        <time>2022-06-21T10:36:41Z</time>
      </trkpt>
      <trkpt lat="43.42608" lon="2.6581">
        <ele>803.9</ele>
        <time>2022-06-21T10:36:42Z</time>
      </trkpt>
      <trkpt lat="43.42608" lon="2.6581">
        <ele>803.9</ele>
        <time>2022-06-21T10:36:43Z</time>
      </trkpt>
      <trkpt lat="43.42608" lon="2.6581">
        <ele>803.9</ele>
        <time>2022-06-21T10:36:44Z</time>
      </trkpt>
      <trkpt lat="43.42608" lon="2.6581">
        <ele>803.9</ele>
        <time>2022-06-21T10:36:45Z</time>
      </trkpt>
      <trkpt lat="43.42608" lon="2.6581">
        <ele>803.9</ele>
        <time>2022-06-21T10:36:46Z</time>
      </trkpt>
      <trkpt lat="43.42608" lon="2.6581">
        <ele>803.9</ele>
        <time>2022-06-21T10:36:47Z</time>
      </trkpt>
      <trkpt lat="43.42608" lon="2.6581">
        <ele>803.9</ele>
        <time>2022-06-21T10:36:48Z</time>
      </trkpt>
      <trkpt lat="43.42608" lon="2.6581">
        <ele>803.9</ele>
        <time>2022-06-21T10:36:49Z</time>
      </trkpt>
      <trkpt lat="43.42608" lon="2.6581">
        <ele>803.9</ele>
        <time>2022-06-21T10:36:50Z</time>
      </trkpt>
      <trkpt lat="43.42608" lon="2.6581">
        <ele>803.9</ele>
        <time>2022-06-21T10:36:51Z</time>
      </trkpt>
      <trkpt lat="43.42608" lon="2.6581">
        <ele>803.9</ele>
        <time>2022-06-21T10:36:52Z</time>
      </trkpt>
      <trkpt lat="43.42608" lon="2.6581">
        <ele>803.9</ele>
        <time>2022-06-21T10:36:53Z</time>
      </trkpt>
      <trkpt lat="43.42608" lon="2.6581">
        <ele>803.9</ele>
        <time>2022-06-21T10:36:54Z</time>
      </trkpt>
      <trkpt lat="43.42608" lon="2.6581">
        <ele>803.9</ele>
        <time>2022-06-21T10:36:55Z</time>
      </trkpt>
      <trkpt lat="43.42608" lon="2.6581">
        <ele>803.9</ele>
        <time>2022-06-21T10:36:56Z</time>
      </trkpt>
      <trkpt lat="43.42608" lon="2.6581">
        <ele>803.9</ele>
        <time>2022-06-21T10:36:57Z</time>
      </trkpt>
      <trkpt lat="43.42608" lon="2.6581">
        <ele>803.9</ele>
        <time>2022-06-21T10:36:58Z</time>
      </trkpt>
      <trkpt lat="43.42608" lon="2.6581">
        <ele>803.9</ele>
        <time>2022-06-21T10:36:59Z</time>
      </trkpt>
      <trkpt lat="43.42608" lon="2.6581">
        <ele>803.9</ele>
        <time>2022-06-21T10:37:00Z</time>
      </trkpt>
      <trkpt lat="43.42608" lon="2.6581">
        <ele>803.9</ele>
        <time>2022-06-21T10:37:01Z</time>
      </trkpt>
      <trkpt lat="43.42608" lon="2.6581">
        <ele>803.9</ele>
        <time>2022-06-21T10:37:02Z</time>
      </trkpt>
      <trkpt lat="43.42608" lon="2.6581">
        <ele>803.9</ele>
        <time>2022-06-21T10:37:03Z</time>
      </trkpt>
      <trkpt lat="43.42608" lon="2.6581">
        <ele>803.9</ele>
        <time>2022-06-21T10:37:04Z</time>
      </trkpt>
      <trkpt lat="43.42608" lon="2.6581">
        <ele>803.9</ele>
        <time>2022-06-21T10:37:05Z</time>
      </trkpt>
      <trkpt lat="43.42608" lon="2.6581">
        <ele>803.9</ele>
        <time>2022-06-21T10:37:06Z</time>
      </trkpt>
      <trkpt lat="43.42608" lon="2.6581">
        <ele>803.9</ele>
        <time>2022-06-21T10:37:07Z</time>
      </trkpt>
      <trkpt lat="43.42608" lon="2.6581">
        <ele>803.9</ele>
        <time>2022-06-21T10:37:08Z</time>
      </trkpt>
      <trkpt lat="43.42608" lon="2.6581">
        <ele>803.9</ele>
        <time>2022-06-21T10:37:09Z</time>
      </trkpt>
      <trkpt lat="43.42608" lon="2.6581">
        <ele>803.9</ele>
        <time>2022-06-21T10:37:10Z</time>
      </trkpt>
      <trkpt lat="43.42608" lon="2.6581">
        <ele>803.9</ele>
        <time>2022-06-21T10:37:11Z</time>
      </trkpt>
      <trkpt lat="43.42608" lon="2.6581">
        <ele>803.9</ele>
        <time>2022-06-21T10:37:12Z</time>
      </trkpt>
      <trkpt lat="43.42608" lon="2.6581">
        <ele>803.9</ele>
        <time>2022-06-21T10:37:13Z</time>
      </trkpt>
      <trkpt lat="43.42608" lon="2.6581">
        <ele>803.9</ele>
        <time>2022-06-21T10:37:14Z</time>
      </trkpt>
      <trkpt lat="43.42608" lon="2.6581">
        <ele>803.9</ele>
        <time>2022-06-21T10:37:15Z</time>
      </trkpt>
      <trkpt lat="43.42608" lon="2.6581">
        <ele>803.9</ele>
        <time>2022-06-21T10:37:16Z</time>
      </trkpt>
      <trkpt lat="43.42608" lon="2.6581">
        <ele>803.9</ele>
        <time>2022-06-21T10:37:17Z</time>
      </trkpt>
      <trkpt lat="43.42608" lon="2.6581">
        <ele>803.9</ele>
        <time>2022-06-21T10:37:18Z</time>
      </trkpt>
      <trkpt lat="43.42608" lon="2.6581">
        <ele>803.9</ele>
        <time>2022-06-21T10:37:19Z</time>
      </trkpt>
      <trkpt lat="43.42608" lon="2.6581">
        <ele>803.9</ele>
        <time>2022-06-21T10:37:20Z</time>
      </trkpt>
      <trkpt lat="43.42608" lon="2.6581">
        <ele>803.9</ele>
        <time>2022-06-21T10:37:21Z</time>
      </trkpt>
      <trkpt lat="43.42608" lon="2.6581">
        <ele>803.9</ele>
        <time>2022-06-21T10:37:22Z</time>
      </trkpt>
      <trkpt lat="43.42608" lon="2.6581">
        <ele>803.9</ele>
        <time>2022-06-21T10:37:23Z</time>
      </trkpt>
      <trkpt lat="43.42608" lon="2.6581">
        <ele>803.9</ele>
        <time>2022-06-21T10:37:24Z</time>
      </trkpt>
      <trkpt lat="43.42608" lon="2.6581">
        <ele>803.9</ele>
        <time>2022-06-21T10:37:25Z</time>
      </trkpt>
      <trkpt lat="43.42608" lon="2.6581">
        <ele>803.9</ele>
        <time>2022-06-21T10:37:26Z</time>
      </trkpt>
      <trkpt lat="43.42608" lon="2.6581">
        <ele>803.9</ele>
        <time>2022-06-21T10:37:27Z</time>
      </trkpt>
      <trkpt lat="43.42608" lon="2.6581">
        <ele>803.9</ele>
        <time>2022-06-21T10:37:28Z</time>
      </trkpt>
      <trkpt lat="43.42608" lon="2.6581">
        <ele>803.9</ele>
        <time>2022-06-21T10:37:29Z</time>
      </trkpt>
      <trkpt lat="43.42608" lon="2.6581">
        <ele>803.9</ele>
        <time>2022-06-21T10:37:30Z</time>
      </trkpt>
      <trkpt lat="43.42608" lon="2.6581">
        <ele>803.9</ele>
        <time>2022-06-21T10:37:31Z</time>
      </trkpt>
      <trkpt lat="43.42608" lon="2.6581">
        <ele>803.9</ele>
        <time>2022-06-21T10:37:32Z</time>
      </trkpt>
      <trkpt lat="43.42608" lon="2.6581">
        <ele>803.9</ele>
        <time>2022-06-21T10:37:33Z</time>
      </trkpt>
      <trkpt lat="43.42608" lon="2.6581">
        <ele>803.9</ele>
        <time>2022-06-21T10:37:34Z</time>
      </trkpt>
      <trkpt lat="43.42608" lon="2.6581">
        <ele>803.9</ele>
        <time>2022-06-21T10:37:35Z</time>
      </trkpt>
      <trkpt lat="43.42608" lon="2.6581">
        <ele>803.9</ele>
        <time>2022-06-21T10:37:36Z</time>
      </trkpt>
      <trkpt lat="43.42608" lon="2.6581">
        <ele>803.9</ele>
        <time>2022-06-21T10:37:37Z</time>
      </trkpt>
      <trkpt lat="43.42608" lon="2.6581">
        <ele>803.9</ele>
        <time>2022-06-21T10:37:38Z</time>
      </trkpt>
      <trkpt lat="43.42608" lon="2.6581">
        <ele>803.9</ele>
        <time>2022-06-21T10:37:39Z</time>
      </trkpt>
      <trkpt lat="43.42608" lon="2.6581">
        <ele>803.9</ele>
        <time>2022-06-21T10:37:40Z</time>
      </trkpt>
      <trkpt lat="43.42608" lon="2.6581">
        <ele>803.9</ele>
        <time>2022-06-21T10:37:41Z</time>
      </trkpt>
      <trkpt lat="43.42608" lon="2.6581">
        <ele>803.9</ele>
        <time>2022-06-21T10:37:42Z</time>
      </trkpt>
      <trkpt lat="43.42608" lon="2.6581">
        <ele>803.9</ele>
        <time>2022-06-21T10:37:43Z</time>
      </trkpt>
      <trkpt lat="43.42608" lon="2.6581">
        <ele>803.9</ele>
        <time>2022-06-21T10:37:44Z</time>
      </trkpt>
      <trkpt lat="43.42608" lon="2.6581">
        <ele>803.9</ele>
        <time>2022-06-21T10:37:45Z</time>
      </trkpt>
      <trkpt lat="43.42608" lon="2.6581">
        <ele>803.9</ele>
        <time>2022-06-21T10:37:46Z</time>
      </trkpt>
      <trkpt lat="43.42608" lon="2.6581">
        <ele>803.9</ele>
        <time>2022-06-21T10:37:47Z</time>
      </trkpt>
      <trkpt lat="43.42608" lon="2.6581">
        <ele>803.9</ele>
        <time>2022-06-21T10:37:48Z</time>
      </trkpt>
      <trkpt lat="43.42608" lon="2.6581">
        <ele>803.9</ele>
        <time>2022-06-21T10:37:49Z</time>
      </trkpt>
      <trkpt lat="43.42608" lon="2.6581">
        <ele>803.9</ele>
        <time>2022-06-21T10:37:50Z</time>
      </trkpt>
      <trkpt lat="43.42608" lon="2.6581">
        <ele>803.9</ele>
        <time>2022-06-21T10:37:51Z</time>
      </trkpt>
      <trkpt lat="43.42608" lon="2.6581">
        <ele>803.9</ele>
        <time>2022-06-21T10:37:52Z</time>
      </trkpt>
      <trkpt lat="43.42608" lon="2.6581">
        <ele>803.9</ele>
        <time>2022-06-21T10:37:53Z</time>
      </trkpt>
      <trkpt lat="43.42608" lon="2.6581">
        <ele>803.9</ele>
        <time>2022-06-21T10:37:54Z</time>
      </trkpt>
      <trkpt lat="43.42608" lon="2.6581">
        <ele>803.9</ele>
        <time>2022-06-21T10:37:55Z</time>
      </trkpt>
      <trkpt lat="43.42608" lon="2.6581">
        <ele>803.9</ele>
        <time>2022-06-21T10:37:56Z</time>
      </trkpt>
      <trkpt lat="43.42608" lon="2.6581">
        <ele>803.9</ele>
        <time>2022-06-21T10:37:57Z</time>
      </trkpt>
      <trkpt lat="43.42608" lon="2.6581">
        <ele>803.9</ele>
        <time>2022-06-21T10:37:58Z</time>
      </trkpt>
      <trkpt lat="43.42608" lon="2.6581">
        <ele>803.9</ele>
        <time>2022-06-21T10:37:59Z</time>
      </trkpt>
      <trkpt lat="43.42608" lon="2.6581">
        <ele>803.9</ele>
        <time>2022-06-21T10:38:00Z</time>
      </trkpt>
      <trkpt lat="43.42608" lon="2.6581">
        <ele>803.9</ele>
        <time>2022-06-21T10:38:01Z</time>
      </trkpt>
      <trkpt lat="43.42608" lon="2.6581">
        <ele>803.9</ele>
        <time>2022-06-21T10:38:02Z</time>
      </trkpt>
      <trkpt lat="43.42608" lon="2.6581">
        <ele>803.9</ele>
        <time>2022-06-21T10:38:03Z</time>
      </trkpt>
      <trkpt lat="43.42608" lon="2.6581">
        <ele>803.9</ele>
        <time>2022-06-21T10:38:04Z</time>
      </trkpt>
      <trkpt lat="43.42608" lon="2.6581">
        <ele>803.9</ele>
        <time>2022-06-21T10:38:05Z</time>
      </trkpt>
      <trkpt lat="43.42608" lon="2.6581">
        <ele>803.9</ele>
        <time>2022-06-21T10:38:06Z</time>
      </trkpt>
      <trkpt lat="43.42608" lon="2.6581">
        <ele>803.9</ele>
        <time>2022-06-21T10:38:07Z</time>
      </trkpt>
      <trkpt lat="43.42608" lon="2.6581">
        <ele>803.9</ele>
        <time>2022-06-21T10:38:08Z</time>
      </trkpt>
      <trkpt lat="43.42608" lon="2.6581">
        <ele>803.9</ele>
        <time>2022-06-21T10:38:09Z</time>
      </trkpt>
      <trkpt lat="43.42608" lon="2.6581">
        <ele>803.9</ele>
        <time>2022-06-21T10:38:10Z</time>
      </trkpt>
      <trkpt lat="43.42608" lon="2.6581">
        <ele>803.9</ele>
        <time>2022-06-21T10:38:11Z</time>
      </trkpt>
      <trkpt lat="43.42608" lon="2.6581">
        <ele>803.9</ele>
        <time>2022-06-21T10:38:12Z</time>
      </trkpt>
      <trkpt lat="43.42608" lon="2.6581">
        <ele>803.9</ele>
        <time>2022-06-21T10:38:13Z</time>
      </trkpt>
      <trkpt lat="43.42608" lon="2.6581">
        <ele>803.9</ele>
        <time>2022-06-21T10:38:14Z</time>
      </trkpt>
      <trkpt lat="43.42608" lon="2.6581">
        <ele>803.9</ele>
        <time>2022-06-21T10:38:15Z</time>
      </trkpt>
      <trkpt lat="43.42608" lon="2.6581">
        <ele>803.9</ele>
        <time>2022-06-21T10:38:16Z</time>
      </trkpt>
      <trkpt lat="43.42608" lon="2.6581">
        <ele>803.9</ele>
        <time>2022-06-21T10:38:17Z</time>
      </trkpt>
      <trkpt lat="43.42608" lon="2.6581">
        <ele>803.9</ele>
        <time>2022-06-21T10:38:18Z</time>
      </trkpt>
      <trkpt lat="43.42608" lon="2.6581">
        <ele>803.9</ele>
        <time>2022-06-21T10:38:19Z</time>
      </trkpt>
      <trkpt lat="43.42608" lon="2.6581">
        <ele>803.9</ele>
        <time>2022-06-21T10:38:20Z</time>
      </trkpt>
      <trkpt lat="43.42608" lon="2.6581">
        <ele>803.9</ele>
        <time>2022-06-21T10:38:21Z</time>
      </trkpt>
      <trkpt lat="43.42608" lon="2.6581">
        <ele>803.9</ele>
        <time>2022-06-21T10:38:22Z</time>
      </trkpt>
      <trkpt lat="43.42608" lon="2.6581">
        <ele>803.9</ele>
        <time>2022-06-21T10:38:23Z</time>
      </trkpt>
      <trkpt lat="43.42608" lon="2.6581">
        <ele>803.9</ele>
        <time>2022-06-21T10:38:24Z</time>
      </trkpt>
      <trkpt lat="43.42608" lon="2.6581">
        <ele>803.9</ele>
        <time>2022-06-21T10:38:25Z</time>
      </trkpt>
      <trkpt lat="43.42608" lon="2.6581">
        <ele>803.9</ele>
        <time>2022-06-21T10:38:27Z</time>
      </trkpt>
      <trkpt lat="43.42608" lon="2.6581">
        <ele>803.9</ele>
        <time>2022-06-21T10:38:28Z</time>
      </trkpt>
      <trkpt lat="43.42608" lon="2.6581">
        <ele>803.9</ele>
        <time>2022-06-21T10:38:29Z</time>
      </trkpt>
      <trkpt lat="43.42608" lon="2.6581">
        <ele>803.9</ele>
        <time>2022-06-21T10:38:30Z</time>
      </trkpt>
      <trkpt lat="43.42608" lon="2.6581">
        <ele>803.9</ele>
        <time>2022-06-21T10:38:31Z</time>
      </trkpt>
      <trkpt lat="43.42608" lon="2.6581">
        <ele>803.9</ele>
        <time>2022-06-21T10:38:32Z</time>
      </trkpt>
      <trkpt lat="43.42608" lon="2.6581">
        <ele>803.9</ele>
        <time>2022-06-21T10:38:33Z</time>
      </trkpt>
      <trkpt lat="43.42608" lon="2.6581">
        <ele>803.9</ele>
        <time>2022-06-21T10:38:34Z</time>
      </trkpt>
      <trkpt lat="43.42608" lon="2.6581">
        <ele>803.9</ele>
        <time>2022-06-21T10:38:35Z</time>
      </trkpt>
      <trkpt lat="43.42608" lon="2.6581">
        <ele>803.9</ele>
        <time>2022-06-21T10:38:36Z</time>
      </trkpt>
      <trkpt lat="43.42608" lon="2.6581">
        <ele>803.9</ele>
        <time>2022-06-21T10:38:37Z</time>
      </trkpt>
      <trkpt lat="43.42608" lon="2.6581">
        <ele>803.9</ele>
        <time>2022-06-21T10:38:38Z</time>
      </trkpt>
      <trkpt lat="43.42608" lon="2.6581">
        <ele>803.9</ele>
        <time>2022-06-21T10:38:39Z</time>
      </trkpt>
      <trkpt lat="43.42608" lon="2.6581">
        <ele>803.9</ele>
        <time>2022-06-21T10:38:40Z</time>
      </trkpt>
      <trkpt lat="43.42608" lon="2.6581">
        <ele>803.9</ele>
        <time>2022-06-21T10:38:41Z</time>
      </trkpt>
      <trkpt lat="43.42608" lon="2.6581">
        <ele>803.9</ele>
        <time>2022-06-21T10:38:42Z</time>
      </trkpt>
      <trkpt lat="43.42608" lon="2.6581">
        <ele>803.9</ele>
        <time>2022-06-21T10:38:43Z</time>
      </trkpt>
      <trkpt lat="43.42608" lon="2.6581">
        <ele>803.9</ele>
        <time>2022-06-21T10:38:44Z</time>
      </trkpt>
      <trkpt lat="43.42608" lon="2.6581">
        <ele>803.9</ele>
        <time>2022-06-21T10:38:45Z</time>
      </trkpt>
      <trkpt lat="43.42608" lon="2.6581">
        <ele>803.9</ele>
        <time>2022-06-21T10:38:46Z</time>
      </trkpt>
      <trkpt lat="43.42608" lon="2.6581">
        <ele>803.9</ele>
        <time>2022-06-21T10:38:47Z</time>
      </trkpt>
      <trkpt lat="43.42608" lon="2.6581">
        <ele>803.9</ele>
        <time>2022-06-21T10:38:48Z</time>
      </trkpt>
      <trkpt lat="43.42608" lon="2.6581">
        <ele>803.9</ele>
        <time>2022-06-21T10:38:49Z</time>
      </trkpt>
      <trkpt lat="43.42608" lon="2.6581">
        <ele>803.9</ele>
        <time>2022-06-21T10:38:50Z</time>
      </trkpt>
      <trkpt lat="43.42608" lon="2.6581">
        <ele>803.9</ele>
        <time>2022-06-21T10:38:51Z</time>
      </trkpt>
      <trkpt lat="43.42608" lon="2.6581">
        <ele>803.9</ele>
        <time>2022-06-21T10:38:53Z</time>
      </trkpt>
      <trkpt lat="43.42608" lon="2.6581">
        <ele>803.9</ele>
        <time>2022-06-21T10:38:54Z</time>
      </trkpt>
      <trkpt lat="43.42608" lon="2.6581">
        <ele>803.9</ele>
        <time>2022-06-21T10:38:55Z</time>
      </trkpt>
      <trkpt lat="43.42608" lon="2.6581">
        <ele>803.9</ele>
        <time>2022-06-21T10:38:56Z</time>
      </trkpt>
      <trkpt lat="43.42608" lon="2.6581">
        <ele>803.9</ele>
        <time>2022-06-21T10:38:57Z</time>
      </trkpt>
      <trkpt lat="43.42608" lon="2.6581">
        <ele>803.9</ele>
        <time>2022-06-21T10:38:58Z</time>
      </trkpt>
      <trkpt lat="43.42608" lon="2.6581">
        <ele>803.9</ele>
        <time>2022-06-21T10:38:59Z</time>
      </trkpt>
      <trkpt lat="43.42608" lon="2.6581">
        <ele>803.9</ele>
        <time>2022-06-21T10:39:00Z</time>
      </trkpt>
      <trkpt lat="43.42608" lon="2.6581">
        <ele>803.9</ele>
        <time>2022-06-21T10:39:01Z</time>
      </trkpt>
      <trkpt lat="43.42608" lon="2.6581">
        <ele>803.9</ele>
        <time>2022-06-21T10:39:02Z</time>
      </trkpt>
      <trkpt lat="43.42608" lon="2.6581">
        <ele>803.9</ele>
        <time>2022-06-21T10:39:03Z</time>
      </trkpt>
      <trkpt lat="43.42608" lon="2.6581">
        <ele>803.9</ele>
        <time>2022-06-21T10:39:04Z</time>
      </trkpt>
      <trkpt lat="43.42608" lon="2.6581">
        <ele>803.9</ele>
        <time>2022-06-21T10:39:05Z</time>
      </trkpt>
      <trkpt lat="43.42608" lon="2.6581">
        <ele>803.9</ele>
        <time>2022-06-21T10:39:06Z</time>
      </trkpt>
      <trkpt lat="43.42608" lon="2.6581">
        <ele>803.9</ele>
        <time>2022-06-21T10:39:07Z</time>
      </trkpt>
      <trkpt lat="43.42608" lon="2.6581">
        <ele>803.9</ele>
        <time>2022-06-21T10:39:08Z</time>
      </trkpt>
      <trkpt lat="43.42608" lon="2.6581">
        <ele>803.9</ele>
        <time>2022-06-21T10:39:09Z</time>
      </trkpt>
      <trkpt lat="43.42608" lon="2.6581">
        <ele>803.9</ele>
        <time>2022-06-21T10:39:10Z</time>
      </trkpt>
      <trkpt lat="43.42608" lon="2.6581">
        <ele>803.9</ele>
        <time>2022-06-21T10:39:11Z</time>
      </trkpt>
      <trkpt lat="43.42608" lon="2.6581">
        <ele>803.9</ele>
        <time>2022-06-21T10:39:12Z</time>
      </trkpt>
      <trkpt lat="43.42608" lon="2.6581">
        <ele>803.9</ele>
        <time>2022-06-21T10:39:13Z</time>
      </trkpt>
      <trkpt lat="43.42608" lon="2.6581">
        <ele>803.9</ele>
        <time>2022-06-21T10:39:14Z</time>
      </trkpt>
      <trkpt lat="43.42608" lon="2.6581">
        <ele>803.9</ele>
        <time>2022-06-21T10:39:15Z</time>
      </trkpt>
      <trkpt lat="43.42608" lon="2.6581">
        <ele>803.9</ele>
        <time>2022-06-21T10:39:16Z</time>
      </trkpt>
      <trkpt lat="43.42608" lon="2.6581">
        <ele>803.9</ele>
        <time>2022-06-21T10:39:17Z</time>
      </trkpt>
      <trkpt lat="43.42608" lon="2.6581">
        <ele>803.9</ele>
        <time>2022-06-21T10:39:18Z</time>
      </trkpt>
      <trkpt lat="43.42608" lon="2.6581">
        <ele>803.9</ele>
        <time>2022-06-21T10:39:19Z</time>
      </trkpt>
      <trkpt lat="43.42608" lon="2.6581">
        <ele>803.9</ele>
        <time>2022-06-21T10:39:20Z</time>
      </trkpt>
      <trkpt lat="43.42608" lon="2.6581">
        <ele>803.9</ele>
        <time>2022-06-21T10:39:21Z</time>
      </trkpt>
      <trkpt lat="43.42608" lon="2.6581">
        <ele>803.9</ele>
        <time>2022-06-21T10:39:22Z</time>
      </trkpt>
      <trkpt lat="43.42608" lon="2.6581">
        <ele>803.9</ele>
        <time>2022-06-21T10:39:23Z</time>
      </trkpt>
      <trkpt lat="43.42608" lon="2.6581">
        <ele>803.9</ele>
        <time>2022-06-21T10:39:24Z</time>
      </trkpt>
      <trkpt lat="43.42608" lon="2.6581">
        <ele>803.9</ele>
        <time>2022-06-21T10:39:25Z</time>
      </trkpt>
      <trkpt lat="43.42608" lon="2.6581">
        <ele>803.9</ele>
        <time>2022-06-21T10:39:26Z</time>
      </trkpt>
      <trkpt lat="43.42608" lon="2.6581">
        <ele>803.9</ele>
        <time>2022-06-21T10:39:27Z</time>
      </trkpt>
      <trkpt lat="43.42608" lon="2.6581">
        <ele>803.9</ele>
        <time>2022-06-21T10:39:28Z</time>
      </trkpt>
      <trkpt lat="43.42608" lon="2.6581">
        <ele>803.9</ele>
        <time>2022-06-21T10:39:29Z</time>
      </trkpt>
      <trkpt lat="43.42608" lon="2.6581">
        <ele>803.9</ele>
        <time>2022-06-21T10:39:30Z</time>
      </trkpt>
      <trkpt lat="43.42608" lon="2.6581">
        <ele>803.9</ele>
        <time>2022-06-21T10:39:31Z</time>
      </trkpt>
      <trkpt lat="43.42608" lon="2.6581">
        <ele>803.9</ele>
        <time>2022-06-21T10:39:32Z</time>
      </trkpt>
      <trkpt lat="43.42608" lon="2.6581">
        <ele>803.9</ele>
        <time>2022-06-21T10:39:33Z</time>
      </trkpt>
      <trkpt lat="43.42608" lon="2.6581">
        <ele>803.9</ele>
        <time>2022-06-21T10:39:34Z</time>
      </trkpt>
      <trkpt lat="43.42608" lon="2.6581">
        <ele>803.9</ele>
        <time>2022-06-21T10:39:35Z</time>
      </trkpt>
      <trkpt lat="43.42608" lon="2.6581">
        <ele>803.9</ele>
        <time>2022-06-21T10:39:36Z</time>
      </trkpt>
      <trkpt lat="43.42608" lon="2.6581">
        <ele>803.9</ele>
        <time>2022-06-21T10:39:37Z</time>
      </trkpt>
      <trkpt lat="43.42608" lon="2.6581">
        <ele>803.9</ele>
        <time>2022-06-21T10:39:38Z</time>
      </trkpt>
      <trkpt lat="43.42608" lon="2.6581">
        <ele>803.9</ele>
        <time>2022-06-21T10:39:39Z</time>
      </trkpt>
      <trkpt lat="43.42608" lon="2.6581">
        <ele>803.9</ele>
        <time>2022-06-21T10:39:40Z</time>
      </trkpt>
      <trkpt lat="43.42608" lon="2.6581">
        <ele>803.9</ele>
        <time>2022-06-21T10:39:41Z</time>
      </trkpt>
      <trkpt lat="43.42608" lon="2.6581">
        <ele>803.9</ele>
        <time>2022-06-21T10:39:42Z</time>
      </trkpt>
      <trkpt lat="43.42608" lon="2.6581">
        <ele>803.9</ele>
        <time>2022-06-21T10:39:43Z</time>
      </trkpt>
      <trkpt lat="43.42608" lon="2.6581">
        <ele>803.9</ele>
        <time>2022-06-21T10:39:44Z</time>
      </trkpt>
      <trkpt lat="43.42608" lon="2.6581">
        <ele>803.9</ele>
        <time>2022-06-21T10:39:45Z</time>
      </trkpt>
      <trkpt lat="43.42608" lon="2.6581">
        <ele>803.9</ele>
        <time>2022-06-21T10:39:46Z</time>
      </trkpt>
      <trkpt lat="43.42608" lon="2.6581">
        <ele>803.9</ele>
        <time>2022-06-21T10:39:47Z</time>
      </trkpt>
      <trkpt lat="43.42608" lon="2.6581">
        <ele>803.9</ele>
        <time>2022-06-21T10:39:48Z</time>
      </trkpt>
      <trkpt lat="43.42608" lon="2.6581">
        <ele>803.9</ele>
        <time>2022-06-21T10:39:49Z</time>
      </trkpt>
      <trkpt lat="43.42608" lon="2.6581">
        <ele>803.9</ele>
        <time>2022-06-21T10:39:50Z</time>
      </trkpt>
      <trkpt lat="43.42608" lon="2.6581">
        <ele>803.9</ele>
        <time>2022-06-21T10:39:51Z</time>
      </trkpt>
      <trkpt lat="43.42608" lon="2.6581">
        <ele>803.9</ele>
        <time>2022-06-21T10:39:52Z</time>
      </trkpt>
      <trkpt lat="43.42608" lon="2.6581">
        <ele>803.9</ele>
        <time>2022-06-21T10:39:53Z</time>
      </trkpt>
      <trkpt lat="43.42608" lon="2.6581">
        <ele>803.9</ele>
        <time>2022-06-21T10:39:54Z</time>
      </trkpt>
      <trkpt lat="43.42608" lon="2.6581">
        <ele>803.9</ele>
        <time>2022-06-21T10:39:55Z</time>
      </trkpt>
      <trkpt lat="43.42608" lon="2.6581">
        <ele>803.9</ele>
        <time>2022-06-21T10:39:56Z</time>
      </trkpt>
      <trkpt lat="43.42608" lon="2.6581">
        <ele>803.9</ele>
        <time>2022-06-21T10:39:57Z</time>
      </trkpt>
      <trkpt lat="43.42608" lon="2.6581">
        <ele>803.9</ele>
        <time>2022-06-21T10:39:58Z</time>
      </trkpt>
      <trkpt lat="43.42608" lon="2.6581">
        <ele>803.9</ele>
        <time>2022-06-21T10:39:59Z</time>
      </trkpt>
      <trkpt lat="43.42608" lon="2.6581">
        <ele>803.9</ele>
        <time>2022-06-21T10:40:00Z</time>
      </trkpt>
      <trkpt lat="43.42608" lon="2.6581">
        <ele>803.9</ele>
        <time>2022-06-21T10:40:01Z</time>
      </trkpt>
      <trkpt lat="43.42608" lon="2.6581">
        <ele>803.9</ele>
        <time>2022-06-21T10:40:02Z</time>
      </trkpt>
      <trkpt lat="43.42608" lon="2.6581">
        <ele>803.9</ele>
        <time>2022-06-21T10:40:03Z</time>
      </trkpt>
      <trkpt lat="43.42608" lon="2.6581">
        <ele>803.9</ele>
        <time>2022-06-21T10:40:04Z</time>
      </trkpt>
      <trkpt lat="43.42608" lon="2.6581">
        <ele>803.9</ele>
        <time>2022-06-21T10:40:05Z</time>
      </trkpt>
      <trkpt lat="43.42608" lon="2.6581">
        <ele>803.9</ele>
        <time>2022-06-21T10:40:06Z</time>
      </trkpt>
      <trkpt lat="43.42608" lon="2.6581">
        <ele>803.9</ele>
        <time>2022-06-21T10:40:07Z</time>
      </trkpt>
      <trkpt lat="43.42608" lon="2.6581">
        <ele>803.9</ele>
        <time>2022-06-21T10:40:08Z</time>
      </trkpt>
      <trkpt lat="43.42608" lon="2.6581">
        <ele>803.9</ele>
        <time>2022-06-21T10:40:09Z</time>
      </trkpt>
      <trkpt lat="43.42608" lon="2.6581">
        <ele>803.9</ele>
        <time>2022-06-21T10:40:10Z</time>
      </trkpt>
      <trkpt lat="43.42608" lon="2.6581">
        <ele>803.9</ele>
        <time>2022-06-21T10:40:11Z</time>
      </trkpt>
      <trkpt lat="43.42608" lon="2.6581">
        <ele>803.9</ele>
        <time>2022-06-21T10:40:12Z</time>
      </trkpt>
      <trkpt lat="43.42608" lon="2.6581">
        <ele>803.9</ele>
        <time>2022-06-21T10:40:13Z</time>
      </trkpt>
      <trkpt lat="43.42608" lon="2.6581">
        <ele>803.9</ele>
        <time>2022-06-21T10:40:14Z</time>
      </trkpt>
      <trkpt lat="43.42608" lon="2.6581">
        <ele>803.9</ele>
        <time>2022-06-21T10:40:15Z</time>
      </trkpt>
      <trkpt lat="43.42608" lon="2.6581">
        <ele>803.9</ele>
        <time>2022-06-21T10:40:16Z</time>
      </trkpt>
      <trkpt lat="43.42608" lon="2.6581">
        <ele>803.9</ele>
        <time>2022-06-21T10:40:17Z</time>
      </trkpt>
      <trkpt lat="43.42608" lon="2.6581">
        <ele>803.9</ele>
        <time>2022-06-21T10:40:18Z</time>
      </trkpt>
      <trkpt lat="43.42608" lon="2.6581">
        <ele>803.9</ele>
        <time>2022-06-21T10:40:19Z</time>
      </trkpt>
      <trkpt lat="43.42608" lon="2.6581">
        <ele>803.9</ele>
        <time>2022-06-21T10:40:20Z</time>
      </trkpt>
      <trkpt lat="43.42608" lon="2.6581">
        <ele>803.9</ele>
        <time>2022-06-21T10:40:21Z</time>
      </trkpt>
      <trkpt lat="43.42608" lon="2.6581">
        <ele>803.9</ele>
        <time>2022-06-21T10:40:22Z</time>
      </trkpt>
      <trkpt lat="43.42608" lon="2.6581">
        <ele>803.9</ele>
        <time>2022-06-21T10:40:23Z</time>
      </trkpt>
      <trkpt lat="43.42608" lon="2.6581">
        <ele>803.9</ele>
        <time>2022-06-21T10:40:24Z</time>
      </trkpt>
      <trkpt lat="43.42608" lon="2.6581">
        <ele>803.9</ele>
        <time>2022-06-21T10:40:25Z</time>
      </trkpt>
      <trkpt lat="43.42608" lon="2.6581">
        <ele>803.9</ele>
        <time>2022-06-21T10:40:26Z</time>
      </trkpt>
      <trkpt lat="43.42608" lon="2.6581">
        <ele>803.9</ele>
        <time>2022-06-21T10:40:27Z</time>
      </trkpt>
      <trkpt lat="43.42608" lon="2.6581">
        <ele>803.9</ele>
        <time>2022-06-21T10:40:28Z</time>
      </trkpt>
      <trkpt lat="43.42608" lon="2.6581">
        <ele>803.9</ele>
        <time>2022-06-21T10:40:29Z</time>
      </trkpt>
      <trkpt lat="43.42608" lon="2.6581">
        <ele>803.9</ele>
        <time>2022-06-21T10:40:30Z</time>
      </trkpt>
      <trkpt lat="43.42608" lon="2.6581">
        <ele>803.9</ele>
        <time>2022-06-21T10:40:31Z</time>
      </trkpt>
      <trkpt lat="43.42608" lon="2.6581">
        <ele>803.9</ele>
        <time>2022-06-21T10:40:32Z</time>
      </trkpt>
      <trkpt lat="43.42608" lon="2.6581">
        <ele>803.9</ele>
        <time>2022-06-21T10:40:33Z</time>
      </trkpt>
      <trkpt lat="43.42608" lon="2.6581">
        <ele>803.9</ele>
        <time>2022-06-21T10:40:34Z</time>
      </trkpt>
      <trkpt lat="43.42608" lon="2.6581">
        <ele>803.9</ele>
        <time>2022-06-21T10:40:35Z</time>
      </trkpt>
      <trkpt lat="43.42608" lon="2.6581">
        <ele>803.9</ele>
        <time>2022-06-21T10:40:36Z</time>
      </trkpt>
      <trkpt lat="43.42608" lon="2.6581">
        <ele>803.9</ele>
        <time>2022-06-21T10:40:37Z</time>
      </trkpt>
      <trkpt lat="43.42608" lon="2.6581">
        <ele>803.9</ele>
        <time>2022-06-21T10:40:38Z</time>
      </trkpt>
      <trkpt lat="43.42608" lon="2.6581">
        <ele>803.9</ele>
        <time>2022-06-21T10:40:39Z</time>
      </trkpt>
      <trkpt lat="43.42608" lon="2.6581">
        <ele>803.9</ele>
        <time>2022-06-21T10:40:40Z</time>
      </trkpt>
      <trkpt lat="43.42608" lon="2.6581">
        <ele>803.9</ele>
        <time>2022-06-21T10:40:41Z</time>
      </trkpt>
      <trkpt lat="43.42608" lon="2.6581">
        <ele>803.9</ele>
        <time>2022-06-21T10:40:44Z</time>
      </trkpt>
      <trkpt lat="43.42608" lon="2.6581">
        <ele>803.9</ele>
        <time>2022-06-21T10:40:45Z</time>
      </trkpt>
      <trkpt lat="43.42608" lon="2.6581">
        <ele>803.9</ele>
        <time>2022-06-21T10:40:46Z</time>
      </trkpt>
      <trkpt lat="43.42608" lon="2.6581">
        <ele>803.9</ele>
        <time>2022-06-21T10:40:47Z</time>
      </trkpt>
      <trkpt lat="43.42608" lon="2.6581">
        <ele>803.9</ele>
        <time>2022-06-21T10:40:48Z</time>
      </trkpt>
      <trkpt lat="43.42608" lon="2.6581">
        <ele>803.9</ele>
        <time>2022-06-21T10:40:49Z</time>
      </trkpt>
      <trkpt lat="43.42608" lon="2.6581">
        <ele>803.9</ele>
        <time>2022-06-21T10:40:50Z</time>
      </trkpt>
      <trkpt lat="43.42608" lon="2.6581">
        <ele>803.9</ele>
        <time>2022-06-21T10:40:51Z</time>
      </trkpt>
      <trkpt lat="43.42608" lon="2.6581">
        <ele>803.9</ele>
        <time>2022-06-21T10:40:52Z</time>
      </trkpt>
      <trkpt lat="43.42608" lon="2.6581">
        <ele>803.9</ele>
        <time>2022-06-21T10:40:53Z</time>
      </trkpt>
      <trkpt lat="43.42608" lon="2.6581">
        <ele>803.9</ele>
        <time>2022-06-21T10:40:54Z</time>
      </trkpt>
      <trkpt lat="43.42608" lon="2.6581">
        <ele>803.9</ele>
        <time>2022-06-21T10:40:55Z</time>
      </trkpt>
      <trkpt lat="43.42608" lon="2.6581">
        <ele>803.9</ele>
        <time>2022-06-21T10:40:56Z</time>
      </trkpt>
      <trkpt lat="43.42608" lon="2.6581">
        <ele>803.9</ele>
        <time>2022-06-21T10:40:57Z</time>
      </trkpt>
      <trkpt lat="43.42608" lon="2.6581">
        <ele>803.9</ele>
        <time>2022-06-21T10:40:58Z</time>
      </trkpt>
      <trkpt lat="43.42608" lon="2.6581">
        <ele>803.9</ele>
        <time>2022-06-21T10:40:59Z</time>
      </trkpt>
      <trkpt lat="43.42608" lon="2.6581">
        <ele>803.9</ele>
        <time>2022-06-21T10:41:00Z</time>
      </trkpt>
      <trkpt lat="43.42608" lon="2.6581">
        <ele>803.9</ele>
        <time>2022-06-21T10:41:01Z</time>
      </trkpt>
      <trkpt lat="43.42608" lon="2.6581">
        <ele>803.9</ele>
        <time>2022-06-21T10:41:02Z</time>
      </trkpt>
      <trkpt lat="43.42608" lon="2.6581">
        <ele>803.9</ele>
        <time>2022-06-21T10:41:03Z</time>
      </trkpt>
      <trkpt lat="43.42608" lon="2.6581">
        <ele>803.9</ele>
        <time>2022-06-21T10:41:04Z</time>
      </trkpt>
      <trkpt lat="43.42608" lon="2.6581">
        <ele>803.9</ele>
        <time>2022-06-21T10:41:05Z</time>
      </trkpt>
      <trkpt lat="43.42608" lon="2.6581">
        <ele>803.9</ele>
        <time>2022-06-21T10:41:06Z</time>
      </trkpt>
      <trkpt lat="43.42608" lon="2.6581">
        <ele>803.9</ele>
        <time>2022-06-21T10:41:07Z</time>
      </trkpt>
      <trkpt lat="43.42608" lon="2.6581">
        <ele>803.9</ele>
        <time>2022-06-21T10:41:08Z</time>
      </trkpt>
      <trkpt lat="43.42608" lon="2.6581">
        <ele>803.9</ele>
        <time>2022-06-21T10:41:09Z</time>
      </trkpt>
      <trkpt lat="43.42608" lon="2.6581">
        <ele>803.9</ele>
        <time>2022-06-21T10:41:10Z</time>
      </trkpt>
      <trkpt lat="43.42608" lon="2.6581">
        <ele>803.9</ele>
        <time>2022-06-21T10:41:11Z</time>
      </trkpt>
      <trkpt lat="43.42608" lon="2.6581">
        <ele>803.9</ele>
        <time>2022-06-21T10:41:12Z</time>
      </trkpt>
      <trkpt lat="43.42608" lon="2.6581">
        <ele>803.9</ele>
        <time>2022-06-21T10:41:13Z</time>
      </trkpt>
      <trkpt lat="43.42608" lon="2.6581">
        <ele>803.9</ele>
        <time>2022-06-21T10:41:14Z</time>
      </trkpt>
      <trkpt lat="43.42608" lon="2.6581">
        <ele>803.9</ele>
        <time>2022-06-21T10:41:15Z</time>
      </trkpt>
      <trkpt lat="43.42608" lon="2.6581">
        <ele>803.9</ele>
        <time>2022-06-21T10:41:16Z</time>
      </trkpt>
      <trkpt lat="43.42608" lon="2.6581">
        <ele>803.9</ele>
        <time>2022-06-21T10:41:17Z</time>
      </trkpt>
      <trkpt lat="43.42608" lon="2.6581">
        <ele>803.9</ele>
        <time>2022-06-21T10:41:18Z</time>
      </trkpt>
      <trkpt lat="43.42608" lon="2.6581">
        <ele>803.9</ele>
        <time>2022-06-21T10:41:19Z</time>
      </trkpt>
      <trkpt lat="43.42608" lon="2.6581">
        <ele>803.9</ele>
        <time>2022-06-21T10:41:20Z</time>
      </trkpt>
      <trkpt lat="43.42608" lon="2.6581">
        <ele>803.9</ele>
        <time>2022-06-21T10:41:21Z</time>
      </trkpt>
      <trkpt lat="43.42608" lon="2.6581">
        <ele>803.9</ele>
        <time>2022-06-21T10:41:22Z</time>
      </trkpt>
      <trkpt lat="43.42608" lon="2.6581">
        <ele>803.9</ele>
        <time>2022-06-21T10:41:23Z</time>
      </trkpt>
      <trkpt lat="43.42608" lon="2.6581">
        <ele>803.9</ele>
        <time>2022-06-21T10:41:24Z</time>
      </trkpt>
      <trkpt lat="43.42608" lon="2.6581">
        <ele>803.9</ele>
        <time>2022-06-21T10:41:25Z</time>
      </trkpt>
      <trkpt lat="43.42608" lon="2.6581">
        <ele>803.9</ele>
        <time>2022-06-21T10:41:26Z</time>
      </trkpt>
      <trkpt lat="43.42608" lon="2.6581">
        <ele>803.9</ele>
        <time>2022-06-21T10:41:27Z</time>
      </trkpt>
      <trkpt lat="43.42608" lon="2.6581">
        <ele>803.9</ele>
        <time>2022-06-21T10:41:28Z</time>
      </trkpt>
      <trkpt lat="43.42608" lon="2.6581">
        <ele>803.9</ele>
        <time>2022-06-21T10:41:29Z</time>
      </trkpt>
      <trkpt lat="43.42608" lon="2.6581">
        <ele>803.9</ele>
        <time>2022-06-21T10:41:30Z</time>
      </trkpt>
      <trkpt lat="43.42608" lon="2.6581">
        <ele>803.9</ele>
        <time>2022-06-21T10:41:31Z</time>
      </trkpt>
      <trkpt lat="43.42608" lon="2.6581">
        <ele>803.9</ele>
        <time>2022-06-21T10:41:32Z</time>
      </trkpt>
      <trkpt lat="43.42608" lon="2.6581">
        <ele>803.9</ele>
        <time>2022-06-21T10:41:33Z</time>
      </trkpt>
      <trkpt lat="43.42608" lon="2.6581">
        <ele>803.9</ele>
        <time>2022-06-21T10:41:34Z</time>
      </trkpt>
      <trkpt lat="43.42608" lon="2.6581">
        <ele>803.9</ele>
        <time>2022-06-21T10:41:35Z</time>
      </trkpt>
      <trkpt lat="43.42608" lon="2.6581">
        <ele>803.9</ele>
        <time>2022-06-21T10:41:36Z</time>
      </trkpt>
      <trkpt lat="43.42608" lon="2.6581">
        <ele>803.9</ele>
        <time>2022-06-21T10:41:37Z</time>
      </trkpt>
      <trkpt lat="43.42608" lon="2.6581">
        <ele>803.9</ele>
        <time>2022-06-21T10:41:38Z</time>
      </trkpt>
      <trkpt lat="43.42608" lon="2.6581">
        <ele>803.9</ele>
        <time>2022-06-21T10:41:39Z</time>
      </trkpt>
      <trkpt lat="43.42608" lon="2.6581">
        <ele>803.9</ele>
        <time>2022-06-21T10:41:40Z</time>
      </trkpt>
      <trkpt lat="43.42608" lon="2.6581">
        <ele>803.9</ele>
        <time>2022-06-21T10:41:41Z</time>
      </trkpt>
      <trkpt lat="43.42608" lon="2.6581">
        <ele>803.9</ele>
        <time>2022-06-21T10:41:42Z</time>
      </trkpt>
      <trkpt lat="43.42608" lon="2.6581">
        <ele>803.9</ele>
        <time>2022-06-21T10:41:43Z</time>
      </trkpt>
      <trkpt lat="43.42608" lon="2.6581">
        <ele>803.9</ele>
        <time>2022-06-21T10:41:44Z</time>
      </trkpt>
      <trkpt lat="43.42608" lon="2.6581">
        <ele>803.9</ele>
        <time>2022-06-21T10:41:45Z</time>
      </trkpt>
      <trkpt lat="43.42608" lon="2.6581">
        <ele>803.9</ele>
        <time>2022-06-21T10:41:46Z</time>
      </trkpt>
      <trkpt lat="43.42608" lon="2.6581">
        <ele>803.9</ele>
        <time>2022-06-21T10:41:47Z</time>
      </trkpt>
      <trkpt lat="43.42608" lon="2.6581">
        <ele>803.9</ele>
        <time>2022-06-21T10:41:48Z</time>
      </trkpt>
      <trkpt lat="43.42608" lon="2.6581">
        <ele>803.9</ele>
        <time>2022-06-21T10:41:49Z</time>
      </trkpt>
      <trkpt lat="43.42608" lon="2.6581">
        <ele>803.9</ele>
        <time>2022-06-21T10:41:50Z</time>
      </trkpt>
      <trkpt lat="43.42608" lon="2.6581">
        <ele>803.9</ele>
        <time>2022-06-21T10:41:51Z</time>
      </trkpt>
      <trkpt lat="43.42608" lon="2.6581">
        <ele>803.9</ele>
        <time>2022-06-21T10:41:52Z</time>
      </trkpt>
      <trkpt lat="43.42608" lon="2.6581">
        <ele>803.9</ele>
        <time>2022-06-21T10:41:53Z</time>
      </trkpt>
      <trkpt lat="43.42608" lon="2.6581">
        <ele>803.9</ele>
        <time>2022-06-21T10:41:54Z</time>
      </trkpt>
      <trkpt lat="43.42608" lon="2.6581">
        <ele>803.9</ele>
        <time>2022-06-21T10:41:55Z</time>
      </trkpt>
      <trkpt lat="43.42608" lon="2.6581">
        <ele>803.9</ele>
        <time>2022-06-21T10:41:56Z</time>
      </trkpt>
      <trkpt lat="43.42608" lon="2.6581">
        <ele>803.9</ele>
        <time>2022-06-21T10:41:57Z</time>
      </trkpt>
      <trkpt lat="43.42608" lon="2.6581">
        <ele>803.9</ele>
        <time>2022-06-21T10:41:58Z</time>
      </trkpt>
      <trkpt lat="43.42608" lon="2.6581">
        <ele>803.9</ele>
        <time>2022-06-21T10:41:59Z</time>
      </trkpt>
      <trkpt lat="43.42608" lon="2.6581">
        <ele>803.9</ele>
        <time>2022-06-21T10:42:00Z</time>
      </trkpt>
      <trkpt lat="43.42608" lon="2.6581">
        <ele>803.9</ele>
        <time>2022-06-21T10:42:01Z</time>
      </trkpt>
      <trkpt lat="43.42608" lon="2.6581">
        <ele>803.9</ele>
        <time>2022-06-21T10:42:02Z</time>
      </trkpt>
      <trkpt lat="43.42608" lon="2.6581">
        <ele>803.9</ele>
        <time>2022-06-21T10:42:03Z</time>
      </trkpt>
      <trkpt lat="43.42608" lon="2.6581">
        <ele>803.9</ele>
        <time>2022-06-21T10:42:04Z</time>
      </trkpt>
      <trkpt lat="43.42608" lon="2.6581">
        <ele>803.9</ele>
        <time>2022-06-21T10:42:05Z</time>
      </trkpt>
      <trkpt lat="43.42608" lon="2.6581">
        <ele>803.9</ele>
        <time>2022-06-21T10:42:06Z</time>
      </trkpt>
      <trkpt lat="43.42608" lon="2.6581">
        <ele>803.9</ele>
        <time>2022-06-21T10:42:07Z</time>
      </trkpt>
      <trkpt lat="43.42608" lon="2.6581">
        <ele>803.9</ele>
        <time>2022-06-21T10:42:08Z</time>
      </trkpt>
      <trkpt lat="43.42608" lon="2.6581">
        <ele>803.9</ele>
        <time>2022-06-21T10:42:09Z</time>
      </trkpt>
      <trkpt lat="43.42608" lon="2.6581">
        <ele>803.9</ele>
        <time>2022-06-21T10:42:10Z</time>
      </trkpt>
      <trkpt lat="43.42608" lon="2.6581">
        <ele>803.9</ele>
        <time>2022-06-21T10:42:11Z</time>
      </trkpt>
      <trkpt lat="43.42608" lon="2.6581">
        <ele>803.9</ele>
        <time>2022-06-21T10:42:12Z</time>
      </trkpt>
      <trkpt lat="43.42608" lon="2.6581">
        <ele>803.9</ele>
        <time>2022-06-21T10:42:13Z</time>
      </trkpt>
      <trkpt lat="43.42608" lon="2.6581">
        <ele>803.9</ele>
        <time>2022-06-21T10:42:14Z</time>
      </trkpt>
      <trkpt lat="43.42608" lon="2.6581">
        <ele>803.9</ele>
        <time>2022-06-21T10:42:15Z</time>
      </trkpt>
      <trkpt lat="43.42608" lon="2.6581">
        <ele>803.9</ele>
        <time>2022-06-21T10:42:16Z</time>
      </trkpt>
      <trkpt lat="43.42608" lon="2.6581">
        <ele>803.9</ele>
        <time>2022-06-21T10:42:17Z</time>
      </trkpt>
      <trkpt lat="43.42608" lon="2.6581">
        <ele>803.9</ele>
        <time>2022-06-21T10:42:18Z</time>
      </trkpt>
      <trkpt lat="43.42608" lon="2.6581">
        <ele>803.9</ele>
        <time>2022-06-21T10:42:19Z</time>
      </trkpt>
      <trkpt lat="43.42608" lon="2.6581">
        <ele>803.9</ele>
        <time>2022-06-21T10:42:20Z</time>
      </trkpt>
      <trkpt lat="43.42608" lon="2.6581">
        <ele>803.9</ele>
        <time>2022-06-21T10:42:21Z</time>
      </trkpt>
      <trkpt lat="43.42608" lon="2.6581">
        <ele>803.9</ele>
        <time>2022-06-21T10:42:22Z</time>
      </trkpt>
      <trkpt lat="43.42608" lon="2.6581">
        <ele>803.9</ele>
        <time>2022-06-21T10:42:23Z</time>
      </trkpt>
      <trkpt lat="43.42608" lon="2.6581">
        <ele>803.9</ele>
        <time>2022-06-21T10:42:24Z</time>
      </trkpt>
      <trkpt lat="43.42608" lon="2.6581">
        <ele>803.9</ele>
        <time>2022-06-21T10:42:25Z</time>
      </trkpt>
      <trkpt lat="43.42608" lon="2.6581">
        <ele>803.9</ele>
        <time>2022-06-21T10:42:26Z</time>
      </trkpt>
      <trkpt lat="43.42608" lon="2.6581">
        <ele>803.9</ele>
        <time>2022-06-21T10:42:27Z</time>
      </trkpt>
      <trkpt lat="43.42608" lon="2.6581">
        <ele>803.9</ele>
        <time>2022-06-21T10:42:28Z</time>
      </trkpt>
      <trkpt lat="43.42608" lon="2.6581">
        <ele>803.9</ele>
        <time>2022-06-21T10:42:29Z</time>
      </trkpt>
      <trkpt lat="43.42608" lon="2.6581">
        <ele>803.9</ele>
        <time>2022-06-21T10:42:30Z</time>
      </trkpt>
      <trkpt lat="43.42608" lon="2.6581">
        <ele>803.9</ele>
        <time>2022-06-21T10:42:31Z</time>
      </trkpt>
      <trkpt lat="43.42608" lon="2.6581">
        <ele>803.9</ele>
        <time>2022-06-21T10:42:32Z</time>
      </trkpt>
      <trkpt lat="43.42608" lon="2.6581">
        <ele>803.9</ele>
        <time>2022-06-21T10:42:33Z</time>
      </trkpt>
      <trkpt lat="43.42608" lon="2.6581">
        <ele>803.9</ele>
        <time>2022-06-21T10:42:34Z</time>
      </trkpt>
      <trkpt lat="43.42608" lon="2.6581">
        <ele>803.9</ele>
        <time>2022-06-21T10:42:35Z</time>
      </trkpt>
      <trkpt lat="43.42608" lon="2.6581">
        <ele>803.9</ele>
        <time>2022-06-21T10:42:36Z</time>
      </trkpt>
      <trkpt lat="43.42608" lon="2.6581">
        <ele>803.9</ele>
        <time>2022-06-21T10:42:37Z</time>
      </trkpt>
      <trkpt lat="43.42608" lon="2.6581">
        <ele>803.9</ele>
        <time>2022-06-21T10:42:38Z</time>
      </trkpt>
      <trkpt lat="43.42608" lon="2.6581">
        <ele>803.9</ele>
        <time>2022-06-21T10:42:39Z</time>
      </trkpt>
      <trkpt lat="43.42608" lon="2.6581">
        <ele>803.9</ele>
        <time>2022-06-21T10:42:40Z</time>
      </trkpt>
      <trkpt lat="43.42608" lon="2.6581">
        <ele>803.9</ele>
        <time>2022-06-21T10:42:41Z</time>
      </trkpt>
      <trkpt lat="43.42608" lon="2.6581">
        <ele>803.9</ele>
        <time>2022-06-21T10:42:42Z</time>
      </trkpt>
      <trkpt lat="43.42608" lon="2.6581">
        <ele>803.9</ele>
        <time>2022-06-21T10:42:43Z</time>
      </trkpt>
      <trkpt lat="43.42608" lon="2.6581">
        <ele>803.9</ele>
        <time>2022-06-21T10:42:44Z</time>
      </trkpt>
      <trkpt lat="43.42608" lon="2.6581">
        <ele>803.9</ele>
        <time>2022-06-21T10:42:45Z</time>
      </trkpt>
      <trkpt lat="43.42608" lon="2.6581">
        <ele>803.9</ele>
        <time>2022-06-21T10:42:46Z</time>
      </trkpt>
      <trkpt lat="43.42608" lon="2.6581">
        <ele>803.9</ele>
        <time>2022-06-21T10:42:47Z</time>
      </trkpt>
      <trkpt lat="43.42608" lon="2.6581">
        <ele>803.9</ele>
        <time>2022-06-21T10:42:48Z</time>
      </trkpt>
      <trkpt lat="43.42608" lon="2.6581">
        <ele>803.9</ele>
        <time>2022-06-21T10:42:49Z</time>
      </trkpt>
      <trkpt lat="43.42608" lon="2.6581">
        <ele>803.9</ele>
        <time>2022-06-21T10:42:50Z</time>
      </trkpt>
      <trkpt lat="43.42608" lon="2.6581">
        <ele>803.9</ele>
        <time>2022-06-21T10:42:51Z</time>
      </trkpt>
      <trkpt lat="43.42608" lon="2.6581">
        <ele>803.9</ele>
        <time>2022-06-21T10:42:52Z</time>
      </trkpt>
      <trkpt lat="43.42608" lon="2.6581">
        <ele>803.9</ele>
        <time>2022-06-21T10:42:53Z</time>
      </trkpt>
      <trkpt lat="43.42608" lon="2.6581">
        <ele>803.9</ele>
        <time>2022-06-21T10:42:54Z</time>
      </trkpt>
      <trkpt lat="43.42608" lon="2.6581">
        <ele>803.9</ele>
        <time>2022-06-21T10:42:55Z</time>
      </trkpt>
      <trkpt lat="43.42608" lon="2.6581">
        <ele>803.9</ele>
        <time>2022-06-21T10:42:56Z</time>
      </trkpt>
      <trkpt lat="43.42608" lon="2.6581">
        <ele>803.9</ele>
        <time>2022-06-21T10:42:57Z</time>
      </trkpt>
      <trkpt lat="43.42608" lon="2.6581">
        <ele>803.9</ele>
        <time>2022-06-21T10:42:58Z</time>
      </trkpt>
      <trkpt lat="43.42608" lon="2.6581">
        <ele>803.9</ele>
        <time>2022-06-21T10:42:59Z</time>
      </trkpt>
      <trkpt lat="43.42608" lon="2.6581">
        <ele>803.9</ele>
        <time>2022-06-21T10:43:00Z</time>
      </trkpt>
      <trkpt lat="43.42608" lon="2.6581">
        <ele>803.9</ele>
        <time>2022-06-21T10:43:01Z</time>
      </trkpt>
      <trkpt lat="43.42608" lon="2.6581">
        <ele>803.9</ele>
        <time>2022-06-21T10:43:02Z</time>
      </trkpt>
      <trkpt lat="43.42608" lon="2.6581">
        <ele>803.9</ele>
        <time>2022-06-21T10:43:03Z</time>
      </trkpt>
      <trkpt lat="43.42608" lon="2.6581">
        <ele>803.9</ele>
        <time>2022-06-21T10:43:04Z</time>
      </trkpt>
      <trkpt lat="43.42608" lon="2.6581">
        <ele>803.9</ele>
        <time>2022-06-21T10:43:05Z</time>
      </trkpt>
      <trkpt lat="43.42608" lon="2.6581">
        <ele>803.9</ele>
        <time>2022-06-21T10:43:06Z</time>
      </trkpt>
      <trkpt lat="43.42608" lon="2.6581">
        <ele>803.9</ele>
        <time>2022-06-21T10:43:07Z</time>
      </trkpt>
      <trkpt lat="43.42608" lon="2.6581">
        <ele>803.9</ele>
        <time>2022-06-21T10:43:08Z</time>
      </trkpt>
      <trkpt lat="43.42608" lon="2.6581">
        <ele>803.9</ele>
        <time>2022-06-21T10:43:09Z</time>
      </trkpt>
      <trkpt lat="43.42608" lon="2.6581">
        <ele>803.9</ele>
        <time>2022-06-21T10:43:10Z</time>
      </trkpt>
      <trkpt lat="43.42608" lon="2.6581">
        <ele>803.9</ele>
        <time>2022-06-21T10:43:11Z</time>
      </trkpt>
      <trkpt lat="43.42608" lon="2.6581">
        <ele>803.9</ele>
        <time>2022-06-21T10:43:12Z</time>
      </trkpt>
      <trkpt lat="43.42608" lon="2.6581">
        <ele>803.9</ele>
        <time>2022-06-21T10:43:13Z</time>
      </trkpt>
      <trkpt lat="43.42608" lon="2.6581">
        <ele>803.9</ele>
        <time>2022-06-21T10:43:14Z</time>
      </trkpt>
      <trkpt lat="43.42608" lon="2.6581">
        <ele>803.9</ele>
        <time>2022-06-21T10:43:15Z</time>
      </trkpt>
      <trkpt lat="43.42608" lon="2.6581">
        <ele>803.9</ele>
        <time>2022-06-21T10:43:16Z</time>
      </trkpt>
      <trkpt lat="43.42608" lon="2.6581">
        <ele>803.9</ele>
        <time>2022-06-21T10:43:17Z</time>
      </trkpt>
      <trkpt lat="43.42608" lon="2.6581">
        <ele>803.9</ele>
        <time>2022-06-21T10:43:18Z</time>
      </trkpt>
      <trkpt lat="43.42608" lon="2.6581">
        <ele>803.9</ele>
        <time>2022-06-21T10:43:19Z</time>
      </trkpt>
      <trkpt lat="43.42608" lon="2.6581">
        <ele>803.9</ele>
        <time>2022-06-21T10:43:20Z</time>
      </trkpt>
      <trkpt lat="43.42608" lon="2.6581">
        <ele>803.9</ele>
        <time>2022-06-21T10:43:21Z</time>
      </trkpt>
      <trkpt lat="43.42608" lon="2.6581">
        <ele>803.9</ele>
        <time>2022-06-21T10:43:22Z</time>
      </trkpt>
      <trkpt lat="43.42608" lon="2.6581">
        <ele>803.9</ele>
        <time>2022-06-21T10:43:23Z</time>
      </trkpt>
      <trkpt lat="43.42608" lon="2.6581">
        <ele>803.9</ele>
        <time>2022-06-21T10:43:24Z</time>
      </trkpt>
      <trkpt lat="43.42608" lon="2.6581">
        <ele>803.9</ele>
        <time>2022-06-21T10:43:25Z</time>
      </trkpt>
      <trkpt lat="43.42608" lon="2.6581">
        <ele>803.9</ele>
        <time>2022-06-21T10:43:26Z</time>
      </trkpt>
      <trkpt lat="43.42608" lon="2.6581">
        <ele>803.9</ele>
        <time>2022-06-21T10:43:27Z</time>
      </trkpt>
      <trkpt lat="43.42608" lon="2.6581">
        <ele>803.9</ele>
        <time>2022-06-21T10:43:28Z</time>
      </trkpt>
      <trkpt lat="43.42608" lon="2.6581">
        <ele>803.9</ele>
        <time>2022-06-21T10:43:29Z</time>
      </trkpt>
      <trkpt lat="43.42608" lon="2.6581">
        <ele>803.9</ele>
        <time>2022-06-21T10:43:30Z</time>
      </trkpt>
      <trkpt lat="43.42608" lon="2.6581">
        <ele>803.9</ele>
        <time>2022-06-21T10:43:31Z</time>
      </trkpt>
      <trkpt lat="43.42608" lon="2.6581">
        <ele>803.9</ele>
        <time>2022-06-21T10:43:32Z</time>
      </trkpt>
      <trkpt lat="43.42608" lon="2.6581">
        <ele>803.9</ele>
        <time>2022-06-21T10:43:33Z</time>
      </trkpt>
      <trkpt lat="43.42608" lon="2.6581">
        <ele>803.9</ele>
        <time>2022-06-21T10:43:34Z</time>
      </trkpt>
      <trkpt lat="43.42608" lon="2.6581">
        <ele>803.9</ele>
        <time>2022-06-21T10:43:35Z</time>
      </trkpt>
      <trkpt lat="43.42608" lon="2.6581">
        <ele>803.9</ele>
        <time>2022-06-21T10:43:36Z</time>
      </trkpt>
      <trkpt lat="43.42608" lon="2.6581">
        <ele>803.9</ele>
        <time>2022-06-21T10:43:37Z</time>
      </trkpt>
      <trkpt lat="43.42608" lon="2.6581">
        <ele>803.9</ele>
        <time>2022-06-21T10:43:38Z</time>
      </trkpt>
      <trkpt lat="43.42608" lon="2.6581">
        <ele>803.9</ele>
        <time>2022-06-21T10:43:39Z</time>
      </trkpt>
      <trkpt lat="43.42608" lon="2.6581">
        <ele>803.9</ele>
        <time>2022-06-21T10:43:40Z</time>
      </trkpt>
      <trkpt lat="43.42608" lon="2.6581">
        <ele>803.9</ele>
        <time>2022-06-21T10:43:41Z</time>
      </trkpt>
      <trkpt lat="43.42608" lon="2.6581">
        <ele>803.9</ele>
        <time>2022-06-21T10:43:42Z</time>
      </trkpt>
      <trkpt lat="43.42608" lon="2.6581">
        <ele>803.9</ele>
        <time>2022-06-21T10:43:43Z</time>
      </trkpt>
      <trkpt lat="43.42608" lon="2.6581">
        <ele>803.9</ele>
        <time>2022-06-21T10:43:44Z</time>
      </trkpt>
      <trkpt lat="43.42608" lon="2.6581">
        <ele>803.9</ele>
        <time>2022-06-21T10:43:45Z</time>
      </trkpt>
      <trkpt lat="43.42608" lon="2.6581">
        <ele>803.9</ele>
        <time>2022-06-21T10:43:46Z</time>
      </trkpt>
      <trkpt lat="43.42608" lon="2.6581">
        <ele>803.9</ele>
        <time>2022-06-21T10:43:47Z</time>
      </trkpt>
      <trkpt lat="43.42608" lon="2.6581">
        <ele>803.9</ele>
        <time>2022-06-21T10:43:48Z</time>
      </trkpt>
      <trkpt lat="43.42608" lon="2.6581">
        <ele>803.9</ele>
        <time>2022-06-21T10:43:49Z</time>
      </trkpt>
      <trkpt lat="43.42608" lon="2.6581">
        <ele>803.9</ele>
        <time>2022-06-21T10:43:50Z</time>
      </trkpt>
      <trkpt lat="43.42608" lon="2.6581">
        <ele>803.9</ele>
        <time>2022-06-21T10:43:51Z</time>
      </trkpt>
      <trkpt lat="43.42608" lon="2.6581">
        <ele>803.9</ele>
        <time>2022-06-21T10:43:52Z</time>
      </trkpt>
      <trkpt lat="43.42608" lon="2.6581">
        <ele>803.9</ele>
        <time>2022-06-21T10:43:53Z</time>
      </trkpt>
      <trkpt lat="43.42608" lon="2.6581">
        <ele>803.9</ele>
        <time>2022-06-21T10:43:54Z</time>
      </trkpt>
      <trkpt lat="43.42608" lon="2.6581">
        <ele>803.9</ele>
        <time>2022-06-21T10:43:55Z</time>
      </trkpt>
      <trkpt lat="43.42608" lon="2.6581">
        <ele>803.9</ele>
        <time>2022-06-21T10:43:56Z</time>
      </trkpt>
      <trkpt lat="43.42608" lon="2.6581">
        <ele>803.9</ele>
        <time>2022-06-21T10:43:57Z</time>
      </trkpt>
      <trkpt lat="43.42608" lon="2.6581">
        <ele>803.9</ele>
        <time>2022-06-21T10:43:58Z</time>
      </trkpt>
      <trkpt lat="43.42608" lon="2.6581">
        <ele>803.9</ele>
        <time>2022-06-21T10:43:59Z</time>
      </trkpt>
      <trkpt lat="43.42608" lon="2.6581">
        <ele>803.9</ele>
        <time>2022-06-21T10:44:00Z</time>
      </trkpt>
      <trkpt lat="43.42608" lon="2.6581">
        <ele>803.9</ele>
        <time>2022-06-21T10:44:01Z</time>
      </trkpt>
      <trkpt lat="43.42608" lon="2.6581">
        <ele>803.9</ele>
        <time>2022-06-21T10:44:02Z</time>
      </trkpt>
      <trkpt lat="43.42608" lon="2.6581">
        <ele>803.9</ele>
        <time>2022-06-21T10:44:03Z</time>
      </trkpt>
      <trkpt lat="43.42608" lon="2.6581">
        <ele>803.9</ele>
        <time>2022-06-21T10:44:04Z</time>
      </trkpt>
      <trkpt lat="43.42608" lon="2.6581">
        <ele>803.9</ele>
        <time>2022-06-21T10:44:05Z</time>
      </trkpt>
      <trkpt lat="43.42608" lon="2.6581">
        <ele>803.9</ele>
        <time>2022-06-21T10:44:06Z</time>
      </trkpt>
      <trkpt lat="43.42608" lon="2.6581">
        <ele>803.9</ele>
        <time>2022-06-21T10:44:07Z</time>
      </trkpt>
      <trkpt lat="43.42608" lon="2.6581">
        <ele>803.9</ele>
        <time>2022-06-21T10:44:08Z</time>
      </trkpt>
      <trkpt lat="43.42608" lon="2.6581">
        <ele>803.9</ele>
        <time>2022-06-21T10:44:09Z</time>
      </trkpt>
      <trkpt lat="43.42608" lon="2.6581">
        <ele>803.9</ele>
        <time>2022-06-21T10:44:10Z</time>
      </trkpt>
      <trkpt lat="43.42608" lon="2.6581">
        <ele>803.9</ele>
        <time>2022-06-21T10:44:11Z</time>
      </trkpt>
      <trkpt lat="43.42608" lon="2.6581">
        <ele>803.9</ele>
        <time>2022-06-21T10:44:12Z</time>
      </trkpt>
      <trkpt lat="43.42608" lon="2.6581">
        <ele>803.9</ele>
        <time>2022-06-21T10:44:13Z</time>
      </trkpt>
      <trkpt lat="43.42608" lon="2.6581">
        <ele>803.9</ele>
        <time>2022-06-21T10:44:14Z</time>
      </trkpt>
      <trkpt lat="43.42608" lon="2.6581">
        <ele>803.9</ele>
        <time>2022-06-21T10:44:15Z</time>
      </trkpt>
      <trkpt lat="43.42608" lon="2.6581">
        <ele>803.9</ele>
        <time>2022-06-21T10:44:16Z</time>
      </trkpt>
      <trkpt lat="43.42608" lon="2.6581">
        <ele>803.9</ele>
        <time>2022-06-21T10:44:17Z</time>
      </trkpt>
      <trkpt lat="43.42608" lon="2.6581">
        <ele>803.9</ele>
        <time>2022-06-21T10:44:18Z</time>
      </trkpt>
      <trkpt lat="43.42608" lon="2.6581">
        <ele>803.9</ele>
        <time>2022-06-21T10:44:19Z</time>
      </trkpt>
      <trkpt lat="43.42608" lon="2.6581">
        <ele>803.9</ele>
        <time>2022-06-21T10:44:20Z</time>
      </trkpt>
      <trkpt lat="43.42608" lon="2.6581">
        <ele>803.9</ele>
        <time>2022-06-21T10:44:21Z</time>
      </trkpt>
      <trkpt lat="43.42608" lon="2.6581">
        <ele>803.9</ele>
        <time>2022-06-21T10:44:22Z</time>
      </trkpt>
      <trkpt lat="43.42608" lon="2.6581">
        <ele>803.9</ele>
        <time>2022-06-21T10:44:23Z</time>
      </trkpt>
      <trkpt lat="43.42608" lon="2.6581">
        <ele>803.9</ele>
        <time>2022-06-21T10:44:24Z</time>
      </trkpt>
      <trkpt lat="43.42608" lon="2.6581">
        <ele>803.9</ele>
        <time>2022-06-21T10:44:25Z</time>
      </trkpt>
      <trkpt lat="43.42608" lon="2.6581">
        <ele>803.9</ele>
        <time>2022-06-21T10:44:26Z</time>
      </trkpt>
      <trkpt lat="43.42608" lon="2.6581">
        <ele>803.9</ele>
        <time>2022-06-21T10:44:27Z</time>
      </trkpt>
      <trkpt lat="43.42608" lon="2.6581">
        <ele>803.9</ele>
        <time>2022-06-21T10:44:28Z</time>
      </trkpt>
      <trkpt lat="43.42608" lon="2.6581">
        <ele>803.9</ele>
        <time>2022-06-21T10:44:29Z</time>
      </trkpt>
      <trkpt lat="43.42608" lon="2.6581">
        <ele>803.9</ele>
        <time>2022-06-21T10:44:30Z</time>
      </trkpt>
      <trkpt lat="43.42608" lon="2.6581">
        <ele>803.9</ele>
        <time>2022-06-21T10:44:31Z</time>
      </trkpt>
      <trkpt lat="43.42608" lon="2.6581">
        <ele>803.9</ele>
        <time>2022-06-21T10:44:32Z</time>
      </trkpt>
      <trkpt lat="43.42608" lon="2.6581">
        <ele>803.9</ele>
        <time>2022-06-21T10:44:33Z</time>
      </trkpt>
      <trkpt lat="43.42608" lon="2.6581">
        <ele>803.9</ele>
        <time>2022-06-21T10:44:34Z</time>
      </trkpt>
      <trkpt lat="43.42608" lon="2.6581">
        <ele>803.9</ele>
        <time>2022-06-21T10:44:35Z</time>
      </trkpt>
      <trkpt lat="43.42608" lon="2.6581">
        <ele>803.9</ele>
        <time>2022-06-21T10:44:36Z</time>
      </trkpt>
      <trkpt lat="43.42608" lon="2.6581">
        <ele>803.9</ele>
        <time>2022-06-21T10:44:37Z</time>
      </trkpt>
      <trkpt lat="43.42608" lon="2.6581">
        <ele>803.9</ele>
        <time>2022-06-21T10:44:38Z</time>
      </trkpt>
      <trkpt lat="43.42608" lon="2.6581">
        <ele>803.9</ele>
        <time>2022-06-21T10:44:39Z</time>
      </trkpt>
      <trkpt lat="43.42608" lon="2.6581">
        <ele>803.9</ele>
        <time>2022-06-21T10:44:40Z</time>
      </trkpt>
      <trkpt lat="43.42608" lon="2.6581">
        <ele>803.9</ele>
        <time>2022-06-21T10:44:41Z</time>
      </trkpt>
      <trkpt lat="43.42608" lon="2.6581">
        <ele>803.9</ele>
        <time>2022-06-21T10:44:42Z</time>
      </trkpt>
      <trkpt lat="43.42608" lon="2.6581">
        <ele>803.9</ele>
        <time>2022-06-21T10:44:43Z</time>
      </trkpt>
      <trkpt lat="43.42607" lon="2.65809">
        <ele>803.9</ele>
        <time>2022-06-21T10:44:44Z</time>
      </trkpt>
      <trkpt lat="43.42607" lon="2.65809">
        <ele>803.9</ele>
        <time>2022-06-21T10:44:45Z</time>
      </trkpt>
      <trkpt lat="43.42607" lon="2.65809">
        <ele>803.9</ele>
        <time>2022-06-21T10:44:46Z</time>
      </trkpt>
      <trkpt lat="43.42607" lon="2.65809">
        <ele>803.9</ele>
        <time>2022-06-21T10:44:47Z</time>
      </trkpt>
      <trkpt lat="43.42607" lon="2.65809">
        <ele>803.9</ele>
        <time>2022-06-21T10:44:48Z</time>
      </trkpt>
      <trkpt lat="43.42607" lon="2.65809">
        <ele>803.9</ele>
        <time>2022-06-21T10:44:49Z</time>
      </trkpt>
      <trkpt lat="43.42607" lon="2.65809">
        <ele>803.9</ele>
        <time>2022-06-21T10:44:50Z</time>
      </trkpt>
      <trkpt lat="43.42607" lon="2.65809">
        <ele>803.9</ele>
        <time>2022-06-21T10:44:51Z</time>
      </trkpt>
      <trkpt lat="43.42607" lon="2.65809">
        <ele>803.9</ele>
        <time>2022-06-21T10:44:52Z</time>
      </trkpt>
      <trkpt lat="43.42607" lon="2.65809">
        <ele>803.9</ele>
        <time>2022-06-21T10:44:53Z</time>
      </trkpt>
      <trkpt lat="43.42607" lon="2.65809">
        <ele>803.9</ele>
        <time>2022-06-21T10:44:54Z</time>
      </trkpt>
      <trkpt lat="43.42607" lon="2.65809">
        <ele>803.9</ele>
        <time>2022-06-21T10:44:55Z</time>
      </trkpt>
      <trkpt lat="43.42607" lon="2.65809">
        <ele>803.9</ele>
        <time>2022-06-21T10:44:56Z</time>
      </trkpt>
      <trkpt lat="43.42607" lon="2.65809">
        <ele>803.9</ele>
        <time>2022-06-21T10:44:57Z</time>
      </trkpt>
      <trkpt lat="43.42607" lon="2.65809">
        <ele>803.9</ele>
        <time>2022-06-21T10:44:58Z</time>
      </trkpt>
      <trkpt lat="43.42607" lon="2.65809">
        <ele>803.9</ele>
        <time>2022-06-21T10:44:59Z</time>
      </trkpt>
      <trkpt lat="43.42607" lon="2.65809">
        <ele>803.9</ele>
        <time>2022-06-21T10:45:00Z</time>
      </trkpt>
      <trkpt lat="43.42607" lon="2.65809">
        <ele>803.9</ele>
        <time>2022-06-21T10:45:01Z</time>
      </trkpt>
      <trkpt lat="43.42607" lon="2.65809">
        <ele>803.9</ele>
        <time>2022-06-21T10:45:02Z</time>
      </trkpt>
      <trkpt lat="43.42607" lon="2.65809">
        <ele>803.9</ele>
        <time>2022-06-21T10:45:03Z</time>
      </trkpt>
      <trkpt lat="43.42607" lon="2.65809">
        <ele>803.9</ele>
        <time>2022-06-21T10:45:04Z</time>
      </trkpt>
      <trkpt lat="43.42607" lon="2.65809">
        <ele>803.9</ele>
        <time>2022-06-21T10:45:05Z</time>
      </trkpt>
      <trkpt lat="43.42607" lon="2.65809">
        <ele>803.9</ele>
        <time>2022-06-21T10:45:06Z</time>
      </trkpt>
      <trkpt lat="43.42607" lon="2.65809">
        <ele>803.9</ele>
        <time>2022-06-21T10:45:07Z</time>
      </trkpt>
      <trkpt lat="43.42607" lon="2.65809">
        <ele>803.9</ele>
        <time>2022-06-21T10:45:08Z</time>
      </trkpt>
      <trkpt lat="43.42607" lon="2.65809">
        <ele>803.9</ele>
        <time>2022-06-21T10:45:09Z</time>
      </trkpt>
      <trkpt lat="43.42607" lon="2.65809">
        <ele>803.9</ele>
        <time>2022-06-21T10:45:10Z</time>
      </trkpt>
      <trkpt lat="43.42607" lon="2.65809">
        <ele>803.9</ele>
        <time>2022-06-21T10:45:11Z</time>
      </trkpt>
      <trkpt lat="43.42607" lon="2.65809">
        <ele>803.9</ele>
        <time>2022-06-21T10:45:12Z</time>
      </trkpt>
      <trkpt lat="43.42607" lon="2.65809">
        <ele>803.9</ele>
        <time>2022-06-21T10:45:13Z</time>
      </trkpt>
      <trkpt lat="43.42607" lon="2.65809">
        <ele>803.9</ele>
        <time>2022-06-21T10:45:14Z</time>
      </trkpt>
      <trkpt lat="43.42607" lon="2.65809">
        <ele>803.9</ele>
        <time>2022-06-21T10:45:15Z</time>
      </trkpt>
      <trkpt lat="43.42607" lon="2.65809">
        <ele>803.9</ele>
        <time>2022-06-21T10:45:16Z</time>
      </trkpt>
      <trkpt lat="43.42607" lon="2.65809">
        <ele>803.9</ele>
        <time>2022-06-21T10:45:17Z</time>
      </trkpt>
      <trkpt lat="43.42607" lon="2.65809">
        <ele>803.9</ele>
        <time>2022-06-21T10:45:18Z</time>
      </trkpt>
      <trkpt lat="43.42607" lon="2.65809">
        <ele>803.9</ele>
        <time>2022-06-21T10:45:19Z</time>
      </trkpt>
      <trkpt lat="43.42607" lon="2.65809">
        <ele>803.9</ele>
        <time>2022-06-21T10:45:20Z</time>
      </trkpt>
      <trkpt lat="43.42607" lon="2.65809">
        <ele>803.9</ele>
        <time>2022-06-21T10:45:21Z</time>
      </trkpt>
      <trkpt lat="43.42607" lon="2.65809">
        <ele>803.9</ele>
        <time>2022-06-21T10:45:22Z</time>
      </trkpt>
      <trkpt lat="43.42607" lon="2.65809">
        <ele>803.9</ele>
        <time>2022-06-21T10:45:23Z</time>
      </trkpt>
      <trkpt lat="43.42607" lon="2.65809">
        <ele>803.9</ele>
        <time>2022-06-21T10:45:24Z</time>
      </trkpt>
      <trkpt lat="43.42607" lon="2.65809">
        <ele>803.9</ele>
        <time>2022-06-21T10:45:25Z</time>
      </trkpt>
      <trkpt lat="43.42607" lon="2.65809">
        <ele>803.9</ele>
        <time>2022-06-21T10:45:26Z</time>
      </trkpt>
      <trkpt lat="43.42607" lon="2.65809">
        <ele>803.9</ele>
        <time>2022-06-21T10:45:27Z</time>
      </trkpt>
      <trkpt lat="43.42607" lon="2.65809">
        <ele>803.9</ele>
        <time>2022-06-21T10:45:28Z</time>
      </trkpt>
      <trkpt lat="43.42607" lon="2.65809">
        <ele>803.9</ele>
        <time>2022-06-21T10:45:29Z</time>
      </trkpt>
      <trkpt lat="43.42607" lon="2.65809">
        <ele>803.9</ele>
        <time>2022-06-21T10:45:30Z</time>
      </trkpt>
      <trkpt lat="43.42607" lon="2.65809">
        <ele>803.9</ele>
        <time>2022-06-21T10:45:31Z</time>
      </trkpt>
      <trkpt lat="43.42607" lon="2.65809">
        <ele>803.9</ele>
        <time>2022-06-21T10:45:32Z</time>
      </trkpt>
      <trkpt lat="43.42607" lon="2.65809">
        <ele>803.9</ele>
        <time>2022-06-21T10:45:33Z</time>
      </trkpt>
      <trkpt lat="43.42607" lon="2.65809">
        <ele>803.9</ele>
        <time>2022-06-21T10:45:34Z</time>
      </trkpt>
      <trkpt lat="43.42607" lon="2.65809">
        <ele>803.9</ele>
        <time>2022-06-21T10:45:35Z</time>
      </trkpt>
      <trkpt lat="43.42607" lon="2.65809">
        <ele>803.9</ele>
        <time>2022-06-21T10:45:36Z</time>
      </trkpt>
      <trkpt lat="43.42607" lon="2.65809">
        <ele>803.9</ele>
        <time>2022-06-21T10:45:37Z</time>
      </trkpt>
      <trkpt lat="43.42607" lon="2.65809">
        <ele>803.9</ele>
        <time>2022-06-21T10:45:38Z</time>
      </trkpt>
      <trkpt lat="43.42607" lon="2.65809">
        <ele>803.9</ele>
        <time>2022-06-21T10:45:39Z</time>
      </trkpt>
      <trkpt lat="43.42607" lon="2.65809">
        <ele>803.9</ele>
        <time>2022-06-21T10:45:40Z</time>
      </trkpt>
      <trkpt lat="43.42607" lon="2.65809">
        <ele>803.9</ele>
        <time>2022-06-21T10:45:41Z</time>
      </trkpt>
      <trkpt lat="43.42607" lon="2.65809">
        <ele>803.9</ele>
        <time>2022-06-21T10:45:42Z</time>
      </trkpt>
      <trkpt lat="43.42607" lon="2.65809">
        <ele>803.9</ele>
        <time>2022-06-21T10:45:43Z</time>
      </trkpt>
      <trkpt lat="43.42607" lon="2.65809">
        <ele>803.9</ele>
        <time>2022-06-21T10:45:44Z</time>
      </trkpt>
      <trkpt lat="43.42607" lon="2.65809">
        <ele>803.9</ele>
        <time>2022-06-21T10:45:45Z</time>
      </trkpt>
      <trkpt lat="43.42607" lon="2.65809">
        <ele>803.9</ele>
        <time>2022-06-21T10:45:46Z</time>
      </trkpt>
      <trkpt lat="43.42607" lon="2.65809">
        <ele>803.9</ele>
        <time>2022-06-21T10:45:47Z</time>
      </trkpt>
      <trkpt lat="43.42607" lon="2.65809">
        <ele>803.9</ele>
        <time>2022-06-21T10:45:48Z</time>
      </trkpt>
      <trkpt lat="43.42607" lon="2.65809">
        <ele>803.9</ele>
        <time>2022-06-21T10:45:49Z</time>
      </trkpt>
      <trkpt lat="43.42607" lon="2.65809">
        <ele>803.9</ele>
        <time>2022-06-21T10:45:50Z</time>
      </trkpt>
      <trkpt lat="43.42607" lon="2.65809">
        <ele>803.9</ele>
        <time>2022-06-21T10:45:51Z</time>
      </trkpt>
      <trkpt lat="43.42607" lon="2.65809">
        <ele>803.9</ele>
        <time>2022-06-21T10:45:52Z</time>
      </trkpt>
      <trkpt lat="43.42607" lon="2.65809">
        <ele>803.9</ele>
        <time>2022-06-21T10:45:53Z</time>
      </trkpt>
      <trkpt lat="43.42607" lon="2.65809">
        <ele>803.9</ele>
        <time>2022-06-21T10:45:54Z</time>
      </trkpt>
      <trkpt lat="43.42607" lon="2.65809">
        <ele>803.9</ele>
        <time>2022-06-21T10:45:55Z</time>
      </trkpt>
      <trkpt lat="43.42607" lon="2.65809">
        <ele>803.9</ele>
        <time>2022-06-21T10:45:56Z</time>
      </trkpt>
      <trkpt lat="43.42607" lon="2.65809">
        <ele>803.9</ele>
        <time>2022-06-21T10:45:57Z</time>
      </trkpt>
      <trkpt lat="43.42607" lon="2.65809">
        <ele>803.9</ele>
        <time>2022-06-21T10:45:58Z</time>
      </trkpt>
      <trkpt lat="43.42607" lon="2.65809">
        <ele>803.9</ele>
        <time>2022-06-21T10:45:59Z</time>
      </trkpt>
      <trkpt lat="43.42607" lon="2.65809">
        <ele>803.9</ele>
        <time>2022-06-21T10:46:00Z</time>
      </trkpt>
      <trkpt lat="43.42607" lon="2.65809">
        <ele>803.9</ele>
        <time>2022-06-21T10:46:01Z</time>
      </trkpt>
      <trkpt lat="43.42607" lon="2.65809">
        <ele>803.9</ele>
        <time>2022-06-21T10:46:02Z</time>
      </trkpt>
      <trkpt lat="43.42607" lon="2.65809">
        <ele>803.9</ele>
        <time>2022-06-21T10:46:03Z</time>
      </trkpt>
      <trkpt lat="43.42607" lon="2.65809">
        <ele>803.9</ele>
        <time>2022-06-21T10:46:04Z</time>
      </trkpt>
      <trkpt lat="43.42607" lon="2.65809">
        <ele>803.9</ele>
        <time>2022-06-21T10:46:05Z</time>
      </trkpt>
      <trkpt lat="43.42607" lon="2.65809">
        <ele>803.9</ele>
        <time>2022-06-21T10:46:06Z</time>
      </trkpt>
      <trkpt lat="43.42607" lon="2.65809">
        <ele>803.9</ele>
        <time>2022-06-21T10:46:07Z</time>
      </trkpt>
      <trkpt lat="43.42607" lon="2.65809">
        <ele>803.9</ele>
        <time>2022-06-21T10:46:08Z</time>
      </trkpt>
      <trkpt lat="43.42607" lon="2.65809">
        <ele>803.9</ele>
        <time>2022-06-21T10:46:09Z</time>
      </trkpt>
      <trkpt lat="43.42607" lon="2.65809">
        <ele>803.9</ele>
        <time>2022-06-21T10:46:10Z</time>
      </trkpt>
      <trkpt lat="43.42607" lon="2.65809">
        <ele>803.9</ele>
        <time>2022-06-21T10:46:11Z</time>
      </trkpt>
      <trkpt lat="43.42607" lon="2.65809">
        <ele>803.9</ele>
        <time>2022-06-21T10:46:12Z</time>
      </trkpt>
      <trkpt lat="43.42607" lon="2.65809">
        <ele>803.9</ele>
        <time>2022-06-21T10:46:13Z</time>
      </trkpt>
      <trkpt lat="43.42607" lon="2.65809">
        <ele>803.9</ele>
        <time>2022-06-21T10:46:14Z</time>
      </trkpt>
      <trkpt lat="43.42607" lon="2.65809">
        <ele>803.9</ele>
        <time>2022-06-21T10:46:15Z</time>
      </trkpt>
      <trkpt lat="43.42607" lon="2.65809">
        <ele>803.9</ele>
        <time>2022-06-21T10:46:16Z</time>
      </trkpt>
      <trkpt lat="43.42607" lon="2.65809">
        <ele>803.9</ele>
        <time>2022-06-21T10:46:17Z</time>
      </trkpt>
      <trkpt lat="43.42607" lon="2.65809">
        <ele>803.9</ele>
        <time>2022-06-21T10:46:18Z</time>
      </trkpt>
      <trkpt lat="43.42607" lon="2.65809">
        <ele>803.9</ele>
        <time>2022-06-21T10:46:19Z</time>
      </trkpt>
      <trkpt lat="43.42607" lon="2.65809">
        <ele>803.9</ele>
        <time>2022-06-21T10:46:20Z</time>
      </trkpt>
      <trkpt lat="43.42607" lon="2.65809">
        <ele>803.9</ele>
        <time>2022-06-21T10:46:21Z</time>
      </trkpt>
      <trkpt lat="43.42607" lon="2.65809">
        <ele>803.9</ele>
        <time>2022-06-21T10:46:22Z</time>
      </trkpt>
      <trkpt lat="43.42607" lon="2.65809">
        <ele>803.9</ele>
        <time>2022-06-21T10:46:23Z</time>
      </trkpt>
      <trkpt lat="43.42607" lon="2.65809">
        <ele>803.9</ele>
        <time>2022-06-21T10:46:24Z</time>
      </trkpt>
      <trkpt lat="43.42607" lon="2.65809">
        <ele>803.9</ele>
        <time>2022-06-21T10:46:25Z</time>
      </trkpt>
      <trkpt lat="43.42607" lon="2.65809">
        <ele>803.9</ele>
        <time>2022-06-21T10:46:26Z</time>
      </trkpt>
      <trkpt lat="43.42607" lon="2.65809">
        <ele>803.9</ele>
        <time>2022-06-21T10:46:27Z</time>
      </trkpt>
      <trkpt lat="43.42607" lon="2.65809">
        <ele>803.9</ele>
        <time>2022-06-21T10:46:28Z</time>
      </trkpt>
      <trkpt lat="43.42607" lon="2.65809">
        <ele>803.9</ele>
        <time>2022-06-21T10:46:29Z</time>
      </trkpt>
      <trkpt lat="43.42607" lon="2.65809">
        <ele>803.9</ele>
        <time>2022-06-21T10:46:30Z</time>
      </trkpt>
      <trkpt lat="43.42607" lon="2.65809">
        <ele>803.9</ele>
        <time>2022-06-21T10:46:31Z</time>
      </trkpt>
      <trkpt lat="43.42607" lon="2.65808">
        <ele>803.9</ele>
        <time>2022-06-21T10:46:32Z</time>
      </trkpt>
      <trkpt lat="43.42607" lon="2.65808">
        <ele>803.9</ele>
        <time>2022-06-21T10:46:33Z</time>
      </trkpt>
      <trkpt lat="43.42607" lon="2.65808">
        <ele>803.9</ele>
        <time>2022-06-21T10:46:34Z</time>
      </trkpt>
      <trkpt lat="43.42607" lon="2.65808">
        <ele>803.9</ele>
        <time>2022-06-21T10:46:35Z</time>
      </trkpt>
      <trkpt lat="43.42607" lon="2.65808">
        <ele>803.9</ele>
        <time>2022-06-21T10:46:36Z</time>
      </trkpt>
      <trkpt lat="43.42607" lon="2.65808">
        <ele>803.9</ele>
        <time>2022-06-21T10:46:37Z</time>
      </trkpt>
      <trkpt lat="43.42607" lon="2.65808">
        <ele>803.9</ele>
        <time>2022-06-21T10:46:38Z</time>
      </trkpt>
      <trkpt lat="43.42607" lon="2.65808">
        <ele>803.9</ele>
        <time>2022-06-21T10:46:39Z</time>
      </trkpt>
      <trkpt lat="43.42607" lon="2.65808">
        <ele>803.9</ele>
        <time>2022-06-21T10:46:40Z</time>
      </trkpt>
      <trkpt lat="43.42607" lon="2.65808">
        <ele>803.9</ele>
        <time>2022-06-21T10:46:41Z</time>
      </trkpt>
      <trkpt lat="43.42607" lon="2.65808">
        <ele>803.9</ele>
        <time>2022-06-21T10:46:42Z</time>
      </trkpt>
      <trkpt lat="43.42607" lon="2.65808">
        <ele>803.9</ele>
        <time>2022-06-21T10:46:43Z</time>
      </trkpt>
      <trkpt lat="43.42607" lon="2.65808">
        <ele>803.9</ele>
        <time>2022-06-21T10:46:44Z</time>
      </trkpt>
      <trkpt lat="43.42607" lon="2.65808">
        <ele>803.9</ele>
        <time>2022-06-21T10:46:45Z</time>
      </trkpt>
      <trkpt lat="43.42607" lon="2.65808">
        <ele>803.9</ele>
        <time>2022-06-21T10:46:46Z</time>
      </trkpt>
      <trkpt lat="43.42607" lon="2.65808">
        <ele>803.9</ele>
        <time>2022-06-21T10:46:47Z</time>
      </trkpt>
      <trkpt lat="43.42607" lon="2.65808">
        <ele>803.9</ele>
        <time>2022-06-21T10:46:48Z</time>
      </trkpt>
      <trkpt lat="43.42607" lon="2.65808">
        <ele>803.9</ele>
        <time>2022-06-21T10:46:49Z</time>
      </trkpt>
      <trkpt lat="43.42607" lon="2.65808">
        <ele>803.9</ele>
        <time>2022-06-21T10:46:50Z</time>
      </trkpt>
      <trkpt lat="43.42607" lon="2.65808">
        <ele>803.9</ele>
        <time>2022-06-21T10:46:51Z</time>
      </trkpt>
      <trkpt lat="43.42607" lon="2.65808">
        <ele>803.9</ele>
        <time>2022-06-21T10:46:52Z</time>
      </trkpt>
      <trkpt lat="43.42607" lon="2.65808">
        <ele>803.9</ele>
        <time>2022-06-21T10:46:54Z</time>
      </trkpt>
      <trkpt lat="43.42607" lon="2.65808">
        <ele>803.9</ele>
        <time>2022-06-21T10:46:55Z</time>
      </trkpt>
      <trkpt lat="43.42607" lon="2.65808">
        <ele>803.9</ele>
        <time>2022-06-21T10:46:56Z</time>
      </trkpt>
      <trkpt lat="43.42607" lon="2.65808">
        <ele>803.9</ele>
        <time>2022-06-21T10:46:57Z</time>
      </trkpt>
      <trkpt lat="43.42607" lon="2.65808">
        <ele>803.9</ele>
        <time>2022-06-21T10:46:58Z</time>
      </trkpt>
      <trkpt lat="43.42607" lon="2.65808">
        <ele>803.9</ele>
        <time>2022-06-21T10:46:59Z</time>
      </trkpt>
      <trkpt lat="43.42607" lon="2.65808">
        <ele>803.9</ele>
        <time>2022-06-21T10:47:00Z</time>
      </trkpt>
      <trkpt lat="43.42607" lon="2.65808">
        <ele>803.9</ele>
        <time>2022-06-21T10:47:01Z</time>
      </trkpt>
      <trkpt lat="43.42607" lon="2.65808">
        <ele>803.9</ele>
        <time>2022-06-21T10:47:02Z</time>
      </trkpt>
      <trkpt lat="43.42607" lon="2.65808">
        <ele>803.9</ele>
        <time>2022-06-21T10:47:03Z</time>
      </trkpt>
      <trkpt lat="43.42607" lon="2.65808">
        <ele>803.9</ele>
        <time>2022-06-21T10:47:04Z</time>
      </trkpt>
      <trkpt lat="43.42607" lon="2.65808">
        <ele>803.9</ele>
        <time>2022-06-21T10:47:05Z</time>
      </trkpt>
      <trkpt lat="43.42607" lon="2.65808">
        <ele>803.9</ele>
        <time>2022-06-21T10:47:06Z</time>
      </trkpt>
      <trkpt lat="43.42607" lon="2.65808">
        <ele>803.9</ele>
        <time>2022-06-21T10:47:07Z</time>
      </trkpt>
      <trkpt lat="43.42607" lon="2.65808">
        <ele>803.9</ele>
        <time>2022-06-21T10:47:08Z</time>
      </trkpt>
      <trkpt lat="43.42607" lon="2.65808">
        <ele>803.9</ele>
        <time>2022-06-21T10:47:09Z</time>
      </trkpt>
      <trkpt lat="43.42607" lon="2.65808">
        <ele>803.9</ele>
        <time>2022-06-21T10:47:10Z</time>
      </trkpt>
      <trkpt lat="43.42607" lon="2.65808">
        <ele>803.9</ele>
        <time>2022-06-21T10:47:11Z</time>
      </trkpt>
      <trkpt lat="43.42607" lon="2.65808">
        <ele>803.9</ele>
        <time>2022-06-21T10:47:12Z</time>
      </trkpt>
      <trkpt lat="43.42607" lon="2.65808">
        <ele>803.9</ele>
        <time>2022-06-21T10:47:13Z</time>
      </trkpt>
      <trkpt lat="43.42607" lon="2.65808">
        <ele>803.9</ele>
        <time>2022-06-21T10:47:14Z</time>
      </trkpt>
      <trkpt lat="43.42607" lon="2.65808">
        <ele>803.9</ele>
        <time>2022-06-21T10:47:15Z</time>
      </trkpt>
      <trkpt lat="43.42607" lon="2.65808">
        <ele>803.9</ele>
        <time>2022-06-21T10:47:16Z</time>
      </trkpt>
      <trkpt lat="43.42607" lon="2.65808">
        <ele>803.9</ele>
        <time>2022-06-21T10:47:17Z</time>
      </trkpt>
      <trkpt lat="43.42607" lon="2.65808">
        <ele>803.9</ele>
        <time>2022-06-21T10:47:18Z</time>
      </trkpt>
      <trkpt lat="43.42607" lon="2.65808">
        <ele>803.9</ele>
        <time>2022-06-21T10:47:19Z</time>
      </trkpt>
      <trkpt lat="43.42607" lon="2.65808">
        <ele>803.9</ele>
        <time>2022-06-21T10:47:20Z</time>
      </trkpt>
      <trkpt lat="43.42607" lon="2.65808">
        <ele>803.9</ele>
        <time>2022-06-21T10:47:21Z</time>
      </trkpt>
      <trkpt lat="43.42607" lon="2.65808">
        <ele>803.9</ele>
        <time>2022-06-21T10:47:22Z</time>
      </trkpt>
      <trkpt lat="43.42607" lon="2.65808">
        <ele>803.9</ele>
        <time>2022-06-21T10:47:23Z</time>
      </trkpt>
      <trkpt lat="43.42607" lon="2.65808">
        <ele>803.9</ele>
        <time>2022-06-21T10:47:24Z</time>
      </trkpt>
      <trkpt lat="43.42607" lon="2.65808">
        <ele>803.9</ele>
        <time>2022-06-21T10:47:25Z</time>
      </trkpt>
      <trkpt lat="43.42607" lon="2.65808">
        <ele>803.9</ele>
        <time>2022-06-21T10:47:26Z</time>
      </trkpt>
      <trkpt lat="43.42607" lon="2.65808">
        <ele>803.9</ele>
        <time>2022-06-21T10:47:27Z</time>
      </trkpt>
      <trkpt lat="43.42607" lon="2.65808">
        <ele>803.9</ele>
        <time>2022-06-21T10:47:28Z</time>
      </trkpt>
      <trkpt lat="43.42607" lon="2.65808">
        <ele>803.9</ele>
        <time>2022-06-21T10:47:29Z</time>
      </trkpt>
      <trkpt lat="43.42607" lon="2.65808">
        <ele>803.9</ele>
        <time>2022-06-21T10:47:30Z</time>
      </trkpt>
      <trkpt lat="43.42607" lon="2.65808">
        <ele>803.9</ele>
        <time>2022-06-21T10:47:31Z</time>
      </trkpt>
      <trkpt lat="43.42607" lon="2.65808">
        <ele>803.9</ele>
        <time>2022-06-21T10:47:32Z</time>
      </trkpt>
      <trkpt lat="43.42607" lon="2.65808">
        <ele>803.9</ele>
        <time>2022-06-21T10:47:33Z</time>
      </trkpt>
      <trkpt lat="43.42607" lon="2.65808">
        <ele>803.9</ele>
        <time>2022-06-21T10:47:34Z</time>
      </trkpt>
      <trkpt lat="43.42607" lon="2.65808">
        <ele>803.9</ele>
        <time>2022-06-21T10:47:35Z</time>
      </trkpt>
      <trkpt lat="43.42607" lon="2.65808">
        <ele>803.9</ele>
        <time>2022-06-21T10:47:36Z</time>
      </trkpt>
      <trkpt lat="43.42607" lon="2.65808">
        <ele>803.9</ele>
        <time>2022-06-21T10:47:37Z</time>
      </trkpt>
      <trkpt lat="43.42607" lon="2.65808">
        <ele>803.9</ele>
        <time>2022-06-21T10:47:38Z</time>
      </trkpt>
      <trkpt lat="43.42607" lon="2.65808">
        <ele>803.9</ele>
        <time>2022-06-21T10:47:39Z</time>
      </trkpt>
      <trkpt lat="43.42607" lon="2.65808">
        <ele>803.9</ele>
        <time>2022-06-21T10:47:40Z</time>
      </trkpt>
      <trkpt lat="43.42607" lon="2.65808">
        <ele>803.9</ele>
        <time>2022-06-21T10:47:41Z</time>
      </trkpt>
      <trkpt lat="43.42607" lon="2.65808">
        <ele>803.9</ele>
        <time>2022-06-21T10:47:42Z</time>
      </trkpt>
      <trkpt lat="43.42607" lon="2.65808">
        <ele>803.9</ele>
        <time>2022-06-21T10:47:43Z</time>
      </trkpt>
      <trkpt lat="43.42607" lon="2.65808">
        <ele>803.9</ele>
        <time>2022-06-21T10:47:44Z</time>
      </trkpt>
      <trkpt lat="43.42607" lon="2.65808">
        <ele>803.9</ele>
        <time>2022-06-21T10:47:45Z</time>
      </trkpt>
      <trkpt lat="43.42607" lon="2.65808">
        <ele>803.9</ele>
        <time>2022-06-21T10:47:46Z</time>
      </trkpt>
      <trkpt lat="43.42607" lon="2.65808">
        <ele>803.9</ele>
        <time>2022-06-21T10:47:47Z</time>
      </trkpt>
      <trkpt lat="43.42607" lon="2.65808">
        <ele>803.9</ele>
        <time>2022-06-21T10:47:48Z</time>
      </trkpt>
      <trkpt lat="43.42607" lon="2.65808">
        <ele>803.9</ele>
        <time>2022-06-21T10:47:49Z</time>
      </trkpt>
      <trkpt lat="43.42607" lon="2.65808">
        <ele>803.9</ele>
        <time>2022-06-21T10:47:50Z</time>
      </trkpt>
      <trkpt lat="43.42607" lon="2.65808">
        <ele>803.9</ele>
        <time>2022-06-21T10:47:51Z</time>
      </trkpt>
      <trkpt lat="43.42607" lon="2.65808">
        <ele>803.9</ele>
        <time>2022-06-21T10:47:52Z</time>
      </trkpt>
      <trkpt lat="43.42607" lon="2.65808">
        <ele>803.9</ele>
        <time>2022-06-21T10:47:53Z</time>
      </trkpt>
      <trkpt lat="43.42607" lon="2.65808">
        <ele>803.9</ele>
        <time>2022-06-21T10:47:54Z</time>
      </trkpt>
      <trkpt lat="43.42607" lon="2.65808">
        <ele>803.9</ele>
        <time>2022-06-21T10:47:55Z</time>
      </trkpt>
      <trkpt lat="43.42607" lon="2.65808">
        <ele>803.9</ele>
        <time>2022-06-21T10:47:56Z</time>
      </trkpt>
      <trkpt lat="43.42607" lon="2.65808">
        <ele>803.9</ele>
        <time>2022-06-21T10:47:57Z</time>
      </trkpt>
      <trkpt lat="43.42607" lon="2.65808">
        <ele>803.9</ele>
        <time>2022-06-21T10:47:58Z</time>
      </trkpt>
      <trkpt lat="43.42607" lon="2.65808">
        <ele>803.9</ele>
        <time>2022-06-21T10:47:59Z</time>
      </trkpt>
      <trkpt lat="43.42607" lon="2.65808">
        <ele>803.9</ele>
        <time>2022-06-21T10:48:00Z</time>
      </trkpt>
      <trkpt lat="43.42607" lon="2.65808">
        <ele>803.9</ele>
        <time>2022-06-21T10:48:01Z</time>
      </trkpt>
      <trkpt lat="43.42607" lon="2.65808">
        <ele>803.9</ele>
        <time>2022-06-21T10:48:02Z</time>
      </trkpt>
      <trkpt lat="43.42607" lon="2.65808">
        <ele>803.9</ele>
        <time>2022-06-21T10:48:03Z</time>
      </trkpt>
      <trkpt lat="43.42607" lon="2.65808">
        <ele>803.9</ele>
        <time>2022-06-21T10:48:04Z</time>
      </trkpt>
      <trkpt lat="43.42607" lon="2.65808">
        <ele>803.9</ele>
        <time>2022-06-21T10:48:05Z</time>
      </trkpt>
      <trkpt lat="43.42607" lon="2.65808">
        <ele>803.9</ele>
        <time>2022-06-21T10:48:06Z</time>
      </trkpt>
      <trkpt lat="43.42607" lon="2.65808">
        <ele>803.9</ele>
        <time>2022-06-21T10:48:07Z</time>
      </trkpt>
      <trkpt lat="43.42607" lon="2.65808">
        <ele>803.9</ele>
        <time>2022-06-21T10:48:08Z</time>
      </trkpt>
      <trkpt lat="43.42607" lon="2.65808">
        <ele>803.9</ele>
        <time>2022-06-21T10:48:09Z</time>
      </trkpt>
      <trkpt lat="43.42607" lon="2.65808">
        <ele>803.9</ele>
        <time>2022-06-21T10:48:10Z</time>
      </trkpt>
      <trkpt lat="43.42607" lon="2.65808">
        <ele>803.9</ele>
        <time>2022-06-21T10:48:11Z</time>
      </trkpt>
      <trkpt lat="43.42607" lon="2.65808">
        <ele>803.9</ele>
        <time>2022-06-21T10:48:12Z</time>
      </trkpt>
      <trkpt lat="43.42607" lon="2.65808">
        <ele>803.9</ele>
        <time>2022-06-21T10:48:13Z</time>
      </trkpt>
      <trkpt lat="43.42607" lon="2.65808">
        <ele>803.9</ele>
        <time>2022-06-21T10:48:14Z</time>
      </trkpt>
      <trkpt lat="43.42607" lon="2.65808">
        <ele>803.9</ele>
        <time>2022-06-21T10:48:15Z</time>
      </trkpt>
      <trkpt lat="43.42607" lon="2.65808">
        <ele>803.9</ele>
        <time>2022-06-21T10:48:16Z</time>
      </trkpt>
      <trkpt lat="43.42607" lon="2.65808">
        <ele>803.9</ele>
        <time>2022-06-21T10:48:17Z</time>
      </trkpt>
      <trkpt lat="43.42607" lon="2.65808">
        <ele>803.9</ele>
        <time>2022-06-21T10:48:18Z</time>
      </trkpt>
      <trkpt lat="43.42607" lon="2.65808">
        <ele>803.9</ele>
        <time>2022-06-21T10:48:19Z</time>
      </trkpt>
      <trkpt lat="43.42607" lon="2.65808">
        <ele>803.9</ele>
        <time>2022-06-21T10:48:20Z</time>
      </trkpt>
      <trkpt lat="43.42607" lon="2.65808">
        <ele>803.9</ele>
        <time>2022-06-21T10:48:21Z</time>
      </trkpt>
      <trkpt lat="43.42607" lon="2.65808">
        <ele>803.9</ele>
        <time>2022-06-21T10:48:22Z</time>
      </trkpt>
      <trkpt lat="43.42607" lon="2.65808">
        <ele>803.9</ele>
        <time>2022-06-21T10:48:23Z</time>
      </trkpt>
      <trkpt lat="43.42607" lon="2.65808">
        <ele>803.9</ele>
        <time>2022-06-21T10:48:24Z</time>
      </trkpt>
      <trkpt lat="43.42607" lon="2.65808">
        <ele>803.9</ele>
        <time>2022-06-21T10:48:25Z</time>
      </trkpt>
      <trkpt lat="43.42607" lon="2.65808">
        <ele>803.9</ele>
        <time>2022-06-21T10:48:26Z</time>
      </trkpt>
      <trkpt lat="43.42607" lon="2.65808">
        <ele>803.9</ele>
        <time>2022-06-21T10:48:27Z</time>
      </trkpt>
      <trkpt lat="43.42607" lon="2.65808">
        <ele>803.9</ele>
        <time>2022-06-21T10:48:28Z</time>
      </trkpt>
      <trkpt lat="43.42607" lon="2.65808">
        <ele>803.9</ele>
        <time>2022-06-21T10:48:29Z</time>
      </trkpt>
      <trkpt lat="43.42607" lon="2.65808">
        <ele>803.9</ele>
        <time>2022-06-21T10:48:30Z</time>
      </trkpt>
      <trkpt lat="43.42607" lon="2.65808">
        <ele>803.9</ele>
        <time>2022-06-21T10:48:31Z</time>
      </trkpt>
      <trkpt lat="43.42607" lon="2.65808">
        <ele>803.9</ele>
        <time>2022-06-21T10:48:32Z</time>
      </trkpt>
      <trkpt lat="43.42607" lon="2.65808">
        <ele>803.9</ele>
        <time>2022-06-21T10:48:33Z</time>
      </trkpt>
      <trkpt lat="43.42607" lon="2.65808">
        <ele>803.9</ele>
        <time>2022-06-21T10:48:34Z</time>
      </trkpt>
      <trkpt lat="43.42607" lon="2.65808">
        <ele>803.9</ele>
        <time>2022-06-21T10:48:35Z</time>
      </trkpt>
      <trkpt lat="43.42607" lon="2.65808">
        <ele>803.9</ele>
        <time>2022-06-21T10:48:36Z</time>
      </trkpt>
      <trkpt lat="43.42607" lon="2.65808">
        <ele>803.9</ele>
        <time>2022-06-21T10:48:37Z</time>
      </trkpt>
      <trkpt lat="43.42607" lon="2.65808">
        <ele>803.9</ele>
        <time>2022-06-21T10:48:38Z</time>
      </trkpt>
      <trkpt lat="43.42607" lon="2.65808">
        <ele>803.9</ele>
        <time>2022-06-21T10:48:39Z</time>
      </trkpt>
      <trkpt lat="43.42607" lon="2.65808">
        <ele>803.9</ele>
        <time>2022-06-21T10:48:40Z</time>
      </trkpt>
      <trkpt lat="43.42607" lon="2.65808">
        <ele>803.9</ele>
        <time>2022-06-21T10:48:41Z</time>
      </trkpt>
      <trkpt lat="43.42607" lon="2.65808">
        <ele>803.9</ele>
        <time>2022-06-21T10:48:42Z</time>
      </trkpt>
      <trkpt lat="43.42607" lon="2.65808">
        <ele>803.9</ele>
        <time>2022-06-21T10:48:43Z</time>
      </trkpt>
      <trkpt lat="43.42607" lon="2.65808">
        <ele>803.9</ele>
        <time>2022-06-21T10:48:44Z</time>
      </trkpt>
      <trkpt lat="43.42607" lon="2.65808">
        <ele>803.9</ele>
        <time>2022-06-21T10:48:45Z</time>
      </trkpt>
      <trkpt lat="43.42607" lon="2.65808">
        <ele>803.9</ele>
        <time>2022-06-21T10:48:46Z</time>
      </trkpt>
      <trkpt lat="43.42607" lon="2.65808">
        <ele>803.9</ele>
        <time>2022-06-21T10:48:47Z</time>
      </trkpt>
      <trkpt lat="43.42607" lon="2.65808">
        <ele>803.9</ele>
        <time>2022-06-21T10:48:48Z</time>
      </trkpt>
      <trkpt lat="43.42607" lon="2.65808">
        <ele>803.9</ele>
        <time>2022-06-21T10:48:49Z</time>
      </trkpt>
      <trkpt lat="43.42607" lon="2.65808">
        <ele>803.9</ele>
        <time>2022-06-21T10:48:50Z</time>
      </trkpt>
      <trkpt lat="43.42607" lon="2.65808">
        <ele>803.9</ele>
        <time>2022-06-21T10:48:51Z</time>
      </trkpt>
      <trkpt lat="43.42607" lon="2.65808">
        <ele>803.9</ele>
        <time>2022-06-21T10:48:52Z</time>
      </trkpt>
      <trkpt lat="43.42607" lon="2.65808">
        <ele>803.9</ele>
        <time>2022-06-21T10:48:53Z</time>
      </trkpt>
      <trkpt lat="43.42607" lon="2.65808">
        <ele>803.9</ele>
        <time>2022-06-21T10:48:54Z</time>
      </trkpt>
      <trkpt lat="43.42607" lon="2.65808">
        <ele>803.9</ele>
        <time>2022-06-21T10:48:55Z</time>
      </trkpt>
      <trkpt lat="43.42607" lon="2.65808">
        <ele>803.9</ele>
        <time>2022-06-21T10:48:56Z</time>
      </trkpt>
      <trkpt lat="43.42607" lon="2.65808">
        <ele>803.9</ele>
        <time>2022-06-21T10:48:57Z</time>
      </trkpt>
      <trkpt lat="43.42607" lon="2.65808">
        <ele>803.9</ele>
        <time>2022-06-21T10:48:58Z</time>
      </trkpt>
      <trkpt lat="43.42607" lon="2.65808">
        <ele>803.9</ele>
        <time>2022-06-21T10:48:59Z</time>
      </trkpt>
      <trkpt lat="43.42607" lon="2.65808">
        <ele>803.9</ele>
        <time>2022-06-21T10:49:00Z</time>
      </trkpt>
      <trkpt lat="43.42607" lon="2.65808">
        <ele>803.9</ele>
        <time>2022-06-21T10:49:01Z</time>
      </trkpt>
      <trkpt lat="43.42607" lon="2.65808">
        <ele>803.9</ele>
        <time>2022-06-21T10:49:02Z</time>
      </trkpt>
      <trkpt lat="43.42607" lon="2.65808">
        <ele>803.9</ele>
        <time>2022-06-21T10:49:03Z</time>
      </trkpt>
      <trkpt lat="43.42607" lon="2.65808">
        <ele>803.9</ele>
        <time>2022-06-21T10:49:04Z</time>
      </trkpt>
      <trkpt lat="43.42607" lon="2.65808">
        <ele>803.9</ele>
        <time>2022-06-21T10:49:05Z</time>
      </trkpt>
      <trkpt lat="43.42607" lon="2.65808">
        <ele>803.9</ele>
        <time>2022-06-21T10:49:06Z</time>
      </trkpt>
      <trkpt lat="43.42607" lon="2.65808">
        <ele>803.9</ele>
        <time>2022-06-21T10:49:07Z</time>
      </trkpt>
      <trkpt lat="43.42607" lon="2.65808">
        <ele>803.9</ele>
        <time>2022-06-21T10:49:08Z</time>
      </trkpt>
      <trkpt lat="43.42607" lon="2.65808">
        <ele>803.9</ele>
        <time>2022-06-21T10:49:09Z</time>
      </trkpt>
      <trkpt lat="43.42607" lon="2.65808">
        <ele>803.9</ele>
        <time>2022-06-21T10:49:10Z</time>
      </trkpt>
      <trkpt lat="43.42607" lon="2.65808">
        <ele>803.9</ele>
        <time>2022-06-21T10:49:11Z</time>
      </trkpt>
      <trkpt lat="43.42607" lon="2.65808">
        <ele>803.9</ele>
        <time>2022-06-21T10:49:12Z</time>
      </trkpt>
      <trkpt lat="43.42607" lon="2.65808">
        <ele>803.9</ele>
        <time>2022-06-21T10:49:13Z</time>
      </trkpt>
      <trkpt lat="43.42607" lon="2.65808">
        <ele>803.9</ele>
        <time>2022-06-21T10:49:14Z</time>
      </trkpt>
      <trkpt lat="43.42607" lon="2.65808">
        <ele>803.9</ele>
        <time>2022-06-21T10:49:15Z</time>
      </trkpt>
      <trkpt lat="43.42607" lon="2.65808">
        <ele>803.9</ele>
        <time>2022-06-21T10:49:16Z</time>
      </trkpt>
      <trkpt lat="43.42607" lon="2.65808">
        <ele>803.9</ele>
        <time>2022-06-21T10:49:17Z</time>
      </trkpt>
      <trkpt lat="43.42607" lon="2.65808">
        <ele>803.9</ele>
        <time>2022-06-21T10:49:18Z</time>
      </trkpt>
      <trkpt lat="43.42607" lon="2.65808">
        <ele>803.9</ele>
        <time>2022-06-21T10:49:19Z</time>
      </trkpt>
      <trkpt lat="43.42607" lon="2.65808">
        <ele>803.9</ele>
        <time>2022-06-21T10:49:20Z</time>
      </trkpt>
      <trkpt lat="43.42607" lon="2.65808">
        <ele>803.9</ele>
        <time>2022-06-21T10:49:21Z</time>
      </trkpt>
      <trkpt lat="43.42607" lon="2.65808">
        <ele>803.9</ele>
        <time>2022-06-21T10:49:22Z</time>
      </trkpt>
      <trkpt lat="43.42607" lon="2.65808">
        <ele>803.9</ele>
        <time>2022-06-21T10:49:23Z</time>
      </trkpt>
      <trkpt lat="43.42607" lon="2.65808">
        <ele>803.9</ele>
        <time>2022-06-21T10:49:24Z</time>
      </trkpt>
      <trkpt lat="43.42607" lon="2.65808">
        <ele>803.9</ele>
        <time>2022-06-21T10:49:25Z</time>
      </trkpt>
      <trkpt lat="43.42607" lon="2.65808">
        <ele>803.9</ele>
        <time>2022-06-21T10:49:26Z</time>
      </trkpt>
      <trkpt lat="43.42607" lon="2.65808">
        <ele>803.9</ele>
        <time>2022-06-21T10:49:27Z</time>
      </trkpt>
      <trkpt lat="43.42607" lon="2.65808">
        <ele>803.9</ele>
        <time>2022-06-21T10:49:28Z</time>
      </trkpt>
      <trkpt lat="43.42607" lon="2.65808">
        <ele>803.9</ele>
        <time>2022-06-21T10:49:29Z</time>
      </trkpt>
      <trkpt lat="43.42607" lon="2.65808">
        <ele>803.9</ele>
        <time>2022-06-21T10:49:30Z</time>
      </trkpt>
      <trkpt lat="43.42607" lon="2.65808">
        <ele>803.9</ele>
        <time>2022-06-21T10:49:31Z</time>
      </trkpt>
      <trkpt lat="43.42607" lon="2.65808">
        <ele>803.9</ele>
        <time>2022-06-21T10:49:32Z</time>
      </trkpt>
      <trkpt lat="43.42607" lon="2.65808">
        <ele>803.9</ele>
        <time>2022-06-21T10:49:33Z</time>
      </trkpt>
      <trkpt lat="43.42607" lon="2.65808">
        <ele>803.9</ele>
        <time>2022-06-21T10:49:34Z</time>
      </trkpt>
      <trkpt lat="43.42607" lon="2.65808">
        <ele>803.9</ele>
        <time>2022-06-21T10:49:35Z</time>
      </trkpt>
      <trkpt lat="43.42607" lon="2.65808">
        <ele>803.9</ele>
        <time>2022-06-21T10:49:36Z</time>
      </trkpt>
      <trkpt lat="43.42607" lon="2.65808">
        <ele>803.9</ele>
        <time>2022-06-21T10:49:37Z</time>
      </trkpt>
      <trkpt lat="43.42607" lon="2.65808">
        <ele>803.9</ele>
        <time>2022-06-21T10:49:38Z</time>
      </trkpt>
      <trkpt lat="43.42607" lon="2.65808">
        <ele>803.9</ele>
        <time>2022-06-21T10:49:39Z</time>
      </trkpt>
      <trkpt lat="43.42607" lon="2.65808">
        <ele>803.9</ele>
        <time>2022-06-21T10:49:40Z</time>
      </trkpt>
      <trkpt lat="43.42607" lon="2.65808">
        <ele>803.9</ele>
        <time>2022-06-21T10:49:41Z</time>
      </trkpt>
      <trkpt lat="43.42607" lon="2.65808">
        <ele>803.9</ele>
        <time>2022-06-21T10:49:42Z</time>
      </trkpt>
      <trkpt lat="43.42607" lon="2.65808">
        <ele>803.9</ele>
        <time>2022-06-21T10:49:43Z</time>
      </trkpt>
      <trkpt lat="43.42607" lon="2.65808">
        <ele>803.9</ele>
        <time>2022-06-21T10:49:44Z</time>
      </trkpt>
      <trkpt lat="43.42607" lon="2.65808">
        <ele>803.9</ele>
        <time>2022-06-21T10:49:45Z</time>
      </trkpt>
      <trkpt lat="43.42607" lon="2.65808">
        <ele>803.9</ele>
        <time>2022-06-21T10:49:46Z</time>
      </trkpt>
      <trkpt lat="43.42607" lon="2.65808">
        <ele>803.9</ele>
        <time>2022-06-21T10:49:47Z</time>
      </trkpt>
      <trkpt lat="43.42607" lon="2.65808">
        <ele>803.9</ele>
        <time>2022-06-21T10:49:48Z</time>
      </trkpt>
      <trkpt lat="43.42607" lon="2.65808">
        <ele>803.9</ele>
        <time>2022-06-21T10:49:49Z</time>
      </trkpt>
      <trkpt lat="43.42607" lon="2.65808">
        <ele>803.9</ele>
        <time>2022-06-21T10:49:50Z</time>
      </trkpt>
      <trkpt lat="43.42607" lon="2.65808">
        <ele>803.9</ele>
        <time>2022-06-21T10:49:51Z</time>
      </trkpt>
      <trkpt lat="43.42607" lon="2.65808">
        <ele>803.9</ele>
        <time>2022-06-21T10:49:52Z</time>
      </trkpt>
      <trkpt lat="43.42607" lon="2.65808">
        <ele>803.9</ele>
        <time>2022-06-21T10:49:53Z</time>
      </trkpt>
      <trkpt lat="43.42607" lon="2.65808">
        <ele>803.9</ele>
        <time>2022-06-21T10:49:54Z</time>
      </trkpt>
      <trkpt lat="43.42607" lon="2.65808">
        <ele>803.9</ele>
        <time>2022-06-21T10:49:55Z</time>
      </trkpt>
      <trkpt lat="43.42607" lon="2.65808">
        <ele>803.9</ele>
        <time>2022-06-21T10:49:56Z</time>
      </trkpt>
      <trkpt lat="43.42607" lon="2.65808">
        <ele>803.9</ele>
        <time>2022-06-21T10:49:57Z</time>
      </trkpt>
      <trkpt lat="43.42607" lon="2.65808">
        <ele>803.9</ele>
        <time>2022-06-21T10:49:58Z</time>
      </trkpt>
      <trkpt lat="43.42607" lon="2.65808">
        <ele>803.9</ele>
        <time>2022-06-21T10:49:59Z</time>
      </trkpt>
      <trkpt lat="43.42607" lon="2.65808">
        <ele>803.9</ele>
        <time>2022-06-21T10:50:00Z</time>
      </trkpt>
      <trkpt lat="43.42607" lon="2.65808">
        <ele>803.9</ele>
        <time>2022-06-21T10:50:01Z</time>
      </trkpt>
      <trkpt lat="43.42607" lon="2.65808">
        <ele>803.9</ele>
        <time>2022-06-21T10:50:02Z</time>
      </trkpt>
      <trkpt lat="43.42607" lon="2.65808">
        <ele>803.9</ele>
        <time>2022-06-21T10:50:03Z</time>
      </trkpt>
      <trkpt lat="43.42607" lon="2.65808">
        <ele>803.9</ele>
        <time>2022-06-21T10:50:04Z</time>
      </trkpt>
      <trkpt lat="43.42607" lon="2.65808">
        <ele>803.9</ele>
        <time>2022-06-21T10:50:05Z</time>
      </trkpt>
      <trkpt lat="43.42607" lon="2.65808">
        <ele>803.9</ele>
        <time>2022-06-21T10:50:06Z</time>
      </trkpt>
      <trkpt lat="43.42607" lon="2.65808">
        <ele>803.9</ele>
        <time>2022-06-21T10:50:07Z</time>
      </trkpt>
      <trkpt lat="43.42607" lon="2.65808">
        <ele>803.9</ele>
        <time>2022-06-21T10:50:08Z</time>
      </trkpt>
      <trkpt lat="43.42607" lon="2.65808">
        <ele>803.9</ele>
        <time>2022-06-21T10:50:09Z</time>
      </trkpt>
      <trkpt lat="43.42607" lon="2.65808">
        <ele>803.9</ele>
        <time>2022-06-21T10:50:10Z</time>
      </trkpt>
      <trkpt lat="43.42607" lon="2.65808">
        <ele>803.9</ele>
        <time>2022-06-21T10:50:11Z</time>
      </trkpt>
      <trkpt lat="43.42607" lon="2.65808">
        <ele>803.9</ele>
        <time>2022-06-21T10:50:12Z</time>
      </trkpt>
      <trkpt lat="43.42607" lon="2.65808">
        <ele>803.9</ele>
        <time>2022-06-21T10:50:13Z</time>
      </trkpt>
      <trkpt lat="43.42607" lon="2.65808">
        <ele>803.9</ele>
        <time>2022-06-21T10:50:14Z</time>
      </trkpt>
      <trkpt lat="43.42607" lon="2.65808">
        <ele>803.9</ele>
        <time>2022-06-21T10:50:15Z</time>
      </trkpt>
      <trkpt lat="43.42607" lon="2.65808">
        <ele>803.9</ele>
        <time>2022-06-21T10:50:16Z</time>
      </trkpt>
      <trkpt lat="43.42607" lon="2.65808">
        <ele>803.9</ele>
        <time>2022-06-21T10:50:17Z</time>
      </trkpt>
      <trkpt lat="43.42607" lon="2.65808">
        <ele>803.9</ele>
        <time>2022-06-21T10:50:18Z</time>
      </trkpt>
      <trkpt lat="43.42607" lon="2.65808">
        <ele>803.9</ele>
        <time>2022-06-21T10:50:19Z</time>
      </trkpt>
      <trkpt lat="43.42607" lon="2.65808">
        <ele>803.9</ele>
        <time>2022-06-21T10:50:20Z</time>
      </trkpt>
      <trkpt lat="43.42607" lon="2.65808">
        <ele>803.9</ele>
        <time>2022-06-21T10:50:21Z</time>
      </trkpt>
      <trkpt lat="43.42607" lon="2.65808">
        <ele>803.9</ele>
        <time>2022-06-21T10:50:22Z</time>
      </trkpt>
      <trkpt lat="43.42607" lon="2.65808">
        <ele>803.9</ele>
        <time>2022-06-21T10:50:23Z</time>
      </trkpt>
      <trkpt lat="43.42607" lon="2.65808">
        <ele>803.9</ele>
        <time>2022-06-21T10:50:24Z</time>
      </trkpt>
      <trkpt lat="43.42607" lon="2.65808">
        <ele>803.9</ele>
        <time>2022-06-21T10:50:25Z</time>
      </trkpt>
      <trkpt lat="43.42607" lon="2.65808">
        <ele>803.9</ele>
        <time>2022-06-21T10:50:26Z</time>
      </trkpt>
      <trkpt lat="43.42607" lon="2.65808">
        <ele>803.9</ele>
        <time>2022-06-21T10:50:27Z</time>
      </trkpt>
      <trkpt lat="43.42607" lon="2.65808">
        <ele>803.9</ele>
        <time>2022-06-21T10:50:28Z</time>
      </trkpt>
      <trkpt lat="43.42607" lon="2.65808">
        <ele>803.9</ele>
        <time>2022-06-21T10:50:29Z</time>
      </trkpt>
      <trkpt lat="43.42607" lon="2.65808">
        <ele>803.9</ele>
        <time>2022-06-21T10:50:30Z</time>
      </trkpt>
      <trkpt lat="43.42607" lon="2.65808">
        <ele>803.9</ele>
        <time>2022-06-21T10:50:31Z</time>
      </trkpt>
      <trkpt lat="43.42607" lon="2.65808">
        <ele>803.9</ele>
        <time>2022-06-21T10:50:32Z</time>
      </trkpt>
      <trkpt lat="43.42607" lon="2.65808">
        <ele>803.9</ele>
        <time>2022-06-21T10:50:33Z</time>
      </trkpt>
      <trkpt lat="43.42607" lon="2.65808">
        <ele>803.9</ele>
        <time>2022-06-21T10:50:34Z</time>
      </trkpt>
      <trkpt lat="43.42607" lon="2.65808">
        <ele>803.9</ele>
        <time>2022-06-21T10:50:35Z</time>
      </trkpt>
      <trkpt lat="43.42607" lon="2.65808">
        <ele>803.9</ele>
        <time>2022-06-21T10:50:36Z</time>
      </trkpt>
      <trkpt lat="43.42607" lon="2.65808">
        <ele>803.9</ele>
        <time>2022-06-21T10:50:37Z</time>
      </trkpt>
      <trkpt lat="43.42607" lon="2.65808">
        <ele>803.9</ele>
        <time>2022-06-21T10:50:38Z</time>
      </trkpt>
      <trkpt lat="43.42607" lon="2.65808">
        <ele>803.9</ele>
        <time>2022-06-21T10:50:39Z</time>
      </trkpt>
      <trkpt lat="43.42607" lon="2.65808">
        <ele>803.9</ele>
        <time>2022-06-21T10:50:40Z</time>
      </trkpt>
      <trkpt lat="43.42607" lon="2.65808">
        <ele>803.9</ele>
        <time>2022-06-21T10:50:41Z</time>
      </trkpt>
      <trkpt lat="43.42607" lon="2.65808">
        <ele>803.9</ele>
        <time>2022-06-21T10:50:42Z</time>
      </trkpt>
      <trkpt lat="43.42607" lon="2.65808">
        <ele>803.9</ele>
        <time>2022-06-21T10:50:43Z</time>
      </trkpt>
      <trkpt lat="43.42607" lon="2.65808">
        <ele>803.9</ele>
        <time>2022-06-21T10:50:44Z</time>
      </trkpt>
      <trkpt lat="43.42607" lon="2.65808">
        <ele>803.9</ele>
        <time>2022-06-21T10:50:45Z</time>
      </trkpt>
      <trkpt lat="43.42607" lon="2.65808">
        <ele>803.9</ele>
        <time>2022-06-21T10:50:46Z</time>
      </trkpt>
      <trkpt lat="43.42607" lon="2.65808">
        <ele>803.9</ele>
        <time>2022-06-21T10:50:47Z</time>
      </trkpt>
      <trkpt lat="43.42607" lon="2.65808">
        <ele>803.9</ele>
        <time>2022-06-21T10:50:48Z</time>
      </trkpt>
      <trkpt lat="43.42607" lon="2.65808">
        <ele>803.9</ele>
        <time>2022-06-21T10:50:49Z</time>
      </trkpt>
      <trkpt lat="43.42607" lon="2.65808">
        <ele>803.9</ele>
        <time>2022-06-21T10:50:50Z</time>
      </trkpt>
      <trkpt lat="43.42607" lon="2.65808">
        <ele>803.9</ele>
        <time>2022-06-21T10:50:51Z</time>
      </trkpt>
      <trkpt lat="43.42607" lon="2.65808">
        <ele>803.9</ele>
        <time>2022-06-21T10:50:52Z</time>
      </trkpt>
      <trkpt lat="43.42607" lon="2.65808">
        <ele>803.9</ele>
        <time>2022-06-21T10:50:53Z</time>
      </trkpt>
      <trkpt lat="43.42607" lon="2.65808">
        <ele>803.9</ele>
        <time>2022-06-21T10:50:54Z</time>
      </trkpt>
      <trkpt lat="43.42607" lon="2.65808">
        <ele>803.9</ele>
        <time>2022-06-21T10:50:55Z</time>
      </trkpt>
      <trkpt lat="43.42607" lon="2.65808">
        <ele>803.9</ele>
        <time>2022-06-21T10:50:56Z</time>
      </trkpt>
      <trkpt lat="43.42607" lon="2.65808">
        <ele>803.9</ele>
        <time>2022-06-21T10:50:57Z</time>
      </trkpt>
      <trkpt lat="43.42607" lon="2.65808">
        <ele>803.9</ele>
        <time>2022-06-21T10:50:58Z</time>
      </trkpt>
      <trkpt lat="43.42607" lon="2.65808">
        <ele>803.9</ele>
        <time>2022-06-21T10:50:59Z</time>
      </trkpt>
      <trkpt lat="43.42607" lon="2.65808">
        <ele>803.9</ele>
        <time>2022-06-21T10:51:00Z</time>
      </trkpt>
      <trkpt lat="43.42607" lon="2.65808">
        <ele>803.9</ele>
        <time>2022-06-21T10:51:01Z</time>
      </trkpt>
      <trkpt lat="43.42607" lon="2.65808">
        <ele>803.9</ele>
        <time>2022-06-21T10:51:02Z</time>
      </trkpt>
      <trkpt lat="43.42607" lon="2.65808">
        <ele>803.9</ele>
        <time>2022-06-21T10:51:03Z</time>
      </trkpt>
      <trkpt lat="43.42607" lon="2.65808">
        <ele>803.9</ele>
        <time>2022-06-21T10:51:04Z</time>
      </trkpt>
      <trkpt lat="43.42607" lon="2.65808">
        <ele>803.9</ele>
        <time>2022-06-21T10:51:05Z</time>
      </trkpt>
      <trkpt lat="43.42607" lon="2.65808">
        <ele>803.9</ele>
        <time>2022-06-21T10:51:06Z</time>
      </trkpt>
      <trkpt lat="43.42607" lon="2.65808">
        <ele>803.9</ele>
        <time>2022-06-21T10:51:07Z</time>
      </trkpt>
      <trkpt lat="43.42607" lon="2.65808">
        <ele>803.9</ele>
        <time>2022-06-21T10:51:08Z</time>
      </trkpt>
      <trkpt lat="43.42607" lon="2.65808">
        <ele>803.9</ele>
        <time>2022-06-21T10:51:09Z</time>
      </trkpt>
      <trkpt lat="43.42607" lon="2.65808">
        <ele>803.9</ele>
        <time>2022-06-21T10:51:10Z</time>
      </trkpt>
      <trkpt lat="43.42607" lon="2.65808">
        <ele>803.9</ele>
        <time>2022-06-21T10:51:11Z</time>
      </trkpt>
      <trkpt lat="43.42607" lon="2.65808">
        <ele>803.9</ele>
        <time>2022-06-21T10:51:12Z</time>
      </trkpt>
      <trkpt lat="43.42607" lon="2.65808">
        <ele>803.9</ele>
        <time>2022-06-21T10:51:13Z</time>
      </trkpt>
      <trkpt lat="43.42607" lon="2.65808">
        <ele>803.9</ele>
        <time>2022-06-21T10:51:14Z</time>
      </trkpt>
      <trkpt lat="43.42607" lon="2.65808">
        <ele>803.9</ele>
        <time>2022-06-21T10:51:15Z</time>
      </trkpt>
      <trkpt lat="43.42607" lon="2.65808">
        <ele>803.9</ele>
        <time>2022-06-21T10:51:16Z</time>
      </trkpt>
      <trkpt lat="43.42607" lon="2.65808">
        <ele>803.9</ele>
        <time>2022-06-21T10:51:17Z</time>
      </trkpt>
      <trkpt lat="43.42607" lon="2.65808">
        <ele>803.9</ele>
        <time>2022-06-21T10:51:18Z</time>
      </trkpt>
      <trkpt lat="43.42607" lon="2.65808">
        <ele>803.9</ele>
        <time>2022-06-21T10:51:19Z</time>
      </trkpt>
      <trkpt lat="43.42607" lon="2.65808">
        <ele>803.9</ele>
        <time>2022-06-21T10:51:20Z</time>
      </trkpt>
      <trkpt lat="43.42607" lon="2.65808">
        <ele>803.9</ele>
        <time>2022-06-21T10:51:21Z</time>
      </trkpt>
      <trkpt lat="43.42607" lon="2.65808">
        <ele>803.9</ele>
        <time>2022-06-21T10:51:22Z</time>
      </trkpt>
      <trkpt lat="43.42607" lon="2.65808">
        <ele>803.9</ele>
        <time>2022-06-21T10:51:23Z</time>
      </trkpt>
      <trkpt lat="43.42607" lon="2.65808">
        <ele>803.9</ele>
        <time>2022-06-21T10:51:24Z</time>
      </trkpt>
      <trkpt lat="43.42607" lon="2.65808">
        <ele>803.9</ele>
        <time>2022-06-21T10:51:25Z</time>
      </trkpt>
      <trkpt lat="43.42607" lon="2.65808">
        <ele>803.9</ele>
        <time>2022-06-21T10:51:26Z</time>
      </trkpt>
      <trkpt lat="43.42607" lon="2.65808">
        <ele>803.9</ele>
        <time>2022-06-21T10:51:27Z</time>
      </trkpt>
      <trkpt lat="43.42607" lon="2.65808">
        <ele>803.9</ele>
        <time>2022-06-21T10:51:28Z</time>
      </trkpt>
      <trkpt lat="43.42607" lon="2.65808">
        <ele>803.9</ele>
        <time>2022-06-21T10:51:29Z</time>
      </trkpt>
      <trkpt lat="43.42607" lon="2.65808">
        <ele>803.9</ele>
        <time>2022-06-21T10:51:30Z</time>
      </trkpt>
      <trkpt lat="43.42607" lon="2.65808">
        <ele>803.9</ele>
        <time>2022-06-21T10:51:31Z</time>
      </trkpt>
      <trkpt lat="43.42607" lon="2.65808">
        <ele>803.9</ele>
        <time>2022-06-21T10:51:32Z</time>
      </trkpt>
      <trkpt lat="43.42607" lon="2.65808">
        <ele>803.9</ele>
        <time>2022-06-21T10:51:33Z</time>
      </trkpt>
      <trkpt lat="43.42607" lon="2.65808">
        <ele>803.9</ele>
        <time>2022-06-21T10:51:34Z</time>
      </trkpt>
      <trkpt lat="43.42607" lon="2.65808">
        <ele>803.9</ele>
        <time>2022-06-21T10:51:35Z</time>
      </trkpt>
      <trkpt lat="43.42607" lon="2.65808">
        <ele>803.9</ele>
        <time>2022-06-21T10:51:36Z</time>
      </trkpt>
      <trkpt lat="43.42607" lon="2.65808">
        <ele>803.9</ele>
        <time>2022-06-21T10:51:37Z</time>
      </trkpt>
      <trkpt lat="43.42607" lon="2.65808">
        <ele>803.9</ele>
        <time>2022-06-21T10:51:38Z</time>
      </trkpt>
      <trkpt lat="43.42607" lon="2.65808">
        <ele>803.9</ele>
        <time>2022-06-21T10:51:39Z</time>
      </trkpt>
      <trkpt lat="43.42607" lon="2.65808">
        <ele>803.9</ele>
        <time>2022-06-21T10:51:40Z</time>
      </trkpt>
      <trkpt lat="43.42607" lon="2.65808">
        <ele>803.9</ele>
        <time>2022-06-21T10:51:41Z</time>
      </trkpt>
      <trkpt lat="43.42607" lon="2.65808">
        <ele>803.9</ele>
        <time>2022-06-21T10:51:42Z</time>
      </trkpt>
      <trkpt lat="43.42607" lon="2.65808">
        <ele>803.9</ele>
        <time>2022-06-21T10:51:43Z</time>
      </trkpt>
      <trkpt lat="43.42607" lon="2.65808">
        <ele>803.9</ele>
        <time>2022-06-21T10:51:44Z</time>
      </trkpt>
      <trkpt lat="43.42607" lon="2.65808">
        <ele>803.9</ele>
        <time>2022-06-21T10:51:45Z</time>
      </trkpt>
      <trkpt lat="43.42607" lon="2.65808">
        <ele>803.9</ele>
        <time>2022-06-21T10:51:46Z</time>
      </trkpt>
      <trkpt lat="43.42607" lon="2.65808">
        <ele>803.9</ele>
        <time>2022-06-21T10:51:47Z</time>
      </trkpt>
      <trkpt lat="43.42607" lon="2.65808">
        <ele>803.9</ele>
        <time>2022-06-21T10:51:48Z</time>
      </trkpt>
      <trkpt lat="43.42607" lon="2.65808">
        <ele>803.9</ele>
        <time>2022-06-21T10:51:49Z</time>
      </trkpt>
      <trkpt lat="43.42607" lon="2.65808">
        <ele>803.9</ele>
        <time>2022-06-21T10:51:50Z</time>
      </trkpt>
      <trkpt lat="43.42607" lon="2.65808">
        <ele>803.9</ele>
        <time>2022-06-21T10:51:51Z</time>
      </trkpt>
      <trkpt lat="43.42607" lon="2.65808">
        <ele>803.9</ele>
        <time>2022-06-21T10:51:52Z</time>
      </trkpt>
      <trkpt lat="43.42607" lon="2.65808">
        <ele>803.9</ele>
        <time>2022-06-21T10:51:53Z</time>
      </trkpt>
      <trkpt lat="43.42607" lon="2.65808">
        <ele>803.9</ele>
        <time>2022-06-21T10:51:54Z</time>
      </trkpt>
      <trkpt lat="43.42607" lon="2.65808">
        <ele>803.9</ele>
        <time>2022-06-21T10:51:55Z</time>
      </trkpt>
      <trkpt lat="43.42607" lon="2.65808">
        <ele>803.9</ele>
        <time>2022-06-21T10:51:56Z</time>
      </trkpt>
      <trkpt lat="43.42607" lon="2.65808">
        <ele>803.9</ele>
        <time>2022-06-21T10:51:57Z</time>
      </trkpt>
      <trkpt lat="43.42607" lon="2.65808">
        <ele>803.9</ele>
        <time>2022-06-21T10:51:58Z</time>
      </trkpt>
      <trkpt lat="43.42607" lon="2.65808">
        <ele>803.9</ele>
        <time>2022-06-21T10:51:59Z</time>
      </trkpt>
      <trkpt lat="43.42607" lon="2.65808">
        <ele>803.9</ele>
        <time>2022-06-21T10:52:00Z</time>
      </trkpt>
      <trkpt lat="43.42607" lon="2.65808">
        <ele>803.9</ele>
        <time>2022-06-21T10:52:01Z</time>
      </trkpt>
      <trkpt lat="43.42607" lon="2.65808">
        <ele>803.9</ele>
        <time>2022-06-21T10:52:02Z</time>
      </trkpt>
      <trkpt lat="43.42607" lon="2.65808">
        <ele>803.9</ele>
        <time>2022-06-21T10:52:03Z</time>
      </trkpt>
      <trkpt lat="43.42607" lon="2.65808">
        <ele>803.9</ele>
        <time>2022-06-21T10:52:04Z</time>
      </trkpt>
      <trkpt lat="43.42607" lon="2.65808">
        <ele>803.9</ele>
        <time>2022-06-21T10:52:05Z</time>
      </trkpt>
      <trkpt lat="43.42607" lon="2.65808">
        <ele>803.9</ele>
        <time>2022-06-21T10:52:06Z</time>
      </trkpt>
      <trkpt lat="43.42607" lon="2.65808">
        <ele>803.9</ele>
        <time>2022-06-21T10:52:07Z</time>
      </trkpt>
      <trkpt lat="43.42607" lon="2.65808">
        <ele>803.9</ele>
        <time>2022-06-21T10:52:08Z</time>
      </trkpt>
      <trkpt lat="43.42607" lon="2.65808">
        <ele>803.9</ele>
        <time>2022-06-21T10:52:09Z</time>
      </trkpt>
      <trkpt lat="43.42607" lon="2.65808">
        <ele>803.9</ele>
        <time>2022-06-21T10:52:10Z</time>
      </trkpt>
      <trkpt lat="43.42607" lon="2.65808">
        <ele>803.9</ele>
        <time>2022-06-21T10:52:11Z</time>
      </trkpt>
      <trkpt lat="43.42607" lon="2.65808">
        <ele>803.9</ele>
        <time>2022-06-21T10:52:12Z</time>
      </trkpt>
      <trkpt lat="43.42607" lon="2.65808">
        <ele>803.9</ele>
        <time>2022-06-21T10:52:13Z</time>
      </trkpt>
      <trkpt lat="43.42607" lon="2.65808">
        <ele>803.9</ele>
        <time>2022-06-21T10:52:14Z</time>
      </trkpt>
      <trkpt lat="43.42607" lon="2.65808">
        <ele>803.9</ele>
        <time>2022-06-21T10:52:15Z</time>
      </trkpt>
      <trkpt lat="43.42607" lon="2.65808">
        <ele>803.9</ele>
        <time>2022-06-21T10:52:16Z</time>
      </trkpt>
      <trkpt lat="43.42607" lon="2.65808">
        <ele>803.9</ele>
        <time>2022-06-21T10:52:17Z</time>
      </trkpt>
      <trkpt lat="43.42607" lon="2.65808">
        <ele>803.9</ele>
        <time>2022-06-21T10:52:18Z</time>
      </trkpt>
      <trkpt lat="43.42607" lon="2.65808">
        <ele>803.9</ele>
        <time>2022-06-21T10:52:19Z</time>
      </trkpt>
      <trkpt lat="43.42607" lon="2.65808">
        <ele>803.9</ele>
        <time>2022-06-21T10:52:20Z</time>
      </trkpt>
      <trkpt lat="43.42607" lon="2.65808">
        <ele>803.9</ele>
        <time>2022-06-21T10:52:21Z</time>
      </trkpt>
      <trkpt lat="43.42607" lon="2.65808">
        <ele>803.9</ele>
        <time>2022-06-21T10:52:22Z</time>
      </trkpt>
      <trkpt lat="43.42607" lon="2.65808">
        <ele>803.9</ele>
        <time>2022-06-21T10:52:23Z</time>
      </trkpt>
      <trkpt lat="43.42607" lon="2.65808">
        <ele>803.9</ele>
        <time>2022-06-21T10:52:24Z</time>
      </trkpt>
      <trkpt lat="43.42607" lon="2.65808">
        <ele>803.9</ele>
        <time>2022-06-21T10:52:25Z</time>
      </trkpt>
      <trkpt lat="43.42607" lon="2.65808">
        <ele>803.9</ele>
        <time>2022-06-21T10:52:26Z</time>
      </trkpt>
      <trkpt lat="43.42607" lon="2.65808">
        <ele>803.9</ele>
        <time>2022-06-21T10:52:27Z</time>
      </trkpt>
      <trkpt lat="43.42607" lon="2.65808">
        <ele>803.9</ele>
        <time>2022-06-21T10:52:28Z</time>
      </trkpt>
      <trkpt lat="43.42607" lon="2.65808">
        <ele>803.9</ele>
        <time>2022-06-21T10:52:29Z</time>
      </trkpt>
      <trkpt lat="43.42607" lon="2.65808">
        <ele>803.9</ele>
        <time>2022-06-21T10:52:30Z</time>
      </trkpt>
      <trkpt lat="43.42607" lon="2.65808">
        <ele>803.9</ele>
        <time>2022-06-21T10:52:31Z</time>
      </trkpt>
      <trkpt lat="43.42607" lon="2.65808">
        <ele>803.9</ele>
        <time>2022-06-21T10:52:32Z</time>
      </trkpt>
      <trkpt lat="43.42607" lon="2.65808">
        <ele>803.9</ele>
        <time>2022-06-21T10:52:33Z</time>
      </trkpt>
      <trkpt lat="43.42607" lon="2.65808">
        <ele>803.9</ele>
        <time>2022-06-21T10:52:34Z</time>
      </trkpt>
      <trkpt lat="43.42607" lon="2.65808">
        <ele>803.9</ele>
        <time>2022-06-21T10:52:35Z</time>
      </trkpt>
      <trkpt lat="43.42607" lon="2.65808">
        <ele>803.9</ele>
        <time>2022-06-21T10:52:36Z</time>
      </trkpt>
      <trkpt lat="43.42607" lon="2.65808">
        <ele>803.9</ele>
        <time>2022-06-21T10:52:38Z</time>
      </trkpt>
      <trkpt lat="43.42607" lon="2.65808">
        <ele>803.9</ele>
        <time>2022-06-21T10:52:39Z</time>
      </trkpt>
      <trkpt lat="43.42607" lon="2.65808">
        <ele>803.9</ele>
        <time>2022-06-21T10:52:40Z</time>
      </trkpt>
      <trkpt lat="43.42607" lon="2.65808">
        <ele>803.9</ele>
        <time>2022-06-21T10:52:41Z</time>
      </trkpt>
      <trkpt lat="43.42607" lon="2.65808">
        <ele>803.9</ele>
        <time>2022-06-21T10:52:42Z</time>
      </trkpt>
      <trkpt lat="43.42607" lon="2.65808">
        <ele>803.9</ele>
        <time>2022-06-21T10:52:43Z</time>
      </trkpt>
      <trkpt lat="43.42607" lon="2.65808">
        <ele>803.9</ele>
        <time>2022-06-21T10:52:44Z</time>
      </trkpt>
      <trkpt lat="43.42607" lon="2.65808">
        <ele>803.9</ele>
        <time>2022-06-21T10:52:45Z</time>
      </trkpt>
      <trkpt lat="43.42607" lon="2.65808">
        <ele>803.9</ele>
        <time>2022-06-21T10:52:46Z</time>
      </trkpt>
      <trkpt lat="43.42607" lon="2.65808">
        <ele>803.9</ele>
        <time>2022-06-21T10:52:47Z</time>
      </trkpt>
      <trkpt lat="43.42607" lon="2.65808">
        <ele>803.9</ele>
        <time>2022-06-21T10:52:48Z</time>
      </trkpt>
      <trkpt lat="43.42607" lon="2.65808">
        <ele>803.9</ele>
        <time>2022-06-21T10:52:49Z</time>
      </trkpt>
      <trkpt lat="43.42607" lon="2.65808">
        <ele>803.9</ele>
        <time>2022-06-21T10:52:50Z</time>
      </trkpt>
      <trkpt lat="43.42607" lon="2.65808">
        <ele>803.9</ele>
        <time>2022-06-21T10:52:51Z</time>
      </trkpt>
      <trkpt lat="43.42607" lon="2.65808">
        <ele>803.9</ele>
        <time>2022-06-21T10:52:52Z</time>
      </trkpt>
      <trkpt lat="43.42607" lon="2.65808">
        <ele>803.9</ele>
        <time>2022-06-21T10:52:53Z</time>
      </trkpt>
      <trkpt lat="43.42607" lon="2.65808">
        <ele>803.9</ele>
        <time>2022-06-21T10:52:54Z</time>
      </trkpt>
      <trkpt lat="43.42607" lon="2.65808">
        <ele>803.9</ele>
        <time>2022-06-21T10:52:55Z</time>
      </trkpt>
      <trkpt lat="43.42607" lon="2.65808">
        <ele>803.9</ele>
        <time>2022-06-21T10:52:56Z</time>
      </trkpt>
      <trkpt lat="43.42607" lon="2.65808">
        <ele>803.9</ele>
        <time>2022-06-21T10:52:57Z</time>
      </trkpt>
      <trkpt lat="43.42607" lon="2.65808">
        <ele>803.9</ele>
        <time>2022-06-21T10:52:58Z</time>
      </trkpt>
      <trkpt lat="43.42607" lon="2.65808">
        <ele>803.9</ele>
        <time>2022-06-21T10:52:59Z</time>
      </trkpt>
      <trkpt lat="43.42607" lon="2.65808">
        <ele>803.9</ele>
        <time>2022-06-21T10:53:00Z</time>
      </trkpt>
      <trkpt lat="43.42607" lon="2.65808">
        <ele>803.9</ele>
        <time>2022-06-21T10:53:01Z</time>
      </trkpt>
      <trkpt lat="43.42607" lon="2.65808">
        <ele>803.9</ele>
        <time>2022-06-21T10:53:02Z</time>
      </trkpt>
      <trkpt lat="43.42607" lon="2.65808">
        <ele>803.9</ele>
        <time>2022-06-21T10:53:03Z</time>
      </trkpt>
      <trkpt lat="43.42607" lon="2.65808">
        <ele>803.9</ele>
        <time>2022-06-21T10:53:04Z</time>
      </trkpt>
      <trkpt lat="43.42607" lon="2.65808">
        <ele>803.9</ele>
        <time>2022-06-21T10:53:05Z</time>
      </trkpt>
      <trkpt lat="43.42607" lon="2.65808">
        <ele>803.9</ele>
        <time>2022-06-21T10:53:06Z</time>
      </trkpt>
      <trkpt lat="43.42607" lon="2.65808">
        <ele>803.9</ele>
        <time>2022-06-21T10:53:07Z</time>
      </trkpt>
      <trkpt lat="43.42607" lon="2.65808">
        <ele>803.9</ele>
        <time>2022-06-21T10:53:08Z</time>
      </trkpt>
      <trkpt lat="43.42607" lon="2.65808">
        <ele>803.9</ele>
        <time>2022-06-21T10:53:09Z</time>
      </trkpt>
      <trkpt lat="43.42607" lon="2.65808">
        <ele>803.9</ele>
        <time>2022-06-21T10:53:10Z</time>
      </trkpt>
      <trkpt lat="43.42607" lon="2.65808">
        <ele>803.9</ele>
        <time>2022-06-21T10:53:11Z</time>
      </trkpt>
      <trkpt lat="43.42607" lon="2.65808">
        <ele>803.9</ele>
        <time>2022-06-21T10:53:12Z</time>
      </trkpt>
      <trkpt lat="43.42607" lon="2.65808">
        <ele>803.9</ele>
        <time>2022-06-21T10:53:13Z</time>
      </trkpt>
      <trkpt lat="43.42607" lon="2.65808">
        <ele>803.9</ele>
        <time>2022-06-21T10:53:14Z</time>
      </trkpt>
      <trkpt lat="43.42607" lon="2.65808">
        <ele>803.9</ele>
        <time>2022-06-21T10:53:15Z</time>
      </trkpt>
      <trkpt lat="43.42607" lon="2.65808">
        <ele>803.9</ele>
        <time>2022-06-21T10:53:16Z</time>
      </trkpt>
      <trkpt lat="43.42607" lon="2.65808">
        <ele>803.9</ele>
        <time>2022-06-21T10:53:17Z</time>
      </trkpt>
      <trkpt lat="43.42607" lon="2.65808">
        <ele>803.9</ele>
        <time>2022-06-21T10:53:18Z</time>
      </trkpt>
      <trkpt lat="43.42607" lon="2.65808">
        <ele>803.9</ele>
        <time>2022-06-21T10:53:19Z</time>
      </trkpt>
      <trkpt lat="43.42607" lon="2.65808">
        <ele>803.9</ele>
        <time>2022-06-21T10:53:20Z</time>
      </trkpt>
      <trkpt lat="43.42607" lon="2.65808">
        <ele>803.9</ele>
        <time>2022-06-21T10:53:21Z</time>
      </trkpt>
      <trkpt lat="43.42607" lon="2.65808">
        <ele>803.9</ele>
        <time>2022-06-21T10:53:22Z</time>
      </trkpt>
      <trkpt lat="43.42607" lon="2.65808">
        <ele>803.9</ele>
        <time>2022-06-21T10:53:23Z</time>
      </trkpt>
      <trkpt lat="43.42607" lon="2.65808">
        <ele>803.9</ele>
        <time>2022-06-21T10:53:24Z</time>
      </trkpt>
      <trkpt lat="43.42607" lon="2.65808">
        <ele>803.9</ele>
        <time>2022-06-21T10:53:25Z</time>
      </trkpt>
      <trkpt lat="43.42607" lon="2.65808">
        <ele>803.9</ele>
        <time>2022-06-21T10:53:26Z</time>
      </trkpt>
      <trkpt lat="43.42607" lon="2.65808">
        <ele>803.9</ele>
        <time>2022-06-21T10:53:27Z</time>
      </trkpt>
      <trkpt lat="43.42607" lon="2.65808">
        <ele>803.9</ele>
        <time>2022-06-21T10:53:28Z</time>
      </trkpt>
      <trkpt lat="43.42607" lon="2.65808">
        <ele>803.9</ele>
        <time>2022-06-21T10:53:29Z</time>
      </trkpt>
      <trkpt lat="43.42607" lon="2.65808">
        <ele>803.9</ele>
        <time>2022-06-21T10:53:30Z</time>
      </trkpt>
      <trkpt lat="43.42607" lon="2.65808">
        <ele>803.9</ele>
        <time>2022-06-21T10:53:31Z</time>
      </trkpt>
      <trkpt lat="43.42607" lon="2.65808">
        <ele>803.9</ele>
        <time>2022-06-21T10:53:32Z</time>
      </trkpt>
      <trkpt lat="43.42607" lon="2.65808">
        <ele>803.9</ele>
        <time>2022-06-21T10:53:33Z</time>
      </trkpt>
      <trkpt lat="43.42607" lon="2.65808">
        <ele>803.9</ele>
        <time>2022-06-21T10:53:34Z</time>
      </trkpt>
      <trkpt lat="43.42607" lon="2.65808">
        <ele>803.9</ele>
        <time>2022-06-21T10:53:35Z</time>
      </trkpt>
      <trkpt lat="43.42607" lon="2.65808">
        <ele>803.9</ele>
        <time>2022-06-21T10:53:36Z</time>
      </trkpt>
      <trkpt lat="43.42607" lon="2.65808">
        <ele>803.9</ele>
        <time>2022-06-21T10:53:37Z</time>
      </trkpt>
      <trkpt lat="43.42607" lon="2.65808">
        <ele>803.9</ele>
        <time>2022-06-21T10:53:38Z</time>
      </trkpt>
      <trkpt lat="43.42607" lon="2.65808">
        <ele>803.9</ele>
        <time>2022-06-21T10:53:39Z</time>
      </trkpt>
      <trkpt lat="43.42607" lon="2.65808">
        <ele>803.9</ele>
        <time>2022-06-21T10:53:40Z</time>
      </trkpt>
      <trkpt lat="43.42607" lon="2.65808">
        <ele>803.9</ele>
        <time>2022-06-21T10:53:41Z</time>
      </trkpt>
      <trkpt lat="43.42607" lon="2.65808">
        <ele>803.9</ele>
        <time>2022-06-21T10:53:42Z</time>
      </trkpt>
      <trkpt lat="43.42607" lon="2.65808">
        <ele>803.9</ele>
        <time>2022-06-21T10:53:43Z</time>
      </trkpt>
      <trkpt lat="43.42607" lon="2.65808">
        <ele>803.9</ele>
        <time>2022-06-21T10:53:44Z</time>
      </trkpt>
      <trkpt lat="43.42607" lon="2.65808">
        <ele>803.9</ele>
        <time>2022-06-21T10:53:45Z</time>
      </trkpt>
      <trkpt lat="43.42607" lon="2.65808">
        <ele>803.9</ele>
        <time>2022-06-21T10:53:46Z</time>
      </trkpt>
      <trkpt lat="43.42607" lon="2.65808">
        <ele>803.9</ele>
        <time>2022-06-21T10:53:47Z</time>
      </trkpt>
      <trkpt lat="43.42607" lon="2.65808">
        <ele>803.9</ele>
        <time>2022-06-21T10:53:48Z</time>
      </trkpt>
      <trkpt lat="43.42607" lon="2.65808">
        <ele>803.9</ele>
        <time>2022-06-21T10:53:49Z</time>
      </trkpt>
      <trkpt lat="43.42607" lon="2.65808">
        <ele>803.9</ele>
        <time>2022-06-21T10:53:50Z</time>
      </trkpt>
      <trkpt lat="43.42607" lon="2.65808">
        <ele>803.9</ele>
        <time>2022-06-21T10:53:51Z</time>
      </trkpt>
      <trkpt lat="43.42607" lon="2.65808">
        <ele>803.9</ele>
        <time>2022-06-21T10:53:52Z</time>
      </trkpt>
      <trkpt lat="43.42607" lon="2.65808">
        <ele>803.9</ele>
        <time>2022-06-21T10:53:53Z</time>
      </trkpt>
      <trkpt lat="43.42607" lon="2.65808">
        <ele>803.9</ele>
        <time>2022-06-21T10:53:54Z</time>
      </trkpt>
      <trkpt lat="43.42607" lon="2.65808">
        <ele>803.9</ele>
        <time>2022-06-21T10:53:55Z</time>
      </trkpt>
      <trkpt lat="43.42607" lon="2.65808">
        <ele>803.9</ele>
        <time>2022-06-21T10:53:56Z</time>
      </trkpt>
      <trkpt lat="43.42607" lon="2.65808">
        <ele>803.9</ele>
        <time>2022-06-21T10:53:57Z</time>
      </trkpt>
      <trkpt lat="43.42607" lon="2.65808">
        <ele>803.9</ele>
        <time>2022-06-21T10:53:58Z</time>
      </trkpt>
      <trkpt lat="43.42607" lon="2.65808">
        <ele>803.9</ele>
        <time>2022-06-21T10:53:59Z</time>
      </trkpt>
      <trkpt lat="43.42607" lon="2.65808">
        <ele>803.9</ele>
        <time>2022-06-21T10:54:00Z</time>
      </trkpt>
      <trkpt lat="43.42607" lon="2.65808">
        <ele>803.9</ele>
        <time>2022-06-21T10:54:01Z</time>
      </trkpt>
      <trkpt lat="43.42607" lon="2.65808">
        <ele>803.9</ele>
        <time>2022-06-21T10:54:02Z</time>
      </trkpt>
      <trkpt lat="43.42607" lon="2.65808">
        <ele>803.9</ele>
        <time>2022-06-21T10:54:03Z</time>
      </trkpt>
      <trkpt lat="43.42607" lon="2.65808">
        <ele>803.9</ele>
        <time>2022-06-21T10:54:04Z</time>
      </trkpt>
      <trkpt lat="43.42607" lon="2.65808">
        <ele>803.9</ele>
        <time>2022-06-21T10:54:05Z</time>
      </trkpt>
      <trkpt lat="43.42607" lon="2.65808">
        <ele>803.9</ele>
        <time>2022-06-21T10:54:06Z</time>
      </trkpt>
      <trkpt lat="43.42607" lon="2.65808">
        <ele>803.9</ele>
        <time>2022-06-21T10:54:07Z</time>
      </trkpt>
      <trkpt lat="43.42607" lon="2.65808">
        <ele>803.9</ele>
        <time>2022-06-21T10:54:08Z</time>
      </trkpt>
      <trkpt lat="43.42607" lon="2.65808">
        <ele>803.9</ele>
        <time>2022-06-21T10:54:09Z</time>
      </trkpt>
      <trkpt lat="43.42607" lon="2.65808">
        <ele>803.9</ele>
        <time>2022-06-21T10:54:10Z</time>
      </trkpt>
      <trkpt lat="43.42607" lon="2.65808">
        <ele>803.9</ele>
        <time>2022-06-21T10:54:11Z</time>
      </trkpt>
      <trkpt lat="43.42607" lon="2.65808">
        <ele>803.9</ele>
        <time>2022-06-21T10:54:12Z</time>
      </trkpt>
      <trkpt lat="43.42607" lon="2.65808">
        <ele>803.9</ele>
        <time>2022-06-21T10:54:13Z</time>
      </trkpt>
      <trkpt lat="43.42607" lon="2.65808">
        <ele>803.9</ele>
        <time>2022-06-21T10:54:14Z</time>
      </trkpt>
      <trkpt lat="43.42607" lon="2.65808">
        <ele>803.9</ele>
        <time>2022-06-21T10:54:15Z</time>
      </trkpt>
      <trkpt lat="43.42607" lon="2.65808">
        <ele>803.9</ele>
        <time>2022-06-21T10:54:16Z</time>
      </trkpt>
      <trkpt lat="43.42607" lon="2.65808">
        <ele>803.9</ele>
        <time>2022-06-21T10:54:17Z</time>
      </trkpt>
      <trkpt lat="43.42607" lon="2.65808">
        <ele>803.9</ele>
        <time>2022-06-21T10:54:18Z</time>
      </trkpt>
      <trkpt lat="43.42607" lon="2.65808">
        <ele>803.9</ele>
        <time>2022-06-21T10:54:19Z</time>
      </trkpt>
      <trkpt lat="43.42607" lon="2.65808">
        <ele>803.9</ele>
        <time>2022-06-21T10:54:20Z</time>
      </trkpt>
      <trkpt lat="43.42607" lon="2.65808">
        <ele>803.9</ele>
        <time>2022-06-21T10:54:21Z</time>
      </trkpt>
      <trkpt lat="43.42607" lon="2.65808">
        <ele>803.9</ele>
        <time>2022-06-21T10:54:22Z</time>
      </trkpt>
      <trkpt lat="43.42607" lon="2.65808">
        <ele>803.9</ele>
        <time>2022-06-21T10:54:23Z</time>
      </trkpt>
      <trkpt lat="43.42607" lon="2.65808">
        <ele>803.9</ele>
        <time>2022-06-21T10:54:24Z</time>
      </trkpt>
      <trkpt lat="43.42607" lon="2.65808">
        <ele>803.9</ele>
        <time>2022-06-21T10:54:25Z</time>
      </trkpt>
      <trkpt lat="43.42607" lon="2.65808">
        <ele>803.9</ele>
        <time>2022-06-21T10:54:26Z</time>
      </trkpt>
      <trkpt lat="43.42607" lon="2.65808">
        <ele>803.9</ele>
        <time>2022-06-21T10:54:27Z</time>
      </trkpt>
      <trkpt lat="43.42607" lon="2.65808">
        <ele>803.9</ele>
        <time>2022-06-21T10:54:28Z</time>
      </trkpt>
      <trkpt lat="43.42607" lon="2.65808">
        <ele>803.9</ele>
        <time>2022-06-21T10:54:29Z</time>
      </trkpt>
      <trkpt lat="43.42607" lon="2.65808">
        <ele>803.9</ele>
        <time>2022-06-21T10:54:30Z</time>
      </trkpt>
      <trkpt lat="43.42607" lon="2.65808">
        <ele>803.9</ele>
        <time>2022-06-21T10:54:31Z</time>
      </trkpt>
      <trkpt lat="43.42607" lon="2.65808">
        <ele>803.9</ele>
        <time>2022-06-21T10:54:32Z</time>
      </trkpt>
      <trkpt lat="43.42607" lon="2.65808">
        <ele>803.9</ele>
        <time>2022-06-21T10:54:33Z</time>
      </trkpt>
      <trkpt lat="43.42607" lon="2.65808">
        <ele>803.9</ele>
        <time>2022-06-21T10:54:34Z</time>
      </trkpt>
      <trkpt lat="43.42607" lon="2.65808">
        <ele>803.9</ele>
        <time>2022-06-21T10:54:35Z</time>
      </trkpt>
      <trkpt lat="43.42607" lon="2.65808">
        <ele>803.9</ele>
        <time>2022-06-21T10:54:36Z</time>
      </trkpt>
      <trkpt lat="43.42607" lon="2.65808">
        <ele>803.9</ele>
        <time>2022-06-21T10:54:37Z</time>
      </trkpt>
      <trkpt lat="43.42607" lon="2.65808">
        <ele>803.9</ele>
        <time>2022-06-21T10:54:38Z</time>
      </trkpt>
      <trkpt lat="43.42607" lon="2.65808">
        <ele>803.9</ele>
        <time>2022-06-21T10:54:39Z</time>
      </trkpt>
      <trkpt lat="43.42607" lon="2.65808">
        <ele>803.9</ele>
        <time>2022-06-21T10:54:40Z</time>
      </trkpt>
      <trkpt lat="43.42607" lon="2.65808">
        <ele>803.9</ele>
        <time>2022-06-21T10:54:41Z</time>
      </trkpt>
      <trkpt lat="43.42607" lon="2.65808">
        <ele>803.9</ele>
        <time>2022-06-21T10:54:42Z</time>
      </trkpt>
      <trkpt lat="43.42607" lon="2.65808">
        <ele>803.9</ele>
        <time>2022-06-21T10:54:43Z</time>
      </trkpt>
      <trkpt lat="43.42607" lon="2.65808">
        <ele>803.9</ele>
        <time>2022-06-21T10:54:44Z</time>
      </trkpt>
      <trkpt lat="43.42607" lon="2.65808">
        <ele>803.9</ele>
        <time>2022-06-21T10:54:45Z</time>
      </trkpt>
      <trkpt lat="43.42607" lon="2.65808">
        <ele>803.9</ele>
        <time>2022-06-21T10:54:46Z</time>
      </trkpt>
      <trkpt lat="43.42607" lon="2.65808">
        <ele>803.9</ele>
        <time>2022-06-21T10:54:47Z</time>
      </trkpt>
      <trkpt lat="43.42607" lon="2.65808">
        <ele>803.9</ele>
        <time>2022-06-21T10:54:48Z</time>
      </trkpt>
      <trkpt lat="43.42607" lon="2.65808">
        <ele>803.9</ele>
        <time>2022-06-21T10:54:49Z</time>
      </trkpt>
      <trkpt lat="43.42607" lon="2.65808">
        <ele>803.9</ele>
        <time>2022-06-21T10:54:50Z</time>
      </trkpt>
      <trkpt lat="43.42607" lon="2.65808">
        <ele>803.9</ele>
        <time>2022-06-21T10:54:51Z</time>
      </trkpt>
      <trkpt lat="43.42607" lon="2.65808">
        <ele>803.9</ele>
        <time>2022-06-21T10:54:52Z</time>
      </trkpt>
      <trkpt lat="43.42607" lon="2.65808">
        <ele>803.9</ele>
        <time>2022-06-21T10:54:53Z</time>
      </trkpt>
      <trkpt lat="43.42607" lon="2.65808">
        <ele>803.9</ele>
        <time>2022-06-21T10:54:54Z</time>
      </trkpt>
      <trkpt lat="43.42607" lon="2.65808">
        <ele>803.9</ele>
        <time>2022-06-21T10:54:55Z</time>
      </trkpt>
      <trkpt lat="43.42607" lon="2.65808">
        <ele>803.9</ele>
        <time>2022-06-21T10:54:56Z</time>
      </trkpt>
      <trkpt lat="43.42607" lon="2.65808">
        <ele>803.9</ele>
        <time>2022-06-21T10:54:57Z</time>
      </trkpt>
      <trkpt lat="43.42607" lon="2.65808">
        <ele>803.9</ele>
        <time>2022-06-21T10:54:58Z</time>
      </trkpt>
      <trkpt lat="43.42607" lon="2.65808">
        <ele>803.9</ele>
        <time>2022-06-21T10:54:59Z</time>
      </trkpt>
      <trkpt lat="43.42607" lon="2.65808">
        <ele>803.9</ele>
        <time>2022-06-21T10:55:00Z</time>
      </trkpt>
      <trkpt lat="43.42607" lon="2.65808">
        <ele>803.9</ele>
        <time>2022-06-21T10:55:01Z</time>
      </trkpt>
      <trkpt lat="43.42607" lon="2.65808">
        <ele>803.9</ele>
        <time>2022-06-21T10:55:02Z</time>
      </trkpt>
      <trkpt lat="43.42607" lon="2.65808">
        <ele>803.9</ele>
        <time>2022-06-21T10:55:03Z</time>
      </trkpt>
      <trkpt lat="43.42607" lon="2.65808">
        <ele>803.9</ele>
        <time>2022-06-21T10:55:04Z</time>
      </trkpt>
      <trkpt lat="43.42607" lon="2.65808">
        <ele>803.9</ele>
        <time>2022-06-21T10:55:05Z</time>
      </trkpt>
      <trkpt lat="43.42607" lon="2.65808">
        <ele>803.9</ele>
        <time>2022-06-21T10:55:06Z</time>
      </trkpt>
      <trkpt lat="43.42607" lon="2.65808">
        <ele>803.9</ele>
        <time>2022-06-21T10:55:07Z</time>
      </trkpt>
      <trkpt lat="43.42607" lon="2.65808">
        <ele>803.9</ele>
        <time>2022-06-21T10:55:08Z</time>
      </trkpt>
      <trkpt lat="43.42607" lon="2.65808">
        <ele>803.9</ele>
        <time>2022-06-21T10:55:09Z</time>
      </trkpt>
      <trkpt lat="43.42607" lon="2.65808">
        <ele>803.9</ele>
        <time>2022-06-21T10:55:10Z</time>
      </trkpt>
      <trkpt lat="43.42607" lon="2.65808">
        <ele>803.9</ele>
        <time>2022-06-21T10:55:11Z</time>
      </trkpt>
      <trkpt lat="43.42607" lon="2.65808">
        <ele>803.9</ele>
        <time>2022-06-21T10:55:12Z</time>
      </trkpt>
      <trkpt lat="43.42607" lon="2.65808">
        <ele>803.9</ele>
        <time>2022-06-21T10:55:13Z</time>
      </trkpt>
      <trkpt lat="43.42607" lon="2.65808">
        <ele>803.9</ele>
        <time>2022-06-21T10:55:14Z</time>
      </trkpt>
      <trkpt lat="43.42607" lon="2.65808">
        <ele>803.9</ele>
        <time>2022-06-21T10:55:15Z</time>
      </trkpt>
      <trkpt lat="43.42607" lon="2.65808">
        <ele>803.9</ele>
        <time>2022-06-21T10:55:16Z</time>
      </trkpt>
      <trkpt lat="43.42607" lon="2.65808">
        <ele>803.9</ele>
        <time>2022-06-21T10:55:17Z</time>
      </trkpt>
      <trkpt lat="43.42607" lon="2.65808">
        <ele>803.9</ele>
        <time>2022-06-21T10:55:18Z</time>
      </trkpt>
      <trkpt lat="43.42607" lon="2.65808">
        <ele>803.9</ele>
        <time>2022-06-21T10:55:19Z</time>
      </trkpt>
      <trkpt lat="43.42607" lon="2.65808">
        <ele>803.9</ele>
        <time>2022-06-21T10:55:20Z</time>
      </trkpt>
      <trkpt lat="43.42607" lon="2.65808">
        <ele>803.9</ele>
        <time>2022-06-21T10:55:21Z</time>
      </trkpt>
      <trkpt lat="43.42607" lon="2.65808">
        <ele>803.9</ele>
        <time>2022-06-21T10:55:22Z</time>
      </trkpt>
      <trkpt lat="43.42607" lon="2.65808">
        <ele>803.9</ele>
        <time>2022-06-21T10:55:23Z</time>
      </trkpt>
      <trkpt lat="43.42607" lon="2.65808">
        <ele>803.9</ele>
        <time>2022-06-21T10:55:24Z</time>
      </trkpt>
      <trkpt lat="43.42607" lon="2.65808">
        <ele>803.9</ele>
        <time>2022-06-21T10:55:25Z</time>
      </trkpt>
      <trkpt lat="43.42607" lon="2.65808">
        <ele>803.9</ele>
        <time>2022-06-21T10:55:26Z</time>
      </trkpt>
      <trkpt lat="43.42607" lon="2.65808">
        <ele>803.9</ele>
        <time>2022-06-21T10:55:27Z</time>
      </trkpt>
      <trkpt lat="43.42607" lon="2.65808">
        <ele>803.9</ele>
        <time>2022-06-21T10:55:28Z</time>
      </trkpt>
      <trkpt lat="43.42607" lon="2.65808">
        <ele>803.9</ele>
        <time>2022-06-21T10:55:29Z</time>
      </trkpt>
      <trkpt lat="43.42607" lon="2.65808">
        <ele>803.9</ele>
        <time>2022-06-21T10:55:30Z</time>
      </trkpt>
      <trkpt lat="43.42607" lon="2.65808">
        <ele>803.9</ele>
        <time>2022-06-21T10:55:31Z</time>
      </trkpt>
      <trkpt lat="43.42607" lon="2.65808">
        <ele>803.9</ele>
        <time>2022-06-21T10:55:32Z</time>
      </trkpt>
      <trkpt lat="43.42607" lon="2.65808">
        <ele>803.9</ele>
        <time>2022-06-21T10:55:33Z</time>
      </trkpt>
      <trkpt lat="43.42607" lon="2.65808">
        <ele>803.9</ele>
        <time>2022-06-21T10:55:34Z</time>
      </trkpt>
      <trkpt lat="43.42607" lon="2.65808">
        <ele>803.9</ele>
        <time>2022-06-21T10:55:35Z</time>
      </trkpt>
      <trkpt lat="43.42607" lon="2.65808">
        <ele>803.9</ele>
        <time>2022-06-21T10:55:36Z</time>
      </trkpt>
      <trkpt lat="43.42607" lon="2.65808">
        <ele>803.9</ele>
        <time>2022-06-21T10:55:37Z</time>
      </trkpt>
      <trkpt lat="43.42607" lon="2.65808">
        <ele>803.9</ele>
        <time>2022-06-21T10:55:38Z</time>
      </trkpt>
      <trkpt lat="43.42607" lon="2.65808">
        <ele>803.9</ele>
        <time>2022-06-21T10:55:39Z</time>
      </trkpt>
      <trkpt lat="43.42607" lon="2.65808">
        <ele>803.9</ele>
        <time>2022-06-21T10:55:40Z</time>
      </trkpt>
      <trkpt lat="43.42607" lon="2.65808">
        <ele>803.9</ele>
        <time>2022-06-21T10:55:41Z</time>
      </trkpt>
      <trkpt lat="43.42607" lon="2.65808">
        <ele>803.9</ele>
        <time>2022-06-21T10:55:42Z</time>
      </trkpt>
      <trkpt lat="43.42607" lon="2.65808">
        <ele>803.9</ele>
        <time>2022-06-21T10:55:43Z</time>
      </trkpt>
      <trkpt lat="43.42607" lon="2.65808">
        <ele>803.9</ele>
        <time>2022-06-21T10:55:44Z</time>
      </trkpt>
      <trkpt lat="43.42607" lon="2.65808">
        <ele>803.9</ele>
        <time>2022-06-21T10:55:45Z</time>
      </trkpt>
      <trkpt lat="43.42607" lon="2.65808">
        <ele>803.9</ele>
        <time>2022-06-21T10:55:46Z</time>
      </trkpt>
      <trkpt lat="43.42607" lon="2.65808">
        <ele>803.9</ele>
        <time>2022-06-21T10:55:47Z</time>
      </trkpt>
      <trkpt lat="43.42607" lon="2.65808">
        <ele>803.9</ele>
        <time>2022-06-21T10:55:48Z</time>
      </trkpt>
      <trkpt lat="43.42607" lon="2.65808">
        <ele>803.9</ele>
        <time>2022-06-21T10:55:49Z</time>
      </trkpt>
      <trkpt lat="43.42607" lon="2.65808">
        <ele>803.9</ele>
        <time>2022-06-21T10:55:50Z</time>
      </trkpt>
      <trkpt lat="43.42607" lon="2.65808">
        <ele>803.9</ele>
        <time>2022-06-21T10:55:51Z</time>
      </trkpt>
      <trkpt lat="43.42607" lon="2.65808">
        <ele>803.9</ele>
        <time>2022-06-21T10:55:52Z</time>
      </trkpt>
      <trkpt lat="43.42607" lon="2.65808">
        <ele>803.9</ele>
        <time>2022-06-21T10:55:53Z</time>
      </trkpt>
      <trkpt lat="43.42607" lon="2.65808">
        <ele>803.9</ele>
        <time>2022-06-21T10:55:54Z</time>
      </trkpt>
      <trkpt lat="43.42607" lon="2.65808">
        <ele>803.9</ele>
        <time>2022-06-21T10:55:55Z</time>
      </trkpt>
      <trkpt lat="43.42607" lon="2.65808">
        <ele>803.9</ele>
        <time>2022-06-21T10:55:56Z</time>
      </trkpt>
      <trkpt lat="43.42607" lon="2.65808">
        <ele>803.9</ele>
        <time>2022-06-21T10:55:57Z</time>
      </trkpt>
      <trkpt lat="43.42607" lon="2.65808">
        <ele>803.9</ele>
        <time>2022-06-21T10:55:58Z</time>
      </trkpt>
      <trkpt lat="43.42607" lon="2.65808">
        <ele>803.9</ele>
        <time>2022-06-21T10:55:59Z</time>
      </trkpt>
      <trkpt lat="43.42607" lon="2.65808">
        <ele>803.9</ele>
        <time>2022-06-21T10:56:00Z</time>
      </trkpt>
      <trkpt lat="43.42607" lon="2.65808">
        <ele>803.9</ele>
        <time>2022-06-21T10:56:01Z</time>
      </trkpt>
      <trkpt lat="43.42607" lon="2.65808">
        <ele>803.9</ele>
        <time>2022-06-21T10:56:02Z</time>
      </trkpt>
      <trkpt lat="43.42607" lon="2.65808">
        <ele>803.9</ele>
        <time>2022-06-21T10:56:03Z</time>
      </trkpt>
      <trkpt lat="43.42607" lon="2.65808">
        <ele>803.9</ele>
        <time>2022-06-21T10:56:04Z</time>
      </trkpt>
      <trkpt lat="43.42607" lon="2.65808">
        <ele>803.9</ele>
        <time>2022-06-21T10:56:05Z</time>
      </trkpt>
      <trkpt lat="43.42607" lon="2.65808">
        <ele>803.9</ele>
        <time>2022-06-21T10:56:06Z</time>
      </trkpt>
      <trkpt lat="43.42607" lon="2.65808">
        <ele>803.9</ele>
        <time>2022-06-21T10:56:07Z</time>
      </trkpt>
      <trkpt lat="43.42607" lon="2.65808">
        <ele>803.9</ele>
        <time>2022-06-21T10:56:08Z</time>
      </trkpt>
      <trkpt lat="43.42607" lon="2.65808">
        <ele>803.9</ele>
        <time>2022-06-21T10:56:09Z</time>
      </trkpt>
      <trkpt lat="43.42607" lon="2.65808">
        <ele>803.9</ele>
        <time>2022-06-21T10:56:10Z</time>
      </trkpt>
      <trkpt lat="43.42607" lon="2.65808">
        <ele>803.9</ele>
        <time>2022-06-21T10:56:11Z</time>
      </trkpt>
      <trkpt lat="43.42607" lon="2.65808">
        <ele>803.9</ele>
        <time>2022-06-21T10:56:12Z</time>
      </trkpt>
      <trkpt lat="43.42607" lon="2.65808">
        <ele>803.9</ele>
        <time>2022-06-21T10:56:13Z</time>
      </trkpt>
      <trkpt lat="43.42607" lon="2.65808">
        <ele>803.9</ele>
        <time>2022-06-21T10:56:14Z</time>
      </trkpt>
      <trkpt lat="43.42607" lon="2.65808">
        <ele>803.9</ele>
        <time>2022-06-21T10:56:15Z</time>
      </trkpt>
      <trkpt lat="43.42607" lon="2.65808">
        <ele>803.9</ele>
        <time>2022-06-21T10:56:16Z</time>
      </trkpt>
      <trkpt lat="43.42607" lon="2.65808">
        <ele>803.9</ele>
        <time>2022-06-21T10:56:17Z</time>
      </trkpt>
      <trkpt lat="43.42607" lon="2.65808">
        <ele>803.9</ele>
        <time>2022-06-21T10:56:18Z</time>
      </trkpt>
      <trkpt lat="43.42607" lon="2.65808">
        <ele>803.9</ele>
        <time>2022-06-21T10:56:19Z</time>
      </trkpt>
      <trkpt lat="43.42607" lon="2.65808">
        <ele>803.9</ele>
        <time>2022-06-21T10:56:20Z</time>
      </trkpt>
      <trkpt lat="43.42607" lon="2.65808">
        <ele>803.9</ele>
        <time>2022-06-21T10:56:21Z</time>
      </trkpt>
      <trkpt lat="43.42607" lon="2.65808">
        <ele>803.9</ele>
        <time>2022-06-21T10:56:22Z</time>
      </trkpt>
      <trkpt lat="43.42607" lon="2.65808">
        <ele>803.9</ele>
        <time>2022-06-21T10:56:23Z</time>
      </trkpt>
      <trkpt lat="43.42607" lon="2.65808">
        <ele>803.9</ele>
        <time>2022-06-21T10:56:24Z</time>
      </trkpt>
      <trkpt lat="43.42607" lon="2.65808">
        <ele>803.9</ele>
        <time>2022-06-21T10:56:25Z</time>
      </trkpt>
      <trkpt lat="43.42607" lon="2.65808">
        <ele>803.9</ele>
        <time>2022-06-21T10:56:26Z</time>
      </trkpt>
      <trkpt lat="43.42607" lon="2.65808">
        <ele>803.9</ele>
        <time>2022-06-21T10:56:27Z</time>
      </trkpt>
      <trkpt lat="43.42607" lon="2.65808">
        <ele>803.9</ele>
        <time>2022-06-21T10:56:28Z</time>
      </trkpt>
      <trkpt lat="43.42607" lon="2.65808">
        <ele>803.9</ele>
        <time>2022-06-21T10:56:29Z</time>
      </trkpt>
      <trkpt lat="43.42607" lon="2.65808">
        <ele>803.9</ele>
        <time>2022-06-21T10:56:30Z</time>
      </trkpt>
      <trkpt lat="43.42607" lon="2.65808">
        <ele>803.9</ele>
        <time>2022-06-21T10:56:31Z</time>
      </trkpt>
      <trkpt lat="43.42607" lon="2.65808">
        <ele>803.9</ele>
        <time>2022-06-21T10:56:32Z</time>
      </trkpt>
      <trkpt lat="43.42607" lon="2.65808">
        <ele>803.9</ele>
        <time>2022-06-21T10:56:33Z</time>
      </trkpt>
      <trkpt lat="43.42607" lon="2.65808">
        <ele>803.9</ele>
        <time>2022-06-21T10:56:34Z</time>
      </trkpt>
      <trkpt lat="43.42607" lon="2.65808">
        <ele>803.9</ele>
        <time>2022-06-21T10:56:35Z</time>
      </trkpt>
      <trkpt lat="43.42607" lon="2.65808">
        <ele>803.9</ele>
        <time>2022-06-21T10:56:36Z</time>
      </trkpt>
      <trkpt lat="43.42607" lon="2.65808">
        <ele>803.9</ele>
        <time>2022-06-21T10:56:37Z</time>
      </trkpt>
      <trkpt lat="43.42607" lon="2.65808">
        <ele>803.9</ele>
        <time>2022-06-21T10:56:38Z</time>
      </trkpt>
      <trkpt lat="43.42607" lon="2.65808">
        <ele>803.9</ele>
        <time>2022-06-21T10:56:39Z</time>
      </trkpt>
      <trkpt lat="43.42607" lon="2.65808">
        <ele>803.9</ele>
        <time>2022-06-21T10:56:40Z</time>
      </trkpt>
      <trkpt lat="43.42607" lon="2.65808">
        <ele>803.9</ele>
        <time>2022-06-21T10:56:41Z</time>
      </trkpt>
      <trkpt lat="43.42607" lon="2.65808">
        <ele>803.9</ele>
        <time>2022-06-21T10:56:42Z</time>
      </trkpt>
      <trkpt lat="43.42607" lon="2.65808">
        <ele>803.9</ele>
        <time>2022-06-21T10:56:43Z</time>
      </trkpt>
      <trkpt lat="43.42607" lon="2.65808">
        <ele>803.9</ele>
        <time>2022-06-21T10:56:44Z</time>
      </trkpt>
      <trkpt lat="43.42607" lon="2.65808">
        <ele>803.9</ele>
        <time>2022-06-21T10:56:45Z</time>
      </trkpt>
      <trkpt lat="43.42607" lon="2.65808">
        <ele>803.9</ele>
        <time>2022-06-21T10:56:46Z</time>
      </trkpt>
      <trkpt lat="43.42607" lon="2.65808">
        <ele>803.9</ele>
        <time>2022-06-21T10:56:47Z</time>
      </trkpt>
      <trkpt lat="43.42607" lon="2.65808">
        <ele>803.9</ele>
        <time>2022-06-21T10:56:48Z</time>
      </trkpt>
      <trkpt lat="43.42607" lon="2.65808">
        <ele>803.9</ele>
        <time>2022-06-21T10:56:49Z</time>
      </trkpt>
      <trkpt lat="43.42607" lon="2.65808">
        <ele>803.9</ele>
        <time>2022-06-21T10:56:50Z</time>
      </trkpt>
      <trkpt lat="43.42607" lon="2.65808">
        <ele>803.9</ele>
        <time>2022-06-21T10:56:51Z</time>
      </trkpt>
      <trkpt lat="43.42607" lon="2.65808">
        <ele>803.9</ele>
        <time>2022-06-21T10:56:52Z</time>
      </trkpt>
      <trkpt lat="43.42607" lon="2.65808">
        <ele>803.9</ele>
        <time>2022-06-21T10:56:53Z</time>
      </trkpt>
      <trkpt lat="43.42607" lon="2.65808">
        <ele>803.9</ele>
        <time>2022-06-21T10:56:54Z</time>
      </trkpt>
      <trkpt lat="43.42607" lon="2.65808">
        <ele>803.9</ele>
        <time>2022-06-21T10:56:55Z</time>
      </trkpt>
      <trkpt lat="43.42607" lon="2.65808">
        <ele>803.9</ele>
        <time>2022-06-21T10:56:56Z</time>
      </trkpt>
      <trkpt lat="43.42607" lon="2.65808">
        <ele>803.9</ele>
        <time>2022-06-21T10:56:57Z</time>
      </trkpt>
      <trkpt lat="43.42607" lon="2.65808">
        <ele>803.9</ele>
        <time>2022-06-21T10:56:58Z</time>
      </trkpt>
      <trkpt lat="43.42607" lon="2.65808">
        <ele>803.9</ele>
        <time>2022-06-21T10:56:59Z</time>
      </trkpt>
      <trkpt lat="43.42607" lon="2.65808">
        <ele>803.9</ele>
        <time>2022-06-21T10:57:00Z</time>
      </trkpt>
      <trkpt lat="43.42607" lon="2.65808">
        <ele>803.9</ele>
        <time>2022-06-21T10:57:01Z</time>
      </trkpt>
      <trkpt lat="43.42607" lon="2.65808">
        <ele>803.9</ele>
        <time>2022-06-21T10:57:02Z</time>
      </trkpt>
      <trkpt lat="43.42607" lon="2.65808">
        <ele>803.9</ele>
        <time>2022-06-21T10:57:03Z</time>
      </trkpt>
      <trkpt lat="43.42607" lon="2.65808">
        <ele>803.9</ele>
        <time>2022-06-21T10:57:04Z</time>
      </trkpt>
      <trkpt lat="43.42607" lon="2.65808">
        <ele>803.9</ele>
        <time>2022-06-21T10:57:05Z</time>
      </trkpt>
      <trkpt lat="43.42607" lon="2.65808">
        <ele>803.9</ele>
        <time>2022-06-21T10:57:06Z</time>
      </trkpt>
      <trkpt lat="43.42607" lon="2.65808">
        <ele>803.9</ele>
        <time>2022-06-21T10:57:07Z</time>
      </trkpt>
      <trkpt lat="43.42607" lon="2.65808">
        <ele>803.9</ele>
        <time>2022-06-21T10:57:08Z</time>
      </trkpt>
      <trkpt lat="43.42607" lon="2.65808">
        <ele>803.9</ele>
        <time>2022-06-21T10:57:09Z</time>
      </trkpt>
      <trkpt lat="43.42607" lon="2.65808">
        <ele>803.9</ele>
        <time>2022-06-21T10:57:10Z</time>
      </trkpt>
      <trkpt lat="43.42607" lon="2.65808">
        <ele>803.9</ele>
        <time>2022-06-21T10:57:11Z</time>
      </trkpt>
      <trkpt lat="43.42607" lon="2.65808">
        <ele>803.9</ele>
        <time>2022-06-21T10:57:12Z</time>
      </trkpt>
      <trkpt lat="43.42607" lon="2.65808">
        <ele>803.9</ele>
        <time>2022-06-21T10:57:13Z</time>
      </trkpt>
      <trkpt lat="43.42607" lon="2.65808">
        <ele>803.9</ele>
        <time>2022-06-21T10:57:14Z</time>
      </trkpt>
      <trkpt lat="43.42607" lon="2.65808">
        <ele>803.9</ele>
        <time>2022-06-21T10:57:15Z</time>
      </trkpt>
      <trkpt lat="43.42607" lon="2.65808">
        <ele>803.9</ele>
        <time>2022-06-21T10:57:16Z</time>
      </trkpt>
      <trkpt lat="43.42607" lon="2.65808">
        <ele>803.9</ele>
        <time>2022-06-21T10:57:17Z</time>
      </trkpt>
      <trkpt lat="43.42607" lon="2.65808">
        <ele>803.9</ele>
        <time>2022-06-21T10:57:18Z</time>
      </trkpt>
      <trkpt lat="43.42607" lon="2.65808">
        <ele>803.9</ele>
        <time>2022-06-21T10:57:19Z</time>
      </trkpt>
      <trkpt lat="43.42607" lon="2.65808">
        <ele>803.9</ele>
        <time>2022-06-21T10:57:20Z</time>
      </trkpt>
      <trkpt lat="43.42607" lon="2.65808">
        <ele>803.9</ele>
        <time>2022-06-21T10:57:21Z</time>
      </trkpt>
      <trkpt lat="43.42607" lon="2.65808">
        <ele>803.9</ele>
        <time>2022-06-21T10:57:22Z</time>
      </trkpt>
      <trkpt lat="43.42607" lon="2.65808">
        <ele>803.9</ele>
        <time>2022-06-21T10:57:23Z</time>
      </trkpt>
      <trkpt lat="43.42607" lon="2.65808">
        <ele>803.9</ele>
        <time>2022-06-21T10:57:24Z</time>
      </trkpt>
      <trkpt lat="43.42607" lon="2.65808">
        <ele>803.9</ele>
        <time>2022-06-21T10:57:25Z</time>
      </trkpt>
      <trkpt lat="43.42607" lon="2.65808">
        <ele>803.9</ele>
        <time>2022-06-21T10:57:26Z</time>
      </trkpt>
      <trkpt lat="43.42607" lon="2.65808">
        <ele>803.9</ele>
        <time>2022-06-21T10:57:27Z</time>
      </trkpt>
      <trkpt lat="43.42607" lon="2.65808">
        <ele>803.9</ele>
        <time>2022-06-21T10:57:28Z</time>
      </trkpt>
      <trkpt lat="43.42607" lon="2.65808">
        <ele>803.9</ele>
        <time>2022-06-21T10:57:29Z</time>
      </trkpt>
      <trkpt lat="43.42607" lon="2.65808">
        <ele>803.9</ele>
        <time>2022-06-21T10:57:30Z</time>
      </trkpt>
      <trkpt lat="43.42607" lon="2.65808">
        <ele>803.9</ele>
        <time>2022-06-21T10:57:31Z</time>
      </trkpt>
      <trkpt lat="43.42607" lon="2.65808">
        <ele>803.9</ele>
        <time>2022-06-21T10:57:32Z</time>
      </trkpt>
      <trkpt lat="43.42607" lon="2.65808">
        <ele>803.9</ele>
        <time>2022-06-21T10:57:33Z</time>
      </trkpt>
      <trkpt lat="43.42607" lon="2.65808">
        <ele>803.9</ele>
        <time>2022-06-21T10:57:34Z</time>
      </trkpt>
      <trkpt lat="43.42607" lon="2.65808">
        <ele>803.9</ele>
        <time>2022-06-21T10:57:35Z</time>
      </trkpt>
      <trkpt lat="43.42607" lon="2.65808">
        <ele>803.9</ele>
        <time>2022-06-21T10:57:36Z</time>
      </trkpt>
      <trkpt lat="43.42607" lon="2.65808">
        <ele>803.9</ele>
        <time>2022-06-21T10:57:37Z</time>
      </trkpt>
      <trkpt lat="43.42607" lon="2.65808">
        <ele>803.9</ele>
        <time>2022-06-21T10:57:38Z</time>
      </trkpt>
      <trkpt lat="43.42607" lon="2.65808">
        <ele>803.9</ele>
        <time>2022-06-21T10:57:39Z</time>
      </trkpt>
      <trkpt lat="43.42607" lon="2.65808">
        <ele>803.9</ele>
        <time>2022-06-21T10:57:40Z</time>
      </trkpt>
      <trkpt lat="43.42607" lon="2.65808">
        <ele>803.9</ele>
        <time>2022-06-21T10:57:41Z</time>
      </trkpt>
      <trkpt lat="43.42607" lon="2.65808">
        <ele>803.9</ele>
        <time>2022-06-21T10:57:42Z</time>
      </trkpt>
      <trkpt lat="43.42607" lon="2.65808">
        <ele>803.9</ele>
        <time>2022-06-21T10:57:43Z</time>
      </trkpt>
      <trkpt lat="43.42607" lon="2.65808">
        <ele>803.9</ele>
        <time>2022-06-21T10:57:44Z</time>
      </trkpt>
      <trkpt lat="43.42607" lon="2.65808">
        <ele>803.9</ele>
        <time>2022-06-21T10:57:45Z</time>
      </trkpt>
      <trkpt lat="43.42607" lon="2.65808">
        <ele>803.9</ele>
        <time>2022-06-21T10:57:46Z</time>
      </trkpt>
      <trkpt lat="43.42607" lon="2.65808">
        <ele>803.9</ele>
        <time>2022-06-21T10:57:47Z</time>
      </trkpt>
      <trkpt lat="43.42607" lon="2.65808">
        <ele>803.9</ele>
        <time>2022-06-21T10:57:48Z</time>
      </trkpt>
      <trkpt lat="43.42607" lon="2.65808">
        <ele>803.9</ele>
        <time>2022-06-21T10:57:49Z</time>
      </trkpt>
      <trkpt lat="43.42607" lon="2.65808">
        <ele>803.9</ele>
        <time>2022-06-21T10:57:50Z</time>
      </trkpt>
      <trkpt lat="43.42607" lon="2.65808">
        <ele>803.9</ele>
        <time>2022-06-21T10:57:51Z</time>
      </trkpt>
      <trkpt lat="43.42607" lon="2.65808">
        <ele>803.9</ele>
        <time>2022-06-21T10:57:52Z</time>
      </trkpt>
      <trkpt lat="43.42607" lon="2.65808">
        <ele>803.9</ele>
        <time>2022-06-21T10:57:53Z</time>
      </trkpt>
      <trkpt lat="43.42607" lon="2.65808">
        <ele>803.9</ele>
        <time>2022-06-21T10:57:54Z</time>
      </trkpt>
      <trkpt lat="43.42607" lon="2.65808">
        <ele>803.9</ele>
        <time>2022-06-21T10:57:55Z</time>
      </trkpt>
      <trkpt lat="43.42607" lon="2.65808">
        <ele>803.9</ele>
        <time>2022-06-21T10:57:56Z</time>
      </trkpt>
      <trkpt lat="43.42607" lon="2.65808">
        <ele>803.9</ele>
        <time>2022-06-21T10:57:57Z</time>
      </trkpt>
      <trkpt lat="43.42607" lon="2.65808">
        <ele>803.9</ele>
        <time>2022-06-21T10:57:59Z</time>
      </trkpt>
      <trkpt lat="43.42607" lon="2.65808">
        <ele>803.9</ele>
        <time>2022-06-21T10:58:00Z</time>
      </trkpt>
      <trkpt lat="43.42607" lon="2.65808">
        <ele>803.9</ele>
        <time>2022-06-21T10:58:01Z</time>
      </trkpt>
      <trkpt lat="43.42607" lon="2.65808">
        <ele>803.9</ele>
        <time>2022-06-21T10:58:02Z</time>
      </trkpt>
      <trkpt lat="43.42607" lon="2.65808">
        <ele>803.9</ele>
        <time>2022-06-21T10:58:03Z</time>
      </trkpt>
      <trkpt lat="43.42607" lon="2.65808">
        <ele>803.9</ele>
        <time>2022-06-21T10:58:04Z</time>
      </trkpt>
      <trkpt lat="43.42607" lon="2.65808">
        <ele>803.9</ele>
        <time>2022-06-21T10:58:05Z</time>
      </trkpt>
      <trkpt lat="43.42607" lon="2.65808">
        <ele>803.9</ele>
        <time>2022-06-21T10:58:06Z</time>
      </trkpt>
      <trkpt lat="43.42607" lon="2.65808">
        <ele>803.9</ele>
        <time>2022-06-21T10:58:07Z</time>
      </trkpt>
      <trkpt lat="43.42607" lon="2.65808">
        <ele>803.9</ele>
        <time>2022-06-21T10:58:08Z</time>
      </trkpt>
      <trkpt lat="43.42607" lon="2.65808">
        <ele>803.9</ele>
        <time>2022-06-21T10:58:09Z</time>
      </trkpt>
      <trkpt lat="43.42607" lon="2.65808">
        <ele>803.9</ele>
        <time>2022-06-21T10:58:10Z</time>
      </trkpt>
      <trkpt lat="43.42607" lon="2.65808">
        <ele>803.9</ele>
        <time>2022-06-21T10:58:11Z</time>
      </trkpt>
      <trkpt lat="43.42607" lon="2.65808">
        <ele>803.9</ele>
        <time>2022-06-21T10:58:12Z</time>
      </trkpt>
      <trkpt lat="43.42607" lon="2.65808">
        <ele>803.9</ele>
        <time>2022-06-21T10:58:13Z</time>
      </trkpt>
      <trkpt lat="43.42607" lon="2.65808">
        <ele>803.9</ele>
        <time>2022-06-21T10:58:14Z</time>
      </trkpt>
      <trkpt lat="43.42607" lon="2.65808">
        <ele>803.9</ele>
        <time>2022-06-21T10:58:15Z</time>
      </trkpt>
      <trkpt lat="43.42607" lon="2.65808">
        <ele>803.9</ele>
        <time>2022-06-21T10:58:16Z</time>
      </trkpt>
      <trkpt lat="43.42607" lon="2.65808">
        <ele>803.9</ele>
        <time>2022-06-21T10:58:17Z</time>
      </trkpt>
      <trkpt lat="43.42607" lon="2.65808">
        <ele>803.9</ele>
        <time>2022-06-21T10:58:18Z</time>
      </trkpt>
      <trkpt lat="43.42607" lon="2.65808">
        <ele>803.9</ele>
        <time>2022-06-21T10:58:19Z</time>
      </trkpt>
      <trkpt lat="43.42607" lon="2.65808">
        <ele>803.9</ele>
        <time>2022-06-21T10:58:20Z</time>
      </trkpt>
      <trkpt lat="43.42607" lon="2.65808">
        <ele>803.9</ele>
        <time>2022-06-21T10:58:21Z</time>
      </trkpt>
      <trkpt lat="43.42607" lon="2.65808">
        <ele>803.9</ele>
        <time>2022-06-21T10:58:22Z</time>
      </trkpt>
      <trkpt lat="43.42607" lon="2.65808">
        <ele>803.9</ele>
        <time>2022-06-21T10:58:23Z</time>
      </trkpt>
      <trkpt lat="43.42607" lon="2.65808">
        <ele>803.9</ele>
        <time>2022-06-21T10:58:24Z</time>
      </trkpt>
      <trkpt lat="43.42607" lon="2.65808">
        <ele>803.9</ele>
        <time>2022-06-21T10:58:25Z</time>
      </trkpt>
      <trkpt lat="43.42607" lon="2.65808">
        <ele>803.9</ele>
        <time>2022-06-21T10:58:26Z</time>
      </trkpt>
      <trkpt lat="43.42607" lon="2.65808">
        <ele>803.9</ele>
        <time>2022-06-21T10:58:27Z</time>
      </trkpt>
      <trkpt lat="43.42607" lon="2.65808">
        <ele>803.9</ele>
        <time>2022-06-21T10:58:28Z</time>
      </trkpt>
      <trkpt lat="43.42607" lon="2.65808">
        <ele>803.9</ele>
        <time>2022-06-21T10:58:29Z</time>
      </trkpt>
      <trkpt lat="43.42607" lon="2.65808">
        <ele>803.9</ele>
        <time>2022-06-21T10:58:30Z</time>
      </trkpt>
      <trkpt lat="43.42607" lon="2.65808">
        <ele>803.9</ele>
        <time>2022-06-21T10:58:31Z</time>
      </trkpt>
      <trkpt lat="43.42607" lon="2.65808">
        <ele>803.9</ele>
        <time>2022-06-21T10:58:32Z</time>
      </trkpt>
      <trkpt lat="43.42607" lon="2.65808">
        <ele>803.9</ele>
        <time>2022-06-21T10:58:33Z</time>
      </trkpt>
      <trkpt lat="43.42607" lon="2.65808">
        <ele>803.9</ele>
        <time>2022-06-21T10:58:34Z</time>
      </trkpt>
      <trkpt lat="43.42607" lon="2.65808">
        <ele>803.9</ele>
        <time>2022-06-21T10:58:35Z</time>
      </trkpt>
      <trkpt lat="43.42607" lon="2.65808">
        <ele>803.9</ele>
        <time>2022-06-21T10:58:36Z</time>
      </trkpt>
      <trkpt lat="43.42607" lon="2.65808">
        <ele>803.9</ele>
        <time>2022-06-21T10:58:37Z</time>
      </trkpt>
      <trkpt lat="43.42607" lon="2.65808">
        <ele>803.9</ele>
        <time>2022-06-21T10:58:38Z</time>
      </trkpt>
      <trkpt lat="43.42607" lon="2.65808">
        <ele>803.9</ele>
        <time>2022-06-21T10:58:39Z</time>
      </trkpt>
      <trkpt lat="43.42607" lon="2.65808">
        <ele>803.9</ele>
        <time>2022-06-21T10:58:40Z</time>
      </trkpt>
      <trkpt lat="43.42607" lon="2.65808">
        <ele>803.9</ele>
        <time>2022-06-21T10:58:41Z</time>
      </trkpt>
      <trkpt lat="43.42607" lon="2.65808">
        <ele>803.9</ele>
        <time>2022-06-21T10:58:42Z</time>
      </trkpt>
      <trkpt lat="43.42607" lon="2.65808">
        <ele>803.9</ele>
        <time>2022-06-21T10:58:43Z</time>
      </trkpt>
      <trkpt lat="43.42607" lon="2.65808">
        <ele>803.9</ele>
        <time>2022-06-21T10:58:44Z</time>
      </trkpt>
      <trkpt lat="43.42607" lon="2.65808">
        <ele>803.9</ele>
        <time>2022-06-21T10:58:45Z</time>
      </trkpt>
      <trkpt lat="43.42607" lon="2.65808">
        <ele>803.9</ele>
        <time>2022-06-21T10:58:46Z</time>
      </trkpt>
      <trkpt lat="43.42607" lon="2.65808">
        <ele>803.9</ele>
        <time>2022-06-21T10:58:47Z</time>
      </trkpt>
      <trkpt lat="43.42607" lon="2.65808">
        <ele>803.9</ele>
        <time>2022-06-21T10:58:48Z</time>
      </trkpt>
      <trkpt lat="43.42607" lon="2.65808">
        <ele>803.9</ele>
        <time>2022-06-21T10:58:49Z</time>
      </trkpt>
      <trkpt lat="43.42607" lon="2.65808">
        <ele>803.9</ele>
        <time>2022-06-21T10:58:50Z</time>
      </trkpt>
      <trkpt lat="43.42607" lon="2.65808">
        <ele>803.9</ele>
        <time>2022-06-21T10:58:51Z</time>
      </trkpt>
      <trkpt lat="43.42607" lon="2.65808">
        <ele>803.9</ele>
        <time>2022-06-21T10:58:52Z</time>
      </trkpt>
      <trkpt lat="43.42607" lon="2.65808">
        <ele>803.9</ele>
        <time>2022-06-21T10:58:53Z</time>
      </trkpt>
      <trkpt lat="43.42607" lon="2.65808">
        <ele>803.9</ele>
        <time>2022-06-21T10:58:54Z</time>
      </trkpt>
      <trkpt lat="43.42607" lon="2.65808">
        <ele>803.9</ele>
        <time>2022-06-21T10:58:55Z</time>
      </trkpt>
      <trkpt lat="43.42607" lon="2.65808">
        <ele>803.9</ele>
        <time>2022-06-21T10:58:56Z</time>
      </trkpt>
      <trkpt lat="43.42607" lon="2.65808">
        <ele>803.9</ele>
        <time>2022-06-21T10:58:57Z</time>
      </trkpt>
      <trkpt lat="43.42607" lon="2.65808">
        <ele>803.9</ele>
        <time>2022-06-21T10:58:58Z</time>
      </trkpt>
      <trkpt lat="43.42607" lon="2.65808">
        <ele>803.9</ele>
        <time>2022-06-21T10:58:59Z</time>
      </trkpt>
      <trkpt lat="43.42607" lon="2.65808">
        <ele>803.9</ele>
        <time>2022-06-21T10:59:00Z</time>
      </trkpt>
      <trkpt lat="43.42607" lon="2.65808">
        <ele>803.9</ele>
        <time>2022-06-21T10:59:01Z</time>
      </trkpt>
      <trkpt lat="43.42607" lon="2.65808">
        <ele>803.9</ele>
        <time>2022-06-21T10:59:02Z</time>
      </trkpt>
      <trkpt lat="43.42607" lon="2.65808">
        <ele>803.9</ele>
        <time>2022-06-21T10:59:03Z</time>
      </trkpt>
      <trkpt lat="43.42607" lon="2.65808">
        <ele>803.9</ele>
        <time>2022-06-21T10:59:04Z</time>
      </trkpt>
      <trkpt lat="43.42607" lon="2.65808">
        <ele>803.9</ele>
        <time>2022-06-21T10:59:05Z</time>
      </trkpt>
      <trkpt lat="43.42607" lon="2.65808">
        <ele>803.9</ele>
        <time>2022-06-21T10:59:06Z</time>
      </trkpt>
      <trkpt lat="43.42607" lon="2.65808">
        <ele>803.9</ele>
        <time>2022-06-21T10:59:07Z</time>
      </trkpt>
      <trkpt lat="43.42607" lon="2.65808">
        <ele>803.9</ele>
        <time>2022-06-21T10:59:08Z</time>
      </trkpt>
      <trkpt lat="43.42607" lon="2.65808">
        <ele>803.9</ele>
        <time>2022-06-21T10:59:09Z</time>
      </trkpt>
      <trkpt lat="43.42607" lon="2.65808">
        <ele>803.9</ele>
        <time>2022-06-21T10:59:10Z</time>
      </trkpt>
      <trkpt lat="43.42607" lon="2.65808">
        <ele>803.9</ele>
        <time>2022-06-21T10:59:11Z</time>
      </trkpt>
      <trkpt lat="43.42607" lon="2.65808">
        <ele>803.9</ele>
        <time>2022-06-21T10:59:12Z</time>
      </trkpt>
      <trkpt lat="43.42607" lon="2.65808">
        <ele>803.9</ele>
        <time>2022-06-21T10:59:13Z</time>
      </trkpt>
      <trkpt lat="43.42607" lon="2.65808">
        <ele>803.9</ele>
        <time>2022-06-21T10:59:14Z</time>
      </trkpt>
      <trkpt lat="43.42607" lon="2.65808">
        <ele>803.9</ele>
        <time>2022-06-21T10:59:15Z</time>
      </trkpt>
      <trkpt lat="43.42607" lon="2.65808">
        <ele>803.9</ele>
        <time>2022-06-21T10:59:16Z</time>
      </trkpt>
      <trkpt lat="43.42607" lon="2.65808">
        <ele>803.9</ele>
        <time>2022-06-21T10:59:17Z</time>
      </trkpt>
      <trkpt lat="43.42607" lon="2.65808">
        <ele>803.9</ele>
        <time>2022-06-21T10:59:18Z</time>
      </trkpt>
      <trkpt lat="43.42607" lon="2.65808">
        <ele>803.9</ele>
        <time>2022-06-21T10:59:19Z</time>
      </trkpt>
      <trkpt lat="43.42607" lon="2.65808">
        <ele>803.9</ele>
        <time>2022-06-21T10:59:20Z</time>
      </trkpt>
      <trkpt lat="43.42607" lon="2.65808">
        <ele>803.9</ele>
        <time>2022-06-21T10:59:21Z</time>
      </trkpt>
      <trkpt lat="43.42607" lon="2.65808">
        <ele>803.9</ele>
        <time>2022-06-21T10:59:22Z</time>
      </trkpt>
      <trkpt lat="43.42607" lon="2.65808">
        <ele>803.9</ele>
        <time>2022-06-21T10:59:23Z</time>
      </trkpt>
      <trkpt lat="43.42607" lon="2.65808">
        <ele>803.9</ele>
        <time>2022-06-21T10:59:24Z</time>
      </trkpt>
      <trkpt lat="43.42607" lon="2.65808">
        <ele>803.9</ele>
        <time>2022-06-21T10:59:25Z</time>
      </trkpt>
      <trkpt lat="43.42607" lon="2.65808">
        <ele>803.9</ele>
        <time>2022-06-21T10:59:26Z</time>
      </trkpt>
      <trkpt lat="43.42607" lon="2.65808">
        <ele>803.9</ele>
        <time>2022-06-21T10:59:27Z</time>
      </trkpt>
      <trkpt lat="43.42607" lon="2.65808">
        <ele>803.9</ele>
        <time>2022-06-21T10:59:28Z</time>
      </trkpt>
      <trkpt lat="43.42607" lon="2.65808">
        <ele>803.9</ele>
        <time>2022-06-21T10:59:29Z</time>
      </trkpt>
      <trkpt lat="43.42607" lon="2.65808">
        <ele>803.9</ele>
        <time>2022-06-21T10:59:30Z</time>
      </trkpt>
      <trkpt lat="43.42607" lon="2.65808">
        <ele>803.9</ele>
        <time>2022-06-21T10:59:31Z</time>
      </trkpt>
      <trkpt lat="43.42607" lon="2.65808">
        <ele>803.9</ele>
        <time>2022-06-21T10:59:32Z</time>
      </trkpt>
      <trkpt lat="43.42607" lon="2.65808">
        <ele>803.9</ele>
        <time>2022-06-21T10:59:33Z</time>
      </trkpt>
      <trkpt lat="43.42607" lon="2.65808">
        <ele>803.9</ele>
        <time>2022-06-21T10:59:34Z</time>
      </trkpt>
      <trkpt lat="43.42607" lon="2.65808">
        <ele>803.9</ele>
        <time>2022-06-21T10:59:35Z</time>
      </trkpt>
      <trkpt lat="43.42607" lon="2.65808">
        <ele>803.9</ele>
        <time>2022-06-21T10:59:36Z</time>
      </trkpt>
      <trkpt lat="43.42607" lon="2.65808">
        <ele>803.9</ele>
        <time>2022-06-21T10:59:37Z</time>
      </trkpt>
      <trkpt lat="43.42607" lon="2.65808">
        <ele>803.9</ele>
        <time>2022-06-21T10:59:38Z</time>
      </trkpt>
      <trkpt lat="43.42607" lon="2.65808">
        <ele>803.9</ele>
        <time>2022-06-21T10:59:39Z</time>
      </trkpt>
      <trkpt lat="43.42607" lon="2.65808">
        <ele>803.9</ele>
        <time>2022-06-21T10:59:40Z</time>
      </trkpt>
      <trkpt lat="43.42607" lon="2.65808">
        <ele>803.9</ele>
        <time>2022-06-21T10:59:41Z</time>
      </trkpt>
      <trkpt lat="43.42607" lon="2.65808">
        <ele>803.9</ele>
        <time>2022-06-21T10:59:42Z</time>
      </trkpt>
      <trkpt lat="43.42607" lon="2.65808">
        <ele>803.9</ele>
        <time>2022-06-21T10:59:43Z</time>
      </trkpt>
      <trkpt lat="43.42607" lon="2.65808">
        <ele>803.9</ele>
        <time>2022-06-21T10:59:44Z</time>
      </trkpt>
      <trkpt lat="43.42607" lon="2.65808">
        <ele>803.9</ele>
        <time>2022-06-21T10:59:45Z</time>
      </trkpt>
      <trkpt lat="43.42607" lon="2.65808">
        <ele>803.9</ele>
        <time>2022-06-21T10:59:46Z</time>
      </trkpt>
      <trkpt lat="43.42607" lon="2.65808">
        <ele>803.9</ele>
        <time>2022-06-21T10:59:47Z</time>
      </trkpt>
      <trkpt lat="43.42607" lon="2.65808">
        <ele>803.9</ele>
        <time>2022-06-21T10:59:48Z</time>
      </trkpt>
      <trkpt lat="43.42607" lon="2.65808">
        <ele>803.9</ele>
        <time>2022-06-21T10:59:49Z</time>
      </trkpt>
      <trkpt lat="43.42607" lon="2.65808">
        <ele>803.9</ele>
        <time>2022-06-21T10:59:50Z</time>
      </trkpt>
      <trkpt lat="43.42607" lon="2.65808">
        <ele>803.9</ele>
        <time>2022-06-21T10:59:51Z</time>
      </trkpt>
      <trkpt lat="43.42607" lon="2.65808">
        <ele>803.9</ele>
        <time>2022-06-21T10:59:52Z</time>
      </trkpt>
      <trkpt lat="43.42607" lon="2.65808">
        <ele>803.9</ele>
        <time>2022-06-21T10:59:53Z</time>
      </trkpt>
      <trkpt lat="43.42607" lon="2.65808">
        <ele>803.9</ele>
        <time>2022-06-21T10:59:54Z</time>
      </trkpt>
      <trkpt lat="43.42607" lon="2.65808">
        <ele>803.9</ele>
        <time>2022-06-21T10:59:55Z</time>
      </trkpt>
      <trkpt lat="43.42607" lon="2.65808">
        <ele>803.9</ele>
        <time>2022-06-21T10:59:56Z</time>
      </trkpt>
      <trkpt lat="43.42607" lon="2.65808">
        <ele>803.9</ele>
        <time>2022-06-21T10:59:57Z</time>
      </trkpt>
      <trkpt lat="43.42607" lon="2.65808">
        <ele>803.9</ele>
        <time>2022-06-21T10:59:58Z</time>
      </trkpt>
      <trkpt lat="43.42607" lon="2.65808">
        <ele>803.9</ele>
        <time>2022-06-21T10:59:59Z</time>
      </trkpt>
      <trkpt lat="43.42607" lon="2.65808">
        <ele>803.9</ele>
        <time>2022-06-21T11:00:00Z</time>
      </trkpt>
      <trkpt lat="43.42607" lon="2.65808">
        <ele>803.9</ele>
        <time>2022-06-21T11:00:01Z</time>
      </trkpt>
      <trkpt lat="43.42607" lon="2.65808">
        <ele>803.9</ele>
        <time>2022-06-21T11:00:02Z</time>
      </trkpt>
      <trkpt lat="43.42607" lon="2.65808">
        <ele>803.9</ele>
        <time>2022-06-21T11:00:03Z</time>
      </trkpt>
      <trkpt lat="43.42607" lon="2.65808">
        <ele>803.9</ele>
        <time>2022-06-21T11:00:04Z</time>
      </trkpt>
      <trkpt lat="43.42607" lon="2.65808">
        <ele>803.9</ele>
        <time>2022-06-21T11:00:05Z</time>
      </trkpt>
      <trkpt lat="43.42607" lon="2.65808">
        <ele>803.9</ele>
        <time>2022-06-21T11:00:06Z</time>
      </trkpt>
      <trkpt lat="43.42607" lon="2.65808">
        <ele>803.9</ele>
        <time>2022-06-21T11:00:07Z</time>
      </trkpt>
      <trkpt lat="43.42607" lon="2.65808">
        <ele>803.9</ele>
        <time>2022-06-21T11:00:08Z</time>
      </trkpt>
      <trkpt lat="43.42607" lon="2.65808">
        <ele>803.9</ele>
        <time>2022-06-21T11:00:09Z</time>
      </trkpt>
      <trkpt lat="43.42607" lon="2.65808">
        <ele>803.9</ele>
        <time>2022-06-21T11:00:10Z</time>
      </trkpt>
      <trkpt lat="43.42607" lon="2.65808">
        <ele>803.9</ele>
        <time>2022-06-21T11:00:11Z</time>
      </trkpt>
      <trkpt lat="43.42607" lon="2.65808">
        <ele>803.9</ele>
        <time>2022-06-21T11:00:12Z</time>
      </trkpt>
      <trkpt lat="43.42607" lon="2.65808">
        <ele>803.9</ele>
        <time>2022-06-21T11:00:13Z</time>
      </trkpt>
      <trkpt lat="43.42607" lon="2.65808">
        <ele>803.9</ele>
        <time>2022-06-21T11:00:14Z</time>
      </trkpt>
      <trkpt lat="43.42607" lon="2.65808">
        <ele>803.9</ele>
        <time>2022-06-21T11:00:15Z</time>
      </trkpt>
      <trkpt lat="43.42607" lon="2.65808">
        <ele>803.9</ele>
        <time>2022-06-21T11:00:16Z</time>
      </trkpt>
      <trkpt lat="43.42607" lon="2.65808">
        <ele>803.9</ele>
        <time>2022-06-21T11:00:17Z</time>
      </trkpt>
      <trkpt lat="43.42607" lon="2.65808">
        <ele>803.9</ele>
        <time>2022-06-21T11:00:18Z</time>
      </trkpt>
      <trkpt lat="43.42607" lon="2.65808">
        <ele>803.9</ele>
        <time>2022-06-21T11:00:19Z</time>
      </trkpt>
      <trkpt lat="43.42607" lon="2.65808">
        <ele>803.9</ele>
        <time>2022-06-21T11:00:20Z</time>
      </trkpt>
      <trkpt lat="43.42607" lon="2.65808">
        <ele>803.9</ele>
        <time>2022-06-21T11:00:21Z</time>
      </trkpt>
      <trkpt lat="43.42607" lon="2.65808">
        <ele>803.9</ele>
        <time>2022-06-21T11:00:22Z</time>
      </trkpt>
      <trkpt lat="43.42607" lon="2.65808">
        <ele>803.9</ele>
        <time>2022-06-21T11:00:23Z</time>
      </trkpt>
      <trkpt lat="43.42607" lon="2.65808">
        <ele>803.9</ele>
        <time>2022-06-21T11:00:24Z</time>
      </trkpt>
      <trkpt lat="43.42607" lon="2.65808">
        <ele>803.9</ele>
        <time>2022-06-21T11:00:25Z</time>
      </trkpt>
      <trkpt lat="43.42607" lon="2.65808">
        <ele>803.9</ele>
        <time>2022-06-21T11:00:26Z</time>
      </trkpt>
      <trkpt lat="43.42607" lon="2.65808">
        <ele>803.9</ele>
        <time>2022-06-21T11:00:27Z</time>
      </trkpt>
      <trkpt lat="43.42607" lon="2.65808">
        <ele>803.9</ele>
        <time>2022-06-21T11:00:28Z</time>
      </trkpt>
      <trkpt lat="43.42607" lon="2.65808">
        <ele>803.9</ele>
        <time>2022-06-21T11:00:29Z</time>
      </trkpt>
      <trkpt lat="43.42607" lon="2.65808">
        <ele>803.9</ele>
        <time>2022-06-21T11:00:30Z</time>
      </trkpt>
      <trkpt lat="43.42607" lon="2.65808">
        <ele>803.9</ele>
        <time>2022-06-21T11:00:31Z</time>
      </trkpt>
      <trkpt lat="43.42607" lon="2.65808">
        <ele>803.9</ele>
        <time>2022-06-21T11:00:32Z</time>
      </trkpt>
      <trkpt lat="43.42607" lon="2.65808">
        <ele>803.9</ele>
        <time>2022-06-21T11:00:33Z</time>
      </trkpt>
      <trkpt lat="43.42607" lon="2.65808">
        <ele>803.9</ele>
        <time>2022-06-21T11:00:34Z</time>
      </trkpt>
      <trkpt lat="43.42607" lon="2.65808">
        <ele>803.9</ele>
        <time>2022-06-21T11:00:35Z</time>
      </trkpt>
      <trkpt lat="43.42607" lon="2.65808">
        <ele>803.9</ele>
        <time>2022-06-21T11:00:36Z</time>
      </trkpt>
      <trkpt lat="43.42607" lon="2.65808">
        <ele>803.9</ele>
        <time>2022-06-21T11:00:37Z</time>
      </trkpt>
      <trkpt lat="43.42607" lon="2.65808">
        <ele>803.9</ele>
        <time>2022-06-21T11:00:38Z</time>
      </trkpt>
      <trkpt lat="43.42607" lon="2.65808">
        <ele>803.9</ele>
        <time>2022-06-21T11:00:39Z</time>
      </trkpt>
      <trkpt lat="43.42607" lon="2.65808">
        <ele>803.9</ele>
        <time>2022-06-21T11:00:40Z</time>
      </trkpt>
      <trkpt lat="43.42607" lon="2.65808">
        <ele>803.9</ele>
        <time>2022-06-21T11:00:41Z</time>
      </trkpt>
      <trkpt lat="43.42607" lon="2.65808">
        <ele>803.9</ele>
        <time>2022-06-21T11:00:42Z</time>
      </trkpt>
      <trkpt lat="43.42607" lon="2.65808">
        <ele>803.9</ele>
        <time>2022-06-21T11:00:43Z</time>
      </trkpt>
      <trkpt lat="43.42607" lon="2.65808">
        <ele>803.9</ele>
        <time>2022-06-21T11:00:44Z</time>
      </trkpt>
      <trkpt lat="43.42607" lon="2.65808">
        <ele>803.9</ele>
        <time>2022-06-21T11:00:45Z</time>
      </trkpt>
      <trkpt lat="43.42607" lon="2.65808">
        <ele>803.9</ele>
        <time>2022-06-21T11:00:46Z</time>
      </trkpt>
      <trkpt lat="43.42607" lon="2.65808">
        <ele>803.9</ele>
        <time>2022-06-21T11:00:47Z</time>
      </trkpt>
      <trkpt lat="43.42607" lon="2.65808">
        <ele>803.9</ele>
        <time>2022-06-21T11:00:48Z</time>
      </trkpt>
      <trkpt lat="43.42607" lon="2.65808">
        <ele>803.9</ele>
        <time>2022-06-21T11:00:49Z</time>
      </trkpt>
      <trkpt lat="43.42607" lon="2.65808">
        <ele>803.9</ele>
        <time>2022-06-21T11:00:50Z</time>
      </trkpt>
      <trkpt lat="43.42607" lon="2.65808">
        <ele>803.9</ele>
        <time>2022-06-21T11:00:51Z</time>
      </trkpt>
      <trkpt lat="43.42607" lon="2.65808">
        <ele>803.9</ele>
        <time>2022-06-21T11:00:52Z</time>
      </trkpt>
      <trkpt lat="43.42607" lon="2.65808">
        <ele>803.9</ele>
        <time>2022-06-21T11:00:53Z</time>
      </trkpt>
      <trkpt lat="43.42607" lon="2.65808">
        <ele>803.9</ele>
        <time>2022-06-21T11:00:54Z</time>
      </trkpt>
      <trkpt lat="43.42607" lon="2.65808">
        <ele>803.9</ele>
        <time>2022-06-21T11:00:55Z</time>
      </trkpt>
      <trkpt lat="43.42607" lon="2.65808">
        <ele>803.9</ele>
        <time>2022-06-21T11:00:56Z</time>
      </trkpt>
      <trkpt lat="43.42607" lon="2.65808">
        <ele>803.9</ele>
        <time>2022-06-21T11:00:57Z</time>
      </trkpt>
      <trkpt lat="43.42607" lon="2.65808">
        <ele>803.9</ele>
        <time>2022-06-21T11:00:58Z</time>
      </trkpt>
      <trkpt lat="43.42607" lon="2.65808">
        <ele>803.9</ele>
        <time>2022-06-21T11:00:59Z</time>
      </trkpt>
      <trkpt lat="43.42607" lon="2.65808">
        <ele>803.9</ele>
        <time>2022-06-21T11:01:00Z</time>
      </trkpt>
      <trkpt lat="43.42607" lon="2.65808">
        <ele>803.9</ele>
        <time>2022-06-21T11:01:01Z</time>
      </trkpt>
      <trkpt lat="43.42607" lon="2.65808">
        <ele>803.9</ele>
        <time>2022-06-21T11:01:02Z</time>
      </trkpt>
      <trkpt lat="43.42607" lon="2.65808">
        <ele>803.9</ele>
        <time>2022-06-21T11:01:03Z</time>
      </trkpt>
      <trkpt lat="43.42607" lon="2.65808">
        <ele>803.9</ele>
        <time>2022-06-21T11:01:04Z</time>
      </trkpt>
      <trkpt lat="43.42607" lon="2.65808">
        <ele>803.9</ele>
        <time>2022-06-21T11:01:05Z</time>
      </trkpt>
      <trkpt lat="43.42607" lon="2.65808">
        <ele>803.9</ele>
        <time>2022-06-21T11:01:06Z</time>
      </trkpt>
      <trkpt lat="43.42607" lon="2.65808">
        <ele>803.9</ele>
        <time>2022-06-21T11:01:07Z</time>
      </trkpt>
      <trkpt lat="43.42607" lon="2.65808">
        <ele>803.9</ele>
        <time>2022-06-21T11:01:08Z</time>
      </trkpt>
      <trkpt lat="43.42607" lon="2.65808">
        <ele>803.9</ele>
        <time>2022-06-21T11:01:09Z</time>
      </trkpt>
      <trkpt lat="43.42607" lon="2.65808">
        <ele>803.9</ele>
        <time>2022-06-21T11:01:10Z</time>
      </trkpt>
      <trkpt lat="43.42607" lon="2.65808">
        <ele>803.9</ele>
        <time>2022-06-21T11:01:11Z</time>
      </trkpt>
      <trkpt lat="43.42607" lon="2.65808">
        <ele>803.9</ele>
        <time>2022-06-21T11:01:12Z</time>
      </trkpt>
      <trkpt lat="43.42607" lon="2.65808">
        <ele>803.9</ele>
        <time>2022-06-21T11:01:13Z</time>
      </trkpt>
      <trkpt lat="43.42607" lon="2.65808">
        <ele>803.9</ele>
        <time>2022-06-21T11:01:14Z</time>
      </trkpt>
      <trkpt lat="43.42607" lon="2.65808">
        <ele>803.9</ele>
        <time>2022-06-21T11:01:15Z</time>
      </trkpt>
      <trkpt lat="43.42607" lon="2.65808">
        <ele>803.9</ele>
        <time>2022-06-21T11:01:16Z</time>
      </trkpt>
      <trkpt lat="43.42607" lon="2.65808">
        <ele>803.9</ele>
        <time>2022-06-21T11:01:17Z</time>
      </trkpt>
      <trkpt lat="43.42607" lon="2.65808">
        <ele>803.9</ele>
        <time>2022-06-21T11:01:18Z</time>
      </trkpt>
      <trkpt lat="43.42607" lon="2.65808">
        <ele>803.9</ele>
        <time>2022-06-21T11:01:19Z</time>
      </trkpt>
      <trkpt lat="43.42607" lon="2.65808">
        <ele>803.9</ele>
        <time>2022-06-21T11:01:20Z</time>
      </trkpt>
      <trkpt lat="43.42607" lon="2.65808">
        <ele>803.9</ele>
        <time>2022-06-21T11:01:21Z</time>
      </trkpt>
      <trkpt lat="43.42607" lon="2.65808">
        <ele>803.9</ele>
        <time>2022-06-21T11:01:22Z</time>
      </trkpt>
      <trkpt lat="43.42607" lon="2.65808">
        <ele>803.9</ele>
        <time>2022-06-21T11:01:23Z</time>
      </trkpt>
      <trkpt lat="43.42607" lon="2.65808">
        <ele>803.9</ele>
        <time>2022-06-21T11:01:24Z</time>
      </trkpt>
      <trkpt lat="43.42607" lon="2.65808">
        <ele>803.9</ele>
        <time>2022-06-21T11:01:25Z</time>
      </trkpt>
      <trkpt lat="43.42607" lon="2.65808">
        <ele>803.9</ele>
        <time>2022-06-21T11:01:26Z</time>
      </trkpt>
      <trkpt lat="43.42607" lon="2.65808">
        <ele>803.9</ele>
        <time>2022-06-21T11:01:27Z</time>
      </trkpt>
      <trkpt lat="43.42607" lon="2.65808">
        <ele>803.9</ele>
        <time>2022-06-21T11:01:28Z</time>
      </trkpt>
      <trkpt lat="43.42607" lon="2.65808">
        <ele>803.9</ele>
        <time>2022-06-21T11:01:29Z</time>
      </trkpt>
      <trkpt lat="43.42607" lon="2.65808">
        <ele>803.9</ele>
        <time>2022-06-21T11:01:30Z</time>
      </trkpt>
      <trkpt lat="43.42607" lon="2.65808">
        <ele>803.9</ele>
        <time>2022-06-21T11:01:31Z</time>
      </trkpt>
      <trkpt lat="43.42607" lon="2.65808">
        <ele>803.9</ele>
        <time>2022-06-21T11:01:32Z</time>
      </trkpt>
      <trkpt lat="43.42607" lon="2.65808">
        <ele>803.9</ele>
        <time>2022-06-21T11:01:33Z</time>
      </trkpt>
      <trkpt lat="43.42607" lon="2.65808">
        <ele>803.9</ele>
        <time>2022-06-21T11:01:34Z</time>
      </trkpt>
      <trkpt lat="43.42607" lon="2.65808">
        <ele>803.9</ele>
        <time>2022-06-21T11:01:35Z</time>
      </trkpt>
      <trkpt lat="43.42607" lon="2.65808">
        <ele>803.9</ele>
        <time>2022-06-21T11:01:36Z</time>
      </trkpt>
      <trkpt lat="43.42607" lon="2.65808">
        <ele>803.9</ele>
        <time>2022-06-21T11:01:37Z</time>
      </trkpt>
      <trkpt lat="43.42607" lon="2.65808">
        <ele>803.9</ele>
        <time>2022-06-21T11:01:38Z</time>
      </trkpt>
      <trkpt lat="43.42607" lon="2.65808">
        <ele>803.9</ele>
        <time>2022-06-21T11:01:39Z</time>
      </trkpt>
      <trkpt lat="43.42607" lon="2.65808">
        <ele>803.9</ele>
        <time>2022-06-21T11:01:40Z</time>
      </trkpt>
      <trkpt lat="43.42607" lon="2.65808">
        <ele>803.9</ele>
        <time>2022-06-21T11:01:41Z</time>
      </trkpt>
      <trkpt lat="43.42607" lon="2.65808">
        <ele>803.9</ele>
        <time>2022-06-21T11:01:42Z</time>
      </trkpt>
      <trkpt lat="43.42607" lon="2.65808">
        <ele>803.9</ele>
        <time>2022-06-21T11:01:43Z</time>
      </trkpt>
      <trkpt lat="43.42607" lon="2.65808">
        <ele>803.9</ele>
        <time>2022-06-21T11:01:44Z</time>
      </trkpt>
      <trkpt lat="43.42607" lon="2.65808">
        <ele>803.9</ele>
        <time>2022-06-21T11:01:45Z</time>
      </trkpt>
      <trkpt lat="43.42607" lon="2.65808">
        <ele>803.9</ele>
        <time>2022-06-21T11:01:46Z</time>
      </trkpt>
      <trkpt lat="43.42607" lon="2.65808">
        <ele>803.9</ele>
        <time>2022-06-21T11:01:47Z</time>
      </trkpt>
      <trkpt lat="43.42607" lon="2.65808">
        <ele>803.9</ele>
        <time>2022-06-21T11:01:48Z</time>
      </trkpt>
      <trkpt lat="43.42607" lon="2.65808">
        <ele>803.9</ele>
        <time>2022-06-21T11:01:49Z</time>
      </trkpt>
      <trkpt lat="43.42607" lon="2.65808">
        <ele>803.9</ele>
        <time>2022-06-21T11:01:50Z</time>
      </trkpt>
      <trkpt lat="43.42607" lon="2.65808">
        <ele>803.9</ele>
        <time>2022-06-21T11:01:51Z</time>
      </trkpt>
      <trkpt lat="43.42607" lon="2.65808">
        <ele>803.9</ele>
        <time>2022-06-21T11:01:52Z</time>
      </trkpt>
      <trkpt lat="43.42607" lon="2.65808">
        <ele>803.9</ele>
        <time>2022-06-21T11:01:53Z</time>
      </trkpt>
      <trkpt lat="43.42607" lon="2.65808">
        <ele>803.9</ele>
        <time>2022-06-21T11:01:54Z</time>
      </trkpt>
      <trkpt lat="43.42607" lon="2.65808">
        <ele>803.9</ele>
        <time>2022-06-21T11:01:55Z</time>
      </trkpt>
      <trkpt lat="43.42607" lon="2.65808">
        <ele>803.9</ele>
        <time>2022-06-21T11:01:56Z</time>
      </trkpt>
      <trkpt lat="43.42607" lon="2.65808">
        <ele>803.9</ele>
        <time>2022-06-21T11:01:57Z</time>
      </trkpt>
      <trkpt lat="43.42607" lon="2.65808">
        <ele>803.9</ele>
        <time>2022-06-21T11:01:58Z</time>
      </trkpt>
      <trkpt lat="43.42607" lon="2.65808">
        <ele>803.9</ele>
        <time>2022-06-21T11:01:59Z</time>
      </trkpt>
      <trkpt lat="43.42607" lon="2.65808">
        <ele>803.9</ele>
        <time>2022-06-21T11:02:00Z</time>
      </trkpt>
      <trkpt lat="43.42607" lon="2.65808">
        <ele>803.9</ele>
        <time>2022-06-21T11:02:01Z</time>
      </trkpt>
      <trkpt lat="43.42607" lon="2.65808">
        <ele>803.9</ele>
        <time>2022-06-21T11:02:02Z</time>
      </trkpt>
      <trkpt lat="43.42607" lon="2.65808">
        <ele>803.9</ele>
        <time>2022-06-21T11:02:03Z</time>
      </trkpt>
      <trkpt lat="43.42607" lon="2.65808">
        <ele>803.9</ele>
        <time>2022-06-21T11:02:04Z</time>
      </trkpt>
      <trkpt lat="43.42607" lon="2.65808">
        <ele>803.9</ele>
        <time>2022-06-21T11:02:05Z</time>
      </trkpt>
      <trkpt lat="43.42607" lon="2.65808">
        <ele>803.9</ele>
        <time>2022-06-21T11:02:06Z</time>
      </trkpt>
      <trkpt lat="43.42607" lon="2.65808">
        <ele>803.9</ele>
        <time>2022-06-21T11:02:07Z</time>
      </trkpt>
      <trkpt lat="43.42607" lon="2.65808">
        <ele>803.9</ele>
        <time>2022-06-21T11:02:08Z</time>
      </trkpt>
      <trkpt lat="43.42607" lon="2.65808">
        <ele>803.9</ele>
        <time>2022-06-21T11:02:09Z</time>
      </trkpt>
      <trkpt lat="43.42607" lon="2.65808">
        <ele>803.9</ele>
        <time>2022-06-21T11:02:10Z</time>
      </trkpt>
      <trkpt lat="43.42607" lon="2.65808">
        <ele>803.9</ele>
        <time>2022-06-21T11:02:11Z</time>
      </trkpt>
      <trkpt lat="43.42607" lon="2.65808">
        <ele>803.9</ele>
        <time>2022-06-21T11:02:12Z</time>
      </trkpt>
      <trkpt lat="43.42607" lon="2.65808">
        <ele>803.9</ele>
        <time>2022-06-21T11:02:13Z</time>
      </trkpt>
      <trkpt lat="43.42607" lon="2.65808">
        <ele>803.9</ele>
        <time>2022-06-21T11:02:14Z</time>
      </trkpt>
      <trkpt lat="43.42607" lon="2.65808">
        <ele>803.9</ele>
        <time>2022-06-21T11:02:15Z</time>
      </trkpt>
      <trkpt lat="43.42607" lon="2.65808">
        <ele>803.9</ele>
        <time>2022-06-21T11:02:16Z</time>
      </trkpt>
      <trkpt lat="43.42607" lon="2.65808">
        <ele>803.9</ele>
        <time>2022-06-21T11:02:17Z</time>
      </trkpt>
      <trkpt lat="43.42607" lon="2.65808">
        <ele>803.9</ele>
        <time>2022-06-21T11:02:18Z</time>
      </trkpt>
      <trkpt lat="43.42607" lon="2.65808">
        <ele>803.9</ele>
        <time>2022-06-21T11:02:19Z</time>
      </trkpt>
      <trkpt lat="43.42607" lon="2.65808">
        <ele>803.9</ele>
        <time>2022-06-21T11:02:20Z</time>
      </trkpt>
      <trkpt lat="43.42607" lon="2.65808">
        <ele>803.9</ele>
        <time>2022-06-21T11:02:21Z</time>
      </trkpt>
      <trkpt lat="43.42607" lon="2.65808">
        <ele>803.9</ele>
        <time>2022-06-21T11:02:22Z</time>
      </trkpt>
      <trkpt lat="43.42607" lon="2.65808">
        <ele>803.9</ele>
        <time>2022-06-21T11:02:23Z</time>
      </trkpt>
      <trkpt lat="43.42607" lon="2.65808">
        <ele>803.9</ele>
        <time>2022-06-21T11:02:24Z</time>
      </trkpt>
      <trkpt lat="43.42607" lon="2.65808">
        <ele>803.9</ele>
        <time>2022-06-21T11:02:25Z</time>
      </trkpt>
      <trkpt lat="43.42607" lon="2.65808">
        <ele>803.9</ele>
        <time>2022-06-21T11:02:26Z</time>
      </trkpt>
      <trkpt lat="43.42607" lon="2.65808">
        <ele>803.9</ele>
        <time>2022-06-21T11:02:27Z</time>
      </trkpt>
      <trkpt lat="43.42607" lon="2.65808">
        <ele>803.9</ele>
        <time>2022-06-21T11:02:28Z</time>
      </trkpt>
      <trkpt lat="43.42607" lon="2.65808">
        <ele>803.9</ele>
        <time>2022-06-21T11:02:29Z</time>
      </trkpt>
      <trkpt lat="43.42607" lon="2.65808">
        <ele>803.9</ele>
        <time>2022-06-21T11:02:30Z</time>
      </trkpt>
      <trkpt lat="43.42607" lon="2.65808">
        <ele>803.9</ele>
        <time>2022-06-21T11:02:31Z</time>
      </trkpt>
      <trkpt lat="43.42607" lon="2.65808">
        <ele>803.9</ele>
        <time>2022-06-21T11:02:32Z</time>
      </trkpt>
      <trkpt lat="43.42607" lon="2.65808">
        <ele>803.9</ele>
        <time>2022-06-21T11:02:33Z</time>
      </trkpt>
      <trkpt lat="43.42607" lon="2.65808">
        <ele>803.9</ele>
        <time>2022-06-21T11:02:34Z</time>
      </trkpt>
      <trkpt lat="43.42607" lon="2.65808">
        <ele>803.9</ele>
        <time>2022-06-21T11:02:35Z</time>
      </trkpt>
      <trkpt lat="43.42607" lon="2.65808">
        <ele>803.9</ele>
        <time>2022-06-21T11:02:36Z</time>
      </trkpt>
      <trkpt lat="43.42607" lon="2.65808">
        <ele>803.9</ele>
        <time>2022-06-21T11:02:37Z</time>
      </trkpt>
      <trkpt lat="43.42607" lon="2.65808">
        <ele>803.9</ele>
        <time>2022-06-21T11:02:38Z</time>
      </trkpt>
      <trkpt lat="43.42607" lon="2.65808">
        <ele>803.9</ele>
        <time>2022-06-21T11:02:39Z</time>
      </trkpt>
      <trkpt lat="43.42607" lon="2.65808">
        <ele>803.9</ele>
        <time>2022-06-21T11:02:40Z</time>
      </trkpt>
      <trkpt lat="43.42607" lon="2.65808">
        <ele>803.9</ele>
        <time>2022-06-21T11:02:41Z</time>
      </trkpt>
      <trkpt lat="43.42607" lon="2.65808">
        <ele>803.9</ele>
        <time>2022-06-21T11:02:42Z</time>
      </trkpt>
      <trkpt lat="43.42607" lon="2.65808">
        <ele>803.9</ele>
        <time>2022-06-21T11:02:43Z</time>
      </trkpt>
      <trkpt lat="43.42607" lon="2.65808">
        <ele>803.9</ele>
        <time>2022-06-21T11:02:44Z</time>
      </trkpt>
      <trkpt lat="43.42607" lon="2.65808">
        <ele>803.9</ele>
        <time>2022-06-21T11:02:45Z</time>
      </trkpt>
      <trkpt lat="43.42607" lon="2.65808">
        <ele>803.9</ele>
        <time>2022-06-21T11:02:46Z</time>
      </trkpt>
      <trkpt lat="43.42607" lon="2.65808">
        <ele>803.9</ele>
        <time>2022-06-21T11:02:47Z</time>
      </trkpt>
      <trkpt lat="43.42607" lon="2.65808">
        <ele>803.9</ele>
        <time>2022-06-21T11:02:48Z</time>
      </trkpt>
      <trkpt lat="43.42607" lon="2.65808">
        <ele>803.9</ele>
        <time>2022-06-21T11:02:49Z</time>
      </trkpt>
      <trkpt lat="43.42607" lon="2.65808">
        <ele>803.9</ele>
        <time>2022-06-21T11:02:50Z</time>
      </trkpt>
      <trkpt lat="43.42607" lon="2.65808">
        <ele>803.9</ele>
        <time>2022-06-21T11:02:51Z</time>
      </trkpt>
      <trkpt lat="43.42607" lon="2.65808">
        <ele>803.9</ele>
        <time>2022-06-21T11:02:52Z</time>
      </trkpt>
      <trkpt lat="43.42607" lon="2.65808">
        <ele>803.9</ele>
        <time>2022-06-21T11:02:53Z</time>
      </trkpt>
      <trkpt lat="43.42607" lon="2.65808">
        <ele>803.9</ele>
        <time>2022-06-21T11:02:54Z</time>
      </trkpt>
      <trkpt lat="43.42607" lon="2.65808">
        <ele>803.9</ele>
        <time>2022-06-21T11:02:55Z</time>
      </trkpt>
      <trkpt lat="43.42607" lon="2.65808">
        <ele>803.9</ele>
        <time>2022-06-21T11:02:56Z</time>
      </trkpt>
      <trkpt lat="43.42607" lon="2.65808">
        <ele>803.9</ele>
        <time>2022-06-21T11:02:57Z</time>
      </trkpt>
      <trkpt lat="43.42607" lon="2.65808">
        <ele>803.9</ele>
        <time>2022-06-21T11:02:58Z</time>
      </trkpt>
      <trkpt lat="43.42607" lon="2.65808">
        <ele>803.9</ele>
        <time>2022-06-21T11:02:59Z</time>
      </trkpt>
      <trkpt lat="43.42607" lon="2.65808">
        <ele>803.9</ele>
        <time>2022-06-21T11:03:00Z</time>
      </trkpt>
      <trkpt lat="43.42607" lon="2.65808">
        <ele>803.9</ele>
        <time>2022-06-21T11:03:01Z</time>
      </trkpt>
      <trkpt lat="43.42607" lon="2.65808">
        <ele>803.9</ele>
        <time>2022-06-21T11:03:02Z</time>
      </trkpt>
      <trkpt lat="43.42607" lon="2.65808">
        <ele>803.9</ele>
        <time>2022-06-21T11:03:03Z</time>
      </trkpt>
      <trkpt lat="43.42607" lon="2.65808">
        <ele>803.9</ele>
        <time>2022-06-21T11:03:04Z</time>
      </trkpt>
      <trkpt lat="43.42607" lon="2.65808">
        <ele>803.9</ele>
        <time>2022-06-21T11:03:05Z</time>
      </trkpt>
      <trkpt lat="43.42607" lon="2.65808">
        <ele>803.9</ele>
        <time>2022-06-21T11:03:06Z</time>
      </trkpt>
      <trkpt lat="43.42607" lon="2.65808">
        <ele>803.9</ele>
        <time>2022-06-21T11:03:07Z</time>
      </trkpt>
      <trkpt lat="43.42607" lon="2.65808">
        <ele>803.9</ele>
        <time>2022-06-21T11:03:08Z</time>
      </trkpt>
      <trkpt lat="43.42607" lon="2.65808">
        <ele>803.9</ele>
        <time>2022-06-21T11:03:09Z</time>
      </trkpt>
      <trkpt lat="43.42607" lon="2.65808">
        <ele>803.9</ele>
        <time>2022-06-21T11:03:10Z</time>
      </trkpt>
      <trkpt lat="43.42607" lon="2.65808">
        <ele>803.9</ele>
        <time>2022-06-21T11:03:11Z</time>
      </trkpt>
      <trkpt lat="43.42607" lon="2.65808">
        <ele>803.9</ele>
        <time>2022-06-21T11:03:12Z</time>
      </trkpt>
      <trkpt lat="43.42607" lon="2.65808">
        <ele>803.9</ele>
        <time>2022-06-21T11:03:13Z</time>
      </trkpt>
      <trkpt lat="43.42607" lon="2.65808">
        <ele>803.9</ele>
        <time>2022-06-21T11:03:14Z</time>
      </trkpt>
      <trkpt lat="43.42607" lon="2.65808">
        <ele>803.9</ele>
        <time>2022-06-21T11:03:15Z</time>
      </trkpt>
      <trkpt lat="43.42607" lon="2.65808">
        <ele>803.9</ele>
        <time>2022-06-21T11:03:16Z</time>
      </trkpt>
      <trkpt lat="43.42607" lon="2.65808">
        <ele>803.9</ele>
        <time>2022-06-21T11:03:17Z</time>
      </trkpt>
      <trkpt lat="43.42607" lon="2.65808">
        <ele>803.9</ele>
        <time>2022-06-21T11:03:18Z</time>
      </trkpt>
      <trkpt lat="43.42607" lon="2.65808">
        <ele>803.9</ele>
        <time>2022-06-21T11:03:19Z</time>
      </trkpt>
      <trkpt lat="43.42607" lon="2.65808">
        <ele>803.9</ele>
        <time>2022-06-21T11:03:20Z</time>
      </trkpt>
      <trkpt lat="43.42607" lon="2.65808">
        <ele>803.9</ele>
        <time>2022-06-21T11:03:21Z</time>
      </trkpt>
      <trkpt lat="43.42607" lon="2.65808">
        <ele>803.9</ele>
        <time>2022-06-21T11:03:22Z</time>
      </trkpt>
      <trkpt lat="43.42607" lon="2.65808">
        <ele>803.9</ele>
        <time>2022-06-21T11:03:23Z</time>
      </trkpt>
      <trkpt lat="43.42607" lon="2.65808">
        <ele>803.9</ele>
        <time>2022-06-21T11:03:24Z</time>
      </trkpt>
      <trkpt lat="43.42607" lon="2.65808">
        <ele>803.9</ele>
        <time>2022-06-21T11:03:25Z</time>
      </trkpt>
      <trkpt lat="43.42607" lon="2.65808">
        <ele>803.9</ele>
        <time>2022-06-21T11:03:26Z</time>
      </trkpt>
      <trkpt lat="43.42607" lon="2.65808">
        <ele>803.9</ele>
        <time>2022-06-21T11:03:27Z</time>
      </trkpt>
      <trkpt lat="43.42607" lon="2.65808">
        <ele>803.9</ele>
        <time>2022-06-21T11:03:28Z</time>
      </trkpt>
      <trkpt lat="43.42607" lon="2.65808">
        <ele>803.9</ele>
        <time>2022-06-21T11:03:29Z</time>
      </trkpt>
      <trkpt lat="43.42607" lon="2.65808">
        <ele>803.9</ele>
        <time>2022-06-21T11:03:30Z</time>
      </trkpt>
      <trkpt lat="43.42607" lon="2.65808">
        <ele>803.9</ele>
        <time>2022-06-21T11:03:31Z</time>
      </trkpt>
      <trkpt lat="43.42607" lon="2.65808">
        <ele>803.9</ele>
        <time>2022-06-21T11:03:32Z</time>
      </trkpt>
      <trkpt lat="43.42607" lon="2.65808">
        <ele>803.9</ele>
        <time>2022-06-21T11:03:33Z</time>
      </trkpt>
      <trkpt lat="43.42607" lon="2.65808">
        <ele>803.9</ele>
        <time>2022-06-21T11:03:34Z</time>
      </trkpt>
      <trkpt lat="43.42607" lon="2.65808">
        <ele>803.9</ele>
        <time>2022-06-21T11:03:35Z</time>
      </trkpt>
      <trkpt lat="43.42607" lon="2.65808">
        <ele>803.9</ele>
        <time>2022-06-21T11:03:36Z</time>
      </trkpt>
      <trkpt lat="43.42607" lon="2.65808">
        <ele>803.9</ele>
        <time>2022-06-21T11:03:37Z</time>
      </trkpt>
      <trkpt lat="43.42607" lon="2.65808">
        <ele>803.9</ele>
        <time>2022-06-21T11:03:38Z</time>
      </trkpt>
      <trkpt lat="43.42607" lon="2.65808">
        <ele>803.9</ele>
        <time>2022-06-21T11:03:39Z</time>
      </trkpt>
      <trkpt lat="43.42607" lon="2.65808">
        <ele>803.9</ele>
        <time>2022-06-21T11:03:40Z</time>
      </trkpt>
      <trkpt lat="43.42607" lon="2.65808">
        <ele>803.9</ele>
        <time>2022-06-21T11:03:41Z</time>
      </trkpt>
      <trkpt lat="43.42607" lon="2.65808">
        <ele>803.9</ele>
        <time>2022-06-21T11:03:42Z</time>
      </trkpt>
      <trkpt lat="43.42607" lon="2.65808">
        <ele>803.9</ele>
        <time>2022-06-21T11:03:43Z</time>
      </trkpt>
      <trkpt lat="43.42607" lon="2.65808">
        <ele>803.9</ele>
        <time>2022-06-21T11:03:44Z</time>
      </trkpt>
      <trkpt lat="43.42607" lon="2.65808">
        <ele>803.9</ele>
        <time>2022-06-21T11:03:45Z</time>
      </trkpt>
      <trkpt lat="43.42607" lon="2.65808">
        <ele>803.9</ele>
        <time>2022-06-21T11:03:46Z</time>
      </trkpt>
      <trkpt lat="43.42607" lon="2.65808">
        <ele>803.9</ele>
        <time>2022-06-21T11:03:47Z</time>
      </trkpt>
      <trkpt lat="43.42607" lon="2.65808">
        <ele>803.9</ele>
        <time>2022-06-21T11:03:48Z</time>
      </trkpt>
      <trkpt lat="43.42607" lon="2.65808">
        <ele>803.9</ele>
        <time>2022-06-21T11:03:49Z</time>
      </trkpt>
      <trkpt lat="43.42607" lon="2.65808">
        <ele>803.9</ele>
        <time>2022-06-21T11:03:50Z</time>
      </trkpt>
      <trkpt lat="43.42607" lon="2.65808">
        <ele>803.9</ele>
        <time>2022-06-21T11:03:51Z</time>
      </trkpt>
      <trkpt lat="43.42607" lon="2.65808">
        <ele>803.9</ele>
        <time>2022-06-21T11:03:52Z</time>
      </trkpt>
      <trkpt lat="43.42607" lon="2.65808">
        <ele>803.9</ele>
        <time>2022-06-21T11:03:53Z</time>
      </trkpt>
      <trkpt lat="43.42607" lon="2.65808">
        <ele>803.9</ele>
        <time>2022-06-21T11:03:54Z</time>
      </trkpt>
      <trkpt lat="43.42607" lon="2.65808">
        <ele>803.9</ele>
        <time>2022-06-21T11:03:55Z</time>
      </trkpt>
      <trkpt lat="43.42607" lon="2.65808">
        <ele>803.9</ele>
        <time>2022-06-21T11:03:56Z</time>
      </trkpt>
      <trkpt lat="43.42607" lon="2.65808">
        <ele>803.9</ele>
        <time>2022-06-21T11:03:57Z</time>
      </trkpt>
      <trkpt lat="43.42607" lon="2.65808">
        <ele>803.9</ele>
        <time>2022-06-21T11:03:58Z</time>
      </trkpt>
      <trkpt lat="43.42607" lon="2.65808">
        <ele>803.9</ele>
        <time>2022-06-21T11:03:59Z</time>
      </trkpt>
      <trkpt lat="43.42607" lon="2.65808">
        <ele>803.9</ele>
        <time>2022-06-21T11:04:00Z</time>
      </trkpt>
      <trkpt lat="43.42607" lon="2.65808">
        <ele>803.9</ele>
        <time>2022-06-21T11:04:01Z</time>
      </trkpt>
      <trkpt lat="43.42607" lon="2.65808">
        <ele>803.9</ele>
        <time>2022-06-21T11:04:02Z</time>
      </trkpt>
      <trkpt lat="43.42607" lon="2.65808">
        <ele>803.9</ele>
        <time>2022-06-21T11:04:03Z</time>
      </trkpt>
      <trkpt lat="43.42607" lon="2.65808">
        <ele>803.9</ele>
        <time>2022-06-21T11:04:04Z</time>
      </trkpt>
      <trkpt lat="43.42607" lon="2.65808">
        <ele>803.9</ele>
        <time>2022-06-21T11:04:05Z</time>
      </trkpt>
      <trkpt lat="43.42607" lon="2.65808">
        <ele>803.9</ele>
        <time>2022-06-21T11:04:06Z</time>
      </trkpt>
      <trkpt lat="43.42607" lon="2.65808">
        <ele>803.9</ele>
        <time>2022-06-21T11:04:07Z</time>
      </trkpt>
      <trkpt lat="43.42607" lon="2.65808">
        <ele>803.9</ele>
        <time>2022-06-21T11:04:08Z</time>
      </trkpt>
      <trkpt lat="43.42607" lon="2.65808">
        <ele>803.9</ele>
        <time>2022-06-21T11:04:09Z</time>
      </trkpt>
      <trkpt lat="43.42607" lon="2.65808">
        <ele>803.9</ele>
        <time>2022-06-21T11:04:10Z</time>
      </trkpt>
      <trkpt lat="43.42607" lon="2.65808">
        <ele>803.9</ele>
        <time>2022-06-21T11:04:11Z</time>
      </trkpt>
      <trkpt lat="43.42607" lon="2.65808">
        <ele>803.9</ele>
        <time>2022-06-21T11:04:12Z</time>
      </trkpt>
      <trkpt lat="43.42607" lon="2.65808">
        <ele>803.9</ele>
        <time>2022-06-21T11:04:13Z</time>
      </trkpt>
      <trkpt lat="43.42607" lon="2.65808">
        <ele>803.9</ele>
        <time>2022-06-21T11:04:14Z</time>
      </trkpt>
      <trkpt lat="43.42607" lon="2.65808">
        <ele>803.9</ele>
        <time>2022-06-21T11:04:15Z</time>
      </trkpt>
      <trkpt lat="43.42607" lon="2.65808">
        <ele>803.9</ele>
        <time>2022-06-21T11:04:16Z</time>
      </trkpt>
      <trkpt lat="43.42607" lon="2.65808">
        <ele>803.9</ele>
        <time>2022-06-21T11:04:17Z</time>
      </trkpt>
      <trkpt lat="43.42607" lon="2.65808">
        <ele>803.9</ele>
        <time>2022-06-21T11:04:18Z</time>
      </trkpt>
      <trkpt lat="43.42607" lon="2.65808">
        <ele>803.9</ele>
        <time>2022-06-21T11:04:19Z</time>
      </trkpt>
      <trkpt lat="43.42607" lon="2.65808">
        <ele>803.9</ele>
        <time>2022-06-21T11:04:20Z</time>
      </trkpt>
      <trkpt lat="43.42607" lon="2.65808">
        <ele>803.9</ele>
        <time>2022-06-21T11:04:21Z</time>
      </trkpt>
      <trkpt lat="43.42607" lon="2.65808">
        <ele>803.9</ele>
        <time>2022-06-21T11:04:22Z</time>
      </trkpt>
      <trkpt lat="43.42607" lon="2.65808">
        <ele>803.9</ele>
        <time>2022-06-21T11:04:23Z</time>
      </trkpt>
      <trkpt lat="43.42607" lon="2.65808">
        <ele>803.9</ele>
        <time>2022-06-21T11:04:24Z</time>
      </trkpt>
      <trkpt lat="43.42607" lon="2.65808">
        <ele>803.9</ele>
        <time>2022-06-21T11:04:25Z</time>
      </trkpt>
      <trkpt lat="43.42607" lon="2.65808">
        <ele>803.9</ele>
        <time>2022-06-21T11:04:26Z</time>
      </trkpt>
      <trkpt lat="43.42607" lon="2.65808">
        <ele>803.9</ele>
        <time>2022-06-21T11:04:27Z</time>
      </trkpt>
      <trkpt lat="43.42607" lon="2.65808">
        <ele>803.9</ele>
        <time>2022-06-21T11:04:28Z</time>
      </trkpt>
      <trkpt lat="43.42607" lon="2.65808">
        <ele>803.9</ele>
        <time>2022-06-21T11:04:29Z</time>
      </trkpt>
      <trkpt lat="43.42607" lon="2.65808">
        <ele>803.9</ele>
        <time>2022-06-21T11:04:30Z</time>
      </trkpt>
      <trkpt lat="43.42607" lon="2.65808">
        <ele>803.9</ele>
        <time>2022-06-21T11:04:31Z</time>
      </trkpt>
      <trkpt lat="43.42607" lon="2.65808">
        <ele>803.9</ele>
        <time>2022-06-21T11:04:32Z</time>
      </trkpt>
      <trkpt lat="43.42607" lon="2.65808">
        <ele>803.9</ele>
        <time>2022-06-21T11:04:33Z</time>
      </trkpt>
      <trkpt lat="43.42607" lon="2.65808">
        <ele>803.9</ele>
        <time>2022-06-21T11:04:34Z</time>
      </trkpt>
      <trkpt lat="43.42607" lon="2.65808">
        <ele>803.9</ele>
        <time>2022-06-21T11:04:35Z</time>
      </trkpt>
      <trkpt lat="43.42607" lon="2.65808">
        <ele>803.9</ele>
        <time>2022-06-21T11:04:36Z</time>
      </trkpt>
      <trkpt lat="43.42607" lon="2.65808">
        <ele>803.9</ele>
        <time>2022-06-21T11:04:37Z</time>
      </trkpt>
      <trkpt lat="43.42607" lon="2.65808">
        <ele>803.9</ele>
        <time>2022-06-21T11:04:38Z</time>
      </trkpt>
      <trkpt lat="43.42607" lon="2.65808">
        <ele>803.9</ele>
        <time>2022-06-21T11:04:39Z</time>
      </trkpt>
      <trkpt lat="43.42607" lon="2.65808">
        <ele>803.9</ele>
        <time>2022-06-21T11:04:40Z</time>
      </trkpt>
      <trkpt lat="43.42607" lon="2.65808">
        <ele>803.9</ele>
        <time>2022-06-21T11:04:41Z</time>
      </trkpt>
      <trkpt lat="43.42607" lon="2.65808">
        <ele>803.9</ele>
        <time>2022-06-21T11:04:42Z</time>
      </trkpt>
      <trkpt lat="43.42607" lon="2.65808">
        <ele>803.9</ele>
        <time>2022-06-21T11:04:43Z</time>
      </trkpt>
      <trkpt lat="43.42607" lon="2.65808">
        <ele>803.9</ele>
        <time>2022-06-21T11:04:44Z</time>
      </trkpt>
      <trkpt lat="43.42607" lon="2.65808">
        <ele>803.9</ele>
        <time>2022-06-21T11:04:45Z</time>
      </trkpt>
      <trkpt lat="43.42607" lon="2.65808">
        <ele>803.9</ele>
        <time>2022-06-21T11:04:46Z</time>
      </trkpt>
      <trkpt lat="43.42607" lon="2.65808">
        <ele>803.9</ele>
        <time>2022-06-21T11:04:47Z</time>
      </trkpt>
      <trkpt lat="43.42607" lon="2.65807">
        <ele>803.9</ele>
        <time>2022-06-21T11:04:48Z</time>
      </trkpt>
      <trkpt lat="43.42608" lon="2.65807">
        <ele>803.9</ele>
        <time>2022-06-21T11:04:49Z</time>
      </trkpt>
      <trkpt lat="43.42608" lon="2.65807">
        <ele>803.9</ele>
        <time>2022-06-21T11:04:50Z</time>
      </trkpt>
      <trkpt lat="43.42609" lon="2.65807">
        <ele>803.9</ele>
        <time>2022-06-21T11:04:51Z</time>
      </trkpt>
      <trkpt lat="43.42609" lon="2.65807">
        <ele>803.9</ele>
        <time>2022-06-21T11:04:52Z</time>
      </trkpt>
      <trkpt lat="43.42609" lon="2.65807">
        <ele>803.9</ele>
        <time>2022-06-21T11:04:53Z</time>
      </trkpt>
      <trkpt lat="43.42609" lon="2.65807">
        <ele>803.9</ele>
        <time>2022-06-21T11:04:54Z</time>
      </trkpt>
      <trkpt lat="43.42609" lon="2.65807">
        <ele>803.9</ele>
        <time>2022-06-21T11:04:55Z</time>
      </trkpt>
      <trkpt lat="43.42609" lon="2.65807">
        <ele>803.9</ele>
        <time>2022-06-21T11:04:56Z</time>
      </trkpt>
      <trkpt lat="43.42609" lon="2.65807">
        <ele>803.9</ele>
        <time>2022-06-21T11:04:57Z</time>
      </trkpt>
      <trkpt lat="43.42609" lon="2.65807">
        <ele>803.9</ele>
        <time>2022-06-21T11:04:58Z</time>
      </trkpt>
      <trkpt lat="43.42609" lon="2.65807">
        <ele>803.9</ele>
        <time>2022-06-21T11:04:59Z</time>
      </trkpt>
      <trkpt lat="43.42609" lon="2.65807">
        <ele>803.9</ele>
        <time>2022-06-21T11:05:00Z</time>
      </trkpt>
      <trkpt lat="43.42609" lon="2.65807">
        <ele>803.9</ele>
        <time>2022-06-21T11:05:01Z</time>
      </trkpt>
      <trkpt lat="43.42609" lon="2.65807">
        <ele>803.9</ele>
        <time>2022-06-21T11:05:02Z</time>
      </trkpt>
      <trkpt lat="43.42609" lon="2.65807">
        <ele>803.9</ele>
        <time>2022-06-21T11:05:03Z</time>
      </trkpt>
      <trkpt lat="43.42609" lon="2.65807">
        <ele>803.9</ele>
        <time>2022-06-21T11:05:04Z</time>
      </trkpt>
      <trkpt lat="43.42609" lon="2.65807">
        <ele>803.9</ele>
        <time>2022-06-21T11:05:05Z</time>
      </trkpt>
      <trkpt lat="43.42609" lon="2.65807">
        <ele>803.9</ele>
        <time>2022-06-21T11:05:06Z</time>
      </trkpt>
      <trkpt lat="43.42609" lon="2.65807">
        <ele>803.9</ele>
        <time>2022-06-21T11:05:07Z</time>
      </trkpt>
      <trkpt lat="43.42609" lon="2.65807">
        <ele>803.9</ele>
        <time>2022-06-21T11:05:08Z</time>
      </trkpt>
      <trkpt lat="43.42609" lon="2.65807">
        <ele>803.9</ele>
        <time>2022-06-21T11:05:09Z</time>
      </trkpt>
      <trkpt lat="43.42609" lon="2.65807">
        <ele>803.9</ele>
        <time>2022-06-21T11:05:10Z</time>
      </trkpt>
      <trkpt lat="43.42609" lon="2.65807">
        <ele>803.9</ele>
        <time>2022-06-21T11:05:11Z</time>
      </trkpt>
      <trkpt lat="43.42609" lon="2.65807">
        <ele>803.9</ele>
        <time>2022-06-21T11:05:12Z</time>
      </trkpt>
      <trkpt lat="43.42609" lon="2.65807">
        <ele>803.9</ele>
        <time>2022-06-21T11:05:13Z</time>
      </trkpt>
      <trkpt lat="43.42609" lon="2.65807">
        <ele>803.9</ele>
        <time>2022-06-21T11:05:14Z</time>
      </trkpt>
      <trkpt lat="43.42609" lon="2.65807">
        <ele>803.9</ele>
        <time>2022-06-21T11:05:15Z</time>
      </trkpt>
      <trkpt lat="43.42609" lon="2.65807">
        <ele>803.9</ele>
        <time>2022-06-21T11:05:16Z</time>
      </trkpt>
      <trkpt lat="43.42609" lon="2.65807">
        <ele>803.9</ele>
        <time>2022-06-21T11:05:17Z</time>
      </trkpt>
      <trkpt lat="43.42609" lon="2.65807">
        <ele>803.9</ele>
        <time>2022-06-21T11:05:18Z</time>
      </trkpt>
      <trkpt lat="43.42609" lon="2.65807">
        <ele>803.9</ele>
        <time>2022-06-21T11:05:19Z</time>
      </trkpt>
      <trkpt lat="43.42609" lon="2.65807">
        <ele>803.9</ele>
        <time>2022-06-21T11:05:20Z</time>
      </trkpt>
      <trkpt lat="43.42609" lon="2.65807">
        <ele>803.9</ele>
        <time>2022-06-21T11:05:21Z</time>
      </trkpt>
      <trkpt lat="43.42609" lon="2.65807">
        <ele>803.9</ele>
        <time>2022-06-21T11:05:22Z</time>
      </trkpt>
      <trkpt lat="43.42609" lon="2.65807">
        <ele>803.9</ele>
        <time>2022-06-21T11:05:23Z</time>
      </trkpt>
      <trkpt lat="43.42609" lon="2.65807">
        <ele>803.9</ele>
        <time>2022-06-21T11:05:24Z</time>
      </trkpt>
      <trkpt lat="43.42609" lon="2.65807">
        <ele>803.9</ele>
        <time>2022-06-21T11:05:25Z</time>
      </trkpt>
      <trkpt lat="43.42609" lon="2.65807">
        <ele>803.9</ele>
        <time>2022-06-21T11:05:26Z</time>
      </trkpt>
      <trkpt lat="43.42609" lon="2.65807">
        <ele>803.9</ele>
        <time>2022-06-21T11:05:27Z</time>
      </trkpt>
      <trkpt lat="43.42609" lon="2.65807">
        <ele>803.9</ele>
        <time>2022-06-21T11:05:28Z</time>
      </trkpt>
      <trkpt lat="43.42609" lon="2.65807">
        <ele>803.9</ele>
        <time>2022-06-21T11:05:29Z</time>
      </trkpt>
      <trkpt lat="43.42609" lon="2.65807">
        <ele>803.9</ele>
        <time>2022-06-21T11:05:30Z</time>
      </trkpt>
      <trkpt lat="43.42609" lon="2.65807">
        <ele>803.9</ele>
        <time>2022-06-21T11:05:31Z</time>
      </trkpt>
      <trkpt lat="43.42609" lon="2.65807">
        <ele>803.9</ele>
        <time>2022-06-21T11:05:32Z</time>
      </trkpt>
      <trkpt lat="43.42609" lon="2.65807">
        <ele>803.9</ele>
        <time>2022-06-21T11:05:33Z</time>
      </trkpt>
      <trkpt lat="43.42609" lon="2.65807">
        <ele>803.9</ele>
        <time>2022-06-21T11:05:34Z</time>
      </trkpt>
      <trkpt lat="43.42609" lon="2.65807">
        <ele>803.9</ele>
        <time>2022-06-21T11:05:35Z</time>
      </trkpt>
      <trkpt lat="43.42609" lon="2.65807">
        <ele>803.9</ele>
        <time>2022-06-21T11:05:36Z</time>
      </trkpt>
      <trkpt lat="43.42609" lon="2.65807">
        <ele>803.9</ele>
        <time>2022-06-21T11:05:37Z</time>
      </trkpt>
      <trkpt lat="43.42609" lon="2.65807">
        <ele>803.9</ele>
        <time>2022-06-21T11:05:38Z</time>
      </trkpt>
      <trkpt lat="43.42609" lon="2.65807">
        <ele>803.9</ele>
        <time>2022-06-21T11:05:39Z</time>
      </trkpt>
      <trkpt lat="43.42609" lon="2.65807">
        <ele>803.9</ele>
        <time>2022-06-21T11:05:40Z</time>
      </trkpt>
      <trkpt lat="43.42609" lon="2.65807">
        <ele>803.9</ele>
        <time>2022-06-21T11:05:41Z</time>
      </trkpt>
      <trkpt lat="43.42609" lon="2.65807">
        <ele>803.9</ele>
        <time>2022-06-21T11:05:42Z</time>
      </trkpt>
      <trkpt lat="43.42609" lon="2.65807">
        <ele>803.9</ele>
        <time>2022-06-21T11:05:43Z</time>
      </trkpt>
      <trkpt lat="43.42609" lon="2.65807">
        <ele>803.9</ele>
        <time>2022-06-21T11:05:44Z</time>
      </trkpt>
      <trkpt lat="43.42609" lon="2.65807">
        <ele>803.9</ele>
        <time>2022-06-21T11:05:45Z</time>
      </trkpt>
      <trkpt lat="43.42609" lon="2.65807">
        <ele>803.9</ele>
        <time>2022-06-21T11:05:46Z</time>
      </trkpt>
      <trkpt lat="43.42609" lon="2.65807">
        <ele>803.9</ele>
        <time>2022-06-21T11:05:47Z</time>
      </trkpt>
      <trkpt lat="43.42609" lon="2.65807">
        <ele>803.9</ele>
        <time>2022-06-21T11:05:48Z</time>
      </trkpt>
      <trkpt lat="43.42609" lon="2.65807">
        <ele>803.9</ele>
        <time>2022-06-21T11:05:49Z</time>
      </trkpt>
      <trkpt lat="43.42609" lon="2.65807">
        <ele>803.9</ele>
        <time>2022-06-21T11:05:50Z</time>
      </trkpt>
      <trkpt lat="43.42609" lon="2.65807">
        <ele>803.9</ele>
        <time>2022-06-21T11:05:51Z</time>
      </trkpt>
      <trkpt lat="43.42609" lon="2.65807">
        <ele>803.9</ele>
        <time>2022-06-21T11:05:52Z</time>
      </trkpt>
      <trkpt lat="43.42609" lon="2.65807">
        <ele>803.9</ele>
        <time>2022-06-21T11:05:53Z</time>
      </trkpt>
      <trkpt lat="43.42609" lon="2.65807">
        <ele>803.9</ele>
        <time>2022-06-21T11:05:54Z</time>
      </trkpt>
      <trkpt lat="43.42609" lon="2.65807">
        <ele>803.9</ele>
        <time>2022-06-21T11:05:55Z</time>
      </trkpt>
      <trkpt lat="43.42609" lon="2.65807">
        <ele>803.9</ele>
        <time>2022-06-21T11:05:56Z</time>
      </trkpt>
      <trkpt lat="43.42609" lon="2.65807">
        <ele>803.9</ele>
        <time>2022-06-21T11:05:57Z</time>
      </trkpt>
      <trkpt lat="43.42609" lon="2.65807">
        <ele>803.9</ele>
        <time>2022-06-21T11:05:58Z</time>
      </trkpt>
      <trkpt lat="43.42609" lon="2.65807">
        <ele>803.9</ele>
        <time>2022-06-21T11:05:59Z</time>
      </trkpt>
      <trkpt lat="43.42609" lon="2.65807">
        <ele>803.9</ele>
        <time>2022-06-21T11:06:00Z</time>
      </trkpt>
      <trkpt lat="43.42609" lon="2.65807">
        <ele>803.9</ele>
        <time>2022-06-21T11:06:01Z</time>
      </trkpt>
      <trkpt lat="43.42609" lon="2.65807">
        <ele>803.9</ele>
        <time>2022-06-21T11:06:02Z</time>
      </trkpt>
      <trkpt lat="43.42609" lon="2.65807">
        <ele>803.9</ele>
        <time>2022-06-21T11:06:03Z</time>
      </trkpt>
      <trkpt lat="43.42609" lon="2.65807">
        <ele>803.9</ele>
        <time>2022-06-21T11:06:04Z</time>
      </trkpt>
      <trkpt lat="43.42609" lon="2.65807">
        <ele>803.9</ele>
        <time>2022-06-21T11:06:05Z</time>
      </trkpt>
      <trkpt lat="43.42609" lon="2.65807">
        <ele>803.9</ele>
        <time>2022-06-21T11:06:06Z</time>
      </trkpt>
      <trkpt lat="43.42609" lon="2.65807">
        <ele>803.9</ele>
        <time>2022-06-21T11:06:07Z</time>
      </trkpt>
      <trkpt lat="43.42609" lon="2.65807">
        <ele>803.9</ele>
        <time>2022-06-21T11:06:08Z</time>
      </trkpt>
      <trkpt lat="43.42609" lon="2.65807">
        <ele>803.9</ele>
        <time>2022-06-21T11:06:09Z</time>
      </trkpt>
      <trkpt lat="43.42609" lon="2.65807">
        <ele>803.9</ele>
        <time>2022-06-21T11:06:10Z</time>
      </trkpt>
      <trkpt lat="43.42609" lon="2.65807">
        <ele>803.9</ele>
        <time>2022-06-21T11:06:11Z</time>
      </trkpt>
      <trkpt lat="43.42609" lon="2.65807">
        <ele>803.9</ele>
        <time>2022-06-21T11:06:12Z</time>
      </trkpt>
      <trkpt lat="43.42609" lon="2.65807">
        <ele>803.9</ele>
        <time>2022-06-21T11:06:13Z</time>
      </trkpt>
      <trkpt lat="43.42609" lon="2.65807">
        <ele>803.9</ele>
        <time>2022-06-21T11:06:14Z</time>
      </trkpt>
      <trkpt lat="43.42609" lon="2.65807">
        <ele>803.9</ele>
        <time>2022-06-21T11:06:15Z</time>
      </trkpt>
      <trkpt lat="43.42609" lon="2.65807">
        <ele>803.9</ele>
        <time>2022-06-21T11:06:16Z</time>
      </trkpt>
      <trkpt lat="43.42609" lon="2.65807">
        <ele>803.9</ele>
        <time>2022-06-21T11:06:17Z</time>
      </trkpt>
      <trkpt lat="43.42609" lon="2.65807">
        <ele>803.9</ele>
        <time>2022-06-21T11:06:18Z</time>
      </trkpt>
      <trkpt lat="43.42609" lon="2.65807">
        <ele>803.9</ele>
        <time>2022-06-21T11:06:19Z</time>
      </trkpt>
      <trkpt lat="43.42609" lon="2.65807">
        <ele>803.9</ele>
        <time>2022-06-21T11:06:20Z</time>
      </trkpt>
      <trkpt lat="43.42609" lon="2.65807">
        <ele>803.9</ele>
        <time>2022-06-21T11:06:21Z</time>
      </trkpt>
      <trkpt lat="43.42609" lon="2.65807">
        <ele>803.9</ele>
        <time>2022-06-21T11:06:22Z</time>
      </trkpt>
      <trkpt lat="43.42609" lon="2.65807">
        <ele>803.9</ele>
        <time>2022-06-21T11:06:23Z</time>
      </trkpt>
      <trkpt lat="43.42609" lon="2.65807">
        <ele>803.9</ele>
        <time>2022-06-21T11:06:24Z</time>
      </trkpt>
      <trkpt lat="43.42609" lon="2.65807">
        <ele>803.9</ele>
        <time>2022-06-21T11:06:25Z</time>
      </trkpt>
      <trkpt lat="43.42609" lon="2.65807">
        <ele>803.9</ele>
        <time>2022-06-21T11:06:26Z</time>
      </trkpt>
      <trkpt lat="43.42609" lon="2.65807">
        <ele>803.9</ele>
        <time>2022-06-21T11:06:27Z</time>
      </trkpt>
      <trkpt lat="43.42609" lon="2.65807">
        <ele>803.9</ele>
        <time>2022-06-21T11:06:28Z</time>
      </trkpt>
      <trkpt lat="43.42609" lon="2.65807">
        <ele>803.9</ele>
        <time>2022-06-21T11:06:29Z</time>
      </trkpt>
      <trkpt lat="43.42609" lon="2.65807">
        <ele>803.9</ele>
        <time>2022-06-21T11:06:30Z</time>
      </trkpt>
      <trkpt lat="43.42609" lon="2.65807">
        <ele>803.9</ele>
        <time>2022-06-21T11:06:31Z</time>
      </trkpt>
      <trkpt lat="43.42609" lon="2.65807">
        <ele>803.9</ele>
        <time>2022-06-21T11:06:32Z</time>
      </trkpt>
      <trkpt lat="43.42609" lon="2.65807">
        <ele>803.9</ele>
        <time>2022-06-21T11:06:33Z</time>
      </trkpt>
      <trkpt lat="43.42609" lon="2.65807">
        <ele>803.9</ele>
        <time>2022-06-21T11:06:34Z</time>
      </trkpt>
      <trkpt lat="43.42609" lon="2.65807">
        <ele>803.9</ele>
        <time>2022-06-21T11:06:35Z</time>
      </trkpt>
      <trkpt lat="43.42609" lon="2.65807">
        <ele>803.9</ele>
        <time>2022-06-21T11:06:36Z</time>
      </trkpt>
      <trkpt lat="43.42609" lon="2.65807">
        <ele>803.9</ele>
        <time>2022-06-21T11:06:37Z</time>
      </trkpt>
      <trkpt lat="43.42609" lon="2.65807">
        <ele>803.9</ele>
        <time>2022-06-21T11:06:38Z</time>
      </trkpt>
      <trkpt lat="43.42609" lon="2.65807">
        <ele>803.9</ele>
        <time>2022-06-21T11:06:39Z</time>
      </trkpt>
      <trkpt lat="43.42609" lon="2.65807">
        <ele>803.9</ele>
        <time>2022-06-21T11:06:40Z</time>
      </trkpt>
      <trkpt lat="43.42609" lon="2.65807">
        <ele>803.9</ele>
        <time>2022-06-21T11:06:41Z</time>
      </trkpt>
      <trkpt lat="43.42609" lon="2.65807">
        <ele>803.9</ele>
        <time>2022-06-21T11:06:42Z</time>
      </trkpt>
      <trkpt lat="43.42609" lon="2.65807">
        <ele>803.9</ele>
        <time>2022-06-21T11:06:43Z</time>
      </trkpt>
      <trkpt lat="43.42609" lon="2.65807">
        <ele>803.9</ele>
        <time>2022-06-21T11:06:44Z</time>
      </trkpt>
      <trkpt lat="43.42609" lon="2.65807">
        <ele>803.9</ele>
        <time>2022-06-21T11:06:45Z</time>
      </trkpt>
      <trkpt lat="43.42609" lon="2.65807">
        <ele>803.9</ele>
        <time>2022-06-21T11:06:46Z</time>
      </trkpt>
      <trkpt lat="43.42609" lon="2.65807">
        <ele>803.9</ele>
        <time>2022-06-21T11:06:47Z</time>
      </trkpt>
      <trkpt lat="43.42609" lon="2.65807">
        <ele>803.9</ele>
        <time>2022-06-21T11:06:48Z</time>
      </trkpt>
      <trkpt lat="43.42609" lon="2.65807">
        <ele>803.9</ele>
        <time>2022-06-21T11:06:49Z</time>
      </trkpt>
      <trkpt lat="43.42609" lon="2.65807">
        <ele>803.9</ele>
        <time>2022-06-21T11:06:50Z</time>
      </trkpt>
      <trkpt lat="43.42609" lon="2.65807">
        <ele>803.9</ele>
        <time>2022-06-21T11:06:51Z</time>
      </trkpt>
      <trkpt lat="43.42609" lon="2.65807">
        <ele>803.9</ele>
        <time>2022-06-21T11:06:52Z</time>
      </trkpt>
      <trkpt lat="43.42609" lon="2.65807">
        <ele>803.9</ele>
        <time>2022-06-21T11:06:53Z</time>
      </trkpt>
      <trkpt lat="43.42609" lon="2.65807">
        <ele>803.9</ele>
        <time>2022-06-21T11:06:54Z</time>
      </trkpt>
      <trkpt lat="43.42609" lon="2.65807">
        <ele>803.9</ele>
        <time>2022-06-21T11:06:55Z</time>
      </trkpt>
      <trkpt lat="43.42609" lon="2.65807">
        <ele>803.9</ele>
        <time>2022-06-21T11:06:56Z</time>
      </trkpt>
      <trkpt lat="43.42609" lon="2.65807">
        <ele>803.9</ele>
        <time>2022-06-21T11:06:57Z</time>
      </trkpt>
      <trkpt lat="43.42609" lon="2.65807">
        <ele>803.9</ele>
        <time>2022-06-21T11:06:58Z</time>
      </trkpt>
      <trkpt lat="43.42609" lon="2.65807">
        <ele>803.9</ele>
        <time>2022-06-21T11:06:59Z</time>
      </trkpt>
      <trkpt lat="43.42609" lon="2.65807">
        <ele>803.9</ele>
        <time>2022-06-21T11:07:00Z</time>
      </trkpt>
      <trkpt lat="43.42609" lon="2.65807">
        <ele>803.9</ele>
        <time>2022-06-21T11:07:01Z</time>
      </trkpt>
      <trkpt lat="43.42609" lon="2.65807">
        <ele>803.9</ele>
        <time>2022-06-21T11:07:02Z</time>
      </trkpt>
      <trkpt lat="43.42609" lon="2.65807">
        <ele>803.9</ele>
        <time>2022-06-21T11:07:03Z</time>
      </trkpt>
      <trkpt lat="43.42609" lon="2.65807">
        <ele>803.9</ele>
        <time>2022-06-21T11:07:04Z</time>
      </trkpt>
      <trkpt lat="43.42609" lon="2.65807">
        <ele>803.9</ele>
        <time>2022-06-21T11:07:05Z</time>
      </trkpt>
      <trkpt lat="43.42609" lon="2.65807">
        <ele>803.9</ele>
        <time>2022-06-21T11:07:06Z</time>
      </trkpt>
      <trkpt lat="43.42609" lon="2.65807">
        <ele>803.9</ele>
        <time>2022-06-21T11:07:07Z</time>
      </trkpt>
      <trkpt lat="43.42609" lon="2.65807">
        <ele>803.9</ele>
        <time>2022-06-21T11:07:08Z</time>
      </trkpt>
      <trkpt lat="43.42609" lon="2.65807">
        <ele>803.9</ele>
        <time>2022-06-21T11:07:09Z</time>
      </trkpt>
      <trkpt lat="43.42609" lon="2.65807">
        <ele>803.9</ele>
        <time>2022-06-21T11:07:10Z</time>
      </trkpt>
      <trkpt lat="43.42609" lon="2.65807">
        <ele>803.9</ele>
        <time>2022-06-21T11:07:11Z</time>
      </trkpt>
      <trkpt lat="43.42609" lon="2.65807">
        <ele>803.9</ele>
        <time>2022-06-21T11:07:12Z</time>
      </trkpt>
      <trkpt lat="43.42609" lon="2.65807">
        <ele>803.9</ele>
        <time>2022-06-21T11:07:13Z</time>
      </trkpt>
      <trkpt lat="43.42609" lon="2.65807">
        <ele>803.9</ele>
        <time>2022-06-21T11:07:14Z</time>
      </trkpt>
      <trkpt lat="43.42609" lon="2.65807">
        <ele>803.9</ele>
        <time>2022-06-21T11:07:15Z</time>
      </trkpt>
      <trkpt lat="43.42609" lon="2.65807">
        <ele>803.9</ele>
        <time>2022-06-21T11:07:16Z</time>
      </trkpt>
      <trkpt lat="43.42609" lon="2.65807">
        <ele>803.9</ele>
        <time>2022-06-21T11:07:17Z</time>
      </trkpt>
      <trkpt lat="43.42609" lon="2.65807">
        <ele>803.9</ele>
        <time>2022-06-21T11:07:18Z</time>
      </trkpt>
      <trkpt lat="43.42609" lon="2.65807">
        <ele>803.9</ele>
        <time>2022-06-21T11:07:19Z</time>
      </trkpt>
      <trkpt lat="43.42609" lon="2.65807">
        <ele>803.9</ele>
        <time>2022-06-21T11:07:20Z</time>
      </trkpt>
      <trkpt lat="43.42609" lon="2.65807">
        <ele>803.9</ele>
        <time>2022-06-21T11:07:21Z</time>
      </trkpt>
      <trkpt lat="43.42609" lon="2.65807">
        <ele>803.9</ele>
        <time>2022-06-21T11:07:22Z</time>
      </trkpt>
      <trkpt lat="43.42609" lon="2.65807">
        <ele>803.9</ele>
        <time>2022-06-21T11:07:23Z</time>
      </trkpt>
      <trkpt lat="43.42609" lon="2.65807">
        <ele>803.9</ele>
        <time>2022-06-21T11:07:24Z</time>
      </trkpt>
      <trkpt lat="43.42609" lon="2.65807">
        <ele>803.9</ele>
        <time>2022-06-21T11:07:25Z</time>
      </trkpt>
      <trkpt lat="43.42609" lon="2.65807">
        <ele>803.9</ele>
        <time>2022-06-21T11:07:26Z</time>
      </trkpt>
      <trkpt lat="43.42609" lon="2.65807">
        <ele>803.9</ele>
        <time>2022-06-21T11:07:27Z</time>
      </trkpt>
      <trkpt lat="43.42609" lon="2.65807">
        <ele>803.9</ele>
        <time>2022-06-21T11:07:28Z</time>
      </trkpt>
      <trkpt lat="43.42609" lon="2.65807">
        <ele>803.9</ele>
        <time>2022-06-21T11:07:29Z</time>
      </trkpt>
      <trkpt lat="43.42609" lon="2.65807">
        <ele>803.9</ele>
        <time>2022-06-21T11:07:30Z</time>
      </trkpt>
      <trkpt lat="43.42609" lon="2.65807">
        <ele>803.9</ele>
        <time>2022-06-21T11:07:31Z</time>
      </trkpt>
      <trkpt lat="43.42609" lon="2.65807">
        <ele>803.9</ele>
        <time>2022-06-21T11:07:32Z</time>
      </trkpt>
      <trkpt lat="43.42609" lon="2.65807">
        <ele>803.9</ele>
        <time>2022-06-21T11:07:33Z</time>
      </trkpt>
      <trkpt lat="43.42609" lon="2.65807">
        <ele>803.9</ele>
        <time>2022-06-21T11:07:34Z</time>
      </trkpt>
      <trkpt lat="43.42609" lon="2.65807">
        <ele>803.9</ele>
        <time>2022-06-21T11:07:35Z</time>
      </trkpt>
      <trkpt lat="43.42609" lon="2.65807">
        <ele>803.9</ele>
        <time>2022-06-21T11:07:36Z</time>
      </trkpt>
      <trkpt lat="43.42609" lon="2.65807">
        <ele>803.9</ele>
        <time>2022-06-21T11:07:37Z</time>
      </trkpt>
      <trkpt lat="43.42609" lon="2.65807">
        <ele>803.9</ele>
        <time>2022-06-21T11:07:38Z</time>
      </trkpt>
      <trkpt lat="43.42609" lon="2.65807">
        <ele>803.9</ele>
        <time>2022-06-21T11:07:39Z</time>
      </trkpt>
      <trkpt lat="43.42609" lon="2.65807">
        <ele>803.9</ele>
        <time>2022-06-21T11:07:40Z</time>
      </trkpt>
      <trkpt lat="43.42609" lon="2.65807">
        <ele>803.9</ele>
        <time>2022-06-21T11:07:41Z</time>
      </trkpt>
      <trkpt lat="43.42609" lon="2.65807">
        <ele>803.9</ele>
        <time>2022-06-21T11:07:42Z</time>
      </trkpt>
      <trkpt lat="43.42609" lon="2.65807">
        <ele>803.9</ele>
        <time>2022-06-21T11:07:43Z</time>
      </trkpt>
      <trkpt lat="43.42609" lon="2.65807">
        <ele>803.9</ele>
        <time>2022-06-21T11:07:44Z</time>
      </trkpt>
      <trkpt lat="43.42609" lon="2.65807">
        <ele>803.9</ele>
        <time>2022-06-21T11:07:45Z</time>
      </trkpt>
      <trkpt lat="43.42609" lon="2.65807">
        <ele>803.9</ele>
        <time>2022-06-21T11:07:46Z</time>
      </trkpt>
      <trkpt lat="43.42609" lon="2.65807">
        <ele>803.9</ele>
        <time>2022-06-21T11:07:47Z</time>
      </trkpt>
      <trkpt lat="43.42609" lon="2.65807">
        <ele>803.9</ele>
        <time>2022-06-21T11:07:48Z</time>
      </trkpt>
      <trkpt lat="43.42609" lon="2.65807">
        <ele>803.9</ele>
        <time>2022-06-21T11:07:49Z</time>
      </trkpt>
      <trkpt lat="43.42609" lon="2.65807">
        <ele>803.9</ele>
        <time>2022-06-21T11:07:50Z</time>
      </trkpt>
      <trkpt lat="43.42609" lon="2.65807">
        <ele>803.9</ele>
        <time>2022-06-21T11:07:51Z</time>
      </trkpt>
      <trkpt lat="43.42609" lon="2.65807">
        <ele>803.9</ele>
        <time>2022-06-21T11:07:52Z</time>
      </trkpt>
      <trkpt lat="43.42609" lon="2.65807">
        <ele>803.9</ele>
        <time>2022-06-21T11:07:53Z</time>
      </trkpt>
      <trkpt lat="43.42609" lon="2.65807">
        <ele>803.9</ele>
        <time>2022-06-21T11:07:54Z</time>
      </trkpt>
      <trkpt lat="43.42609" lon="2.65807">
        <ele>803.9</ele>
        <time>2022-06-21T11:07:55Z</time>
      </trkpt>
      <trkpt lat="43.42609" lon="2.65807">
        <ele>803.9</ele>
        <time>2022-06-21T11:07:56Z</time>
      </trkpt>
      <trkpt lat="43.42609" lon="2.65807">
        <ele>803.9</ele>
        <time>2022-06-21T11:07:57Z</time>
      </trkpt>
      <trkpt lat="43.42609" lon="2.65807">
        <ele>803.9</ele>
        <time>2022-06-21T11:07:58Z</time>
      </trkpt>
      <trkpt lat="43.42609" lon="2.65807">
        <ele>803.9</ele>
        <time>2022-06-21T11:07:59Z</time>
      </trkpt>
      <trkpt lat="43.42609" lon="2.65807">
        <ele>803.9</ele>
        <time>2022-06-21T11:08:00Z</time>
      </trkpt>
      <trkpt lat="43.42609" lon="2.65807">
        <ele>803.9</ele>
        <time>2022-06-21T11:08:01Z</time>
      </trkpt>
      <trkpt lat="43.42609" lon="2.65807">
        <ele>803.9</ele>
        <time>2022-06-21T11:08:02Z</time>
      </trkpt>
      <trkpt lat="43.42609" lon="2.65807">
        <ele>803.9</ele>
        <time>2022-06-21T11:08:03Z</time>
      </trkpt>
      <trkpt lat="43.42609" lon="2.65807">
        <ele>803.9</ele>
        <time>2022-06-21T11:08:04Z</time>
      </trkpt>
      <trkpt lat="43.42609" lon="2.65807">
        <ele>803.9</ele>
        <time>2022-06-21T11:08:05Z</time>
      </trkpt>
      <trkpt lat="43.42609" lon="2.65807">
        <ele>803.9</ele>
        <time>2022-06-21T11:08:06Z</time>
      </trkpt>
      <trkpt lat="43.42609" lon="2.65807">
        <ele>803.9</ele>
        <time>2022-06-21T11:08:07Z</time>
      </trkpt>
      <trkpt lat="43.42609" lon="2.65807">
        <ele>803.9</ele>
        <time>2022-06-21T11:08:08Z</time>
      </trkpt>
      <trkpt lat="43.42609" lon="2.65807">
        <ele>803.9</ele>
        <time>2022-06-21T11:08:09Z</time>
      </trkpt>
      <trkpt lat="43.42609" lon="2.65807">
        <ele>803.9</ele>
        <time>2022-06-21T11:08:10Z</time>
      </trkpt>
      <trkpt lat="43.42609" lon="2.65807">
        <ele>803.9</ele>
        <time>2022-06-21T11:08:11Z</time>
      </trkpt>
      <trkpt lat="43.42609" lon="2.65807">
        <ele>803.9</ele>
        <time>2022-06-21T11:08:12Z</time>
      </trkpt>
      <trkpt lat="43.42609" lon="2.65807">
        <ele>803.9</ele>
        <time>2022-06-21T11:08:13Z</time>
      </trkpt>
      <trkpt lat="43.42609" lon="2.65807">
        <ele>803.9</ele>
        <time>2022-06-21T11:08:14Z</time>
      </trkpt>
      <trkpt lat="43.42609" lon="2.65807">
        <ele>803.9</ele>
        <time>2022-06-21T11:08:15Z</time>
      </trkpt>
      <trkpt lat="43.42609" lon="2.65807">
        <ele>803.9</ele>
        <time>2022-06-21T11:08:16Z</time>
      </trkpt>
      <trkpt lat="43.42609" lon="2.65807">
        <ele>803.9</ele>
        <time>2022-06-21T11:08:17Z</time>
      </trkpt>
      <trkpt lat="43.42609" lon="2.65807">
        <ele>803.9</ele>
        <time>2022-06-21T11:08:18Z</time>
      </trkpt>
      <trkpt lat="43.42609" lon="2.65807">
        <ele>803.9</ele>
        <time>2022-06-21T11:08:19Z</time>
      </trkpt>
      <trkpt lat="43.42609" lon="2.65807">
        <ele>803.9</ele>
        <time>2022-06-21T11:08:20Z</time>
      </trkpt>
      <trkpt lat="43.42609" lon="2.65807">
        <ele>803.9</ele>
        <time>2022-06-21T11:08:21Z</time>
      </trkpt>
      <trkpt lat="43.42609" lon="2.65807">
        <ele>803.9</ele>
        <time>2022-06-21T11:08:22Z</time>
      </trkpt>
      <trkpt lat="43.42609" lon="2.65807">
        <ele>803.9</ele>
        <time>2022-06-21T11:08:23Z</time>
      </trkpt>
      <trkpt lat="43.42609" lon="2.65807">
        <ele>803.9</ele>
        <time>2022-06-21T11:08:24Z</time>
      </trkpt>
      <trkpt lat="43.42609" lon="2.65807">
        <ele>803.9</ele>
        <time>2022-06-21T11:08:25Z</time>
      </trkpt>
      <trkpt lat="43.42609" lon="2.65807">
        <ele>803.9</ele>
        <time>2022-06-21T11:08:26Z</time>
      </trkpt>
      <trkpt lat="43.42609" lon="2.65807">
        <ele>803.9</ele>
        <time>2022-06-21T11:08:27Z</time>
      </trkpt>
      <trkpt lat="43.42609" lon="2.65807">
        <ele>803.9</ele>
        <time>2022-06-21T11:08:28Z</time>
      </trkpt>
      <trkpt lat="43.42609" lon="2.65807">
        <ele>803.9</ele>
        <time>2022-06-21T11:08:29Z</time>
      </trkpt>
      <trkpt lat="43.42609" lon="2.65807">
        <ele>803.9</ele>
        <time>2022-06-21T11:08:30Z</time>
      </trkpt>
      <trkpt lat="43.42609" lon="2.65807">
        <ele>803.9</ele>
        <time>2022-06-21T11:08:31Z</time>
      </trkpt>
      <trkpt lat="43.42609" lon="2.65807">
        <ele>803.9</ele>
        <time>2022-06-21T11:08:32Z</time>
      </trkpt>
      <trkpt lat="43.42609" lon="2.65807">
        <ele>803.9</ele>
        <time>2022-06-21T11:08:33Z</time>
      </trkpt>
      <trkpt lat="43.42609" lon="2.65807">
        <ele>803.9</ele>
        <time>2022-06-21T11:08:34Z</time>
      </trkpt>
      <trkpt lat="43.42609" lon="2.65807">
        <ele>803.9</ele>
        <time>2022-06-21T11:08:35Z</time>
      </trkpt>
      <trkpt lat="43.42609" lon="2.65807">
        <ele>803.9</ele>
        <time>2022-06-21T11:08:36Z</time>
      </trkpt>
      <trkpt lat="43.42609" lon="2.65807">
        <ele>803.9</ele>
        <time>2022-06-21T11:08:37Z</time>
      </trkpt>
      <trkpt lat="43.42609" lon="2.65807">
        <ele>803.9</ele>
        <time>2022-06-21T11:08:38Z</time>
      </trkpt>
      <trkpt lat="43.42609" lon="2.65807">
        <ele>803.9</ele>
        <time>2022-06-21T11:08:39Z</time>
      </trkpt>
      <trkpt lat="43.42609" lon="2.65807">
        <ele>803.9</ele>
        <time>2022-06-21T11:08:40Z</time>
      </trkpt>
      <trkpt lat="43.42609" lon="2.65807">
        <ele>803.9</ele>
        <time>2022-06-21T11:08:41Z</time>
      </trkpt>
      <trkpt lat="43.42609" lon="2.65807">
        <ele>803.9</ele>
        <time>2022-06-21T11:08:42Z</time>
      </trkpt>
      <trkpt lat="43.42609" lon="2.65807">
        <ele>803.9</ele>
        <time>2022-06-21T11:08:43Z</time>
      </trkpt>
      <trkpt lat="43.42609" lon="2.65807">
        <ele>803.9</ele>
        <time>2022-06-21T11:08:44Z</time>
      </trkpt>
      <trkpt lat="43.42609" lon="2.65807">
        <ele>803.9</ele>
        <time>2022-06-21T11:08:45Z</time>
      </trkpt>
      <trkpt lat="43.42609" lon="2.65807">
        <ele>803.9</ele>
        <time>2022-06-21T11:08:46Z</time>
      </trkpt>
      <trkpt lat="43.42609" lon="2.65807">
        <ele>803.9</ele>
        <time>2022-06-21T11:08:47Z</time>
      </trkpt>
      <trkpt lat="43.42609" lon="2.65807">
        <ele>803.9</ele>
        <time>2022-06-21T11:08:48Z</time>
      </trkpt>
      <trkpt lat="43.42609" lon="2.65807">
        <ele>803.9</ele>
        <time>2022-06-21T11:08:49Z</time>
      </trkpt>
      <trkpt lat="43.42609" lon="2.65807">
        <ele>803.9</ele>
        <time>2022-06-21T11:08:50Z</time>
      </trkpt>
      <trkpt lat="43.42609" lon="2.65807">
        <ele>803.9</ele>
        <time>2022-06-21T11:08:51Z</time>
      </trkpt>
      <trkpt lat="43.42609" lon="2.65807">
        <ele>803.9</ele>
        <time>2022-06-21T11:08:52Z</time>
      </trkpt>
      <trkpt lat="43.42609" lon="2.65807">
        <ele>803.9</ele>
        <time>2022-06-21T11:08:53Z</time>
      </trkpt>
      <trkpt lat="43.42609" lon="2.65807">
        <ele>803.9</ele>
        <time>2022-06-21T11:08:54Z</time>
      </trkpt>
      <trkpt lat="43.42609" lon="2.65807">
        <ele>803.9</ele>
        <time>2022-06-21T11:08:55Z</time>
      </trkpt>
      <trkpt lat="43.42609" lon="2.65807">
        <ele>803.9</ele>
        <time>2022-06-21T11:08:56Z</time>
      </trkpt>
      <trkpt lat="43.42609" lon="2.65807">
        <ele>803.9</ele>
        <time>2022-06-21T11:08:57Z</time>
      </trkpt>
      <trkpt lat="43.42609" lon="2.65807">
        <ele>803.9</ele>
        <time>2022-06-21T11:08:58Z</time>
      </trkpt>
      <trkpt lat="43.42609" lon="2.65807">
        <ele>803.9</ele>
        <time>2022-06-21T11:08:59Z</time>
      </trkpt>
      <trkpt lat="43.42609" lon="2.65807">
        <ele>803.9</ele>
        <time>2022-06-21T11:09:00Z</time>
      </trkpt>
      <trkpt lat="43.42609" lon="2.65807">
        <ele>803.9</ele>
        <time>2022-06-21T11:09:01Z</time>
      </trkpt>
      <trkpt lat="43.42609" lon="2.65807">
        <ele>803.9</ele>
        <time>2022-06-21T11:09:02Z</time>
      </trkpt>
      <trkpt lat="43.42609" lon="2.65807">
        <ele>803.9</ele>
        <time>2022-06-21T11:09:03Z</time>
      </trkpt>
      <trkpt lat="43.42609" lon="2.65807">
        <ele>803.9</ele>
        <time>2022-06-21T11:09:04Z</time>
      </trkpt>
      <trkpt lat="43.42609" lon="2.65807">
        <ele>803.9</ele>
        <time>2022-06-21T11:09:05Z</time>
      </trkpt>
      <trkpt lat="43.42609" lon="2.65807">
        <ele>803.9</ele>
        <time>2022-06-21T11:09:06Z</time>
      </trkpt>
      <trkpt lat="43.42609" lon="2.65807">
        <ele>803.9</ele>
        <time>2022-06-21T11:09:07Z</time>
      </trkpt>
      <trkpt lat="43.42609" lon="2.65807">
        <ele>803.9</ele>
        <time>2022-06-21T11:09:08Z</time>
      </trkpt>
      <trkpt lat="43.42609" lon="2.65807">
        <ele>803.9</ele>
        <time>2022-06-21T11:09:09Z</time>
      </trkpt>
      <trkpt lat="43.42609" lon="2.65807">
        <ele>803.9</ele>
        <time>2022-06-21T11:09:10Z</time>
      </trkpt>
      <trkpt lat="43.42609" lon="2.65807">
        <ele>803.9</ele>
        <time>2022-06-21T11:09:11Z</time>
      </trkpt>
      <trkpt lat="43.42609" lon="2.65807">
        <ele>803.9</ele>
        <time>2022-06-21T11:09:12Z</time>
      </trkpt>
      <trkpt lat="43.42609" lon="2.65807">
        <ele>803.9</ele>
        <time>2022-06-21T11:09:13Z</time>
      </trkpt>
      <trkpt lat="43.42609" lon="2.65807">
        <ele>803.9</ele>
        <time>2022-06-21T11:09:14Z</time>
      </trkpt>
      <trkpt lat="43.42609" lon="2.65807">
        <ele>803.9</ele>
        <time>2022-06-21T11:09:15Z</time>
      </trkpt>
      <trkpt lat="43.42609" lon="2.65807">
        <ele>803.9</ele>
        <time>2022-06-21T11:09:16Z</time>
      </trkpt>
      <trkpt lat="43.42609" lon="2.65807">
        <ele>803.9</ele>
        <time>2022-06-21T11:09:17Z</time>
      </trkpt>
      <trkpt lat="43.42609" lon="2.65807">
        <ele>803.9</ele>
        <time>2022-06-21T11:09:18Z</time>
      </trkpt>
      <trkpt lat="43.42609" lon="2.65807">
        <ele>803.9</ele>
        <time>2022-06-21T11:09:19Z</time>
      </trkpt>
      <trkpt lat="43.42609" lon="2.65807">
        <ele>803.9</ele>
        <time>2022-06-21T11:09:20Z</time>
      </trkpt>
      <trkpt lat="43.42609" lon="2.65807">
        <ele>803.9</ele>
        <time>2022-06-21T11:09:21Z</time>
      </trkpt>
      <trkpt lat="43.42609" lon="2.65807">
        <ele>803.9</ele>
        <time>2022-06-21T11:09:22Z</time>
      </trkpt>
      <trkpt lat="43.42609" lon="2.65807">
        <ele>803.9</ele>
        <time>2022-06-21T11:09:23Z</time>
      </trkpt>
      <trkpt lat="43.42609" lon="2.65807">
        <ele>803.9</ele>
        <time>2022-06-21T11:09:24Z</time>
      </trkpt>
      <trkpt lat="43.42609" lon="2.65807">
        <ele>803.9</ele>
        <time>2022-06-21T11:09:25Z</time>
      </trkpt>
      <trkpt lat="43.42609" lon="2.65807">
        <ele>803.9</ele>
        <time>2022-06-21T11:09:26Z</time>
      </trkpt>
      <trkpt lat="43.42609" lon="2.65807">
        <ele>803.9</ele>
        <time>2022-06-21T11:09:27Z</time>
      </trkpt>
      <trkpt lat="43.42609" lon="2.65807">
        <ele>803.9</ele>
        <time>2022-06-21T11:09:28Z</time>
      </trkpt>
      <trkpt lat="43.42609" lon="2.65807">
        <ele>803.9</ele>
        <time>2022-06-21T11:09:29Z</time>
      </trkpt>
      <trkpt lat="43.42609" lon="2.65807">
        <ele>803.9</ele>
        <time>2022-06-21T11:09:30Z</time>
      </trkpt>
      <trkpt lat="43.42609" lon="2.65807">
        <ele>803.9</ele>
        <time>2022-06-21T11:09:31Z</time>
      </trkpt>
      <trkpt lat="43.42609" lon="2.65807">
        <ele>803.9</ele>
        <time>2022-06-21T11:09:32Z</time>
      </trkpt>
      <trkpt lat="43.42609" lon="2.65807">
        <ele>803.9</ele>
        <time>2022-06-21T11:09:33Z</time>
      </trkpt>
      <trkpt lat="43.42609" lon="2.65807">
        <ele>803.9</ele>
        <time>2022-06-21T11:09:34Z</time>
      </trkpt>
      <trkpt lat="43.42609" lon="2.65807">
        <ele>803.9</ele>
        <time>2022-06-21T11:09:35Z</time>
      </trkpt>
      <trkpt lat="43.42609" lon="2.65807">
        <ele>803.9</ele>
        <time>2022-06-21T11:09:36Z</time>
      </trkpt>
      <trkpt lat="43.42609" lon="2.65807">
        <ele>803.9</ele>
        <time>2022-06-21T11:09:37Z</time>
      </trkpt>
      <trkpt lat="43.42609" lon="2.65807">
        <ele>803.9</ele>
        <time>2022-06-21T11:09:38Z</time>
      </trkpt>
      <trkpt lat="43.42609" lon="2.65807">
        <ele>803.9</ele>
        <time>2022-06-21T11:09:39Z</time>
      </trkpt>
      <trkpt lat="43.42609" lon="2.65807">
        <ele>803.9</ele>
        <time>2022-06-21T11:09:40Z</time>
      </trkpt>
      <trkpt lat="43.42609" lon="2.65807">
        <ele>803.9</ele>
        <time>2022-06-21T11:09:41Z</time>
      </trkpt>
      <trkpt lat="43.42609" lon="2.65807">
        <ele>803.9</ele>
        <time>2022-06-21T11:09:42Z</time>
      </trkpt>
      <trkpt lat="43.42609" lon="2.65807">
        <ele>803.9</ele>
        <time>2022-06-21T11:09:43Z</time>
      </trkpt>
      <trkpt lat="43.42609" lon="2.65807">
        <ele>803.9</ele>
        <time>2022-06-21T11:09:44Z</time>
      </trkpt>
      <trkpt lat="43.42609" lon="2.65807">
        <ele>803.9</ele>
        <time>2022-06-21T11:09:45Z</time>
      </trkpt>
      <trkpt lat="43.42609" lon="2.65807">
        <ele>803.9</ele>
        <time>2022-06-21T11:09:46Z</time>
      </trkpt>
      <trkpt lat="43.42609" lon="2.65807">
        <ele>803.9</ele>
        <time>2022-06-21T11:09:47Z</time>
      </trkpt>
      <trkpt lat="43.42609" lon="2.65807">
        <ele>803.9</ele>
        <time>2022-06-21T11:09:48Z</time>
      </trkpt>
      <trkpt lat="43.42609" lon="2.65807">
        <ele>803.9</ele>
        <time>2022-06-21T11:09:49Z</time>
      </trkpt>
      <trkpt lat="43.42609" lon="2.65807">
        <ele>803.9</ele>
        <time>2022-06-21T11:09:50Z</time>
      </trkpt>
      <trkpt lat="43.42609" lon="2.65807">
        <ele>803.9</ele>
        <time>2022-06-21T11:09:51Z</time>
      </trkpt>
      <trkpt lat="43.42609" lon="2.65807">
        <ele>803.9</ele>
        <time>2022-06-21T11:09:52Z</time>
      </trkpt>
      <trkpt lat="43.42609" lon="2.65807">
        <ele>803.9</ele>
        <time>2022-06-21T11:09:53Z</time>
      </trkpt>
      <trkpt lat="43.42609" lon="2.65807">
        <ele>803.9</ele>
        <time>2022-06-21T11:09:54Z</time>
      </trkpt>
      <trkpt lat="43.42609" lon="2.65807">
        <ele>803.9</ele>
        <time>2022-06-21T11:09:55Z</time>
      </trkpt>
      <trkpt lat="43.42609" lon="2.65807">
        <ele>803.9</ele>
        <time>2022-06-21T11:09:56Z</time>
      </trkpt>
      <trkpt lat="43.42609" lon="2.65807">
        <ele>803.9</ele>
        <time>2022-06-21T11:09:57Z</time>
      </trkpt>
      <trkpt lat="43.42609" lon="2.65807">
        <ele>803.9</ele>
        <time>2022-06-21T11:09:58Z</time>
      </trkpt>
      <trkpt lat="43.42609" lon="2.65807">
        <ele>803.9</ele>
        <time>2022-06-21T11:09:59Z</time>
      </trkpt>
      <trkpt lat="43.42609" lon="2.65807">
        <ele>803.9</ele>
        <time>2022-06-21T11:10:00Z</time>
      </trkpt>
      <trkpt lat="43.42609" lon="2.65807">
        <ele>803.9</ele>
        <time>2022-06-21T11:10:01Z</time>
      </trkpt>
      <trkpt lat="43.42609" lon="2.65807">
        <ele>803.9</ele>
        <time>2022-06-21T11:10:02Z</time>
      </trkpt>
      <trkpt lat="43.42609" lon="2.65807">
        <ele>803.9</ele>
        <time>2022-06-21T11:10:03Z</time>
      </trkpt>
      <trkpt lat="43.42609" lon="2.65807">
        <ele>803.9</ele>
        <time>2022-06-21T11:10:04Z</time>
      </trkpt>
      <trkpt lat="43.42609" lon="2.65807">
        <ele>803.9</ele>
        <time>2022-06-21T11:10:05Z</time>
      </trkpt>
      <trkpt lat="43.42609" lon="2.65807">
        <ele>803.9</ele>
        <time>2022-06-21T11:10:06Z</time>
      </trkpt>
      <trkpt lat="43.42609" lon="2.65807">
        <ele>803.9</ele>
        <time>2022-06-21T11:10:07Z</time>
      </trkpt>
      <trkpt lat="43.42609" lon="2.65807">
        <ele>803.9</ele>
        <time>2022-06-21T11:10:08Z</time>
      </trkpt>
      <trkpt lat="43.42609" lon="2.65807">
        <ele>803.9</ele>
        <time>2022-06-21T11:10:09Z</time>
      </trkpt>
      <trkpt lat="43.42609" lon="2.65807">
        <ele>803.9</ele>
        <time>2022-06-21T11:10:10Z</time>
      </trkpt>
      <trkpt lat="43.42609" lon="2.65807">
        <ele>803.9</ele>
        <time>2022-06-21T11:10:11Z</time>
      </trkpt>
      <trkpt lat="43.42609" lon="2.65807">
        <ele>803.9</ele>
        <time>2022-06-21T11:10:12Z</time>
      </trkpt>
      <trkpt lat="43.42609" lon="2.65807">
        <ele>803.9</ele>
        <time>2022-06-21T11:10:13Z</time>
      </trkpt>
      <trkpt lat="43.42609" lon="2.65807">
        <ele>803.9</ele>
        <time>2022-06-21T11:10:14Z</time>
      </trkpt>
      <trkpt lat="43.42609" lon="2.65807">
        <ele>803.9</ele>
        <time>2022-06-21T11:10:15Z</time>
      </trkpt>
      <trkpt lat="43.42609" lon="2.65807">
        <ele>803.9</ele>
        <time>2022-06-21T11:10:16Z</time>
      </trkpt>
      <trkpt lat="43.42609" lon="2.65807">
        <ele>803.9</ele>
        <time>2022-06-21T11:10:17Z</time>
      </trkpt>
      <trkpt lat="43.42609" lon="2.65807">
        <ele>803.9</ele>
        <time>2022-06-21T11:10:18Z</time>
      </trkpt>
      <trkpt lat="43.42609" lon="2.65807">
        <ele>803.9</ele>
        <time>2022-06-21T11:10:19Z</time>
      </trkpt>
      <trkpt lat="43.42609" lon="2.65807">
        <ele>803.9</ele>
        <time>2022-06-21T11:10:20Z</time>
      </trkpt>
      <trkpt lat="43.42609" lon="2.65807">
        <ele>803.9</ele>
        <time>2022-06-21T11:10:21Z</time>
      </trkpt>
      <trkpt lat="43.42609" lon="2.65807">
        <ele>803.9</ele>
        <time>2022-06-21T11:10:22Z</time>
      </trkpt>
      <trkpt lat="43.42609" lon="2.65807">
        <ele>803.9</ele>
        <time>2022-06-21T11:10:23Z</time>
      </trkpt>
      <trkpt lat="43.42609" lon="2.65807">
        <ele>803.9</ele>
        <time>2022-06-21T11:10:24Z</time>
      </trkpt>
      <trkpt lat="43.42609" lon="2.65807">
        <ele>803.9</ele>
        <time>2022-06-21T11:10:25Z</time>
      </trkpt>
      <trkpt lat="43.42609" lon="2.65807">
        <ele>803.9</ele>
        <time>2022-06-21T11:10:26Z</time>
      </trkpt>
      <trkpt lat="43.42609" lon="2.65807">
        <ele>803.9</ele>
        <time>2022-06-21T11:10:27Z</time>
      </trkpt>
      <trkpt lat="43.42609" lon="2.65807">
        <ele>803.9</ele>
        <time>2022-06-21T11:10:28Z</time>
      </trkpt>
      <trkpt lat="43.42609" lon="2.65807">
        <ele>803.9</ele>
        <time>2022-06-21T11:10:29Z</time>
      </trkpt>
      <trkpt lat="43.42609" lon="2.65807">
        <ele>803.9</ele>
        <time>2022-06-21T11:10:30Z</time>
      </trkpt>
      <trkpt lat="43.42609" lon="2.65807">
        <ele>803.9</ele>
        <time>2022-06-21T11:10:31Z</time>
      </trkpt>
      <trkpt lat="43.42609" lon="2.65807">
        <ele>803.9</ele>
        <time>2022-06-21T11:10:32Z</time>
      </trkpt>
      <trkpt lat="43.42609" lon="2.65807">
        <ele>803.9</ele>
        <time>2022-06-21T11:10:33Z</time>
      </trkpt>
      <trkpt lat="43.42609" lon="2.65807">
        <ele>803.9</ele>
        <time>2022-06-21T11:10:34Z</time>
      </trkpt>
      <trkpt lat="43.42609" lon="2.65807">
        <ele>803.9</ele>
        <time>2022-06-21T11:10:35Z</time>
      </trkpt>
      <trkpt lat="43.42609" lon="2.65807">
        <ele>803.9</ele>
        <time>2022-06-21T11:10:36Z</time>
      </trkpt>
      <trkpt lat="43.42609" lon="2.65807">
        <ele>803.9</ele>
        <time>2022-06-21T11:10:37Z</time>
      </trkpt>
      <trkpt lat="43.42608" lon="2.65807">
        <ele>803.9</ele>
        <time>2022-06-21T11:10:38Z</time>
      </trkpt>
      <trkpt lat="43.42608" lon="2.65807">
        <ele>803.9</ele>
        <time>2022-06-21T11:10:39Z</time>
      </trkpt>
      <trkpt lat="43.42608" lon="2.65807">
        <ele>803.9</ele>
        <time>2022-06-21T11:10:40Z</time>
      </trkpt>
      <trkpt lat="43.42608" lon="2.65808">
        <ele>803.9</ele>
        <time>2022-06-21T11:10:41Z</time>
      </trkpt>
      <trkpt lat="43.42609" lon="2.65808">
        <ele>803.8</ele>
        <time>2022-06-21T11:10:42Z</time>
      </trkpt>
      <trkpt lat="43.4261" lon="2.6581">
        <ele>803.8</ele>
        <time>2022-06-21T11:10:43Z</time>
      </trkpt>
      <trkpt lat="43.42611" lon="2.65811">
        <ele>803.8</ele>
        <time>2022-06-21T11:10:44Z</time>
      </trkpt>
      <trkpt lat="43.42611" lon="2.65811">
        <ele>803.8</ele>
        <time>2022-06-21T11:10:45Z</time>
      </trkpt>
      <trkpt lat="43.42611" lon="2.65811">
        <ele>803.8</ele>
        <time>2022-06-21T11:10:46Z</time>
      </trkpt>
      <trkpt lat="43.42611" lon="2.65812">
        <ele>803.8</ele>
        <time>2022-06-21T11:10:47Z</time>
      </trkpt>
      <trkpt lat="43.4261" lon="2.65813">
        <ele>803.8</ele>
        <time>2022-06-21T11:10:48Z</time>
      </trkpt>
      <trkpt lat="43.4261" lon="2.65814">
        <ele>803.8</ele>
        <time>2022-06-21T11:10:49Z</time>
      </trkpt>
      <trkpt lat="43.42609" lon="2.65815">
        <ele>803.8</ele>
        <time>2022-06-21T11:10:50Z</time>
      </trkpt>
      <trkpt lat="43.42609" lon="2.65815">
        <ele>803.8</ele>
        <time>2022-06-21T11:10:51Z</time>
      </trkpt>
      <trkpt lat="43.42609" lon="2.65816">
        <ele>803.8</ele>
        <time>2022-06-21T11:10:52Z</time>
      </trkpt>
      <trkpt lat="43.42609" lon="2.65816">
        <ele>803.7</ele>
        <time>2022-06-21T11:10:53Z</time>
      </trkpt>
      <trkpt lat="43.42608" lon="2.65817">
        <ele>803.7</ele>
        <time>2022-06-21T11:10:54Z</time>
      </trkpt>
      <trkpt lat="43.42608" lon="2.65818">
        <ele>803.7</ele>
        <time>2022-06-21T11:10:55Z</time>
      </trkpt>
      <trkpt lat="43.42608" lon="2.65818">
        <ele>803.7</ele>
        <time>2022-06-21T11:10:56Z</time>
      </trkpt>
      <trkpt lat="43.42608" lon="2.65819">
        <ele>803.7</ele>
        <time>2022-06-21T11:10:57Z</time>
      </trkpt>
      <trkpt lat="43.42607" lon="2.6582">
        <ele>803.7</ele>
        <time>2022-06-21T11:10:58Z</time>
      </trkpt>
      <trkpt lat="43.42607" lon="2.65821">
        <ele>803.7</ele>
        <time>2022-06-21T11:10:59Z</time>
      </trkpt>
      <trkpt lat="43.42607" lon="2.65821">
        <ele>803.7</ele>
        <time>2022-06-21T11:11:00Z</time>
      </trkpt>
      <trkpt lat="43.42606" lon="2.65821">
        <ele>803.7</ele>
        <time>2022-06-21T11:11:01Z</time>
      </trkpt>
      <trkpt lat="43.42606" lon="2.65821">
        <ele>803.7</ele>
        <time>2022-06-21T11:11:02Z</time>
      </trkpt>
      <trkpt lat="43.42605" lon="2.65821">
        <ele>803.7</ele>
        <time>2022-06-21T11:11:03Z</time>
      </trkpt>
      <trkpt lat="43.42605" lon="2.6582">
        <ele>803.7</ele>
        <time>2022-06-21T11:11:04Z</time>
      </trkpt>
      <trkpt lat="43.42605" lon="2.6582">
        <ele>803.7</ele>
        <time>2022-06-21T11:11:05Z</time>
      </trkpt>
      <trkpt lat="43.42605" lon="2.6582">
        <ele>803.7</ele>
        <time>2022-06-21T11:11:06Z</time>
      </trkpt>
      <trkpt lat="43.42605" lon="2.6582">
        <ele>803.7</ele>
        <time>2022-06-21T11:11:07Z</time>
      </trkpt>
      <trkpt lat="43.42605" lon="2.6582">
        <ele>803.7</ele>
        <time>2022-06-21T11:11:08Z</time>
      </trkpt>
      <trkpt lat="43.42605" lon="2.6582">
        <ele>803.7</ele>
        <time>2022-06-21T11:11:09Z</time>
      </trkpt>
      <trkpt lat="43.42605" lon="2.6582">
        <ele>803.7</ele>
        <time>2022-06-21T11:11:10Z</time>
      </trkpt>
      <trkpt lat="43.42605" lon="2.6582">
        <ele>803.7</ele>
        <time>2022-06-21T11:11:11Z</time>
      </trkpt>
      <trkpt lat="43.42605" lon="2.6582">
        <ele>803.7</ele>
        <time>2022-06-21T11:11:12Z</time>
      </trkpt>
      <trkpt lat="43.42605" lon="2.6582">
        <ele>803.7</ele>
        <time>2022-06-21T11:11:13Z</time>
      </trkpt>
      <trkpt lat="43.42605" lon="2.6582">
        <ele>803.7</ele>
        <time>2022-06-21T11:11:14Z</time>
      </trkpt>
      <trkpt lat="43.42605" lon="2.6582">
        <ele>803.7</ele>
        <time>2022-06-21T11:11:15Z</time>
      </trkpt>
      <trkpt lat="43.42605" lon="2.6582">
        <ele>803.7</ele>
        <time>2022-06-21T11:11:16Z</time>
      </trkpt>
      <trkpt lat="43.42605" lon="2.6582">
        <ele>803.7</ele>
        <time>2022-06-21T11:11:17Z</time>
      </trkpt>
      <trkpt lat="43.42605" lon="2.6582">
        <ele>803.7</ele>
        <time>2022-06-21T11:11:18Z</time>
      </trkpt>
      <trkpt lat="43.42605" lon="2.6582">
        <ele>803.7</ele>
        <time>2022-06-21T11:11:19Z</time>
      </trkpt>
      <trkpt lat="43.42605" lon="2.6582">
        <ele>803.7</ele>
        <time>2022-06-21T11:11:20Z</time>
      </trkpt>
      <trkpt lat="43.42605" lon="2.6582">
        <ele>803.7</ele>
        <time>2022-06-21T11:11:21Z</time>
      </trkpt>
      <trkpt lat="43.42604" lon="2.65819">
        <ele>803.6</ele>
        <time>2022-06-21T11:11:22Z</time>
      </trkpt>
      <trkpt lat="43.42603" lon="2.65818">
        <ele>803.6</ele>
        <time>2022-06-21T11:11:23Z</time>
      </trkpt>
      <trkpt lat="43.42603" lon="2.65817">
        <ele>803.6</ele>
        <time>2022-06-21T11:11:24Z</time>
      </trkpt>
      <trkpt lat="43.42603" lon="2.65816">
        <ele>803.6</ele>
        <time>2022-06-21T11:11:25Z</time>
      </trkpt>
      <trkpt lat="43.42602" lon="2.65815">
        <ele>803.6</ele>
        <time>2022-06-21T11:11:26Z</time>
      </trkpt>
      <trkpt lat="43.42602" lon="2.65815">
        <ele>803.6</ele>
        <time>2022-06-21T11:11:27Z</time>
      </trkpt>
      <trkpt lat="43.42602" lon="2.65814">
        <ele>803.6</ele>
        <time>2022-06-21T11:11:28Z</time>
      </trkpt>
      <trkpt lat="43.42601" lon="2.65814">
        <ele>803.5</ele>
        <time>2022-06-21T11:11:29Z</time>
      </trkpt>
      <trkpt lat="43.426" lon="2.65813">
        <ele>803.5</ele>
        <time>2022-06-21T11:11:30Z</time>
      </trkpt>
      <trkpt lat="43.426" lon="2.65812">
        <ele>803.5</ele>
        <time>2022-06-21T11:11:31Z</time>
      </trkpt>
      <trkpt lat="43.426" lon="2.65811">
        <ele>803.5</ele>
        <time>2022-06-21T11:11:32Z</time>
      </trkpt>
      <trkpt lat="43.426" lon="2.6581">
        <ele>803.5</ele>
        <time>2022-06-21T11:11:33Z</time>
      </trkpt>
      <trkpt lat="43.426" lon="2.65809">
        <ele>803.5</ele>
        <time>2022-06-21T11:11:34Z</time>
      </trkpt>
      <trkpt lat="43.42599" lon="2.65808">
        <ele>803.5</ele>
        <time>2022-06-21T11:11:35Z</time>
      </trkpt>
      <trkpt lat="43.42599" lon="2.65807">
        <ele>803.5</ele>
        <time>2022-06-21T11:11:36Z</time>
      </trkpt>
      <trkpt lat="43.42598" lon="2.65806">
        <ele>803.5</ele>
        <time>2022-06-21T11:11:37Z</time>
      </trkpt>
      <trkpt lat="43.42597" lon="2.65805">
        <ele>803.4</ele>
        <time>2022-06-21T11:11:38Z</time>
      </trkpt>
      <trkpt lat="43.42597" lon="2.65804">
        <ele>803.4</ele>
        <time>2022-06-21T11:11:39Z</time>
      </trkpt>
      <trkpt lat="43.42596" lon="2.65804">
        <ele>803.4</ele>
        <time>2022-06-21T11:11:40Z</time>
      </trkpt>
      <trkpt lat="43.42595" lon="2.65803">
        <ele>803.4</ele>
        <time>2022-06-21T11:11:41Z</time>
      </trkpt>
      <trkpt lat="43.42595" lon="2.65802">
        <ele>803.4</ele>
        <time>2022-06-21T11:11:42Z</time>
      </trkpt>
      <trkpt lat="43.42594" lon="2.65801">
        <ele>803.4</ele>
        <time>2022-06-21T11:11:43Z</time>
      </trkpt>
      <trkpt lat="43.42594" lon="2.658">
        <ele>803.4</ele>
        <time>2022-06-21T11:11:44Z</time>
      </trkpt>
      <trkpt lat="43.42594" lon="2.65799">
        <ele>803.4</ele>
        <time>2022-06-21T11:11:45Z</time>
      </trkpt>
      <trkpt lat="43.42593" lon="2.65798">
        <ele>803.4</ele>
        <time>2022-06-21T11:11:46Z</time>
      </trkpt>
      <trkpt lat="43.42593" lon="2.65797">
        <ele>803.4</ele>
        <time>2022-06-21T11:11:47Z</time>
      </trkpt>
      <trkpt lat="43.42592" lon="2.65796">
        <ele>803.4</ele>
        <time>2022-06-21T11:11:48Z</time>
      </trkpt>
      <trkpt lat="43.42592" lon="2.65795">
        <ele>803.4</ele>
        <time>2022-06-21T11:11:49Z</time>
      </trkpt>
      <trkpt lat="43.42592" lon="2.65794">
        <ele>803.4</ele>
        <time>2022-06-21T11:11:50Z</time>
      </trkpt>
      <trkpt lat="43.42592" lon="2.65793">
        <ele>803.4</ele>
        <time>2022-06-21T11:11:51Z</time>
      </trkpt>
      <trkpt lat="43.42591" lon="2.65792">
        <ele>803.3</ele>
        <time>2022-06-21T11:11:52Z</time>
      </trkpt>
      <trkpt lat="43.42591" lon="2.65791">
        <ele>803.3</ele>
        <time>2022-06-21T11:11:53Z</time>
      </trkpt>
      <trkpt lat="43.4259" lon="2.6579">
        <ele>803.3</ele>
        <time>2022-06-21T11:11:54Z</time>
      </trkpt>
      <trkpt lat="43.4259" lon="2.65789">
        <ele>803.3</ele>
        <time>2022-06-21T11:11:55Z</time>
      </trkpt>
      <trkpt lat="43.42589" lon="2.65789">
        <ele>803.3</ele>
        <time>2022-06-21T11:11:56Z</time>
      </trkpt>
      <trkpt lat="43.42588" lon="2.65788">
        <ele>803.3</ele>
        <time>2022-06-21T11:11:57Z</time>
      </trkpt>
      <trkpt lat="43.42588" lon="2.65787">
        <ele>803.2</ele>
        <time>2022-06-21T11:11:58Z</time>
      </trkpt>
      <trkpt lat="43.42587" lon="2.65786">
        <ele>803.2</ele>
        <time>2022-06-21T11:11:59Z</time>
      </trkpt>
      <trkpt lat="43.42586" lon="2.65785">
        <ele>803.2</ele>
        <time>2022-06-21T11:12:00Z</time>
      </trkpt>
      <trkpt lat="43.42586" lon="2.65784">
        <ele>803.2</ele>
        <time>2022-06-21T11:12:01Z</time>
      </trkpt>
      <trkpt lat="43.42586" lon="2.65783">
        <ele>803.1</ele>
        <time>2022-06-21T11:12:02Z</time>
      </trkpt>
      <trkpt lat="43.42586" lon="2.65783">
        <ele>803.1</ele>
        <time>2022-06-21T11:12:03Z</time>
      </trkpt>
      <trkpt lat="43.42586" lon="2.65783">
        <ele>803.1</ele>
        <time>2022-06-21T11:12:04Z</time>
      </trkpt>
      <trkpt lat="43.42586" lon="2.65783">
        <ele>803.1</ele>
        <time>2022-06-21T11:12:05Z</time>
      </trkpt>
      <trkpt lat="43.42586" lon="2.65783">
        <ele>803.1</ele>
        <time>2022-06-21T11:12:06Z</time>
      </trkpt>
      <trkpt lat="43.42585" lon="2.65783">
        <ele>803.1</ele>
        <time>2022-06-21T11:12:07Z</time>
      </trkpt>
      <trkpt lat="43.42585" lon="2.65782">
        <ele>803.1</ele>
        <time>2022-06-21T11:12:08Z</time>
      </trkpt>
      <trkpt lat="43.42584" lon="2.6578">
        <ele>803</ele>
        <time>2022-06-21T11:12:09Z</time>
      </trkpt>
      <trkpt lat="43.42583" lon="2.65779">
        <ele>803</ele>
        <time>2022-06-21T11:12:10Z</time>
      </trkpt>
      <trkpt lat="43.42583" lon="2.65777">
        <ele>803</ele>
        <time>2022-06-21T11:12:11Z</time>
      </trkpt>
      <trkpt lat="43.42582" lon="2.65776">
        <ele>802.9</ele>
        <time>2022-06-21T11:12:12Z</time>
      </trkpt>
      <trkpt lat="43.42582" lon="2.65775">
        <ele>802.9</ele>
        <time>2022-06-21T11:12:13Z</time>
      </trkpt>
      <trkpt lat="43.42581" lon="2.65774">
        <ele>802.9</ele>
        <time>2022-06-21T11:12:14Z</time>
      </trkpt>
      <trkpt lat="43.42581" lon="2.65773">
        <ele>802.9</ele>
        <time>2022-06-21T11:12:15Z</time>
      </trkpt>
      <trkpt lat="43.42581" lon="2.65772">
        <ele>802.8</ele>
        <time>2022-06-21T11:12:16Z</time>
      </trkpt>
      <trkpt lat="43.42581" lon="2.65772">
        <ele>802.8</ele>
        <time>2022-06-21T11:12:17Z</time>
      </trkpt>
      <trkpt lat="43.4258" lon="2.6577">
        <ele>802.8</ele>
        <time>2022-06-21T11:12:18Z</time>
      </trkpt>
      <trkpt lat="43.4258" lon="2.6577">
        <ele>802.8</ele>
        <time>2022-06-21T11:12:19Z</time>
      </trkpt>
      <trkpt lat="43.42579" lon="2.65769">
        <ele>802.8</ele>
        <time>2022-06-21T11:12:20Z</time>
      </trkpt>
      <trkpt lat="43.42579" lon="2.65768">
        <ele>802.7</ele>
        <time>2022-06-21T11:12:21Z</time>
      </trkpt>
      <trkpt lat="43.42579" lon="2.65767">
        <ele>802.7</ele>
        <time>2022-06-21T11:12:22Z</time>
      </trkpt>
      <trkpt lat="43.42578" lon="2.65766">
        <ele>802.7</ele>
        <time>2022-06-21T11:12:23Z</time>
      </trkpt>
      <trkpt lat="43.42578" lon="2.65765">
        <ele>802.7</ele>
        <time>2022-06-21T11:12:24Z</time>
      </trkpt>
      <trkpt lat="43.42578" lon="2.65764">
        <ele>802.7</ele>
        <time>2022-06-21T11:12:25Z</time>
      </trkpt>
      <trkpt lat="43.42577" lon="2.65763">
        <ele>802.6</ele>
        <time>2022-06-21T11:12:26Z</time>
      </trkpt>
      <trkpt lat="43.42577" lon="2.65762">
        <ele>802.6</ele>
        <time>2022-06-21T11:12:27Z</time>
      </trkpt>
      <trkpt lat="43.42577" lon="2.65762">
        <ele>802.6</ele>
        <time>2022-06-21T11:12:28Z</time>
      </trkpt>
      <trkpt lat="43.42576" lon="2.65761">
        <ele>802.6</ele>
        <time>2022-06-21T11:12:29Z</time>
      </trkpt>
      <trkpt lat="43.42576" lon="2.6576">
        <ele>802.6</ele>
        <time>2022-06-21T11:12:30Z</time>
      </trkpt>
      <trkpt lat="43.42576" lon="2.65759">
        <ele>802.6</ele>
        <time>2022-06-21T11:12:31Z</time>
      </trkpt>
      <trkpt lat="43.42576" lon="2.65758">
        <ele>802.5</ele>
        <time>2022-06-21T11:12:32Z</time>
      </trkpt>
      <trkpt lat="43.42575" lon="2.65757">
        <ele>802.5</ele>
        <time>2022-06-21T11:12:33Z</time>
      </trkpt>
      <trkpt lat="43.42575" lon="2.65757">
        <ele>802.5</ele>
        <time>2022-06-21T11:12:34Z</time>
      </trkpt>
      <trkpt lat="43.42575" lon="2.65756">
        <ele>802.5</ele>
        <time>2022-06-21T11:12:35Z</time>
      </trkpt>
      <trkpt lat="43.42575" lon="2.65754">
        <ele>802.5</ele>
        <time>2022-06-21T11:12:36Z</time>
      </trkpt>
      <trkpt lat="43.42574" lon="2.65753">
        <ele>802.5</ele>
        <time>2022-06-21T11:12:37Z</time>
      </trkpt>
      <trkpt lat="43.42574" lon="2.65752">
        <ele>802.4</ele>
        <time>2022-06-21T11:12:38Z</time>
      </trkpt>
      <trkpt lat="43.42574" lon="2.65752">
        <ele>802.4</ele>
        <time>2022-06-21T11:12:39Z</time>
      </trkpt>
      <trkpt lat="43.42574" lon="2.65752">
        <ele>802.4</ele>
        <time>2022-06-21T11:12:40Z</time>
      </trkpt>
      <trkpt lat="43.42574" lon="2.65752">
        <ele>802.4</ele>
        <time>2022-06-21T11:12:41Z</time>
      </trkpt>
      <trkpt lat="43.42574" lon="2.65752">
        <ele>802.4</ele>
        <time>2022-06-21T11:12:42Z</time>
      </trkpt>
      <trkpt lat="43.42574" lon="2.65752">
        <ele>802.4</ele>
        <time>2022-06-21T11:12:43Z</time>
      </trkpt>
      <trkpt lat="43.42574" lon="2.65751">
        <ele>802.4</ele>
        <time>2022-06-21T11:12:44Z</time>
      </trkpt>
      <trkpt lat="43.42573" lon="2.6575">
        <ele>802.4</ele>
        <time>2022-06-21T11:12:45Z</time>
      </trkpt>
      <trkpt lat="43.42573" lon="2.65749">
        <ele>802.4</ele>
        <time>2022-06-21T11:12:46Z</time>
      </trkpt>
      <trkpt lat="43.42572" lon="2.65748">
        <ele>802.3</ele>
        <time>2022-06-21T11:12:47Z</time>
      </trkpt>
      <trkpt lat="43.42572" lon="2.65748">
        <ele>802.3</ele>
        <time>2022-06-21T11:12:48Z</time>
      </trkpt>
      <trkpt lat="43.42572" lon="2.65748">
        <ele>802.3</ele>
        <time>2022-06-21T11:12:49Z</time>
      </trkpt>
      <trkpt lat="43.42572" lon="2.65748">
        <ele>802.3</ele>
        <time>2022-06-21T11:12:50Z</time>
      </trkpt>
      <trkpt lat="43.42572" lon="2.65747">
        <ele>802.3</ele>
        <time>2022-06-21T11:12:51Z</time>
      </trkpt>
      <trkpt lat="43.42571" lon="2.65746">
        <ele>802.3</ele>
        <time>2022-06-21T11:12:52Z</time>
      </trkpt>
      <trkpt lat="43.42571" lon="2.65745">
        <ele>802.2</ele>
        <time>2022-06-21T11:12:53Z</time>
      </trkpt>
      <trkpt lat="43.4257" lon="2.65744">
        <ele>802.2</ele>
        <time>2022-06-21T11:12:54Z</time>
      </trkpt>
      <trkpt lat="43.4257" lon="2.65743">
        <ele>802.2</ele>
        <time>2022-06-21T11:12:55Z</time>
      </trkpt>
      <trkpt lat="43.4257" lon="2.65741">
        <ele>802.1</ele>
        <time>2022-06-21T11:12:56Z</time>
      </trkpt>
      <trkpt lat="43.4257" lon="2.65741">
        <ele>802.1</ele>
        <time>2022-06-21T11:12:57Z</time>
      </trkpt>
      <trkpt lat="43.4257" lon="2.65741">
        <ele>802.1</ele>
        <time>2022-06-21T11:12:58Z</time>
      </trkpt>
      <trkpt lat="43.4257" lon="2.65741">
        <ele>802.1</ele>
        <time>2022-06-21T11:12:59Z</time>
      </trkpt>
      <trkpt lat="43.4257" lon="2.65741">
        <ele>802.1</ele>
        <time>2022-06-21T11:13:00Z</time>
      </trkpt>
      <trkpt lat="43.4257" lon="2.6574">
        <ele>802.1</ele>
        <time>2022-06-21T11:13:01Z</time>
      </trkpt>
      <trkpt lat="43.4257" lon="2.65738">
        <ele>802.1</ele>
        <time>2022-06-21T11:13:02Z</time>
      </trkpt>
      <trkpt lat="43.4257" lon="2.65737">
        <ele>802</ele>
        <time>2022-06-21T11:13:03Z</time>
      </trkpt>
      <trkpt lat="43.4257" lon="2.65736">
        <ele>802</ele>
        <time>2022-06-21T11:13:04Z</time>
      </trkpt>
      <trkpt lat="43.4257" lon="2.65734">
        <ele>802</ele>
        <time>2022-06-21T11:13:05Z</time>
      </trkpt>
      <trkpt lat="43.4257" lon="2.65734">
        <ele>802</ele>
        <time>2022-06-21T11:13:06Z</time>
      </trkpt>
      <trkpt lat="43.4257" lon="2.65734">
        <ele>802</ele>
        <time>2022-06-21T11:13:07Z</time>
      </trkpt>
      <trkpt lat="43.4257" lon="2.65734">
        <ele>802</ele>
        <time>2022-06-21T11:13:08Z</time>
      </trkpt>
      <trkpt lat="43.4257" lon="2.65734">
        <ele>802</ele>
        <time>2022-06-21T11:13:09Z</time>
      </trkpt>
      <trkpt lat="43.4257" lon="2.65734">
        <ele>802</ele>
        <time>2022-06-21T11:13:10Z</time>
      </trkpt>
      <trkpt lat="43.4257" lon="2.65734">
        <ele>802</ele>
        <time>2022-06-21T11:13:11Z</time>
      </trkpt>
      <trkpt lat="43.4257" lon="2.65734">
        <ele>802</ele>
        <time>2022-06-21T11:13:12Z</time>
      </trkpt>
      <trkpt lat="43.4257" lon="2.65734">
        <ele>802</ele>
        <time>2022-06-21T11:13:13Z</time>
      </trkpt>
      <trkpt lat="43.4257" lon="2.65734">
        <ele>802</ele>
        <time>2022-06-21T11:13:14Z</time>
      </trkpt>
      <trkpt lat="43.4257" lon="2.65734">
        <ele>802</ele>
        <time>2022-06-21T11:13:15Z</time>
      </trkpt>
      <trkpt lat="43.4257" lon="2.65734">
        <ele>802</ele>
        <time>2022-06-21T11:13:16Z</time>
      </trkpt>
      <trkpt lat="43.4257" lon="2.65734">
        <ele>802</ele>
        <time>2022-06-21T11:13:17Z</time>
      </trkpt>
      <trkpt lat="43.4257" lon="2.65734">
        <ele>802</ele>
        <time>2022-06-21T11:13:18Z</time>
      </trkpt>
      <trkpt lat="43.4257" lon="2.65734">
        <ele>802</ele>
        <time>2022-06-21T11:13:19Z</time>
      </trkpt>
      <trkpt lat="43.4257" lon="2.65734">
        <ele>802</ele>
        <time>2022-06-21T11:13:20Z</time>
      </trkpt>
      <trkpt lat="43.4257" lon="2.65734">
        <ele>802</ele>
        <time>2022-06-21T11:13:21Z</time>
      </trkpt>
      <trkpt lat="43.4257" lon="2.65734">
        <ele>802</ele>
        <time>2022-06-21T11:13:22Z</time>
      </trkpt>
      <trkpt lat="43.4257" lon="2.65734">
        <ele>802</ele>
        <time>2022-06-21T11:13:23Z</time>
      </trkpt>
      <trkpt lat="43.4257" lon="2.65734">
        <ele>802</ele>
        <time>2022-06-21T11:13:24Z</time>
      </trkpt>
      <trkpt lat="43.4257" lon="2.65734">
        <ele>802</ele>
        <time>2022-06-21T11:13:25Z</time>
      </trkpt>
      <trkpt lat="43.4257" lon="2.65734">
        <ele>802</ele>
        <time>2022-06-21T11:13:26Z</time>
      </trkpt>
      <trkpt lat="43.4257" lon="2.65734">
        <ele>802</ele>
        <time>2022-06-21T11:13:27Z</time>
      </trkpt>
      <trkpt lat="43.4257" lon="2.65734">
        <ele>801.9</ele>
        <time>2022-06-21T11:13:28Z</time>
      </trkpt>
      <trkpt lat="43.4257" lon="2.65733">
        <ele>801.9</ele>
        <time>2022-06-21T11:13:29Z</time>
      </trkpt>
      <trkpt lat="43.4257" lon="2.65732">
        <ele>801.9</ele>
        <time>2022-06-21T11:13:30Z</time>
      </trkpt>
      <trkpt lat="43.4257" lon="2.65731">
        <ele>801.9</ele>
        <time>2022-06-21T11:13:31Z</time>
      </trkpt>
      <trkpt lat="43.4257" lon="2.65731">
        <ele>801.9</ele>
        <time>2022-06-21T11:13:32Z</time>
      </trkpt>
      <trkpt lat="43.4257" lon="2.65731">
        <ele>801.9</ele>
        <time>2022-06-21T11:13:33Z</time>
      </trkpt>
      <trkpt lat="43.4257" lon="2.65731">
        <ele>801.9</ele>
        <time>2022-06-21T11:13:34Z</time>
      </trkpt>
      <trkpt lat="43.4257" lon="2.65731">
        <ele>801.9</ele>
        <time>2022-06-21T11:13:35Z</time>
      </trkpt>
      <trkpt lat="43.4257" lon="2.65731">
        <ele>801.9</ele>
        <time>2022-06-21T11:13:36Z</time>
      </trkpt>
      <trkpt lat="43.4257" lon="2.65731">
        <ele>801.9</ele>
        <time>2022-06-21T11:13:37Z</time>
      </trkpt>
      <trkpt lat="43.4257" lon="2.65731">
        <ele>801.9</ele>
        <time>2022-06-21T11:13:38Z</time>
      </trkpt>
      <trkpt lat="43.4257" lon="2.65731">
        <ele>801.9</ele>
        <time>2022-06-21T11:13:39Z</time>
      </trkpt>
      <trkpt lat="43.4257" lon="2.65731">
        <ele>801.9</ele>
        <time>2022-06-21T11:13:40Z</time>
      </trkpt>
      <trkpt lat="43.4257" lon="2.65731">
        <ele>801.9</ele>
        <time>2022-06-21T11:13:41Z</time>
      </trkpt>
      <trkpt lat="43.4257" lon="2.65731">
        <ele>801.9</ele>
        <time>2022-06-21T11:13:42Z</time>
      </trkpt>
      <trkpt lat="43.4257" lon="2.65731">
        <ele>801.9</ele>
        <time>2022-06-21T11:13:43Z</time>
      </trkpt>
      <trkpt lat="43.4257" lon="2.65731">
        <ele>801.9</ele>
        <time>2022-06-21T11:13:44Z</time>
      </trkpt>
      <trkpt lat="43.4257" lon="2.65731">
        <ele>801.9</ele>
        <time>2022-06-21T11:13:45Z</time>
      </trkpt>
      <trkpt lat="43.4257" lon="2.65731">
        <ele>801.9</ele>
        <time>2022-06-21T11:13:46Z</time>
      </trkpt>
      <trkpt lat="43.4257" lon="2.65731">
        <ele>801.9</ele>
        <time>2022-06-21T11:13:47Z</time>
      </trkpt>
      <trkpt lat="43.4257" lon="2.65731">
        <ele>801.9</ele>
        <time>2022-06-21T11:13:48Z</time>
      </trkpt>
      <trkpt lat="43.4257" lon="2.65731">
        <ele>801.9</ele>
        <time>2022-06-21T11:13:49Z</time>
      </trkpt>
      <trkpt lat="43.4257" lon="2.6573">
        <ele>801.8</ele>
        <time>2022-06-21T11:13:50Z</time>
      </trkpt>
      <trkpt lat="43.42569" lon="2.65729">
        <ele>801.8</ele>
        <time>2022-06-21T11:13:51Z</time>
      </trkpt>
      <trkpt lat="43.42569" lon="2.65729">
        <ele>801.8</ele>
        <time>2022-06-21T11:13:52Z</time>
      </trkpt>
      <trkpt lat="43.42569" lon="2.65729">
        <ele>801.8</ele>
        <time>2022-06-21T11:13:53Z</time>
      </trkpt>
      <trkpt lat="43.42569" lon="2.65729">
        <ele>801.8</ele>
        <time>2022-06-21T11:13:54Z</time>
      </trkpt>
      <trkpt lat="43.42569" lon="2.65729">
        <ele>801.8</ele>
        <time>2022-06-21T11:13:55Z</time>
      </trkpt>
      <trkpt lat="43.42569" lon="2.65729">
        <ele>801.8</ele>
        <time>2022-06-21T11:13:56Z</time>
      </trkpt>
      <trkpt lat="43.42569" lon="2.65729">
        <ele>801.8</ele>
        <time>2022-06-21T11:13:57Z</time>
      </trkpt>
      <trkpt lat="43.42569" lon="2.65729">
        <ele>801.8</ele>
        <time>2022-06-21T11:13:58Z</time>
      </trkpt>
      <trkpt lat="43.42569" lon="2.65729">
        <ele>801.8</ele>
        <time>2022-06-21T11:13:59Z</time>
      </trkpt>
      <trkpt lat="43.42569" lon="2.65729">
        <ele>801.8</ele>
        <time>2022-06-21T11:14:00Z</time>
      </trkpt>
      <trkpt lat="43.42569" lon="2.65729">
        <ele>801.8</ele>
        <time>2022-06-21T11:14:01Z</time>
      </trkpt>
      <trkpt lat="43.42569" lon="2.65729">
        <ele>801.8</ele>
        <time>2022-06-21T11:14:02Z</time>
      </trkpt>
      <trkpt lat="43.42569" lon="2.65729">
        <ele>801.8</ele>
        <time>2022-06-21T11:14:03Z</time>
      </trkpt>
      <trkpt lat="43.42569" lon="2.65729">
        <ele>801.8</ele>
        <time>2022-06-21T11:14:04Z</time>
      </trkpt>
      <trkpt lat="43.42569" lon="2.65729">
        <ele>801.8</ele>
        <time>2022-06-21T11:14:05Z</time>
      </trkpt>
      <trkpt lat="43.42569" lon="2.65729">
        <ele>801.8</ele>
        <time>2022-06-21T11:14:06Z</time>
      </trkpt>
      <trkpt lat="43.42569" lon="2.65729">
        <ele>801.8</ele>
        <time>2022-06-21T11:14:07Z</time>
      </trkpt>
      <trkpt lat="43.42569" lon="2.65729">
        <ele>801.8</ele>
        <time>2022-06-21T11:14:08Z</time>
      </trkpt>
      <trkpt lat="43.42569" lon="2.65729">
        <ele>801.8</ele>
        <time>2022-06-21T11:14:09Z</time>
      </trkpt>
      <trkpt lat="43.42569" lon="2.65729">
        <ele>801.8</ele>
        <time>2022-06-21T11:14:10Z</time>
      </trkpt>
      <trkpt lat="43.42569" lon="2.65729">
        <ele>801.8</ele>
        <time>2022-06-21T11:14:11Z</time>
      </trkpt>
      <trkpt lat="43.42569" lon="2.65729">
        <ele>801.8</ele>
        <time>2022-06-21T11:14:12Z</time>
      </trkpt>
      <trkpt lat="43.42569" lon="2.65729">
        <ele>801.8</ele>
        <time>2022-06-21T11:14:13Z</time>
      </trkpt>
      <trkpt lat="43.42569" lon="2.65729">
        <ele>801.8</ele>
        <time>2022-06-21T11:14:14Z</time>
      </trkpt>
      <trkpt lat="43.42569" lon="2.65729">
        <ele>801.8</ele>
        <time>2022-06-21T11:14:15Z</time>
      </trkpt>
      <trkpt lat="43.42569" lon="2.65729">
        <ele>801.8</ele>
        <time>2022-06-21T11:14:16Z</time>
      </trkpt>
      <trkpt lat="43.42569" lon="2.65729">
        <ele>801.8</ele>
        <time>2022-06-21T11:14:17Z</time>
      </trkpt>
      <trkpt lat="43.42569" lon="2.65729">
        <ele>801.8</ele>
        <time>2022-06-21T11:14:18Z</time>
      </trkpt>
      <trkpt lat="43.42569" lon="2.65729">
        <ele>801.8</ele>
        <time>2022-06-21T11:14:19Z</time>
      </trkpt>
      <trkpt lat="43.42569" lon="2.65729">
        <ele>801.8</ele>
        <time>2022-06-21T11:14:20Z</time>
      </trkpt>
      <trkpt lat="43.42569" lon="2.65729">
        <ele>801.8</ele>
        <time>2022-06-21T11:14:21Z</time>
      </trkpt>
      <trkpt lat="43.42569" lon="2.65729">
        <ele>801.8</ele>
        <time>2022-06-21T11:14:22Z</time>
      </trkpt>
      <trkpt lat="43.42569" lon="2.65729">
        <ele>801.8</ele>
        <time>2022-06-21T11:14:23Z</time>
      </trkpt>
      <trkpt lat="43.42569" lon="2.65729">
        <ele>801.8</ele>
        <time>2022-06-21T11:14:24Z</time>
      </trkpt>
      <trkpt lat="43.42569" lon="2.65729">
        <ele>801.8</ele>
        <time>2022-06-21T11:14:25Z</time>
      </trkpt>
      <trkpt lat="43.42569" lon="2.65729">
        <ele>801.8</ele>
        <time>2022-06-21T11:14:26Z</time>
      </trkpt>
      <trkpt lat="43.42569" lon="2.65729">
        <ele>801.8</ele>
        <time>2022-06-21T11:14:27Z</time>
      </trkpt>
      <trkpt lat="43.42569" lon="2.65729">
        <ele>801.8</ele>
        <time>2022-06-21T11:14:28Z</time>
      </trkpt>
      <trkpt lat="43.42568" lon="2.65729">
        <ele>801.8</ele>
        <time>2022-06-21T11:14:29Z</time>
      </trkpt>
      <trkpt lat="43.42568" lon="2.65727">
        <ele>801.8</ele>
        <time>2022-06-21T11:14:30Z</time>
      </trkpt>
      <trkpt lat="43.42567" lon="2.65726">
        <ele>801.7</ele>
        <time>2022-06-21T11:14:31Z</time>
      </trkpt>
      <trkpt lat="43.42567" lon="2.65725">
        <ele>801.7</ele>
        <time>2022-06-21T11:14:32Z</time>
      </trkpt>
      <trkpt lat="43.42566" lon="2.65724">
        <ele>801.7</ele>
        <time>2022-06-21T11:14:33Z</time>
      </trkpt>
      <trkpt lat="43.42566" lon="2.65723">
        <ele>801.7</ele>
        <time>2022-06-21T11:14:34Z</time>
      </trkpt>
      <trkpt lat="43.42566" lon="2.65722">
        <ele>801.6</ele>
        <time>2022-06-21T11:14:35Z</time>
      </trkpt>
      <trkpt lat="43.42565" lon="2.65721">
        <ele>801.6</ele>
        <time>2022-06-21T11:14:36Z</time>
      </trkpt>
      <trkpt lat="43.42565" lon="2.6572">
        <ele>801.6</ele>
        <time>2022-06-21T11:14:37Z</time>
      </trkpt>
      <trkpt lat="43.42565" lon="2.65719">
        <ele>801.6</ele>
        <time>2022-06-21T11:14:38Z</time>
      </trkpt>
      <trkpt lat="43.42565" lon="2.65718">
        <ele>801.5</ele>
        <time>2022-06-21T11:14:39Z</time>
      </trkpt>
      <trkpt lat="43.42565" lon="2.65718">
        <ele>801.5</ele>
        <time>2022-06-21T11:14:40Z</time>
      </trkpt>
      <trkpt lat="43.42565" lon="2.65718">
        <ele>801.5</ele>
        <time>2022-06-21T11:14:41Z</time>
      </trkpt>
      <trkpt lat="43.42565" lon="2.65718">
        <ele>801.5</ele>
        <time>2022-06-21T11:14:42Z</time>
      </trkpt>
      <trkpt lat="43.42564" lon="2.65717">
        <ele>801.5</ele>
        <time>2022-06-21T11:14:43Z</time>
      </trkpt>
      <trkpt lat="43.42564" lon="2.65716">
        <ele>801.5</ele>
        <time>2022-06-21T11:14:44Z</time>
      </trkpt>
      <trkpt lat="43.42564" lon="2.65714">
        <ele>801.5</ele>
        <time>2022-06-21T11:14:45Z</time>
      </trkpt>
      <trkpt lat="43.42564" lon="2.65713">
        <ele>801.4</ele>
        <time>2022-06-21T11:14:46Z</time>
      </trkpt>
      <trkpt lat="43.42564" lon="2.65711">
        <ele>801.4</ele>
        <time>2022-06-21T11:14:47Z</time>
      </trkpt>
      <trkpt lat="43.42564" lon="2.6571">
        <ele>801.4</ele>
        <time>2022-06-21T11:14:48Z</time>
      </trkpt>
      <trkpt lat="43.42564" lon="2.65708">
        <ele>801.3</ele>
        <time>2022-06-21T11:14:49Z</time>
      </trkpt>
      <trkpt lat="43.42564" lon="2.65707">
        <ele>801.3</ele>
        <time>2022-06-21T11:14:50Z</time>
      </trkpt>
      <trkpt lat="43.42564" lon="2.65706">
        <ele>801.3</ele>
        <time>2022-06-21T11:14:51Z</time>
      </trkpt>
      <trkpt lat="43.42563" lon="2.65705">
        <ele>801.3</ele>
        <time>2022-06-21T11:14:52Z</time>
      </trkpt>
      <trkpt lat="43.42563" lon="2.65704">
        <ele>801.2</ele>
        <time>2022-06-21T11:14:53Z</time>
      </trkpt>
      <trkpt lat="43.42562" lon="2.65703">
        <ele>801.2</ele>
        <time>2022-06-21T11:14:54Z</time>
      </trkpt>
      <trkpt lat="43.42562" lon="2.65702">
        <ele>801.2</ele>
        <time>2022-06-21T11:14:55Z</time>
      </trkpt>
      <trkpt lat="43.42562" lon="2.657">
        <ele>801.1</ele>
        <time>2022-06-21T11:14:56Z</time>
      </trkpt>
      <trkpt lat="43.42562" lon="2.65699">
        <ele>801.1</ele>
        <time>2022-06-21T11:14:57Z</time>
      </trkpt>
      <trkpt lat="43.42562" lon="2.65698">
        <ele>801.1</ele>
        <time>2022-06-21T11:14:58Z</time>
      </trkpt>
      <trkpt lat="43.42562" lon="2.65696">
        <ele>801</ele>
        <time>2022-06-21T11:14:59Z</time>
      </trkpt>
      <trkpt lat="43.42562" lon="2.65695">
        <ele>801</ele>
        <time>2022-06-21T11:15:00Z</time>
      </trkpt>
      <trkpt lat="43.42562" lon="2.65694">
        <ele>801</ele>
        <time>2022-06-21T11:15:01Z</time>
      </trkpt>
      <trkpt lat="43.42562" lon="2.65693">
        <ele>800.9</ele>
        <time>2022-06-21T11:15:02Z</time>
      </trkpt>
      <trkpt lat="43.42562" lon="2.65691">
        <ele>800.9</ele>
        <time>2022-06-21T11:15:03Z</time>
      </trkpt>
      <trkpt lat="43.42562" lon="2.6569">
        <ele>800.8</ele>
        <time>2022-06-21T11:15:04Z</time>
      </trkpt>
      <trkpt lat="43.42562" lon="2.65688">
        <ele>800.8</ele>
        <time>2022-06-21T11:15:05Z</time>
      </trkpt>
      <trkpt lat="43.42562" lon="2.65687">
        <ele>800.8</ele>
        <time>2022-06-21T11:15:06Z</time>
      </trkpt>
      <trkpt lat="43.42562" lon="2.65685">
        <ele>800.7</ele>
        <time>2022-06-21T11:15:07Z</time>
      </trkpt>
      <trkpt lat="43.42562" lon="2.65683">
        <ele>800.7</ele>
        <time>2022-06-21T11:15:08Z</time>
      </trkpt>
      <trkpt lat="43.42561" lon="2.65682">
        <ele>800.7</ele>
        <time>2022-06-21T11:15:09Z</time>
      </trkpt>
      <trkpt lat="43.42561" lon="2.65681">
        <ele>800.6</ele>
        <time>2022-06-21T11:15:10Z</time>
      </trkpt>
      <trkpt lat="43.42561" lon="2.6568">
        <ele>800.6</ele>
        <time>2022-06-21T11:15:11Z</time>
      </trkpt>
      <trkpt lat="43.42561" lon="2.65679">
        <ele>800.6</ele>
        <time>2022-06-21T11:15:12Z</time>
      </trkpt>
      <trkpt lat="43.42561" lon="2.65677">
        <ele>800.5</ele>
        <time>2022-06-21T11:15:13Z</time>
      </trkpt>
      <trkpt lat="43.42561" lon="2.65676">
        <ele>800.5</ele>
        <time>2022-06-21T11:15:14Z</time>
      </trkpt>
      <trkpt lat="43.42562" lon="2.65674">
        <ele>800.5</ele>
        <time>2022-06-21T11:15:15Z</time>
      </trkpt>
      <trkpt lat="43.42562" lon="2.65673">
        <ele>800.4</ele>
        <time>2022-06-21T11:15:16Z</time>
      </trkpt>
      <trkpt lat="43.42562" lon="2.65672">
        <ele>800.4</ele>
        <time>2022-06-21T11:15:17Z</time>
      </trkpt>
      <trkpt lat="43.42562" lon="2.6567">
        <ele>800.4</ele>
        <time>2022-06-21T11:15:18Z</time>
      </trkpt>
      <trkpt lat="43.42562" lon="2.65669">
        <ele>800.4</ele>
        <time>2022-06-21T11:15:19Z</time>
      </trkpt>
      <trkpt lat="43.42562" lon="2.65668">
        <ele>800.3</ele>
        <time>2022-06-21T11:15:20Z</time>
      </trkpt>
      <trkpt lat="43.42562" lon="2.65667">
        <ele>800.3</ele>
        <time>2022-06-21T11:15:21Z</time>
      </trkpt>
      <trkpt lat="43.42562" lon="2.65666">
        <ele>800.3</ele>
        <time>2022-06-21T11:15:22Z</time>
      </trkpt>
      <trkpt lat="43.42562" lon="2.65665">
        <ele>800.3</ele>
        <time>2022-06-21T11:15:23Z</time>
      </trkpt>
      <trkpt lat="43.42562" lon="2.65664">
        <ele>800.2</ele>
        <time>2022-06-21T11:15:24Z</time>
      </trkpt>
      <trkpt lat="43.42562" lon="2.65663">
        <ele>800.2</ele>
        <time>2022-06-21T11:15:25Z</time>
      </trkpt>
      <trkpt lat="43.42562" lon="2.65662">
        <ele>800.2</ele>
        <time>2022-06-21T11:15:26Z</time>
      </trkpt>
      <trkpt lat="43.42562" lon="2.6566">
        <ele>800.2</ele>
        <time>2022-06-21T11:15:27Z</time>
      </trkpt>
      <trkpt lat="43.42562" lon="2.65659">
        <ele>800.1</ele>
        <time>2022-06-21T11:15:28Z</time>
      </trkpt>
      <trkpt lat="43.42561" lon="2.65658">
        <ele>800.1</ele>
        <time>2022-06-21T11:15:29Z</time>
      </trkpt>
      <trkpt lat="43.42561" lon="2.65657">
        <ele>800.1</ele>
        <time>2022-06-21T11:15:30Z</time>
      </trkpt>
      <trkpt lat="43.42561" lon="2.65656">
        <ele>800.1</ele>
        <time>2022-06-21T11:15:31Z</time>
      </trkpt>
      <trkpt lat="43.42561" lon="2.65653">
        <ele>800</ele>
        <time>2022-06-21T11:15:32Z</time>
      </trkpt>
      <trkpt lat="43.42561" lon="2.65652">
        <ele>800</ele>
        <time>2022-06-21T11:15:33Z</time>
      </trkpt>
      <trkpt lat="43.42561" lon="2.65651">
        <ele>800</ele>
        <time>2022-06-21T11:15:34Z</time>
      </trkpt>
      <trkpt lat="43.42562" lon="2.6565">
        <ele>799.9</ele>
        <time>2022-06-21T11:15:35Z</time>
      </trkpt>
      <trkpt lat="43.42562" lon="2.65649">
        <ele>799.9</ele>
        <time>2022-06-21T11:15:36Z</time>
      </trkpt>
      <trkpt lat="43.42562" lon="2.65648">
        <ele>799.9</ele>
        <time>2022-06-21T11:15:37Z</time>
      </trkpt>
      <trkpt lat="43.42562" lon="2.65646">
        <ele>799.9</ele>
        <time>2022-06-21T11:15:38Z</time>
      </trkpt>
      <trkpt lat="43.42562" lon="2.65645">
        <ele>799.8</ele>
        <time>2022-06-21T11:15:39Z</time>
      </trkpt>
      <trkpt lat="43.42563" lon="2.65643">
        <ele>799.8</ele>
        <time>2022-06-21T11:15:40Z</time>
      </trkpt>
      <trkpt lat="43.42563" lon="2.65642">
        <ele>799.8</ele>
        <time>2022-06-21T11:15:41Z</time>
      </trkpt>
      <trkpt lat="43.42563" lon="2.65641">
        <ele>799.7</ele>
        <time>2022-06-21T11:15:42Z</time>
      </trkpt>
      <trkpt lat="43.42563" lon="2.65639">
        <ele>799.7</ele>
        <time>2022-06-21T11:15:43Z</time>
      </trkpt>
      <trkpt lat="43.42564" lon="2.65637">
        <ele>799.6</ele>
        <time>2022-06-21T11:15:44Z</time>
      </trkpt>
      <trkpt lat="43.42564" lon="2.65636">
        <ele>799.6</ele>
        <time>2022-06-21T11:15:45Z</time>
      </trkpt>
      <trkpt lat="43.42564" lon="2.65635">
        <ele>799.6</ele>
        <time>2022-06-21T11:15:46Z</time>
      </trkpt>
      <trkpt lat="43.42564" lon="2.65633">
        <ele>799.5</ele>
        <time>2022-06-21T11:15:47Z</time>
      </trkpt>
      <trkpt lat="43.42564" lon="2.65632">
        <ele>799.5</ele>
        <time>2022-06-21T11:15:48Z</time>
      </trkpt>
      <trkpt lat="43.42564" lon="2.6563">
        <ele>799.5</ele>
        <time>2022-06-21T11:15:49Z</time>
      </trkpt>
      <trkpt lat="43.42564" lon="2.65629">
        <ele>799.4</ele>
        <time>2022-06-21T11:15:50Z</time>
      </trkpt>
      <trkpt lat="43.42564" lon="2.65628">
        <ele>799.4</ele>
        <time>2022-06-21T11:15:51Z</time>
      </trkpt>
      <trkpt lat="43.42564" lon="2.65627">
        <ele>799.4</ele>
        <time>2022-06-21T11:15:52Z</time>
      </trkpt>
      <trkpt lat="43.42564" lon="2.65627">
        <ele>799.4</ele>
        <time>2022-06-21T11:15:53Z</time>
      </trkpt>
      <trkpt lat="43.42564" lon="2.65627">
        <ele>799.4</ele>
        <time>2022-06-21T11:15:54Z</time>
      </trkpt>
      <trkpt lat="43.42565" lon="2.65626">
        <ele>799.4</ele>
        <time>2022-06-21T11:15:55Z</time>
      </trkpt>
      <trkpt lat="43.42565" lon="2.65624">
        <ele>799.3</ele>
        <time>2022-06-21T11:15:56Z</time>
      </trkpt>
      <trkpt lat="43.42565" lon="2.65622">
        <ele>799.3</ele>
        <time>2022-06-21T11:15:57Z</time>
      </trkpt>
      <trkpt lat="43.42565" lon="2.65621">
        <ele>799.2</ele>
        <time>2022-06-21T11:15:58Z</time>
      </trkpt>
      <trkpt lat="43.42566" lon="2.65619">
        <ele>799.2</ele>
        <time>2022-06-21T11:15:59Z</time>
      </trkpt>
      <trkpt lat="43.42566" lon="2.65617">
        <ele>799.2</ele>
        <time>2022-06-21T11:16:00Z</time>
      </trkpt>
      <trkpt lat="43.42566" lon="2.65616">
        <ele>799.1</ele>
        <time>2022-06-21T11:16:01Z</time>
      </trkpt>
      <trkpt lat="43.42566" lon="2.65615">
        <ele>799.1</ele>
        <time>2022-06-21T11:16:02Z</time>
      </trkpt>
      <trkpt lat="43.42567" lon="2.65613">
        <ele>799.1</ele>
        <time>2022-06-21T11:16:03Z</time>
      </trkpt>
      <trkpt lat="43.42567" lon="2.65612">
        <ele>799</ele>
        <time>2022-06-21T11:16:04Z</time>
      </trkpt>
      <trkpt lat="43.42567" lon="2.65611">
        <ele>799</ele>
        <time>2022-06-21T11:16:05Z</time>
      </trkpt>
      <trkpt lat="43.42567" lon="2.65609">
        <ele>799</ele>
        <time>2022-06-21T11:16:06Z</time>
      </trkpt>
      <trkpt lat="43.42567" lon="2.65607">
        <ele>798.9</ele>
        <time>2022-06-21T11:16:07Z</time>
      </trkpt>
      <trkpt lat="43.42567" lon="2.65606">
        <ele>798.9</ele>
        <time>2022-06-21T11:16:08Z</time>
      </trkpt>
      <trkpt lat="43.42568" lon="2.65605">
        <ele>798.9</ele>
        <time>2022-06-21T11:16:09Z</time>
      </trkpt>
      <trkpt lat="43.42568" lon="2.65604">
        <ele>798.9</ele>
        <time>2022-06-21T11:16:10Z</time>
      </trkpt>
      <trkpt lat="43.42568" lon="2.65603">
        <ele>798.8</ele>
        <time>2022-06-21T11:16:11Z</time>
      </trkpt>
      <trkpt lat="43.42569" lon="2.65602">
        <ele>798.8</ele>
        <time>2022-06-21T11:16:12Z</time>
      </trkpt>
      <trkpt lat="43.42569" lon="2.65601">
        <ele>798.8</ele>
        <time>2022-06-21T11:16:13Z</time>
      </trkpt>
      <trkpt lat="43.42569" lon="2.65599">
        <ele>798.7</ele>
        <time>2022-06-21T11:16:14Z</time>
      </trkpt>
      <trkpt lat="43.4257" lon="2.65598">
        <ele>798.7</ele>
        <time>2022-06-21T11:16:15Z</time>
      </trkpt>
      <trkpt lat="43.4257" lon="2.65597">
        <ele>798.7</ele>
        <time>2022-06-21T11:16:16Z</time>
      </trkpt>
      <trkpt lat="43.42571" lon="2.65596">
        <ele>798.6</ele>
        <time>2022-06-21T11:16:17Z</time>
      </trkpt>
      <trkpt lat="43.42571" lon="2.65594">
        <ele>798.6</ele>
        <time>2022-06-21T11:16:18Z</time>
      </trkpt>
      <trkpt lat="43.42572" lon="2.65593">
        <ele>798.5</ele>
        <time>2022-06-21T11:16:19Z</time>
      </trkpt>
      <trkpt lat="43.42572" lon="2.65591">
        <ele>798.5</ele>
        <time>2022-06-21T11:16:20Z</time>
      </trkpt>
      <trkpt lat="43.42573" lon="2.6559">
        <ele>798.4</ele>
        <time>2022-06-21T11:16:21Z</time>
      </trkpt>
      <trkpt lat="43.42573" lon="2.65589">
        <ele>798.4</ele>
        <time>2022-06-21T11:16:22Z</time>
      </trkpt>
      <trkpt lat="43.42574" lon="2.65588">
        <ele>798.3</ele>
        <time>2022-06-21T11:16:23Z</time>
      </trkpt>
      <trkpt lat="43.42575" lon="2.65586">
        <ele>798.3</ele>
        <time>2022-06-21T11:16:24Z</time>
      </trkpt>
      <trkpt lat="43.42575" lon="2.65585">
        <ele>798.2</ele>
        <time>2022-06-21T11:16:25Z</time>
      </trkpt>
      <trkpt lat="43.42576" lon="2.65584">
        <ele>798.2</ele>
        <time>2022-06-21T11:16:26Z</time>
      </trkpt>
      <trkpt lat="43.42576" lon="2.65583">
        <ele>798.1</ele>
        <time>2022-06-21T11:16:27Z</time>
      </trkpt>
      <trkpt lat="43.42577" lon="2.65582">
        <ele>798.1</ele>
        <time>2022-06-21T11:16:28Z</time>
      </trkpt>
      <trkpt lat="43.42578" lon="2.65581">
        <ele>798</ele>
        <time>2022-06-21T11:16:29Z</time>
      </trkpt>
      <trkpt lat="43.42579" lon="2.6558">
        <ele>798</ele>
        <time>2022-06-21T11:16:30Z</time>
      </trkpt>
      <trkpt lat="43.42579" lon="2.65579">
        <ele>797.9</ele>
        <time>2022-06-21T11:16:31Z</time>
      </trkpt>
      <trkpt lat="43.4258" lon="2.65578">
        <ele>797.9</ele>
        <time>2022-06-21T11:16:32Z</time>
      </trkpt>
      <trkpt lat="43.42581" lon="2.65577">
        <ele>797.8</ele>
        <time>2022-06-21T11:16:33Z</time>
      </trkpt>
      <trkpt lat="43.42582" lon="2.65576">
        <ele>797.8</ele>
        <time>2022-06-21T11:16:34Z</time>
      </trkpt>
      <trkpt lat="43.42583" lon="2.65576">
        <ele>797.8</ele>
        <time>2022-06-21T11:16:35Z</time>
      </trkpt>
      <trkpt lat="43.42584" lon="2.65575">
        <ele>797.7</ele>
        <time>2022-06-21T11:16:36Z</time>
      </trkpt>
      <trkpt lat="43.42585" lon="2.65574">
        <ele>797.7</ele>
        <time>2022-06-21T11:16:37Z</time>
      </trkpt>
      <trkpt lat="43.42585" lon="2.65574">
        <ele>797.7</ele>
        <time>2022-06-21T11:16:38Z</time>
      </trkpt>
      <trkpt lat="43.42586" lon="2.65573">
        <ele>797.6</ele>
        <time>2022-06-21T11:16:39Z</time>
      </trkpt>
      <trkpt lat="43.42587" lon="2.65573">
        <ele>797.6</ele>
        <time>2022-06-21T11:16:40Z</time>
      </trkpt>
      <trkpt lat="43.42588" lon="2.65572">
        <ele>797.6</ele>
        <time>2022-06-21T11:16:41Z</time>
      </trkpt>
      <trkpt lat="43.4259" lon="2.65571">
        <ele>797.6</ele>
        <time>2022-06-21T11:16:42Z</time>
      </trkpt>
      <trkpt lat="43.4259" lon="2.65571">
        <ele>797.5</ele>
        <time>2022-06-21T11:16:43Z</time>
      </trkpt>
      <trkpt lat="43.42591" lon="2.65571">
        <ele>797.5</ele>
        <time>2022-06-21T11:16:44Z</time>
      </trkpt>
      <trkpt lat="43.42591" lon="2.6557">
        <ele>797.5</ele>
        <time>2022-06-21T11:16:45Z</time>
      </trkpt>
      <trkpt lat="43.42592" lon="2.6557">
        <ele>797.5</ele>
        <time>2022-06-21T11:16:46Z</time>
      </trkpt>
      <trkpt lat="43.42592" lon="2.65569">
        <ele>797.5</ele>
        <time>2022-06-21T11:16:47Z</time>
      </trkpt>
      <trkpt lat="43.42593" lon="2.65569">
        <ele>797.5</ele>
        <time>2022-06-21T11:16:48Z</time>
      </trkpt>
      <trkpt lat="43.42593" lon="2.65568">
        <ele>797.5</ele>
        <time>2022-06-21T11:16:49Z</time>
      </trkpt>
      <trkpt lat="43.42594" lon="2.65566">
        <ele>797.4</ele>
        <time>2022-06-21T11:16:50Z</time>
      </trkpt>
      <trkpt lat="43.42594" lon="2.65565">
        <ele>797.4</ele>
        <time>2022-06-21T11:16:51Z</time>
      </trkpt>
      <trkpt lat="43.42595" lon="2.65564">
        <ele>797.4</ele>
        <time>2022-06-21T11:16:52Z</time>
      </trkpt>
      <trkpt lat="43.42595" lon="2.65563">
        <ele>797.4</ele>
        <time>2022-06-21T11:16:53Z</time>
      </trkpt>
      <trkpt lat="43.42595" lon="2.65563">
        <ele>797.4</ele>
        <time>2022-06-21T11:16:54Z</time>
      </trkpt>
      <trkpt lat="43.42596" lon="2.65562">
        <ele>797.3</ele>
        <time>2022-06-21T11:16:55Z</time>
      </trkpt>
      <trkpt lat="43.42597" lon="2.65561">
        <ele>797.3</ele>
        <time>2022-06-21T11:16:56Z</time>
      </trkpt>
      <trkpt lat="43.42599" lon="2.65559">
        <ele>797.2</ele>
        <time>2022-06-21T11:16:57Z</time>
      </trkpt>
      <trkpt lat="43.426" lon="2.65559">
        <ele>797.2</ele>
        <time>2022-06-21T11:16:58Z</time>
      </trkpt>
      <trkpt lat="43.426" lon="2.65558">
        <ele>797.2</ele>
        <time>2022-06-21T11:16:59Z</time>
      </trkpt>
      <trkpt lat="43.42601" lon="2.65557">
        <ele>797.2</ele>
        <time>2022-06-21T11:17:00Z</time>
      </trkpt>
      <trkpt lat="43.42602" lon="2.65556">
        <ele>797.1</ele>
        <time>2022-06-21T11:17:01Z</time>
      </trkpt>
      <trkpt lat="43.42603" lon="2.65555">
        <ele>797.1</ele>
        <time>2022-06-21T11:17:02Z</time>
      </trkpt>
      <trkpt lat="43.42605" lon="2.65553">
        <ele>797</ele>
        <time>2022-06-21T11:17:03Z</time>
      </trkpt>
      <trkpt lat="43.42606" lon="2.65552">
        <ele>797</ele>
        <time>2022-06-21T11:17:04Z</time>
      </trkpt>
      <trkpt lat="43.42606" lon="2.65551">
        <ele>797</ele>
        <time>2022-06-21T11:17:05Z</time>
      </trkpt>
      <trkpt lat="43.42607" lon="2.6555">
        <ele>797</ele>
        <time>2022-06-21T11:17:06Z</time>
      </trkpt>
      <trkpt lat="43.42608" lon="2.6555">
        <ele>796.9</ele>
        <time>2022-06-21T11:17:07Z</time>
      </trkpt>
      <trkpt lat="43.42609" lon="2.65549">
        <ele>796.9</ele>
        <time>2022-06-21T11:17:08Z</time>
      </trkpt>
      <trkpt lat="43.4261" lon="2.65548">
        <ele>796.9</ele>
        <time>2022-06-21T11:17:09Z</time>
      </trkpt>
      <trkpt lat="43.42611" lon="2.65548">
        <ele>796.8</ele>
        <time>2022-06-21T11:17:10Z</time>
      </trkpt>
      <trkpt lat="43.42612" lon="2.65547">
        <ele>796.8</ele>
        <time>2022-06-21T11:17:11Z</time>
      </trkpt>
      <trkpt lat="43.42612" lon="2.65546">
        <ele>796.8</ele>
        <time>2022-06-21T11:17:12Z</time>
      </trkpt>
      <trkpt lat="43.42613" lon="2.65545">
        <ele>796.8</ele>
        <time>2022-06-21T11:17:13Z</time>
      </trkpt>
      <trkpt lat="43.42614" lon="2.65545">
        <ele>796.8</ele>
        <time>2022-06-21T11:17:14Z</time>
      </trkpt>
      <trkpt lat="43.42615" lon="2.65544">
        <ele>796.7</ele>
        <time>2022-06-21T11:17:15Z</time>
      </trkpt>
      <trkpt lat="43.42616" lon="2.65543">
        <ele>796.7</ele>
        <time>2022-06-21T11:17:16Z</time>
      </trkpt>
      <trkpt lat="43.42617" lon="2.65542">
        <ele>796.7</ele>
        <time>2022-06-21T11:17:17Z</time>
      </trkpt>
      <trkpt lat="43.42618" lon="2.65541">
        <ele>796.7</ele>
        <time>2022-06-21T11:17:18Z</time>
      </trkpt>
      <trkpt lat="43.42619" lon="2.6554">
        <ele>796.6</ele>
        <time>2022-06-21T11:17:19Z</time>
      </trkpt>
      <trkpt lat="43.4262" lon="2.65539">
        <ele>796.6</ele>
        <time>2022-06-21T11:17:20Z</time>
      </trkpt>
      <trkpt lat="43.42621" lon="2.65539">
        <ele>796.6</ele>
        <time>2022-06-21T11:17:21Z</time>
      </trkpt>
      <trkpt lat="43.42621" lon="2.65538">
        <ele>796.6</ele>
        <time>2022-06-21T11:17:22Z</time>
      </trkpt>
      <trkpt lat="43.42622" lon="2.65536">
        <ele>796.5</ele>
        <time>2022-06-21T11:17:23Z</time>
      </trkpt>
      <trkpt lat="43.42623" lon="2.65535">
        <ele>796.5</ele>
        <time>2022-06-21T11:17:24Z</time>
      </trkpt>
      <trkpt lat="43.42624" lon="2.65534">
        <ele>796.5</ele>
        <time>2022-06-21T11:17:25Z</time>
      </trkpt>
      <trkpt lat="43.42625" lon="2.65533">
        <ele>796.5</ele>
        <time>2022-06-21T11:17:26Z</time>
      </trkpt>
      <trkpt lat="43.42625" lon="2.65532">
        <ele>796.4</ele>
        <time>2022-06-21T11:17:27Z</time>
      </trkpt>
      <trkpt lat="43.42626" lon="2.65531">
        <ele>796.4</ele>
        <time>2022-06-21T11:17:28Z</time>
      </trkpt>
      <trkpt lat="43.42627" lon="2.6553">
        <ele>796.4</ele>
        <time>2022-06-21T11:17:29Z</time>
      </trkpt>
      <trkpt lat="43.42628" lon="2.6553">
        <ele>796.4</ele>
        <time>2022-06-21T11:17:30Z</time>
      </trkpt>
      <trkpt lat="43.42629" lon="2.65529">
        <ele>796.3</ele>
        <time>2022-06-21T11:17:31Z</time>
      </trkpt>
      <trkpt lat="43.42629" lon="2.65529">
        <ele>796.3</ele>
        <time>2022-06-21T11:17:32Z</time>
      </trkpt>
      <trkpt lat="43.4263" lon="2.65528">
        <ele>796.3</ele>
        <time>2022-06-21T11:17:33Z</time>
      </trkpt>
      <trkpt lat="43.42631" lon="2.65527">
        <ele>796.3</ele>
        <time>2022-06-21T11:17:34Z</time>
      </trkpt>
      <trkpt lat="43.42631" lon="2.65526">
        <ele>796.3</ele>
        <time>2022-06-21T11:17:35Z</time>
      </trkpt>
      <trkpt lat="43.42631" lon="2.65525">
        <ele>796.2</ele>
        <time>2022-06-21T11:17:36Z</time>
      </trkpt>
      <trkpt lat="43.42632" lon="2.65524">
        <ele>796.2</ele>
        <time>2022-06-21T11:17:37Z</time>
      </trkpt>
      <trkpt lat="43.42632" lon="2.65523">
        <ele>796.2</ele>
        <time>2022-06-21T11:17:38Z</time>
      </trkpt>
      <trkpt lat="43.42633" lon="2.65522">
        <ele>796.2</ele>
        <time>2022-06-21T11:17:39Z</time>
      </trkpt>
      <trkpt lat="43.42634" lon="2.65521">
        <ele>796.1</ele>
        <time>2022-06-21T11:17:40Z</time>
      </trkpt>
      <trkpt lat="43.42635" lon="2.65519">
        <ele>796.1</ele>
        <time>2022-06-21T11:17:41Z</time>
      </trkpt>
      <trkpt lat="43.42636" lon="2.65519">
        <ele>796.1</ele>
        <time>2022-06-21T11:17:42Z</time>
      </trkpt>
      <trkpt lat="43.42636" lon="2.65518">
        <ele>796</ele>
        <time>2022-06-21T11:17:43Z</time>
      </trkpt>
      <trkpt lat="43.42637" lon="2.65517">
        <ele>796</ele>
        <time>2022-06-21T11:17:44Z</time>
      </trkpt>
      <trkpt lat="43.42638" lon="2.65516">
        <ele>796</ele>
        <time>2022-06-21T11:17:45Z</time>
      </trkpt>
      <trkpt lat="43.42638" lon="2.65515">
        <ele>795.9</ele>
        <time>2022-06-21T11:17:46Z</time>
      </trkpt>
      <trkpt lat="43.4264" lon="2.65514">
        <ele>795.9</ele>
        <time>2022-06-21T11:17:47Z</time>
      </trkpt>
      <trkpt lat="43.4264" lon="2.65514">
        <ele>795.9</ele>
        <time>2022-06-21T11:17:48Z</time>
      </trkpt>
      <trkpt lat="43.42641" lon="2.65513">
        <ele>795.8</ele>
        <time>2022-06-21T11:17:49Z</time>
      </trkpt>
      <trkpt lat="43.42642" lon="2.65512">
        <ele>795.8</ele>
        <time>2022-06-21T11:17:50Z</time>
      </trkpt>
      <trkpt lat="43.42642" lon="2.65511">
        <ele>795.8</ele>
        <time>2022-06-21T11:17:51Z</time>
      </trkpt>
      <trkpt lat="43.42643" lon="2.65509">
        <ele>795.7</ele>
        <time>2022-06-21T11:17:52Z</time>
      </trkpt>
      <trkpt lat="43.42643" lon="2.65508">
        <ele>795.7</ele>
        <time>2022-06-21T11:17:53Z</time>
      </trkpt>
      <trkpt lat="43.42644" lon="2.65507">
        <ele>795.7</ele>
        <time>2022-06-21T11:17:54Z</time>
      </trkpt>
      <trkpt lat="43.42644" lon="2.65506">
        <ele>795.7</ele>
        <time>2022-06-21T11:17:55Z</time>
      </trkpt>
      <trkpt lat="43.42645" lon="2.65504">
        <ele>795.6</ele>
        <time>2022-06-21T11:17:56Z</time>
      </trkpt>
      <trkpt lat="43.42645" lon="2.65503">
        <ele>795.6</ele>
        <time>2022-06-21T11:17:57Z</time>
      </trkpt>
      <trkpt lat="43.42646" lon="2.65502">
        <ele>795.5</ele>
        <time>2022-06-21T11:17:58Z</time>
      </trkpt>
      <trkpt lat="43.42646" lon="2.65501">
        <ele>795.5</ele>
        <time>2022-06-21T11:17:59Z</time>
      </trkpt>
      <trkpt lat="43.42647" lon="2.655">
        <ele>795.5</ele>
        <time>2022-06-21T11:18:00Z</time>
      </trkpt>
      <trkpt lat="43.42648" lon="2.65499">
        <ele>795.5</ele>
        <time>2022-06-21T11:18:01Z</time>
      </trkpt>
      <trkpt lat="43.42649" lon="2.65499">
        <ele>795.4</ele>
        <time>2022-06-21T11:18:02Z</time>
      </trkpt>
      <trkpt lat="43.42649" lon="2.65498">
        <ele>795.4</ele>
        <time>2022-06-21T11:18:03Z</time>
      </trkpt>
      <trkpt lat="43.42651" lon="2.65496">
        <ele>795.3</ele>
        <time>2022-06-21T11:18:04Z</time>
      </trkpt>
      <trkpt lat="43.42651" lon="2.65495">
        <ele>795.3</ele>
        <time>2022-06-21T11:18:05Z</time>
      </trkpt>
      <trkpt lat="43.42652" lon="2.65494">
        <ele>795.3</ele>
        <time>2022-06-21T11:18:06Z</time>
      </trkpt>
      <trkpt lat="43.42653" lon="2.65492">
        <ele>795.2</ele>
        <time>2022-06-21T11:18:07Z</time>
      </trkpt>
      <trkpt lat="43.42654" lon="2.65491">
        <ele>795.2</ele>
        <time>2022-06-21T11:18:08Z</time>
      </trkpt>
      <trkpt lat="43.42655" lon="2.65491">
        <ele>795.2</ele>
        <time>2022-06-21T11:18:09Z</time>
      </trkpt>
      <trkpt lat="43.42656" lon="2.6549">
        <ele>795.1</ele>
        <time>2022-06-21T11:18:10Z</time>
      </trkpt>
      <trkpt lat="43.42657" lon="2.65489">
        <ele>795.1</ele>
        <time>2022-06-21T11:18:11Z</time>
      </trkpt>
      <trkpt lat="43.42658" lon="2.65488">
        <ele>795</ele>
        <time>2022-06-21T11:18:12Z</time>
      </trkpt>
      <trkpt lat="43.42659" lon="2.65488">
        <ele>795</ele>
        <time>2022-06-21T11:18:13Z</time>
      </trkpt>
      <trkpt lat="43.4266" lon="2.65487">
        <ele>795</ele>
        <time>2022-06-21T11:18:14Z</time>
      </trkpt>
      <trkpt lat="43.4266" lon="2.65487">
        <ele>794.9</ele>
        <time>2022-06-21T11:18:15Z</time>
      </trkpt>
      <trkpt lat="43.42661" lon="2.65486">
        <ele>794.9</ele>
        <time>2022-06-21T11:18:16Z</time>
      </trkpt>
      <trkpt lat="43.42662" lon="2.65486">
        <ele>794.9</ele>
        <time>2022-06-21T11:18:17Z</time>
      </trkpt>
      <trkpt lat="43.42663" lon="2.65486">
        <ele>794.8</ele>
        <time>2022-06-21T11:18:18Z</time>
      </trkpt>
      <trkpt lat="43.42664" lon="2.65486">
        <ele>794.8</ele>
        <time>2022-06-21T11:18:19Z</time>
      </trkpt>
      <trkpt lat="43.42664" lon="2.65485">
        <ele>794.8</ele>
        <time>2022-06-21T11:18:20Z</time>
      </trkpt>
      <trkpt lat="43.42665" lon="2.65484">
        <ele>794.7</ele>
        <time>2022-06-21T11:18:21Z</time>
      </trkpt>
      <trkpt lat="43.42666" lon="2.65482">
        <ele>794.7</ele>
        <time>2022-06-21T11:18:22Z</time>
      </trkpt>
      <trkpt lat="43.42666" lon="2.65481">
        <ele>794.7</ele>
        <time>2022-06-21T11:18:23Z</time>
      </trkpt>
      <trkpt lat="43.42667" lon="2.6548">
        <ele>794.6</ele>
        <time>2022-06-21T11:18:24Z</time>
      </trkpt>
      <trkpt lat="43.42667" lon="2.65479">
        <ele>794.6</ele>
        <time>2022-06-21T11:18:25Z</time>
      </trkpt>
      <trkpt lat="43.42668" lon="2.65477">
        <ele>794.5</ele>
        <time>2022-06-21T11:18:26Z</time>
      </trkpt>
      <trkpt lat="43.42669" lon="2.65476">
        <ele>794.5</ele>
        <time>2022-06-21T11:18:27Z</time>
      </trkpt>
      <trkpt lat="43.4267" lon="2.65475">
        <ele>794.5</ele>
        <time>2022-06-21T11:18:28Z</time>
      </trkpt>
      <trkpt lat="43.4267" lon="2.65474">
        <ele>794.4</ele>
        <time>2022-06-21T11:18:29Z</time>
      </trkpt>
      <trkpt lat="43.42671" lon="2.65474">
        <ele>794.4</ele>
        <time>2022-06-21T11:18:30Z</time>
      </trkpt>
      <trkpt lat="43.42672" lon="2.65473">
        <ele>794.4</ele>
        <time>2022-06-21T11:18:31Z</time>
      </trkpt>
      <trkpt lat="43.42672" lon="2.65471">
        <ele>794.3</ele>
        <time>2022-06-21T11:18:32Z</time>
      </trkpt>
      <trkpt lat="43.42673" lon="2.65469">
        <ele>794.3</ele>
        <time>2022-06-21T11:18:33Z</time>
      </trkpt>
      <trkpt lat="43.42674" lon="2.65467">
        <ele>794.2</ele>
        <time>2022-06-21T11:18:34Z</time>
      </trkpt>
      <trkpt lat="43.42674" lon="2.65466">
        <ele>794.2</ele>
        <time>2022-06-21T11:18:35Z</time>
      </trkpt>
      <trkpt lat="43.42675" lon="2.65464">
        <ele>794.1</ele>
        <time>2022-06-21T11:18:36Z</time>
      </trkpt>
      <trkpt lat="43.42675" lon="2.65462">
        <ele>794.1</ele>
        <time>2022-06-21T11:18:37Z</time>
      </trkpt>
      <trkpt lat="43.42676" lon="2.65461">
        <ele>794</ele>
        <time>2022-06-21T11:18:38Z</time>
      </trkpt>
      <trkpt lat="43.42677" lon="2.65459">
        <ele>794</ele>
        <time>2022-06-21T11:18:39Z</time>
      </trkpt>
      <trkpt lat="43.42678" lon="2.65457">
        <ele>793.9</ele>
        <time>2022-06-21T11:18:40Z</time>
      </trkpt>
      <trkpt lat="43.42678" lon="2.65456">
        <ele>793.9</ele>
        <time>2022-06-21T11:18:41Z</time>
      </trkpt>
      <trkpt lat="43.42679" lon="2.65455">
        <ele>793.8</ele>
        <time>2022-06-21T11:18:42Z</time>
      </trkpt>
      <trkpt lat="43.42679" lon="2.65454">
        <ele>793.8</ele>
        <time>2022-06-21T11:18:43Z</time>
      </trkpt>
      <trkpt lat="43.4268" lon="2.65452">
        <ele>793.8</ele>
        <time>2022-06-21T11:18:44Z</time>
      </trkpt>
      <trkpt lat="43.4268" lon="2.65451">
        <ele>793.7</ele>
        <time>2022-06-21T11:18:45Z</time>
      </trkpt>
      <trkpt lat="43.42681" lon="2.65449">
        <ele>793.7</ele>
        <time>2022-06-21T11:18:46Z</time>
      </trkpt>
      <trkpt lat="43.42681" lon="2.65449">
        <ele>793.7</ele>
        <time>2022-06-21T11:18:47Z</time>
      </trkpt>
      <trkpt lat="43.42681" lon="2.65448">
        <ele>793.6</ele>
        <time>2022-06-21T11:18:48Z</time>
      </trkpt>
      <trkpt lat="43.42682" lon="2.65447">
        <ele>793.6</ele>
        <time>2022-06-21T11:18:49Z</time>
      </trkpt>
      <trkpt lat="43.42682" lon="2.65446">
        <ele>793.6</ele>
        <time>2022-06-21T11:18:50Z</time>
      </trkpt>
      <trkpt lat="43.42683" lon="2.65445">
        <ele>793.5</ele>
        <time>2022-06-21T11:18:51Z</time>
      </trkpt>
      <trkpt lat="43.42684" lon="2.65445">
        <ele>793.5</ele>
        <time>2022-06-21T11:18:52Z</time>
      </trkpt>
      <trkpt lat="43.42685" lon="2.65444">
        <ele>793.5</ele>
        <time>2022-06-21T11:18:53Z</time>
      </trkpt>
      <trkpt lat="43.42686" lon="2.65443">
        <ele>793.4</ele>
        <time>2022-06-21T11:18:54Z</time>
      </trkpt>
      <trkpt lat="43.42686" lon="2.65442">
        <ele>793.4</ele>
        <time>2022-06-21T11:18:55Z</time>
      </trkpt>
      <trkpt lat="43.42688" lon="2.6544">
        <ele>793.3</ele>
        <time>2022-06-21T11:18:56Z</time>
      </trkpt>
      <trkpt lat="43.42688" lon="2.65439">
        <ele>793.2</ele>
        <time>2022-06-21T11:18:57Z</time>
      </trkpt>
      <trkpt lat="43.42689" lon="2.65438">
        <ele>793.2</ele>
        <time>2022-06-21T11:18:58Z</time>
      </trkpt>
      <trkpt lat="43.4269" lon="2.65438">
        <ele>793.1</ele>
        <time>2022-06-21T11:18:59Z</time>
      </trkpt>
      <trkpt lat="43.42691" lon="2.65437">
        <ele>793.1</ele>
        <time>2022-06-21T11:19:00Z</time>
      </trkpt>
      <trkpt lat="43.42691" lon="2.65436">
        <ele>793</ele>
        <time>2022-06-21T11:19:01Z</time>
      </trkpt>
      <trkpt lat="43.42693" lon="2.65434">
        <ele>792.9</ele>
        <time>2022-06-21T11:19:02Z</time>
      </trkpt>
      <trkpt lat="43.42694" lon="2.65433">
        <ele>792.9</ele>
        <time>2022-06-21T11:19:03Z</time>
      </trkpt>
      <trkpt lat="43.42694" lon="2.65432">
        <ele>792.8</ele>
        <time>2022-06-21T11:19:04Z</time>
      </trkpt>
      <trkpt lat="43.42695" lon="2.65431">
        <ele>792.7</ele>
        <time>2022-06-21T11:19:05Z</time>
      </trkpt>
      <trkpt lat="43.42696" lon="2.6543">
        <ele>792.7</ele>
        <time>2022-06-21T11:19:06Z</time>
      </trkpt>
      <trkpt lat="43.42697" lon="2.65428">
        <ele>792.6</ele>
        <time>2022-06-21T11:19:07Z</time>
      </trkpt>
      <trkpt lat="43.42698" lon="2.65428">
        <ele>792.5</ele>
        <time>2022-06-21T11:19:08Z</time>
      </trkpt>
      <trkpt lat="43.42698" lon="2.65427">
        <ele>792.4</ele>
        <time>2022-06-21T11:19:09Z</time>
      </trkpt>
      <trkpt lat="43.42699" lon="2.65426">
        <ele>792.3</ele>
        <time>2022-06-21T11:19:10Z</time>
      </trkpt>
      <trkpt lat="43.427" lon="2.65425">
        <ele>792.3</ele>
        <time>2022-06-21T11:19:11Z</time>
      </trkpt>
      <trkpt lat="43.42701" lon="2.65425">
        <ele>792.2</ele>
        <time>2022-06-21T11:19:12Z</time>
      </trkpt>
      <trkpt lat="43.42702" lon="2.65424">
        <ele>792.1</ele>
        <time>2022-06-21T11:19:13Z</time>
      </trkpt>
      <trkpt lat="43.42703" lon="2.65424">
        <ele>792.1</ele>
        <time>2022-06-21T11:19:14Z</time>
      </trkpt>
      <trkpt lat="43.42704" lon="2.65423">
        <ele>792</ele>
        <time>2022-06-21T11:19:15Z</time>
      </trkpt>
      <trkpt lat="43.42705" lon="2.65422">
        <ele>791.9</ele>
        <time>2022-06-21T11:19:16Z</time>
      </trkpt>
      <trkpt lat="43.42706" lon="2.65421">
        <ele>791.8</ele>
        <time>2022-06-21T11:19:17Z</time>
      </trkpt>
      <trkpt lat="43.42707" lon="2.6542">
        <ele>791.8</ele>
        <time>2022-06-21T11:19:18Z</time>
      </trkpt>
      <trkpt lat="43.42708" lon="2.6542">
        <ele>791.7</ele>
        <time>2022-06-21T11:19:19Z</time>
      </trkpt>
      <trkpt lat="43.42708" lon="2.65419">
        <ele>791.6</ele>
        <time>2022-06-21T11:19:20Z</time>
      </trkpt>
      <trkpt lat="43.42709" lon="2.65418">
        <ele>791.6</ele>
        <time>2022-06-21T11:19:21Z</time>
      </trkpt>
      <trkpt lat="43.4271" lon="2.65417">
        <ele>791.5</ele>
        <time>2022-06-21T11:19:22Z</time>
      </trkpt>
      <trkpt lat="43.42711" lon="2.65417">
        <ele>791.4</ele>
        <time>2022-06-21T11:19:23Z</time>
      </trkpt>
      <trkpt lat="43.42712" lon="2.65416">
        <ele>791.4</ele>
        <time>2022-06-21T11:19:24Z</time>
      </trkpt>
      <trkpt lat="43.42713" lon="2.65415">
        <ele>791.3</ele>
        <time>2022-06-21T11:19:25Z</time>
      </trkpt>
      <trkpt lat="43.42714" lon="2.65415">
        <ele>791.2</ele>
        <time>2022-06-21T11:19:26Z</time>
      </trkpt>
      <trkpt lat="43.42715" lon="2.65414">
        <ele>791.2</ele>
        <time>2022-06-21T11:19:27Z</time>
      </trkpt>
      <trkpt lat="43.42716" lon="2.65413">
        <ele>791.1</ele>
        <time>2022-06-21T11:19:28Z</time>
      </trkpt>
      <trkpt lat="43.42716" lon="2.65412">
        <ele>791</ele>
        <time>2022-06-21T11:19:29Z</time>
      </trkpt>
      <trkpt lat="43.42717" lon="2.65411">
        <ele>791</ele>
        <time>2022-06-21T11:19:30Z</time>
      </trkpt>
      <trkpt lat="43.42718" lon="2.6541">
        <ele>790.9</ele>
        <time>2022-06-21T11:19:31Z</time>
      </trkpt>
      <trkpt lat="43.42718" lon="2.6541">
        <ele>790.9</ele>
        <time>2022-06-21T11:19:32Z</time>
      </trkpt>
      <trkpt lat="43.4272" lon="2.65409">
        <ele>790.8</ele>
        <time>2022-06-21T11:19:33Z</time>
      </trkpt>
      <trkpt lat="43.4272" lon="2.65409">
        <ele>790.7</ele>
        <time>2022-06-21T11:19:34Z</time>
      </trkpt>
      <trkpt lat="43.42721" lon="2.65408">
        <ele>790.7</ele>
        <time>2022-06-21T11:19:35Z</time>
      </trkpt>
      <trkpt lat="43.42722" lon="2.65408">
        <ele>790.6</ele>
        <time>2022-06-21T11:19:36Z</time>
      </trkpt>
      <trkpt lat="43.42723" lon="2.65407">
        <ele>790.6</ele>
        <time>2022-06-21T11:19:37Z</time>
      </trkpt>
      <trkpt lat="43.42724" lon="2.65407">
        <ele>790.5</ele>
        <time>2022-06-21T11:19:38Z</time>
      </trkpt>
      <trkpt lat="43.42725" lon="2.65406">
        <ele>790.4</ele>
        <time>2022-06-21T11:19:39Z</time>
      </trkpt>
      <trkpt lat="43.42726" lon="2.65405">
        <ele>790.4</ele>
        <time>2022-06-21T11:19:40Z</time>
      </trkpt>
      <trkpt lat="43.42727" lon="2.65404">
        <ele>790.3</ele>
        <time>2022-06-21T11:19:41Z</time>
      </trkpt>
      <trkpt lat="43.42728" lon="2.65403">
        <ele>790.2</ele>
        <time>2022-06-21T11:19:42Z</time>
      </trkpt>
      <trkpt lat="43.42729" lon="2.65402">
        <ele>790.2</ele>
        <time>2022-06-21T11:19:43Z</time>
      </trkpt>
      <trkpt lat="43.42729" lon="2.65402">
        <ele>790.2</ele>
        <time>2022-06-21T11:19:44Z</time>
      </trkpt>
      <trkpt lat="43.4273" lon="2.65401">
        <ele>790.1</ele>
        <time>2022-06-21T11:19:45Z</time>
      </trkpt>
      <trkpt lat="43.42732" lon="2.654">
        <ele>790</ele>
        <time>2022-06-21T11:19:46Z</time>
      </trkpt>
      <trkpt lat="43.42733" lon="2.654">
        <ele>790</ele>
        <time>2022-06-21T11:19:47Z</time>
      </trkpt>
      <trkpt lat="43.42733" lon="2.65399">
        <ele>789.9</ele>
        <time>2022-06-21T11:19:48Z</time>
      </trkpt>
      <trkpt lat="43.42734" lon="2.65398">
        <ele>789.9</ele>
        <time>2022-06-21T11:19:49Z</time>
      </trkpt>
      <trkpt lat="43.42735" lon="2.65397">
        <ele>789.8</ele>
        <time>2022-06-21T11:19:50Z</time>
      </trkpt>
      <trkpt lat="43.42736" lon="2.65396">
        <ele>789.7</ele>
        <time>2022-06-21T11:19:51Z</time>
      </trkpt>
      <trkpt lat="43.42737" lon="2.65395">
        <ele>789.7</ele>
        <time>2022-06-21T11:19:52Z</time>
      </trkpt>
      <trkpt lat="43.42737" lon="2.65394">
        <ele>789.6</ele>
        <time>2022-06-21T11:19:53Z</time>
      </trkpt>
      <trkpt lat="43.42738" lon="2.65394">
        <ele>789.6</ele>
        <time>2022-06-21T11:19:54Z</time>
      </trkpt>
      <trkpt lat="43.42739" lon="2.65393">
        <ele>789.5</ele>
        <time>2022-06-21T11:19:55Z</time>
      </trkpt>
      <trkpt lat="43.4274" lon="2.65393">
        <ele>789.5</ele>
        <time>2022-06-21T11:19:56Z</time>
      </trkpt>
      <trkpt lat="43.42741" lon="2.65393">
        <ele>789.5</ele>
        <time>2022-06-21T11:19:57Z</time>
      </trkpt>
      <trkpt lat="43.42741" lon="2.65393">
        <ele>789.4</ele>
        <time>2022-06-21T11:19:58Z</time>
      </trkpt>
      <trkpt lat="43.42742" lon="2.65393">
        <ele>789.4</ele>
        <time>2022-06-21T11:19:59Z</time>
      </trkpt>
      <trkpt lat="43.42743" lon="2.65392">
        <ele>789.3</ele>
        <time>2022-06-21T11:20:00Z</time>
      </trkpt>
      <trkpt lat="43.42744" lon="2.65391">
        <ele>789.3</ele>
        <time>2022-06-21T11:20:01Z</time>
      </trkpt>
      <trkpt lat="43.42745" lon="2.65391">
        <ele>789.2</ele>
        <time>2022-06-21T11:20:02Z</time>
      </trkpt>
      <trkpt lat="43.42746" lon="2.6539">
        <ele>789.1</ele>
        <time>2022-06-21T11:20:03Z</time>
      </trkpt>
      <trkpt lat="43.42747" lon="2.6539">
        <ele>789.1</ele>
        <time>2022-06-21T11:20:04Z</time>
      </trkpt>
      <trkpt lat="43.42748" lon="2.65389">
        <ele>789</ele>
        <time>2022-06-21T11:20:05Z</time>
      </trkpt>
      <trkpt lat="43.42748" lon="2.65388">
        <ele>789</ele>
        <time>2022-06-21T11:20:06Z</time>
      </trkpt>
      <trkpt lat="43.42749" lon="2.65388">
        <ele>788.9</ele>
        <time>2022-06-21T11:20:07Z</time>
      </trkpt>
      <trkpt lat="43.42751" lon="2.65387">
        <ele>788.8</ele>
        <time>2022-06-21T11:20:08Z</time>
      </trkpt>
      <trkpt lat="43.42752" lon="2.65386">
        <ele>788.7</ele>
        <time>2022-06-21T11:20:09Z</time>
      </trkpt>
      <trkpt lat="43.42753" lon="2.65385">
        <ele>788.6</ele>
        <time>2022-06-21T11:20:10Z</time>
      </trkpt>
      <trkpt lat="43.42754" lon="2.65384">
        <ele>788.5</ele>
        <time>2022-06-21T11:20:11Z</time>
      </trkpt>
      <trkpt lat="43.42755" lon="2.65384">
        <ele>788.5</ele>
        <time>2022-06-21T11:20:12Z</time>
      </trkpt>
      <trkpt lat="43.42756" lon="2.65383">
        <ele>788.4</ele>
        <time>2022-06-21T11:20:13Z</time>
      </trkpt>
      <trkpt lat="43.42757" lon="2.65382">
        <ele>788.3</ele>
        <time>2022-06-21T11:20:14Z</time>
      </trkpt>
      <trkpt lat="43.42758" lon="2.65382">
        <ele>788.2</ele>
        <time>2022-06-21T11:20:15Z</time>
      </trkpt>
      <trkpt lat="43.42758" lon="2.65381">
        <ele>788.2</ele>
        <time>2022-06-21T11:20:16Z</time>
      </trkpt>
      <trkpt lat="43.42759" lon="2.6538">
        <ele>788.1</ele>
        <time>2022-06-21T11:20:17Z</time>
      </trkpt>
      <trkpt lat="43.42761" lon="2.65379">
        <ele>787.9</ele>
        <time>2022-06-21T11:20:18Z</time>
      </trkpt>
      <trkpt lat="43.42762" lon="2.65379">
        <ele>787.9</ele>
        <time>2022-06-21T11:20:19Z</time>
      </trkpt>
      <trkpt lat="43.42763" lon="2.65379">
        <ele>787.8</ele>
        <time>2022-06-21T11:20:20Z</time>
      </trkpt>
      <trkpt lat="43.42764" lon="2.65379">
        <ele>787.7</ele>
        <time>2022-06-21T11:20:21Z</time>
      </trkpt>
      <trkpt lat="43.42766" lon="2.65378">
        <ele>787.6</ele>
        <time>2022-06-21T11:20:22Z</time>
      </trkpt>
      <trkpt lat="43.42767" lon="2.65378">
        <ele>787.5</ele>
        <time>2022-06-21T11:20:23Z</time>
      </trkpt>
      <trkpt lat="43.42767" lon="2.65378">
        <ele>787.5</ele>
        <time>2022-06-21T11:20:24Z</time>
      </trkpt>
      <trkpt lat="43.42768" lon="2.65377">
        <ele>787.4</ele>
        <time>2022-06-21T11:20:25Z</time>
      </trkpt>
      <trkpt lat="43.4277" lon="2.65376">
        <ele>787.3</ele>
        <time>2022-06-21T11:20:26Z</time>
      </trkpt>
      <trkpt lat="43.42771" lon="2.65376">
        <ele>787.2</ele>
        <time>2022-06-21T11:20:27Z</time>
      </trkpt>
      <trkpt lat="43.42772" lon="2.65376">
        <ele>787.1</ele>
        <time>2022-06-21T11:20:28Z</time>
      </trkpt>
      <trkpt lat="43.42772" lon="2.65376">
        <ele>787.1</ele>
        <time>2022-06-21T11:20:29Z</time>
      </trkpt>
      <trkpt lat="43.42773" lon="2.65376">
        <ele>787</ele>
        <time>2022-06-21T11:20:30Z</time>
      </trkpt>
      <trkpt lat="43.42774" lon="2.65376">
        <ele>786.9</ele>
        <time>2022-06-21T11:20:31Z</time>
      </trkpt>
      <trkpt lat="43.42776" lon="2.65375">
        <ele>786.8</ele>
        <time>2022-06-21T11:20:32Z</time>
      </trkpt>
      <trkpt lat="43.42777" lon="2.65375">
        <ele>786.7</ele>
        <time>2022-06-21T11:20:33Z</time>
      </trkpt>
      <trkpt lat="43.42778" lon="2.65374">
        <ele>786.6</ele>
        <time>2022-06-21T11:20:34Z</time>
      </trkpt>
      <trkpt lat="43.42779" lon="2.65374">
        <ele>786.5</ele>
        <time>2022-06-21T11:20:35Z</time>
      </trkpt>
      <trkpt lat="43.42781" lon="2.65373">
        <ele>786.3</ele>
        <time>2022-06-21T11:20:36Z</time>
      </trkpt>
      <trkpt lat="43.42781" lon="2.65373">
        <ele>786.2</ele>
        <time>2022-06-21T11:20:37Z</time>
      </trkpt>
      <trkpt lat="43.42782" lon="2.65373">
        <ele>786.2</ele>
        <time>2022-06-21T11:20:38Z</time>
      </trkpt>
      <trkpt lat="43.42783" lon="2.65372">
        <ele>786.1</ele>
        <time>2022-06-21T11:20:39Z</time>
      </trkpt>
      <trkpt lat="43.42784" lon="2.65372">
        <ele>786</ele>
        <time>2022-06-21T11:20:40Z</time>
      </trkpt>
      <trkpt lat="43.42785" lon="2.65372">
        <ele>785.9</ele>
        <time>2022-06-21T11:20:41Z</time>
      </trkpt>
      <trkpt lat="43.42786" lon="2.65372">
        <ele>785.8</ele>
        <time>2022-06-21T11:20:42Z</time>
      </trkpt>
      <trkpt lat="43.42787" lon="2.65372">
        <ele>785.8</ele>
        <time>2022-06-21T11:20:43Z</time>
      </trkpt>
      <trkpt lat="43.42789" lon="2.65372">
        <ele>785.6</ele>
        <time>2022-06-21T11:20:44Z</time>
      </trkpt>
      <trkpt lat="43.42789" lon="2.65371">
        <ele>785.6</ele>
        <time>2022-06-21T11:20:45Z</time>
      </trkpt>
      <trkpt lat="43.4279" lon="2.65371">
        <ele>785.5</ele>
        <time>2022-06-21T11:20:46Z</time>
      </trkpt>
      <trkpt lat="43.42791" lon="2.6537">
        <ele>785.4</ele>
        <time>2022-06-21T11:20:47Z</time>
      </trkpt>
      <trkpt lat="43.42792" lon="2.6537">
        <ele>785.3</ele>
        <time>2022-06-21T11:20:48Z</time>
      </trkpt>
      <trkpt lat="43.42793" lon="2.65369">
        <ele>785.3</ele>
        <time>2022-06-21T11:20:49Z</time>
      </trkpt>
      <trkpt lat="43.42795" lon="2.65369">
        <ele>785.1</ele>
        <time>2022-06-21T11:20:50Z</time>
      </trkpt>
      <trkpt lat="43.42796" lon="2.65368">
        <ele>785.1</ele>
        <time>2022-06-21T11:20:51Z</time>
      </trkpt>
      <trkpt lat="43.42797" lon="2.65368">
        <ele>785</ele>
        <time>2022-06-21T11:20:52Z</time>
      </trkpt>
      <trkpt lat="43.42798" lon="2.65368">
        <ele>784.9</ele>
        <time>2022-06-21T11:20:53Z</time>
      </trkpt>
      <trkpt lat="43.42799" lon="2.65367">
        <ele>784.8</ele>
        <time>2022-06-21T11:20:54Z</time>
      </trkpt>
      <trkpt lat="43.428" lon="2.65367">
        <ele>784.7</ele>
        <time>2022-06-21T11:20:55Z</time>
      </trkpt>
      <trkpt lat="43.42801" lon="2.65366">
        <ele>784.7</ele>
        <time>2022-06-21T11:20:56Z</time>
      </trkpt>
      <trkpt lat="43.42802" lon="2.65366">
        <ele>784.6</ele>
        <time>2022-06-21T11:20:57Z</time>
      </trkpt>
      <trkpt lat="43.42803" lon="2.65365">
        <ele>784.5</ele>
        <time>2022-06-21T11:20:58Z</time>
      </trkpt>
      <trkpt lat="43.42804" lon="2.65365">
        <ele>784.5</ele>
        <time>2022-06-21T11:20:59Z</time>
      </trkpt>
      <trkpt lat="43.42804" lon="2.65364">
        <ele>784.4</ele>
        <time>2022-06-21T11:21:00Z</time>
      </trkpt>
      <trkpt lat="43.42805" lon="2.65364">
        <ele>784.4</ele>
        <time>2022-06-21T11:21:01Z</time>
      </trkpt>
      <trkpt lat="43.42806" lon="2.65363">
        <ele>784.3</ele>
        <time>2022-06-21T11:21:02Z</time>
      </trkpt>
      <trkpt lat="43.42807" lon="2.65363">
        <ele>784.2</ele>
        <time>2022-06-21T11:21:03Z</time>
      </trkpt>
      <trkpt lat="43.42808" lon="2.65362">
        <ele>784.1</ele>
        <time>2022-06-21T11:21:04Z</time>
      </trkpt>
      <trkpt lat="43.42809" lon="2.65361">
        <ele>784.1</ele>
        <time>2022-06-21T11:21:05Z</time>
      </trkpt>
      <trkpt lat="43.42809" lon="2.65361">
        <ele>784</ele>
        <time>2022-06-21T11:21:06Z</time>
      </trkpt>
      <trkpt lat="43.4281" lon="2.6536">
        <ele>783.9</ele>
        <time>2022-06-21T11:21:07Z</time>
      </trkpt>
      <trkpt lat="43.42811" lon="2.65359">
        <ele>783.9</ele>
        <time>2022-06-21T11:21:08Z</time>
      </trkpt>
      <trkpt lat="43.42812" lon="2.65359">
        <ele>783.8</ele>
        <time>2022-06-21T11:21:09Z</time>
      </trkpt>
      <trkpt lat="43.42813" lon="2.65359">
        <ele>783.7</ele>
        <time>2022-06-21T11:21:10Z</time>
      </trkpt>
      <trkpt lat="43.42814" lon="2.65358">
        <ele>783.7</ele>
        <time>2022-06-21T11:21:11Z</time>
      </trkpt>
      <trkpt lat="43.42815" lon="2.65358">
        <ele>783.6</ele>
        <time>2022-06-21T11:21:12Z</time>
      </trkpt>
      <trkpt lat="43.42816" lon="2.65357">
        <ele>783.5</ele>
        <time>2022-06-21T11:21:13Z</time>
      </trkpt>
      <trkpt lat="43.42818" lon="2.65356">
        <ele>783.4</ele>
        <time>2022-06-21T11:21:14Z</time>
      </trkpt>
      <trkpt lat="43.42819" lon="2.65355">
        <ele>783.3</ele>
        <time>2022-06-21T11:21:15Z</time>
      </trkpt>
      <trkpt lat="43.4282" lon="2.65354">
        <ele>783.3</ele>
        <time>2022-06-21T11:21:16Z</time>
      </trkpt>
      <trkpt lat="43.42821" lon="2.65353">
        <ele>783.2</ele>
        <time>2022-06-21T11:21:17Z</time>
      </trkpt>
      <trkpt lat="43.42823" lon="2.65352">
        <ele>783.1</ele>
        <time>2022-06-21T11:21:18Z</time>
      </trkpt>
      <trkpt lat="43.42824" lon="2.65351">
        <ele>783</ele>
        <time>2022-06-21T11:21:19Z</time>
      </trkpt>
      <trkpt lat="43.42825" lon="2.6535">
        <ele>783</ele>
        <time>2022-06-21T11:21:20Z</time>
      </trkpt>
      <trkpt lat="43.42825" lon="2.65349">
        <ele>783</ele>
        <time>2022-06-21T11:21:21Z</time>
      </trkpt>
      <trkpt lat="43.42825" lon="2.65349">
        <ele>782.9</ele>
        <time>2022-06-21T11:21:22Z</time>
      </trkpt>
      <trkpt lat="43.42826" lon="2.65349">
        <ele>782.9</ele>
        <time>2022-06-21T11:21:23Z</time>
      </trkpt>
      <trkpt lat="43.42826" lon="2.65348">
        <ele>782.9</ele>
        <time>2022-06-21T11:21:24Z</time>
      </trkpt>
      <trkpt lat="43.42826" lon="2.65348">
        <ele>782.9</ele>
        <time>2022-06-21T11:21:25Z</time>
      </trkpt>
      <trkpt lat="43.42828" lon="2.65348">
        <ele>782.8</ele>
        <time>2022-06-21T11:21:26Z</time>
      </trkpt>
      <trkpt lat="43.4283" lon="2.65347">
        <ele>782.7</ele>
        <time>2022-06-21T11:21:27Z</time>
      </trkpt>
      <trkpt lat="43.4283" lon="2.65347">
        <ele>782.7</ele>
        <time>2022-06-21T11:21:28Z</time>
      </trkpt>
      <trkpt lat="43.42831" lon="2.65347">
        <ele>782.6</ele>
        <time>2022-06-21T11:21:29Z</time>
      </trkpt>
      <trkpt lat="43.42832" lon="2.65346">
        <ele>782.5</ele>
        <time>2022-06-21T11:21:30Z</time>
      </trkpt>
      <trkpt lat="43.42834" lon="2.65345">
        <ele>782.4</ele>
        <time>2022-06-21T11:21:31Z</time>
      </trkpt>
      <trkpt lat="43.42836" lon="2.65345">
        <ele>782.3</ele>
        <time>2022-06-21T11:21:32Z</time>
      </trkpt>
      <trkpt lat="43.42837" lon="2.65344">
        <ele>782.2</ele>
        <time>2022-06-21T11:21:33Z</time>
      </trkpt>
      <trkpt lat="43.42838" lon="2.65344">
        <ele>782.2</ele>
        <time>2022-06-21T11:21:34Z</time>
      </trkpt>
      <trkpt lat="43.42839" lon="2.65343">
        <ele>782.1</ele>
        <time>2022-06-21T11:21:35Z</time>
      </trkpt>
      <trkpt lat="43.4284" lon="2.65343">
        <ele>782</ele>
        <time>2022-06-21T11:21:36Z</time>
      </trkpt>
      <trkpt lat="43.4284" lon="2.65341">
        <ele>781.9</ele>
        <time>2022-06-21T11:21:37Z</time>
      </trkpt>
      <trkpt lat="43.4284" lon="2.65341">
        <ele>781.9</ele>
        <time>2022-06-21T11:21:38Z</time>
      </trkpt>
      <trkpt lat="43.4284" lon="2.65341">
        <ele>781.9</ele>
        <time>2022-06-21T11:21:39Z</time>
      </trkpt>
      <trkpt lat="43.42841" lon="2.6534">
        <ele>781.8</ele>
        <time>2022-06-21T11:21:40Z</time>
      </trkpt>
      <trkpt lat="43.42841" lon="2.6534">
        <ele>781.8</ele>
        <time>2022-06-21T11:21:41Z</time>
      </trkpt>
      <trkpt lat="43.42842" lon="2.65339">
        <ele>781.7</ele>
        <time>2022-06-21T11:21:42Z</time>
      </trkpt>
      <trkpt lat="43.42843" lon="2.65338">
        <ele>781.7</ele>
        <time>2022-06-21T11:21:43Z</time>
      </trkpt>
      <trkpt lat="43.42843" lon="2.65337">
        <ele>781.6</ele>
        <time>2022-06-21T11:21:44Z</time>
      </trkpt>
      <trkpt lat="43.42844" lon="2.65337">
        <ele>781.5</ele>
        <time>2022-06-21T11:21:45Z</time>
      </trkpt>
      <trkpt lat="43.42845" lon="2.65336">
        <ele>781.5</ele>
        <time>2022-06-21T11:21:46Z</time>
      </trkpt>
      <trkpt lat="43.42845" lon="2.65336">
        <ele>781.4</ele>
        <time>2022-06-21T11:21:47Z</time>
      </trkpt>
      <trkpt lat="43.42846" lon="2.65336">
        <ele>781.4</ele>
        <time>2022-06-21T11:21:48Z</time>
      </trkpt>
      <trkpt lat="43.42846" lon="2.65335">
        <ele>781.4</ele>
        <time>2022-06-21T11:21:49Z</time>
      </trkpt>
      <trkpt lat="43.42846" lon="2.65335">
        <ele>781.3</ele>
        <time>2022-06-21T11:21:50Z</time>
      </trkpt>
      <trkpt lat="43.42847" lon="2.65335">
        <ele>781.3</ele>
        <time>2022-06-21T11:21:51Z</time>
      </trkpt>
      <trkpt lat="43.42847" lon="2.65335">
        <ele>781.3</ele>
        <time>2022-06-21T11:21:52Z</time>
      </trkpt>
      <trkpt lat="43.42847" lon="2.65335">
        <ele>781.3</ele>
        <time>2022-06-21T11:21:53Z</time>
      </trkpt>
      <trkpt lat="43.42847" lon="2.65335">
        <ele>781.3</ele>
        <time>2022-06-21T11:21:54Z</time>
      </trkpt>
      <trkpt lat="43.42847" lon="2.65334">
        <ele>781.2</ele>
        <time>2022-06-21T11:21:55Z</time>
      </trkpt>
      <trkpt lat="43.42848" lon="2.65333">
        <ele>781.2</ele>
        <time>2022-06-21T11:21:56Z</time>
      </trkpt>
      <trkpt lat="43.42848" lon="2.65333">
        <ele>781.2</ele>
        <time>2022-06-21T11:21:57Z</time>
      </trkpt>
      <trkpt lat="43.42848" lon="2.65333">
        <ele>781.2</ele>
        <time>2022-06-21T11:21:58Z</time>
      </trkpt>
      <trkpt lat="43.42848" lon="2.65333">
        <ele>781.2</ele>
        <time>2022-06-21T11:21:59Z</time>
      </trkpt>
      <trkpt lat="43.42848" lon="2.65332">
        <ele>781.2</ele>
        <time>2022-06-21T11:22:00Z</time>
      </trkpt>
      <trkpt lat="43.42848" lon="2.65332">
        <ele>781.2</ele>
        <time>2022-06-21T11:22:01Z</time>
      </trkpt>
      <trkpt lat="43.42848" lon="2.65333">
        <ele>781.1</ele>
        <time>2022-06-21T11:22:02Z</time>
      </trkpt>
      <trkpt lat="43.42848" lon="2.65333">
        <ele>781.1</ele>
        <time>2022-06-21T11:22:03Z</time>
      </trkpt>
      <trkpt lat="43.42848" lon="2.65333">
        <ele>781.1</ele>
        <time>2022-06-21T11:22:04Z</time>
      </trkpt>
      <trkpt lat="43.42848" lon="2.65333">
        <ele>781.1</ele>
        <time>2022-06-21T11:22:05Z</time>
      </trkpt>
      <trkpt lat="43.42848" lon="2.65333">
        <ele>781.1</ele>
        <time>2022-06-21T11:22:06Z</time>
      </trkpt>
      <trkpt lat="43.42848" lon="2.65333">
        <ele>781.1</ele>
        <time>2022-06-21T11:22:07Z</time>
      </trkpt>
      <trkpt lat="43.42848" lon="2.65332">
        <ele>781.1</ele>
        <time>2022-06-21T11:22:08Z</time>
      </trkpt>
      <trkpt lat="43.42849" lon="2.65332">
        <ele>781.1</ele>
        <time>2022-06-21T11:22:09Z</time>
      </trkpt>
      <trkpt lat="43.42849" lon="2.65331">
        <ele>781</ele>
        <time>2022-06-21T11:22:10Z</time>
      </trkpt>
      <trkpt lat="43.4285" lon="2.65331">
        <ele>781</ele>
        <time>2022-06-21T11:22:11Z</time>
      </trkpt>
      <trkpt lat="43.42851" lon="2.6533">
        <ele>781</ele>
        <time>2022-06-21T11:22:12Z</time>
      </trkpt>
      <trkpt lat="43.42851" lon="2.65329">
        <ele>780.9</ele>
        <time>2022-06-21T11:22:13Z</time>
      </trkpt>
      <trkpt lat="43.42852" lon="2.65328">
        <ele>780.8</ele>
        <time>2022-06-21T11:22:14Z</time>
      </trkpt>
      <trkpt lat="43.42853" lon="2.65327">
        <ele>780.8</ele>
        <time>2022-06-21T11:22:15Z</time>
      </trkpt>
      <trkpt lat="43.42853" lon="2.65326">
        <ele>780.8</ele>
        <time>2022-06-21T11:22:16Z</time>
      </trkpt>
      <trkpt lat="43.42854" lon="2.65325">
        <ele>780.7</ele>
        <time>2022-06-21T11:22:17Z</time>
      </trkpt>
      <trkpt lat="43.42854" lon="2.65325">
        <ele>780.7</ele>
        <time>2022-06-21T11:22:18Z</time>
      </trkpt>
      <trkpt lat="43.42855" lon="2.65323">
        <ele>780.6</ele>
        <time>2022-06-21T11:22:19Z</time>
      </trkpt>
      <trkpt lat="43.42855" lon="2.65322">
        <ele>780.6</ele>
        <time>2022-06-21T11:22:20Z</time>
      </trkpt>
      <trkpt lat="43.42857" lon="2.6532">
        <ele>780.5</ele>
        <time>2022-06-21T11:22:21Z</time>
      </trkpt>
      <trkpt lat="43.42857" lon="2.65319">
        <ele>780.5</ele>
        <time>2022-06-21T11:22:22Z</time>
      </trkpt>
      <trkpt lat="43.42858" lon="2.65318">
        <ele>780.4</ele>
        <time>2022-06-21T11:22:23Z</time>
      </trkpt>
      <trkpt lat="43.42859" lon="2.65317">
        <ele>780.4</ele>
        <time>2022-06-21T11:22:24Z</time>
      </trkpt>
      <trkpt lat="43.42859" lon="2.65316">
        <ele>780.3</ele>
        <time>2022-06-21T11:22:25Z</time>
      </trkpt>
      <trkpt lat="43.4286" lon="2.65315">
        <ele>780.3</ele>
        <time>2022-06-21T11:22:26Z</time>
      </trkpt>
      <trkpt lat="43.42861" lon="2.65315">
        <ele>780.2</ele>
        <time>2022-06-21T11:22:27Z</time>
      </trkpt>
      <trkpt lat="43.42862" lon="2.65314">
        <ele>780.2</ele>
        <time>2022-06-21T11:22:28Z</time>
      </trkpt>
      <trkpt lat="43.42863" lon="2.65313">
        <ele>780.1</ele>
        <time>2022-06-21T11:22:29Z</time>
      </trkpt>
      <trkpt lat="43.42864" lon="2.65312">
        <ele>780.1</ele>
        <time>2022-06-21T11:22:30Z</time>
      </trkpt>
      <trkpt lat="43.42864" lon="2.65311">
        <ele>780</ele>
        <time>2022-06-21T11:22:31Z</time>
      </trkpt>
      <trkpt lat="43.42865" lon="2.6531">
        <ele>780</ele>
        <time>2022-06-21T11:22:32Z</time>
      </trkpt>
      <trkpt lat="43.42865" lon="2.65309">
        <ele>780</ele>
        <time>2022-06-21T11:22:33Z</time>
      </trkpt>
      <trkpt lat="43.42866" lon="2.65309">
        <ele>779.9</ele>
        <time>2022-06-21T11:22:34Z</time>
      </trkpt>
      <trkpt lat="43.42866" lon="2.65308">
        <ele>779.9</ele>
        <time>2022-06-21T11:22:35Z</time>
      </trkpt>
      <trkpt lat="43.42867" lon="2.65307">
        <ele>779.8</ele>
        <time>2022-06-21T11:22:36Z</time>
      </trkpt>
      <trkpt lat="43.42867" lon="2.65306">
        <ele>779.8</ele>
        <time>2022-06-21T11:22:37Z</time>
      </trkpt>
      <trkpt lat="43.42868" lon="2.65305">
        <ele>779.7</ele>
        <time>2022-06-21T11:22:38Z</time>
      </trkpt>
      <trkpt lat="43.42868" lon="2.65303">
        <ele>779.7</ele>
        <time>2022-06-21T11:22:39Z</time>
      </trkpt>
      <trkpt lat="43.42869" lon="2.65302">
        <ele>779.6</ele>
        <time>2022-06-21T11:22:40Z</time>
      </trkpt>
      <trkpt lat="43.4287" lon="2.65302">
        <ele>779.6</ele>
        <time>2022-06-21T11:22:41Z</time>
      </trkpt>
      <trkpt lat="43.42871" lon="2.65301">
        <ele>779.5</ele>
        <time>2022-06-21T11:22:42Z</time>
      </trkpt>
      <trkpt lat="43.42871" lon="2.65301">
        <ele>779.5</ele>
        <time>2022-06-21T11:22:43Z</time>
      </trkpt>
      <trkpt lat="43.42872" lon="2.653">
        <ele>779.5</ele>
        <time>2022-06-21T11:22:44Z</time>
      </trkpt>
      <trkpt lat="43.42872" lon="2.653">
        <ele>779.4</ele>
        <time>2022-06-21T11:22:45Z</time>
      </trkpt>
      <trkpt lat="43.42873" lon="2.65299">
        <ele>779.4</ele>
        <time>2022-06-21T11:22:46Z</time>
      </trkpt>
      <trkpt lat="43.42874" lon="2.65298">
        <ele>779.3</ele>
        <time>2022-06-21T11:22:47Z</time>
      </trkpt>
      <trkpt lat="43.42875" lon="2.65296">
        <ele>779.3</ele>
        <time>2022-06-21T11:22:48Z</time>
      </trkpt>
      <trkpt lat="43.42875" lon="2.65295">
        <ele>779.2</ele>
        <time>2022-06-21T11:22:49Z</time>
      </trkpt>
      <trkpt lat="43.42876" lon="2.65294">
        <ele>779.1</ele>
        <time>2022-06-21T11:22:50Z</time>
      </trkpt>
      <trkpt lat="43.42876" lon="2.65293">
        <ele>779.1</ele>
        <time>2022-06-21T11:22:51Z</time>
      </trkpt>
      <trkpt lat="43.42877" lon="2.65292">
        <ele>779</ele>
        <time>2022-06-21T11:22:52Z</time>
      </trkpt>
      <trkpt lat="43.42877" lon="2.65292">
        <ele>779</ele>
        <time>2022-06-21T11:22:53Z</time>
      </trkpt>
      <trkpt lat="43.42878" lon="2.65291">
        <ele>779</ele>
        <time>2022-06-21T11:22:54Z</time>
      </trkpt>
      <trkpt lat="43.42878" lon="2.65291">
        <ele>779</ele>
        <time>2022-06-21T11:22:55Z</time>
      </trkpt>
      <trkpt lat="43.42878" lon="2.65291">
        <ele>779</ele>
        <time>2022-06-21T11:22:56Z</time>
      </trkpt>
      <trkpt lat="43.42878" lon="2.65291">
        <ele>779</ele>
        <time>2022-06-21T11:22:57Z</time>
      </trkpt>
      <trkpt lat="43.42878" lon="2.65291">
        <ele>779</ele>
        <time>2022-06-21T11:22:58Z</time>
      </trkpt>
      <trkpt lat="43.42878" lon="2.65291">
        <ele>779</ele>
        <time>2022-06-21T11:22:59Z</time>
      </trkpt>
      <trkpt lat="43.42878" lon="2.65291">
        <ele>779</ele>
        <time>2022-06-21T11:23:00Z</time>
      </trkpt>
      <trkpt lat="43.42878" lon="2.65291">
        <ele>779</ele>
        <time>2022-06-21T11:23:01Z</time>
      </trkpt>
      <trkpt lat="43.42877" lon="2.65291">
        <ele>778.9</ele>
        <time>2022-06-21T11:23:02Z</time>
      </trkpt>
      <trkpt lat="43.42878" lon="2.65291">
        <ele>778.9</ele>
        <time>2022-06-21T11:23:03Z</time>
      </trkpt>
      <trkpt lat="43.42878" lon="2.65291">
        <ele>778.9</ele>
        <time>2022-06-21T11:23:04Z</time>
      </trkpt>
      <trkpt lat="43.42879" lon="2.6529">
        <ele>778.8</ele>
        <time>2022-06-21T11:23:05Z</time>
      </trkpt>
      <trkpt lat="43.42879" lon="2.65289">
        <ele>778.8</ele>
        <time>2022-06-21T11:23:06Z</time>
      </trkpt>
      <trkpt lat="43.4288" lon="2.65289">
        <ele>778.8</ele>
        <time>2022-06-21T11:23:07Z</time>
      </trkpt>
      <trkpt lat="43.4288" lon="2.65289">
        <ele>778.7</ele>
        <time>2022-06-21T11:23:08Z</time>
      </trkpt>
      <trkpt lat="43.42881" lon="2.65288">
        <ele>778.7</ele>
        <time>2022-06-21T11:23:09Z</time>
      </trkpt>
      <trkpt lat="43.42882" lon="2.65287">
        <ele>778.6</ele>
        <time>2022-06-21T11:23:10Z</time>
      </trkpt>
      <trkpt lat="43.42882" lon="2.65287">
        <ele>778.6</ele>
        <time>2022-06-21T11:23:11Z</time>
      </trkpt>
      <trkpt lat="43.42882" lon="2.65286">
        <ele>778.6</ele>
        <time>2022-06-21T11:23:12Z</time>
      </trkpt>
      <trkpt lat="43.42883" lon="2.65285">
        <ele>778.5</ele>
        <time>2022-06-21T11:23:13Z</time>
      </trkpt>
      <trkpt lat="43.42884" lon="2.65283">
        <ele>778.4</ele>
        <time>2022-06-21T11:23:14Z</time>
      </trkpt>
      <trkpt lat="43.42884" lon="2.65281">
        <ele>778.4</ele>
        <time>2022-06-21T11:23:15Z</time>
      </trkpt>
      <trkpt lat="43.42885" lon="2.6528">
        <ele>778.3</ele>
        <time>2022-06-21T11:23:16Z</time>
      </trkpt>
      <trkpt lat="43.42886" lon="2.65278">
        <ele>778.2</ele>
        <time>2022-06-21T11:23:17Z</time>
      </trkpt>
      <trkpt lat="43.42887" lon="2.65277">
        <ele>778.2</ele>
        <time>2022-06-21T11:23:18Z</time>
      </trkpt>
      <trkpt lat="43.42887" lon="2.65276">
        <ele>778.1</ele>
        <time>2022-06-21T11:23:19Z</time>
      </trkpt>
      <trkpt lat="43.42888" lon="2.65274">
        <ele>778.1</ele>
        <time>2022-06-21T11:23:20Z</time>
      </trkpt>
      <trkpt lat="43.42888" lon="2.65274">
        <ele>778</ele>
        <time>2022-06-21T11:23:21Z</time>
      </trkpt>
      <trkpt lat="43.42889" lon="2.65273">
        <ele>778</ele>
        <time>2022-06-21T11:23:22Z</time>
      </trkpt>
      <trkpt lat="43.4289" lon="2.6527">
        <ele>777.9</ele>
        <time>2022-06-21T11:23:23Z</time>
      </trkpt>
      <trkpt lat="43.4289" lon="2.65269">
        <ele>777.8</ele>
        <time>2022-06-21T11:23:24Z</time>
      </trkpt>
      <trkpt lat="43.42891" lon="2.65268">
        <ele>777.8</ele>
        <time>2022-06-21T11:23:25Z</time>
      </trkpt>
      <trkpt lat="43.42892" lon="2.65267">
        <ele>777.7</ele>
        <time>2022-06-21T11:23:26Z</time>
      </trkpt>
      <trkpt lat="43.42893" lon="2.65267">
        <ele>777.7</ele>
        <time>2022-06-21T11:23:27Z</time>
      </trkpt>
      <trkpt lat="43.42894" lon="2.65266">
        <ele>777.6</ele>
        <time>2022-06-21T11:23:28Z</time>
      </trkpt>
      <trkpt lat="43.42894" lon="2.65265">
        <ele>777.6</ele>
        <time>2022-06-21T11:23:29Z</time>
      </trkpt>
      <trkpt lat="43.42894" lon="2.65264">
        <ele>777.6</ele>
        <time>2022-06-21T11:23:30Z</time>
      </trkpt>
      <trkpt lat="43.42894" lon="2.65263">
        <ele>777.5</ele>
        <time>2022-06-21T11:23:31Z</time>
      </trkpt>
      <trkpt lat="43.42895" lon="2.65262">
        <ele>777.5</ele>
        <time>2022-06-21T11:23:32Z</time>
      </trkpt>
      <trkpt lat="43.42896" lon="2.65262">
        <ele>777.5</ele>
        <time>2022-06-21T11:23:33Z</time>
      </trkpt>
      <trkpt lat="43.42897" lon="2.65261">
        <ele>777.4</ele>
        <time>2022-06-21T11:23:34Z</time>
      </trkpt>
      <trkpt lat="43.42897" lon="2.6526">
        <ele>777.3</ele>
        <time>2022-06-21T11:23:35Z</time>
      </trkpt>
      <trkpt lat="43.42898" lon="2.6526">
        <ele>777.3</ele>
        <time>2022-06-21T11:23:36Z</time>
      </trkpt>
      <trkpt lat="43.42898" lon="2.65259">
        <ele>777.3</ele>
        <time>2022-06-21T11:23:37Z</time>
      </trkpt>
      <trkpt lat="43.42899" lon="2.65258">
        <ele>777.2</ele>
        <time>2022-06-21T11:23:38Z</time>
      </trkpt>
      <trkpt lat="43.42899" lon="2.65258">
        <ele>777.2</ele>
        <time>2022-06-21T11:23:39Z</time>
      </trkpt>
      <trkpt lat="43.429" lon="2.65257">
        <ele>777.2</ele>
        <time>2022-06-21T11:23:40Z</time>
      </trkpt>
      <trkpt lat="43.429" lon="2.65256">
        <ele>777.1</ele>
        <time>2022-06-21T11:23:41Z</time>
      </trkpt>
      <trkpt lat="43.429" lon="2.65256">
        <ele>777.1</ele>
        <time>2022-06-21T11:23:42Z</time>
      </trkpt>
      <trkpt lat="43.42901" lon="2.65255">
        <ele>777</ele>
        <time>2022-06-21T11:23:43Z</time>
      </trkpt>
      <trkpt lat="43.42901" lon="2.65254">
        <ele>777</ele>
        <time>2022-06-21T11:23:44Z</time>
      </trkpt>
      <trkpt lat="43.42901" lon="2.65254">
        <ele>777</ele>
        <time>2022-06-21T11:23:45Z</time>
      </trkpt>
      <trkpt lat="43.42901" lon="2.65254">
        <ele>777</ele>
        <time>2022-06-21T11:23:46Z</time>
      </trkpt>
      <trkpt lat="43.42901" lon="2.65253">
        <ele>776.9</ele>
        <time>2022-06-21T11:23:47Z</time>
      </trkpt>
      <trkpt lat="43.42902" lon="2.65252">
        <ele>776.9</ele>
        <time>2022-06-21T11:23:48Z</time>
      </trkpt>
      <trkpt lat="43.42902" lon="2.65252">
        <ele>776.8</ele>
        <time>2022-06-21T11:23:49Z</time>
      </trkpt>
      <trkpt lat="43.42903" lon="2.65251">
        <ele>776.8</ele>
        <time>2022-06-21T11:23:50Z</time>
      </trkpt>
      <trkpt lat="43.42903" lon="2.6525">
        <ele>776.7</ele>
        <time>2022-06-21T11:23:51Z</time>
      </trkpt>
      <trkpt lat="43.42904" lon="2.6525">
        <ele>776.7</ele>
        <time>2022-06-21T11:23:52Z</time>
      </trkpt>
      <trkpt lat="43.42905" lon="2.65249">
        <ele>776.6</ele>
        <time>2022-06-21T11:23:53Z</time>
      </trkpt>
      <trkpt lat="43.42905" lon="2.65248">
        <ele>776.5</ele>
        <time>2022-06-21T11:23:54Z</time>
      </trkpt>
      <trkpt lat="43.42906" lon="2.65247">
        <ele>776.4</ele>
        <time>2022-06-21T11:23:55Z</time>
      </trkpt>
      <trkpt lat="43.42906" lon="2.65246">
        <ele>776.4</ele>
        <time>2022-06-21T11:23:56Z</time>
      </trkpt>
      <trkpt lat="43.42907" lon="2.65246">
        <ele>776.3</ele>
        <time>2022-06-21T11:23:57Z</time>
      </trkpt>
      <trkpt lat="43.42907" lon="2.65245">
        <ele>776.3</ele>
        <time>2022-06-21T11:23:58Z</time>
      </trkpt>
      <trkpt lat="43.42908" lon="2.65245">
        <ele>776.2</ele>
        <time>2022-06-21T11:23:59Z</time>
      </trkpt>
      <trkpt lat="43.42908" lon="2.65245">
        <ele>776.2</ele>
        <time>2022-06-21T11:24:00Z</time>
      </trkpt>
      <trkpt lat="43.42908" lon="2.65244">
        <ele>776.2</ele>
        <time>2022-06-21T11:24:01Z</time>
      </trkpt>
      <trkpt lat="43.42909" lon="2.65244">
        <ele>776.1</ele>
        <time>2022-06-21T11:24:02Z</time>
      </trkpt>
      <trkpt lat="43.4291" lon="2.65242">
        <ele>776</ele>
        <time>2022-06-21T11:24:03Z</time>
      </trkpt>
      <trkpt lat="43.42911" lon="2.65241">
        <ele>775.9</ele>
        <time>2022-06-21T11:24:04Z</time>
      </trkpt>
      <trkpt lat="43.42911" lon="2.6524">
        <ele>775.8</ele>
        <time>2022-06-21T11:24:05Z</time>
      </trkpt>
      <trkpt lat="43.42911" lon="2.6524">
        <ele>775.8</ele>
        <time>2022-06-21T11:24:06Z</time>
      </trkpt>
      <trkpt lat="43.42912" lon="2.65239">
        <ele>775.7</ele>
        <time>2022-06-21T11:24:07Z</time>
      </trkpt>
      <trkpt lat="43.42912" lon="2.65238">
        <ele>775.7</ele>
        <time>2022-06-21T11:24:08Z</time>
      </trkpt>
      <trkpt lat="43.42913" lon="2.65237">
        <ele>775.6</ele>
        <time>2022-06-21T11:24:09Z</time>
      </trkpt>
      <trkpt lat="43.42913" lon="2.65237">
        <ele>775.6</ele>
        <time>2022-06-21T11:24:10Z</time>
      </trkpt>
      <trkpt lat="43.42913" lon="2.65236">
        <ele>775.5</ele>
        <time>2022-06-21T11:24:11Z</time>
      </trkpt>
      <trkpt lat="43.42914" lon="2.65235">
        <ele>775.4</ele>
        <time>2022-06-21T11:24:12Z</time>
      </trkpt>
      <trkpt lat="43.42916" lon="2.65233">
        <ele>775.2</ele>
        <time>2022-06-21T11:24:13Z</time>
      </trkpt>
      <trkpt lat="43.42916" lon="2.65232">
        <ele>775.2</ele>
        <time>2022-06-21T11:24:14Z</time>
      </trkpt>
      <trkpt lat="43.42917" lon="2.65231">
        <ele>775.1</ele>
        <time>2022-06-21T11:24:15Z</time>
      </trkpt>
      <trkpt lat="43.42918" lon="2.6523">
        <ele>775</ele>
        <time>2022-06-21T11:24:16Z</time>
      </trkpt>
      <trkpt lat="43.42918" lon="2.65229">
        <ele>774.9</ele>
        <time>2022-06-21T11:24:17Z</time>
      </trkpt>
      <trkpt lat="43.42919" lon="2.65228">
        <ele>774.9</ele>
        <time>2022-06-21T11:24:18Z</time>
      </trkpt>
      <trkpt lat="43.4292" lon="2.65227">
        <ele>774.8</ele>
        <time>2022-06-21T11:24:19Z</time>
      </trkpt>
      <trkpt lat="43.4292" lon="2.65225">
        <ele>774.7</ele>
        <time>2022-06-21T11:24:20Z</time>
      </trkpt>
      <trkpt lat="43.42921" lon="2.65224">
        <ele>774.6</ele>
        <time>2022-06-21T11:24:21Z</time>
      </trkpt>
      <trkpt lat="43.42922" lon="2.65223">
        <ele>774.5</ele>
        <time>2022-06-21T11:24:22Z</time>
      </trkpt>
      <trkpt lat="43.42922" lon="2.65221">
        <ele>774.4</ele>
        <time>2022-06-21T11:24:23Z</time>
      </trkpt>
      <trkpt lat="43.42923" lon="2.6522">
        <ele>774.3</ele>
        <time>2022-06-21T11:24:24Z</time>
      </trkpt>
      <trkpt lat="43.42924" lon="2.65219">
        <ele>774.2</ele>
        <time>2022-06-21T11:24:25Z</time>
      </trkpt>
      <trkpt lat="43.42924" lon="2.65218">
        <ele>774.1</ele>
        <time>2022-06-21T11:24:26Z</time>
      </trkpt>
      <trkpt lat="43.42925" lon="2.65217">
        <ele>774</ele>
        <time>2022-06-21T11:24:27Z</time>
      </trkpt>
      <trkpt lat="43.42927" lon="2.65214">
        <ele>773.9</ele>
        <time>2022-06-21T11:24:28Z</time>
      </trkpt>
      <trkpt lat="43.42927" lon="2.65214">
        <ele>773.8</ele>
        <time>2022-06-21T11:24:29Z</time>
      </trkpt>
      <trkpt lat="43.42928" lon="2.65213">
        <ele>773.7</ele>
        <time>2022-06-21T11:24:30Z</time>
      </trkpt>
      <trkpt lat="43.42928" lon="2.65212">
        <ele>773.7</ele>
        <time>2022-06-21T11:24:31Z</time>
      </trkpt>
      <trkpt lat="43.42929" lon="2.65211">
        <ele>773.6</ele>
        <time>2022-06-21T11:24:32Z</time>
      </trkpt>
      <trkpt lat="43.42929" lon="2.65209">
        <ele>773.5</ele>
        <time>2022-06-21T11:24:33Z</time>
      </trkpt>
      <trkpt lat="43.42931" lon="2.65207">
        <ele>773.3</ele>
        <time>2022-06-21T11:24:34Z</time>
      </trkpt>
      <trkpt lat="43.42931" lon="2.65206">
        <ele>773.2</ele>
        <time>2022-06-21T11:24:35Z</time>
      </trkpt>
      <trkpt lat="43.42932" lon="2.65206">
        <ele>773.2</ele>
        <time>2022-06-21T11:24:36Z</time>
      </trkpt>
      <trkpt lat="43.42933" lon="2.65205">
        <ele>773.1</ele>
        <time>2022-06-21T11:24:37Z</time>
      </trkpt>
      <trkpt lat="43.42933" lon="2.65203">
        <ele>773</ele>
        <time>2022-06-21T11:24:38Z</time>
      </trkpt>
      <trkpt lat="43.42934" lon="2.65202">
        <ele>772.9</ele>
        <time>2022-06-21T11:24:39Z</time>
      </trkpt>
      <trkpt lat="43.42935" lon="2.65201">
        <ele>772.7</ele>
        <time>2022-06-21T11:24:40Z</time>
      </trkpt>
      <trkpt lat="43.42936" lon="2.652">
        <ele>772.7</ele>
        <time>2022-06-21T11:24:41Z</time>
      </trkpt>
      <trkpt lat="43.42937" lon="2.65199">
        <ele>772.6</ele>
        <time>2022-06-21T11:24:42Z</time>
      </trkpt>
      <trkpt lat="43.42937" lon="2.65198">
        <ele>772.5</ele>
        <time>2022-06-21T11:24:43Z</time>
      </trkpt>
      <trkpt lat="43.42938" lon="2.65196">
        <ele>772.4</ele>
        <time>2022-06-21T11:24:44Z</time>
      </trkpt>
      <trkpt lat="43.42938" lon="2.65195">
        <ele>772.3</ele>
        <time>2022-06-21T11:24:45Z</time>
      </trkpt>
      <trkpt lat="43.42939" lon="2.65194">
        <ele>772.2</ele>
        <time>2022-06-21T11:24:46Z</time>
      </trkpt>
      <trkpt lat="43.4294" lon="2.65193">
        <ele>772.1</ele>
        <time>2022-06-21T11:24:47Z</time>
      </trkpt>
      <trkpt lat="43.4294" lon="2.65192">
        <ele>772.1</ele>
        <time>2022-06-21T11:24:48Z</time>
      </trkpt>
      <trkpt lat="43.42941" lon="2.6519">
        <ele>772</ele>
        <time>2022-06-21T11:24:49Z</time>
      </trkpt>
      <trkpt lat="43.42941" lon="2.65189">
        <ele>771.9</ele>
        <time>2022-06-21T11:24:50Z</time>
      </trkpt>
      <trkpt lat="43.42942" lon="2.65189">
        <ele>771.9</ele>
        <time>2022-06-21T11:24:51Z</time>
      </trkpt>
      <trkpt lat="43.42942" lon="2.65188">
        <ele>771.8</ele>
        <time>2022-06-21T11:24:52Z</time>
      </trkpt>
      <trkpt lat="43.42943" lon="2.65187">
        <ele>771.7</ele>
        <time>2022-06-21T11:24:53Z</time>
      </trkpt>
      <trkpt lat="43.42944" lon="2.65186">
        <ele>771.7</ele>
        <time>2022-06-21T11:24:54Z</time>
      </trkpt>
      <trkpt lat="43.42945" lon="2.65185">
        <ele>771.6</ele>
        <time>2022-06-21T11:24:55Z</time>
      </trkpt>
      <trkpt lat="43.42946" lon="2.65183">
        <ele>771.4</ele>
        <time>2022-06-21T11:24:56Z</time>
      </trkpt>
      <trkpt lat="43.42947" lon="2.65182">
        <ele>771.4</ele>
        <time>2022-06-21T11:24:57Z</time>
      </trkpt>
      <trkpt lat="43.42947" lon="2.65181">
        <ele>771.3</ele>
        <time>2022-06-21T11:24:58Z</time>
      </trkpt>
      <trkpt lat="43.42948" lon="2.6518">
        <ele>771.2</ele>
        <time>2022-06-21T11:24:59Z</time>
      </trkpt>
      <trkpt lat="43.42949" lon="2.65179">
        <ele>771.2</ele>
        <time>2022-06-21T11:25:00Z</time>
      </trkpt>
      <trkpt lat="43.4295" lon="2.65177">
        <ele>771.1</ele>
        <time>2022-06-21T11:25:01Z</time>
      </trkpt>
      <trkpt lat="43.4295" lon="2.65176">
        <ele>771</ele>
        <time>2022-06-21T11:25:02Z</time>
      </trkpt>
      <trkpt lat="43.42951" lon="2.65176">
        <ele>771</ele>
        <time>2022-06-21T11:25:03Z</time>
      </trkpt>
      <trkpt lat="43.42952" lon="2.65175">
        <ele>770.9</ele>
        <time>2022-06-21T11:25:04Z</time>
      </trkpt>
      <trkpt lat="43.42953" lon="2.65175">
        <ele>770.9</ele>
        <time>2022-06-21T11:25:05Z</time>
      </trkpt>
      <trkpt lat="43.42953" lon="2.65174">
        <ele>770.8</ele>
        <time>2022-06-21T11:25:06Z</time>
      </trkpt>
      <trkpt lat="43.42954" lon="2.65173">
        <ele>770.7</ele>
        <time>2022-06-21T11:25:07Z</time>
      </trkpt>
      <trkpt lat="43.42955" lon="2.65172">
        <ele>770.7</ele>
        <time>2022-06-21T11:25:08Z</time>
      </trkpt>
      <trkpt lat="43.42956" lon="2.65171">
        <ele>770.6</ele>
        <time>2022-06-21T11:25:09Z</time>
      </trkpt>
      <trkpt lat="43.42956" lon="2.6517">
        <ele>770.6</ele>
        <time>2022-06-21T11:25:10Z</time>
      </trkpt>
      <trkpt lat="43.42956" lon="2.6517">
        <ele>770.5</ele>
        <time>2022-06-21T11:25:11Z</time>
      </trkpt>
      <trkpt lat="43.42957" lon="2.65169">
        <ele>770.5</ele>
        <time>2022-06-21T11:25:12Z</time>
      </trkpt>
      <trkpt lat="43.42957" lon="2.65169">
        <ele>770.5</ele>
        <time>2022-06-21T11:25:13Z</time>
      </trkpt>
      <trkpt lat="43.42958" lon="2.65168">
        <ele>770.4</ele>
        <time>2022-06-21T11:25:14Z</time>
      </trkpt>
      <trkpt lat="43.42958" lon="2.65168">
        <ele>770.4</ele>
        <time>2022-06-21T11:25:15Z</time>
      </trkpt>
      <trkpt lat="43.42958" lon="2.65168">
        <ele>770.4</ele>
        <time>2022-06-21T11:25:16Z</time>
      </trkpt>
      <trkpt lat="43.42958" lon="2.65168">
        <ele>770.4</ele>
        <time>2022-06-21T11:25:17Z</time>
      </trkpt>
      <trkpt lat="43.42958" lon="2.65167">
        <ele>770.4</ele>
        <time>2022-06-21T11:25:18Z</time>
      </trkpt>
      <trkpt lat="43.42959" lon="2.65166">
        <ele>770.3</ele>
        <time>2022-06-21T11:25:19Z</time>
      </trkpt>
      <trkpt lat="43.4296" lon="2.65164">
        <ele>770.2</ele>
        <time>2022-06-21T11:25:20Z</time>
      </trkpt>
      <trkpt lat="43.42961" lon="2.65163">
        <ele>770.2</ele>
        <time>2022-06-21T11:25:21Z</time>
      </trkpt>
      <trkpt lat="43.42962" lon="2.65161">
        <ele>770.1</ele>
        <time>2022-06-21T11:25:22Z</time>
      </trkpt>
      <trkpt lat="43.42963" lon="2.6516">
        <ele>770</ele>
        <time>2022-06-21T11:25:23Z</time>
      </trkpt>
      <trkpt lat="43.42963" lon="2.65159">
        <ele>770</ele>
        <time>2022-06-21T11:25:24Z</time>
      </trkpt>
      <trkpt lat="43.42964" lon="2.65157">
        <ele>769.9</ele>
        <time>2022-06-21T11:25:25Z</time>
      </trkpt>
      <trkpt lat="43.42965" lon="2.65156">
        <ele>769.9</ele>
        <time>2022-06-21T11:25:26Z</time>
      </trkpt>
      <trkpt lat="43.42968" lon="2.65153">
        <ele>769.7</ele>
        <time>2022-06-21T11:25:27Z</time>
      </trkpt>
      <trkpt lat="43.42968" lon="2.65152">
        <ele>769.7</ele>
        <time>2022-06-21T11:25:28Z</time>
      </trkpt>
      <trkpt lat="43.42969" lon="2.6515">
        <ele>769.6</ele>
        <time>2022-06-21T11:25:29Z</time>
      </trkpt>
      <trkpt lat="43.4297" lon="2.65149">
        <ele>769.6</ele>
        <time>2022-06-21T11:25:30Z</time>
      </trkpt>
      <trkpt lat="43.42971" lon="2.65147">
        <ele>769.5</ele>
        <time>2022-06-21T11:25:31Z</time>
      </trkpt>
      <trkpt lat="43.42972" lon="2.65146">
        <ele>769.4</ele>
        <time>2022-06-21T11:25:32Z</time>
      </trkpt>
      <trkpt lat="43.42974" lon="2.65144">
        <ele>769.4</ele>
        <time>2022-06-21T11:25:33Z</time>
      </trkpt>
      <trkpt lat="43.42974" lon="2.65143">
        <ele>769.3</ele>
        <time>2022-06-21T11:25:34Z</time>
      </trkpt>
      <trkpt lat="43.42975" lon="2.65141">
        <ele>769.2</ele>
        <time>2022-06-21T11:25:35Z</time>
      </trkpt>
      <trkpt lat="43.42976" lon="2.6514">
        <ele>769.2</ele>
        <time>2022-06-21T11:25:36Z</time>
      </trkpt>
      <trkpt lat="43.42978" lon="2.65138">
        <ele>769.1</ele>
        <time>2022-06-21T11:25:37Z</time>
      </trkpt>
      <trkpt lat="43.42979" lon="2.65138">
        <ele>769</ele>
        <time>2022-06-21T11:25:38Z</time>
      </trkpt>
      <trkpt lat="43.4298" lon="2.65137">
        <ele>769</ele>
        <time>2022-06-21T11:25:39Z</time>
      </trkpt>
      <trkpt lat="43.42982" lon="2.65136">
        <ele>768.9</ele>
        <time>2022-06-21T11:25:40Z</time>
      </trkpt>
      <trkpt lat="43.42983" lon="2.65136">
        <ele>768.8</ele>
        <time>2022-06-21T11:25:41Z</time>
      </trkpt>
      <trkpt lat="43.42983" lon="2.65136">
        <ele>768.8</ele>
        <time>2022-06-21T11:25:42Z</time>
      </trkpt>
      <trkpt lat="43.42985" lon="2.65135">
        <ele>768.6</ele>
        <time>2022-06-21T11:25:43Z</time>
      </trkpt>
      <trkpt lat="43.42986" lon="2.65134">
        <ele>768.5</ele>
        <time>2022-06-21T11:25:44Z</time>
      </trkpt>
      <trkpt lat="43.42987" lon="2.65133">
        <ele>768.5</ele>
        <time>2022-06-21T11:25:45Z</time>
      </trkpt>
      <trkpt lat="43.42988" lon="2.65133">
        <ele>768.4</ele>
        <time>2022-06-21T11:25:46Z</time>
      </trkpt>
      <trkpt lat="43.42989" lon="2.65133">
        <ele>768.3</ele>
        <time>2022-06-21T11:25:47Z</time>
      </trkpt>
      <trkpt lat="43.4299" lon="2.65132">
        <ele>768.2</ele>
        <time>2022-06-21T11:25:48Z</time>
      </trkpt>
      <trkpt lat="43.42991" lon="2.65131">
        <ele>768</ele>
        <time>2022-06-21T11:25:49Z</time>
      </trkpt>
      <trkpt lat="43.42992" lon="2.65131">
        <ele>768</ele>
        <time>2022-06-21T11:25:50Z</time>
      </trkpt>
      <trkpt lat="43.42993" lon="2.6513">
        <ele>767.9</ele>
        <time>2022-06-21T11:25:51Z</time>
      </trkpt>
      <trkpt lat="43.42994" lon="2.6513">
        <ele>767.8</ele>
        <time>2022-06-21T11:25:52Z</time>
      </trkpt>
      <trkpt lat="43.42995" lon="2.65129">
        <ele>767.7</ele>
        <time>2022-06-21T11:25:53Z</time>
      </trkpt>
      <trkpt lat="43.42995" lon="2.65128">
        <ele>767.6</ele>
        <time>2022-06-21T11:25:54Z</time>
      </trkpt>
      <trkpt lat="43.42996" lon="2.65128">
        <ele>767.5</ele>
        <time>2022-06-21T11:25:55Z</time>
      </trkpt>
      <trkpt lat="43.42997" lon="2.65128">
        <ele>767.5</ele>
        <time>2022-06-21T11:25:56Z</time>
      </trkpt>
      <trkpt lat="43.42998" lon="2.65127">
        <ele>767.4</ele>
        <time>2022-06-21T11:25:57Z</time>
      </trkpt>
      <trkpt lat="43.42999" lon="2.65126">
        <ele>767.2</ele>
        <time>2022-06-21T11:25:58Z</time>
      </trkpt>
      <trkpt lat="43.43" lon="2.65126">
        <ele>767.2</ele>
        <time>2022-06-21T11:25:59Z</time>
      </trkpt>
      <trkpt lat="43.43001" lon="2.65125">
        <ele>767.1</ele>
        <time>2022-06-21T11:26:00Z</time>
      </trkpt>
      <trkpt lat="43.43001" lon="2.65124">
        <ele>767</ele>
        <time>2022-06-21T11:26:01Z</time>
      </trkpt>
      <trkpt lat="43.43003" lon="2.65124">
        <ele>767</ele>
        <time>2022-06-21T11:26:02Z</time>
      </trkpt>
      <trkpt lat="43.43004" lon="2.65123">
        <ele>766.8</ele>
        <time>2022-06-21T11:26:03Z</time>
      </trkpt>
      <trkpt lat="43.43005" lon="2.65122">
        <ele>766.8</ele>
        <time>2022-06-21T11:26:04Z</time>
      </trkpt>
      <trkpt lat="43.43006" lon="2.65122">
        <ele>766.7</ele>
        <time>2022-06-21T11:26:05Z</time>
      </trkpt>
      <trkpt lat="43.43006" lon="2.65121">
        <ele>766.6</ele>
        <time>2022-06-21T11:26:06Z</time>
      </trkpt>
      <trkpt lat="43.43008" lon="2.6512">
        <ele>766.5</ele>
        <time>2022-06-21T11:26:07Z</time>
      </trkpt>
      <trkpt lat="43.43008" lon="2.6512">
        <ele>766.4</ele>
        <time>2022-06-21T11:26:08Z</time>
      </trkpt>
      <trkpt lat="43.43009" lon="2.65119">
        <ele>766.4</ele>
        <time>2022-06-21T11:26:09Z</time>
      </trkpt>
      <trkpt lat="43.4301" lon="2.65119">
        <ele>766.3</ele>
        <time>2022-06-21T11:26:10Z</time>
      </trkpt>
      <trkpt lat="43.43011" lon="2.65118">
        <ele>766.2</ele>
        <time>2022-06-21T11:26:11Z</time>
      </trkpt>
      <trkpt lat="43.43012" lon="2.65118">
        <ele>766.1</ele>
        <time>2022-06-21T11:26:12Z</time>
      </trkpt>
      <trkpt lat="43.43013" lon="2.65118">
        <ele>766</ele>
        <time>2022-06-21T11:26:13Z</time>
      </trkpt>
      <trkpt lat="43.43014" lon="2.65117">
        <ele>766</ele>
        <time>2022-06-21T11:26:14Z</time>
      </trkpt>
      <trkpt lat="43.43014" lon="2.65117">
        <ele>765.9</ele>
        <time>2022-06-21T11:26:15Z</time>
      </trkpt>
      <trkpt lat="43.43015" lon="2.65117">
        <ele>765.8</ele>
        <time>2022-06-21T11:26:16Z</time>
      </trkpt>
      <trkpt lat="43.43016" lon="2.65117">
        <ele>765.7</ele>
        <time>2022-06-21T11:26:17Z</time>
      </trkpt>
      <trkpt lat="43.43017" lon="2.65117">
        <ele>765.6</ele>
        <time>2022-06-21T11:26:18Z</time>
      </trkpt>
      <trkpt lat="43.43019" lon="2.65116">
        <ele>765.4</ele>
        <time>2022-06-21T11:26:19Z</time>
      </trkpt>
      <trkpt lat="43.43019" lon="2.65116">
        <ele>765.3</ele>
        <time>2022-06-21T11:26:20Z</time>
      </trkpt>
      <trkpt lat="43.4302" lon="2.65115">
        <ele>765.2</ele>
        <time>2022-06-21T11:26:21Z</time>
      </trkpt>
      <trkpt lat="43.43021" lon="2.65115">
        <ele>765.1</ele>
        <time>2022-06-21T11:26:22Z</time>
      </trkpt>
      <trkpt lat="43.43022" lon="2.65115">
        <ele>764.9</ele>
        <time>2022-06-21T11:26:23Z</time>
      </trkpt>
      <trkpt lat="43.43023" lon="2.65115">
        <ele>764.8</ele>
        <time>2022-06-21T11:26:24Z</time>
      </trkpt>
      <trkpt lat="43.43024" lon="2.65115">
        <ele>764.7</ele>
        <time>2022-06-21T11:26:25Z</time>
      </trkpt>
      <trkpt lat="43.43025" lon="2.65114">
        <ele>764.5</ele>
        <time>2022-06-21T11:26:26Z</time>
      </trkpt>
      <trkpt lat="43.43026" lon="2.65114">
        <ele>764.4</ele>
        <time>2022-06-21T11:26:27Z</time>
      </trkpt>
      <trkpt lat="43.43027" lon="2.65114">
        <ele>764.3</ele>
        <time>2022-06-21T11:26:28Z</time>
      </trkpt>
      <trkpt lat="43.43028" lon="2.65114">
        <ele>764.1</ele>
        <time>2022-06-21T11:26:29Z</time>
      </trkpt>
      <trkpt lat="43.43029" lon="2.65114">
        <ele>764</ele>
        <time>2022-06-21T11:26:30Z</time>
      </trkpt>
      <trkpt lat="43.4303" lon="2.65114">
        <ele>763.9</ele>
        <time>2022-06-21T11:26:31Z</time>
      </trkpt>
      <trkpt lat="43.43031" lon="2.65114">
        <ele>763.8</ele>
        <time>2022-06-21T11:26:32Z</time>
      </trkpt>
      <trkpt lat="43.43032" lon="2.65114">
        <ele>763.7</ele>
        <time>2022-06-21T11:26:33Z</time>
      </trkpt>
      <trkpt lat="43.43033" lon="2.65114">
        <ele>763.6</ele>
        <time>2022-06-21T11:26:34Z</time>
      </trkpt>
      <trkpt lat="43.43034" lon="2.65114">
        <ele>763.5</ele>
        <time>2022-06-21T11:26:35Z</time>
      </trkpt>
      <trkpt lat="43.43035" lon="2.65114">
        <ele>763.4</ele>
        <time>2022-06-21T11:26:36Z</time>
      </trkpt>
      <trkpt lat="43.43035" lon="2.65114">
        <ele>763.3</ele>
        <time>2022-06-21T11:26:37Z</time>
      </trkpt>
      <trkpt lat="43.43036" lon="2.65114">
        <ele>763.2</ele>
        <time>2022-06-21T11:26:38Z</time>
      </trkpt>
      <trkpt lat="43.43037" lon="2.65114">
        <ele>763.1</ele>
        <time>2022-06-21T11:26:39Z</time>
      </trkpt>
      <trkpt lat="43.43038" lon="2.65114">
        <ele>763</ele>
        <time>2022-06-21T11:26:40Z</time>
      </trkpt>
      <trkpt lat="43.43039" lon="2.65114">
        <ele>762.9</ele>
        <time>2022-06-21T11:26:41Z</time>
      </trkpt>
      <trkpt lat="43.4304" lon="2.65115">
        <ele>762.8</ele>
        <time>2022-06-21T11:26:42Z</time>
      </trkpt>
      <trkpt lat="43.43041" lon="2.65115">
        <ele>762.7</ele>
        <time>2022-06-21T11:26:43Z</time>
      </trkpt>
      <trkpt lat="43.43043" lon="2.65115">
        <ele>762.5</ele>
        <time>2022-06-21T11:26:44Z</time>
      </trkpt>
      <trkpt lat="43.43044" lon="2.65115">
        <ele>762.4</ele>
        <time>2022-06-21T11:26:45Z</time>
      </trkpt>
      <trkpt lat="43.43045" lon="2.65115">
        <ele>762.3</ele>
        <time>2022-06-21T11:26:46Z</time>
      </trkpt>
      <trkpt lat="43.43046" lon="2.65115">
        <ele>762.2</ele>
        <time>2022-06-21T11:26:47Z</time>
      </trkpt>
      <trkpt lat="43.43047" lon="2.65115">
        <ele>762.1</ele>
        <time>2022-06-21T11:26:48Z</time>
      </trkpt>
      <trkpt lat="43.43048" lon="2.65115">
        <ele>762</ele>
        <time>2022-06-21T11:26:49Z</time>
      </trkpt>
      <trkpt lat="43.43049" lon="2.65116">
        <ele>761.9</ele>
        <time>2022-06-21T11:26:50Z</time>
      </trkpt>
      <trkpt lat="43.4305" lon="2.65116">
        <ele>761.8</ele>
        <time>2022-06-21T11:26:51Z</time>
      </trkpt>
      <trkpt lat="43.4305" lon="2.65116">
        <ele>761.7</ele>
        <time>2022-06-21T11:26:52Z</time>
      </trkpt>
      <trkpt lat="43.43051" lon="2.65116">
        <ele>761.6</ele>
        <time>2022-06-21T11:26:53Z</time>
      </trkpt>
      <trkpt lat="43.43052" lon="2.65116">
        <ele>761.6</ele>
        <time>2022-06-21T11:26:54Z</time>
      </trkpt>
      <trkpt lat="43.43052" lon="2.65116">
        <ele>761.5</ele>
        <time>2022-06-21T11:26:55Z</time>
      </trkpt>
      <trkpt lat="43.43053" lon="2.65116">
        <ele>761.4</ele>
        <time>2022-06-21T11:26:56Z</time>
      </trkpt>
      <trkpt lat="43.43055" lon="2.65116">
        <ele>761.3</ele>
        <time>2022-06-21T11:26:57Z</time>
      </trkpt>
      <trkpt lat="43.43055" lon="2.65116">
        <ele>761.2</ele>
        <time>2022-06-21T11:26:58Z</time>
      </trkpt>
      <trkpt lat="43.43056" lon="2.65116">
        <ele>761.1</ele>
        <time>2022-06-21T11:26:59Z</time>
      </trkpt>
      <trkpt lat="43.43057" lon="2.65116">
        <ele>761</ele>
        <time>2022-06-21T11:27:00Z</time>
      </trkpt>
      <trkpt lat="43.43059" lon="2.65116">
        <ele>760.9</ele>
        <time>2022-06-21T11:27:01Z</time>
      </trkpt>
      <trkpt lat="43.43059" lon="2.65117">
        <ele>760.8</ele>
        <time>2022-06-21T11:27:02Z</time>
      </trkpt>
      <trkpt lat="43.43061" lon="2.65117">
        <ele>760.7</ele>
        <time>2022-06-21T11:27:03Z</time>
      </trkpt>
      <trkpt lat="43.43062" lon="2.65117">
        <ele>760.6</ele>
        <time>2022-06-21T11:27:04Z</time>
      </trkpt>
      <trkpt lat="43.43063" lon="2.65117">
        <ele>760.5</ele>
        <time>2022-06-21T11:27:05Z</time>
      </trkpt>
      <trkpt lat="43.43064" lon="2.65117">
        <ele>760.4</ele>
        <time>2022-06-21T11:27:06Z</time>
      </trkpt>
      <trkpt lat="43.43064" lon="2.65118">
        <ele>760.3</ele>
        <time>2022-06-21T11:27:07Z</time>
      </trkpt>
      <trkpt lat="43.43065" lon="2.65118">
        <ele>760.2</ele>
        <time>2022-06-21T11:27:08Z</time>
      </trkpt>
      <trkpt lat="43.43066" lon="2.65118">
        <ele>760.1</ele>
        <time>2022-06-21T11:27:09Z</time>
      </trkpt>
      <trkpt lat="43.43067" lon="2.65117">
        <ele>760</ele>
        <time>2022-06-21T11:27:10Z</time>
      </trkpt>
      <trkpt lat="43.43067" lon="2.65118">
        <ele>760</ele>
        <time>2022-06-21T11:27:11Z</time>
      </trkpt>
      <trkpt lat="43.43068" lon="2.65118">
        <ele>759.9</ele>
        <time>2022-06-21T11:27:12Z</time>
      </trkpt>
      <trkpt lat="43.43069" lon="2.65119">
        <ele>759.8</ele>
        <time>2022-06-21T11:27:13Z</time>
      </trkpt>
      <trkpt lat="43.4307" lon="2.65119">
        <ele>759.7</ele>
        <time>2022-06-21T11:27:14Z</time>
      </trkpt>
      <trkpt lat="43.4307" lon="2.6512">
        <ele>759.6</ele>
        <time>2022-06-21T11:27:15Z</time>
      </trkpt>
      <trkpt lat="43.43071" lon="2.6512">
        <ele>759.6</ele>
        <time>2022-06-21T11:27:16Z</time>
      </trkpt>
      <trkpt lat="43.43072" lon="2.65121">
        <ele>759.5</ele>
        <time>2022-06-21T11:27:17Z</time>
      </trkpt>
      <trkpt lat="43.43073" lon="2.65121">
        <ele>759.3</ele>
        <time>2022-06-21T11:27:18Z</time>
      </trkpt>
      <trkpt lat="43.43074" lon="2.65122">
        <ele>759.2</ele>
        <time>2022-06-21T11:27:19Z</time>
      </trkpt>
      <trkpt lat="43.43075" lon="2.65122">
        <ele>759.1</ele>
        <time>2022-06-21T11:27:20Z</time>
      </trkpt>
      <trkpt lat="43.43076" lon="2.65122">
        <ele>759</ele>
        <time>2022-06-21T11:27:21Z</time>
      </trkpt>
      <trkpt lat="43.43078" lon="2.65123">
        <ele>758.9</ele>
        <time>2022-06-21T11:27:22Z</time>
      </trkpt>
      <trkpt lat="43.43079" lon="2.65123">
        <ele>758.8</ele>
        <time>2022-06-21T11:27:23Z</time>
      </trkpt>
      <trkpt lat="43.4308" lon="2.65124">
        <ele>758.7</ele>
        <time>2022-06-21T11:27:24Z</time>
      </trkpt>
      <trkpt lat="43.43081" lon="2.65124">
        <ele>758.6</ele>
        <time>2022-06-21T11:27:25Z</time>
      </trkpt>
      <trkpt lat="43.43082" lon="2.65124">
        <ele>758.6</ele>
        <time>2022-06-21T11:27:26Z</time>
      </trkpt>
      <trkpt lat="43.43083" lon="2.65124">
        <ele>758.5</ele>
        <time>2022-06-21T11:27:27Z</time>
      </trkpt>
      <trkpt lat="43.43083" lon="2.65125">
        <ele>758.4</ele>
        <time>2022-06-21T11:27:28Z</time>
      </trkpt>
      <trkpt lat="43.43084" lon="2.65125">
        <ele>758.4</ele>
        <time>2022-06-21T11:27:29Z</time>
      </trkpt>
      <trkpt lat="43.43085" lon="2.65125">
        <ele>758.3</ele>
        <time>2022-06-21T11:27:30Z</time>
      </trkpt>
      <trkpt lat="43.43085" lon="2.65126">
        <ele>758.3</ele>
        <time>2022-06-21T11:27:31Z</time>
      </trkpt>
      <trkpt lat="43.43085" lon="2.65126">
        <ele>758.3</ele>
        <time>2022-06-21T11:27:32Z</time>
      </trkpt>
      <trkpt lat="43.43086" lon="2.65126">
        <ele>758.2</ele>
        <time>2022-06-21T11:27:33Z</time>
      </trkpt>
      <trkpt lat="43.43087" lon="2.65126">
        <ele>758.1</ele>
        <time>2022-06-21T11:27:34Z</time>
      </trkpt>
      <trkpt lat="43.43088" lon="2.65126">
        <ele>758.1</ele>
        <time>2022-06-21T11:27:35Z</time>
      </trkpt>
      <trkpt lat="43.43089" lon="2.65125">
        <ele>758</ele>
        <time>2022-06-21T11:27:36Z</time>
      </trkpt>
      <trkpt lat="43.4309" lon="2.65125">
        <ele>757.9</ele>
        <time>2022-06-21T11:27:37Z</time>
      </trkpt>
      <trkpt lat="43.43091" lon="2.65125">
        <ele>757.8</ele>
        <time>2022-06-21T11:27:38Z</time>
      </trkpt>
      <trkpt lat="43.43091" lon="2.65125">
        <ele>757.8</ele>
        <time>2022-06-21T11:27:39Z</time>
      </trkpt>
      <trkpt lat="43.43092" lon="2.65125">
        <ele>757.7</ele>
        <time>2022-06-21T11:27:40Z</time>
      </trkpt>
      <trkpt lat="43.43093" lon="2.65125">
        <ele>757.7</ele>
        <time>2022-06-21T11:27:41Z</time>
      </trkpt>
      <trkpt lat="43.43094" lon="2.65125">
        <ele>757.6</ele>
        <time>2022-06-21T11:27:42Z</time>
      </trkpt>
      <trkpt lat="43.43095" lon="2.65126">
        <ele>757.5</ele>
        <time>2022-06-21T11:27:43Z</time>
      </trkpt>
      <trkpt lat="43.43096" lon="2.65126">
        <ele>757.4</ele>
        <time>2022-06-21T11:27:44Z</time>
      </trkpt>
      <trkpt lat="43.43097" lon="2.65126">
        <ele>757.3</ele>
        <time>2022-06-21T11:27:45Z</time>
      </trkpt>
      <trkpt lat="43.43099" lon="2.65127">
        <ele>757.1</ele>
        <time>2022-06-21T11:27:46Z</time>
      </trkpt>
      <trkpt lat="43.43099" lon="2.65128">
        <ele>757.1</ele>
        <time>2022-06-21T11:27:47Z</time>
      </trkpt>
      <trkpt lat="43.431" lon="2.65128">
        <ele>757</ele>
        <time>2022-06-21T11:27:48Z</time>
      </trkpt>
      <trkpt lat="43.43101" lon="2.65128">
        <ele>756.9</ele>
        <time>2022-06-21T11:27:49Z</time>
      </trkpt>
      <trkpt lat="43.43102" lon="2.65129">
        <ele>756.9</ele>
        <time>2022-06-21T11:27:50Z</time>
      </trkpt>
      <trkpt lat="43.43102" lon="2.65129">
        <ele>756.9</ele>
        <time>2022-06-21T11:27:51Z</time>
      </trkpt>
      <trkpt lat="43.43102" lon="2.65129">
        <ele>756.8</ele>
        <time>2022-06-21T11:27:52Z</time>
      </trkpt>
      <trkpt lat="43.43103" lon="2.65129">
        <ele>756.8</ele>
        <time>2022-06-21T11:27:53Z</time>
      </trkpt>
      <trkpt lat="43.43104" lon="2.65129">
        <ele>756.7</ele>
        <time>2022-06-21T11:27:54Z</time>
      </trkpt>
      <trkpt lat="43.43105" lon="2.65129">
        <ele>756.6</ele>
        <time>2022-06-21T11:27:55Z</time>
      </trkpt>
      <trkpt lat="43.43106" lon="2.65129">
        <ele>756.5</ele>
        <time>2022-06-21T11:27:56Z</time>
      </trkpt>
      <trkpt lat="43.43107" lon="2.65129">
        <ele>756.4</ele>
        <time>2022-06-21T11:27:57Z</time>
      </trkpt>
      <trkpt lat="43.43108" lon="2.65129">
        <ele>756.4</ele>
        <time>2022-06-21T11:27:58Z</time>
      </trkpt>
      <trkpt lat="43.43109" lon="2.65128">
        <ele>756.3</ele>
        <time>2022-06-21T11:27:59Z</time>
      </trkpt>
      <trkpt lat="43.43109" lon="2.65128">
        <ele>756.2</ele>
        <time>2022-06-21T11:28:00Z</time>
      </trkpt>
      <trkpt lat="43.4311" lon="2.65128">
        <ele>756.2</ele>
        <time>2022-06-21T11:28:01Z</time>
      </trkpt>
      <trkpt lat="43.4311" lon="2.65128">
        <ele>756.2</ele>
        <time>2022-06-21T11:28:02Z</time>
      </trkpt>
      <trkpt lat="43.43111" lon="2.65127">
        <ele>756.1</ele>
        <time>2022-06-21T11:28:03Z</time>
      </trkpt>
      <trkpt lat="43.43112" lon="2.65126">
        <ele>756</ele>
        <time>2022-06-21T11:28:04Z</time>
      </trkpt>
      <trkpt lat="43.43113" lon="2.65125">
        <ele>755.9</ele>
        <time>2022-06-21T11:28:05Z</time>
      </trkpt>
      <trkpt lat="43.43114" lon="2.65125">
        <ele>755.7</ele>
        <time>2022-06-21T11:28:06Z</time>
      </trkpt>
      <trkpt lat="43.43115" lon="2.65124">
        <ele>755.7</ele>
        <time>2022-06-21T11:28:07Z</time>
      </trkpt>
      <trkpt lat="43.43116" lon="2.65123">
        <ele>755.6</ele>
        <time>2022-06-21T11:28:08Z</time>
      </trkpt>
      <trkpt lat="43.43117" lon="2.65122">
        <ele>755.5</ele>
        <time>2022-06-21T11:28:09Z</time>
      </trkpt>
      <trkpt lat="43.43118" lon="2.65121">
        <ele>755.4</ele>
        <time>2022-06-21T11:28:10Z</time>
      </trkpt>
      <trkpt lat="43.43118" lon="2.6512">
        <ele>755.3</ele>
        <time>2022-06-21T11:28:11Z</time>
      </trkpt>
      <trkpt lat="43.43119" lon="2.65118">
        <ele>755.2</ele>
        <time>2022-06-21T11:28:12Z</time>
      </trkpt>
      <trkpt lat="43.43119" lon="2.65118">
        <ele>755.2</ele>
        <time>2022-06-21T11:28:13Z</time>
      </trkpt>
      <trkpt lat="43.43119" lon="2.65118">
        <ele>755.2</ele>
        <time>2022-06-21T11:28:14Z</time>
      </trkpt>
      <trkpt lat="43.43119" lon="2.65118">
        <ele>755.2</ele>
        <time>2022-06-21T11:28:15Z</time>
      </trkpt>
      <trkpt lat="43.43119" lon="2.65117">
        <ele>755.1</ele>
        <time>2022-06-21T11:28:16Z</time>
      </trkpt>
      <trkpt lat="43.4312" lon="2.65117">
        <ele>755.1</ele>
        <time>2022-06-21T11:28:17Z</time>
      </trkpt>
      <trkpt lat="43.43119" lon="2.65115">
        <ele>755</ele>
        <time>2022-06-21T11:28:18Z</time>
      </trkpt>
      <trkpt lat="43.43119" lon="2.65115">
        <ele>755</ele>
        <time>2022-06-21T11:28:19Z</time>
      </trkpt>
      <trkpt lat="43.43119" lon="2.65114">
        <ele>755</ele>
        <time>2022-06-21T11:28:20Z</time>
      </trkpt>
      <trkpt lat="43.4312" lon="2.65114">
        <ele>755</ele>
        <time>2022-06-21T11:28:21Z</time>
      </trkpt>
      <trkpt lat="43.4312" lon="2.65113">
        <ele>754.9</ele>
        <time>2022-06-21T11:28:22Z</time>
      </trkpt>
      <trkpt lat="43.43121" lon="2.65112">
        <ele>754.9</ele>
        <time>2022-06-21T11:28:23Z</time>
      </trkpt>
      <trkpt lat="43.43121" lon="2.65111">
        <ele>754.8</ele>
        <time>2022-06-21T11:28:24Z</time>
      </trkpt>
      <trkpt lat="43.43122" lon="2.65109">
        <ele>754.7</ele>
        <time>2022-06-21T11:28:25Z</time>
      </trkpt>
      <trkpt lat="43.43122" lon="2.65108">
        <ele>754.7</ele>
        <time>2022-06-21T11:28:26Z</time>
      </trkpt>
      <trkpt lat="43.43122" lon="2.65107">
        <ele>754.6</ele>
        <time>2022-06-21T11:28:27Z</time>
      </trkpt>
      <trkpt lat="43.43122" lon="2.65107">
        <ele>754.6</ele>
        <time>2022-06-21T11:28:28Z</time>
      </trkpt>
      <trkpt lat="43.43122" lon="2.65106">
        <ele>754.6</ele>
        <time>2022-06-21T11:28:29Z</time>
      </trkpt>
      <trkpt lat="43.43123" lon="2.65105">
        <ele>754.5</ele>
        <time>2022-06-21T11:28:30Z</time>
      </trkpt>
      <trkpt lat="43.43122" lon="2.65104">
        <ele>754.5</ele>
        <time>2022-06-21T11:28:31Z</time>
      </trkpt>
      <trkpt lat="43.43122" lon="2.65102">
        <ele>754.4</ele>
        <time>2022-06-21T11:28:32Z</time>
      </trkpt>
      <trkpt lat="43.43122" lon="2.651">
        <ele>754.3</ele>
        <time>2022-06-21T11:28:33Z</time>
      </trkpt>
      <trkpt lat="43.43121" lon="2.65098">
        <ele>754.3</ele>
        <time>2022-06-21T11:28:34Z</time>
      </trkpt>
      <trkpt lat="43.43121" lon="2.65096">
        <ele>754.2</ele>
        <time>2022-06-21T11:28:35Z</time>
      </trkpt>
      <trkpt lat="43.43121" lon="2.65094">
        <ele>754.2</ele>
        <time>2022-06-21T11:28:36Z</time>
      </trkpt>
      <trkpt lat="43.43121" lon="2.65092">
        <ele>754.1</ele>
        <time>2022-06-21T11:28:37Z</time>
      </trkpt>
      <trkpt lat="43.43121" lon="2.65089">
        <ele>754.1</ele>
        <time>2022-06-21T11:28:38Z</time>
      </trkpt>
      <trkpt lat="43.43121" lon="2.65086">
        <ele>754</ele>
        <time>2022-06-21T11:28:39Z</time>
      </trkpt>
      <trkpt lat="43.43121" lon="2.65085">
        <ele>753.9</ele>
        <time>2022-06-21T11:28:40Z</time>
      </trkpt>
      <trkpt lat="43.43121" lon="2.65083">
        <ele>753.9</ele>
        <time>2022-06-21T11:28:41Z</time>
      </trkpt>
      <trkpt lat="43.43121" lon="2.65082">
        <ele>753.9</ele>
        <time>2022-06-21T11:28:42Z</time>
      </trkpt>
      <trkpt lat="43.43121" lon="2.6508">
        <ele>753.8</ele>
        <time>2022-06-21T11:28:43Z</time>
      </trkpt>
      <trkpt lat="43.43121" lon="2.65079">
        <ele>753.8</ele>
        <time>2022-06-21T11:28:44Z</time>
      </trkpt>
      <trkpt lat="43.43121" lon="2.65076">
        <ele>753.8</ele>
        <time>2022-06-21T11:28:45Z</time>
      </trkpt>
      <trkpt lat="43.43121" lon="2.65074">
        <ele>753.8</ele>
        <time>2022-06-21T11:28:46Z</time>
      </trkpt>
      <trkpt lat="43.43121" lon="2.65073">
        <ele>753.7</ele>
        <time>2022-06-21T11:28:47Z</time>
      </trkpt>
      <trkpt lat="43.43121" lon="2.65072">
        <ele>753.7</ele>
        <time>2022-06-21T11:28:48Z</time>
      </trkpt>
      <trkpt lat="43.43121" lon="2.6507">
        <ele>753.7</ele>
        <time>2022-06-21T11:28:49Z</time>
      </trkpt>
      <trkpt lat="43.43122" lon="2.65069">
        <ele>753.7</ele>
        <time>2022-06-21T11:28:50Z</time>
      </trkpt>
      <trkpt lat="43.43122" lon="2.65066">
        <ele>753.6</ele>
        <time>2022-06-21T11:28:51Z</time>
      </trkpt>
      <trkpt lat="43.43122" lon="2.65064">
        <ele>753.6</ele>
        <time>2022-06-21T11:28:52Z</time>
      </trkpt>
      <trkpt lat="43.43123" lon="2.65063">
        <ele>753.6</ele>
        <time>2022-06-21T11:28:53Z</time>
      </trkpt>
      <trkpt lat="43.43123" lon="2.65061">
        <ele>753.6</ele>
        <time>2022-06-21T11:28:54Z</time>
      </trkpt>
      <trkpt lat="43.43123" lon="2.6506">
        <ele>753.5</ele>
        <time>2022-06-21T11:28:55Z</time>
      </trkpt>
      <trkpt lat="43.43122" lon="2.65059">
        <ele>753.5</ele>
        <time>2022-06-21T11:28:56Z</time>
      </trkpt>
      <trkpt lat="43.43122" lon="2.65058">
        <ele>753.5</ele>
        <time>2022-06-21T11:28:57Z</time>
      </trkpt>
      <trkpt lat="43.43122" lon="2.65056">
        <ele>753.5</ele>
        <time>2022-06-21T11:28:58Z</time>
      </trkpt>
      <trkpt lat="43.43122" lon="2.65054">
        <ele>753.5</ele>
        <time>2022-06-21T11:28:59Z</time>
      </trkpt>
      <trkpt lat="43.43122" lon="2.65053">
        <ele>753.4</ele>
        <time>2022-06-21T11:29:00Z</time>
      </trkpt>
      <trkpt lat="43.43122" lon="2.65052">
        <ele>753.4</ele>
        <time>2022-06-21T11:29:01Z</time>
      </trkpt>
      <trkpt lat="43.43122" lon="2.65051">
        <ele>753.4</ele>
        <time>2022-06-21T11:29:02Z</time>
      </trkpt>
      <trkpt lat="43.43122" lon="2.6505">
        <ele>753.4</ele>
        <time>2022-06-21T11:29:03Z</time>
      </trkpt>
      <trkpt lat="43.43122" lon="2.65049">
        <ele>753.4</ele>
        <time>2022-06-21T11:29:04Z</time>
      </trkpt>
      <trkpt lat="43.43122" lon="2.65048">
        <ele>753.3</ele>
        <time>2022-06-21T11:29:05Z</time>
      </trkpt>
      <trkpt lat="43.43122" lon="2.65047">
        <ele>753.3</ele>
        <time>2022-06-21T11:29:06Z</time>
      </trkpt>
      <trkpt lat="43.43122" lon="2.65046">
        <ele>753.3</ele>
        <time>2022-06-21T11:29:07Z</time>
      </trkpt>
      <trkpt lat="43.43123" lon="2.65045">
        <ele>753.3</ele>
        <time>2022-06-21T11:29:08Z</time>
      </trkpt>
      <trkpt lat="43.43123" lon="2.65044">
        <ele>753.3</ele>
        <time>2022-06-21T11:29:09Z</time>
      </trkpt>
      <trkpt lat="43.43123" lon="2.65042">
        <ele>753.2</ele>
        <time>2022-06-21T11:29:10Z</time>
      </trkpt>
      <trkpt lat="43.43123" lon="2.6504">
        <ele>753.2</ele>
        <time>2022-06-21T11:29:11Z</time>
      </trkpt>
      <trkpt lat="43.43123" lon="2.6504">
        <ele>753.2</ele>
        <time>2022-06-21T11:29:12Z</time>
      </trkpt>
      <trkpt lat="43.43123" lon="2.65039">
        <ele>753.2</ele>
        <time>2022-06-21T11:29:13Z</time>
      </trkpt>
      <trkpt lat="43.43123" lon="2.65037">
        <ele>753.1</ele>
        <time>2022-06-21T11:29:14Z</time>
      </trkpt>
      <trkpt lat="43.43123" lon="2.65036">
        <ele>753.1</ele>
        <time>2022-06-21T11:29:15Z</time>
      </trkpt>
      <trkpt lat="43.43123" lon="2.65033">
        <ele>753</ele>
        <time>2022-06-21T11:29:16Z</time>
      </trkpt>
      <trkpt lat="43.43123" lon="2.65032">
        <ele>753</ele>
        <time>2022-06-21T11:29:17Z</time>
      </trkpt>
      <trkpt lat="43.43124" lon="2.65031">
        <ele>753</ele>
        <time>2022-06-21T11:29:18Z</time>
      </trkpt>
      <trkpt lat="43.43124" lon="2.65029">
        <ele>753</ele>
        <time>2022-06-21T11:29:19Z</time>
      </trkpt>
      <trkpt lat="43.43124" lon="2.65028">
        <ele>752.9</ele>
        <time>2022-06-21T11:29:20Z</time>
      </trkpt>
      <trkpt lat="43.43124" lon="2.65027">
        <ele>752.9</ele>
        <time>2022-06-21T11:29:21Z</time>
      </trkpt>
      <trkpt lat="43.43124" lon="2.65025">
        <ele>752.9</ele>
        <time>2022-06-21T11:29:22Z</time>
      </trkpt>
      <trkpt lat="43.43124" lon="2.65023">
        <ele>752.9</ele>
        <time>2022-06-21T11:29:23Z</time>
      </trkpt>
      <trkpt lat="43.43125" lon="2.65023">
        <ele>752.9</ele>
        <time>2022-06-21T11:29:24Z</time>
      </trkpt>
      <trkpt lat="43.43125" lon="2.65022">
        <ele>752.9</ele>
        <time>2022-06-21T11:29:25Z</time>
      </trkpt>
      <trkpt lat="43.43125" lon="2.6502">
        <ele>752.9</ele>
        <time>2022-06-21T11:29:26Z</time>
      </trkpt>
      <trkpt lat="43.43125" lon="2.65019">
        <ele>752.9</ele>
        <time>2022-06-21T11:29:27Z</time>
      </trkpt>
      <trkpt lat="43.43125" lon="2.65017">
        <ele>752.8</ele>
        <time>2022-06-21T11:29:28Z</time>
      </trkpt>
      <trkpt lat="43.43125" lon="2.65016">
        <ele>752.8</ele>
        <time>2022-06-21T11:29:29Z</time>
      </trkpt>
      <trkpt lat="43.43125" lon="2.65015">
        <ele>752.8</ele>
        <time>2022-06-21T11:29:30Z</time>
      </trkpt>
      <trkpt lat="43.43125" lon="2.65014">
        <ele>752.8</ele>
        <time>2022-06-21T11:29:31Z</time>
      </trkpt>
      <trkpt lat="43.43126" lon="2.65013">
        <ele>752.8</ele>
        <time>2022-06-21T11:29:32Z</time>
      </trkpt>
      <trkpt lat="43.43126" lon="2.65012">
        <ele>752.8</ele>
        <time>2022-06-21T11:29:33Z</time>
      </trkpt>
      <trkpt lat="43.43125" lon="2.65009">
        <ele>752.8</ele>
        <time>2022-06-21T11:29:34Z</time>
      </trkpt>
      <trkpt lat="43.43125" lon="2.65008">
        <ele>752.8</ele>
        <time>2022-06-21T11:29:35Z</time>
      </trkpt>
      <trkpt lat="43.43125" lon="2.65007">
        <ele>752.8</ele>
        <time>2022-06-21T11:29:36Z</time>
      </trkpt>
      <trkpt lat="43.43125" lon="2.65006">
        <ele>752.8</ele>
        <time>2022-06-21T11:29:37Z</time>
      </trkpt>
      <trkpt lat="43.43125" lon="2.65004">
        <ele>752.8</ele>
        <time>2022-06-21T11:29:38Z</time>
      </trkpt>
      <trkpt lat="43.43125" lon="2.65003">
        <ele>752.8</ele>
        <time>2022-06-21T11:29:39Z</time>
      </trkpt>
      <trkpt lat="43.43125" lon="2.65001">
        <ele>752.8</ele>
        <time>2022-06-21T11:29:40Z</time>
      </trkpt>
      <trkpt lat="43.43125" lon="2.65">
        <ele>752.8</ele>
        <time>2022-06-21T11:29:41Z</time>
      </trkpt>
      <trkpt lat="43.43125" lon="2.64998">
        <ele>752.8</ele>
        <time>2022-06-21T11:29:42Z</time>
      </trkpt>
      <trkpt lat="43.43124" lon="2.64997">
        <ele>752.8</ele>
        <time>2022-06-21T11:29:43Z</time>
      </trkpt>
      <trkpt lat="43.43124" lon="2.64996">
        <ele>752.8</ele>
        <time>2022-06-21T11:29:44Z</time>
      </trkpt>
      <trkpt lat="43.43124" lon="2.64995">
        <ele>752.8</ele>
        <time>2022-06-21T11:29:45Z</time>
      </trkpt>
      <trkpt lat="43.43124" lon="2.64994">
        <ele>752.8</ele>
        <time>2022-06-21T11:29:46Z</time>
      </trkpt>
      <trkpt lat="43.43123" lon="2.64991">
        <ele>752.8</ele>
        <time>2022-06-21T11:29:47Z</time>
      </trkpt>
      <trkpt lat="43.43123" lon="2.6499">
        <ele>752.8</ele>
        <time>2022-06-21T11:29:48Z</time>
      </trkpt>
      <trkpt lat="43.43123" lon="2.64989">
        <ele>752.8</ele>
        <time>2022-06-21T11:29:49Z</time>
      </trkpt>
      <trkpt lat="43.43123" lon="2.64987">
        <ele>752.7</ele>
        <time>2022-06-21T11:29:50Z</time>
      </trkpt>
      <trkpt lat="43.43123" lon="2.64986">
        <ele>752.7</ele>
        <time>2022-06-21T11:29:51Z</time>
      </trkpt>
      <trkpt lat="43.43124" lon="2.64984">
        <ele>752.7</ele>
        <time>2022-06-21T11:29:52Z</time>
      </trkpt>
      <trkpt lat="43.43124" lon="2.64983">
        <ele>752.7</ele>
        <time>2022-06-21T11:29:53Z</time>
      </trkpt>
      <trkpt lat="43.43124" lon="2.64982">
        <ele>752.7</ele>
        <time>2022-06-21T11:29:54Z</time>
      </trkpt>
      <trkpt lat="43.43125" lon="2.64981">
        <ele>752.7</ele>
        <time>2022-06-21T11:29:55Z</time>
      </trkpt>
      <trkpt lat="43.43125" lon="2.6498">
        <ele>752.7</ele>
        <time>2022-06-21T11:29:56Z</time>
      </trkpt>
      <trkpt lat="43.43125" lon="2.64978">
        <ele>752.7</ele>
        <time>2022-06-21T11:29:57Z</time>
      </trkpt>
      <trkpt lat="43.43125" lon="2.64975">
        <ele>752.6</ele>
        <time>2022-06-21T11:29:58Z</time>
      </trkpt>
      <trkpt lat="43.43126" lon="2.64974">
        <ele>752.6</ele>
        <time>2022-06-21T11:29:59Z</time>
      </trkpt>
      <trkpt lat="43.43126" lon="2.64973">
        <ele>752.6</ele>
        <time>2022-06-21T11:30:00Z</time>
      </trkpt>
      <trkpt lat="43.43126" lon="2.64971">
        <ele>752.6</ele>
        <time>2022-06-21T11:30:01Z</time>
      </trkpt>
      <trkpt lat="43.43126" lon="2.64968">
        <ele>752.6</ele>
        <time>2022-06-21T11:30:02Z</time>
      </trkpt>
      <trkpt lat="43.43126" lon="2.64967">
        <ele>752.6</ele>
        <time>2022-06-21T11:30:03Z</time>
      </trkpt>
      <trkpt lat="43.43126" lon="2.64966">
        <ele>752.6</ele>
        <time>2022-06-21T11:30:04Z</time>
      </trkpt>
      <trkpt lat="43.43126" lon="2.64964">
        <ele>752.6</ele>
        <time>2022-06-21T11:30:05Z</time>
      </trkpt>
      <trkpt lat="43.43126" lon="2.64963">
        <ele>752.6</ele>
        <time>2022-06-21T11:30:06Z</time>
      </trkpt>
      <trkpt lat="43.43126" lon="2.64961">
        <ele>752.6</ele>
        <time>2022-06-21T11:30:07Z</time>
      </trkpt>
      <trkpt lat="43.43127" lon="2.64959">
        <ele>752.5</ele>
        <time>2022-06-21T11:30:08Z</time>
      </trkpt>
      <trkpt lat="43.43127" lon="2.64957">
        <ele>752.5</ele>
        <time>2022-06-21T11:30:09Z</time>
      </trkpt>
      <trkpt lat="43.43127" lon="2.64955">
        <ele>752.5</ele>
        <time>2022-06-21T11:30:10Z</time>
      </trkpt>
      <trkpt lat="43.43127" lon="2.64953">
        <ele>752.5</ele>
        <time>2022-06-21T11:30:11Z</time>
      </trkpt>
      <trkpt lat="43.43127" lon="2.64951">
        <ele>752.5</ele>
        <time>2022-06-21T11:30:12Z</time>
      </trkpt>
      <trkpt lat="43.43127" lon="2.6495">
        <ele>752.5</ele>
        <time>2022-06-21T11:30:13Z</time>
      </trkpt>
      <trkpt lat="43.43127" lon="2.64949">
        <ele>752.5</ele>
        <time>2022-06-21T11:30:14Z</time>
      </trkpt>
      <trkpt lat="43.43127" lon="2.64948">
        <ele>752.5</ele>
        <time>2022-06-21T11:30:15Z</time>
      </trkpt>
      <trkpt lat="43.43127" lon="2.64947">
        <ele>752.4</ele>
        <time>2022-06-21T11:30:16Z</time>
      </trkpt>
      <trkpt lat="43.43127" lon="2.64945">
        <ele>752.4</ele>
        <time>2022-06-21T11:30:17Z</time>
      </trkpt>
      <trkpt lat="43.43127" lon="2.64944">
        <ele>752.4</ele>
        <time>2022-06-21T11:30:18Z</time>
      </trkpt>
      <trkpt lat="43.43127" lon="2.64941">
        <ele>752.4</ele>
        <time>2022-06-21T11:30:19Z</time>
      </trkpt>
      <trkpt lat="43.43128" lon="2.6494">
        <ele>752.3</ele>
        <time>2022-06-21T11:30:20Z</time>
      </trkpt>
      <trkpt lat="43.43128" lon="2.64939">
        <ele>752.3</ele>
        <time>2022-06-21T11:30:21Z</time>
      </trkpt>
      <trkpt lat="43.43128" lon="2.64937">
        <ele>752.3</ele>
        <time>2022-06-21T11:30:22Z</time>
      </trkpt>
      <trkpt lat="43.43128" lon="2.64935">
        <ele>752.2</ele>
        <time>2022-06-21T11:30:23Z</time>
      </trkpt>
      <trkpt lat="43.43128" lon="2.64934">
        <ele>752.2</ele>
        <time>2022-06-21T11:30:24Z</time>
      </trkpt>
      <trkpt lat="43.43128" lon="2.64933">
        <ele>752.2</ele>
        <time>2022-06-21T11:30:25Z</time>
      </trkpt>
      <trkpt lat="43.43128" lon="2.64931">
        <ele>752.1</ele>
        <time>2022-06-21T11:30:26Z</time>
      </trkpt>
      <trkpt lat="43.43128" lon="2.6493">
        <ele>752</ele>
        <time>2022-06-21T11:30:27Z</time>
      </trkpt>
      <trkpt lat="43.43129" lon="2.64928">
        <ele>752</ele>
        <time>2022-06-21T11:30:28Z</time>
      </trkpt>
      <trkpt lat="43.43129" lon="2.64926">
        <ele>751.9</ele>
        <time>2022-06-21T11:30:29Z</time>
      </trkpt>
      <trkpt lat="43.4313" lon="2.64925">
        <ele>751.8</ele>
        <time>2022-06-21T11:30:30Z</time>
      </trkpt>
      <trkpt lat="43.4313" lon="2.64924">
        <ele>751.8</ele>
        <time>2022-06-21T11:30:31Z</time>
      </trkpt>
      <trkpt lat="43.43131" lon="2.64923">
        <ele>751.7</ele>
        <time>2022-06-21T11:30:32Z</time>
      </trkpt>
      <trkpt lat="43.43131" lon="2.64921">
        <ele>751.6</ele>
        <time>2022-06-21T11:30:33Z</time>
      </trkpt>
      <trkpt lat="43.43131" lon="2.64919">
        <ele>751.5</ele>
        <time>2022-06-21T11:30:34Z</time>
      </trkpt>
      <trkpt lat="43.43132" lon="2.64918">
        <ele>751.4</ele>
        <time>2022-06-21T11:30:35Z</time>
      </trkpt>
      <trkpt lat="43.43132" lon="2.64916">
        <ele>751.3</ele>
        <time>2022-06-21T11:30:36Z</time>
      </trkpt>
      <trkpt lat="43.43132" lon="2.64915">
        <ele>751.3</ele>
        <time>2022-06-21T11:30:37Z</time>
      </trkpt>
      <trkpt lat="43.43132" lon="2.64914">
        <ele>751.2</ele>
        <time>2022-06-21T11:30:38Z</time>
      </trkpt>
      <trkpt lat="43.43132" lon="2.64912">
        <ele>751</ele>
        <time>2022-06-21T11:30:39Z</time>
      </trkpt>
      <trkpt lat="43.43132" lon="2.64911">
        <ele>751</ele>
        <time>2022-06-21T11:30:40Z</time>
      </trkpt>
      <trkpt lat="43.43133" lon="2.6491">
        <ele>750.9</ele>
        <time>2022-06-21T11:30:41Z</time>
      </trkpt>
      <trkpt lat="43.43134" lon="2.64909">
        <ele>750.8</ele>
        <time>2022-06-21T11:30:42Z</time>
      </trkpt>
      <trkpt lat="43.43134" lon="2.64907">
        <ele>750.7</ele>
        <time>2022-06-21T11:30:43Z</time>
      </trkpt>
      <trkpt lat="43.43134" lon="2.64905">
        <ele>750.5</ele>
        <time>2022-06-21T11:30:44Z</time>
      </trkpt>
      <trkpt lat="43.43134" lon="2.64903">
        <ele>750.4</ele>
        <time>2022-06-21T11:30:45Z</time>
      </trkpt>
      <trkpt lat="43.43135" lon="2.64902">
        <ele>750.3</ele>
        <time>2022-06-21T11:30:46Z</time>
      </trkpt>
      <trkpt lat="43.43135" lon="2.64901">
        <ele>750.2</ele>
        <time>2022-06-21T11:30:47Z</time>
      </trkpt>
      <trkpt lat="43.43135" lon="2.649">
        <ele>750.1</ele>
        <time>2022-06-21T11:30:48Z</time>
      </trkpt>
      <trkpt lat="43.43136" lon="2.64898">
        <ele>750</ele>
        <time>2022-06-21T11:30:49Z</time>
      </trkpt>
      <trkpt lat="43.43136" lon="2.64897">
        <ele>749.9</ele>
        <time>2022-06-21T11:30:50Z</time>
      </trkpt>
      <trkpt lat="43.43137" lon="2.64895">
        <ele>749.8</ele>
        <time>2022-06-21T11:30:51Z</time>
      </trkpt>
      <trkpt lat="43.43137" lon="2.64894">
        <ele>749.7</ele>
        <time>2022-06-21T11:30:52Z</time>
      </trkpt>
      <trkpt lat="43.43138" lon="2.64892">
        <ele>749.6</ele>
        <time>2022-06-21T11:30:53Z</time>
      </trkpt>
      <trkpt lat="43.43138" lon="2.64891">
        <ele>749.5</ele>
        <time>2022-06-21T11:30:54Z</time>
      </trkpt>
      <trkpt lat="43.43138" lon="2.64889">
        <ele>749.4</ele>
        <time>2022-06-21T11:30:55Z</time>
      </trkpt>
      <trkpt lat="43.43139" lon="2.64888">
        <ele>749.3</ele>
        <time>2022-06-21T11:30:56Z</time>
      </trkpt>
      <trkpt lat="43.43139" lon="2.64886">
        <ele>749.1</ele>
        <time>2022-06-21T11:30:57Z</time>
      </trkpt>
      <trkpt lat="43.4314" lon="2.64885">
        <ele>749</ele>
        <time>2022-06-21T11:30:58Z</time>
      </trkpt>
      <trkpt lat="43.4314" lon="2.64883">
        <ele>748.9</ele>
        <time>2022-06-21T11:30:59Z</time>
      </trkpt>
      <trkpt lat="43.43141" lon="2.64882">
        <ele>748.8</ele>
        <time>2022-06-21T11:31:00Z</time>
      </trkpt>
      <trkpt lat="43.43142" lon="2.64879">
        <ele>748.4</ele>
        <time>2022-06-21T11:31:01Z</time>
      </trkpt>
      <trkpt lat="43.43143" lon="2.64878">
        <ele>748.3</ele>
        <time>2022-06-21T11:31:02Z</time>
      </trkpt>
      <trkpt lat="43.43143" lon="2.64877">
        <ele>748.1</ele>
        <time>2022-06-21T11:31:03Z</time>
      </trkpt>
      <trkpt lat="43.43144" lon="2.64876">
        <ele>748</ele>
        <time>2022-06-21T11:31:04Z</time>
      </trkpt>
      <trkpt lat="43.43144" lon="2.64875">
        <ele>747.8</ele>
        <time>2022-06-21T11:31:05Z</time>
      </trkpt>
      <trkpt lat="43.43145" lon="2.64874">
        <ele>747.6</ele>
        <time>2022-06-21T11:31:06Z</time>
      </trkpt>
      <trkpt lat="43.43146" lon="2.64873">
        <ele>747.5</ele>
        <time>2022-06-21T11:31:07Z</time>
      </trkpt>
      <trkpt lat="43.43147" lon="2.64871">
        <ele>747.2</ele>
        <time>2022-06-21T11:31:08Z</time>
      </trkpt>
      <trkpt lat="43.43147" lon="2.6487">
        <ele>747.1</ele>
        <time>2022-06-21T11:31:09Z</time>
      </trkpt>
      <trkpt lat="43.43147" lon="2.64869">
        <ele>747</ele>
        <time>2022-06-21T11:31:10Z</time>
      </trkpt>
      <trkpt lat="43.43147" lon="2.64867">
        <ele>746.8</ele>
        <time>2022-06-21T11:31:11Z</time>
      </trkpt>
      <trkpt lat="43.43148" lon="2.64866">
        <ele>746.7</ele>
        <time>2022-06-21T11:31:12Z</time>
      </trkpt>
      <trkpt lat="43.43148" lon="2.64865">
        <ele>746.5</ele>
        <time>2022-06-21T11:31:13Z</time>
      </trkpt>
      <trkpt lat="43.43148" lon="2.64863">
        <ele>746.4</ele>
        <time>2022-06-21T11:31:14Z</time>
      </trkpt>
      <trkpt lat="43.43149" lon="2.64862">
        <ele>746.2</ele>
        <time>2022-06-21T11:31:15Z</time>
      </trkpt>
      <trkpt lat="43.43149" lon="2.64861">
        <ele>746</ele>
        <time>2022-06-21T11:31:16Z</time>
      </trkpt>
      <trkpt lat="43.4315" lon="2.6486">
        <ele>745.9</ele>
        <time>2022-06-21T11:31:17Z</time>
      </trkpt>
      <trkpt lat="43.43151" lon="2.64859">
        <ele>745.8</ele>
        <time>2022-06-21T11:31:18Z</time>
      </trkpt>
      <trkpt lat="43.43151" lon="2.64858">
        <ele>745.7</ele>
        <time>2022-06-21T11:31:19Z</time>
      </trkpt>
      <trkpt lat="43.43151" lon="2.64857">
        <ele>745.5</ele>
        <time>2022-06-21T11:31:20Z</time>
      </trkpt>
      <trkpt lat="43.43151" lon="2.64856">
        <ele>745.5</ele>
        <time>2022-06-21T11:31:21Z</time>
      </trkpt>
      <trkpt lat="43.43151" lon="2.64855">
        <ele>745.4</ele>
        <time>2022-06-21T11:31:22Z</time>
      </trkpt>
      <trkpt lat="43.43152" lon="2.64854">
        <ele>745.2</ele>
        <time>2022-06-21T11:31:23Z</time>
      </trkpt>
      <trkpt lat="43.43152" lon="2.64854">
        <ele>745.1</ele>
        <time>2022-06-21T11:31:24Z</time>
      </trkpt>
      <trkpt lat="43.43152" lon="2.64853">
        <ele>745.1</ele>
        <time>2022-06-21T11:31:25Z</time>
      </trkpt>
      <trkpt lat="43.43152" lon="2.64852">
        <ele>745</ele>
        <time>2022-06-21T11:31:26Z</time>
      </trkpt>
      <trkpt lat="43.43152" lon="2.64852">
        <ele>745</ele>
        <time>2022-06-21T11:31:27Z</time>
      </trkpt>
      <trkpt lat="43.43152" lon="2.64852">
        <ele>745</ele>
        <time>2022-06-21T11:31:28Z</time>
      </trkpt>
      <trkpt lat="43.43152" lon="2.64852">
        <ele>745</ele>
        <time>2022-06-21T11:31:29Z</time>
      </trkpt>
      <trkpt lat="43.43152" lon="2.64852">
        <ele>745</ele>
        <time>2022-06-21T11:31:30Z</time>
      </trkpt>
      <trkpt lat="43.43152" lon="2.64852">
        <ele>745</ele>
        <time>2022-06-21T11:31:31Z</time>
      </trkpt>
      <trkpt lat="43.43152" lon="2.64853">
        <ele>745</ele>
        <time>2022-06-21T11:31:32Z</time>
      </trkpt>
      <trkpt lat="43.43152" lon="2.64852">
        <ele>744.9</ele>
        <time>2022-06-21T11:31:33Z</time>
      </trkpt>
      <trkpt lat="43.43152" lon="2.64852">
        <ele>744.9</ele>
        <time>2022-06-21T11:31:34Z</time>
      </trkpt>
      <trkpt lat="43.43152" lon="2.64851">
        <ele>744.8</ele>
        <time>2022-06-21T11:31:35Z</time>
      </trkpt>
      <trkpt lat="43.43152" lon="2.64851">
        <ele>744.8</ele>
        <time>2022-06-21T11:31:36Z</time>
      </trkpt>
      <trkpt lat="43.43152" lon="2.64851">
        <ele>744.8</ele>
        <time>2022-06-21T11:31:37Z</time>
      </trkpt>
      <trkpt lat="43.43152" lon="2.64851">
        <ele>744.7</ele>
        <time>2022-06-21T11:31:38Z</time>
      </trkpt>
      <trkpt lat="43.43152" lon="2.64851">
        <ele>744.7</ele>
        <time>2022-06-21T11:31:39Z</time>
      </trkpt>
      <trkpt lat="43.43152" lon="2.64851">
        <ele>744.7</ele>
        <time>2022-06-21T11:31:40Z</time>
      </trkpt>
      <trkpt lat="43.43152" lon="2.64851">
        <ele>744.7</ele>
        <time>2022-06-21T11:31:41Z</time>
      </trkpt>
      <trkpt lat="43.43152" lon="2.64851">
        <ele>744.7</ele>
        <time>2022-06-21T11:31:42Z</time>
      </trkpt>
      <trkpt lat="43.43152" lon="2.64851">
        <ele>744.7</ele>
        <time>2022-06-21T11:31:43Z</time>
      </trkpt>
      <trkpt lat="43.43152" lon="2.64851">
        <ele>744.7</ele>
        <time>2022-06-21T11:31:44Z</time>
      </trkpt>
      <trkpt lat="43.43152" lon="2.64851">
        <ele>744.7</ele>
        <time>2022-06-21T11:31:45Z</time>
      </trkpt>
      <trkpt lat="43.43152" lon="2.64851">
        <ele>744.7</ele>
        <time>2022-06-21T11:31:46Z</time>
      </trkpt>
      <trkpt lat="43.43152" lon="2.64851">
        <ele>744.7</ele>
        <time>2022-06-21T11:31:47Z</time>
      </trkpt>
      <trkpt lat="43.43152" lon="2.64851">
        <ele>744.7</ele>
        <time>2022-06-21T11:31:48Z</time>
      </trkpt>
      <trkpt lat="43.43152" lon="2.64851">
        <ele>744.7</ele>
        <time>2022-06-21T11:31:49Z</time>
      </trkpt>
      <trkpt lat="43.43152" lon="2.64851">
        <ele>744.7</ele>
        <time>2022-06-21T11:31:50Z</time>
      </trkpt>
      <trkpt lat="43.43152" lon="2.64851">
        <ele>744.7</ele>
        <time>2022-06-21T11:31:51Z</time>
      </trkpt>
      <trkpt lat="43.43152" lon="2.64851">
        <ele>744.7</ele>
        <time>2022-06-21T11:31:52Z</time>
      </trkpt>
      <trkpt lat="43.43152" lon="2.64851">
        <ele>744.7</ele>
        <time>2022-06-21T11:31:53Z</time>
      </trkpt>
      <trkpt lat="43.43152" lon="2.64851">
        <ele>744.7</ele>
        <time>2022-06-21T11:31:54Z</time>
      </trkpt>
      <trkpt lat="43.43152" lon="2.64851">
        <ele>744.7</ele>
        <time>2022-06-21T11:31:55Z</time>
      </trkpt>
      <trkpt lat="43.43152" lon="2.64851">
        <ele>744.7</ele>
        <time>2022-06-21T11:31:56Z</time>
      </trkpt>
      <trkpt lat="43.43152" lon="2.64851">
        <ele>744.7</ele>
        <time>2022-06-21T11:31:57Z</time>
      </trkpt>
      <trkpt lat="43.43152" lon="2.64851">
        <ele>744.7</ele>
        <time>2022-06-21T11:31:58Z</time>
      </trkpt>
      <trkpt lat="43.43152" lon="2.64851">
        <ele>744.7</ele>
        <time>2022-06-21T11:31:59Z</time>
      </trkpt>
      <trkpt lat="43.43152" lon="2.64851">
        <ele>744.7</ele>
        <time>2022-06-21T11:32:00Z</time>
      </trkpt>
      <trkpt lat="43.43152" lon="2.64851">
        <ele>744.7</ele>
        <time>2022-06-21T11:32:01Z</time>
      </trkpt>
      <trkpt lat="43.43152" lon="2.64851">
        <ele>744.7</ele>
        <time>2022-06-21T11:32:02Z</time>
      </trkpt>
      <trkpt lat="43.43152" lon="2.64851">
        <ele>744.7</ele>
        <time>2022-06-21T11:32:03Z</time>
      </trkpt>
      <trkpt lat="43.43152" lon="2.64851">
        <ele>744.7</ele>
        <time>2022-06-21T11:32:04Z</time>
      </trkpt>
      <trkpt lat="43.43152" lon="2.64851">
        <ele>744.7</ele>
        <time>2022-06-21T11:32:05Z</time>
      </trkpt>
      <trkpt lat="43.43152" lon="2.64851">
        <ele>744.7</ele>
        <time>2022-06-21T11:32:06Z</time>
      </trkpt>
      <trkpt lat="43.43152" lon="2.64851">
        <ele>744.7</ele>
        <time>2022-06-21T11:32:07Z</time>
      </trkpt>
      <trkpt lat="43.43152" lon="2.64851">
        <ele>744.7</ele>
        <time>2022-06-21T11:32:08Z</time>
      </trkpt>
      <trkpt lat="43.43152" lon="2.64851">
        <ele>744.7</ele>
        <time>2022-06-21T11:32:09Z</time>
      </trkpt>
      <trkpt lat="43.43152" lon="2.64851">
        <ele>744.7</ele>
        <time>2022-06-21T11:32:10Z</time>
      </trkpt>
      <trkpt lat="43.43152" lon="2.64851">
        <ele>744.7</ele>
        <time>2022-06-21T11:32:11Z</time>
      </trkpt>
      <trkpt lat="43.43152" lon="2.64851">
        <ele>744.7</ele>
        <time>2022-06-21T11:32:12Z</time>
      </trkpt>
      <trkpt lat="43.43152" lon="2.64851">
        <ele>744.7</ele>
        <time>2022-06-21T11:32:13Z</time>
      </trkpt>
      <trkpt lat="43.43152" lon="2.64851">
        <ele>744.7</ele>
        <time>2022-06-21T11:32:14Z</time>
      </trkpt>
      <trkpt lat="43.43152" lon="2.64851">
        <ele>744.7</ele>
        <time>2022-06-21T11:32:15Z</time>
      </trkpt>
      <trkpt lat="43.43152" lon="2.64851">
        <ele>744.7</ele>
        <time>2022-06-21T11:32:16Z</time>
      </trkpt>
      <trkpt lat="43.43152" lon="2.64851">
        <ele>744.7</ele>
        <time>2022-06-21T11:32:17Z</time>
      </trkpt>
      <trkpt lat="43.43152" lon="2.64851">
        <ele>744.7</ele>
        <time>2022-06-21T11:32:18Z</time>
      </trkpt>
      <trkpt lat="43.43152" lon="2.64851">
        <ele>744.7</ele>
        <time>2022-06-21T11:32:19Z</time>
      </trkpt>
      <trkpt lat="43.43152" lon="2.64851">
        <ele>744.7</ele>
        <time>2022-06-21T11:32:20Z</time>
      </trkpt>
      <trkpt lat="43.43152" lon="2.64851">
        <ele>744.7</ele>
        <time>2022-06-21T11:32:21Z</time>
      </trkpt>
      <trkpt lat="43.43152" lon="2.64851">
        <ele>744.7</ele>
        <time>2022-06-21T11:32:22Z</time>
      </trkpt>
      <trkpt lat="43.43152" lon="2.64851">
        <ele>744.7</ele>
        <time>2022-06-21T11:32:23Z</time>
      </trkpt>
      <trkpt lat="43.43152" lon="2.64851">
        <ele>744.7</ele>
        <time>2022-06-21T11:32:24Z</time>
      </trkpt>
      <trkpt lat="43.43152" lon="2.64851">
        <ele>744.7</ele>
        <time>2022-06-21T11:32:25Z</time>
      </trkpt>
      <trkpt lat="43.43152" lon="2.64851">
        <ele>744.7</ele>
        <time>2022-06-21T11:32:26Z</time>
      </trkpt>
      <trkpt lat="43.43152" lon="2.64851">
        <ele>744.7</ele>
        <time>2022-06-21T11:32:27Z</time>
      </trkpt>
      <trkpt lat="43.43152" lon="2.64851">
        <ele>744.7</ele>
        <time>2022-06-21T11:32:28Z</time>
      </trkpt>
      <trkpt lat="43.43152" lon="2.64851">
        <ele>744.7</ele>
        <time>2022-06-21T11:32:29Z</time>
      </trkpt>
      <trkpt lat="43.43152" lon="2.64851">
        <ele>744.7</ele>
        <time>2022-06-21T11:32:30Z</time>
      </trkpt>
      <trkpt lat="43.43152" lon="2.64851">
        <ele>744.7</ele>
        <time>2022-06-21T11:32:31Z</time>
      </trkpt>
      <trkpt lat="43.43152" lon="2.64851">
        <ele>744.7</ele>
        <time>2022-06-21T11:32:32Z</time>
      </trkpt>
      <trkpt lat="43.43152" lon="2.64851">
        <ele>744.7</ele>
        <time>2022-06-21T11:32:33Z</time>
      </trkpt>
      <trkpt lat="43.43152" lon="2.64851">
        <ele>744.7</ele>
        <time>2022-06-21T11:32:34Z</time>
      </trkpt>
      <trkpt lat="43.43152" lon="2.64851">
        <ele>744.7</ele>
        <time>2022-06-21T11:32:35Z</time>
      </trkpt>
      <trkpt lat="43.43152" lon="2.64851">
        <ele>744.7</ele>
        <time>2022-06-21T11:32:36Z</time>
      </trkpt>
      <trkpt lat="43.43152" lon="2.64851">
        <ele>744.7</ele>
        <time>2022-06-21T11:32:37Z</time>
      </trkpt>
      <trkpt lat="43.43152" lon="2.64851">
        <ele>744.7</ele>
        <time>2022-06-21T11:32:38Z</time>
      </trkpt>
      <trkpt lat="43.43152" lon="2.64851">
        <ele>744.7</ele>
        <time>2022-06-21T11:32:39Z</time>
      </trkpt>
      <trkpt lat="43.43152" lon="2.64851">
        <ele>744.7</ele>
        <time>2022-06-21T11:32:40Z</time>
      </trkpt>
      <trkpt lat="43.43152" lon="2.64851">
        <ele>744.7</ele>
        <time>2022-06-21T11:32:41Z</time>
      </trkpt>
      <trkpt lat="43.43152" lon="2.64851">
        <ele>744.7</ele>
        <time>2022-06-21T11:32:42Z</time>
      </trkpt>
      <trkpt lat="43.43152" lon="2.64851">
        <ele>744.7</ele>
        <time>2022-06-21T11:32:43Z</time>
      </trkpt>
      <trkpt lat="43.43152" lon="2.64851">
        <ele>744.7</ele>
        <time>2022-06-21T11:32:44Z</time>
      </trkpt>
      <trkpt lat="43.43152" lon="2.64851">
        <ele>744.7</ele>
        <time>2022-06-21T11:32:45Z</time>
      </trkpt>
      <trkpt lat="43.43152" lon="2.64851">
        <ele>744.7</ele>
        <time>2022-06-21T11:32:46Z</time>
      </trkpt>
      <trkpt lat="43.43152" lon="2.64851">
        <ele>744.7</ele>
        <time>2022-06-21T11:32:47Z</time>
      </trkpt>
      <trkpt lat="43.43152" lon="2.64851">
        <ele>744.7</ele>
        <time>2022-06-21T11:32:48Z</time>
      </trkpt>
      <trkpt lat="43.43152" lon="2.64851">
        <ele>744.7</ele>
        <time>2022-06-21T11:32:49Z</time>
      </trkpt>
      <trkpt lat="43.43152" lon="2.64851">
        <ele>744.7</ele>
        <time>2022-06-21T11:32:50Z</time>
      </trkpt>
      <trkpt lat="43.43152" lon="2.64851">
        <ele>744.7</ele>
        <time>2022-06-21T11:32:51Z</time>
      </trkpt>
      <trkpt lat="43.43152" lon="2.64851">
        <ele>744.7</ele>
        <time>2022-06-21T11:32:52Z</time>
      </trkpt>
      <trkpt lat="43.43152" lon="2.64851">
        <ele>744.7</ele>
        <time>2022-06-21T11:32:53Z</time>
      </trkpt>
      <trkpt lat="43.43152" lon="2.64851">
        <ele>744.7</ele>
        <time>2022-06-21T11:32:54Z</time>
      </trkpt>
      <trkpt lat="43.43152" lon="2.64851">
        <ele>744.7</ele>
        <time>2022-06-21T11:32:55Z</time>
      </trkpt>
      <trkpt lat="43.43152" lon="2.64851">
        <ele>744.7</ele>
        <time>2022-06-21T11:32:56Z</time>
      </trkpt>
      <trkpt lat="43.43152" lon="2.64851">
        <ele>744.7</ele>
        <time>2022-06-21T11:32:57Z</time>
      </trkpt>
      <trkpt lat="43.43152" lon="2.64851">
        <ele>744.7</ele>
        <time>2022-06-21T11:32:58Z</time>
      </trkpt>
      <trkpt lat="43.43152" lon="2.64851">
        <ele>744.7</ele>
        <time>2022-06-21T11:32:59Z</time>
      </trkpt>
      <trkpt lat="43.43152" lon="2.64851">
        <ele>744.7</ele>
        <time>2022-06-21T11:33:00Z</time>
      </trkpt>
      <trkpt lat="43.43152" lon="2.64851">
        <ele>744.7</ele>
        <time>2022-06-21T11:33:01Z</time>
      </trkpt>
      <trkpt lat="43.43152" lon="2.64851">
        <ele>744.7</ele>
        <time>2022-06-21T11:33:02Z</time>
      </trkpt>
      <trkpt lat="43.43152" lon="2.64851">
        <ele>744.7</ele>
        <time>2022-06-21T11:33:03Z</time>
      </trkpt>
      <trkpt lat="43.43152" lon="2.64851">
        <ele>744.7</ele>
        <time>2022-06-21T11:33:04Z</time>
      </trkpt>
      <trkpt lat="43.43152" lon="2.64851">
        <ele>744.7</ele>
        <time>2022-06-21T11:33:05Z</time>
      </trkpt>
      <trkpt lat="43.43152" lon="2.64851">
        <ele>744.7</ele>
        <time>2022-06-21T11:33:06Z</time>
      </trkpt>
      <trkpt lat="43.43152" lon="2.64851">
        <ele>744.7</ele>
        <time>2022-06-21T11:33:07Z</time>
      </trkpt>
      <trkpt lat="43.43152" lon="2.64851">
        <ele>744.7</ele>
        <time>2022-06-21T11:33:08Z</time>
      </trkpt>
      <trkpt lat="43.43152" lon="2.64851">
        <ele>744.7</ele>
        <time>2022-06-21T11:33:09Z</time>
      </trkpt>
      <trkpt lat="43.43152" lon="2.64851">
        <ele>744.7</ele>
        <time>2022-06-21T11:33:10Z</time>
      </trkpt>
      <trkpt lat="43.43152" lon="2.64851">
        <ele>744.7</ele>
        <time>2022-06-21T11:33:11Z</time>
      </trkpt>
      <trkpt lat="43.43152" lon="2.64851">
        <ele>744.7</ele>
        <time>2022-06-21T11:33:12Z</time>
      </trkpt>
      <trkpt lat="43.43152" lon="2.64851">
        <ele>744.7</ele>
        <time>2022-06-21T11:33:13Z</time>
      </trkpt>
      <trkpt lat="43.43152" lon="2.64851">
        <ele>744.7</ele>
        <time>2022-06-21T11:33:14Z</time>
      </trkpt>
      <trkpt lat="43.43152" lon="2.64851">
        <ele>744.7</ele>
        <time>2022-06-21T11:33:15Z</time>
      </trkpt>
      <trkpt lat="43.43152" lon="2.64851">
        <ele>744.7</ele>
        <time>2022-06-21T11:33:16Z</time>
      </trkpt>
      <trkpt lat="43.43152" lon="2.64851">
        <ele>744.7</ele>
        <time>2022-06-21T11:33:17Z</time>
      </trkpt>
      <trkpt lat="43.43152" lon="2.64851">
        <ele>744.7</ele>
        <time>2022-06-21T11:33:18Z</time>
      </trkpt>
      <trkpt lat="43.43152" lon="2.64851">
        <ele>744.7</ele>
        <time>2022-06-21T11:33:19Z</time>
      </trkpt>
      <trkpt lat="43.43153" lon="2.64851">
        <ele>744.7</ele>
        <time>2022-06-21T11:33:20Z</time>
      </trkpt>
      <trkpt lat="43.43153" lon="2.6485">
        <ele>744.6</ele>
        <time>2022-06-21T11:33:21Z</time>
      </trkpt>
      <trkpt lat="43.43153" lon="2.64849">
        <ele>744.5</ele>
        <time>2022-06-21T11:33:22Z</time>
      </trkpt>
      <trkpt lat="43.43153" lon="2.64848">
        <ele>744.3</ele>
        <time>2022-06-21T11:33:23Z</time>
      </trkpt>
      <trkpt lat="43.43153" lon="2.64846">
        <ele>744.2</ele>
        <time>2022-06-21T11:33:24Z</time>
      </trkpt>
      <trkpt lat="43.43153" lon="2.64845">
        <ele>744</ele>
        <time>2022-06-21T11:33:25Z</time>
      </trkpt>
      <trkpt lat="43.43153" lon="2.64844">
        <ele>743.9</ele>
        <time>2022-06-21T11:33:26Z</time>
      </trkpt>
      <trkpt lat="43.43153" lon="2.64843">
        <ele>743.8</ele>
        <time>2022-06-21T11:33:27Z</time>
      </trkpt>
      <trkpt lat="43.43154" lon="2.64842">
        <ele>743.7</ele>
        <time>2022-06-21T11:33:28Z</time>
      </trkpt>
      <trkpt lat="43.43154" lon="2.64842">
        <ele>743.6</ele>
        <time>2022-06-21T11:33:29Z</time>
      </trkpt>
      <trkpt lat="43.43155" lon="2.64841">
        <ele>743.5</ele>
        <time>2022-06-21T11:33:30Z</time>
      </trkpt>
      <trkpt lat="43.43155" lon="2.64841">
        <ele>743.4</ele>
        <time>2022-06-21T11:33:31Z</time>
      </trkpt>
      <trkpt lat="43.43155" lon="2.64842">
        <ele>743.4</ele>
        <time>2022-06-21T11:33:32Z</time>
      </trkpt>
      <trkpt lat="43.43155" lon="2.64841">
        <ele>743.4</ele>
        <time>2022-06-21T11:33:33Z</time>
      </trkpt>
      <trkpt lat="43.43156" lon="2.64841">
        <ele>743.3</ele>
        <time>2022-06-21T11:33:34Z</time>
      </trkpt>
      <trkpt lat="43.43157" lon="2.64839">
        <ele>743.1</ele>
        <time>2022-06-21T11:33:35Z</time>
      </trkpt>
      <trkpt lat="43.43157" lon="2.64839">
        <ele>743</ele>
        <time>2022-06-21T11:33:36Z</time>
      </trkpt>
      <trkpt lat="43.43157" lon="2.64839">
        <ele>742.9</ele>
        <time>2022-06-21T11:33:37Z</time>
      </trkpt>
      <trkpt lat="43.43158" lon="2.64838">
        <ele>742.8</ele>
        <time>2022-06-21T11:33:38Z</time>
      </trkpt>
      <trkpt lat="43.43158" lon="2.64837">
        <ele>742.7</ele>
        <time>2022-06-21T11:33:39Z</time>
      </trkpt>
      <trkpt lat="43.43158" lon="2.64837">
        <ele>742.7</ele>
        <time>2022-06-21T11:33:40Z</time>
      </trkpt>
      <trkpt lat="43.43159" lon="2.64835">
        <ele>742.4</ele>
        <time>2022-06-21T11:33:41Z</time>
      </trkpt>
      <trkpt lat="43.4316" lon="2.64834">
        <ele>742.3</ele>
        <time>2022-06-21T11:33:42Z</time>
      </trkpt>
      <trkpt lat="43.4316" lon="2.64833">
        <ele>742.2</ele>
        <time>2022-06-21T11:33:43Z</time>
      </trkpt>
      <trkpt lat="43.4316" lon="2.64832">
        <ele>742.1</ele>
        <time>2022-06-21T11:33:44Z</time>
      </trkpt>
      <trkpt lat="43.43161" lon="2.64832">
        <ele>742</ele>
        <time>2022-06-21T11:33:45Z</time>
      </trkpt>
      <trkpt lat="43.43161" lon="2.64832">
        <ele>742</ele>
        <time>2022-06-21T11:33:46Z</time>
      </trkpt>
      <trkpt lat="43.43161" lon="2.64831">
        <ele>741.9</ele>
        <time>2022-06-21T11:33:47Z</time>
      </trkpt>
      <trkpt lat="43.43161" lon="2.6483">
        <ele>741.8</ele>
        <time>2022-06-21T11:33:48Z</time>
      </trkpt>
      <trkpt lat="43.43161" lon="2.64829">
        <ele>741.6</ele>
        <time>2022-06-21T11:33:49Z</time>
      </trkpt>
      <trkpt lat="43.43161" lon="2.64827">
        <ele>741.5</ele>
        <time>2022-06-21T11:33:50Z</time>
      </trkpt>
      <trkpt lat="43.43162" lon="2.64826">
        <ele>741.3</ele>
        <time>2022-06-21T11:33:51Z</time>
      </trkpt>
      <trkpt lat="43.43162" lon="2.64824">
        <ele>741.1</ele>
        <time>2022-06-21T11:33:52Z</time>
      </trkpt>
      <trkpt lat="43.43162" lon="2.64821">
        <ele>740.8</ele>
        <time>2022-06-21T11:33:53Z</time>
      </trkpt>
      <trkpt lat="43.43162" lon="2.6482">
        <ele>740.7</ele>
        <time>2022-06-21T11:33:54Z</time>
      </trkpt>
      <trkpt lat="43.43163" lon="2.64819">
        <ele>740.5</ele>
        <time>2022-06-21T11:33:55Z</time>
      </trkpt>
      <trkpt lat="43.43163" lon="2.64817">
        <ele>740.3</ele>
        <time>2022-06-21T11:33:56Z</time>
      </trkpt>
      <trkpt lat="43.43162" lon="2.64815">
        <ele>740.1</ele>
        <time>2022-06-21T11:33:57Z</time>
      </trkpt>
      <trkpt lat="43.43162" lon="2.64814">
        <ele>739.9</ele>
        <time>2022-06-21T11:33:58Z</time>
      </trkpt>
      <trkpt lat="43.43162" lon="2.64812">
        <ele>739.8</ele>
        <time>2022-06-21T11:33:59Z</time>
      </trkpt>
      <trkpt lat="43.43162" lon="2.64811">
        <ele>739.6</ele>
        <time>2022-06-21T11:34:00Z</time>
      </trkpt>
      <trkpt lat="43.43163" lon="2.6481">
        <ele>739.5</ele>
        <time>2022-06-21T11:34:01Z</time>
      </trkpt>
      <trkpt lat="43.43163" lon="2.64809">
        <ele>739.4</ele>
        <time>2022-06-21T11:34:02Z</time>
      </trkpt>
      <trkpt lat="43.43163" lon="2.64808">
        <ele>739.3</ele>
        <time>2022-06-21T11:34:03Z</time>
      </trkpt>
      <trkpt lat="43.43163" lon="2.64807">
        <ele>739.2</ele>
        <time>2022-06-21T11:34:04Z</time>
      </trkpt>
      <trkpt lat="43.43164" lon="2.64806">
        <ele>739</ele>
        <time>2022-06-21T11:34:05Z</time>
      </trkpt>
      <trkpt lat="43.43164" lon="2.64805">
        <ele>738.9</ele>
        <time>2022-06-21T11:34:06Z</time>
      </trkpt>
      <trkpt lat="43.43164" lon="2.64803">
        <ele>738.7</ele>
        <time>2022-06-21T11:34:07Z</time>
      </trkpt>
      <trkpt lat="43.43165" lon="2.64802">
        <ele>738.6</ele>
        <time>2022-06-21T11:34:08Z</time>
      </trkpt>
      <trkpt lat="43.43165" lon="2.648">
        <ele>738.4</ele>
        <time>2022-06-21T11:34:09Z</time>
      </trkpt>
      <trkpt lat="43.43166" lon="2.64799">
        <ele>738.2</ele>
        <time>2022-06-21T11:34:10Z</time>
      </trkpt>
      <trkpt lat="43.43166" lon="2.64797">
        <ele>738</ele>
        <time>2022-06-21T11:34:11Z</time>
      </trkpt>
      <trkpt lat="43.43167" lon="2.64797">
        <ele>737.9</ele>
        <time>2022-06-21T11:34:12Z</time>
      </trkpt>
      <trkpt lat="43.43167" lon="2.64796">
        <ele>737.8</ele>
        <time>2022-06-21T11:34:13Z</time>
      </trkpt>
      <trkpt lat="43.43168" lon="2.64795">
        <ele>737.7</ele>
        <time>2022-06-21T11:34:14Z</time>
      </trkpt>
      <trkpt lat="43.43168" lon="2.64794">
        <ele>737.5</ele>
        <time>2022-06-21T11:34:15Z</time>
      </trkpt>
      <trkpt lat="43.43169" lon="2.64792">
        <ele>737.4</ele>
        <time>2022-06-21T11:34:16Z</time>
      </trkpt>
      <trkpt lat="43.43169" lon="2.64791">
        <ele>737.2</ele>
        <time>2022-06-21T11:34:17Z</time>
      </trkpt>
      <trkpt lat="43.43169" lon="2.64789">
        <ele>737</ele>
        <time>2022-06-21T11:34:18Z</time>
      </trkpt>
      <trkpt lat="43.43169" lon="2.64788">
        <ele>736.8</ele>
        <time>2022-06-21T11:34:19Z</time>
      </trkpt>
      <trkpt lat="43.4317" lon="2.64786">
        <ele>736.7</ele>
        <time>2022-06-21T11:34:20Z</time>
      </trkpt>
      <trkpt lat="43.4317" lon="2.64785">
        <ele>736.5</ele>
        <time>2022-06-21T11:34:21Z</time>
      </trkpt>
      <trkpt lat="43.4317" lon="2.64784">
        <ele>736.4</ele>
        <time>2022-06-21T11:34:22Z</time>
      </trkpt>
      <trkpt lat="43.4317" lon="2.64782">
        <ele>736.2</ele>
        <time>2022-06-21T11:34:23Z</time>
      </trkpt>
      <trkpt lat="43.43171" lon="2.64781">
        <ele>736.1</ele>
        <time>2022-06-21T11:34:24Z</time>
      </trkpt>
      <trkpt lat="43.43171" lon="2.6478">
        <ele>736</ele>
        <time>2022-06-21T11:34:25Z</time>
      </trkpt>
      <trkpt lat="43.43171" lon="2.64779">
        <ele>735.8</ele>
        <time>2022-06-21T11:34:26Z</time>
      </trkpt>
      <trkpt lat="43.43172" lon="2.64778">
        <ele>735.7</ele>
        <time>2022-06-21T11:34:27Z</time>
      </trkpt>
      <trkpt lat="43.43172" lon="2.64776">
        <ele>735.4</ele>
        <time>2022-06-21T11:34:28Z</time>
      </trkpt>
      <trkpt lat="43.43172" lon="2.64774">
        <ele>735.3</ele>
        <time>2022-06-21T11:34:29Z</time>
      </trkpt>
      <trkpt lat="43.43173" lon="2.64773">
        <ele>735.1</ele>
        <time>2022-06-21T11:34:30Z</time>
      </trkpt>
      <trkpt lat="43.43173" lon="2.64772">
        <ele>735</ele>
        <time>2022-06-21T11:34:31Z</time>
      </trkpt>
      <trkpt lat="43.43173" lon="2.64771">
        <ele>734.8</ele>
        <time>2022-06-21T11:34:32Z</time>
      </trkpt>
      <trkpt lat="43.43174" lon="2.64769">
        <ele>734.7</ele>
        <time>2022-06-21T11:34:33Z</time>
      </trkpt>
      <trkpt lat="43.43174" lon="2.64768">
        <ele>734.5</ele>
        <time>2022-06-21T11:34:34Z</time>
      </trkpt>
      <trkpt lat="43.43174" lon="2.64767">
        <ele>734.4</ele>
        <time>2022-06-21T11:34:35Z</time>
      </trkpt>
      <trkpt lat="43.43175" lon="2.64766">
        <ele>734.3</ele>
        <time>2022-06-21T11:34:36Z</time>
      </trkpt>
      <trkpt lat="43.43175" lon="2.64766">
        <ele>734.3</ele>
        <time>2022-06-21T11:34:37Z</time>
      </trkpt>
      <trkpt lat="43.43175" lon="2.64765">
        <ele>734.2</ele>
        <time>2022-06-21T11:34:38Z</time>
      </trkpt>
      <trkpt lat="43.43175" lon="2.64764">
        <ele>734.1</ele>
        <time>2022-06-21T11:34:39Z</time>
      </trkpt>
      <trkpt lat="43.43175" lon="2.64763">
        <ele>733.9</ele>
        <time>2022-06-21T11:34:40Z</time>
      </trkpt>
      <trkpt lat="43.43174" lon="2.64762">
        <ele>733.8</ele>
        <time>2022-06-21T11:34:41Z</time>
      </trkpt>
      <trkpt lat="43.43174" lon="2.64761">
        <ele>733.7</ele>
        <time>2022-06-21T11:34:42Z</time>
      </trkpt>
      <trkpt lat="43.43174" lon="2.64761">
        <ele>733.7</ele>
        <time>2022-06-21T11:34:43Z</time>
      </trkpt>
      <trkpt lat="43.43174" lon="2.6476">
        <ele>733.6</ele>
        <time>2022-06-21T11:34:44Z</time>
      </trkpt>
      <trkpt lat="43.43174" lon="2.64759">
        <ele>733.5</ele>
        <time>2022-06-21T11:34:45Z</time>
      </trkpt>
      <trkpt lat="43.43174" lon="2.64757">
        <ele>733.3</ele>
        <time>2022-06-21T11:34:46Z</time>
      </trkpt>
      <trkpt lat="43.43175" lon="2.64755">
        <ele>733.1</ele>
        <time>2022-06-21T11:34:47Z</time>
      </trkpt>
      <trkpt lat="43.43175" lon="2.64754">
        <ele>732.9</ele>
        <time>2022-06-21T11:34:48Z</time>
      </trkpt>
      <trkpt lat="43.43175" lon="2.64753">
        <ele>732.8</ele>
        <time>2022-06-21T11:34:49Z</time>
      </trkpt>
      <trkpt lat="43.43176" lon="2.64753">
        <ele>732.8</ele>
        <time>2022-06-21T11:34:50Z</time>
      </trkpt>
      <trkpt lat="43.43176" lon="2.64752">
        <ele>732.7</ele>
        <time>2022-06-21T11:34:51Z</time>
      </trkpt>
      <trkpt lat="43.43176" lon="2.64751">
        <ele>732.6</ele>
        <time>2022-06-21T11:34:52Z</time>
      </trkpt>
      <trkpt lat="43.43176" lon="2.6475">
        <ele>732.4</ele>
        <time>2022-06-21T11:34:53Z</time>
      </trkpt>
      <trkpt lat="43.43177" lon="2.64749">
        <ele>732.3</ele>
        <time>2022-06-21T11:34:54Z</time>
      </trkpt>
      <trkpt lat="43.43177" lon="2.64749">
        <ele>732.3</ele>
        <time>2022-06-21T11:34:55Z</time>
      </trkpt>
      <trkpt lat="43.43177" lon="2.64748">
        <ele>732.2</ele>
        <time>2022-06-21T11:34:56Z</time>
      </trkpt>
      <trkpt lat="43.43177" lon="2.64747">
        <ele>732.1</ele>
        <time>2022-06-21T11:34:57Z</time>
      </trkpt>
      <trkpt lat="43.43178" lon="2.64746">
        <ele>732</ele>
        <time>2022-06-21T11:34:58Z</time>
      </trkpt>
      <trkpt lat="43.43178" lon="2.64745">
        <ele>731.9</ele>
        <time>2022-06-21T11:34:59Z</time>
      </trkpt>
      <trkpt lat="43.43178" lon="2.64745">
        <ele>731.8</ele>
        <time>2022-06-21T11:35:00Z</time>
      </trkpt>
      <trkpt lat="43.43178" lon="2.64743">
        <ele>731.6</ele>
        <time>2022-06-21T11:35:01Z</time>
      </trkpt>
      <trkpt lat="43.43179" lon="2.6474">
        <ele>731.3</ele>
        <time>2022-06-21T11:35:02Z</time>
      </trkpt>
      <trkpt lat="43.4318" lon="2.64739">
        <ele>731.2</ele>
        <time>2022-06-21T11:35:03Z</time>
      </trkpt>
      <trkpt lat="43.4318" lon="2.64738">
        <ele>731</ele>
        <time>2022-06-21T11:35:04Z</time>
      </trkpt>
      <trkpt lat="43.43181" lon="2.64737">
        <ele>730.8</ele>
        <time>2022-06-21T11:35:05Z</time>
      </trkpt>
      <trkpt lat="43.43181" lon="2.64736">
        <ele>730.7</ele>
        <time>2022-06-21T11:35:06Z</time>
      </trkpt>
      <trkpt lat="43.43182" lon="2.64735">
        <ele>730.6</ele>
        <time>2022-06-21T11:35:07Z</time>
      </trkpt>
      <trkpt lat="43.43182" lon="2.64735">
        <ele>730.5</ele>
        <time>2022-06-21T11:35:08Z</time>
      </trkpt>
      <trkpt lat="43.43183" lon="2.64734">
        <ele>730.4</ele>
        <time>2022-06-21T11:35:09Z</time>
      </trkpt>
      <trkpt lat="43.43183" lon="2.64733">
        <ele>730.2</ele>
        <time>2022-06-21T11:35:10Z</time>
      </trkpt>
      <trkpt lat="43.43184" lon="2.64732">
        <ele>730.1</ele>
        <time>2022-06-21T11:35:11Z</time>
      </trkpt>
      <trkpt lat="43.43185" lon="2.64731">
        <ele>729.9</ele>
        <time>2022-06-21T11:35:12Z</time>
      </trkpt>
      <trkpt lat="43.43185" lon="2.64729">
        <ele>729.8</ele>
        <time>2022-06-21T11:35:13Z</time>
      </trkpt>
      <trkpt lat="43.43185" lon="2.64728">
        <ele>729.7</ele>
        <time>2022-06-21T11:35:14Z</time>
      </trkpt>
      <trkpt lat="43.43186" lon="2.64728">
        <ele>729.6</ele>
        <time>2022-06-21T11:35:15Z</time>
      </trkpt>
      <trkpt lat="43.43186" lon="2.64728">
        <ele>729.6</ele>
        <time>2022-06-21T11:35:16Z</time>
      </trkpt>
      <trkpt lat="43.43186" lon="2.64728">
        <ele>729.6</ele>
        <time>2022-06-21T11:35:17Z</time>
      </trkpt>
      <trkpt lat="43.43186" lon="2.64728">
        <ele>729.6</ele>
        <time>2022-06-21T11:35:18Z</time>
      </trkpt>
      <trkpt lat="43.43186" lon="2.64728">
        <ele>729.5</ele>
        <time>2022-06-21T11:35:19Z</time>
      </trkpt>
      <trkpt lat="43.43186" lon="2.64727">
        <ele>729.4</ele>
        <time>2022-06-21T11:35:20Z</time>
      </trkpt>
      <trkpt lat="43.43187" lon="2.64726">
        <ele>729.2</ele>
        <time>2022-06-21T11:35:21Z</time>
      </trkpt>
      <trkpt lat="43.43187" lon="2.64724">
        <ele>729.1</ele>
        <time>2022-06-21T11:35:22Z</time>
      </trkpt>
      <trkpt lat="43.43188" lon="2.64724">
        <ele>729</ele>
        <time>2022-06-21T11:35:23Z</time>
      </trkpt>
      <trkpt lat="43.43188" lon="2.64724">
        <ele>729</ele>
        <time>2022-06-21T11:35:24Z</time>
      </trkpt>
      <trkpt lat="43.43188" lon="2.64724">
        <ele>729</ele>
        <time>2022-06-21T11:35:25Z</time>
      </trkpt>
      <trkpt lat="43.43188" lon="2.64724">
        <ele>729</ele>
        <time>2022-06-21T11:35:26Z</time>
      </trkpt>
      <trkpt lat="43.43188" lon="2.64724">
        <ele>729</ele>
        <time>2022-06-21T11:35:27Z</time>
      </trkpt>
      <trkpt lat="43.43188" lon="2.64723">
        <ele>728.9</ele>
        <time>2022-06-21T11:35:28Z</time>
      </trkpt>
      <trkpt lat="43.43189" lon="2.64722">
        <ele>728.7</ele>
        <time>2022-06-21T11:35:29Z</time>
      </trkpt>
      <trkpt lat="43.43189" lon="2.6472">
        <ele>728.5</ele>
        <time>2022-06-21T11:35:30Z</time>
      </trkpt>
      <trkpt lat="43.4319" lon="2.64718">
        <ele>728.2</ele>
        <time>2022-06-21T11:35:31Z</time>
      </trkpt>
      <trkpt lat="43.43191" lon="2.64717">
        <ele>728.1</ele>
        <time>2022-06-21T11:35:32Z</time>
      </trkpt>
      <trkpt lat="43.43191" lon="2.64716">
        <ele>728</ele>
        <time>2022-06-21T11:35:33Z</time>
      </trkpt>
      <trkpt lat="43.43191" lon="2.64715">
        <ele>727.9</ele>
        <time>2022-06-21T11:35:34Z</time>
      </trkpt>
      <trkpt lat="43.43193" lon="2.64713">
        <ele>727.6</ele>
        <time>2022-06-21T11:35:35Z</time>
      </trkpt>
      <trkpt lat="43.43193" lon="2.64712">
        <ele>727.4</ele>
        <time>2022-06-21T11:35:36Z</time>
      </trkpt>
      <trkpt lat="43.43194" lon="2.64711">
        <ele>727.3</ele>
        <time>2022-06-21T11:35:37Z</time>
      </trkpt>
      <trkpt lat="43.43194" lon="2.64711">
        <ele>727.3</ele>
        <time>2022-06-21T11:35:38Z</time>
      </trkpt>
      <trkpt lat="43.43194" lon="2.64711">
        <ele>727.3</ele>
        <time>2022-06-21T11:35:39Z</time>
      </trkpt>
      <trkpt lat="43.43194" lon="2.64711">
        <ele>727.2</ele>
        <time>2022-06-21T11:35:40Z</time>
      </trkpt>
      <trkpt lat="43.43194" lon="2.64711">
        <ele>727.2</ele>
        <time>2022-06-21T11:35:41Z</time>
      </trkpt>
      <trkpt lat="43.43194" lon="2.6471">
        <ele>727.2</ele>
        <time>2022-06-21T11:35:42Z</time>
      </trkpt>
      <trkpt lat="43.43194" lon="2.6471">
        <ele>727.1</ele>
        <time>2022-06-21T11:35:43Z</time>
      </trkpt>
      <trkpt lat="43.43194" lon="2.6471">
        <ele>727.1</ele>
        <time>2022-06-21T11:35:44Z</time>
      </trkpt>
      <trkpt lat="43.43195" lon="2.6471">
        <ele>727.1</ele>
        <time>2022-06-21T11:35:45Z</time>
      </trkpt>
      <trkpt lat="43.43195" lon="2.6471">
        <ele>727.1</ele>
        <time>2022-06-21T11:35:46Z</time>
      </trkpt>
      <trkpt lat="43.43195" lon="2.64709">
        <ele>727</ele>
        <time>2022-06-21T11:35:47Z</time>
      </trkpt>
      <trkpt lat="43.43195" lon="2.64709">
        <ele>727</ele>
        <time>2022-06-21T11:35:48Z</time>
      </trkpt>
      <trkpt lat="43.43195" lon="2.64709">
        <ele>727</ele>
        <time>2022-06-21T11:35:49Z</time>
      </trkpt>
      <trkpt lat="43.43195" lon="2.64709">
        <ele>727</ele>
        <time>2022-06-21T11:35:50Z</time>
      </trkpt>
      <trkpt lat="43.43195" lon="2.64709">
        <ele>726.9</ele>
        <time>2022-06-21T11:35:51Z</time>
      </trkpt>
      <trkpt lat="43.43195" lon="2.64708">
        <ele>726.9</ele>
        <time>2022-06-21T11:35:52Z</time>
      </trkpt>
      <trkpt lat="43.43195" lon="2.64708">
        <ele>726.9</ele>
        <time>2022-06-21T11:35:53Z</time>
      </trkpt>
      <trkpt lat="43.43196" lon="2.64708">
        <ele>726.9</ele>
        <time>2022-06-21T11:35:54Z</time>
      </trkpt>
      <trkpt lat="43.43196" lon="2.64708">
        <ele>726.8</ele>
        <time>2022-06-21T11:35:55Z</time>
      </trkpt>
      <trkpt lat="43.43196" lon="2.64708">
        <ele>726.8</ele>
        <time>2022-06-21T11:35:56Z</time>
      </trkpt>
      <trkpt lat="43.43198" lon="2.64704">
        <ele>726.3</ele>
        <time>2022-06-21T11:35:57Z</time>
      </trkpt>
      <trkpt lat="43.432" lon="2.64701">
        <ele>725.8</ele>
        <time>2022-06-21T11:35:58Z</time>
      </trkpt>
      <trkpt lat="43.43203" lon="2.64698">
        <ele>725.3</ele>
        <time>2022-06-21T11:35:59Z</time>
      </trkpt>
      <trkpt lat="43.43204" lon="2.64696">
        <ele>725</ele>
        <time>2022-06-21T11:36:00Z</time>
      </trkpt>
      <trkpt lat="43.43206" lon="2.64693">
        <ele>724.5</ele>
        <time>2022-06-21T11:36:01Z</time>
      </trkpt>
      <trkpt lat="43.43207" lon="2.64692">
        <ele>724.4</ele>
        <time>2022-06-21T11:36:02Z</time>
      </trkpt>
      <trkpt lat="43.43209" lon="2.64689">
        <ele>723.9</ele>
        <time>2022-06-21T11:36:03Z</time>
      </trkpt>
      <trkpt lat="43.43211" lon="2.64685">
        <ele>723.4</ele>
        <time>2022-06-21T11:36:04Z</time>
      </trkpt>
      <trkpt lat="43.43213" lon="2.64684">
        <ele>723.1</ele>
        <time>2022-06-21T11:36:05Z</time>
      </trkpt>
      <trkpt lat="43.43213" lon="2.64683">
        <ele>723</ele>
        <time>2022-06-21T11:36:06Z</time>
      </trkpt>
      <trkpt lat="43.43213" lon="2.64683">
        <ele>723</ele>
        <time>2022-06-21T11:36:07Z</time>
      </trkpt>
      <trkpt lat="43.43213" lon="2.64683">
        <ele>723</ele>
        <time>2022-06-21T11:36:08Z</time>
      </trkpt>
      <trkpt lat="43.43214" lon="2.64683">
        <ele>722.9</ele>
        <time>2022-06-21T11:36:09Z</time>
      </trkpt>
      <trkpt lat="43.43214" lon="2.64682">
        <ele>722.8</ele>
        <time>2022-06-21T11:36:10Z</time>
      </trkpt>
      <trkpt lat="43.43214" lon="2.64682">
        <ele>722.8</ele>
        <time>2022-06-21T11:36:11Z</time>
      </trkpt>
      <trkpt lat="43.43215" lon="2.64682">
        <ele>722.7</ele>
        <time>2022-06-21T11:36:12Z</time>
      </trkpt>
      <trkpt lat="43.43215" lon="2.64682">
        <ele>722.7</ele>
        <time>2022-06-21T11:36:13Z</time>
      </trkpt>
      <trkpt lat="43.43215" lon="2.64681">
        <ele>722.6</ele>
        <time>2022-06-21T11:36:14Z</time>
      </trkpt>
      <trkpt lat="43.43216" lon="2.64681">
        <ele>722.6</ele>
        <time>2022-06-21T11:36:15Z</time>
      </trkpt>
      <trkpt lat="43.43216" lon="2.64681">
        <ele>722.5</ele>
        <time>2022-06-21T11:36:16Z</time>
      </trkpt>
      <trkpt lat="43.43216" lon="2.6468">
        <ele>722.5</ele>
        <time>2022-06-21T11:36:17Z</time>
      </trkpt>
      <trkpt lat="43.43216" lon="2.6468">
        <ele>722.4</ele>
        <time>2022-06-21T11:36:18Z</time>
      </trkpt>
      <trkpt lat="43.43217" lon="2.6468">
        <ele>722.3</ele>
        <time>2022-06-21T11:36:19Z</time>
      </trkpt>
      <trkpt lat="43.43217" lon="2.6468">
        <ele>722.3</ele>
        <time>2022-06-21T11:36:20Z</time>
      </trkpt>
      <trkpt lat="43.43217" lon="2.64679">
        <ele>722.3</ele>
        <time>2022-06-21T11:36:21Z</time>
      </trkpt>
      <trkpt lat="43.4322" lon="2.64677">
        <ele>721.8</ele>
        <time>2022-06-21T11:36:22Z</time>
      </trkpt>
      <trkpt lat="43.4322" lon="2.64676">
        <ele>721.7</ele>
        <time>2022-06-21T11:36:23Z</time>
      </trkpt>
      <trkpt lat="43.43221" lon="2.64676">
        <ele>721.6</ele>
        <time>2022-06-21T11:36:24Z</time>
      </trkpt>
      <trkpt lat="43.43221" lon="2.64675">
        <ele>721.5</ele>
        <time>2022-06-21T11:36:25Z</time>
      </trkpt>
      <trkpt lat="43.43222" lon="2.64675">
        <ele>721.4</ele>
        <time>2022-06-21T11:36:26Z</time>
      </trkpt>
      <trkpt lat="43.43222" lon="2.64674">
        <ele>721.3</ele>
        <time>2022-06-21T11:36:27Z</time>
      </trkpt>
      <trkpt lat="43.43222" lon="2.64674">
        <ele>721.2</ele>
        <time>2022-06-21T11:36:28Z</time>
      </trkpt>
      <trkpt lat="43.43223" lon="2.64673">
        <ele>721.2</ele>
        <time>2022-06-21T11:36:29Z</time>
      </trkpt>
      <trkpt lat="43.43223" lon="2.64673">
        <ele>721.1</ele>
        <time>2022-06-21T11:36:30Z</time>
      </trkpt>
      <trkpt lat="43.43225" lon="2.6467">
        <ele>720.6</ele>
        <time>2022-06-21T11:36:31Z</time>
      </trkpt>
      <trkpt lat="43.43227" lon="2.64668">
        <ele>720.4</ele>
        <time>2022-06-21T11:36:32Z</time>
      </trkpt>
      <trkpt lat="43.43227" lon="2.64668">
        <ele>720.2</ele>
        <time>2022-06-21T11:36:33Z</time>
      </trkpt>
      <trkpt lat="43.43228" lon="2.64667">
        <ele>720.2</ele>
        <time>2022-06-21T11:36:34Z</time>
      </trkpt>
      <trkpt lat="43.43228" lon="2.64667">
        <ele>720.1</ele>
        <time>2022-06-21T11:36:35Z</time>
      </trkpt>
      <trkpt lat="43.43228" lon="2.64667">
        <ele>720</ele>
        <time>2022-06-21T11:36:36Z</time>
      </trkpt>
      <trkpt lat="43.43229" lon="2.64666">
        <ele>720</ele>
        <time>2022-06-21T11:36:37Z</time>
      </trkpt>
      <trkpt lat="43.43229" lon="2.64666">
        <ele>719.9</ele>
        <time>2022-06-21T11:36:38Z</time>
      </trkpt>
      <trkpt lat="43.4323" lon="2.64665">
        <ele>719.8</ele>
        <time>2022-06-21T11:36:39Z</time>
      </trkpt>
      <trkpt lat="43.4323" lon="2.64665">
        <ele>719.7</ele>
        <time>2022-06-21T11:36:40Z</time>
      </trkpt>
      <trkpt lat="43.4323" lon="2.64665">
        <ele>719.7</ele>
        <time>2022-06-21T11:36:41Z</time>
      </trkpt>
      <trkpt lat="43.43231" lon="2.64664">
        <ele>719.6</ele>
        <time>2022-06-21T11:36:42Z</time>
      </trkpt>
      <trkpt lat="43.43231" lon="2.64664">
        <ele>719.5</ele>
        <time>2022-06-21T11:36:43Z</time>
      </trkpt>
      <trkpt lat="43.43231" lon="2.64663">
        <ele>719.5</ele>
        <time>2022-06-21T11:36:44Z</time>
      </trkpt>
      <trkpt lat="43.43237" lon="2.64659">
        <ele>718.5</ele>
        <time>2022-06-21T11:36:45Z</time>
      </trkpt>
      <trkpt lat="43.43239" lon="2.64656">
        <ele>718</ele>
        <time>2022-06-21T11:36:46Z</time>
      </trkpt>
      <trkpt lat="43.4324" lon="2.64655">
        <ele>717.8</ele>
        <time>2022-06-21T11:36:47Z</time>
      </trkpt>
      <trkpt lat="43.43242" lon="2.64652">
        <ele>717.4</ele>
        <time>2022-06-21T11:36:48Z</time>
      </trkpt>
      <trkpt lat="43.43243" lon="2.64651">
        <ele>717.3</ele>
        <time>2022-06-21T11:36:49Z</time>
      </trkpt>
      <trkpt lat="43.43244" lon="2.64649">
        <ele>716.9</ele>
        <time>2022-06-21T11:36:50Z</time>
      </trkpt>
      <trkpt lat="43.43245" lon="2.64648">
        <ele>716.7</ele>
        <time>2022-06-21T11:36:51Z</time>
      </trkpt>
      <trkpt lat="43.43245" lon="2.64648">
        <ele>716.7</ele>
        <time>2022-06-21T11:36:52Z</time>
      </trkpt>
      <trkpt lat="43.43245" lon="2.64648">
        <ele>716.7</ele>
        <time>2022-06-21T11:36:53Z</time>
      </trkpt>
      <trkpt lat="43.43245" lon="2.64647">
        <ele>716.7</ele>
        <time>2022-06-21T11:36:54Z</time>
      </trkpt>
      <trkpt lat="43.43245" lon="2.64647">
        <ele>716.7</ele>
        <time>2022-06-21T11:36:55Z</time>
      </trkpt>
      <trkpt lat="43.43245" lon="2.64647">
        <ele>716.7</ele>
        <time>2022-06-21T11:36:56Z</time>
      </trkpt>
      <trkpt lat="43.43245" lon="2.64647">
        <ele>716.7</ele>
        <time>2022-06-21T11:36:57Z</time>
      </trkpt>
      <trkpt lat="43.43245" lon="2.64647">
        <ele>716.6</ele>
        <time>2022-06-21T11:36:58Z</time>
      </trkpt>
      <trkpt lat="43.43245" lon="2.64647">
        <ele>716.6</ele>
        <time>2022-06-21T11:36:59Z</time>
      </trkpt>
      <trkpt lat="43.43245" lon="2.64647">
        <ele>716.6</ele>
        <time>2022-06-21T11:37:00Z</time>
      </trkpt>
      <trkpt lat="43.43245" lon="2.64647">
        <ele>716.6</ele>
        <time>2022-06-21T11:37:01Z</time>
      </trkpt>
      <trkpt lat="43.43245" lon="2.64647">
        <ele>716.6</ele>
        <time>2022-06-21T11:37:02Z</time>
      </trkpt>
      <trkpt lat="43.43245" lon="2.64647">
        <ele>716.6</ele>
        <time>2022-06-21T11:37:03Z</time>
      </trkpt>
      <trkpt lat="43.43245" lon="2.64647">
        <ele>716.6</ele>
        <time>2022-06-21T11:37:04Z</time>
      </trkpt>
      <trkpt lat="43.43245" lon="2.64647">
        <ele>716.6</ele>
        <time>2022-06-21T11:37:05Z</time>
      </trkpt>
      <trkpt lat="43.43245" lon="2.64647">
        <ele>716.6</ele>
        <time>2022-06-21T11:37:06Z</time>
      </trkpt>
      <trkpt lat="43.43245" lon="2.64647">
        <ele>716.6</ele>
        <time>2022-06-21T11:37:07Z</time>
      </trkpt>
      <trkpt lat="43.43245" lon="2.64647">
        <ele>716.6</ele>
        <time>2022-06-21T11:37:08Z</time>
      </trkpt>
      <trkpt lat="43.43245" lon="2.64647">
        <ele>716.6</ele>
        <time>2022-06-21T11:37:09Z</time>
      </trkpt>
      <trkpt lat="43.43245" lon="2.64647">
        <ele>716.6</ele>
        <time>2022-06-21T11:37:10Z</time>
      </trkpt>
      <trkpt lat="43.43245" lon="2.64647">
        <ele>716.6</ele>
        <time>2022-06-21T11:37:11Z</time>
      </trkpt>
      <trkpt lat="43.43245" lon="2.64647">
        <ele>716.6</ele>
        <time>2022-06-21T11:37:12Z</time>
      </trkpt>
      <trkpt lat="43.43245" lon="2.64647">
        <ele>716.6</ele>
        <time>2022-06-21T11:37:13Z</time>
      </trkpt>
      <trkpt lat="43.43245" lon="2.64647">
        <ele>716.6</ele>
        <time>2022-06-21T11:37:14Z</time>
      </trkpt>
      <trkpt lat="43.43245" lon="2.64647">
        <ele>716.6</ele>
        <time>2022-06-21T11:37:15Z</time>
      </trkpt>
      <trkpt lat="43.43245" lon="2.64647">
        <ele>716.6</ele>
        <time>2022-06-21T11:37:16Z</time>
      </trkpt>
      <trkpt lat="43.43245" lon="2.64647">
        <ele>716.6</ele>
        <time>2022-06-21T11:37:17Z</time>
      </trkpt>
      <trkpt lat="43.43245" lon="2.64647">
        <ele>716.6</ele>
        <time>2022-06-21T11:37:18Z</time>
      </trkpt>
      <trkpt lat="43.43245" lon="2.64647">
        <ele>716.6</ele>
        <time>2022-06-21T11:37:19Z</time>
      </trkpt>
      <trkpt lat="43.43245" lon="2.64647">
        <ele>716.6</ele>
        <time>2022-06-21T11:37:20Z</time>
      </trkpt>
      <trkpt lat="43.43245" lon="2.64647">
        <ele>716.6</ele>
        <time>2022-06-21T11:37:21Z</time>
      </trkpt>
      <trkpt lat="43.43245" lon="2.64647">
        <ele>716.6</ele>
        <time>2022-06-21T11:37:22Z</time>
      </trkpt>
      <trkpt lat="43.43245" lon="2.64647">
        <ele>716.6</ele>
        <time>2022-06-21T11:37:23Z</time>
      </trkpt>
      <trkpt lat="43.43248" lon="2.64645">
        <ele>716.2</ele>
        <time>2022-06-21T11:37:24Z</time>
      </trkpt>
      <trkpt lat="43.43252" lon="2.64641">
        <ele>715.4</ele>
        <time>2022-06-21T11:37:25Z</time>
      </trkpt>
      <trkpt lat="43.43255" lon="2.64636">
        <ele>714.7</ele>
        <time>2022-06-21T11:37:26Z</time>
      </trkpt>
      <trkpt lat="43.43257" lon="2.64634">
        <ele>714.4</ele>
        <time>2022-06-21T11:37:27Z</time>
      </trkpt>
      <trkpt lat="43.43257" lon="2.64634">
        <ele>714.3</ele>
        <time>2022-06-21T11:37:28Z</time>
      </trkpt>
      <trkpt lat="43.43257" lon="2.64633">
        <ele>714.2</ele>
        <time>2022-06-21T11:37:29Z</time>
      </trkpt>
      <trkpt lat="43.43257" lon="2.64633">
        <ele>714.2</ele>
        <time>2022-06-21T11:37:30Z</time>
      </trkpt>
      <trkpt lat="43.43257" lon="2.64633">
        <ele>714.2</ele>
        <time>2022-06-21T11:37:31Z</time>
      </trkpt>
      <trkpt lat="43.43257" lon="2.64633">
        <ele>714.2</ele>
        <time>2022-06-21T11:37:32Z</time>
      </trkpt>
      <trkpt lat="43.43257" lon="2.64633">
        <ele>714.2</ele>
        <time>2022-06-21T11:37:33Z</time>
      </trkpt>
      <trkpt lat="43.43257" lon="2.64633">
        <ele>714.2</ele>
        <time>2022-06-21T11:37:34Z</time>
      </trkpt>
      <trkpt lat="43.43257" lon="2.64633">
        <ele>714.2</ele>
        <time>2022-06-21T11:37:35Z</time>
      </trkpt>
      <trkpt lat="43.43257" lon="2.64633">
        <ele>714.2</ele>
        <time>2022-06-21T11:37:36Z</time>
      </trkpt>
      <trkpt lat="43.43257" lon="2.64633">
        <ele>714.2</ele>
        <time>2022-06-21T11:37:37Z</time>
      </trkpt>
      <trkpt lat="43.43257" lon="2.64633">
        <ele>714.2</ele>
        <time>2022-06-21T11:37:38Z</time>
      </trkpt>
      <trkpt lat="43.43257" lon="2.64633">
        <ele>714.2</ele>
        <time>2022-06-21T11:37:39Z</time>
      </trkpt>
      <trkpt lat="43.43258" lon="2.64633">
        <ele>714.1</ele>
        <time>2022-06-21T11:37:40Z</time>
      </trkpt>
      <trkpt lat="43.4326" lon="2.64631">
        <ele>713.8</ele>
        <time>2022-06-21T11:37:41Z</time>
      </trkpt>
      <trkpt lat="43.43264" lon="2.64628">
        <ele>713</ele>
        <time>2022-06-21T11:37:42Z</time>
      </trkpt>
      <trkpt lat="43.43267" lon="2.64625">
        <ele>712.4</ele>
        <time>2022-06-21T11:37:43Z</time>
      </trkpt>
      <trkpt lat="43.4327" lon="2.64623">
        <ele>712</ele>
        <time>2022-06-21T11:37:44Z</time>
      </trkpt>
      <trkpt lat="43.43271" lon="2.64621">
        <ele>711.7</ele>
        <time>2022-06-21T11:37:45Z</time>
      </trkpt>
      <trkpt lat="43.43272" lon="2.6462">
        <ele>711.5</ele>
        <time>2022-06-21T11:37:46Z</time>
      </trkpt>
      <trkpt lat="43.43273" lon="2.64619">
        <ele>711.4</ele>
        <time>2022-06-21T11:37:47Z</time>
      </trkpt>
      <trkpt lat="43.43273" lon="2.64619">
        <ele>711.3</ele>
        <time>2022-06-21T11:37:48Z</time>
      </trkpt>
      <trkpt lat="43.43274" lon="2.64618">
        <ele>711.2</ele>
        <time>2022-06-21T11:37:49Z</time>
      </trkpt>
      <trkpt lat="43.43274" lon="2.64618">
        <ele>711.1</ele>
        <time>2022-06-21T11:37:50Z</time>
      </trkpt>
      <trkpt lat="43.43275" lon="2.64618">
        <ele>711.1</ele>
        <time>2022-06-21T11:37:51Z</time>
      </trkpt>
      <trkpt lat="43.43275" lon="2.64617">
        <ele>711</ele>
        <time>2022-06-21T11:37:52Z</time>
      </trkpt>
      <trkpt lat="43.43275" lon="2.64617">
        <ele>710.9</ele>
        <time>2022-06-21T11:37:53Z</time>
      </trkpt>
      <trkpt lat="43.43276" lon="2.64616">
        <ele>710.7</ele>
        <time>2022-06-21T11:37:54Z</time>
      </trkpt>
      <trkpt lat="43.43277" lon="2.64615">
        <ele>710.5</ele>
        <time>2022-06-21T11:37:55Z</time>
      </trkpt>
      <trkpt lat="43.43277" lon="2.64614">
        <ele>710.5</ele>
        <time>2022-06-21T11:37:56Z</time>
      </trkpt>
      <trkpt lat="43.43277" lon="2.64614">
        <ele>710.5</ele>
        <time>2022-06-21T11:37:57Z</time>
      </trkpt>
      <trkpt lat="43.43277" lon="2.64614">
        <ele>710.5</ele>
        <time>2022-06-21T11:37:58Z</time>
      </trkpt>
      <trkpt lat="43.43277" lon="2.64614">
        <ele>710.4</ele>
        <time>2022-06-21T11:37:59Z</time>
      </trkpt>
      <trkpt lat="43.43279" lon="2.64611">
        <ele>710</ele>
        <time>2022-06-21T11:38:00Z</time>
      </trkpt>
      <trkpt lat="43.4328" lon="2.64609">
        <ele>709.8</ele>
        <time>2022-06-21T11:38:01Z</time>
      </trkpt>
      <trkpt lat="43.43282" lon="2.64605">
        <ele>709.2</ele>
        <time>2022-06-21T11:38:02Z</time>
      </trkpt>
      <trkpt lat="43.43283" lon="2.64604">
        <ele>709</ele>
        <time>2022-06-21T11:38:03Z</time>
      </trkpt>
      <trkpt lat="43.43285" lon="2.64601">
        <ele>708.6</ele>
        <time>2022-06-21T11:38:04Z</time>
      </trkpt>
      <trkpt lat="43.43286" lon="2.646">
        <ele>708.5</ele>
        <time>2022-06-21T11:38:05Z</time>
      </trkpt>
      <trkpt lat="43.43286" lon="2.64599">
        <ele>708.3</ele>
        <time>2022-06-21T11:38:06Z</time>
      </trkpt>
      <trkpt lat="43.43288" lon="2.64597">
        <ele>707.9</ele>
        <time>2022-06-21T11:38:07Z</time>
      </trkpt>
      <trkpt lat="43.43289" lon="2.64596">
        <ele>707.8</ele>
        <time>2022-06-21T11:38:08Z</time>
      </trkpt>
      <trkpt lat="43.43289" lon="2.64595">
        <ele>707.7</ele>
        <time>2022-06-21T11:38:09Z</time>
      </trkpt>
      <trkpt lat="43.4329" lon="2.64594">
        <ele>707.6</ele>
        <time>2022-06-21T11:38:10Z</time>
      </trkpt>
      <trkpt lat="43.43291" lon="2.64593">
        <ele>707.4</ele>
        <time>2022-06-21T11:38:11Z</time>
      </trkpt>
      <trkpt lat="43.43291" lon="2.64592">
        <ele>707.3</ele>
        <time>2022-06-21T11:38:12Z</time>
      </trkpt>
      <trkpt lat="43.43292" lon="2.6459">
        <ele>707</ele>
        <time>2022-06-21T11:38:13Z</time>
      </trkpt>
      <trkpt lat="43.43292" lon="2.64589">
        <ele>706.9</ele>
        <time>2022-06-21T11:38:14Z</time>
      </trkpt>
      <trkpt lat="43.43293" lon="2.64589">
        <ele>706.8</ele>
        <time>2022-06-21T11:38:15Z</time>
      </trkpt>
      <trkpt lat="43.43293" lon="2.64587">
        <ele>706.6</ele>
        <time>2022-06-21T11:38:16Z</time>
      </trkpt>
      <trkpt lat="43.43294" lon="2.64586">
        <ele>706.5</ele>
        <time>2022-06-21T11:38:17Z</time>
      </trkpt>
      <trkpt lat="43.43294" lon="2.64585">
        <ele>706.4</ele>
        <time>2022-06-21T11:38:18Z</time>
      </trkpt>
      <trkpt lat="43.43294" lon="2.64584">
        <ele>706.2</ele>
        <time>2022-06-21T11:38:19Z</time>
      </trkpt>
      <trkpt lat="43.43295" lon="2.64582">
        <ele>706</ele>
        <time>2022-06-21T11:38:20Z</time>
      </trkpt>
      <trkpt lat="43.43295" lon="2.64581">
        <ele>705.9</ele>
        <time>2022-06-21T11:38:21Z</time>
      </trkpt>
      <trkpt lat="43.43295" lon="2.6458">
        <ele>705.8</ele>
        <time>2022-06-21T11:38:22Z</time>
      </trkpt>
      <trkpt lat="43.43295" lon="2.6458">
        <ele>705.8</ele>
        <time>2022-06-21T11:38:23Z</time>
      </trkpt>
      <trkpt lat="43.43295" lon="2.6458">
        <ele>705.8</ele>
        <time>2022-06-21T11:38:24Z</time>
      </trkpt>
      <trkpt lat="43.43295" lon="2.6458">
        <ele>705.8</ele>
        <time>2022-06-21T11:38:25Z</time>
      </trkpt>
      <trkpt lat="43.43295" lon="2.6458">
        <ele>705.8</ele>
        <time>2022-06-21T11:38:26Z</time>
      </trkpt>
      <trkpt lat="43.43295" lon="2.6458">
        <ele>705.8</ele>
        <time>2022-06-21T11:38:27Z</time>
      </trkpt>
      <trkpt lat="43.43295" lon="2.6458">
        <ele>705.7</ele>
        <time>2022-06-21T11:38:28Z</time>
      </trkpt>
      <trkpt lat="43.43295" lon="2.64579">
        <ele>705.6</ele>
        <time>2022-06-21T11:38:29Z</time>
      </trkpt>
      <trkpt lat="43.43296" lon="2.64577">
        <ele>705.4</ele>
        <time>2022-06-21T11:38:30Z</time>
      </trkpt>
      <trkpt lat="43.43296" lon="2.64576">
        <ele>705.3</ele>
        <time>2022-06-21T11:38:31Z</time>
      </trkpt>
      <trkpt lat="43.43297" lon="2.64575">
        <ele>705.2</ele>
        <time>2022-06-21T11:38:32Z</time>
      </trkpt>
      <trkpt lat="43.43297" lon="2.64574">
        <ele>705</ele>
        <time>2022-06-21T11:38:33Z</time>
      </trkpt>
      <trkpt lat="43.43297" lon="2.64573">
        <ele>704.9</ele>
        <time>2022-06-21T11:38:34Z</time>
      </trkpt>
      <trkpt lat="43.43298" lon="2.64572">
        <ele>704.8</ele>
        <time>2022-06-21T11:38:35Z</time>
      </trkpt>
      <trkpt lat="43.43298" lon="2.64572">
        <ele>704.8</ele>
        <time>2022-06-21T11:38:36Z</time>
      </trkpt>
      <trkpt lat="43.43298" lon="2.64571">
        <ele>704.7</ele>
        <time>2022-06-21T11:38:37Z</time>
      </trkpt>
      <trkpt lat="43.43298" lon="2.6457">
        <ele>704.6</ele>
        <time>2022-06-21T11:38:38Z</time>
      </trkpt>
      <trkpt lat="43.43298" lon="2.64569">
        <ele>704.4</ele>
        <time>2022-06-21T11:38:39Z</time>
      </trkpt>
      <trkpt lat="43.43298" lon="2.64568">
        <ele>704.3</ele>
        <time>2022-06-21T11:38:40Z</time>
      </trkpt>
      <trkpt lat="43.43298" lon="2.64568">
        <ele>704.3</ele>
        <time>2022-06-21T11:38:41Z</time>
      </trkpt>
      <trkpt lat="43.43298" lon="2.64567">
        <ele>704.2</ele>
        <time>2022-06-21T11:38:42Z</time>
      </trkpt>
      <trkpt lat="43.43298" lon="2.64567">
        <ele>704.2</ele>
        <time>2022-06-21T11:38:43Z</time>
      </trkpt>
      <trkpt lat="43.43298" lon="2.64567">
        <ele>704.2</ele>
        <time>2022-06-21T11:38:44Z</time>
      </trkpt>
      <trkpt lat="43.43298" lon="2.64566">
        <ele>704.1</ele>
        <time>2022-06-21T11:38:45Z</time>
      </trkpt>
      <trkpt lat="43.43298" lon="2.64566">
        <ele>704.1</ele>
        <time>2022-06-21T11:38:46Z</time>
      </trkpt>
      <trkpt lat="43.43298" lon="2.64566">
        <ele>704</ele>
        <time>2022-06-21T11:38:47Z</time>
      </trkpt>
      <trkpt lat="43.43299" lon="2.64565">
        <ele>704</ele>
        <time>2022-06-21T11:38:48Z</time>
      </trkpt>
      <trkpt lat="43.43299" lon="2.64565">
        <ele>704</ele>
        <time>2022-06-21T11:38:49Z</time>
      </trkpt>
      <trkpt lat="43.43299" lon="2.64565">
        <ele>703.9</ele>
        <time>2022-06-21T11:38:50Z</time>
      </trkpt>
      <trkpt lat="43.43299" lon="2.64564">
        <ele>703.9</ele>
        <time>2022-06-21T11:38:51Z</time>
      </trkpt>
      <trkpt lat="43.43299" lon="2.64564">
        <ele>703.8</ele>
        <time>2022-06-21T11:38:52Z</time>
      </trkpt>
      <trkpt lat="43.43299" lon="2.64564">
        <ele>703.8</ele>
        <time>2022-06-21T11:38:53Z</time>
      </trkpt>
      <trkpt lat="43.43299" lon="2.64563">
        <ele>703.8</ele>
        <time>2022-06-21T11:38:54Z</time>
      </trkpt>
      <trkpt lat="43.43299" lon="2.64563">
        <ele>703.7</ele>
        <time>2022-06-21T11:38:55Z</time>
      </trkpt>
      <trkpt lat="43.43299" lon="2.6456">
        <ele>703.4</ele>
        <time>2022-06-21T11:38:56Z</time>
      </trkpt>
      <trkpt lat="43.433" lon="2.64558">
        <ele>703.2</ele>
        <time>2022-06-21T11:38:57Z</time>
      </trkpt>
      <trkpt lat="43.433" lon="2.64555">
        <ele>702.9</ele>
        <time>2022-06-21T11:38:58Z</time>
      </trkpt>
      <trkpt lat="43.433" lon="2.64553">
        <ele>702.7</ele>
        <time>2022-06-21T11:38:59Z</time>
      </trkpt>
      <trkpt lat="43.433" lon="2.64551">
        <ele>702.5</ele>
        <time>2022-06-21T11:39:00Z</time>
      </trkpt>
      <trkpt lat="43.433" lon="2.64549">
        <ele>702.2</ele>
        <time>2022-06-21T11:39:01Z</time>
      </trkpt>
      <trkpt lat="43.433" lon="2.64548">
        <ele>702.1</ele>
        <time>2022-06-21T11:39:02Z</time>
      </trkpt>
      <trkpt lat="43.433" lon="2.64547">
        <ele>701.9</ele>
        <time>2022-06-21T11:39:03Z</time>
      </trkpt>
      <trkpt lat="43.43301" lon="2.64545">
        <ele>701.8</ele>
        <time>2022-06-21T11:39:04Z</time>
      </trkpt>
      <trkpt lat="43.43301" lon="2.64544">
        <ele>701.6</ele>
        <time>2022-06-21T11:39:05Z</time>
      </trkpt>
      <trkpt lat="43.43301" lon="2.64542">
        <ele>701.4</ele>
        <time>2022-06-21T11:39:06Z</time>
      </trkpt>
      <trkpt lat="43.43301" lon="2.6454">
        <ele>701.2</ele>
        <time>2022-06-21T11:39:07Z</time>
      </trkpt>
      <trkpt lat="43.43302" lon="2.64539">
        <ele>701.1</ele>
        <time>2022-06-21T11:39:08Z</time>
      </trkpt>
      <trkpt lat="43.43302" lon="2.64539">
        <ele>701</ele>
        <time>2022-06-21T11:39:09Z</time>
      </trkpt>
      <trkpt lat="43.43302" lon="2.64539">
        <ele>701</ele>
        <time>2022-06-21T11:39:10Z</time>
      </trkpt>
      <trkpt lat="43.43302" lon="2.64539">
        <ele>701</ele>
        <time>2022-06-21T11:39:11Z</time>
      </trkpt>
      <trkpt lat="43.43302" lon="2.64539">
        <ele>701</ele>
        <time>2022-06-21T11:39:12Z</time>
      </trkpt>
      <trkpt lat="43.43302" lon="2.64538">
        <ele>701</ele>
        <time>2022-06-21T11:39:13Z</time>
      </trkpt>
      <trkpt lat="43.43302" lon="2.64539">
        <ele>701</ele>
        <time>2022-06-21T11:39:14Z</time>
      </trkpt>
      <trkpt lat="43.43302" lon="2.64539">
        <ele>701</ele>
        <time>2022-06-21T11:39:15Z</time>
      </trkpt>
      <trkpt lat="43.43302" lon="2.64539">
        <ele>701</ele>
        <time>2022-06-21T11:39:16Z</time>
      </trkpt>
      <trkpt lat="43.43302" lon="2.64539">
        <ele>701</ele>
        <time>2022-06-21T11:39:17Z</time>
      </trkpt>
      <trkpt lat="43.43302" lon="2.64539">
        <ele>701</ele>
        <time>2022-06-21T11:39:18Z</time>
      </trkpt>
      <trkpt lat="43.43302" lon="2.64538">
        <ele>700.9</ele>
        <time>2022-06-21T11:39:19Z</time>
      </trkpt>
      <trkpt lat="43.43302" lon="2.64536">
        <ele>700.7</ele>
        <time>2022-06-21T11:39:20Z</time>
      </trkpt>
      <trkpt lat="43.43302" lon="2.64535">
        <ele>700.6</ele>
        <time>2022-06-21T11:39:21Z</time>
      </trkpt>
      <trkpt lat="43.43302" lon="2.64535">
        <ele>700.6</ele>
        <time>2022-06-21T11:39:22Z</time>
      </trkpt>
      <trkpt lat="43.43302" lon="2.64534">
        <ele>700.4</ele>
        <time>2022-06-21T11:39:23Z</time>
      </trkpt>
      <trkpt lat="43.43303" lon="2.6453">
        <ele>700</ele>
        <time>2022-06-21T11:39:24Z</time>
      </trkpt>
      <trkpt lat="43.43303" lon="2.64529">
        <ele>699.8</ele>
        <time>2022-06-21T11:39:25Z</time>
      </trkpt>
      <trkpt lat="43.43304" lon="2.64527">
        <ele>699.7</ele>
        <time>2022-06-21T11:39:26Z</time>
      </trkpt>
      <trkpt lat="43.43304" lon="2.64527">
        <ele>699.6</ele>
        <time>2022-06-21T11:39:27Z</time>
      </trkpt>
      <trkpt lat="43.43304" lon="2.64526">
        <ele>699.6</ele>
        <time>2022-06-21T11:39:28Z</time>
      </trkpt>
      <trkpt lat="43.43304" lon="2.64526">
        <ele>699.5</ele>
        <time>2022-06-21T11:39:29Z</time>
      </trkpt>
      <trkpt lat="43.43304" lon="2.64525">
        <ele>699.5</ele>
        <time>2022-06-21T11:39:30Z</time>
      </trkpt>
      <trkpt lat="43.43304" lon="2.64525">
        <ele>699.4</ele>
        <time>2022-06-21T11:39:31Z</time>
      </trkpt>
      <trkpt lat="43.43304" lon="2.64524">
        <ele>699.4</ele>
        <time>2022-06-21T11:39:32Z</time>
      </trkpt>
      <trkpt lat="43.43304" lon="2.64524">
        <ele>699.3</ele>
        <time>2022-06-21T11:39:33Z</time>
      </trkpt>
      <trkpt lat="43.43304" lon="2.64524">
        <ele>699.3</ele>
        <time>2022-06-21T11:39:34Z</time>
      </trkpt>
      <trkpt lat="43.43304" lon="2.64523">
        <ele>699.2</ele>
        <time>2022-06-21T11:39:35Z</time>
      </trkpt>
      <trkpt lat="43.43304" lon="2.64523">
        <ele>699.2</ele>
        <time>2022-06-21T11:39:36Z</time>
      </trkpt>
      <trkpt lat="43.43304" lon="2.64522">
        <ele>699.1</ele>
        <time>2022-06-21T11:39:37Z</time>
      </trkpt>
      <trkpt lat="43.43304" lon="2.64522">
        <ele>699</ele>
        <time>2022-06-21T11:39:38Z</time>
      </trkpt>
      <trkpt lat="43.43304" lon="2.64521">
        <ele>699</ele>
        <time>2022-06-21T11:39:39Z</time>
      </trkpt>
      <trkpt lat="43.43304" lon="2.64521">
        <ele>698.9</ele>
        <time>2022-06-21T11:39:40Z</time>
      </trkpt>
      <trkpt lat="43.43303" lon="2.64517">
        <ele>698.5</ele>
        <time>2022-06-21T11:39:41Z</time>
      </trkpt>
      <trkpt lat="43.43303" lon="2.64515">
        <ele>698.3</ele>
        <time>2022-06-21T11:39:42Z</time>
      </trkpt>
      <trkpt lat="43.43303" lon="2.64514">
        <ele>698.2</ele>
        <time>2022-06-21T11:39:43Z</time>
      </trkpt>
      <trkpt lat="43.43303" lon="2.64513">
        <ele>698.1</ele>
        <time>2022-06-21T11:39:44Z</time>
      </trkpt>
      <trkpt lat="43.43303" lon="2.64513">
        <ele>698.1</ele>
        <time>2022-06-21T11:39:45Z</time>
      </trkpt>
      <trkpt lat="43.43303" lon="2.64513">
        <ele>698.1</ele>
        <time>2022-06-21T11:39:46Z</time>
      </trkpt>
      <trkpt lat="43.43303" lon="2.64513">
        <ele>698.1</ele>
        <time>2022-06-21T11:39:47Z</time>
      </trkpt>
      <trkpt lat="43.43303" lon="2.64513">
        <ele>698.1</ele>
        <time>2022-06-21T11:39:48Z</time>
      </trkpt>
      <trkpt lat="43.43304" lon="2.64513">
        <ele>698.1</ele>
        <time>2022-06-21T11:39:49Z</time>
      </trkpt>
      <trkpt lat="43.43304" lon="2.64513">
        <ele>698</ele>
        <time>2022-06-21T11:39:50Z</time>
      </trkpt>
      <trkpt lat="43.43304" lon="2.64513">
        <ele>698</ele>
        <time>2022-06-21T11:39:51Z</time>
      </trkpt>
      <trkpt lat="43.43304" lon="2.64512">
        <ele>698</ele>
        <time>2022-06-21T11:39:52Z</time>
      </trkpt>
      <trkpt lat="43.43304" lon="2.64512">
        <ele>698</ele>
        <time>2022-06-21T11:39:53Z</time>
      </trkpt>
      <trkpt lat="43.43304" lon="2.64512">
        <ele>697.9</ele>
        <time>2022-06-21T11:39:54Z</time>
      </trkpt>
      <trkpt lat="43.43304" lon="2.64512">
        <ele>697.9</ele>
        <time>2022-06-21T11:39:55Z</time>
      </trkpt>
      <trkpt lat="43.43304" lon="2.64512">
        <ele>697.9</ele>
        <time>2022-06-21T11:39:56Z</time>
      </trkpt>
      <trkpt lat="43.43304" lon="2.64512">
        <ele>697.9</ele>
        <time>2022-06-21T11:39:57Z</time>
      </trkpt>
      <trkpt lat="43.43304" lon="2.64511">
        <ele>697.8</ele>
        <time>2022-06-21T11:39:58Z</time>
      </trkpt>
      <trkpt lat="43.43304" lon="2.64511">
        <ele>697.8</ele>
        <time>2022-06-21T11:39:59Z</time>
      </trkpt>
      <trkpt lat="43.43305" lon="2.64511">
        <ele>697.8</ele>
        <time>2022-06-21T11:40:00Z</time>
      </trkpt>
      <trkpt lat="43.43305" lon="2.64511">
        <ele>697.8</ele>
        <time>2022-06-21T11:40:01Z</time>
      </trkpt>
      <trkpt lat="43.43305" lon="2.64511">
        <ele>697.8</ele>
        <time>2022-06-21T11:40:02Z</time>
      </trkpt>
      <trkpt lat="43.43305" lon="2.64511">
        <ele>697.7</ele>
        <time>2022-06-21T11:40:03Z</time>
      </trkpt>
      <trkpt lat="43.43305" lon="2.6451">
        <ele>697.7</ele>
        <time>2022-06-21T11:40:04Z</time>
      </trkpt>
      <trkpt lat="43.43305" lon="2.6451">
        <ele>697.7</ele>
        <time>2022-06-21T11:40:05Z</time>
      </trkpt>
      <trkpt lat="43.43305" lon="2.6451">
        <ele>697.7</ele>
        <time>2022-06-21T11:40:06Z</time>
      </trkpt>
      <trkpt lat="43.43305" lon="2.6451">
        <ele>697.6</ele>
        <time>2022-06-21T11:40:07Z</time>
      </trkpt>
      <trkpt lat="43.43305" lon="2.6451">
        <ele>697.6</ele>
        <time>2022-06-21T11:40:08Z</time>
      </trkpt>
      <trkpt lat="43.43305" lon="2.6451">
        <ele>697.6</ele>
        <time>2022-06-21T11:40:09Z</time>
      </trkpt>
      <trkpt lat="43.43305" lon="2.64509">
        <ele>697.6</ele>
        <time>2022-06-21T11:40:10Z</time>
      </trkpt>
      <trkpt lat="43.43306" lon="2.64509">
        <ele>697.5</ele>
        <time>2022-06-21T11:40:11Z</time>
      </trkpt>
      <trkpt lat="43.43306" lon="2.64509">
        <ele>697.5</ele>
        <time>2022-06-21T11:40:12Z</time>
      </trkpt>
      <trkpt lat="43.43306" lon="2.64509">
        <ele>697.5</ele>
        <time>2022-06-21T11:40:13Z</time>
      </trkpt>
      <trkpt lat="43.43306" lon="2.64509">
        <ele>697.5</ele>
        <time>2022-06-21T11:40:14Z</time>
      </trkpt>
      <trkpt lat="43.43306" lon="2.64509">
        <ele>697.5</ele>
        <time>2022-06-21T11:40:15Z</time>
      </trkpt>
      <trkpt lat="43.43306" lon="2.64508">
        <ele>697.4</ele>
        <time>2022-06-21T11:40:16Z</time>
      </trkpt>
      <trkpt lat="43.43306" lon="2.64508">
        <ele>697.4</ele>
        <time>2022-06-21T11:40:17Z</time>
      </trkpt>
      <trkpt lat="43.43306" lon="2.64508">
        <ele>697.4</ele>
        <time>2022-06-21T11:40:18Z</time>
      </trkpt>
      <trkpt lat="43.43306" lon="2.64508">
        <ele>697.4</ele>
        <time>2022-06-21T11:40:19Z</time>
      </trkpt>
      <trkpt lat="43.43306" lon="2.64508">
        <ele>697.3</ele>
        <time>2022-06-21T11:40:20Z</time>
      </trkpt>
      <trkpt lat="43.43306" lon="2.64508">
        <ele>697.3</ele>
        <time>2022-06-21T11:40:21Z</time>
      </trkpt>
      <trkpt lat="43.43306" lon="2.64508">
        <ele>697.3</ele>
        <time>2022-06-21T11:40:22Z</time>
      </trkpt>
      <trkpt lat="43.43307" lon="2.64507">
        <ele>697.3</ele>
        <time>2022-06-21T11:40:23Z</time>
      </trkpt>
      <trkpt lat="43.43307" lon="2.64507">
        <ele>697.2</ele>
        <time>2022-06-21T11:40:24Z</time>
      </trkpt>
      <trkpt lat="43.43307" lon="2.64507">
        <ele>697.2</ele>
        <time>2022-06-21T11:40:25Z</time>
      </trkpt>
      <trkpt lat="43.43307" lon="2.64507">
        <ele>697.2</ele>
        <time>2022-06-21T11:40:26Z</time>
      </trkpt>
      <trkpt lat="43.43307" lon="2.64507">
        <ele>697.2</ele>
        <time>2022-06-21T11:40:27Z</time>
      </trkpt>
      <trkpt lat="43.43307" lon="2.64507">
        <ele>697.2</ele>
        <time>2022-06-21T11:40:28Z</time>
      </trkpt>
      <trkpt lat="43.43307" lon="2.64506">
        <ele>697.1</ele>
        <time>2022-06-21T11:40:29Z</time>
      </trkpt>
      <trkpt lat="43.43307" lon="2.64506">
        <ele>697.1</ele>
        <time>2022-06-21T11:40:30Z</time>
      </trkpt>
      <trkpt lat="43.43307" lon="2.64506">
        <ele>697.1</ele>
        <time>2022-06-21T11:40:31Z</time>
      </trkpt>
      <trkpt lat="43.43307" lon="2.64506">
        <ele>697.1</ele>
        <time>2022-06-21T11:40:32Z</time>
      </trkpt>
      <trkpt lat="43.43307" lon="2.64506">
        <ele>697</ele>
        <time>2022-06-21T11:40:33Z</time>
      </trkpt>
      <trkpt lat="43.43308" lon="2.64506">
        <ele>697</ele>
        <time>2022-06-21T11:40:34Z</time>
      </trkpt>
      <trkpt lat="43.43308" lon="2.64505">
        <ele>697</ele>
        <time>2022-06-21T11:40:35Z</time>
      </trkpt>
      <trkpt lat="43.43308" lon="2.64505">
        <ele>697</ele>
        <time>2022-06-21T11:40:36Z</time>
      </trkpt>
      <trkpt lat="43.43308" lon="2.64505">
        <ele>697</ele>
        <time>2022-06-21T11:40:37Z</time>
      </trkpt>
      <trkpt lat="43.43308" lon="2.64505">
        <ele>696.9</ele>
        <time>2022-06-21T11:40:38Z</time>
      </trkpt>
      <trkpt lat="43.43308" lon="2.64505">
        <ele>696.9</ele>
        <time>2022-06-21T11:40:39Z</time>
      </trkpt>
      <trkpt lat="43.43308" lon="2.64505">
        <ele>696.9</ele>
        <time>2022-06-21T11:40:40Z</time>
      </trkpt>
      <trkpt lat="43.43308" lon="2.64504">
        <ele>696.9</ele>
        <time>2022-06-21T11:40:41Z</time>
      </trkpt>
      <trkpt lat="43.43308" lon="2.64504">
        <ele>696.8</ele>
        <time>2022-06-21T11:40:42Z</time>
      </trkpt>
      <trkpt lat="43.43308" lon="2.64504">
        <ele>696.8</ele>
        <time>2022-06-21T11:40:43Z</time>
      </trkpt>
      <trkpt lat="43.43308" lon="2.64504">
        <ele>696.8</ele>
        <time>2022-06-21T11:40:44Z</time>
      </trkpt>
      <trkpt lat="43.43309" lon="2.64504">
        <ele>696.8</ele>
        <time>2022-06-21T11:40:45Z</time>
      </trkpt>
      <trkpt lat="43.43309" lon="2.64504">
        <ele>696.7</ele>
        <time>2022-06-21T11:40:46Z</time>
      </trkpt>
      <trkpt lat="43.43309" lon="2.64503">
        <ele>696.7</ele>
        <time>2022-06-21T11:40:47Z</time>
      </trkpt>
      <trkpt lat="43.43311" lon="2.645">
        <ele>695.6</ele>
        <time>2022-06-21T11:40:48Z</time>
      </trkpt>
      <trkpt lat="43.43311" lon="2.64499">
        <ele>695.3</ele>
        <time>2022-06-21T11:40:49Z</time>
      </trkpt>
      <trkpt lat="43.43313" lon="2.64495">
        <ele>694.6</ele>
        <time>2022-06-21T11:40:50Z</time>
      </trkpt>
      <trkpt lat="43.43314" lon="2.64493">
        <ele>694.1</ele>
        <time>2022-06-21T11:40:51Z</time>
      </trkpt>
      <trkpt lat="43.43316" lon="2.6449">
        <ele>693.3</ele>
        <time>2022-06-21T11:40:52Z</time>
      </trkpt>
      <trkpt lat="43.43317" lon="2.64489">
        <ele>693.1</ele>
        <time>2022-06-21T11:40:53Z</time>
      </trkpt>
      <trkpt lat="43.43317" lon="2.64488">
        <ele>693</ele>
        <time>2022-06-21T11:40:54Z</time>
      </trkpt>
      <trkpt lat="43.43317" lon="2.64488">
        <ele>692.9</ele>
        <time>2022-06-21T11:40:55Z</time>
      </trkpt>
      <trkpt lat="43.43317" lon="2.64487">
        <ele>692.8</ele>
        <time>2022-06-21T11:40:56Z</time>
      </trkpt>
      <trkpt lat="43.43318" lon="2.64487">
        <ele>692.7</ele>
        <time>2022-06-21T11:40:57Z</time>
      </trkpt>
      <trkpt lat="43.43318" lon="2.64486">
        <ele>692.6</ele>
        <time>2022-06-21T11:40:58Z</time>
      </trkpt>
      <trkpt lat="43.43318" lon="2.64486">
        <ele>692.5</ele>
        <time>2022-06-21T11:40:59Z</time>
      </trkpt>
      <trkpt lat="43.43318" lon="2.64486">
        <ele>692.3</ele>
        <time>2022-06-21T11:41:00Z</time>
      </trkpt>
      <trkpt lat="43.43319" lon="2.64485">
        <ele>692.2</ele>
        <time>2022-06-21T11:41:01Z</time>
      </trkpt>
      <trkpt lat="43.43319" lon="2.64485">
        <ele>692.1</ele>
        <time>2022-06-21T11:41:02Z</time>
      </trkpt>
      <trkpt lat="43.43319" lon="2.64484">
        <ele>692</ele>
        <time>2022-06-21T11:41:03Z</time>
      </trkpt>
      <trkpt lat="43.43319" lon="2.64484">
        <ele>691.9</ele>
        <time>2022-06-21T11:41:04Z</time>
      </trkpt>
      <trkpt lat="43.4332" lon="2.64483">
        <ele>691.8</ele>
        <time>2022-06-21T11:41:05Z</time>
      </trkpt>
      <trkpt lat="43.4332" lon="2.64483">
        <ele>691.7</ele>
        <time>2022-06-21T11:41:06Z</time>
      </trkpt>
      <trkpt lat="43.4332" lon="2.64482">
        <ele>691.6</ele>
        <time>2022-06-21T11:41:07Z</time>
      </trkpt>
      <trkpt lat="43.4332" lon="2.64482">
        <ele>691.5</ele>
        <time>2022-06-21T11:41:08Z</time>
      </trkpt>
      <trkpt lat="43.43321" lon="2.64481">
        <ele>691.4</ele>
        <time>2022-06-21T11:41:09Z</time>
      </trkpt>
      <trkpt lat="43.43325" lon="2.64476">
        <ele>689.9</ele>
        <time>2022-06-21T11:41:10Z</time>
      </trkpt>
      <trkpt lat="43.43326" lon="2.64474">
        <ele>689.4</ele>
        <time>2022-06-21T11:41:11Z</time>
      </trkpt>
      <trkpt lat="43.43327" lon="2.64473">
        <ele>689.2</ele>
        <time>2022-06-21T11:41:12Z</time>
      </trkpt>
      <trkpt lat="43.43327" lon="2.64473">
        <ele>689.1</ele>
        <time>2022-06-21T11:41:13Z</time>
      </trkpt>
      <trkpt lat="43.43328" lon="2.64472">
        <ele>688.7</ele>
        <time>2022-06-21T11:41:14Z</time>
      </trkpt>
      <trkpt lat="43.43329" lon="2.64471">
        <ele>688.5</ele>
        <time>2022-06-21T11:41:15Z</time>
      </trkpt>
      <trkpt lat="43.4333" lon="2.6447">
        <ele>688.2</ele>
        <time>2022-06-21T11:41:16Z</time>
      </trkpt>
      <trkpt lat="43.43331" lon="2.64469">
        <ele>688</ele>
        <time>2022-06-21T11:41:17Z</time>
      </trkpt>
      <trkpt lat="43.43333" lon="2.64466">
        <ele>687.1</ele>
        <time>2022-06-21T11:41:18Z</time>
      </trkpt>
      <trkpt lat="43.43334" lon="2.64464">
        <ele>686.6</ele>
        <time>2022-06-21T11:41:19Z</time>
      </trkpt>
      <trkpt lat="43.43335" lon="2.64463">
        <ele>686.4</ele>
        <time>2022-06-21T11:41:20Z</time>
      </trkpt>
      <trkpt lat="43.43335" lon="2.64463">
        <ele>686.2</ele>
        <time>2022-06-21T11:41:21Z</time>
      </trkpt>
      <trkpt lat="43.43335" lon="2.64462">
        <ele>686.2</ele>
        <time>2022-06-21T11:41:22Z</time>
      </trkpt>
      <trkpt lat="43.43335" lon="2.64462">
        <ele>686.1</ele>
        <time>2022-06-21T11:41:23Z</time>
      </trkpt>
      <trkpt lat="43.43336" lon="2.64462">
        <ele>686.1</ele>
        <time>2022-06-21T11:41:24Z</time>
      </trkpt>
      <trkpt lat="43.43336" lon="2.64462">
        <ele>686.1</ele>
        <time>2022-06-21T11:41:25Z</time>
      </trkpt>
      <trkpt lat="43.43336" lon="2.64462">
        <ele>686</ele>
        <time>2022-06-21T11:41:26Z</time>
      </trkpt>
      <trkpt lat="43.43336" lon="2.64462">
        <ele>686</ele>
        <time>2022-06-21T11:41:27Z</time>
      </trkpt>
      <trkpt lat="43.43336" lon="2.64462">
        <ele>686</ele>
        <time>2022-06-21T11:41:28Z</time>
      </trkpt>
      <trkpt lat="43.43336" lon="2.64462">
        <ele>685.9</ele>
        <time>2022-06-21T11:41:29Z</time>
      </trkpt>
      <trkpt lat="43.43336" lon="2.64462">
        <ele>685.9</ele>
        <time>2022-06-21T11:41:30Z</time>
      </trkpt>
      <trkpt lat="43.43336" lon="2.64462">
        <ele>685.9</ele>
        <time>2022-06-21T11:41:31Z</time>
      </trkpt>
      <trkpt lat="43.43337" lon="2.64462">
        <ele>685.8</ele>
        <time>2022-06-21T11:41:32Z</time>
      </trkpt>
      <trkpt lat="43.43337" lon="2.64462">
        <ele>685.8</ele>
        <time>2022-06-21T11:41:33Z</time>
      </trkpt>
      <trkpt lat="43.43337" lon="2.64462">
        <ele>685.8</ele>
        <time>2022-06-21T11:41:34Z</time>
      </trkpt>
      <trkpt lat="43.43337" lon="2.64462">
        <ele>685.8</ele>
        <time>2022-06-21T11:41:35Z</time>
      </trkpt>
      <trkpt lat="43.43337" lon="2.64462">
        <ele>685.7</ele>
        <time>2022-06-21T11:41:36Z</time>
      </trkpt>
      <trkpt lat="43.43337" lon="2.64462">
        <ele>685.7</ele>
        <time>2022-06-21T11:41:37Z</time>
      </trkpt>
      <trkpt lat="43.43337" lon="2.64462">
        <ele>685.7</ele>
        <time>2022-06-21T11:41:38Z</time>
      </trkpt>
      <trkpt lat="43.43337" lon="2.64462">
        <ele>685.6</ele>
        <time>2022-06-21T11:41:39Z</time>
      </trkpt>
      <trkpt lat="43.43338" lon="2.64462">
        <ele>685.6</ele>
        <time>2022-06-21T11:41:40Z</time>
      </trkpt>
      <trkpt lat="43.43338" lon="2.64462">
        <ele>685.6</ele>
        <time>2022-06-21T11:41:41Z</time>
      </trkpt>
      <trkpt lat="43.43338" lon="2.64462">
        <ele>685.5</ele>
        <time>2022-06-21T11:41:42Z</time>
      </trkpt>
      <trkpt lat="43.43338" lon="2.64462">
        <ele>685.5</ele>
        <time>2022-06-21T11:41:43Z</time>
      </trkpt>
      <trkpt lat="43.43338" lon="2.64462">
        <ele>685.5</ele>
        <time>2022-06-21T11:41:44Z</time>
      </trkpt>
      <trkpt lat="43.43338" lon="2.64462">
        <ele>685.4</ele>
        <time>2022-06-21T11:41:45Z</time>
      </trkpt>
      <trkpt lat="43.43338" lon="2.64462">
        <ele>685.4</ele>
        <time>2022-06-21T11:41:46Z</time>
      </trkpt>
      <trkpt lat="43.43338" lon="2.64462">
        <ele>685.4</ele>
        <time>2022-06-21T11:41:47Z</time>
      </trkpt>
      <trkpt lat="43.43339" lon="2.64462">
        <ele>685.3</ele>
        <time>2022-06-21T11:41:48Z</time>
      </trkpt>
      <trkpt lat="43.43339" lon="2.64462">
        <ele>685.3</ele>
        <time>2022-06-21T11:41:49Z</time>
      </trkpt>
      <trkpt lat="43.43342" lon="2.64461">
        <ele>684.6</ele>
        <time>2022-06-21T11:41:50Z</time>
      </trkpt>
      <trkpt lat="43.43344" lon="2.64461">
        <ele>684</ele>
        <time>2022-06-21T11:41:51Z</time>
      </trkpt>
      <trkpt lat="43.43345" lon="2.6446">
        <ele>683.9</ele>
        <time>2022-06-21T11:41:52Z</time>
      </trkpt>
      <trkpt lat="43.43345" lon="2.6446">
        <ele>683.9</ele>
        <time>2022-06-21T11:41:53Z</time>
      </trkpt>
      <trkpt lat="43.43345" lon="2.6446">
        <ele>683.8</ele>
        <time>2022-06-21T11:41:54Z</time>
      </trkpt>
      <trkpt lat="43.43345" lon="2.6446">
        <ele>683.8</ele>
        <time>2022-06-21T11:41:55Z</time>
      </trkpt>
      <trkpt lat="43.43345" lon="2.6446">
        <ele>683.8</ele>
        <time>2022-06-21T11:41:56Z</time>
      </trkpt>
      <trkpt lat="43.43345" lon="2.6446">
        <ele>683.8</ele>
        <time>2022-06-21T11:41:57Z</time>
      </trkpt>
      <trkpt lat="43.43345" lon="2.6446">
        <ele>683.8</ele>
        <time>2022-06-21T11:41:58Z</time>
      </trkpt>
      <trkpt lat="43.43345" lon="2.6446">
        <ele>683.8</ele>
        <time>2022-06-21T11:41:59Z</time>
      </trkpt>
      <trkpt lat="43.43345" lon="2.6446">
        <ele>683.8</ele>
        <time>2022-06-21T11:42:00Z</time>
      </trkpt>
      <trkpt lat="43.43345" lon="2.6446">
        <ele>683.8</ele>
        <time>2022-06-21T11:42:01Z</time>
      </trkpt>
      <trkpt lat="43.43345" lon="2.6446">
        <ele>683.8</ele>
        <time>2022-06-21T11:42:02Z</time>
      </trkpt>
      <trkpt lat="43.43345" lon="2.6446">
        <ele>683.8</ele>
        <time>2022-06-21T11:42:03Z</time>
      </trkpt>
      <trkpt lat="43.43345" lon="2.6446">
        <ele>683.8</ele>
        <time>2022-06-21T11:42:04Z</time>
      </trkpt>
      <trkpt lat="43.43345" lon="2.6446">
        <ele>683.8</ele>
        <time>2022-06-21T11:42:05Z</time>
      </trkpt>
      <trkpt lat="43.43345" lon="2.6446">
        <ele>683.8</ele>
        <time>2022-06-21T11:42:06Z</time>
      </trkpt>
      <trkpt lat="43.43345" lon="2.6446">
        <ele>683.8</ele>
        <time>2022-06-21T11:42:07Z</time>
      </trkpt>
      <trkpt lat="43.43345" lon="2.6446">
        <ele>683.8</ele>
        <time>2022-06-21T11:42:08Z</time>
      </trkpt>
      <trkpt lat="43.43345" lon="2.6446">
        <ele>683.8</ele>
        <time>2022-06-21T11:42:09Z</time>
      </trkpt>
      <trkpt lat="43.43345" lon="2.6446">
        <ele>683.8</ele>
        <time>2022-06-21T11:42:10Z</time>
      </trkpt>
      <trkpt lat="43.43345" lon="2.6446">
        <ele>683.8</ele>
        <time>2022-06-21T11:42:11Z</time>
      </trkpt>
      <trkpt lat="43.43345" lon="2.6446">
        <ele>683.8</ele>
        <time>2022-06-21T11:42:12Z</time>
      </trkpt>
      <trkpt lat="43.43345" lon="2.6446">
        <ele>683.8</ele>
        <time>2022-06-21T11:42:13Z</time>
      </trkpt>
      <trkpt lat="43.43345" lon="2.6446">
        <ele>683.8</ele>
        <time>2022-06-21T11:42:14Z</time>
      </trkpt>
      <trkpt lat="43.43345" lon="2.6446">
        <ele>683.8</ele>
        <time>2022-06-21T11:42:15Z</time>
      </trkpt>
      <trkpt lat="43.43345" lon="2.6446">
        <ele>683.8</ele>
        <time>2022-06-21T11:42:16Z</time>
      </trkpt>
      <trkpt lat="43.43345" lon="2.6446">
        <ele>683.8</ele>
        <time>2022-06-21T11:42:17Z</time>
      </trkpt>
      <trkpt lat="43.43345" lon="2.6446">
        <ele>683.8</ele>
        <time>2022-06-21T11:42:18Z</time>
      </trkpt>
      <trkpt lat="43.43345" lon="2.6446">
        <ele>683.8</ele>
        <time>2022-06-21T11:42:19Z</time>
      </trkpt>
      <trkpt lat="43.43345" lon="2.6446">
        <ele>683.8</ele>
        <time>2022-06-21T11:42:20Z</time>
      </trkpt>
      <trkpt lat="43.43345" lon="2.6446">
        <ele>683.8</ele>
        <time>2022-06-21T11:42:21Z</time>
      </trkpt>
      <trkpt lat="43.43345" lon="2.6446">
        <ele>683.8</ele>
        <time>2022-06-21T11:42:22Z</time>
      </trkpt>
      <trkpt lat="43.43345" lon="2.6446">
        <ele>683.8</ele>
        <time>2022-06-21T11:42:23Z</time>
      </trkpt>
      <trkpt lat="43.43345" lon="2.6446">
        <ele>683.8</ele>
        <time>2022-06-21T11:42:24Z</time>
      </trkpt>
      <trkpt lat="43.43345" lon="2.6446">
        <ele>683.8</ele>
        <time>2022-06-21T11:42:25Z</time>
      </trkpt>
      <trkpt lat="43.43345" lon="2.6446">
        <ele>683.8</ele>
        <time>2022-06-21T11:42:26Z</time>
      </trkpt>
      <trkpt lat="43.43345" lon="2.6446">
        <ele>683.8</ele>
        <time>2022-06-21T11:42:27Z</time>
      </trkpt>
      <trkpt lat="43.43345" lon="2.6446">
        <ele>683.8</ele>
        <time>2022-06-21T11:42:28Z</time>
      </trkpt>
      <trkpt lat="43.43345" lon="2.6446">
        <ele>683.8</ele>
        <time>2022-06-21T11:42:29Z</time>
      </trkpt>
      <trkpt lat="43.43345" lon="2.6446">
        <ele>683.8</ele>
        <time>2022-06-21T11:42:30Z</time>
      </trkpt>
      <trkpt lat="43.43345" lon="2.6446">
        <ele>683.8</ele>
        <time>2022-06-21T11:42:31Z</time>
      </trkpt>
      <trkpt lat="43.43345" lon="2.6446">
        <ele>683.8</ele>
        <time>2022-06-21T11:42:32Z</time>
      </trkpt>
      <trkpt lat="43.43345" lon="2.6446">
        <ele>683.8</ele>
        <time>2022-06-21T11:42:33Z</time>
      </trkpt>
      <trkpt lat="43.43345" lon="2.6446">
        <ele>683.8</ele>
        <time>2022-06-21T11:42:34Z</time>
      </trkpt>
      <trkpt lat="43.43345" lon="2.6446">
        <ele>683.8</ele>
        <time>2022-06-21T11:42:35Z</time>
      </trkpt>
      <trkpt lat="43.43345" lon="2.6446">
        <ele>683.8</ele>
        <time>2022-06-21T11:42:36Z</time>
      </trkpt>
      <trkpt lat="43.43345" lon="2.6446">
        <ele>683.8</ele>
        <time>2022-06-21T11:42:37Z</time>
      </trkpt>
      <trkpt lat="43.43345" lon="2.64459">
        <ele>683.5</ele>
        <time>2022-06-21T11:42:38Z</time>
      </trkpt>
      <trkpt lat="43.43346" lon="2.64458">
        <ele>683.4</ele>
        <time>2022-06-21T11:42:39Z</time>
      </trkpt>
      <trkpt lat="43.43346" lon="2.64457">
        <ele>683.3</ele>
        <time>2022-06-21T11:42:40Z</time>
      </trkpt>
      <trkpt lat="43.43345" lon="2.64457">
        <ele>683.2</ele>
        <time>2022-06-21T11:42:41Z</time>
      </trkpt>
      <trkpt lat="43.43345" lon="2.64456">
        <ele>683.1</ele>
        <time>2022-06-21T11:42:42Z</time>
      </trkpt>
      <trkpt lat="43.43345" lon="2.64456">
        <ele>683</ele>
        <time>2022-06-21T11:42:43Z</time>
      </trkpt>
      <trkpt lat="43.43345" lon="2.64455">
        <ele>682.9</ele>
        <time>2022-06-21T11:42:44Z</time>
      </trkpt>
      <trkpt lat="43.43345" lon="2.64455">
        <ele>682.8</ele>
        <time>2022-06-21T11:42:45Z</time>
      </trkpt>
      <trkpt lat="43.43345" lon="2.64454">
        <ele>682.7</ele>
        <time>2022-06-21T11:42:46Z</time>
      </trkpt>
      <trkpt lat="43.43345" lon="2.64454">
        <ele>682.6</ele>
        <time>2022-06-21T11:42:47Z</time>
      </trkpt>
      <trkpt lat="43.43345" lon="2.64453">
        <ele>682.6</ele>
        <time>2022-06-21T11:42:48Z</time>
      </trkpt>
      <trkpt lat="43.43345" lon="2.64453">
        <ele>682.5</ele>
        <time>2022-06-21T11:42:49Z</time>
      </trkpt>
      <trkpt lat="43.43345" lon="2.64452">
        <ele>682.4</ele>
        <time>2022-06-21T11:42:50Z</time>
      </trkpt>
      <trkpt lat="43.43345" lon="2.64452">
        <ele>682.3</ele>
        <time>2022-06-21T11:42:51Z</time>
      </trkpt>
      <trkpt lat="43.43346" lon="2.6445">
        <ele>682.1</ele>
        <time>2022-06-21T11:42:52Z</time>
      </trkpt>
      <trkpt lat="43.43346" lon="2.64449">
        <ele>681.8</ele>
        <time>2022-06-21T11:42:53Z</time>
      </trkpt>
      <trkpt lat="43.43346" lon="2.64447">
        <ele>681.6</ele>
        <time>2022-06-21T11:42:54Z</time>
      </trkpt>
      <trkpt lat="43.43347" lon="2.64445">
        <ele>681.3</ele>
        <time>2022-06-21T11:42:55Z</time>
      </trkpt>
      <trkpt lat="43.43347" lon="2.64445">
        <ele>681.2</ele>
        <time>2022-06-21T11:42:56Z</time>
      </trkpt>
      <trkpt lat="43.43347" lon="2.64444">
        <ele>681</ele>
        <time>2022-06-21T11:42:57Z</time>
      </trkpt>
      <trkpt lat="43.43348" lon="2.64442">
        <ele>680.8</ele>
        <time>2022-06-21T11:42:58Z</time>
      </trkpt>
      <trkpt lat="43.43348" lon="2.64442">
        <ele>680.7</ele>
        <time>2022-06-21T11:42:59Z</time>
      </trkpt>
      <trkpt lat="43.43348" lon="2.64441">
        <ele>680.6</ele>
        <time>2022-06-21T11:43:00Z</time>
      </trkpt>
      <trkpt lat="43.43348" lon="2.64441">
        <ele>680.6</ele>
        <time>2022-06-21T11:43:01Z</time>
      </trkpt>
      <trkpt lat="43.43348" lon="2.64441">
        <ele>680.5</ele>
        <time>2022-06-21T11:43:02Z</time>
      </trkpt>
      <trkpt lat="43.43349" lon="2.64439">
        <ele>680.2</ele>
        <time>2022-06-21T11:43:03Z</time>
      </trkpt>
      <trkpt lat="43.43349" lon="2.64438">
        <ele>680</ele>
        <time>2022-06-21T11:43:04Z</time>
      </trkpt>
      <trkpt lat="43.4335" lon="2.64436">
        <ele>679.8</ele>
        <time>2022-06-21T11:43:05Z</time>
      </trkpt>
      <trkpt lat="43.4335" lon="2.64436">
        <ele>679.7</ele>
        <time>2022-06-21T11:43:06Z</time>
      </trkpt>
      <trkpt lat="43.4335" lon="2.64436">
        <ele>679.7</ele>
        <time>2022-06-21T11:43:07Z</time>
      </trkpt>
      <trkpt lat="43.4335" lon="2.64435">
        <ele>679.5</ele>
        <time>2022-06-21T11:43:08Z</time>
      </trkpt>
      <trkpt lat="43.43351" lon="2.64433">
        <ele>679.3</ele>
        <time>2022-06-21T11:43:09Z</time>
      </trkpt>
      <trkpt lat="43.43351" lon="2.64432">
        <ele>679.1</ele>
        <time>2022-06-21T11:43:10Z</time>
      </trkpt>
      <trkpt lat="43.43351" lon="2.6443">
        <ele>678.8</ele>
        <time>2022-06-21T11:43:11Z</time>
      </trkpt>
      <trkpt lat="43.43352" lon="2.64429">
        <ele>678.6</ele>
        <time>2022-06-21T11:43:12Z</time>
      </trkpt>
      <trkpt lat="43.43352" lon="2.64427">
        <ele>678.4</ele>
        <time>2022-06-21T11:43:13Z</time>
      </trkpt>
      <trkpt lat="43.43352" lon="2.64426">
        <ele>678.2</ele>
        <time>2022-06-21T11:43:14Z</time>
      </trkpt>
      <trkpt lat="43.43353" lon="2.64425">
        <ele>678</ele>
        <time>2022-06-21T11:43:15Z</time>
      </trkpt>
      <trkpt lat="43.43352" lon="2.64423">
        <ele>677.8</ele>
        <time>2022-06-21T11:43:16Z</time>
      </trkpt>
      <trkpt lat="43.43352" lon="2.64421">
        <ele>677.6</ele>
        <time>2022-06-21T11:43:17Z</time>
      </trkpt>
      <trkpt lat="43.43352" lon="2.6442">
        <ele>677.4</ele>
        <time>2022-06-21T11:43:18Z</time>
      </trkpt>
      <trkpt lat="43.43352" lon="2.64419">
        <ele>677.3</ele>
        <time>2022-06-21T11:43:19Z</time>
      </trkpt>
      <trkpt lat="43.43352" lon="2.64419">
        <ele>677.2</ele>
        <time>2022-06-21T11:43:20Z</time>
      </trkpt>
      <trkpt lat="43.43351" lon="2.64418">
        <ele>677</ele>
        <time>2022-06-21T11:43:21Z</time>
      </trkpt>
      <trkpt lat="43.43351" lon="2.64416">
        <ele>676.9</ele>
        <time>2022-06-21T11:43:22Z</time>
      </trkpt>
      <trkpt lat="43.43351" lon="2.64415">
        <ele>676.7</ele>
        <time>2022-06-21T11:43:23Z</time>
      </trkpt>
      <trkpt lat="43.43351" lon="2.64414">
        <ele>676.6</ele>
        <time>2022-06-21T11:43:24Z</time>
      </trkpt>
      <trkpt lat="43.4335" lon="2.64413">
        <ele>676.4</ele>
        <time>2022-06-21T11:43:25Z</time>
      </trkpt>
      <trkpt lat="43.43349" lon="2.64412">
        <ele>676.3</ele>
        <time>2022-06-21T11:43:26Z</time>
      </trkpt>
      <trkpt lat="43.43349" lon="2.64411">
        <ele>676</ele>
        <time>2022-06-21T11:43:27Z</time>
      </trkpt>
      <trkpt lat="43.43348" lon="2.6441">
        <ele>675.9</ele>
        <time>2022-06-21T11:43:28Z</time>
      </trkpt>
      <trkpt lat="43.43347" lon="2.64409">
        <ele>675.7</ele>
        <time>2022-06-21T11:43:29Z</time>
      </trkpt>
      <trkpt lat="43.43347" lon="2.64408">
        <ele>675.6</ele>
        <time>2022-06-21T11:43:30Z</time>
      </trkpt>
      <trkpt lat="43.43346" lon="2.64408">
        <ele>675.5</ele>
        <time>2022-06-21T11:43:31Z</time>
      </trkpt>
      <trkpt lat="43.43346" lon="2.64407">
        <ele>675.4</ele>
        <time>2022-06-21T11:43:32Z</time>
      </trkpt>
      <trkpt lat="43.43346" lon="2.64406">
        <ele>675.3</ele>
        <time>2022-06-21T11:43:33Z</time>
      </trkpt>
      <trkpt lat="43.43346" lon="2.64406">
        <ele>675.3</ele>
        <time>2022-06-21T11:43:34Z</time>
      </trkpt>
      <trkpt lat="43.43346" lon="2.64406">
        <ele>675.3</ele>
        <time>2022-06-21T11:43:35Z</time>
      </trkpt>
      <trkpt lat="43.43346" lon="2.64406">
        <ele>675.3</ele>
        <time>2022-06-21T11:43:36Z</time>
      </trkpt>
      <trkpt lat="43.43347" lon="2.64406">
        <ele>675.3</ele>
        <time>2022-06-21T11:43:37Z</time>
      </trkpt>
      <trkpt lat="43.43347" lon="2.64406">
        <ele>675.3</ele>
        <time>2022-06-21T11:43:38Z</time>
      </trkpt>
      <trkpt lat="43.43347" lon="2.64406">
        <ele>675.3</ele>
        <time>2022-06-21T11:43:39Z</time>
      </trkpt>
      <trkpt lat="43.43347" lon="2.64406">
        <ele>675.3</ele>
        <time>2022-06-21T11:43:40Z</time>
      </trkpt>
      <trkpt lat="43.43347" lon="2.64406">
        <ele>675.3</ele>
        <time>2022-06-21T11:43:41Z</time>
      </trkpt>
      <trkpt lat="43.43347" lon="2.64406">
        <ele>675.3</ele>
        <time>2022-06-21T11:43:42Z</time>
      </trkpt>
      <trkpt lat="43.43347" lon="2.64406">
        <ele>675.3</ele>
        <time>2022-06-21T11:43:43Z</time>
      </trkpt>
      <trkpt lat="43.43347" lon="2.64406">
        <ele>675.3</ele>
        <time>2022-06-21T11:43:44Z</time>
      </trkpt>
      <trkpt lat="43.43347" lon="2.64406">
        <ele>675.3</ele>
        <time>2022-06-21T11:43:45Z</time>
      </trkpt>
      <trkpt lat="43.43347" lon="2.64406">
        <ele>675.3</ele>
        <time>2022-06-21T11:43:46Z</time>
      </trkpt>
      <trkpt lat="43.43347" lon="2.64406">
        <ele>675.3</ele>
        <time>2022-06-21T11:43:47Z</time>
      </trkpt>
      <trkpt lat="43.43347" lon="2.64406">
        <ele>675.3</ele>
        <time>2022-06-21T11:43:48Z</time>
      </trkpt>
      <trkpt lat="43.43347" lon="2.64406">
        <ele>675.3</ele>
        <time>2022-06-21T11:43:49Z</time>
      </trkpt>
      <trkpt lat="43.43347" lon="2.64406">
        <ele>675.3</ele>
        <time>2022-06-21T11:43:50Z</time>
      </trkpt>
      <trkpt lat="43.43347" lon="2.64406">
        <ele>675.3</ele>
        <time>2022-06-21T11:43:51Z</time>
      </trkpt>
      <trkpt lat="43.43347" lon="2.64406">
        <ele>675.3</ele>
        <time>2022-06-21T11:43:52Z</time>
      </trkpt>
      <trkpt lat="43.43347" lon="2.64406">
        <ele>675.3</ele>
        <time>2022-06-21T11:43:53Z</time>
      </trkpt>
      <trkpt lat="43.43347" lon="2.64406">
        <ele>675.3</ele>
        <time>2022-06-21T11:43:54Z</time>
      </trkpt>
      <trkpt lat="43.43347" lon="2.64406">
        <ele>675.3</ele>
        <time>2022-06-21T11:43:55Z</time>
      </trkpt>
      <trkpt lat="43.43347" lon="2.64406">
        <ele>675.3</ele>
        <time>2022-06-21T11:43:56Z</time>
      </trkpt>
      <trkpt lat="43.43347" lon="2.64406">
        <ele>675.3</ele>
        <time>2022-06-21T11:43:57Z</time>
      </trkpt>
      <trkpt lat="43.43347" lon="2.64406">
        <ele>675.3</ele>
        <time>2022-06-21T11:43:58Z</time>
      </trkpt>
      <trkpt lat="43.43347" lon="2.64406">
        <ele>675.3</ele>
        <time>2022-06-21T11:43:59Z</time>
      </trkpt>
      <trkpt lat="43.43347" lon="2.64406">
        <ele>675.3</ele>
        <time>2022-06-21T11:44:00Z</time>
      </trkpt>
      <trkpt lat="43.43347" lon="2.64406">
        <ele>675.3</ele>
        <time>2022-06-21T11:44:01Z</time>
      </trkpt>
      <trkpt lat="43.43347" lon="2.64406">
        <ele>675.3</ele>
        <time>2022-06-21T11:44:02Z</time>
      </trkpt>
      <trkpt lat="43.43347" lon="2.64406">
        <ele>675.3</ele>
        <time>2022-06-21T11:44:03Z</time>
      </trkpt>
      <trkpt lat="43.43347" lon="2.64406">
        <ele>675.3</ele>
        <time>2022-06-21T11:44:04Z</time>
      </trkpt>
      <trkpt lat="43.43347" lon="2.64406">
        <ele>675.3</ele>
        <time>2022-06-21T11:44:05Z</time>
      </trkpt>
      <trkpt lat="43.43347" lon="2.64406">
        <ele>675.3</ele>
        <time>2022-06-21T11:44:06Z</time>
      </trkpt>
      <trkpt lat="43.43347" lon="2.64406">
        <ele>675.3</ele>
        <time>2022-06-21T11:44:07Z</time>
      </trkpt>
      <trkpt lat="43.43347" lon="2.64406">
        <ele>675.3</ele>
        <time>2022-06-21T11:44:08Z</time>
      </trkpt>
      <trkpt lat="43.43347" lon="2.64406">
        <ele>675.3</ele>
        <time>2022-06-21T11:44:09Z</time>
      </trkpt>
      <trkpt lat="43.43347" lon="2.64406">
        <ele>675.3</ele>
        <time>2022-06-21T11:44:10Z</time>
      </trkpt>
      <trkpt lat="43.43347" lon="2.64406">
        <ele>675.3</ele>
        <time>2022-06-21T11:44:11Z</time>
      </trkpt>
      <trkpt lat="43.43347" lon="2.64406">
        <ele>675.3</ele>
        <time>2022-06-21T11:44:12Z</time>
      </trkpt>
      <trkpt lat="43.43347" lon="2.64406">
        <ele>675.3</ele>
        <time>2022-06-21T11:44:13Z</time>
      </trkpt>
      <trkpt lat="43.43347" lon="2.64406">
        <ele>675.3</ele>
        <time>2022-06-21T11:44:14Z</time>
      </trkpt>
      <trkpt lat="43.43347" lon="2.64406">
        <ele>675.3</ele>
        <time>2022-06-21T11:44:15Z</time>
      </trkpt>
      <trkpt lat="43.43347" lon="2.64406">
        <ele>675.3</ele>
        <time>2022-06-21T11:44:16Z</time>
      </trkpt>
      <trkpt lat="43.43347" lon="2.64406">
        <ele>675.3</ele>
        <time>2022-06-21T11:44:17Z</time>
      </trkpt>
      <trkpt lat="43.43347" lon="2.64406">
        <ele>675.3</ele>
        <time>2022-06-21T11:44:18Z</time>
      </trkpt>
      <trkpt lat="43.43347" lon="2.64406">
        <ele>675.3</ele>
        <time>2022-06-21T11:44:19Z</time>
      </trkpt>
      <trkpt lat="43.43347" lon="2.64406">
        <ele>675.3</ele>
        <time>2022-06-21T11:44:20Z</time>
      </trkpt>
      <trkpt lat="43.43347" lon="2.64406">
        <ele>675.3</ele>
        <time>2022-06-21T11:44:21Z</time>
      </trkpt>
      <trkpt lat="43.43347" lon="2.64406">
        <ele>675.3</ele>
        <time>2022-06-21T11:44:22Z</time>
      </trkpt>
      <trkpt lat="43.43347" lon="2.64406">
        <ele>675.3</ele>
        <time>2022-06-21T11:44:23Z</time>
      </trkpt>
      <trkpt lat="43.43347" lon="2.64406">
        <ele>675.3</ele>
        <time>2022-06-21T11:44:24Z</time>
      </trkpt>
      <trkpt lat="43.43347" lon="2.64406">
        <ele>675.3</ele>
        <time>2022-06-21T11:44:25Z</time>
      </trkpt>
      <trkpt lat="43.43347" lon="2.64406">
        <ele>675.3</ele>
        <time>2022-06-21T11:44:26Z</time>
      </trkpt>
      <trkpt lat="43.43347" lon="2.64406">
        <ele>675.3</ele>
        <time>2022-06-21T11:44:27Z</time>
      </trkpt>
      <trkpt lat="43.43347" lon="2.64406">
        <ele>675.3</ele>
        <time>2022-06-21T11:44:28Z</time>
      </trkpt>
      <trkpt lat="43.43347" lon="2.64406">
        <ele>675.3</ele>
        <time>2022-06-21T11:44:29Z</time>
      </trkpt>
      <trkpt lat="43.43347" lon="2.64406">
        <ele>675.3</ele>
        <time>2022-06-21T11:44:30Z</time>
      </trkpt>
      <trkpt lat="43.43347" lon="2.64406">
        <ele>675.3</ele>
        <time>2022-06-21T11:44:31Z</time>
      </trkpt>
      <trkpt lat="43.43347" lon="2.64406">
        <ele>675.3</ele>
        <time>2022-06-21T11:44:32Z</time>
      </trkpt>
      <trkpt lat="43.43347" lon="2.64406">
        <ele>675.3</ele>
        <time>2022-06-21T11:44:33Z</time>
      </trkpt>
      <trkpt lat="43.43347" lon="2.64406">
        <ele>675.3</ele>
        <time>2022-06-21T11:44:34Z</time>
      </trkpt>
      <trkpt lat="43.43347" lon="2.64406">
        <ele>675.3</ele>
        <time>2022-06-21T11:44:35Z</time>
      </trkpt>
      <trkpt lat="43.43347" lon="2.64406">
        <ele>675.3</ele>
        <time>2022-06-21T11:44:36Z</time>
      </trkpt>
      <trkpt lat="43.43347" lon="2.64406">
        <ele>675.3</ele>
        <time>2022-06-21T11:44:37Z</time>
      </trkpt>
      <trkpt lat="43.43347" lon="2.64406">
        <ele>675.3</ele>
        <time>2022-06-21T11:44:38Z</time>
      </trkpt>
      <trkpt lat="43.43347" lon="2.64406">
        <ele>675.3</ele>
        <time>2022-06-21T11:44:39Z</time>
      </trkpt>
      <trkpt lat="43.43347" lon="2.64406">
        <ele>675.3</ele>
        <time>2022-06-21T11:44:40Z</time>
      </trkpt>
      <trkpt lat="43.43347" lon="2.64406">
        <ele>675.3</ele>
        <time>2022-06-21T11:44:41Z</time>
      </trkpt>
      <trkpt lat="43.43347" lon="2.64406">
        <ele>675.3</ele>
        <time>2022-06-21T11:44:42Z</time>
      </trkpt>
      <trkpt lat="43.43347" lon="2.64406">
        <ele>675.3</ele>
        <time>2022-06-21T11:44:43Z</time>
      </trkpt>
      <trkpt lat="43.43347" lon="2.64406">
        <ele>675.3</ele>
        <time>2022-06-21T11:44:44Z</time>
      </trkpt>
      <trkpt lat="43.43347" lon="2.64406">
        <ele>675.3</ele>
        <time>2022-06-21T11:44:45Z</time>
      </trkpt>
      <trkpt lat="43.43347" lon="2.64406">
        <ele>675.3</ele>
        <time>2022-06-21T11:44:46Z</time>
      </trkpt>
      <trkpt lat="43.43347" lon="2.64406">
        <ele>675.3</ele>
        <time>2022-06-21T11:44:47Z</time>
      </trkpt>
      <trkpt lat="43.43347" lon="2.64406">
        <ele>675.3</ele>
        <time>2022-06-21T11:44:48Z</time>
      </trkpt>
      <trkpt lat="43.43347" lon="2.64406">
        <ele>675.3</ele>
        <time>2022-06-21T11:44:49Z</time>
      </trkpt>
      <trkpt lat="43.43347" lon="2.64406">
        <ele>675.3</ele>
        <time>2022-06-21T11:44:50Z</time>
      </trkpt>
      <trkpt lat="43.43347" lon="2.64406">
        <ele>675.3</ele>
        <time>2022-06-21T11:44:51Z</time>
      </trkpt>
      <trkpt lat="43.43347" lon="2.64406">
        <ele>675.3</ele>
        <time>2022-06-21T11:44:52Z</time>
      </trkpt>
      <trkpt lat="43.43347" lon="2.64406">
        <ele>675.3</ele>
        <time>2022-06-21T11:44:53Z</time>
      </trkpt>
      <trkpt lat="43.43347" lon="2.64406">
        <ele>675.3</ele>
        <time>2022-06-21T11:44:54Z</time>
      </trkpt>
      <trkpt lat="43.43347" lon="2.64406">
        <ele>675.3</ele>
        <time>2022-06-21T11:44:55Z</time>
      </trkpt>
      <trkpt lat="43.43347" lon="2.64406">
        <ele>675.3</ele>
        <time>2022-06-21T11:44:56Z</time>
      </trkpt>
      <trkpt lat="43.43347" lon="2.64406">
        <ele>675.3</ele>
        <time>2022-06-21T11:44:57Z</time>
      </trkpt>
      <trkpt lat="43.43346" lon="2.64406">
        <ele>675.2</ele>
        <time>2022-06-21T11:44:58Z</time>
      </trkpt>
      <trkpt lat="43.43345" lon="2.64404">
        <ele>674.9</ele>
        <time>2022-06-21T11:44:59Z</time>
      </trkpt>
      <trkpt lat="43.43345" lon="2.64402">
        <ele>674.7</ele>
        <time>2022-06-21T11:45:00Z</time>
      </trkpt>
      <trkpt lat="43.43344" lon="2.64401">
        <ele>674.6</ele>
        <time>2022-06-21T11:45:01Z</time>
      </trkpt>
      <trkpt lat="43.43344" lon="2.64401">
        <ele>674.6</ele>
        <time>2022-06-21T11:45:02Z</time>
      </trkpt>
      <trkpt lat="43.43344" lon="2.64401">
        <ele>674.6</ele>
        <time>2022-06-21T11:45:03Z</time>
      </trkpt>
      <trkpt lat="43.43344" lon="2.644">
        <ele>674.5</ele>
        <time>2022-06-21T11:45:04Z</time>
      </trkpt>
      <trkpt lat="43.43344" lon="2.644">
        <ele>674.5</ele>
        <time>2022-06-21T11:45:05Z</time>
      </trkpt>
      <trkpt lat="43.43344" lon="2.644">
        <ele>674.5</ele>
        <time>2022-06-21T11:45:06Z</time>
      </trkpt>
      <trkpt lat="43.43344" lon="2.644">
        <ele>674.5</ele>
        <time>2022-06-21T11:45:07Z</time>
      </trkpt>
      <trkpt lat="43.43344" lon="2.644">
        <ele>674.5</ele>
        <time>2022-06-21T11:45:08Z</time>
      </trkpt>
      <trkpt lat="43.43344" lon="2.644">
        <ele>674.5</ele>
        <time>2022-06-21T11:45:09Z</time>
      </trkpt>
      <trkpt lat="43.43344" lon="2.644">
        <ele>674.5</ele>
        <time>2022-06-21T11:45:10Z</time>
      </trkpt>
      <trkpt lat="43.43344" lon="2.644">
        <ele>674.5</ele>
        <time>2022-06-21T11:45:11Z</time>
      </trkpt>
      <trkpt lat="43.43344" lon="2.64399">
        <ele>674.4</ele>
        <time>2022-06-21T11:45:12Z</time>
      </trkpt>
      <trkpt lat="43.43343" lon="2.64397">
        <ele>674.2</ele>
        <time>2022-06-21T11:45:13Z</time>
      </trkpt>
      <trkpt lat="43.43343" lon="2.64394">
        <ele>674</ele>
        <time>2022-06-21T11:45:14Z</time>
      </trkpt>
      <trkpt lat="43.43343" lon="2.64393">
        <ele>673.9</ele>
        <time>2022-06-21T11:45:15Z</time>
      </trkpt>
      <trkpt lat="43.43342" lon="2.64392">
        <ele>673.8</ele>
        <time>2022-06-21T11:45:16Z</time>
      </trkpt>
      <trkpt lat="43.43342" lon="2.64391">
        <ele>673.8</ele>
        <time>2022-06-21T11:45:17Z</time>
      </trkpt>
      <trkpt lat="43.43342" lon="2.64391">
        <ele>673.8</ele>
        <time>2022-06-21T11:45:18Z</time>
      </trkpt>
      <trkpt lat="43.43342" lon="2.64391">
        <ele>673.8</ele>
        <time>2022-06-21T11:45:19Z</time>
      </trkpt>
      <trkpt lat="43.43342" lon="2.64391">
        <ele>673.8</ele>
        <time>2022-06-21T11:45:20Z</time>
      </trkpt>
      <trkpt lat="43.43342" lon="2.64391">
        <ele>673.8</ele>
        <time>2022-06-21T11:45:21Z</time>
      </trkpt>
      <trkpt lat="43.43342" lon="2.64391">
        <ele>673.8</ele>
        <time>2022-06-21T11:45:22Z</time>
      </trkpt>
      <trkpt lat="43.43342" lon="2.64391">
        <ele>673.8</ele>
        <time>2022-06-21T11:45:23Z</time>
      </trkpt>
      <trkpt lat="43.43343" lon="2.6439">
        <ele>673.7</ele>
        <time>2022-06-21T11:45:24Z</time>
      </trkpt>
      <trkpt lat="43.43343" lon="2.64389">
        <ele>673.7</ele>
        <time>2022-06-21T11:45:25Z</time>
      </trkpt>
      <trkpt lat="43.43343" lon="2.64387">
        <ele>673.6</ele>
        <time>2022-06-21T11:45:26Z</time>
      </trkpt>
      <trkpt lat="43.43343" lon="2.64386">
        <ele>673.5</ele>
        <time>2022-06-21T11:45:27Z</time>
      </trkpt>
      <trkpt lat="43.43343" lon="2.64384">
        <ele>673.6</ele>
        <time>2022-06-21T11:45:28Z</time>
      </trkpt>
      <trkpt lat="43.43344" lon="2.64382">
        <ele>673.8</ele>
        <time>2022-06-21T11:45:29Z</time>
      </trkpt>
      <trkpt lat="43.43344" lon="2.64381">
        <ele>673.9</ele>
        <time>2022-06-21T11:45:30Z</time>
      </trkpt>
      <trkpt lat="43.43344" lon="2.6438">
        <ele>674.1</ele>
        <time>2022-06-21T11:45:31Z</time>
      </trkpt>
      <trkpt lat="43.43344" lon="2.64377">
        <ele>674.4</ele>
        <time>2022-06-21T11:45:32Z</time>
      </trkpt>
      <trkpt lat="43.43344" lon="2.64376">
        <ele>674.5</ele>
        <time>2022-06-21T11:45:33Z</time>
      </trkpt>
      <trkpt lat="43.43343" lon="2.64375">
        <ele>674.6</ele>
        <time>2022-06-21T11:45:34Z</time>
      </trkpt>
      <trkpt lat="43.43343" lon="2.64372">
        <ele>674.9</ele>
        <time>2022-06-21T11:45:35Z</time>
      </trkpt>
      <trkpt lat="43.43343" lon="2.64372">
        <ele>675</ele>
        <time>2022-06-21T11:45:36Z</time>
      </trkpt>
      <trkpt lat="43.43343" lon="2.64371">
        <ele>675.1</ele>
        <time>2022-06-21T11:45:37Z</time>
      </trkpt>
      <trkpt lat="43.43343" lon="2.6437">
        <ele>675.2</ele>
        <time>2022-06-21T11:45:38Z</time>
      </trkpt>
      <trkpt lat="43.43343" lon="2.64369">
        <ele>675.3</ele>
        <time>2022-06-21T11:45:39Z</time>
      </trkpt>
      <trkpt lat="43.43343" lon="2.64368">
        <ele>675.4</ele>
        <time>2022-06-21T11:45:40Z</time>
      </trkpt>
      <trkpt lat="43.43343" lon="2.64367">
        <ele>675.6</ele>
        <time>2022-06-21T11:45:41Z</time>
      </trkpt>
      <trkpt lat="43.43343" lon="2.64366">
        <ele>675.7</ele>
        <time>2022-06-21T11:45:42Z</time>
      </trkpt>
      <trkpt lat="43.43343" lon="2.64364">
        <ele>675.9</ele>
        <time>2022-06-21T11:45:43Z</time>
      </trkpt>
      <trkpt lat="43.43343" lon="2.64363">
        <ele>676</ele>
        <time>2022-06-21T11:45:44Z</time>
      </trkpt>
      <trkpt lat="43.43343" lon="2.64362">
        <ele>676.2</ele>
        <time>2022-06-21T11:45:45Z</time>
      </trkpt>
      <trkpt lat="43.43343" lon="2.6436">
        <ele>676.3</ele>
        <time>2022-06-21T11:45:46Z</time>
      </trkpt>
      <trkpt lat="43.43344" lon="2.64358">
        <ele>676.6</ele>
        <time>2022-06-21T11:45:47Z</time>
      </trkpt>
      <trkpt lat="43.43344" lon="2.64357">
        <ele>676.8</ele>
        <time>2022-06-21T11:45:48Z</time>
      </trkpt>
      <trkpt lat="43.43344" lon="2.64355">
        <ele>676.9</ele>
        <time>2022-06-21T11:45:49Z</time>
      </trkpt>
      <trkpt lat="43.43345" lon="2.64354">
        <ele>677.1</ele>
        <time>2022-06-21T11:45:50Z</time>
      </trkpt>
      <trkpt lat="43.43346" lon="2.64352">
        <ele>677.3</ele>
        <time>2022-06-21T11:45:51Z</time>
      </trkpt>
      <trkpt lat="43.43346" lon="2.64351">
        <ele>677.5</ele>
        <time>2022-06-21T11:45:52Z</time>
      </trkpt>
      <trkpt lat="43.43346" lon="2.6435">
        <ele>677.6</ele>
        <time>2022-06-21T11:45:53Z</time>
      </trkpt>
      <trkpt lat="43.43347" lon="2.64349">
        <ele>677.7</ele>
        <time>2022-06-21T11:45:54Z</time>
      </trkpt>
      <trkpt lat="43.43347" lon="2.64348">
        <ele>677.8</ele>
        <time>2022-06-21T11:45:55Z</time>
      </trkpt>
      <trkpt lat="43.43347" lon="2.64347">
        <ele>677.9</ele>
        <time>2022-06-21T11:45:56Z</time>
      </trkpt>
      <trkpt lat="43.43347" lon="2.64346">
        <ele>678.1</ele>
        <time>2022-06-21T11:45:57Z</time>
      </trkpt>
      <trkpt lat="43.43348" lon="2.64345">
        <ele>678.2</ele>
        <time>2022-06-21T11:45:58Z</time>
      </trkpt>
      <trkpt lat="43.43348" lon="2.64343">
        <ele>678.4</ele>
        <time>2022-06-21T11:45:59Z</time>
      </trkpt>
      <trkpt lat="43.43348" lon="2.64341">
        <ele>678.6</ele>
        <time>2022-06-21T11:46:00Z</time>
      </trkpt>
      <trkpt lat="43.43349" lon="2.64339">
        <ele>679</ele>
        <time>2022-06-21T11:46:01Z</time>
      </trkpt>
      <trkpt lat="43.43349" lon="2.64338">
        <ele>679.1</ele>
        <time>2022-06-21T11:46:02Z</time>
      </trkpt>
      <trkpt lat="43.43349" lon="2.64336">
        <ele>679.2</ele>
        <time>2022-06-21T11:46:03Z</time>
      </trkpt>
      <trkpt lat="43.4335" lon="2.64335">
        <ele>679.5</ele>
        <time>2022-06-21T11:46:04Z</time>
      </trkpt>
      <trkpt lat="43.4335" lon="2.64333">
        <ele>679.7</ele>
        <time>2022-06-21T11:46:05Z</time>
      </trkpt>
      <trkpt lat="43.43351" lon="2.64331">
        <ele>679.9</ele>
        <time>2022-06-21T11:46:06Z</time>
      </trkpt>
      <trkpt lat="43.43352" lon="2.64329">
        <ele>680.2</ele>
        <time>2022-06-21T11:46:07Z</time>
      </trkpt>
      <trkpt lat="43.43352" lon="2.64327">
        <ele>680.4</ele>
        <time>2022-06-21T11:46:08Z</time>
      </trkpt>
      <trkpt lat="43.43353" lon="2.64325">
        <ele>680.8</ele>
        <time>2022-06-21T11:46:09Z</time>
      </trkpt>
      <trkpt lat="43.43354" lon="2.64322">
        <ele>681.1</ele>
        <time>2022-06-21T11:46:10Z</time>
      </trkpt>
      <trkpt lat="43.43354" lon="2.6432">
        <ele>681.3</ele>
        <time>2022-06-21T11:46:11Z</time>
      </trkpt>
      <trkpt lat="43.43354" lon="2.64319">
        <ele>681.5</ele>
        <time>2022-06-21T11:46:12Z</time>
      </trkpt>
      <trkpt lat="43.43354" lon="2.64317">
        <ele>681.7</ele>
        <time>2022-06-21T11:46:13Z</time>
      </trkpt>
      <trkpt lat="43.43355" lon="2.64315">
        <ele>682</ele>
        <time>2022-06-21T11:46:14Z</time>
      </trkpt>
      <trkpt lat="43.43355" lon="2.64313">
        <ele>682.3</ele>
        <time>2022-06-21T11:46:15Z</time>
      </trkpt>
      <trkpt lat="43.43356" lon="2.64312">
        <ele>682.5</ele>
        <time>2022-06-21T11:46:16Z</time>
      </trkpt>
      <trkpt lat="43.43356" lon="2.6431">
        <ele>682.7</ele>
        <time>2022-06-21T11:46:17Z</time>
      </trkpt>
      <trkpt lat="43.43356" lon="2.64309">
        <ele>682.9</ele>
        <time>2022-06-21T11:46:18Z</time>
      </trkpt>
      <trkpt lat="43.43356" lon="2.64308">
        <ele>683.1</ele>
        <time>2022-06-21T11:46:19Z</time>
      </trkpt>
      <trkpt lat="43.43356" lon="2.64307">
        <ele>683.2</ele>
        <time>2022-06-21T11:46:20Z</time>
      </trkpt>
      <trkpt lat="43.43357" lon="2.64305">
        <ele>683.4</ele>
        <time>2022-06-21T11:46:21Z</time>
      </trkpt>
      <trkpt lat="43.43357" lon="2.64304">
        <ele>683.6</ele>
        <time>2022-06-21T11:46:22Z</time>
      </trkpt>
      <trkpt lat="43.43357" lon="2.64303">
        <ele>683.7</ele>
        <time>2022-06-21T11:46:23Z</time>
      </trkpt>
      <trkpt lat="43.43357" lon="2.64302">
        <ele>683.8</ele>
        <time>2022-06-21T11:46:24Z</time>
      </trkpt>
      <trkpt lat="43.43357" lon="2.64301">
        <ele>684</ele>
        <time>2022-06-21T11:46:25Z</time>
      </trkpt>
      <trkpt lat="43.43357" lon="2.643">
        <ele>684.2</ele>
        <time>2022-06-21T11:46:26Z</time>
      </trkpt>
      <trkpt lat="43.43357" lon="2.64298">
        <ele>684.4</ele>
        <time>2022-06-21T11:46:27Z</time>
      </trkpt>
      <trkpt lat="43.43357" lon="2.64298">
        <ele>684.5</ele>
        <time>2022-06-21T11:46:28Z</time>
      </trkpt>
      <trkpt lat="43.43357" lon="2.64297">
        <ele>684.6</ele>
        <time>2022-06-21T11:46:29Z</time>
      </trkpt>
      <trkpt lat="43.43357" lon="2.64296">
        <ele>684.8</ele>
        <time>2022-06-21T11:46:30Z</time>
      </trkpt>
      <trkpt lat="43.43358" lon="2.64294">
        <ele>685</ele>
        <time>2022-06-21T11:46:31Z</time>
      </trkpt>
      <trkpt lat="43.43357" lon="2.64293">
        <ele>685.2</ele>
        <time>2022-06-21T11:46:32Z</time>
      </trkpt>
      <trkpt lat="43.43357" lon="2.64291">
        <ele>685.5</ele>
        <time>2022-06-21T11:46:33Z</time>
      </trkpt>
      <trkpt lat="43.43357" lon="2.6429">
        <ele>685.6</ele>
        <time>2022-06-21T11:46:34Z</time>
      </trkpt>
      <trkpt lat="43.43358" lon="2.64289">
        <ele>685.8</ele>
        <time>2022-06-21T11:46:35Z</time>
      </trkpt>
      <trkpt lat="43.43358" lon="2.64289">
        <ele>685.9</ele>
        <time>2022-06-21T11:46:36Z</time>
      </trkpt>
      <trkpt lat="43.43358" lon="2.64288">
        <ele>686</ele>
        <time>2022-06-21T11:46:37Z</time>
      </trkpt>
      <trkpt lat="43.43359" lon="2.64288">
        <ele>686.1</ele>
        <time>2022-06-21T11:46:38Z</time>
      </trkpt>
      <trkpt lat="43.43359" lon="2.64286">
        <ele>686.3</ele>
        <time>2022-06-21T11:46:39Z</time>
      </trkpt>
      <trkpt lat="43.43359" lon="2.64285">
        <ele>686.4</ele>
        <time>2022-06-21T11:46:40Z</time>
      </trkpt>
      <trkpt lat="43.43359" lon="2.64284">
        <ele>686.6</ele>
        <time>2022-06-21T11:46:41Z</time>
      </trkpt>
      <trkpt lat="43.43359" lon="2.64283">
        <ele>686.8</ele>
        <time>2022-06-21T11:46:42Z</time>
      </trkpt>
      <trkpt lat="43.4336" lon="2.64282">
        <ele>686.9</ele>
        <time>2022-06-21T11:46:43Z</time>
      </trkpt>
      <trkpt lat="43.4336" lon="2.6428">
        <ele>687.1</ele>
        <time>2022-06-21T11:46:44Z</time>
      </trkpt>
      <trkpt lat="43.4336" lon="2.64278">
        <ele>687.4</ele>
        <time>2022-06-21T11:46:45Z</time>
      </trkpt>
      <trkpt lat="43.4336" lon="2.64277">
        <ele>687.6</ele>
        <time>2022-06-21T11:46:46Z</time>
      </trkpt>
      <trkpt lat="43.43361" lon="2.64276">
        <ele>687.7</ele>
        <time>2022-06-21T11:46:47Z</time>
      </trkpt>
      <trkpt lat="43.43361" lon="2.64275">
        <ele>687.9</ele>
        <time>2022-06-21T11:46:48Z</time>
      </trkpt>
      <trkpt lat="43.43362" lon="2.64274">
        <ele>688.1</ele>
        <time>2022-06-21T11:46:49Z</time>
      </trkpt>
      <trkpt lat="43.43363" lon="2.64273">
        <ele>688.3</ele>
        <time>2022-06-21T11:46:50Z</time>
      </trkpt>
      <trkpt lat="43.43364" lon="2.64272">
        <ele>688.6</ele>
        <time>2022-06-21T11:46:51Z</time>
      </trkpt>
      <trkpt lat="43.43365" lon="2.64271">
        <ele>688.8</ele>
        <time>2022-06-21T11:46:52Z</time>
      </trkpt>
      <trkpt lat="43.43365" lon="2.64271">
        <ele>688.9</ele>
        <time>2022-06-21T11:46:53Z</time>
      </trkpt>
      <trkpt lat="43.43366" lon="2.6427">
        <ele>689.1</ele>
        <time>2022-06-21T11:46:54Z</time>
      </trkpt>
      <trkpt lat="43.43367" lon="2.64268">
        <ele>689.4</ele>
        <time>2022-06-21T11:46:55Z</time>
      </trkpt>
      <trkpt lat="43.43368" lon="2.64266">
        <ele>689.7</ele>
        <time>2022-06-21T11:46:56Z</time>
      </trkpt>
      <trkpt lat="43.43369" lon="2.64265">
        <ele>690</ele>
        <time>2022-06-21T11:46:57Z</time>
      </trkpt>
      <trkpt lat="43.4337" lon="2.64264">
        <ele>690.2</ele>
        <time>2022-06-21T11:46:58Z</time>
      </trkpt>
      <trkpt lat="43.43371" lon="2.64263">
        <ele>690.3</ele>
        <time>2022-06-21T11:46:59Z</time>
      </trkpt>
      <trkpt lat="43.43371" lon="2.64263">
        <ele>690.4</ele>
        <time>2022-06-21T11:47:00Z</time>
      </trkpt>
      <trkpt lat="43.43372" lon="2.64262">
        <ele>690.6</ele>
        <time>2022-06-21T11:47:01Z</time>
      </trkpt>
      <trkpt lat="43.43372" lon="2.64262">
        <ele>690.7</ele>
        <time>2022-06-21T11:47:02Z</time>
      </trkpt>
      <trkpt lat="43.43373" lon="2.64261">
        <ele>690.8</ele>
        <time>2022-06-21T11:47:03Z</time>
      </trkpt>
      <trkpt lat="43.43373" lon="2.64261">
        <ele>690.9</ele>
        <time>2022-06-21T11:47:04Z</time>
      </trkpt>
      <trkpt lat="43.43373" lon="2.64261">
        <ele>690.9</ele>
        <time>2022-06-21T11:47:05Z</time>
      </trkpt>
      <trkpt lat="43.43373" lon="2.64261">
        <ele>690.9</ele>
        <time>2022-06-21T11:47:06Z</time>
      </trkpt>
      <trkpt lat="43.43373" lon="2.6426">
        <ele>690.9</ele>
        <time>2022-06-21T11:47:07Z</time>
      </trkpt>
      <trkpt lat="43.43373" lon="2.6426">
        <ele>691</ele>
        <time>2022-06-21T11:47:08Z</time>
      </trkpt>
      <trkpt lat="43.43373" lon="2.64258">
        <ele>691.2</ele>
        <time>2022-06-21T11:47:09Z</time>
      </trkpt>
      <trkpt lat="43.43373" lon="2.64257">
        <ele>691.3</ele>
        <time>2022-06-21T11:47:10Z</time>
      </trkpt>
      <trkpt lat="43.43373" lon="2.64257">
        <ele>691.4</ele>
        <time>2022-06-21T11:47:11Z</time>
      </trkpt>
      <trkpt lat="43.43373" lon="2.64257">
        <ele>691.4</ele>
        <time>2022-06-21T11:47:12Z</time>
      </trkpt>
      <trkpt lat="43.43373" lon="2.64257">
        <ele>691.4</ele>
        <time>2022-06-21T11:47:13Z</time>
      </trkpt>
      <trkpt lat="43.43373" lon="2.64257">
        <ele>691.4</ele>
        <time>2022-06-21T11:47:14Z</time>
      </trkpt>
      <trkpt lat="43.43373" lon="2.64257">
        <ele>691.4</ele>
        <time>2022-06-21T11:47:15Z</time>
      </trkpt>
      <trkpt lat="43.43373" lon="2.64257">
        <ele>691.4</ele>
        <time>2022-06-21T11:47:16Z</time>
      </trkpt>
      <trkpt lat="43.43373" lon="2.64256">
        <ele>691.5</ele>
        <time>2022-06-21T11:47:17Z</time>
      </trkpt>
      <trkpt lat="43.43373" lon="2.64256">
        <ele>691.5</ele>
        <time>2022-06-21T11:47:18Z</time>
      </trkpt>
      <trkpt lat="43.43373" lon="2.64256">
        <ele>691.5</ele>
        <time>2022-06-21T11:47:19Z</time>
      </trkpt>
      <trkpt lat="43.43373" lon="2.64256">
        <ele>691.5</ele>
        <time>2022-06-21T11:47:20Z</time>
      </trkpt>
      <trkpt lat="43.43373" lon="2.64256">
        <ele>691.5</ele>
        <time>2022-06-21T11:47:21Z</time>
      </trkpt>
      <trkpt lat="43.43373" lon="2.64256">
        <ele>691.5</ele>
        <time>2022-06-21T11:47:22Z</time>
      </trkpt>
      <trkpt lat="43.43373" lon="2.64256">
        <ele>691.5</ele>
        <time>2022-06-21T11:47:23Z</time>
      </trkpt>
      <trkpt lat="43.43373" lon="2.64256">
        <ele>691.5</ele>
        <time>2022-06-21T11:47:24Z</time>
      </trkpt>
      <trkpt lat="43.43373" lon="2.64256">
        <ele>691.5</ele>
        <time>2022-06-21T11:47:25Z</time>
      </trkpt>
      <trkpt lat="43.43373" lon="2.64256">
        <ele>691.5</ele>
        <time>2022-06-21T11:47:26Z</time>
      </trkpt>
      <trkpt lat="43.43373" lon="2.64256">
        <ele>691.5</ele>
        <time>2022-06-21T11:47:27Z</time>
      </trkpt>
      <trkpt lat="43.43373" lon="2.64256">
        <ele>691.5</ele>
        <time>2022-06-21T11:47:28Z</time>
      </trkpt>
      <trkpt lat="43.43373" lon="2.64256">
        <ele>691.5</ele>
        <time>2022-06-21T11:47:29Z</time>
      </trkpt>
      <trkpt lat="43.43373" lon="2.64256">
        <ele>691.5</ele>
        <time>2022-06-21T11:47:30Z</time>
      </trkpt>
      <trkpt lat="43.43373" lon="2.64256">
        <ele>691.5</ele>
        <time>2022-06-21T11:47:31Z</time>
      </trkpt>
      <trkpt lat="43.43373" lon="2.64256">
        <ele>691.5</ele>
        <time>2022-06-21T11:47:32Z</time>
      </trkpt>
      <trkpt lat="43.43373" lon="2.64256">
        <ele>691.5</ele>
        <time>2022-06-21T11:47:33Z</time>
      </trkpt>
      <trkpt lat="43.43373" lon="2.64256">
        <ele>691.5</ele>
        <time>2022-06-21T11:47:34Z</time>
      </trkpt>
      <trkpt lat="43.43373" lon="2.64256">
        <ele>691.5</ele>
        <time>2022-06-21T11:47:35Z</time>
      </trkpt>
      <trkpt lat="43.43373" lon="2.64256">
        <ele>691.5</ele>
        <time>2022-06-21T11:47:36Z</time>
      </trkpt>
      <trkpt lat="43.43373" lon="2.64256">
        <ele>691.5</ele>
        <time>2022-06-21T11:47:37Z</time>
      </trkpt>
      <trkpt lat="43.43373" lon="2.64256">
        <ele>691.5</ele>
        <time>2022-06-21T11:47:38Z</time>
      </trkpt>
      <trkpt lat="43.43373" lon="2.64256">
        <ele>691.5</ele>
        <time>2022-06-21T11:47:39Z</time>
      </trkpt>
      <trkpt lat="43.43373" lon="2.64256">
        <ele>691.5</ele>
        <time>2022-06-21T11:47:40Z</time>
      </trkpt>
      <trkpt lat="43.43373" lon="2.64256">
        <ele>691.5</ele>
        <time>2022-06-21T11:47:41Z</time>
      </trkpt>
      <trkpt lat="43.43373" lon="2.64256">
        <ele>691.6</ele>
        <time>2022-06-21T11:47:42Z</time>
      </trkpt>
      <trkpt lat="43.43373" lon="2.64256">
        <ele>691.6</ele>
        <time>2022-06-21T11:47:43Z</time>
      </trkpt>
      <trkpt lat="43.43373" lon="2.64256">
        <ele>691.6</ele>
        <time>2022-06-21T11:47:44Z</time>
      </trkpt>
      <trkpt lat="43.43373" lon="2.64256">
        <ele>691.6</ele>
        <time>2022-06-21T11:47:45Z</time>
      </trkpt>
      <trkpt lat="43.43374" lon="2.64256">
        <ele>691.6</ele>
        <time>2022-06-21T11:47:46Z</time>
      </trkpt>
      <trkpt lat="43.43373" lon="2.64256">
        <ele>691.6</ele>
        <time>2022-06-21T11:47:47Z</time>
      </trkpt>
      <trkpt lat="43.43373" lon="2.64256">
        <ele>691.7</ele>
        <time>2022-06-21T11:47:48Z</time>
      </trkpt>
      <trkpt lat="43.43373" lon="2.64256">
        <ele>691.7</ele>
        <time>2022-06-21T11:47:49Z</time>
      </trkpt>
      <trkpt lat="43.43373" lon="2.64256">
        <ele>691.7</ele>
        <time>2022-06-21T11:47:50Z</time>
      </trkpt>
      <trkpt lat="43.43373" lon="2.64256">
        <ele>691.7</ele>
        <time>2022-06-21T11:47:51Z</time>
      </trkpt>
      <trkpt lat="43.43373" lon="2.64256">
        <ele>691.7</ele>
        <time>2022-06-21T11:47:52Z</time>
      </trkpt>
      <trkpt lat="43.43373" lon="2.64256">
        <ele>691.7</ele>
        <time>2022-06-21T11:47:53Z</time>
      </trkpt>
      <trkpt lat="43.43373" lon="2.64256">
        <ele>691.7</ele>
        <time>2022-06-21T11:47:54Z</time>
      </trkpt>
      <trkpt lat="43.43373" lon="2.64256">
        <ele>691.7</ele>
        <time>2022-06-21T11:47:55Z</time>
      </trkpt>
      <trkpt lat="43.43373" lon="2.64256">
        <ele>691.7</ele>
        <time>2022-06-21T11:47:56Z</time>
      </trkpt>
      <trkpt lat="43.43373" lon="2.64256">
        <ele>691.7</ele>
        <time>2022-06-21T11:47:57Z</time>
      </trkpt>
      <trkpt lat="43.43374" lon="2.64256">
        <ele>691.8</ele>
        <time>2022-06-21T11:47:58Z</time>
      </trkpt>
      <trkpt lat="43.43374" lon="2.64256">
        <ele>691.9</ele>
        <time>2022-06-21T11:47:59Z</time>
      </trkpt>
      <trkpt lat="43.43375" lon="2.64256">
        <ele>692.1</ele>
        <time>2022-06-21T11:48:00Z</time>
      </trkpt>
      <trkpt lat="43.43376" lon="2.64255">
        <ele>692.3</ele>
        <time>2022-06-21T11:48:01Z</time>
      </trkpt>
      <trkpt lat="43.43377" lon="2.64255">
        <ele>692.4</ele>
        <time>2022-06-21T11:48:02Z</time>
      </trkpt>
      <trkpt lat="43.43378" lon="2.64255">
        <ele>692.6</ele>
        <time>2022-06-21T11:48:03Z</time>
      </trkpt>
      <trkpt lat="43.43379" lon="2.64254">
        <ele>692.7</ele>
        <time>2022-06-21T11:48:04Z</time>
      </trkpt>
      <trkpt lat="43.4338" lon="2.64254">
        <ele>692.9</ele>
        <time>2022-06-21T11:48:05Z</time>
      </trkpt>
      <trkpt lat="43.43381" lon="2.64254">
        <ele>693</ele>
        <time>2022-06-21T11:48:06Z</time>
      </trkpt>
      <trkpt lat="43.43381" lon="2.64253">
        <ele>693.2</ele>
        <time>2022-06-21T11:48:07Z</time>
      </trkpt>
      <trkpt lat="43.43382" lon="2.64252">
        <ele>693.4</ele>
        <time>2022-06-21T11:48:08Z</time>
      </trkpt>
      <trkpt lat="43.43383" lon="2.64252">
        <ele>693.5</ele>
        <time>2022-06-21T11:48:09Z</time>
      </trkpt>
      <trkpt lat="43.43384" lon="2.64251">
        <ele>693.7</ele>
        <time>2022-06-21T11:48:10Z</time>
      </trkpt>
      <trkpt lat="43.43385" lon="2.6425">
        <ele>693.8</ele>
        <time>2022-06-21T11:48:11Z</time>
      </trkpt>
      <trkpt lat="43.43385" lon="2.6425">
        <ele>693.9</ele>
        <time>2022-06-21T11:48:12Z</time>
      </trkpt>
      <trkpt lat="43.43386" lon="2.6425">
        <ele>693.9</ele>
        <time>2022-06-21T11:48:13Z</time>
      </trkpt>
      <trkpt lat="43.43387" lon="2.6425">
        <ele>694.1</ele>
        <time>2022-06-21T11:48:14Z</time>
      </trkpt>
      <trkpt lat="43.43387" lon="2.6425">
        <ele>694.2</ele>
        <time>2022-06-21T11:48:15Z</time>
      </trkpt>
      <trkpt lat="43.43388" lon="2.64249">
        <ele>694.3</ele>
        <time>2022-06-21T11:48:16Z</time>
      </trkpt>
      <trkpt lat="43.43389" lon="2.64249">
        <ele>694.4</ele>
        <time>2022-06-21T11:48:17Z</time>
      </trkpt>
      <trkpt lat="43.4339" lon="2.64248">
        <ele>694.6</ele>
        <time>2022-06-21T11:48:18Z</time>
      </trkpt>
      <trkpt lat="43.43391" lon="2.64248">
        <ele>694.7</ele>
        <time>2022-06-21T11:48:19Z</time>
      </trkpt>
      <trkpt lat="43.43391" lon="2.64247">
        <ele>694.8</ele>
        <time>2022-06-21T11:48:20Z</time>
      </trkpt>
      <trkpt lat="43.43392" lon="2.64247">
        <ele>694.9</ele>
        <time>2022-06-21T11:48:21Z</time>
      </trkpt>
      <trkpt lat="43.43392" lon="2.64247">
        <ele>694.9</ele>
        <time>2022-06-21T11:48:22Z</time>
      </trkpt>
      <trkpt lat="43.43392" lon="2.64247">
        <ele>694.9</ele>
        <time>2022-06-21T11:48:23Z</time>
      </trkpt>
      <trkpt lat="43.43392" lon="2.64247">
        <ele>694.9</ele>
        <time>2022-06-21T11:48:24Z</time>
      </trkpt>
      <trkpt lat="43.43392" lon="2.64247">
        <ele>694.9</ele>
        <time>2022-06-21T11:48:25Z</time>
      </trkpt>
      <trkpt lat="43.43393" lon="2.64247">
        <ele>695.1</ele>
        <time>2022-06-21T11:48:26Z</time>
      </trkpt>
      <trkpt lat="43.43393" lon="2.64246">
        <ele>695.1</ele>
        <time>2022-06-21T11:48:27Z</time>
      </trkpt>
      <trkpt lat="43.43394" lon="2.64246">
        <ele>695.3</ele>
        <time>2022-06-21T11:48:28Z</time>
      </trkpt>
      <trkpt lat="43.43396" lon="2.64244">
        <ele>695.6</ele>
        <time>2022-06-21T11:48:30Z</time>
      </trkpt>
      <trkpt lat="43.43397" lon="2.64243">
        <ele>695.7</ele>
        <time>2022-06-21T11:48:31Z</time>
      </trkpt>
      <trkpt lat="43.43397" lon="2.64243">
        <ele>695.8</ele>
        <time>2022-06-21T11:48:32Z</time>
      </trkpt>
      <trkpt lat="43.43399" lon="2.64242">
        <ele>696.1</ele>
        <time>2022-06-21T11:48:33Z</time>
      </trkpt>
      <trkpt lat="43.43399" lon="2.64241">
        <ele>696.2</ele>
        <time>2022-06-21T11:48:34Z</time>
      </trkpt>
      <trkpt lat="43.434" lon="2.64241">
        <ele>696.3</ele>
        <time>2022-06-21T11:48:35Z</time>
      </trkpt>
      <trkpt lat="43.43401" lon="2.6424">
        <ele>696.4</ele>
        <time>2022-06-21T11:48:36Z</time>
      </trkpt>
      <trkpt lat="43.43402" lon="2.64239">
        <ele>696.6</ele>
        <time>2022-06-21T11:48:37Z</time>
      </trkpt>
      <trkpt lat="43.43403" lon="2.64238">
        <ele>696.8</ele>
        <time>2022-06-21T11:48:38Z</time>
      </trkpt>
      <trkpt lat="43.43404" lon="2.64238">
        <ele>696.9</ele>
        <time>2022-06-21T11:48:39Z</time>
      </trkpt>
      <trkpt lat="43.43406" lon="2.64237">
        <ele>697.2</ele>
        <time>2022-06-21T11:48:40Z</time>
      </trkpt>
      <trkpt lat="43.43407" lon="2.64236">
        <ele>697.4</ele>
        <time>2022-06-21T11:48:41Z</time>
      </trkpt>
      <trkpt lat="43.43407" lon="2.64236">
        <ele>697.5</ele>
        <time>2022-06-21T11:48:42Z</time>
      </trkpt>
      <trkpt lat="43.43408" lon="2.64236">
        <ele>697.6</ele>
        <time>2022-06-21T11:48:43Z</time>
      </trkpt>
      <trkpt lat="43.43409" lon="2.64236">
        <ele>697.8</ele>
        <time>2022-06-21T11:48:44Z</time>
      </trkpt>
      <trkpt lat="43.4341" lon="2.64235">
        <ele>697.9</ele>
        <time>2022-06-21T11:48:45Z</time>
      </trkpt>
      <trkpt lat="43.43411" lon="2.64235">
        <ele>698</ele>
        <time>2022-06-21T11:48:46Z</time>
      </trkpt>
      <trkpt lat="43.43411" lon="2.64235">
        <ele>698.1</ele>
        <time>2022-06-21T11:48:47Z</time>
      </trkpt>
      <trkpt lat="43.43412" lon="2.64234">
        <ele>698.3</ele>
        <time>2022-06-21T11:48:48Z</time>
      </trkpt>
      <trkpt lat="43.43413" lon="2.64234">
        <ele>698.4</ele>
        <time>2022-06-21T11:48:49Z</time>
      </trkpt>
      <trkpt lat="43.43414" lon="2.64233">
        <ele>698.5</ele>
        <time>2022-06-21T11:48:50Z</time>
      </trkpt>
      <trkpt lat="43.43415" lon="2.64233">
        <ele>698.7</ele>
        <time>2022-06-21T11:48:51Z</time>
      </trkpt>
      <trkpt lat="43.43415" lon="2.64232">
        <ele>698.8</ele>
        <time>2022-06-21T11:48:52Z</time>
      </trkpt>
      <trkpt lat="43.43416" lon="2.64232">
        <ele>698.8</ele>
        <time>2022-06-21T11:48:53Z</time>
      </trkpt>
      <trkpt lat="43.43416" lon="2.64232">
        <ele>698.9</ele>
        <time>2022-06-21T11:48:54Z</time>
      </trkpt>
      <trkpt lat="43.43416" lon="2.64232">
        <ele>698.9</ele>
        <time>2022-06-21T11:48:55Z</time>
      </trkpt>
      <trkpt lat="43.43417" lon="2.64232">
        <ele>699</ele>
        <time>2022-06-21T11:48:56Z</time>
      </trkpt>
      <trkpt lat="43.43418" lon="2.64231">
        <ele>699.2</ele>
        <time>2022-06-21T11:48:57Z</time>
      </trkpt>
      <trkpt lat="43.43418" lon="2.64231">
        <ele>699.3</ele>
        <time>2022-06-21T11:48:58Z</time>
      </trkpt>
      <trkpt lat="43.43419" lon="2.64231">
        <ele>699.3</ele>
        <time>2022-06-21T11:48:59Z</time>
      </trkpt>
      <trkpt lat="43.43419" lon="2.64231">
        <ele>699.4</ele>
        <time>2022-06-21T11:49:00Z</time>
      </trkpt>
      <trkpt lat="43.4342" lon="2.64231">
        <ele>699.5</ele>
        <time>2022-06-21T11:49:01Z</time>
      </trkpt>
      <trkpt lat="43.4342" lon="2.64231">
        <ele>699.5</ele>
        <time>2022-06-21T11:49:02Z</time>
      </trkpt>
      <trkpt lat="43.4342" lon="2.6423">
        <ele>699.6</ele>
        <time>2022-06-21T11:49:03Z</time>
      </trkpt>
      <trkpt lat="43.43421" lon="2.6423">
        <ele>699.6</ele>
        <time>2022-06-21T11:49:04Z</time>
      </trkpt>
      <trkpt lat="43.43421" lon="2.6423">
        <ele>699.7</ele>
        <time>2022-06-21T11:49:05Z</time>
      </trkpt>
      <trkpt lat="43.43422" lon="2.6423">
        <ele>699.8</ele>
        <time>2022-06-21T11:49:06Z</time>
      </trkpt>
      <trkpt lat="43.43422" lon="2.6423">
        <ele>699.8</ele>
        <time>2022-06-21T11:49:07Z</time>
      </trkpt>
      <trkpt lat="43.43422" lon="2.6423">
        <ele>699.9</ele>
        <time>2022-06-21T11:49:08Z</time>
      </trkpt>
      <trkpt lat="43.43423" lon="2.6423">
        <ele>699.9</ele>
        <time>2022-06-21T11:49:09Z</time>
      </trkpt>
      <trkpt lat="43.43423" lon="2.6423">
        <ele>700</ele>
        <time>2022-06-21T11:49:10Z</time>
      </trkpt>
      <trkpt lat="43.43423" lon="2.6423">
        <ele>700</ele>
        <time>2022-06-21T11:49:11Z</time>
      </trkpt>
      <trkpt lat="43.43426" lon="2.64228">
        <ele>700.5</ele>
        <time>2022-06-21T11:49:12Z</time>
      </trkpt>
      <trkpt lat="43.43428" lon="2.64227">
        <ele>700.8</ele>
        <time>2022-06-21T11:49:13Z</time>
      </trkpt>
      <trkpt lat="43.43429" lon="2.64227">
        <ele>701.1</ele>
        <time>2022-06-21T11:49:14Z</time>
      </trkpt>
      <trkpt lat="43.4343" lon="2.64226">
        <ele>701.3</ele>
        <time>2022-06-21T11:49:15Z</time>
      </trkpt>
      <trkpt lat="43.43431" lon="2.64225">
        <ele>701.4</ele>
        <time>2022-06-21T11:49:16Z</time>
      </trkpt>
      <trkpt lat="43.43432" lon="2.64225">
        <ele>701.6</ele>
        <time>2022-06-21T11:49:17Z</time>
      </trkpt>
      <trkpt lat="43.43433" lon="2.64224">
        <ele>701.8</ele>
        <time>2022-06-21T11:49:18Z</time>
      </trkpt>
      <trkpt lat="43.43434" lon="2.64223">
        <ele>702.1</ele>
        <time>2022-06-21T11:49:19Z</time>
      </trkpt>
      <trkpt lat="43.43435" lon="2.64222">
        <ele>706.7</ele>
        <time>2022-06-21T11:49:20Z</time>
      </trkpt>
      <trkpt lat="43.43436" lon="2.64222">
        <ele>706.7</ele>
        <time>2022-06-21T11:49:21Z</time>
      </trkpt>
      <trkpt lat="43.43437" lon="2.64221">
        <ele>706.7</ele>
        <time>2022-06-21T11:49:22Z</time>
      </trkpt>
      <trkpt lat="43.43438" lon="2.6422">
        <ele>706.7</ele>
        <time>2022-06-21T11:49:23Z</time>
      </trkpt>
      <trkpt lat="43.43438" lon="2.64219">
        <ele>706.7</ele>
        <time>2022-06-21T11:49:24Z</time>
      </trkpt>
      <trkpt lat="43.43439" lon="2.64219">
        <ele>706.7</ele>
        <time>2022-06-21T11:49:25Z</time>
      </trkpt>
      <trkpt lat="43.4344" lon="2.64218">
        <ele>706.7</ele>
        <time>2022-06-21T11:49:26Z</time>
      </trkpt>
      <trkpt lat="43.4344" lon="2.64217">
        <ele>706.7</ele>
        <time>2022-06-21T11:49:27Z</time>
      </trkpt>
      <trkpt lat="43.4344" lon="2.64216">
        <ele>706.7</ele>
        <time>2022-06-21T11:49:28Z</time>
      </trkpt>
      <trkpt lat="43.43441" lon="2.64215">
        <ele>706.7</ele>
        <time>2022-06-21T11:49:29Z</time>
      </trkpt>
      <trkpt lat="43.43441" lon="2.64215">
        <ele>706.7</ele>
        <time>2022-06-21T11:49:30Z</time>
      </trkpt>
      <trkpt lat="43.43441" lon="2.64215">
        <ele>706.7</ele>
        <time>2022-06-21T11:49:31Z</time>
      </trkpt>
      <trkpt lat="43.43441" lon="2.64214">
        <ele>706.7</ele>
        <time>2022-06-21T11:49:32Z</time>
      </trkpt>
      <trkpt lat="43.43441" lon="2.64214">
        <ele>706.7</ele>
        <time>2022-06-21T11:49:33Z</time>
      </trkpt>
      <trkpt lat="43.43441" lon="2.64214">
        <ele>706.7</ele>
        <time>2022-06-21T11:49:34Z</time>
      </trkpt>
      <trkpt lat="43.43441" lon="2.64214">
        <ele>706.7</ele>
        <time>2022-06-21T11:49:35Z</time>
      </trkpt>
      <trkpt lat="43.43441" lon="2.64214">
        <ele>706.7</ele>
        <time>2022-06-21T11:49:36Z</time>
      </trkpt>
      <trkpt lat="43.43441" lon="2.64214">
        <ele>706.7</ele>
        <time>2022-06-21T11:49:37Z</time>
      </trkpt>
      <trkpt lat="43.43441" lon="2.64214">
        <ele>706.7</ele>
        <time>2022-06-21T11:49:38Z</time>
      </trkpt>
      <trkpt lat="43.43441" lon="2.64214">
        <ele>706.7</ele>
        <time>2022-06-21T11:49:39Z</time>
      </trkpt>
      <trkpt lat="43.43441" lon="2.64214">
        <ele>706.7</ele>
        <time>2022-06-21T11:49:40Z</time>
      </trkpt>
      <trkpt lat="43.43441" lon="2.64214">
        <ele>706.7</ele>
        <time>2022-06-21T11:49:41Z</time>
      </trkpt>
      <trkpt lat="43.43441" lon="2.64214">
        <ele>706.7</ele>
        <time>2022-06-21T11:49:42Z</time>
      </trkpt>
      <trkpt lat="43.43441" lon="2.64214">
        <ele>706.7</ele>
        <time>2022-06-21T11:49:43Z</time>
      </trkpt>
      <trkpt lat="43.43441" lon="2.64214">
        <ele>706.7</ele>
        <time>2022-06-21T11:49:44Z</time>
      </trkpt>
      <trkpt lat="43.43441" lon="2.64214">
        <ele>706.7</ele>
        <time>2022-06-21T11:49:45Z</time>
      </trkpt>
      <trkpt lat="43.43441" lon="2.64214">
        <ele>706.7</ele>
        <time>2022-06-21T11:49:46Z</time>
      </trkpt>
      <trkpt lat="43.43441" lon="2.64214">
        <ele>706.7</ele>
        <time>2022-06-21T11:49:47Z</time>
      </trkpt>
      <trkpt lat="43.43441" lon="2.64214">
        <ele>706.7</ele>
        <time>2022-06-21T11:49:48Z</time>
      </trkpt>
      <trkpt lat="43.43441" lon="2.64214">
        <ele>706.7</ele>
        <time>2022-06-21T11:49:49Z</time>
      </trkpt>
      <trkpt lat="43.43441" lon="2.64214">
        <ele>706.7</ele>
        <time>2022-06-21T11:49:50Z</time>
      </trkpt>
      <trkpt lat="43.43441" lon="2.64214">
        <ele>706.7</ele>
        <time>2022-06-21T11:49:51Z</time>
      </trkpt>
      <trkpt lat="43.43441" lon="2.64214">
        <ele>706.7</ele>
        <time>2022-06-21T11:49:52Z</time>
      </trkpt>
      <trkpt lat="43.4344" lon="2.64213">
        <ele>706.7</ele>
        <time>2022-06-21T11:49:53Z</time>
      </trkpt>
      <trkpt lat="43.4344" lon="2.64213">
        <ele>706.7</ele>
        <time>2022-06-21T11:49:54Z</time>
      </trkpt>
      <trkpt lat="43.4344" lon="2.64213">
        <ele>706.7</ele>
        <time>2022-06-21T11:49:55Z</time>
      </trkpt>
      <trkpt lat="43.43439" lon="2.64212">
        <ele>706.7</ele>
        <time>2022-06-21T11:49:56Z</time>
      </trkpt>
      <trkpt lat="43.43438" lon="2.64211">
        <ele>706.7</ele>
        <time>2022-06-21T11:49:57Z</time>
      </trkpt>
      <trkpt lat="43.43438" lon="2.64211">
        <ele>706.7</ele>
        <time>2022-06-21T11:49:58Z</time>
      </trkpt>
      <trkpt lat="43.43438" lon="2.64211">
        <ele>706.7</ele>
        <time>2022-06-21T11:49:59Z</time>
      </trkpt>
      <trkpt lat="43.43437" lon="2.6421">
        <ele>706.7</ele>
        <time>2022-06-21T11:50:00Z</time>
      </trkpt>
      <trkpt lat="43.43436" lon="2.64209">
        <ele>708.3</ele>
        <time>2022-06-21T11:50:01Z</time>
      </trkpt>
      <trkpt lat="43.43436" lon="2.64208">
        <ele>708.4</ele>
        <time>2022-06-21T11:50:02Z</time>
      </trkpt>
      <trkpt lat="43.43433" lon="2.64205">
        <ele>708.7</ele>
        <time>2022-06-21T11:50:03Z</time>
      </trkpt>
      <trkpt lat="43.43432" lon="2.64204">
        <ele>708.8</ele>
        <time>2022-06-21T11:50:04Z</time>
      </trkpt>
      <trkpt lat="43.4343" lon="2.64202">
        <ele>708.9</ele>
        <time>2022-06-21T11:50:05Z</time>
      </trkpt>
      <trkpt lat="43.43429" lon="2.64201">
        <ele>709.1</ele>
        <time>2022-06-21T11:50:06Z</time>
      </trkpt>
      <trkpt lat="43.43428" lon="2.64199">
        <ele>709.2</ele>
        <time>2022-06-21T11:50:07Z</time>
      </trkpt>
      <trkpt lat="43.43427" lon="2.64199">
        <ele>709.2</ele>
        <time>2022-06-21T11:50:08Z</time>
      </trkpt>
      <trkpt lat="43.43426" lon="2.64198">
        <ele>709.3</ele>
        <time>2022-06-21T11:50:09Z</time>
      </trkpt>
      <trkpt lat="43.43425" lon="2.64198">
        <ele>709.4</ele>
        <time>2022-06-21T11:50:10Z</time>
      </trkpt>
      <trkpt lat="43.43424" lon="2.64198">
        <ele>709.5</ele>
        <time>2022-06-21T11:50:11Z</time>
      </trkpt>
      <trkpt lat="43.43424" lon="2.64198">
        <ele>709.5</ele>
        <time>2022-06-21T11:50:12Z</time>
      </trkpt>
      <trkpt lat="43.43423" lon="2.64197">
        <ele>709.6</ele>
        <time>2022-06-21T11:50:13Z</time>
      </trkpt>
      <trkpt lat="43.43422" lon="2.64197">
        <ele>709.6</ele>
        <time>2022-06-21T11:50:14Z</time>
      </trkpt>
      <trkpt lat="43.43419" lon="2.64197">
        <ele>709.9</ele>
        <time>2022-06-21T11:50:15Z</time>
      </trkpt>
      <trkpt lat="43.43418" lon="2.64197">
        <ele>710</ele>
        <time>2022-06-21T11:50:16Z</time>
      </trkpt>
      <trkpt lat="43.43414" lon="2.64196">
        <ele>710.2</ele>
        <time>2022-06-21T11:50:17Z</time>
      </trkpt>
      <trkpt lat="43.43413" lon="2.64196">
        <ele>710.3</ele>
        <time>2022-06-21T11:50:18Z</time>
      </trkpt>
      <trkpt lat="43.43411" lon="2.64196">
        <ele>710.5</ele>
        <time>2022-06-21T11:50:19Z</time>
      </trkpt>
      <trkpt lat="43.43409" lon="2.64195">
        <ele>710.6</ele>
        <time>2022-06-21T11:50:20Z</time>
      </trkpt>
      <trkpt lat="43.43408" lon="2.64195">
        <ele>710.7</ele>
        <time>2022-06-21T11:50:21Z</time>
      </trkpt>
      <trkpt lat="43.43407" lon="2.64195">
        <ele>710.8</ele>
        <time>2022-06-21T11:50:22Z</time>
      </trkpt>
      <trkpt lat="43.43407" lon="2.64195">
        <ele>710.8</ele>
        <time>2022-06-21T11:50:23Z</time>
      </trkpt>
      <trkpt lat="43.43407" lon="2.64195">
        <ele>710.8</ele>
        <time>2022-06-21T11:50:24Z</time>
      </trkpt>
      <trkpt lat="43.43407" lon="2.64195">
        <ele>710.8</ele>
        <time>2022-06-21T11:50:25Z</time>
      </trkpt>
      <trkpt lat="43.43406" lon="2.64195">
        <ele>710.9</ele>
        <time>2022-06-21T11:50:26Z</time>
      </trkpt>
      <trkpt lat="43.43405" lon="2.64194">
        <ele>710.9</ele>
        <time>2022-06-21T11:50:27Z</time>
      </trkpt>
      <trkpt lat="43.43404" lon="2.64193">
        <ele>711.1</ele>
        <time>2022-06-21T11:50:28Z</time>
      </trkpt>
      <trkpt lat="43.43402" lon="2.64192">
        <ele>711.2</ele>
        <time>2022-06-21T11:50:29Z</time>
      </trkpt>
      <trkpt lat="43.43401" lon="2.64191">
        <ele>711.3</ele>
        <time>2022-06-21T11:50:30Z</time>
      </trkpt>
      <trkpt lat="43.434" lon="2.6419">
        <ele>711.4</ele>
        <time>2022-06-21T11:50:31Z</time>
      </trkpt>
      <trkpt lat="43.43399" lon="2.64189">
        <ele>711.5</ele>
        <time>2022-06-21T11:50:32Z</time>
      </trkpt>
      <trkpt lat="43.43398" lon="2.64189">
        <ele>711.5</ele>
        <time>2022-06-21T11:50:33Z</time>
      </trkpt>
      <trkpt lat="43.43398" lon="2.64189">
        <ele>711.5</ele>
        <time>2022-06-21T11:50:34Z</time>
      </trkpt>
      <trkpt lat="43.43398" lon="2.64189">
        <ele>711.6</ele>
        <time>2022-06-21T11:50:35Z</time>
      </trkpt>
      <trkpt lat="43.43398" lon="2.64188">
        <ele>711.6</ele>
        <time>2022-06-21T11:50:36Z</time>
      </trkpt>
      <trkpt lat="43.43397" lon="2.64188">
        <ele>711.6</ele>
        <time>2022-06-21T11:50:37Z</time>
      </trkpt>
      <trkpt lat="43.43397" lon="2.64188">
        <ele>711.6</ele>
        <time>2022-06-21T11:50:38Z</time>
      </trkpt>
      <trkpt lat="43.43397" lon="2.64188">
        <ele>711.7</ele>
        <time>2022-06-21T11:50:39Z</time>
      </trkpt>
      <trkpt lat="43.43396" lon="2.64187">
        <ele>711.7</ele>
        <time>2022-06-21T11:50:40Z</time>
      </trkpt>
      <trkpt lat="43.43395" lon="2.64186">
        <ele>711.8</ele>
        <time>2022-06-21T11:50:41Z</time>
      </trkpt>
      <trkpt lat="43.43395" lon="2.64185">
        <ele>711.9</ele>
        <time>2022-06-21T11:50:42Z</time>
      </trkpt>
      <trkpt lat="43.43393" lon="2.64183">
        <ele>712</ele>
        <time>2022-06-21T11:50:43Z</time>
      </trkpt>
      <trkpt lat="43.43392" lon="2.64183">
        <ele>712.1</ele>
        <time>2022-06-21T11:50:44Z</time>
      </trkpt>
      <trkpt lat="43.43391" lon="2.64182">
        <ele>712.2</ele>
        <time>2022-06-21T11:50:45Z</time>
      </trkpt>
      <trkpt lat="43.4339" lon="2.64182">
        <ele>712.3</ele>
        <time>2022-06-21T11:50:46Z</time>
      </trkpt>
      <trkpt lat="43.43389" lon="2.64181">
        <ele>712.3</ele>
        <time>2022-06-21T11:50:47Z</time>
      </trkpt>
      <trkpt lat="43.43388" lon="2.64181">
        <ele>712.4</ele>
        <time>2022-06-21T11:50:48Z</time>
      </trkpt>
      <trkpt lat="43.43388" lon="2.6418">
        <ele>712.5</ele>
        <time>2022-06-21T11:50:49Z</time>
      </trkpt>
      <trkpt lat="43.43387" lon="2.6418">
        <ele>712.5</ele>
        <time>2022-06-21T11:50:50Z</time>
      </trkpt>
      <trkpt lat="43.43385" lon="2.64179">
        <ele>712.6</ele>
        <time>2022-06-21T11:50:51Z</time>
      </trkpt>
      <trkpt lat="43.43385" lon="2.64179">
        <ele>712.7</ele>
        <time>2022-06-21T11:50:52Z</time>
      </trkpt>
      <trkpt lat="43.43384" lon="2.64179">
        <ele>712.7</ele>
        <time>2022-06-21T11:50:53Z</time>
      </trkpt>
      <trkpt lat="43.43384" lon="2.64178">
        <ele>712.8</ele>
        <time>2022-06-21T11:50:54Z</time>
      </trkpt>
      <trkpt lat="43.43383" lon="2.64177">
        <ele>712.9</ele>
        <time>2022-06-21T11:50:55Z</time>
      </trkpt>
      <trkpt lat="43.43381" lon="2.64175">
        <ele>713.1</ele>
        <time>2022-06-21T11:50:56Z</time>
      </trkpt>
      <trkpt lat="43.43381" lon="2.64175">
        <ele>713.1</ele>
        <time>2022-06-21T11:50:57Z</time>
      </trkpt>
      <trkpt lat="43.4338" lon="2.64174">
        <ele>713.2</ele>
        <time>2022-06-21T11:50:58Z</time>
      </trkpt>
      <trkpt lat="43.43377" lon="2.64172">
        <ele>713.4</ele>
        <time>2022-06-21T11:50:59Z</time>
      </trkpt>
      <trkpt lat="43.43376" lon="2.64171">
        <ele>713.6</ele>
        <time>2022-06-21T11:51:00Z</time>
      </trkpt>
      <trkpt lat="43.43375" lon="2.6417">
        <ele>713.7</ele>
        <time>2022-06-21T11:51:01Z</time>
      </trkpt>
      <trkpt lat="43.43372" lon="2.64168">
        <ele>714</ele>
        <time>2022-06-21T11:51:02Z</time>
      </trkpt>
      <trkpt lat="43.4337" lon="2.64166">
        <ele>714.2</ele>
        <time>2022-06-21T11:51:03Z</time>
      </trkpt>
      <trkpt lat="43.4337" lon="2.64165">
        <ele>714.3</ele>
        <time>2022-06-21T11:51:04Z</time>
      </trkpt>
      <trkpt lat="43.4337" lon="2.64165">
        <ele>714.3</ele>
        <time>2022-06-21T11:51:05Z</time>
      </trkpt>
      <trkpt lat="43.43369" lon="2.64165">
        <ele>714.3</ele>
        <time>2022-06-21T11:51:06Z</time>
      </trkpt>
      <trkpt lat="43.43369" lon="2.64165">
        <ele>714.3</ele>
        <time>2022-06-21T11:51:07Z</time>
      </trkpt>
      <trkpt lat="43.43369" lon="2.64165">
        <ele>714.3</ele>
        <time>2022-06-21T11:51:08Z</time>
      </trkpt>
      <trkpt lat="43.43369" lon="2.64165">
        <ele>714.4</ele>
        <time>2022-06-21T11:51:09Z</time>
      </trkpt>
      <trkpt lat="43.43368" lon="2.64164">
        <ele>714.5</ele>
        <time>2022-06-21T11:51:10Z</time>
      </trkpt>
      <trkpt lat="43.43367" lon="2.64164">
        <ele>714.6</ele>
        <time>2022-06-21T11:51:11Z</time>
      </trkpt>
      <trkpt lat="43.43365" lon="2.64163">
        <ele>714.9</ele>
        <time>2022-06-21T11:51:12Z</time>
      </trkpt>
      <trkpt lat="43.43364" lon="2.64162">
        <ele>715</ele>
        <time>2022-06-21T11:51:13Z</time>
      </trkpt>
      <trkpt lat="43.43363" lon="2.64162">
        <ele>715.1</ele>
        <time>2022-06-21T11:51:14Z</time>
      </trkpt>
      <trkpt lat="43.43361" lon="2.64161">
        <ele>715.4</ele>
        <time>2022-06-21T11:51:15Z</time>
      </trkpt>
      <trkpt lat="43.4336" lon="2.6416">
        <ele>715.5</ele>
        <time>2022-06-21T11:51:16Z</time>
      </trkpt>
      <trkpt lat="43.43359" lon="2.6416">
        <ele>715.6</ele>
        <time>2022-06-21T11:51:17Z</time>
      </trkpt>
      <trkpt lat="43.43358" lon="2.64159">
        <ele>715.7</ele>
        <time>2022-06-21T11:51:18Z</time>
      </trkpt>
      <trkpt lat="43.43357" lon="2.64158">
        <ele>715.8</ele>
        <time>2022-06-21T11:51:19Z</time>
      </trkpt>
      <trkpt lat="43.43355" lon="2.64157">
        <ele>716</ele>
        <time>2022-06-21T11:51:20Z</time>
      </trkpt>
      <trkpt lat="43.43355" lon="2.64156">
        <ele>716.1</ele>
        <time>2022-06-21T11:51:21Z</time>
      </trkpt>
      <trkpt lat="43.43354" lon="2.64155">
        <ele>716.2</ele>
        <time>2022-06-21T11:51:22Z</time>
      </trkpt>
      <trkpt lat="43.43353" lon="2.64155">
        <ele>716.3</ele>
        <time>2022-06-21T11:51:23Z</time>
      </trkpt>
      <trkpt lat="43.43353" lon="2.64154">
        <ele>716.3</ele>
        <time>2022-06-21T11:51:24Z</time>
      </trkpt>
      <trkpt lat="43.43353" lon="2.64154">
        <ele>716.3</ele>
        <time>2022-06-21T11:51:25Z</time>
      </trkpt>
      <trkpt lat="43.43353" lon="2.64153">
        <ele>716.4</ele>
        <time>2022-06-21T11:51:26Z</time>
      </trkpt>
      <trkpt lat="43.43352" lon="2.64153">
        <ele>716.5</ele>
        <time>2022-06-21T11:51:27Z</time>
      </trkpt>
      <trkpt lat="43.43351" lon="2.64152">
        <ele>716.5</ele>
        <time>2022-06-21T11:51:28Z</time>
      </trkpt>
      <trkpt lat="43.4335" lon="2.64151">
        <ele>716.6</ele>
        <time>2022-06-21T11:51:29Z</time>
      </trkpt>
      <trkpt lat="43.43349" lon="2.64151">
        <ele>716.7</ele>
        <time>2022-06-21T11:51:30Z</time>
      </trkpt>
      <trkpt lat="43.43348" lon="2.6415">
        <ele>716.8</ele>
        <time>2022-06-21T11:51:31Z</time>
      </trkpt>
      <trkpt lat="43.43347" lon="2.64149">
        <ele>716.9</ele>
        <time>2022-06-21T11:51:32Z</time>
      </trkpt>
      <trkpt lat="43.43346" lon="2.64148">
        <ele>716.9</ele>
        <time>2022-06-21T11:51:33Z</time>
      </trkpt>
      <trkpt lat="43.43346" lon="2.64148">
        <ele>717</ele>
        <time>2022-06-21T11:51:34Z</time>
      </trkpt>
      <trkpt lat="43.43345" lon="2.64147">
        <ele>717.1</ele>
        <time>2022-06-21T11:51:35Z</time>
      </trkpt>
      <trkpt lat="43.43344" lon="2.64146">
        <ele>717.1</ele>
        <time>2022-06-21T11:51:36Z</time>
      </trkpt>
      <trkpt lat="43.43344" lon="2.64145">
        <ele>717.2</ele>
        <time>2022-06-21T11:51:37Z</time>
      </trkpt>
      <trkpt lat="43.43343" lon="2.64143">
        <ele>717.3</ele>
        <time>2022-06-21T11:51:38Z</time>
      </trkpt>
      <trkpt lat="43.43343" lon="2.64143">
        <ele>717.3</ele>
        <time>2022-06-21T11:51:39Z</time>
      </trkpt>
      <trkpt lat="43.43343" lon="2.64142">
        <ele>717.3</ele>
        <time>2022-06-21T11:51:40Z</time>
      </trkpt>
      <trkpt lat="43.43342" lon="2.64141">
        <ele>717.4</ele>
        <time>2022-06-21T11:51:41Z</time>
      </trkpt>
      <trkpt lat="43.43342" lon="2.64141">
        <ele>717.4</ele>
        <time>2022-06-21T11:51:42Z</time>
      </trkpt>
      <trkpt lat="43.43342" lon="2.64141">
        <ele>717.4</ele>
        <time>2022-06-21T11:51:43Z</time>
      </trkpt>
      <trkpt lat="43.43342" lon="2.64141">
        <ele>717.4</ele>
        <time>2022-06-21T11:51:44Z</time>
      </trkpt>
      <trkpt lat="43.43342" lon="2.64141">
        <ele>717.4</ele>
        <time>2022-06-21T11:51:45Z</time>
      </trkpt>
      <trkpt lat="43.43341" lon="2.64141">
        <ele>717.4</ele>
        <time>2022-06-21T11:51:46Z</time>
      </trkpt>
      <trkpt lat="43.43341" lon="2.6414">
        <ele>717.5</ele>
        <time>2022-06-21T11:51:47Z</time>
      </trkpt>
      <trkpt lat="43.43341" lon="2.6414">
        <ele>717.5</ele>
        <time>2022-06-21T11:51:48Z</time>
      </trkpt>
      <trkpt lat="43.43341" lon="2.6414">
        <ele>717.5</ele>
        <time>2022-06-21T11:51:49Z</time>
      </trkpt>
      <trkpt lat="43.43341" lon="2.6414">
        <ele>717.5</ele>
        <time>2022-06-21T11:51:50Z</time>
      </trkpt>
      <trkpt lat="43.4334" lon="2.6414">
        <ele>717.5</ele>
        <time>2022-06-21T11:51:51Z</time>
      </trkpt>
      <trkpt lat="43.4334" lon="2.6414">
        <ele>717.5</ele>
        <time>2022-06-21T11:51:52Z</time>
      </trkpt>
      <trkpt lat="43.4334" lon="2.6414">
        <ele>717.5</ele>
        <time>2022-06-21T11:51:53Z</time>
      </trkpt>
      <trkpt lat="43.4334" lon="2.64139">
        <ele>717.6</ele>
        <time>2022-06-21T11:51:54Z</time>
      </trkpt>
      <trkpt lat="43.4334" lon="2.64139">
        <ele>717.6</ele>
        <time>2022-06-21T11:51:55Z</time>
      </trkpt>
      <trkpt lat="43.4334" lon="2.64139">
        <ele>717.6</ele>
        <time>2022-06-21T11:51:56Z</time>
      </trkpt>
      <trkpt lat="43.43339" lon="2.64139">
        <ele>717.6</ele>
        <time>2022-06-21T11:51:57Z</time>
      </trkpt>
      <trkpt lat="43.43337" lon="2.64136">
        <ele>717.8</ele>
        <time>2022-06-21T11:51:58Z</time>
      </trkpt>
      <trkpt lat="43.43336" lon="2.64135">
        <ele>717.9</ele>
        <time>2022-06-21T11:51:59Z</time>
      </trkpt>
      <trkpt lat="43.43334" lon="2.64132">
        <ele>718.1</ele>
        <time>2022-06-21T11:52:00Z</time>
      </trkpt>
      <trkpt lat="43.43333" lon="2.64131">
        <ele>718.2</ele>
        <time>2022-06-21T11:52:01Z</time>
      </trkpt>
      <trkpt lat="43.43331" lon="2.64129">
        <ele>718.5</ele>
        <time>2022-06-21T11:52:02Z</time>
      </trkpt>
      <trkpt lat="43.43331" lon="2.64128">
        <ele>718.5</ele>
        <time>2022-06-21T11:52:03Z</time>
      </trkpt>
      <trkpt lat="43.4333" lon="2.64127">
        <ele>718.6</ele>
        <time>2022-06-21T11:52:04Z</time>
      </trkpt>
      <trkpt lat="43.43329" lon="2.64126">
        <ele>718.8</ele>
        <time>2022-06-21T11:52:05Z</time>
      </trkpt>
      <trkpt lat="43.43329" lon="2.64125">
        <ele>718.8</ele>
        <time>2022-06-21T11:52:06Z</time>
      </trkpt>
      <trkpt lat="43.43328" lon="2.64124">
        <ele>718.9</ele>
        <time>2022-06-21T11:52:07Z</time>
      </trkpt>
      <trkpt lat="43.43327" lon="2.64123">
        <ele>719</ele>
        <time>2022-06-21T11:52:08Z</time>
      </trkpt>
      <trkpt lat="43.43326" lon="2.64122">
        <ele>719.2</ele>
        <time>2022-06-21T11:52:09Z</time>
      </trkpt>
      <trkpt lat="43.43325" lon="2.6412">
        <ele>719.3</ele>
        <time>2022-06-21T11:52:10Z</time>
      </trkpt>
      <trkpt lat="43.43324" lon="2.64119">
        <ele>719.4</ele>
        <time>2022-06-21T11:52:11Z</time>
      </trkpt>
      <trkpt lat="43.43324" lon="2.64119">
        <ele>719.5</ele>
        <time>2022-06-21T11:52:12Z</time>
      </trkpt>
      <trkpt lat="43.43324" lon="2.64118">
        <ele>719.5</ele>
        <time>2022-06-21T11:52:13Z</time>
      </trkpt>
      <trkpt lat="43.43323" lon="2.64116">
        <ele>719.7</ele>
        <time>2022-06-21T11:52:14Z</time>
      </trkpt>
      <trkpt lat="43.43323" lon="2.64115">
        <ele>719.7</ele>
        <time>2022-06-21T11:52:15Z</time>
      </trkpt>
      <trkpt lat="43.43322" lon="2.64115">
        <ele>719.8</ele>
        <time>2022-06-21T11:52:16Z</time>
      </trkpt>
      <trkpt lat="43.43322" lon="2.64114">
        <ele>719.8</ele>
        <time>2022-06-21T11:52:17Z</time>
      </trkpt>
      <trkpt lat="43.43322" lon="2.64113">
        <ele>719.9</ele>
        <time>2022-06-21T11:52:18Z</time>
      </trkpt>
      <trkpt lat="43.43321" lon="2.64112">
        <ele>720</ele>
        <time>2022-06-21T11:52:19Z</time>
      </trkpt>
      <trkpt lat="43.4332" lon="2.6411">
        <ele>720.1</ele>
        <time>2022-06-21T11:52:20Z</time>
      </trkpt>
      <trkpt lat="43.43319" lon="2.64109">
        <ele>720.2</ele>
        <time>2022-06-21T11:52:21Z</time>
      </trkpt>
      <trkpt lat="43.43319" lon="2.64108">
        <ele>720.3</ele>
        <time>2022-06-21T11:52:22Z</time>
      </trkpt>
      <trkpt lat="43.43318" lon="2.64108">
        <ele>720.3</ele>
        <time>2022-06-21T11:52:23Z</time>
      </trkpt>
      <trkpt lat="43.43318" lon="2.64108">
        <ele>720.3</ele>
        <time>2022-06-21T11:52:24Z</time>
      </trkpt>
      <trkpt lat="43.43318" lon="2.64108">
        <ele>720.3</ele>
        <time>2022-06-21T11:52:25Z</time>
      </trkpt>
      <trkpt lat="43.43318" lon="2.64108">
        <ele>720.3</ele>
        <time>2022-06-21T11:52:26Z</time>
      </trkpt>
      <trkpt lat="43.43318" lon="2.64108">
        <ele>720.3</ele>
        <time>2022-06-21T11:52:27Z</time>
      </trkpt>
      <trkpt lat="43.43318" lon="2.64108">
        <ele>720.3</ele>
        <time>2022-06-21T11:52:28Z</time>
      </trkpt>
      <trkpt lat="43.43318" lon="2.64108">
        <ele>720.3</ele>
        <time>2022-06-21T11:52:29Z</time>
      </trkpt>
      <trkpt lat="43.43318" lon="2.64108">
        <ele>720.3</ele>
        <time>2022-06-21T11:52:30Z</time>
      </trkpt>
      <trkpt lat="43.43318" lon="2.64107">
        <ele>720.4</ele>
        <time>2022-06-21T11:52:31Z</time>
      </trkpt>
      <trkpt lat="43.43317" lon="2.64106">
        <ele>720.4</ele>
        <time>2022-06-21T11:52:32Z</time>
      </trkpt>
      <trkpt lat="43.43317" lon="2.64105">
        <ele>720.5</ele>
        <time>2022-06-21T11:52:33Z</time>
      </trkpt>
      <trkpt lat="43.43317" lon="2.64104">
        <ele>720.6</ele>
        <time>2022-06-21T11:52:34Z</time>
      </trkpt>
      <trkpt lat="43.43316" lon="2.64103">
        <ele>720.6</ele>
        <time>2022-06-21T11:52:35Z</time>
      </trkpt>
      <trkpt lat="43.43316" lon="2.64102">
        <ele>720.7</ele>
        <time>2022-06-21T11:52:36Z</time>
      </trkpt>
      <trkpt lat="43.43315" lon="2.64101">
        <ele>720.8</ele>
        <time>2022-06-21T11:52:37Z</time>
      </trkpt>
      <trkpt lat="43.43315" lon="2.641">
        <ele>720.8</ele>
        <time>2022-06-21T11:52:38Z</time>
      </trkpt>
      <trkpt lat="43.43315" lon="2.64099">
        <ele>720.9</ele>
        <time>2022-06-21T11:52:39Z</time>
      </trkpt>
      <trkpt lat="43.43314" lon="2.64098">
        <ele>721</ele>
        <time>2022-06-21T11:52:40Z</time>
      </trkpt>
      <trkpt lat="43.43314" lon="2.64096">
        <ele>721.1</ele>
        <time>2022-06-21T11:52:41Z</time>
      </trkpt>
      <trkpt lat="43.43313" lon="2.64094">
        <ele>721.2</ele>
        <time>2022-06-21T11:52:42Z</time>
      </trkpt>
      <trkpt lat="43.43312" lon="2.64092">
        <ele>721.4</ele>
        <time>2022-06-21T11:52:43Z</time>
      </trkpt>
      <trkpt lat="43.43312" lon="2.64088">
        <ele>721.6</ele>
        <time>2022-06-21T11:52:44Z</time>
      </trkpt>
      <trkpt lat="43.43312" lon="2.64087">
        <ele>721.7</ele>
        <time>2022-06-21T11:52:45Z</time>
      </trkpt>
      <trkpt lat="43.43311" lon="2.64085">
        <ele>721.8</ele>
        <time>2022-06-21T11:52:46Z</time>
      </trkpt>
      <trkpt lat="43.43311" lon="2.64085">
        <ele>721.8</ele>
        <time>2022-06-21T11:52:47Z</time>
      </trkpt>
      <trkpt lat="43.43311" lon="2.64085">
        <ele>721.8</ele>
        <time>2022-06-21T11:52:48Z</time>
      </trkpt>
      <trkpt lat="43.43311" lon="2.64084">
        <ele>721.8</ele>
        <time>2022-06-21T11:52:49Z</time>
      </trkpt>
      <trkpt lat="43.43311" lon="2.64082">
        <ele>722</ele>
        <time>2022-06-21T11:52:50Z</time>
      </trkpt>
      <trkpt lat="43.43311" lon="2.64077">
        <ele>722.3</ele>
        <time>2022-06-21T11:52:51Z</time>
      </trkpt>
      <trkpt lat="43.4331" lon="2.64075">
        <ele>722.4</ele>
        <time>2022-06-21T11:52:52Z</time>
      </trkpt>
      <trkpt lat="43.4331" lon="2.64071">
        <ele>722.6</ele>
        <time>2022-06-21T11:52:53Z</time>
      </trkpt>
      <trkpt lat="43.4331" lon="2.64068">
        <ele>722.8</ele>
        <time>2022-06-21T11:52:54Z</time>
      </trkpt>
      <trkpt lat="43.43309" lon="2.64066">
        <ele>722.9</ele>
        <time>2022-06-21T11:52:55Z</time>
      </trkpt>
      <trkpt lat="43.43309" lon="2.64065">
        <ele>723</ele>
        <time>2022-06-21T11:52:56Z</time>
      </trkpt>
      <trkpt lat="43.43309" lon="2.64063">
        <ele>723.1</ele>
        <time>2022-06-21T11:52:57Z</time>
      </trkpt>
      <trkpt lat="43.43308" lon="2.64061">
        <ele>723.2</ele>
        <time>2022-06-21T11:52:58Z</time>
      </trkpt>
      <trkpt lat="43.43308" lon="2.6406">
        <ele>723.3</ele>
        <time>2022-06-21T11:52:59Z</time>
      </trkpt>
      <trkpt lat="43.43308" lon="2.64058">
        <ele>723.4</ele>
        <time>2022-06-21T11:53:00Z</time>
      </trkpt>
      <trkpt lat="43.43307" lon="2.64057">
        <ele>723.5</ele>
        <time>2022-06-21T11:53:01Z</time>
      </trkpt>
      <trkpt lat="43.43307" lon="2.64056">
        <ele>723.6</ele>
        <time>2022-06-21T11:53:02Z</time>
      </trkpt>
      <trkpt lat="43.43306" lon="2.64055">
        <ele>723.7</ele>
        <time>2022-06-21T11:53:03Z</time>
      </trkpt>
      <trkpt lat="43.43306" lon="2.64054">
        <ele>723.7</ele>
        <time>2022-06-21T11:53:04Z</time>
      </trkpt>
      <trkpt lat="43.43306" lon="2.64054">
        <ele>723.7</ele>
        <time>2022-06-21T11:53:05Z</time>
      </trkpt>
      <trkpt lat="43.43306" lon="2.64054">
        <ele>723.7</ele>
        <time>2022-06-21T11:53:06Z</time>
      </trkpt>
      <trkpt lat="43.43306" lon="2.64053">
        <ele>723.8</ele>
        <time>2022-06-21T11:53:07Z</time>
      </trkpt>
      <trkpt lat="43.43305" lon="2.64052">
        <ele>723.9</ele>
        <time>2022-06-21T11:53:08Z</time>
      </trkpt>
      <trkpt lat="43.43305" lon="2.6405">
        <ele>724</ele>
        <time>2022-06-21T11:53:09Z</time>
      </trkpt>
      <trkpt lat="43.43303" lon="2.64047">
        <ele>724.2</ele>
        <time>2022-06-21T11:53:10Z</time>
      </trkpt>
      <trkpt lat="43.43303" lon="2.64046">
        <ele>724.3</ele>
        <time>2022-06-21T11:53:11Z</time>
      </trkpt>
      <trkpt lat="43.43303" lon="2.64045">
        <ele>724.4</ele>
        <time>2022-06-21T11:53:12Z</time>
      </trkpt>
      <trkpt lat="43.43303" lon="2.64045">
        <ele>724.4</ele>
        <time>2022-06-21T11:53:13Z</time>
      </trkpt>
      <trkpt lat="43.43303" lon="2.64045">
        <ele>724.4</ele>
        <time>2022-06-21T11:53:14Z</time>
      </trkpt>
      <trkpt lat="43.43303" lon="2.64045">
        <ele>724.4</ele>
        <time>2022-06-21T11:53:15Z</time>
      </trkpt>
      <trkpt lat="43.43303" lon="2.64045">
        <ele>724.4</ele>
        <time>2022-06-21T11:53:16Z</time>
      </trkpt>
      <trkpt lat="43.43303" lon="2.64045">
        <ele>724.4</ele>
        <time>2022-06-21T11:53:17Z</time>
      </trkpt>
      <trkpt lat="43.43303" lon="2.64044">
        <ele>724.4</ele>
        <time>2022-06-21T11:53:18Z</time>
      </trkpt>
      <trkpt lat="43.43302" lon="2.64044">
        <ele>724.5</ele>
        <time>2022-06-21T11:53:19Z</time>
      </trkpt>
      <trkpt lat="43.43302" lon="2.64042">
        <ele>724.6</ele>
        <time>2022-06-21T11:53:20Z</time>
      </trkpt>
      <trkpt lat="43.43301" lon="2.6404">
        <ele>724.7</ele>
        <time>2022-06-21T11:53:21Z</time>
      </trkpt>
      <trkpt lat="43.43301" lon="2.64039">
        <ele>724.8</ele>
        <time>2022-06-21T11:53:22Z</time>
      </trkpt>
      <trkpt lat="43.433" lon="2.64037">
        <ele>724.9</ele>
        <time>2022-06-21T11:53:23Z</time>
      </trkpt>
      <trkpt lat="43.433" lon="2.64037">
        <ele>725</ele>
        <time>2022-06-21T11:53:24Z</time>
      </trkpt>
      <trkpt lat="43.433" lon="2.64036">
        <ele>725</ele>
        <time>2022-06-21T11:53:25Z</time>
      </trkpt>
      <trkpt lat="43.43299" lon="2.64035">
        <ele>725.1</ele>
        <time>2022-06-21T11:53:26Z</time>
      </trkpt>
      <trkpt lat="43.43299" lon="2.64035">
        <ele>725.1</ele>
        <time>2022-06-21T11:53:27Z</time>
      </trkpt>
      <trkpt lat="43.43299" lon="2.64034">
        <ele>725.2</ele>
        <time>2022-06-21T11:53:28Z</time>
      </trkpt>
      <trkpt lat="43.43298" lon="2.64033">
        <ele>725.2</ele>
        <time>2022-06-21T11:53:29Z</time>
      </trkpt>
      <trkpt lat="43.43297" lon="2.64031">
        <ele>725.4</ele>
        <time>2022-06-21T11:53:30Z</time>
      </trkpt>
      <trkpt lat="43.43296" lon="2.64029">
        <ele>725.5</ele>
        <time>2022-06-21T11:53:31Z</time>
      </trkpt>
      <trkpt lat="43.43295" lon="2.64027">
        <ele>725.7</ele>
        <time>2022-06-21T11:53:32Z</time>
      </trkpt>
      <trkpt lat="43.43295" lon="2.64026">
        <ele>725.8</ele>
        <time>2022-06-21T11:53:33Z</time>
      </trkpt>
      <trkpt lat="43.43294" lon="2.64025">
        <ele>725.9</ele>
        <time>2022-06-21T11:53:34Z</time>
      </trkpt>
      <trkpt lat="43.43294" lon="2.64022">
        <ele>726.1</ele>
        <time>2022-06-21T11:53:35Z</time>
      </trkpt>
      <trkpt lat="43.43293" lon="2.64021">
        <ele>726.1</ele>
        <time>2022-06-21T11:53:36Z</time>
      </trkpt>
      <trkpt lat="43.43293" lon="2.6402">
        <ele>726.2</ele>
        <time>2022-06-21T11:53:37Z</time>
      </trkpt>
      <trkpt lat="43.43293" lon="2.64018">
        <ele>726.3</ele>
        <time>2022-06-21T11:53:38Z</time>
      </trkpt>
      <trkpt lat="43.43292" lon="2.64016">
        <ele>726.5</ele>
        <time>2022-06-21T11:53:39Z</time>
      </trkpt>
      <trkpt lat="43.43292" lon="2.64014">
        <ele>726.6</ele>
        <time>2022-06-21T11:53:40Z</time>
      </trkpt>
      <trkpt lat="43.43291" lon="2.64012">
        <ele>726.7</ele>
        <time>2022-06-21T11:53:41Z</time>
      </trkpt>
      <trkpt lat="43.43291" lon="2.64011">
        <ele>726.8</ele>
        <time>2022-06-21T11:53:42Z</time>
      </trkpt>
      <trkpt lat="43.4329" lon="2.6401">
        <ele>726.9</ele>
        <time>2022-06-21T11:53:43Z</time>
      </trkpt>
      <trkpt lat="43.4329" lon="2.64009">
        <ele>726.9</ele>
        <time>2022-06-21T11:53:44Z</time>
      </trkpt>
      <trkpt lat="43.43289" lon="2.64008">
        <ele>727</ele>
        <time>2022-06-21T11:53:45Z</time>
      </trkpt>
      <trkpt lat="43.43289" lon="2.64007">
        <ele>727</ele>
        <time>2022-06-21T11:53:46Z</time>
      </trkpt>
      <trkpt lat="43.43289" lon="2.64006">
        <ele>727.1</ele>
        <time>2022-06-21T11:53:47Z</time>
      </trkpt>
      <trkpt lat="43.43288" lon="2.64006">
        <ele>727.1</ele>
        <time>2022-06-21T11:53:48Z</time>
      </trkpt>
      <trkpt lat="43.43288" lon="2.64005">
        <ele>727.2</ele>
        <time>2022-06-21T11:53:49Z</time>
      </trkpt>
      <trkpt lat="43.43287" lon="2.64003">
        <ele>727.3</ele>
        <time>2022-06-21T11:53:50Z</time>
      </trkpt>
      <trkpt lat="43.43286" lon="2.64002">
        <ele>727.4</ele>
        <time>2022-06-21T11:53:51Z</time>
      </trkpt>
      <trkpt lat="43.43285" lon="2.64001">
        <ele>727.5</ele>
        <time>2022-06-21T11:53:52Z</time>
      </trkpt>
      <trkpt lat="43.43284" lon="2.63999">
        <ele>727.6</ele>
        <time>2022-06-21T11:53:53Z</time>
      </trkpt>
      <trkpt lat="43.43284" lon="2.63998">
        <ele>727.7</ele>
        <time>2022-06-21T11:53:54Z</time>
      </trkpt>
      <trkpt lat="43.43283" lon="2.63997">
        <ele>727.8</ele>
        <time>2022-06-21T11:53:55Z</time>
      </trkpt>
      <trkpt lat="43.43282" lon="2.63996">
        <ele>727.9</ele>
        <time>2022-06-21T11:53:56Z</time>
      </trkpt>
      <trkpt lat="43.43282" lon="2.63994">
        <ele>728</ele>
        <time>2022-06-21T11:53:57Z</time>
      </trkpt>
      <trkpt lat="43.43281" lon="2.63993">
        <ele>728</ele>
        <time>2022-06-21T11:53:58Z</time>
      </trkpt>
      <trkpt lat="43.43281" lon="2.63991">
        <ele>728.1</ele>
        <time>2022-06-21T11:53:59Z</time>
      </trkpt>
      <trkpt lat="43.4328" lon="2.6399">
        <ele>728.2</ele>
        <time>2022-06-21T11:54:00Z</time>
      </trkpt>
      <trkpt lat="43.4328" lon="2.63989">
        <ele>728.3</ele>
        <time>2022-06-21T11:54:01Z</time>
      </trkpt>
      <trkpt lat="43.43279" lon="2.63988">
        <ele>728.3</ele>
        <time>2022-06-21T11:54:02Z</time>
      </trkpt>
      <trkpt lat="43.43279" lon="2.63988">
        <ele>728.4</ele>
        <time>2022-06-21T11:54:03Z</time>
      </trkpt>
      <trkpt lat="43.43279" lon="2.63987">
        <ele>728.4</ele>
        <time>2022-06-21T11:54:04Z</time>
      </trkpt>
      <trkpt lat="43.43278" lon="2.63985">
        <ele>728.5</ele>
        <time>2022-06-21T11:54:05Z</time>
      </trkpt>
      <trkpt lat="43.43277" lon="2.63984">
        <ele>728.6</ele>
        <time>2022-06-21T11:54:06Z</time>
      </trkpt>
      <trkpt lat="43.43277" lon="2.63983">
        <ele>728.7</ele>
        <time>2022-06-21T11:54:07Z</time>
      </trkpt>
      <trkpt lat="43.43277" lon="2.63982">
        <ele>728.8</ele>
        <time>2022-06-21T11:54:08Z</time>
      </trkpt>
      <trkpt lat="43.43276" lon="2.63981">
        <ele>728.8</ele>
        <time>2022-06-21T11:54:09Z</time>
      </trkpt>
      <trkpt lat="43.43276" lon="2.63979">
        <ele>728.9</ele>
        <time>2022-06-21T11:54:10Z</time>
      </trkpt>
      <trkpt lat="43.43276" lon="2.63978">
        <ele>729</ele>
        <time>2022-06-21T11:54:11Z</time>
      </trkpt>
      <trkpt lat="43.43276" lon="2.63978">
        <ele>729.1</ele>
        <time>2022-06-21T11:54:12Z</time>
      </trkpt>
      <trkpt lat="43.43275" lon="2.63977">
        <ele>729.1</ele>
        <time>2022-06-21T11:54:13Z</time>
      </trkpt>
      <trkpt lat="43.43274" lon="2.63976">
        <ele>729.2</ele>
        <time>2022-06-21T11:54:14Z</time>
      </trkpt>
      <trkpt lat="43.43274" lon="2.63975">
        <ele>729.3</ele>
        <time>2022-06-21T11:54:15Z</time>
      </trkpt>
      <trkpt lat="43.43273" lon="2.63974">
        <ele>729.4</ele>
        <time>2022-06-21T11:54:16Z</time>
      </trkpt>
      <trkpt lat="43.43272" lon="2.63973">
        <ele>729.5</ele>
        <time>2022-06-21T11:54:17Z</time>
      </trkpt>
      <trkpt lat="43.43271" lon="2.63972">
        <ele>729.6</ele>
        <time>2022-06-21T11:54:18Z</time>
      </trkpt>
      <trkpt lat="43.4327" lon="2.63971">
        <ele>729.7</ele>
        <time>2022-06-21T11:54:19Z</time>
      </trkpt>
      <trkpt lat="43.43269" lon="2.63969">
        <ele>729.9</ele>
        <time>2022-06-21T11:54:20Z</time>
      </trkpt>
      <trkpt lat="43.43268" lon="2.63968">
        <ele>730</ele>
        <time>2022-06-21T11:54:21Z</time>
      </trkpt>
      <trkpt lat="43.43267" lon="2.63967">
        <ele>730.1</ele>
        <time>2022-06-21T11:54:22Z</time>
      </trkpt>
      <trkpt lat="43.43267" lon="2.63966">
        <ele>730.2</ele>
        <time>2022-06-21T11:54:23Z</time>
      </trkpt>
      <trkpt lat="43.43265" lon="2.63964">
        <ele>730.3</ele>
        <time>2022-06-21T11:54:24Z</time>
      </trkpt>
      <trkpt lat="43.43265" lon="2.63963">
        <ele>730.4</ele>
        <time>2022-06-21T11:54:25Z</time>
      </trkpt>
      <trkpt lat="43.43265" lon="2.63962">
        <ele>730.5</ele>
        <time>2022-06-21T11:54:26Z</time>
      </trkpt>
      <trkpt lat="43.43264" lon="2.63961">
        <ele>730.6</ele>
        <time>2022-06-21T11:54:27Z</time>
      </trkpt>
      <trkpt lat="43.43263" lon="2.6396">
        <ele>730.7</ele>
        <time>2022-06-21T11:54:28Z</time>
      </trkpt>
      <trkpt lat="43.43263" lon="2.63959">
        <ele>730.8</ele>
        <time>2022-06-21T11:54:29Z</time>
      </trkpt>
      <trkpt lat="43.43263" lon="2.63959">
        <ele>730.8</ele>
        <time>2022-06-21T11:54:30Z</time>
      </trkpt>
      <trkpt lat="43.43263" lon="2.63958">
        <ele>730.8</ele>
        <time>2022-06-21T11:54:31Z</time>
      </trkpt>
      <trkpt lat="43.43263" lon="2.63958">
        <ele>730.9</ele>
        <time>2022-06-21T11:54:32Z</time>
      </trkpt>
      <trkpt lat="43.43263" lon="2.63957">
        <ele>730.9</ele>
        <time>2022-06-21T11:54:33Z</time>
      </trkpt>
      <trkpt lat="43.43263" lon="2.63957">
        <ele>730.9</ele>
        <time>2022-06-21T11:54:34Z</time>
      </trkpt>
      <trkpt lat="43.43263" lon="2.63956">
        <ele>731</ele>
        <time>2022-06-21T11:54:35Z</time>
      </trkpt>
      <trkpt lat="43.43263" lon="2.63956">
        <ele>731</ele>
        <time>2022-06-21T11:54:36Z</time>
      </trkpt>
      <trkpt lat="43.43263" lon="2.63956">
        <ele>731</ele>
        <time>2022-06-21T11:54:37Z</time>
      </trkpt>
      <trkpt lat="43.43263" lon="2.63955">
        <ele>731.1</ele>
        <time>2022-06-21T11:54:38Z</time>
      </trkpt>
      <trkpt lat="43.43263" lon="2.63955">
        <ele>731.1</ele>
        <time>2022-06-21T11:54:39Z</time>
      </trkpt>
      <trkpt lat="43.43263" lon="2.63954">
        <ele>731.1</ele>
        <time>2022-06-21T11:54:40Z</time>
      </trkpt>
      <trkpt lat="43.43263" lon="2.63954">
        <ele>731.2</ele>
        <time>2022-06-21T11:54:41Z</time>
      </trkpt>
      <trkpt lat="43.43263" lon="2.63953">
        <ele>731.2</ele>
        <time>2022-06-21T11:54:42Z</time>
      </trkpt>
      <trkpt lat="43.43263" lon="2.63953">
        <ele>731.3</ele>
        <time>2022-06-21T11:54:43Z</time>
      </trkpt>
      <trkpt lat="43.43263" lon="2.63952">
        <ele>731.3</ele>
        <time>2022-06-21T11:54:44Z</time>
      </trkpt>
      <trkpt lat="43.43262" lon="2.63949">
        <ele>731.6</ele>
        <time>2022-06-21T11:54:45Z</time>
      </trkpt>
      <trkpt lat="43.43262" lon="2.63948">
        <ele>731.7</ele>
        <time>2022-06-21T11:54:46Z</time>
      </trkpt>
      <trkpt lat="43.43262" lon="2.63943">
        <ele>732.1</ele>
        <time>2022-06-21T11:54:47Z</time>
      </trkpt>
      <trkpt lat="43.43262" lon="2.63941">
        <ele>732.3</ele>
        <time>2022-06-21T11:54:48Z</time>
      </trkpt>
      <trkpt lat="43.43262" lon="2.63936">
        <ele>732.7</ele>
        <time>2022-06-21T11:54:49Z</time>
      </trkpt>
      <trkpt lat="43.43262" lon="2.63934">
        <ele>732.9</ele>
        <time>2022-06-21T11:54:50Z</time>
      </trkpt>
      <trkpt lat="43.43262" lon="2.63932">
        <ele>733</ele>
        <time>2022-06-21T11:54:51Z</time>
      </trkpt>
      <trkpt lat="43.43262" lon="2.63931">
        <ele>733.1</ele>
        <time>2022-06-21T11:54:52Z</time>
      </trkpt>
      <trkpt lat="43.43262" lon="2.63929">
        <ele>733.2</ele>
        <time>2022-06-21T11:54:53Z</time>
      </trkpt>
      <trkpt lat="43.43262" lon="2.63927">
        <ele>733.3</ele>
        <time>2022-06-21T11:54:54Z</time>
      </trkpt>
      <trkpt lat="43.43262" lon="2.63926">
        <ele>733.4</ele>
        <time>2022-06-21T11:54:55Z</time>
      </trkpt>
      <trkpt lat="43.43262" lon="2.63924">
        <ele>733.5</ele>
        <time>2022-06-21T11:54:56Z</time>
      </trkpt>
      <trkpt lat="43.43262" lon="2.63923">
        <ele>733.6</ele>
        <time>2022-06-21T11:54:57Z</time>
      </trkpt>
      <trkpt lat="43.43262" lon="2.63921">
        <ele>733.7</ele>
        <time>2022-06-21T11:54:58Z</time>
      </trkpt>
      <trkpt lat="43.43262" lon="2.63919">
        <ele>733.8</ele>
        <time>2022-06-21T11:54:59Z</time>
      </trkpt>
      <trkpt lat="43.43262" lon="2.63918">
        <ele>733.8</ele>
        <time>2022-06-21T11:55:00Z</time>
      </trkpt>
      <trkpt lat="43.43262" lon="2.63918">
        <ele>733.9</ele>
        <time>2022-06-21T11:55:01Z</time>
      </trkpt>
      <trkpt lat="43.43262" lon="2.63917">
        <ele>733.9</ele>
        <time>2022-06-21T11:55:02Z</time>
      </trkpt>
      <trkpt lat="43.43262" lon="2.63916">
        <ele>734</ele>
        <time>2022-06-21T11:55:03Z</time>
      </trkpt>
      <trkpt lat="43.43262" lon="2.63915">
        <ele>734.1</ele>
        <time>2022-06-21T11:55:04Z</time>
      </trkpt>
      <trkpt lat="43.43262" lon="2.63914">
        <ele>734.1</ele>
        <time>2022-06-21T11:55:05Z</time>
      </trkpt>
      <trkpt lat="43.43262" lon="2.63913">
        <ele>734.2</ele>
        <time>2022-06-21T11:55:06Z</time>
      </trkpt>
      <trkpt lat="43.43262" lon="2.63913">
        <ele>734.2</ele>
        <time>2022-06-21T11:55:07Z</time>
      </trkpt>
      <trkpt lat="43.43262" lon="2.63912">
        <ele>734.2</ele>
        <time>2022-06-21T11:55:08Z</time>
      </trkpt>
      <trkpt lat="43.43263" lon="2.63912">
        <ele>734.3</ele>
        <time>2022-06-21T11:55:09Z</time>
      </trkpt>
      <trkpt lat="43.43264" lon="2.63913">
        <ele>734.4</ele>
        <time>2022-06-21T11:55:10Z</time>
      </trkpt>
      <trkpt lat="43.43264" lon="2.63913">
        <ele>734.4</ele>
        <time>2022-06-21T11:55:11Z</time>
      </trkpt>
      <trkpt lat="43.43265" lon="2.63913">
        <ele>734.5</ele>
        <time>2022-06-21T11:55:12Z</time>
      </trkpt>
      <trkpt lat="43.43265" lon="2.63914">
        <ele>734.6</ele>
        <time>2022-06-21T11:55:13Z</time>
      </trkpt>
      <trkpt lat="43.43266" lon="2.63914">
        <ele>734.6</ele>
        <time>2022-06-21T11:55:14Z</time>
      </trkpt>
      <trkpt lat="43.43266" lon="2.63914">
        <ele>734.6</ele>
        <time>2022-06-21T11:55:15Z</time>
      </trkpt>
      <trkpt lat="43.43266" lon="2.63914">
        <ele>734.6</ele>
        <time>2022-06-21T11:55:16Z</time>
      </trkpt>
      <trkpt lat="43.43266" lon="2.63914">
        <ele>734.7</ele>
        <time>2022-06-21T11:55:17Z</time>
      </trkpt>
      <trkpt lat="43.43266" lon="2.63914">
        <ele>734.7</ele>
        <time>2022-06-21T11:55:18Z</time>
      </trkpt>
      <trkpt lat="43.43266" lon="2.63914">
        <ele>734.7</ele>
        <time>2022-06-21T11:55:19Z</time>
      </trkpt>
      <trkpt lat="43.43267" lon="2.63915">
        <ele>734.7</ele>
        <time>2022-06-21T11:55:20Z</time>
      </trkpt>
      <trkpt lat="43.43267" lon="2.63915">
        <ele>734.8</ele>
        <time>2022-06-21T11:55:21Z</time>
      </trkpt>
      <trkpt lat="43.43268" lon="2.63915">
        <ele>734.8</ele>
        <time>2022-06-21T11:55:22Z</time>
      </trkpt>
      <trkpt lat="43.43268" lon="2.63914">
        <ele>734.8</ele>
        <time>2022-06-21T11:55:23Z</time>
      </trkpt>
      <trkpt lat="43.43268" lon="2.63914">
        <ele>734.8</ele>
        <time>2022-06-21T11:55:24Z</time>
      </trkpt>
      <trkpt lat="43.43268" lon="2.63914">
        <ele>734.8</ele>
        <time>2022-06-21T11:55:25Z</time>
      </trkpt>
      <trkpt lat="43.43268" lon="2.63915">
        <ele>734.9</ele>
        <time>2022-06-21T11:55:26Z</time>
      </trkpt>
      <trkpt lat="43.43268" lon="2.63916">
        <ele>735</ele>
        <time>2022-06-21T11:55:27Z</time>
      </trkpt>
      <trkpt lat="43.43269" lon="2.63917">
        <ele>735.1</ele>
        <time>2022-06-21T11:55:28Z</time>
      </trkpt>
      <trkpt lat="43.43268" lon="2.63919">
        <ele>735.2</ele>
        <time>2022-06-21T11:55:29Z</time>
      </trkpt>
      <trkpt lat="43.43268" lon="2.6392">
        <ele>735.2</ele>
        <time>2022-06-21T11:55:30Z</time>
      </trkpt>
      <trkpt lat="43.43268" lon="2.63921">
        <ele>735.3</ele>
        <time>2022-06-21T11:55:31Z</time>
      </trkpt>
      <trkpt lat="43.43268" lon="2.63922">
        <ele>735.4</ele>
        <time>2022-06-21T11:55:32Z</time>
      </trkpt>
      <trkpt lat="43.43267" lon="2.63923">
        <ele>735.4</ele>
        <time>2022-06-21T11:55:33Z</time>
      </trkpt>
      <trkpt lat="43.43267" lon="2.63924">
        <ele>735.5</ele>
        <time>2022-06-21T11:55:34Z</time>
      </trkpt>
      <trkpt lat="43.43267" lon="2.63925">
        <ele>735.5</ele>
        <time>2022-06-21T11:55:35Z</time>
      </trkpt>
      <trkpt lat="43.43267" lon="2.63925">
        <ele>735.6</ele>
        <time>2022-06-21T11:55:36Z</time>
      </trkpt>
      <trkpt lat="43.43267" lon="2.63926">
        <ele>735.6</ele>
        <time>2022-06-21T11:55:37Z</time>
      </trkpt>
      <trkpt lat="43.43267" lon="2.63928">
        <ele>735.7</ele>
        <time>2022-06-21T11:55:38Z</time>
      </trkpt>
      <trkpt lat="43.43267" lon="2.63929">
        <ele>735.8</ele>
        <time>2022-06-21T11:55:39Z</time>
      </trkpt>
      <trkpt lat="43.43267" lon="2.63931">
        <ele>735.9</ele>
        <time>2022-06-21T11:55:40Z</time>
      </trkpt>
      <trkpt lat="43.43267" lon="2.63931">
        <ele>735.9</ele>
        <time>2022-06-21T11:55:41Z</time>
      </trkpt>
      <trkpt lat="43.43268" lon="2.63932">
        <ele>736</ele>
        <time>2022-06-21T11:55:42Z</time>
      </trkpt>
      <trkpt lat="43.43268" lon="2.63933">
        <ele>736</ele>
        <time>2022-06-21T11:55:43Z</time>
      </trkpt>
      <trkpt lat="43.43268" lon="2.63934">
        <ele>736.1</ele>
        <time>2022-06-21T11:55:44Z</time>
      </trkpt>
      <trkpt lat="43.43269" lon="2.63936">
        <ele>736.2</ele>
        <time>2022-06-21T11:55:45Z</time>
      </trkpt>
      <trkpt lat="43.43269" lon="2.63937">
        <ele>736.3</ele>
        <time>2022-06-21T11:55:46Z</time>
      </trkpt>
      <trkpt lat="43.43269" lon="2.63938">
        <ele>736.3</ele>
        <time>2022-06-21T11:55:47Z</time>
      </trkpt>
      <trkpt lat="43.4327" lon="2.63939">
        <ele>736.4</ele>
        <time>2022-06-21T11:55:48Z</time>
      </trkpt>
      <trkpt lat="43.4327" lon="2.6394">
        <ele>736.5</ele>
        <time>2022-06-21T11:55:49Z</time>
      </trkpt>
      <trkpt lat="43.43271" lon="2.6394">
        <ele>736.5</ele>
        <time>2022-06-21T11:55:50Z</time>
      </trkpt>
      <trkpt lat="43.43271" lon="2.63941">
        <ele>736.5</ele>
        <time>2022-06-21T11:55:51Z</time>
      </trkpt>
      <trkpt lat="43.43272" lon="2.63942">
        <ele>736.6</ele>
        <time>2022-06-21T11:55:52Z</time>
      </trkpt>
      <trkpt lat="43.43272" lon="2.63942">
        <ele>736.6</ele>
        <time>2022-06-21T11:55:53Z</time>
      </trkpt>
      <trkpt lat="43.43272" lon="2.63942">
        <ele>736.6</ele>
        <time>2022-06-21T11:55:54Z</time>
      </trkpt>
      <trkpt lat="43.43273" lon="2.63943">
        <ele>736.7</ele>
        <time>2022-06-21T11:55:55Z</time>
      </trkpt>
      <trkpt lat="43.43274" lon="2.63944">
        <ele>736.8</ele>
        <time>2022-06-21T11:55:56Z</time>
      </trkpt>
      <trkpt lat="43.43274" lon="2.63944">
        <ele>736.9</ele>
        <time>2022-06-21T11:55:57Z</time>
      </trkpt>
      <trkpt lat="43.43276" lon="2.63946">
        <ele>737.1</ele>
        <time>2022-06-21T11:55:58Z</time>
      </trkpt>
      <trkpt lat="43.43277" lon="2.63948">
        <ele>737.2</ele>
        <time>2022-06-21T11:55:59Z</time>
      </trkpt>
      <trkpt lat="43.43278" lon="2.63949">
        <ele>737.3</ele>
        <time>2022-06-21T11:56:00Z</time>
      </trkpt>
      <trkpt lat="43.43278" lon="2.6395">
        <ele>737.3</ele>
        <time>2022-06-21T11:56:01Z</time>
      </trkpt>
      <trkpt lat="43.43279" lon="2.63951">
        <ele>737.4</ele>
        <time>2022-06-21T11:56:02Z</time>
      </trkpt>
      <trkpt lat="43.4328" lon="2.63952">
        <ele>737.5</ele>
        <time>2022-06-21T11:56:03Z</time>
      </trkpt>
      <trkpt lat="43.43281" lon="2.63953">
        <ele>737.6</ele>
        <time>2022-06-21T11:56:04Z</time>
      </trkpt>
      <trkpt lat="43.43281" lon="2.63954">
        <ele>737.7</ele>
        <time>2022-06-21T11:56:05Z</time>
      </trkpt>
      <trkpt lat="43.43282" lon="2.63956">
        <ele>737.8</ele>
        <time>2022-06-21T11:56:06Z</time>
      </trkpt>
      <trkpt lat="43.43282" lon="2.63957">
        <ele>737.9</ele>
        <time>2022-06-21T11:56:07Z</time>
      </trkpt>
      <trkpt lat="43.43282" lon="2.63958">
        <ele>738</ele>
        <time>2022-06-21T11:56:08Z</time>
      </trkpt>
      <trkpt lat="43.43283" lon="2.6396">
        <ele>738.1</ele>
        <time>2022-06-21T11:56:09Z</time>
      </trkpt>
      <trkpt lat="43.43284" lon="2.6396">
        <ele>738.1</ele>
        <time>2022-06-21T11:56:10Z</time>
      </trkpt>
      <trkpt lat="43.43285" lon="2.63961">
        <ele>738.2</ele>
        <time>2022-06-21T11:56:11Z</time>
      </trkpt>
      <trkpt lat="43.43286" lon="2.63962">
        <ele>738.3</ele>
        <time>2022-06-21T11:56:12Z</time>
      </trkpt>
      <trkpt lat="43.43287" lon="2.63963">
        <ele>738.4</ele>
        <time>2022-06-21T11:56:13Z</time>
      </trkpt>
      <trkpt lat="43.43287" lon="2.63964">
        <ele>738.4</ele>
        <time>2022-06-21T11:56:14Z</time>
      </trkpt>
      <trkpt lat="43.43287" lon="2.63965">
        <ele>738.5</ele>
        <time>2022-06-21T11:56:15Z</time>
      </trkpt>
      <trkpt lat="43.43288" lon="2.63966">
        <ele>738.5</ele>
        <time>2022-06-21T11:56:16Z</time>
      </trkpt>
      <trkpt lat="43.43288" lon="2.63967">
        <ele>738.6</ele>
        <time>2022-06-21T11:56:17Z</time>
      </trkpt>
      <trkpt lat="43.43289" lon="2.63968">
        <ele>738.7</ele>
        <time>2022-06-21T11:56:18Z</time>
      </trkpt>
      <trkpt lat="43.43289" lon="2.63969">
        <ele>738.7</ele>
        <time>2022-06-21T11:56:19Z</time>
      </trkpt>
      <trkpt lat="43.4329" lon="2.63969">
        <ele>738.8</ele>
        <time>2022-06-21T11:56:20Z</time>
      </trkpt>
      <trkpt lat="43.4329" lon="2.6397">
        <ele>738.8</ele>
        <time>2022-06-21T11:56:21Z</time>
      </trkpt>
      <trkpt lat="43.43291" lon="2.63971">
        <ele>738.9</ele>
        <time>2022-06-21T11:56:22Z</time>
      </trkpt>
      <trkpt lat="43.43291" lon="2.63971">
        <ele>738.9</ele>
        <time>2022-06-21T11:56:23Z</time>
      </trkpt>
      <trkpt lat="43.43292" lon="2.63971">
        <ele>738.9</ele>
        <time>2022-06-21T11:56:24Z</time>
      </trkpt>
      <trkpt lat="43.43292" lon="2.63971">
        <ele>738.9</ele>
        <time>2022-06-21T11:56:25Z</time>
      </trkpt>
      <trkpt lat="43.43292" lon="2.63971">
        <ele>739</ele>
        <time>2022-06-21T11:56:26Z</time>
      </trkpt>
      <trkpt lat="43.43293" lon="2.63971">
        <ele>739.1</ele>
        <time>2022-06-21T11:56:27Z</time>
      </trkpt>
      <trkpt lat="43.43294" lon="2.63971">
        <ele>739.1</ele>
        <time>2022-06-21T11:56:28Z</time>
      </trkpt>
      <trkpt lat="43.43295" lon="2.63971">
        <ele>739.2</ele>
        <time>2022-06-21T11:56:29Z</time>
      </trkpt>
      <trkpt lat="43.43295" lon="2.63972">
        <ele>739.2</ele>
        <time>2022-06-21T11:56:30Z</time>
      </trkpt>
      <trkpt lat="43.43295" lon="2.63973">
        <ele>739.3</ele>
        <time>2022-06-21T11:56:31Z</time>
      </trkpt>
      <trkpt lat="43.43296" lon="2.63974">
        <ele>739.3</ele>
        <time>2022-06-21T11:56:32Z</time>
      </trkpt>
      <trkpt lat="43.43297" lon="2.63975">
        <ele>739.4</ele>
        <time>2022-06-21T11:56:33Z</time>
      </trkpt>
      <trkpt lat="43.43297" lon="2.63975">
        <ele>739.5</ele>
        <time>2022-06-21T11:56:34Z</time>
      </trkpt>
      <trkpt lat="43.43298" lon="2.63975">
        <ele>739.5</ele>
        <time>2022-06-21T11:56:35Z</time>
      </trkpt>
      <trkpt lat="43.43298" lon="2.63975">
        <ele>739.5</ele>
        <time>2022-06-21T11:56:36Z</time>
      </trkpt>
      <trkpt lat="43.43299" lon="2.63976">
        <ele>739.6</ele>
        <time>2022-06-21T11:56:37Z</time>
      </trkpt>
      <trkpt lat="43.433" lon="2.63977">
        <ele>739.7</ele>
        <time>2022-06-21T11:56:38Z</time>
      </trkpt>
      <trkpt lat="43.43301" lon="2.63978">
        <ele>739.8</ele>
        <time>2022-06-21T11:56:39Z</time>
      </trkpt>
      <trkpt lat="43.43301" lon="2.63978">
        <ele>739.8</ele>
        <time>2022-06-21T11:56:40Z</time>
      </trkpt>
      <trkpt lat="43.43301" lon="2.63979">
        <ele>739.8</ele>
        <time>2022-06-21T11:56:41Z</time>
      </trkpt>
      <trkpt lat="43.43302" lon="2.6398">
        <ele>739.9</ele>
        <time>2022-06-21T11:56:42Z</time>
      </trkpt>
      <trkpt lat="43.43303" lon="2.6398">
        <ele>740</ele>
        <time>2022-06-21T11:56:43Z</time>
      </trkpt>
      <trkpt lat="43.43304" lon="2.63981">
        <ele>740.1</ele>
        <time>2022-06-21T11:56:44Z</time>
      </trkpt>
      <trkpt lat="43.43304" lon="2.63981">
        <ele>740.1</ele>
        <time>2022-06-21T11:56:45Z</time>
      </trkpt>
      <trkpt lat="43.43305" lon="2.63982">
        <ele>740.1</ele>
        <time>2022-06-21T11:56:46Z</time>
      </trkpt>
      <trkpt lat="43.43305" lon="2.63982">
        <ele>740.2</ele>
        <time>2022-06-21T11:56:47Z</time>
      </trkpt>
      <trkpt lat="43.43306" lon="2.63983">
        <ele>740.3</ele>
        <time>2022-06-21T11:56:48Z</time>
      </trkpt>
      <trkpt lat="43.43307" lon="2.63983">
        <ele>740.3</ele>
        <time>2022-06-21T11:56:49Z</time>
      </trkpt>
      <trkpt lat="43.43308" lon="2.63984">
        <ele>740.4</ele>
        <time>2022-06-21T11:56:50Z</time>
      </trkpt>
      <trkpt lat="43.4331" lon="2.63985">
        <ele>740.6</ele>
        <time>2022-06-21T11:56:51Z</time>
      </trkpt>
      <trkpt lat="43.43311" lon="2.63985">
        <ele>740.6</ele>
        <time>2022-06-21T11:56:52Z</time>
      </trkpt>
      <trkpt lat="43.43312" lon="2.63986">
        <ele>740.7</ele>
        <time>2022-06-21T11:56:53Z</time>
      </trkpt>
      <trkpt lat="43.43313" lon="2.63986">
        <ele>740.8</ele>
        <time>2022-06-21T11:56:54Z</time>
      </trkpt>
      <trkpt lat="43.43314" lon="2.63987">
        <ele>740.9</ele>
        <time>2022-06-21T11:56:55Z</time>
      </trkpt>
      <trkpt lat="43.43315" lon="2.63987">
        <ele>740.9</ele>
        <time>2022-06-21T11:56:56Z</time>
      </trkpt>
      <trkpt lat="43.43315" lon="2.63987">
        <ele>741</ele>
        <time>2022-06-21T11:56:57Z</time>
      </trkpt>
      <trkpt lat="43.43315" lon="2.63988">
        <ele>741</ele>
        <time>2022-06-21T11:56:58Z</time>
      </trkpt>
      <trkpt lat="43.43315" lon="2.63988">
        <ele>741</ele>
        <time>2022-06-21T11:56:59Z</time>
      </trkpt>
      <trkpt lat="43.43315" lon="2.63988">
        <ele>741</ele>
        <time>2022-06-21T11:57:00Z</time>
      </trkpt>
      <trkpt lat="43.43315" lon="2.63988">
        <ele>741</ele>
        <time>2022-06-21T11:57:01Z</time>
      </trkpt>
      <trkpt lat="43.43315" lon="2.63988">
        <ele>741</ele>
        <time>2022-06-21T11:57:02Z</time>
      </trkpt>
      <trkpt lat="43.43315" lon="2.63988">
        <ele>741</ele>
        <time>2022-06-21T11:57:03Z</time>
      </trkpt>
      <trkpt lat="43.43315" lon="2.63988">
        <ele>741</ele>
        <time>2022-06-21T11:57:04Z</time>
      </trkpt>
      <trkpt lat="43.43315" lon="2.63988">
        <ele>741</ele>
        <time>2022-06-21T11:57:05Z</time>
      </trkpt>
      <trkpt lat="43.43315" lon="2.63988">
        <ele>741</ele>
        <time>2022-06-21T11:57:06Z</time>
      </trkpt>
      <trkpt lat="43.43315" lon="2.63988">
        <ele>741</ele>
        <time>2022-06-21T11:57:07Z</time>
      </trkpt>
      <trkpt lat="43.43315" lon="2.63988">
        <ele>741</ele>
        <time>2022-06-21T11:57:08Z</time>
      </trkpt>
      <trkpt lat="43.43315" lon="2.63988">
        <ele>741</ele>
        <time>2022-06-21T11:57:09Z</time>
      </trkpt>
      <trkpt lat="43.43315" lon="2.63988">
        <ele>741</ele>
        <time>2022-06-21T11:57:10Z</time>
      </trkpt>
      <trkpt lat="43.43315" lon="2.63988">
        <ele>741</ele>
        <time>2022-06-21T11:57:11Z</time>
      </trkpt>
      <trkpt lat="43.43316" lon="2.63989">
        <ele>741.1</ele>
        <time>2022-06-21T11:57:12Z</time>
      </trkpt>
      <trkpt lat="43.43316" lon="2.6399">
        <ele>741.1</ele>
        <time>2022-06-21T11:57:13Z</time>
      </trkpt>
      <trkpt lat="43.43317" lon="2.63991">
        <ele>741.2</ele>
        <time>2022-06-21T11:57:14Z</time>
      </trkpt>
      <trkpt lat="43.43317" lon="2.63992">
        <ele>741.3</ele>
        <time>2022-06-21T11:57:15Z</time>
      </trkpt>
      <trkpt lat="43.43318" lon="2.63993">
        <ele>741.3</ele>
        <time>2022-06-21T11:57:16Z</time>
      </trkpt>
      <trkpt lat="43.43318" lon="2.63993">
        <ele>741.4</ele>
        <time>2022-06-21T11:57:17Z</time>
      </trkpt>
      <trkpt lat="43.43318" lon="2.63994">
        <ele>741.4</ele>
        <time>2022-06-21T11:57:18Z</time>
      </trkpt>
      <trkpt lat="43.43319" lon="2.63994">
        <ele>741.5</ele>
        <time>2022-06-21T11:57:19Z</time>
      </trkpt>
      <trkpt lat="43.4332" lon="2.63995">
        <ele>741.6</ele>
        <time>2022-06-21T11:57:20Z</time>
      </trkpt>
      <trkpt lat="43.43321" lon="2.63996">
        <ele>741.7</ele>
        <time>2022-06-21T11:57:21Z</time>
      </trkpt>
      <trkpt lat="43.43322" lon="2.63996">
        <ele>741.8</ele>
        <time>2022-06-21T11:57:22Z</time>
      </trkpt>
      <trkpt lat="43.43323" lon="2.63997">
        <ele>741.9</ele>
        <time>2022-06-21T11:57:23Z</time>
      </trkpt>
      <trkpt lat="43.43325" lon="2.63999">
        <ele>742.1</ele>
        <time>2022-06-21T11:57:24Z</time>
      </trkpt>
      <trkpt lat="43.43326" lon="2.64">
        <ele>742.2</ele>
        <time>2022-06-21T11:57:25Z</time>
      </trkpt>
      <trkpt lat="43.43327" lon="2.64">
        <ele>742.3</ele>
        <time>2022-06-21T11:57:26Z</time>
      </trkpt>
      <trkpt lat="43.43329" lon="2.64002">
        <ele>742.4</ele>
        <time>2022-06-21T11:57:27Z</time>
      </trkpt>
      <trkpt lat="43.4333" lon="2.64002">
        <ele>742.5</ele>
        <time>2022-06-21T11:57:28Z</time>
      </trkpt>
      <trkpt lat="43.43331" lon="2.64003">
        <ele>742.6</ele>
        <time>2022-06-21T11:57:29Z</time>
      </trkpt>
      <trkpt lat="43.43332" lon="2.64003">
        <ele>742.7</ele>
        <time>2022-06-21T11:57:30Z</time>
      </trkpt>
      <trkpt lat="43.43332" lon="2.64004">
        <ele>742.7</ele>
        <time>2022-06-21T11:57:31Z</time>
      </trkpt>
      <trkpt lat="43.43334" lon="2.64005">
        <ele>742.8</ele>
        <time>2022-06-21T11:57:32Z</time>
      </trkpt>
      <trkpt lat="43.43335" lon="2.64006">
        <ele>743</ele>
        <time>2022-06-21T11:57:33Z</time>
      </trkpt>
      <trkpt lat="43.43335" lon="2.64006">
        <ele>743</ele>
        <time>2022-06-21T11:57:34Z</time>
      </trkpt>
      <trkpt lat="43.43335" lon="2.64006">
        <ele>743</ele>
        <time>2022-06-21T11:57:35Z</time>
      </trkpt>
      <trkpt lat="43.43336" lon="2.64006">
        <ele>743</ele>
        <time>2022-06-21T11:57:36Z</time>
      </trkpt>
      <trkpt lat="43.43336" lon="2.64007">
        <ele>743</ele>
        <time>2022-06-21T11:57:37Z</time>
      </trkpt>
      <trkpt lat="43.43336" lon="2.64007">
        <ele>743</ele>
        <time>2022-06-21T11:57:38Z</time>
      </trkpt>
      <trkpt lat="43.43336" lon="2.64007">
        <ele>743.1</ele>
        <time>2022-06-21T11:57:39Z</time>
      </trkpt>
      <trkpt lat="43.43336" lon="2.64007">
        <ele>743.1</ele>
        <time>2022-06-21T11:57:40Z</time>
      </trkpt>
      <trkpt lat="43.43337" lon="2.64007">
        <ele>743.1</ele>
        <time>2022-06-21T11:57:41Z</time>
      </trkpt>
      <trkpt lat="43.43337" lon="2.64008">
        <ele>743.1</ele>
        <time>2022-06-21T11:57:42Z</time>
      </trkpt>
      <trkpt lat="43.43338" lon="2.64008">
        <ele>743.2</ele>
        <time>2022-06-21T11:57:43Z</time>
      </trkpt>
      <trkpt lat="43.43338" lon="2.64009">
        <ele>743.2</ele>
        <time>2022-06-21T11:57:44Z</time>
      </trkpt>
      <trkpt lat="43.43338" lon="2.64009">
        <ele>743.2</ele>
        <time>2022-06-21T11:57:45Z</time>
      </trkpt>
      <trkpt lat="43.43338" lon="2.64009">
        <ele>743.2</ele>
        <time>2022-06-21T11:57:46Z</time>
      </trkpt>
      <trkpt lat="43.43338" lon="2.64009">
        <ele>743.2</ele>
        <time>2022-06-21T11:57:47Z</time>
      </trkpt>
      <trkpt lat="43.43338" lon="2.64009">
        <ele>743.2</ele>
        <time>2022-06-21T11:57:48Z</time>
      </trkpt>
      <trkpt lat="43.43338" lon="2.64009">
        <ele>743.2</ele>
        <time>2022-06-21T11:57:49Z</time>
      </trkpt>
      <trkpt lat="43.43338" lon="2.64009">
        <ele>743.2</ele>
        <time>2022-06-21T11:57:50Z</time>
      </trkpt>
      <trkpt lat="43.43338" lon="2.64009">
        <ele>743.2</ele>
        <time>2022-06-21T11:57:51Z</time>
      </trkpt>
      <trkpt lat="43.43338" lon="2.64009">
        <ele>743.2</ele>
        <time>2022-06-21T11:57:52Z</time>
      </trkpt>
      <trkpt lat="43.43338" lon="2.64009">
        <ele>743.2</ele>
        <time>2022-06-21T11:57:53Z</time>
      </trkpt>
      <trkpt lat="43.43338" lon="2.64009">
        <ele>743.2</ele>
        <time>2022-06-21T11:57:54Z</time>
      </trkpt>
      <trkpt lat="43.43338" lon="2.64009">
        <ele>743.3</ele>
        <time>2022-06-21T11:57:55Z</time>
      </trkpt>
      <trkpt lat="43.43338" lon="2.64009">
        <ele>743.3</ele>
        <time>2022-06-21T11:57:56Z</time>
      </trkpt>
      <trkpt lat="43.43338" lon="2.64009">
        <ele>743.3</ele>
        <time>2022-06-21T11:57:57Z</time>
      </trkpt>
      <trkpt lat="43.43338" lon="2.64009">
        <ele>743.3</ele>
        <time>2022-06-21T11:57:58Z</time>
      </trkpt>
      <trkpt lat="43.43338" lon="2.64009">
        <ele>743.3</ele>
        <time>2022-06-21T11:57:59Z</time>
      </trkpt>
      <trkpt lat="43.43338" lon="2.64009">
        <ele>743.3</ele>
        <time>2022-06-21T11:58:00Z</time>
      </trkpt>
      <trkpt lat="43.43338" lon="2.64009">
        <ele>743.3</ele>
        <time>2022-06-21T11:58:01Z</time>
      </trkpt>
      <trkpt lat="43.43338" lon="2.64009">
        <ele>743.3</ele>
        <time>2022-06-21T11:58:02Z</time>
      </trkpt>
      <trkpt lat="43.43338" lon="2.64009">
        <ele>743.3</ele>
        <time>2022-06-21T11:58:03Z</time>
      </trkpt>
      <trkpt lat="43.43338" lon="2.64009">
        <ele>743.3</ele>
        <time>2022-06-21T11:58:04Z</time>
      </trkpt>
      <trkpt lat="43.43338" lon="2.64009">
        <ele>743.3</ele>
        <time>2022-06-21T11:58:05Z</time>
      </trkpt>
      <trkpt lat="43.43339" lon="2.64009">
        <ele>743.3</ele>
        <time>2022-06-21T11:58:06Z</time>
      </trkpt>
      <trkpt lat="43.43339" lon="2.64009">
        <ele>743.3</ele>
        <time>2022-06-21T11:58:07Z</time>
      </trkpt>
      <trkpt lat="43.43339" lon="2.64009">
        <ele>743.3</ele>
        <time>2022-06-21T11:58:08Z</time>
      </trkpt>
      <trkpt lat="43.43339" lon="2.64009">
        <ele>743.3</ele>
        <time>2022-06-21T11:58:09Z</time>
      </trkpt>
      <trkpt lat="43.43339" lon="2.64009">
        <ele>743.3</ele>
        <time>2022-06-21T11:58:10Z</time>
      </trkpt>
      <trkpt lat="43.43339" lon="2.6401">
        <ele>743.3</ele>
        <time>2022-06-21T11:58:11Z</time>
      </trkpt>
      <trkpt lat="43.43339" lon="2.6401">
        <ele>743.3</ele>
        <time>2022-06-21T11:58:12Z</time>
      </trkpt>
      <trkpt lat="43.43339" lon="2.6401">
        <ele>743.3</ele>
        <time>2022-06-21T11:58:13Z</time>
      </trkpt>
      <trkpt lat="43.43339" lon="2.6401">
        <ele>743.3</ele>
        <time>2022-06-21T11:58:14Z</time>
      </trkpt>
      <trkpt lat="43.43339" lon="2.6401">
        <ele>743.3</ele>
        <time>2022-06-21T11:58:15Z</time>
      </trkpt>
      <trkpt lat="43.43339" lon="2.6401">
        <ele>743.3</ele>
        <time>2022-06-21T11:58:16Z</time>
      </trkpt>
      <trkpt lat="43.43339" lon="2.6401">
        <ele>743.3</ele>
        <time>2022-06-21T11:58:17Z</time>
      </trkpt>
      <trkpt lat="43.43339" lon="2.6401">
        <ele>743.3</ele>
        <time>2022-06-21T11:58:18Z</time>
      </trkpt>
      <trkpt lat="43.43339" lon="2.6401">
        <ele>743.4</ele>
        <time>2022-06-21T11:58:19Z</time>
      </trkpt>
      <trkpt lat="43.43339" lon="2.6401">
        <ele>743.4</ele>
        <time>2022-06-21T11:58:20Z</time>
      </trkpt>
      <trkpt lat="43.43339" lon="2.6401">
        <ele>743.4</ele>
        <time>2022-06-21T11:58:21Z</time>
      </trkpt>
      <trkpt lat="43.43339" lon="2.6401">
        <ele>743.4</ele>
        <time>2022-06-21T11:58:22Z</time>
      </trkpt>
      <trkpt lat="43.43339" lon="2.6401">
        <ele>743.4</ele>
        <time>2022-06-21T11:58:23Z</time>
      </trkpt>
      <trkpt lat="43.43339" lon="2.6401">
        <ele>743.4</ele>
        <time>2022-06-21T11:58:24Z</time>
      </trkpt>
      <trkpt lat="43.43339" lon="2.6401">
        <ele>743.4</ele>
        <time>2022-06-21T11:58:25Z</time>
      </trkpt>
      <trkpt lat="43.43339" lon="2.6401">
        <ele>743.4</ele>
        <time>2022-06-21T11:58:26Z</time>
      </trkpt>
      <trkpt lat="43.43339" lon="2.6401">
        <ele>743.4</ele>
        <time>2022-06-21T11:58:27Z</time>
      </trkpt>
      <trkpt lat="43.43339" lon="2.6401">
        <ele>743.4</ele>
        <time>2022-06-21T11:58:28Z</time>
      </trkpt>
      <trkpt lat="43.43339" lon="2.6401">
        <ele>743.4</ele>
        <time>2022-06-21T11:58:29Z</time>
      </trkpt>
      <trkpt lat="43.43339" lon="2.6401">
        <ele>743.4</ele>
        <time>2022-06-21T11:58:30Z</time>
      </trkpt>
      <trkpt lat="43.43339" lon="2.6401">
        <ele>743.4</ele>
        <time>2022-06-21T11:58:31Z</time>
      </trkpt>
      <trkpt lat="43.43339" lon="2.6401">
        <ele>743.4</ele>
        <time>2022-06-21T11:58:32Z</time>
      </trkpt>
      <trkpt lat="43.43339" lon="2.6401">
        <ele>743.4</ele>
        <time>2022-06-21T11:58:33Z</time>
      </trkpt>
      <trkpt lat="43.4334" lon="2.6401">
        <ele>743.4</ele>
        <time>2022-06-21T11:58:34Z</time>
      </trkpt>
      <trkpt lat="43.4334" lon="2.6401">
        <ele>743.4</ele>
        <time>2022-06-21T11:58:35Z</time>
      </trkpt>
      <trkpt lat="43.4334" lon="2.6401">
        <ele>743.4</ele>
        <time>2022-06-21T11:58:36Z</time>
      </trkpt>
      <trkpt lat="43.4334" lon="2.6401">
        <ele>743.4</ele>
        <time>2022-06-21T11:58:37Z</time>
      </trkpt>
      <trkpt lat="43.4334" lon="2.64011">
        <ele>743.4</ele>
        <time>2022-06-21T11:58:38Z</time>
      </trkpt>
      <trkpt lat="43.4334" lon="2.64011">
        <ele>743.4</ele>
        <time>2022-06-21T11:58:39Z</time>
      </trkpt>
      <trkpt lat="43.4334" lon="2.64011">
        <ele>743.5</ele>
        <time>2022-06-21T11:58:40Z</time>
      </trkpt>
      <trkpt lat="43.4334" lon="2.64011">
        <ele>743.5</ele>
        <time>2022-06-21T11:58:41Z</time>
      </trkpt>
      <trkpt lat="43.4334" lon="2.64011">
        <ele>743.5</ele>
        <time>2022-06-21T11:58:42Z</time>
      </trkpt>
      <trkpt lat="43.4334" lon="2.64011">
        <ele>743.5</ele>
        <time>2022-06-21T11:58:43Z</time>
      </trkpt>
      <trkpt lat="43.4334" lon="2.64011">
        <ele>743.5</ele>
        <time>2022-06-21T11:58:44Z</time>
      </trkpt>
      <trkpt lat="43.4334" lon="2.64011">
        <ele>743.5</ele>
        <time>2022-06-21T11:58:45Z</time>
      </trkpt>
      <trkpt lat="43.4334" lon="2.64011">
        <ele>743.5</ele>
        <time>2022-06-21T11:58:46Z</time>
      </trkpt>
      <trkpt lat="43.4334" lon="2.64011">
        <ele>743.5</ele>
        <time>2022-06-21T11:58:47Z</time>
      </trkpt>
      <trkpt lat="43.4334" lon="2.64011">
        <ele>743.5</ele>
        <time>2022-06-21T11:58:48Z</time>
      </trkpt>
      <trkpt lat="43.4334" lon="2.64011">
        <ele>743.5</ele>
        <time>2022-06-21T11:58:49Z</time>
      </trkpt>
      <trkpt lat="43.4334" lon="2.64011">
        <ele>743.5</ele>
        <time>2022-06-21T11:58:50Z</time>
      </trkpt>
      <trkpt lat="43.4334" lon="2.64011">
        <ele>743.5</ele>
        <time>2022-06-21T11:58:51Z</time>
      </trkpt>
      <trkpt lat="43.43341" lon="2.64012">
        <ele>743.5</ele>
        <time>2022-06-21T11:58:52Z</time>
      </trkpt>
      <trkpt lat="43.43341" lon="2.64012">
        <ele>743.5</ele>
        <time>2022-06-21T11:58:53Z</time>
      </trkpt>
      <trkpt lat="43.43341" lon="2.64012">
        <ele>743.5</ele>
        <time>2022-06-21T11:58:54Z</time>
      </trkpt>
      <trkpt lat="43.43341" lon="2.64012">
        <ele>743.5</ele>
        <time>2022-06-21T11:58:55Z</time>
      </trkpt>
      <trkpt lat="43.43341" lon="2.64012">
        <ele>743.5</ele>
        <time>2022-06-21T11:58:56Z</time>
      </trkpt>
      <trkpt lat="43.43341" lon="2.64012">
        <ele>743.5</ele>
        <time>2022-06-21T11:58:57Z</time>
      </trkpt>
      <trkpt lat="43.43341" lon="2.64012">
        <ele>743.6</ele>
        <time>2022-06-21T11:58:58Z</time>
      </trkpt>
      <trkpt lat="43.43341" lon="2.64012">
        <ele>743.6</ele>
        <time>2022-06-21T11:58:59Z</time>
      </trkpt>
      <trkpt lat="43.43341" lon="2.64012">
        <ele>743.6</ele>
        <time>2022-06-21T11:59:00Z</time>
      </trkpt>
      <trkpt lat="43.43341" lon="2.64012">
        <ele>743.6</ele>
        <time>2022-06-21T11:59:01Z</time>
      </trkpt>
      <trkpt lat="43.43341" lon="2.64012">
        <ele>743.6</ele>
        <time>2022-06-21T11:59:02Z</time>
      </trkpt>
      <trkpt lat="43.43341" lon="2.64012">
        <ele>743.6</ele>
        <time>2022-06-21T11:59:03Z</time>
      </trkpt>
      <trkpt lat="43.43341" lon="2.64012">
        <ele>743.6</ele>
        <time>2022-06-21T11:59:04Z</time>
      </trkpt>
      <trkpt lat="43.43341" lon="2.64012">
        <ele>743.6</ele>
        <time>2022-06-21T11:59:05Z</time>
      </trkpt>
      <trkpt lat="43.43341" lon="2.64012">
        <ele>743.6</ele>
        <time>2022-06-21T11:59:06Z</time>
      </trkpt>
      <trkpt lat="43.43341" lon="2.64012">
        <ele>743.6</ele>
        <time>2022-06-21T11:59:07Z</time>
      </trkpt>
      <trkpt lat="43.43341" lon="2.64012">
        <ele>743.6</ele>
        <time>2022-06-21T11:59:08Z</time>
      </trkpt>
      <trkpt lat="43.43341" lon="2.64012">
        <ele>743.6</ele>
        <time>2022-06-21T11:59:09Z</time>
      </trkpt>
      <trkpt lat="43.43341" lon="2.64012">
        <ele>743.6</ele>
        <time>2022-06-21T11:59:10Z</time>
      </trkpt>
      <trkpt lat="43.43341" lon="2.64012">
        <ele>743.6</ele>
        <time>2022-06-21T11:59:11Z</time>
      </trkpt>
      <trkpt lat="43.43341" lon="2.64012">
        <ele>743.6</ele>
        <time>2022-06-21T11:59:12Z</time>
      </trkpt>
      <trkpt lat="43.43341" lon="2.64012">
        <ele>743.6</ele>
        <time>2022-06-21T11:59:13Z</time>
      </trkpt>
      <trkpt lat="43.43341" lon="2.64012">
        <ele>743.6</ele>
        <time>2022-06-21T11:59:14Z</time>
      </trkpt>
      <trkpt lat="43.43341" lon="2.64012">
        <ele>743.6</ele>
        <time>2022-06-21T11:59:15Z</time>
      </trkpt>
      <trkpt lat="43.43341" lon="2.64012">
        <ele>743.6</ele>
        <time>2022-06-21T11:59:16Z</time>
      </trkpt>
      <trkpt lat="43.43341" lon="2.64012">
        <ele>743.6</ele>
        <time>2022-06-21T11:59:17Z</time>
      </trkpt>
      <trkpt lat="43.43341" lon="2.64012">
        <ele>743.6</ele>
        <time>2022-06-21T11:59:18Z</time>
      </trkpt>
      <trkpt lat="43.43341" lon="2.64012">
        <ele>743.6</ele>
        <time>2022-06-21T11:59:19Z</time>
      </trkpt>
      <trkpt lat="43.43341" lon="2.64012">
        <ele>743.6</ele>
        <time>2022-06-21T11:59:20Z</time>
      </trkpt>
      <trkpt lat="43.43341" lon="2.64012">
        <ele>743.6</ele>
        <time>2022-06-21T11:59:21Z</time>
      </trkpt>
      <trkpt lat="43.43341" lon="2.64012">
        <ele>743.6</ele>
        <time>2022-06-21T11:59:22Z</time>
      </trkpt>
      <trkpt lat="43.43341" lon="2.64012">
        <ele>743.6</ele>
        <time>2022-06-21T11:59:23Z</time>
      </trkpt>
      <trkpt lat="43.43341" lon="2.64012">
        <ele>743.6</ele>
        <time>2022-06-21T11:59:24Z</time>
      </trkpt>
      <trkpt lat="43.43341" lon="2.64012">
        <ele>743.6</ele>
        <time>2022-06-21T11:59:25Z</time>
      </trkpt>
      <trkpt lat="43.43341" lon="2.64012">
        <ele>743.6</ele>
        <time>2022-06-21T11:59:26Z</time>
      </trkpt>
      <trkpt lat="43.43341" lon="2.64012">
        <ele>743.6</ele>
        <time>2022-06-21T11:59:27Z</time>
      </trkpt>
      <trkpt lat="43.43341" lon="2.64012">
        <ele>743.6</ele>
        <time>2022-06-21T11:59:28Z</time>
      </trkpt>
      <trkpt lat="43.43341" lon="2.64012">
        <ele>743.6</ele>
        <time>2022-06-21T11:59:29Z</time>
      </trkpt>
      <trkpt lat="43.43341" lon="2.64012">
        <ele>743.6</ele>
        <time>2022-06-21T11:59:30Z</time>
      </trkpt>
      <trkpt lat="43.43341" lon="2.64012">
        <ele>743.6</ele>
        <time>2022-06-21T11:59:31Z</time>
      </trkpt>
      <trkpt lat="43.43341" lon="2.64012">
        <ele>743.6</ele>
        <time>2022-06-21T11:59:32Z</time>
      </trkpt>
      <trkpt lat="43.43341" lon="2.64012">
        <ele>743.6</ele>
        <time>2022-06-21T11:59:33Z</time>
      </trkpt>
      <trkpt lat="43.43341" lon="2.64012">
        <ele>743.6</ele>
        <time>2022-06-21T11:59:34Z</time>
      </trkpt>
      <trkpt lat="43.43341" lon="2.64012">
        <ele>743.6</ele>
        <time>2022-06-21T11:59:35Z</time>
      </trkpt>
      <trkpt lat="43.43341" lon="2.64012">
        <ele>743.6</ele>
        <time>2022-06-21T11:59:36Z</time>
      </trkpt>
      <trkpt lat="43.43341" lon="2.64012">
        <ele>743.6</ele>
        <time>2022-06-21T11:59:37Z</time>
      </trkpt>
      <trkpt lat="43.43341" lon="2.64012">
        <ele>743.6</ele>
        <time>2022-06-21T11:59:38Z</time>
      </trkpt>
      <trkpt lat="43.43341" lon="2.64012">
        <ele>743.6</ele>
        <time>2022-06-21T11:59:39Z</time>
      </trkpt>
      <trkpt lat="43.43342" lon="2.64012">
        <ele>743.6</ele>
        <time>2022-06-21T11:59:40Z</time>
      </trkpt>
      <trkpt lat="43.43342" lon="2.64012">
        <ele>743.6</ele>
        <time>2022-06-21T11:59:41Z</time>
      </trkpt>
      <trkpt lat="43.43342" lon="2.64012">
        <ele>743.6</ele>
        <time>2022-06-21T11:59:42Z</time>
      </trkpt>
      <trkpt lat="43.43342" lon="2.64012">
        <ele>743.6</ele>
        <time>2022-06-21T11:59:43Z</time>
      </trkpt>
      <trkpt lat="43.43342" lon="2.64012">
        <ele>743.6</ele>
        <time>2022-06-21T11:59:44Z</time>
      </trkpt>
      <trkpt lat="43.43342" lon="2.64012">
        <ele>743.6</ele>
        <time>2022-06-21T11:59:45Z</time>
      </trkpt>
      <trkpt lat="43.43342" lon="2.64012">
        <ele>743.6</ele>
        <time>2022-06-21T11:59:46Z</time>
      </trkpt>
      <trkpt lat="43.43342" lon="2.64012">
        <ele>743.6</ele>
        <time>2022-06-21T11:59:47Z</time>
      </trkpt>
      <trkpt lat="43.43342" lon="2.64012">
        <ele>743.6</ele>
        <time>2022-06-21T11:59:48Z</time>
      </trkpt>
      <trkpt lat="43.43342" lon="2.64012">
        <ele>743.6</ele>
        <time>2022-06-21T11:59:49Z</time>
      </trkpt>
      <trkpt lat="43.43342" lon="2.64012">
        <ele>743.7</ele>
        <time>2022-06-21T11:59:50Z</time>
      </trkpt>
      <trkpt lat="43.43342" lon="2.64012">
        <ele>743.7</ele>
        <time>2022-06-21T11:59:51Z</time>
      </trkpt>
      <trkpt lat="43.43342" lon="2.64012">
        <ele>743.7</ele>
        <time>2022-06-21T11:59:52Z</time>
      </trkpt>
      <trkpt lat="43.43342" lon="2.64012">
        <ele>743.7</ele>
        <time>2022-06-21T11:59:53Z</time>
      </trkpt>
      <trkpt lat="43.43342" lon="2.64012">
        <ele>743.7</ele>
        <time>2022-06-21T11:59:54Z</time>
      </trkpt>
      <trkpt lat="43.43342" lon="2.64012">
        <ele>743.7</ele>
        <time>2022-06-21T11:59:55Z</time>
      </trkpt>
      <trkpt lat="43.43342" lon="2.64012">
        <ele>743.7</ele>
        <time>2022-06-21T11:59:56Z</time>
      </trkpt>
      <trkpt lat="43.43342" lon="2.64012">
        <ele>743.7</ele>
        <time>2022-06-21T11:59:57Z</time>
      </trkpt>
      <trkpt lat="43.43342" lon="2.64012">
        <ele>743.7</ele>
        <time>2022-06-21T11:59:58Z</time>
      </trkpt>
      <trkpt lat="43.43342" lon="2.64012">
        <ele>743.7</ele>
        <time>2022-06-21T11:59:59Z</time>
      </trkpt>
      <trkpt lat="43.43342" lon="2.64012">
        <ele>743.7</ele>
        <time>2022-06-21T12:00:00Z</time>
      </trkpt>
      <trkpt lat="43.43342" lon="2.64012">
        <ele>743.7</ele>
        <time>2022-06-21T12:00:01Z</time>
      </trkpt>
      <trkpt lat="43.43342" lon="2.64012">
        <ele>743.7</ele>
        <time>2022-06-21T12:00:02Z</time>
      </trkpt>
      <trkpt lat="43.43342" lon="2.64012">
        <ele>743.7</ele>
        <time>2022-06-21T12:00:03Z</time>
      </trkpt>
      <trkpt lat="43.43342" lon="2.64012">
        <ele>743.7</ele>
        <time>2022-06-21T12:00:04Z</time>
      </trkpt>
      <trkpt lat="43.43342" lon="2.64012">
        <ele>743.7</ele>
        <time>2022-06-21T12:00:05Z</time>
      </trkpt>
      <trkpt lat="43.43342" lon="2.64012">
        <ele>743.7</ele>
        <time>2022-06-21T12:00:07Z</time>
      </trkpt>
      <trkpt lat="43.43342" lon="2.64012">
        <ele>743.7</ele>
        <time>2022-06-21T12:00:09Z</time>
      </trkpt>
      <trkpt lat="43.43342" lon="2.64012">
        <ele>743.7</ele>
        <time>2022-06-21T12:00:10Z</time>
      </trkpt>
      <trkpt lat="43.43342" lon="2.64012">
        <ele>743.7</ele>
        <time>2022-06-21T12:00:11Z</time>
      </trkpt>
      <trkpt lat="43.43342" lon="2.64012">
        <ele>743.7</ele>
        <time>2022-06-21T12:00:12Z</time>
      </trkpt>
      <trkpt lat="43.43342" lon="2.64012">
        <ele>743.7</ele>
        <time>2022-06-21T12:00:13Z</time>
      </trkpt>
      <trkpt lat="43.43342" lon="2.64012">
        <ele>743.7</ele>
        <time>2022-06-21T12:00:14Z</time>
      </trkpt>
      <trkpt lat="43.43342" lon="2.64012">
        <ele>743.7</ele>
        <time>2022-06-21T12:00:15Z</time>
      </trkpt>
      <trkpt lat="43.43342" lon="2.64012">
        <ele>743.7</ele>
        <time>2022-06-21T12:00:16Z</time>
      </trkpt>
      <trkpt lat="43.43342" lon="2.64012">
        <ele>743.7</ele>
        <time>2022-06-21T12:00:17Z</time>
      </trkpt>
      <trkpt lat="43.43342" lon="2.64012">
        <ele>743.7</ele>
        <time>2022-06-21T12:00:18Z</time>
      </trkpt>
      <trkpt lat="43.43342" lon="2.64012">
        <ele>743.7</ele>
        <time>2022-06-21T12:00:19Z</time>
      </trkpt>
      <trkpt lat="43.43342" lon="2.64012">
        <ele>743.7</ele>
        <time>2022-06-21T12:00:20Z</time>
      </trkpt>
      <trkpt lat="43.43342" lon="2.64012">
        <ele>743.7</ele>
        <time>2022-06-21T12:00:21Z</time>
      </trkpt>
      <trkpt lat="43.43342" lon="2.64012">
        <ele>743.7</ele>
        <time>2022-06-21T12:00:22Z</time>
      </trkpt>
      <trkpt lat="43.43342" lon="2.64012">
        <ele>743.7</ele>
        <time>2022-06-21T12:00:23Z</time>
      </trkpt>
      <trkpt lat="43.43342" lon="2.64012">
        <ele>743.7</ele>
        <time>2022-06-21T12:00:24Z</time>
      </trkpt>
      <trkpt lat="43.43342" lon="2.64012">
        <ele>743.7</ele>
        <time>2022-06-21T12:00:25Z</time>
      </trkpt>
      <trkpt lat="43.43342" lon="2.64012">
        <ele>743.7</ele>
        <time>2022-06-21T12:00:26Z</time>
      </trkpt>
      <trkpt lat="43.43342" lon="2.64012">
        <ele>743.7</ele>
        <time>2022-06-21T12:00:27Z</time>
      </trkpt>
      <trkpt lat="43.43342" lon="2.64012">
        <ele>743.7</ele>
        <time>2022-06-21T12:00:28Z</time>
      </trkpt>
      <trkpt lat="43.43342" lon="2.64012">
        <ele>743.7</ele>
        <time>2022-06-21T12:00:29Z</time>
      </trkpt>
      <trkpt lat="43.43342" lon="2.64012">
        <ele>743.7</ele>
        <time>2022-06-21T12:00:30Z</time>
      </trkpt>
      <trkpt lat="43.43343" lon="2.64013">
        <ele>743.7</ele>
        <time>2022-06-21T12:00:31Z</time>
      </trkpt>
      <trkpt lat="43.43343" lon="2.64013">
        <ele>743.7</ele>
        <time>2022-06-21T12:00:32Z</time>
      </trkpt>
      <trkpt lat="43.43343" lon="2.64013">
        <ele>743.7</ele>
        <time>2022-06-21T12:00:33Z</time>
      </trkpt>
      <trkpt lat="43.43343" lon="2.64013">
        <ele>743.7</ele>
        <time>2022-06-21T12:00:34Z</time>
      </trkpt>
      <trkpt lat="43.43343" lon="2.64013">
        <ele>743.7</ele>
        <time>2022-06-21T12:00:35Z</time>
      </trkpt>
      <trkpt lat="43.43343" lon="2.64013">
        <ele>743.7</ele>
        <time>2022-06-21T12:00:36Z</time>
      </trkpt>
      <trkpt lat="43.43343" lon="2.64013">
        <ele>743.7</ele>
        <time>2022-06-21T12:00:37Z</time>
      </trkpt>
      <trkpt lat="43.43343" lon="2.64013">
        <ele>743.7</ele>
        <time>2022-06-21T12:00:38Z</time>
      </trkpt>
      <trkpt lat="43.43343" lon="2.64013">
        <ele>743.7</ele>
        <time>2022-06-21T12:00:39Z</time>
      </trkpt>
      <trkpt lat="43.43343" lon="2.64013">
        <ele>743.7</ele>
        <time>2022-06-21T12:00:40Z</time>
      </trkpt>
      <trkpt lat="43.43343" lon="2.64013">
        <ele>743.7</ele>
        <time>2022-06-21T12:00:41Z</time>
      </trkpt>
      <trkpt lat="43.43343" lon="2.64013">
        <ele>743.7</ele>
        <time>2022-06-21T12:00:42Z</time>
      </trkpt>
      <trkpt lat="43.43343" lon="2.64013">
        <ele>743.7</ele>
        <time>2022-06-21T12:00:43Z</time>
      </trkpt>
      <trkpt lat="43.43343" lon="2.64013">
        <ele>743.7</ele>
        <time>2022-06-21T12:00:44Z</time>
      </trkpt>
      <trkpt lat="43.43343" lon="2.64013">
        <ele>743.7</ele>
        <time>2022-06-21T12:00:45Z</time>
      </trkpt>
      <trkpt lat="43.43343" lon="2.64013">
        <ele>743.7</ele>
        <time>2022-06-21T12:00:46Z</time>
      </trkpt>
      <trkpt lat="43.43343" lon="2.64013">
        <ele>743.7</ele>
        <time>2022-06-21T12:00:47Z</time>
      </trkpt>
      <trkpt lat="43.43343" lon="2.64013">
        <ele>743.7</ele>
        <time>2022-06-21T12:00:48Z</time>
      </trkpt>
      <trkpt lat="43.43343" lon="2.64013">
        <ele>743.7</ele>
        <time>2022-06-21T12:00:49Z</time>
      </trkpt>
      <trkpt lat="43.43343" lon="2.64013">
        <ele>743.8</ele>
        <time>2022-06-21T12:00:50Z</time>
      </trkpt>
      <trkpt lat="43.43343" lon="2.64013">
        <ele>743.8</ele>
        <time>2022-06-21T12:00:51Z</time>
      </trkpt>
      <trkpt lat="43.43343" lon="2.64013">
        <ele>743.8</ele>
        <time>2022-06-21T12:00:52Z</time>
      </trkpt>
      <trkpt lat="43.43343" lon="2.64013">
        <ele>743.8</ele>
        <time>2022-06-21T12:00:53Z</time>
      </trkpt>
      <trkpt lat="43.43343" lon="2.64013">
        <ele>743.8</ele>
        <time>2022-06-21T12:00:54Z</time>
      </trkpt>
      <trkpt lat="43.43343" lon="2.64013">
        <ele>743.8</ele>
        <time>2022-06-21T12:00:55Z</time>
      </trkpt>
      <trkpt lat="43.43343" lon="2.64013">
        <ele>743.8</ele>
        <time>2022-06-21T12:00:56Z</time>
      </trkpt>
      <trkpt lat="43.43343" lon="2.64013">
        <ele>743.8</ele>
        <time>2022-06-21T12:00:57Z</time>
      </trkpt>
      <trkpt lat="43.43343" lon="2.64013">
        <ele>743.8</ele>
        <time>2022-06-21T12:00:58Z</time>
      </trkpt>
      <trkpt lat="43.43343" lon="2.64013">
        <ele>743.8</ele>
        <time>2022-06-21T12:00:59Z</time>
      </trkpt>
      <trkpt lat="43.43343" lon="2.64013">
        <ele>743.8</ele>
        <time>2022-06-21T12:01:00Z</time>
      </trkpt>
      <trkpt lat="43.43343" lon="2.64013">
        <ele>743.8</ele>
        <time>2022-06-21T12:01:01Z</time>
      </trkpt>
      <trkpt lat="43.43343" lon="2.64013">
        <ele>743.8</ele>
        <time>2022-06-21T12:01:02Z</time>
      </trkpt>
      <trkpt lat="43.43343" lon="2.64013">
        <ele>743.8</ele>
        <time>2022-06-21T12:01:03Z</time>
      </trkpt>
      <trkpt lat="43.43343" lon="2.64013">
        <ele>743.8</ele>
        <time>2022-06-21T12:01:04Z</time>
      </trkpt>
      <trkpt lat="43.43343" lon="2.64013">
        <ele>743.8</ele>
        <time>2022-06-21T12:01:05Z</time>
      </trkpt>
      <trkpt lat="43.43343" lon="2.64013">
        <ele>743.8</ele>
        <time>2022-06-21T12:01:06Z</time>
      </trkpt>
      <trkpt lat="43.43343" lon="2.64013">
        <ele>743.8</ele>
        <time>2022-06-21T12:01:07Z</time>
      </trkpt>
      <trkpt lat="43.43343" lon="2.64013">
        <ele>743.8</ele>
        <time>2022-06-21T12:01:08Z</time>
      </trkpt>
      <trkpt lat="43.43343" lon="2.64013">
        <ele>743.8</ele>
        <time>2022-06-21T12:01:09Z</time>
      </trkpt>
      <trkpt lat="43.43343" lon="2.64013">
        <ele>743.8</ele>
        <time>2022-06-21T12:01:10Z</time>
      </trkpt>
      <trkpt lat="43.43343" lon="2.64013">
        <ele>743.8</ele>
        <time>2022-06-21T12:01:11Z</time>
      </trkpt>
      <trkpt lat="43.43343" lon="2.64013">
        <ele>743.8</ele>
        <time>2022-06-21T12:01:12Z</time>
      </trkpt>
      <trkpt lat="43.43343" lon="2.64013">
        <ele>743.8</ele>
        <time>2022-06-21T12:01:13Z</time>
      </trkpt>
      <trkpt lat="43.43343" lon="2.64013">
        <ele>743.8</ele>
        <time>2022-06-21T12:01:14Z</time>
      </trkpt>
      <trkpt lat="43.43343" lon="2.64013">
        <ele>743.8</ele>
        <time>2022-06-21T12:01:15Z</time>
      </trkpt>
      <trkpt lat="43.43343" lon="2.64013">
        <ele>743.8</ele>
        <time>2022-06-21T12:01:16Z</time>
      </trkpt>
      <trkpt lat="43.43343" lon="2.64013">
        <ele>743.8</ele>
        <time>2022-06-21T12:01:17Z</time>
      </trkpt>
      <trkpt lat="43.43343" lon="2.64013">
        <ele>743.8</ele>
        <time>2022-06-21T12:01:18Z</time>
      </trkpt>
      <trkpt lat="43.43344" lon="2.64013">
        <ele>743.8</ele>
        <time>2022-06-21T12:01:19Z</time>
      </trkpt>
      <trkpt lat="43.43344" lon="2.64013">
        <ele>743.8</ele>
        <time>2022-06-21T12:01:20Z</time>
      </trkpt>
      <trkpt lat="43.43344" lon="2.64013">
        <ele>743.8</ele>
        <time>2022-06-21T12:01:21Z</time>
      </trkpt>
      <trkpt lat="43.43344" lon="2.64013">
        <ele>743.8</ele>
        <time>2022-06-21T12:01:22Z</time>
      </trkpt>
      <trkpt lat="43.43344" lon="2.64013">
        <ele>743.8</ele>
        <time>2022-06-21T12:01:23Z</time>
      </trkpt>
      <trkpt lat="43.43344" lon="2.64013">
        <ele>743.8</ele>
        <time>2022-06-21T12:01:24Z</time>
      </trkpt>
      <trkpt lat="43.43344" lon="2.64013">
        <ele>743.8</ele>
        <time>2022-06-21T12:01:25Z</time>
      </trkpt>
      <trkpt lat="43.43344" lon="2.64013">
        <ele>743.8</ele>
        <time>2022-06-21T12:01:26Z</time>
      </trkpt>
      <trkpt lat="43.43344" lon="2.64013">
        <ele>743.8</ele>
        <time>2022-06-21T12:01:27Z</time>
      </trkpt>
      <trkpt lat="43.43344" lon="2.64013">
        <ele>743.8</ele>
        <time>2022-06-21T12:01:28Z</time>
      </trkpt>
      <trkpt lat="43.43344" lon="2.64013">
        <ele>743.8</ele>
        <time>2022-06-21T12:01:29Z</time>
      </trkpt>
      <trkpt lat="43.43344" lon="2.64013">
        <ele>743.8</ele>
        <time>2022-06-21T12:01:30Z</time>
      </trkpt>
      <trkpt lat="43.43344" lon="2.64013">
        <ele>743.8</ele>
        <time>2022-06-21T12:01:31Z</time>
      </trkpt>
      <trkpt lat="43.43344" lon="2.64013">
        <ele>743.8</ele>
        <time>2022-06-21T12:01:32Z</time>
      </trkpt>
      <trkpt lat="43.43344" lon="2.64013">
        <ele>743.8</ele>
        <time>2022-06-21T12:01:33Z</time>
      </trkpt>
      <trkpt lat="43.43344" lon="2.64013">
        <ele>743.8</ele>
        <time>2022-06-21T12:01:34Z</time>
      </trkpt>
      <trkpt lat="43.43344" lon="2.64013">
        <ele>743.8</ele>
        <time>2022-06-21T12:01:35Z</time>
      </trkpt>
      <trkpt lat="43.43344" lon="2.64013">
        <ele>743.8</ele>
        <time>2022-06-21T12:01:36Z</time>
      </trkpt>
      <trkpt lat="43.43344" lon="2.64013">
        <ele>743.8</ele>
        <time>2022-06-21T12:01:37Z</time>
      </trkpt>
      <trkpt lat="43.43344" lon="2.64013">
        <ele>743.8</ele>
        <time>2022-06-21T12:01:38Z</time>
      </trkpt>
      <trkpt lat="43.43344" lon="2.64013">
        <ele>743.8</ele>
        <time>2022-06-21T12:01:39Z</time>
      </trkpt>
      <trkpt lat="43.43347" lon="2.64015">
        <ele>744.1</ele>
        <time>2022-06-21T12:01:40Z</time>
      </trkpt>
      <trkpt lat="43.4335" lon="2.64016">
        <ele>744.3</ele>
        <time>2022-06-21T12:01:41Z</time>
      </trkpt>
      <trkpt lat="43.43351" lon="2.64017">
        <ele>744.4</ele>
        <time>2022-06-21T12:01:42Z</time>
      </trkpt>
      <trkpt lat="43.43353" lon="2.64018">
        <ele>744.6</ele>
        <time>2022-06-21T12:01:43Z</time>
      </trkpt>
      <trkpt lat="43.43355" lon="2.64019">
        <ele>744.7</ele>
        <time>2022-06-21T12:01:44Z</time>
      </trkpt>
      <trkpt lat="43.43355" lon="2.64019">
        <ele>744.8</ele>
        <time>2022-06-21T12:01:45Z</time>
      </trkpt>
      <trkpt lat="43.43355" lon="2.64019">
        <ele>744.8</ele>
        <time>2022-06-21T12:01:46Z</time>
      </trkpt>
      <trkpt lat="43.43356" lon="2.64019">
        <ele>744.8</ele>
        <time>2022-06-21T12:01:47Z</time>
      </trkpt>
      <trkpt lat="43.43356" lon="2.6402">
        <ele>744.9</ele>
        <time>2022-06-21T12:01:48Z</time>
      </trkpt>
      <trkpt lat="43.43357" lon="2.6402">
        <ele>744.9</ele>
        <time>2022-06-21T12:01:49Z</time>
      </trkpt>
      <trkpt lat="43.43357" lon="2.6402">
        <ele>744.9</ele>
        <time>2022-06-21T12:01:50Z</time>
      </trkpt>
      <trkpt lat="43.43357" lon="2.6402">
        <ele>745</ele>
        <time>2022-06-21T12:01:51Z</time>
      </trkpt>
      <trkpt lat="43.43358" lon="2.6402">
        <ele>745</ele>
        <time>2022-06-21T12:01:52Z</time>
      </trkpt>
      <trkpt lat="43.43358" lon="2.64021">
        <ele>745</ele>
        <time>2022-06-21T12:01:53Z</time>
      </trkpt>
      <trkpt lat="43.43359" lon="2.64021">
        <ele>745.1</ele>
        <time>2022-06-21T12:01:54Z</time>
      </trkpt>
      <trkpt lat="43.43359" lon="2.64021">
        <ele>745.1</ele>
        <time>2022-06-21T12:01:55Z</time>
      </trkpt>
      <trkpt lat="43.43362" lon="2.64023">
        <ele>745.4</ele>
        <time>2022-06-21T12:01:56Z</time>
      </trkpt>
      <trkpt lat="43.43364" lon="2.64024">
        <ele>745.5</ele>
        <time>2022-06-21T12:01:57Z</time>
      </trkpt>
      <trkpt lat="43.43364" lon="2.64025">
        <ele>745.6</ele>
        <time>2022-06-21T12:01:58Z</time>
      </trkpt>
      <trkpt lat="43.43364" lon="2.64025">
        <ele>745.6</ele>
        <time>2022-06-21T12:01:59Z</time>
      </trkpt>
      <trkpt lat="43.43364" lon="2.64025">
        <ele>745.6</ele>
        <time>2022-06-21T12:02:00Z</time>
      </trkpt>
      <trkpt lat="43.43364" lon="2.64025">
        <ele>745.6</ele>
        <time>2022-06-21T12:02:01Z</time>
      </trkpt>
      <trkpt lat="43.43364" lon="2.64025">
        <ele>745.6</ele>
        <time>2022-06-21T12:02:02Z</time>
      </trkpt>
      <trkpt lat="43.43365" lon="2.64025">
        <ele>745.6</ele>
        <time>2022-06-21T12:02:03Z</time>
      </trkpt>
      <trkpt lat="43.43366" lon="2.64026">
        <ele>745.8</ele>
        <time>2022-06-21T12:02:04Z</time>
      </trkpt>
      <trkpt lat="43.43367" lon="2.64027">
        <ele>745.8</ele>
        <time>2022-06-21T12:02:05Z</time>
      </trkpt>
      <trkpt lat="43.43369" lon="2.64028">
        <ele>745.9</ele>
        <time>2022-06-21T12:02:06Z</time>
      </trkpt>
      <trkpt lat="43.4337" lon="2.64029">
        <ele>746.1</ele>
        <time>2022-06-21T12:02:07Z</time>
      </trkpt>
      <trkpt lat="43.43372" lon="2.64031">
        <ele>746.2</ele>
        <time>2022-06-21T12:02:08Z</time>
      </trkpt>
      <trkpt lat="43.43373" lon="2.64032">
        <ele>746.3</ele>
        <time>2022-06-21T12:02:09Z</time>
      </trkpt>
      <trkpt lat="43.43373" lon="2.64032">
        <ele>746.3</ele>
        <time>2022-06-21T12:02:10Z</time>
      </trkpt>
      <trkpt lat="43.43373" lon="2.64032">
        <ele>746.3</ele>
        <time>2022-06-21T12:02:11Z</time>
      </trkpt>
      <trkpt lat="43.43373" lon="2.64032">
        <ele>746.3</ele>
        <time>2022-06-21T12:02:12Z</time>
      </trkpt>
      <trkpt lat="43.43373" lon="2.64032">
        <ele>746.3</ele>
        <time>2022-06-21T12:02:13Z</time>
      </trkpt>
      <trkpt lat="43.43373" lon="2.64032">
        <ele>746.3</ele>
        <time>2022-06-21T12:02:14Z</time>
      </trkpt>
      <trkpt lat="43.43374" lon="2.64032">
        <ele>746.4</ele>
        <time>2022-06-21T12:02:15Z</time>
      </trkpt>
      <trkpt lat="43.43376" lon="2.64032">
        <ele>746.5</ele>
        <time>2022-06-21T12:02:16Z</time>
      </trkpt>
      <trkpt lat="43.43378" lon="2.64031">
        <ele>746.6</ele>
        <time>2022-06-21T12:02:17Z</time>
      </trkpt>
      <trkpt lat="43.43379" lon="2.64031">
        <ele>746.7</ele>
        <time>2022-06-21T12:02:18Z</time>
      </trkpt>
      <trkpt lat="43.4338" lon="2.64031">
        <ele>746.8</ele>
        <time>2022-06-21T12:02:19Z</time>
      </trkpt>
      <trkpt lat="43.43382" lon="2.6403">
        <ele>747</ele>
        <time>2022-06-21T12:02:20Z</time>
      </trkpt>
      <trkpt lat="43.43383" lon="2.6403">
        <ele>747.1</ele>
        <time>2022-06-21T12:02:21Z</time>
      </trkpt>
      <trkpt lat="43.43384" lon="2.6403">
        <ele>747.1</ele>
        <time>2022-06-21T12:02:22Z</time>
      </trkpt>
      <trkpt lat="43.43385" lon="2.6403">
        <ele>747.2</ele>
        <time>2022-06-21T12:02:23Z</time>
      </trkpt>
      <trkpt lat="43.43386" lon="2.6403">
        <ele>747.3</ele>
        <time>2022-06-21T12:02:24Z</time>
      </trkpt>
      <trkpt lat="43.43387" lon="2.64031">
        <ele>747.4</ele>
        <time>2022-06-21T12:02:25Z</time>
      </trkpt>
      <trkpt lat="43.43388" lon="2.64031">
        <ele>747.5</ele>
        <time>2022-06-21T12:02:26Z</time>
      </trkpt>
      <trkpt lat="43.43389" lon="2.64031">
        <ele>747.5</ele>
        <time>2022-06-21T12:02:27Z</time>
      </trkpt>
      <trkpt lat="43.43389" lon="2.64031">
        <ele>747.5</ele>
        <time>2022-06-21T12:02:28Z</time>
      </trkpt>
      <trkpt lat="43.43389" lon="2.64031">
        <ele>747.5</ele>
        <time>2022-06-21T12:02:29Z</time>
      </trkpt>
      <trkpt lat="43.4339" lon="2.64031">
        <ele>747.6</ele>
        <time>2022-06-21T12:02:30Z</time>
      </trkpt>
      <trkpt lat="43.43392" lon="2.64031">
        <ele>747.7</ele>
        <time>2022-06-21T12:02:31Z</time>
      </trkpt>
      <trkpt lat="43.43393" lon="2.64031">
        <ele>747.8</ele>
        <time>2022-06-21T12:02:32Z</time>
      </trkpt>
      <trkpt lat="43.43394" lon="2.64031">
        <ele>747.9</ele>
        <time>2022-06-21T12:02:33Z</time>
      </trkpt>
      <trkpt lat="43.43395" lon="2.64031">
        <ele>748</ele>
        <time>2022-06-21T12:02:34Z</time>
      </trkpt>
      <trkpt lat="43.43397" lon="2.64032">
        <ele>748.1</ele>
        <time>2022-06-21T12:02:35Z</time>
      </trkpt>
      <trkpt lat="43.43398" lon="2.64032">
        <ele>748.2</ele>
        <time>2022-06-21T12:02:36Z</time>
      </trkpt>
      <trkpt lat="43.43399" lon="2.64033">
        <ele>748.2</ele>
        <time>2022-06-21T12:02:37Z</time>
      </trkpt>
      <trkpt lat="43.434" lon="2.64033">
        <ele>748.3</ele>
        <time>2022-06-21T12:02:38Z</time>
      </trkpt>
      <trkpt lat="43.43401" lon="2.64033">
        <ele>748.4</ele>
        <time>2022-06-21T12:02:39Z</time>
      </trkpt>
      <trkpt lat="43.43401" lon="2.64033">
        <ele>748.4</ele>
        <time>2022-06-21T12:02:40Z</time>
      </trkpt>
      <trkpt lat="43.43401" lon="2.64033">
        <ele>748.4</ele>
        <time>2022-06-21T12:02:41Z</time>
      </trkpt>
      <trkpt lat="43.43401" lon="2.64033">
        <ele>748.4</ele>
        <time>2022-06-21T12:02:42Z</time>
      </trkpt>
      <trkpt lat="43.43401" lon="2.64033">
        <ele>748.4</ele>
        <time>2022-06-21T12:02:43Z</time>
      </trkpt>
      <trkpt lat="43.43401" lon="2.64033">
        <ele>748.4</ele>
        <time>2022-06-21T12:02:44Z</time>
      </trkpt>
      <trkpt lat="43.43401" lon="2.64034">
        <ele>748.4</ele>
        <time>2022-06-21T12:02:45Z</time>
      </trkpt>
      <trkpt lat="43.43403" lon="2.64034">
        <ele>748.5</ele>
        <time>2022-06-21T12:02:46Z</time>
      </trkpt>
      <trkpt lat="43.43405" lon="2.64034">
        <ele>748.6</ele>
        <time>2022-06-21T12:02:47Z</time>
      </trkpt>
      <trkpt lat="43.43406" lon="2.64034">
        <ele>748.7</ele>
        <time>2022-06-21T12:02:48Z</time>
      </trkpt>
      <trkpt lat="43.43407" lon="2.64034">
        <ele>748.8</ele>
        <time>2022-06-21T12:02:49Z</time>
      </trkpt>
      <trkpt lat="43.43408" lon="2.64035">
        <ele>748.9</ele>
        <time>2022-06-21T12:02:50Z</time>
      </trkpt>
      <trkpt lat="43.43409" lon="2.64035">
        <ele>748.9</ele>
        <time>2022-06-21T12:02:51Z</time>
      </trkpt>
      <trkpt lat="43.4341" lon="2.64035">
        <ele>749</ele>
        <time>2022-06-21T12:02:52Z</time>
      </trkpt>
      <trkpt lat="43.43411" lon="2.64036">
        <ele>749.1</ele>
        <time>2022-06-21T12:02:53Z</time>
      </trkpt>
      <trkpt lat="43.43412" lon="2.64036">
        <ele>749.1</ele>
        <time>2022-06-21T12:02:54Z</time>
      </trkpt>
      <trkpt lat="43.43413" lon="2.64036">
        <ele>749.2</ele>
        <time>2022-06-21T12:02:55Z</time>
      </trkpt>
      <trkpt lat="43.43413" lon="2.64036">
        <ele>749.3</ele>
        <time>2022-06-21T12:02:56Z</time>
      </trkpt>
      <trkpt lat="43.43415" lon="2.64036">
        <ele>749.4</ele>
        <time>2022-06-21T12:02:57Z</time>
      </trkpt>
      <trkpt lat="43.43416" lon="2.64037">
        <ele>749.5</ele>
        <time>2022-06-21T12:02:58Z</time>
      </trkpt>
      <trkpt lat="43.43418" lon="2.64037">
        <ele>749.7</ele>
        <time>2022-06-21T12:02:59Z</time>
      </trkpt>
      <trkpt lat="43.43419" lon="2.64037">
        <ele>749.8</ele>
        <time>2022-06-21T12:03:00Z</time>
      </trkpt>
      <trkpt lat="43.4342" lon="2.64037">
        <ele>749.9</ele>
        <time>2022-06-21T12:03:01Z</time>
      </trkpt>
      <trkpt lat="43.43421" lon="2.64037">
        <ele>750</ele>
        <time>2022-06-21T12:03:02Z</time>
      </trkpt>
      <trkpt lat="43.43422" lon="2.64037">
        <ele>750.1</ele>
        <time>2022-06-21T12:03:03Z</time>
      </trkpt>
      <trkpt lat="43.43423" lon="2.64036">
        <ele>750.1</ele>
        <time>2022-06-21T12:03:04Z</time>
      </trkpt>
      <trkpt lat="43.43423" lon="2.64036">
        <ele>750.1</ele>
        <time>2022-06-21T12:03:05Z</time>
      </trkpt>
      <trkpt lat="43.43424" lon="2.64036">
        <ele>750.2</ele>
        <time>2022-06-21T12:03:06Z</time>
      </trkpt>
      <trkpt lat="43.43425" lon="2.64036">
        <ele>750.3</ele>
        <time>2022-06-21T12:03:07Z</time>
      </trkpt>
      <trkpt lat="43.43426" lon="2.64036">
        <ele>750.4</ele>
        <time>2022-06-21T12:03:08Z</time>
      </trkpt>
      <trkpt lat="43.43427" lon="2.64036">
        <ele>750.5</ele>
        <time>2022-06-21T12:03:09Z</time>
      </trkpt>
      <trkpt lat="43.43428" lon="2.64036">
        <ele>750.6</ele>
        <time>2022-06-21T12:03:10Z</time>
      </trkpt>
      <trkpt lat="43.43428" lon="2.64036">
        <ele>750.6</ele>
        <time>2022-06-21T12:03:11Z</time>
      </trkpt>
      <trkpt lat="43.43429" lon="2.64036">
        <ele>750.7</ele>
        <time>2022-06-21T12:03:12Z</time>
      </trkpt>
      <trkpt lat="43.4343" lon="2.64035">
        <ele>750.8</ele>
        <time>2022-06-21T12:03:13Z</time>
      </trkpt>
      <trkpt lat="43.43431" lon="2.64035">
        <ele>750.9</ele>
        <time>2022-06-21T12:03:14Z</time>
      </trkpt>
      <trkpt lat="43.43432" lon="2.64035">
        <ele>751</ele>
        <time>2022-06-21T12:03:15Z</time>
      </trkpt>
      <trkpt lat="43.43434" lon="2.64035">
        <ele>751.2</ele>
        <time>2022-06-21T12:03:16Z</time>
      </trkpt>
      <trkpt lat="43.43435" lon="2.64035">
        <ele>751.3</ele>
        <time>2022-06-21T12:03:17Z</time>
      </trkpt>
      <trkpt lat="43.43436" lon="2.64034">
        <ele>751.4</ele>
        <time>2022-06-21T12:03:18Z</time>
      </trkpt>
      <trkpt lat="43.43437" lon="2.64034">
        <ele>751.6</ele>
        <time>2022-06-21T12:03:19Z</time>
      </trkpt>
      <trkpt lat="43.43438" lon="2.64034">
        <ele>751.6</ele>
        <time>2022-06-21T12:03:20Z</time>
      </trkpt>
      <trkpt lat="43.43438" lon="2.64034">
        <ele>751.7</ele>
        <time>2022-06-21T12:03:21Z</time>
      </trkpt>
      <trkpt lat="43.43439" lon="2.64034">
        <ele>751.7</ele>
        <time>2022-06-21T12:03:22Z</time>
      </trkpt>
      <trkpt lat="43.43439" lon="2.64034">
        <ele>751.8</ele>
        <time>2022-06-21T12:03:23Z</time>
      </trkpt>
      <trkpt lat="43.43441" lon="2.64034">
        <ele>752</ele>
        <time>2022-06-21T12:03:24Z</time>
      </trkpt>
      <trkpt lat="43.43442" lon="2.64034">
        <ele>752.1</ele>
        <time>2022-06-21T12:03:25Z</time>
      </trkpt>
      <trkpt lat="43.43444" lon="2.64034">
        <ele>752.3</ele>
        <time>2022-06-21T12:03:26Z</time>
      </trkpt>
      <trkpt lat="43.43445" lon="2.64034">
        <ele>752.4</ele>
        <time>2022-06-21T12:03:27Z</time>
      </trkpt>
      <trkpt lat="43.43446" lon="2.64034">
        <ele>752.5</ele>
        <time>2022-06-21T12:03:28Z</time>
      </trkpt>
      <trkpt lat="43.43447" lon="2.64035">
        <ele>752.6</ele>
        <time>2022-06-21T12:03:29Z</time>
      </trkpt>
      <trkpt lat="43.43448" lon="2.64035">
        <ele>752.7</ele>
        <time>2022-06-21T12:03:30Z</time>
      </trkpt>
      <trkpt lat="43.43449" lon="2.64035">
        <ele>752.8</ele>
        <time>2022-06-21T12:03:31Z</time>
      </trkpt>
      <trkpt lat="43.4345" lon="2.64035">
        <ele>752.9</ele>
        <time>2022-06-21T12:03:32Z</time>
      </trkpt>
      <trkpt lat="43.43451" lon="2.64035">
        <ele>753</ele>
        <time>2022-06-21T12:03:33Z</time>
      </trkpt>
      <trkpt lat="43.43451" lon="2.64035">
        <ele>753</ele>
        <time>2022-06-21T12:03:34Z</time>
      </trkpt>
      <trkpt lat="43.43451" lon="2.64035">
        <ele>753</ele>
        <time>2022-06-21T12:03:35Z</time>
      </trkpt>
      <trkpt lat="43.43452" lon="2.64034">
        <ele>753</ele>
        <time>2022-06-21T12:03:36Z</time>
      </trkpt>
      <trkpt lat="43.43453" lon="2.64034">
        <ele>753.1</ele>
        <time>2022-06-21T12:03:37Z</time>
      </trkpt>
      <trkpt lat="43.43454" lon="2.64034">
        <ele>753.1</ele>
        <time>2022-06-21T12:03:38Z</time>
      </trkpt>
      <trkpt lat="43.43455" lon="2.64034">
        <ele>753.1</ele>
        <time>2022-06-21T12:03:39Z</time>
      </trkpt>
      <trkpt lat="43.43456" lon="2.64034">
        <ele>753.2</ele>
        <time>2022-06-21T12:03:40Z</time>
      </trkpt>
      <trkpt lat="43.43456" lon="2.64034">
        <ele>753.2</ele>
        <time>2022-06-21T12:03:41Z</time>
      </trkpt>
      <trkpt lat="43.43457" lon="2.64034">
        <ele>753.2</ele>
        <time>2022-06-21T12:03:42Z</time>
      </trkpt>
      <trkpt lat="43.43457" lon="2.64034">
        <ele>753.2</ele>
        <time>2022-06-21T12:03:43Z</time>
      </trkpt>
      <trkpt lat="43.43458" lon="2.64034">
        <ele>753.3</ele>
        <time>2022-06-21T12:03:44Z</time>
      </trkpt>
      <trkpt lat="43.43458" lon="2.64034">
        <ele>753.3</ele>
        <time>2022-06-21T12:03:45Z</time>
      </trkpt>
      <trkpt lat="43.43458" lon="2.64034">
        <ele>753.3</ele>
        <time>2022-06-21T12:03:46Z</time>
      </trkpt>
      <trkpt lat="43.43459" lon="2.64034">
        <ele>753.3</ele>
        <time>2022-06-21T12:03:47Z</time>
      </trkpt>
      <trkpt lat="43.43459" lon="2.64034">
        <ele>753.3</ele>
        <time>2022-06-21T12:03:48Z</time>
      </trkpt>
      <trkpt lat="43.43459" lon="2.64034">
        <ele>753.3</ele>
        <time>2022-06-21T12:03:49Z</time>
      </trkpt>
      <trkpt lat="43.43463" lon="2.64035">
        <ele>753.5</ele>
        <time>2022-06-21T12:03:50Z</time>
      </trkpt>
      <trkpt lat="43.43464" lon="2.64035">
        <ele>753.5</ele>
        <time>2022-06-21T12:03:51Z</time>
      </trkpt>
      <trkpt lat="43.43467" lon="2.64036">
        <ele>753.6</ele>
        <time>2022-06-21T12:03:52Z</time>
      </trkpt>
      <trkpt lat="43.43467" lon="2.64036">
        <ele>753.7</ele>
        <time>2022-06-21T12:03:53Z</time>
      </trkpt>
      <trkpt lat="43.43468" lon="2.64036">
        <ele>753.7</ele>
        <time>2022-06-21T12:03:54Z</time>
      </trkpt>
      <trkpt lat="43.43468" lon="2.64036">
        <ele>753.7</ele>
        <time>2022-06-21T12:03:55Z</time>
      </trkpt>
      <trkpt lat="43.43468" lon="2.64036">
        <ele>753.7</ele>
        <time>2022-06-21T12:03:56Z</time>
      </trkpt>
      <trkpt lat="43.43468" lon="2.64036">
        <ele>753.7</ele>
        <time>2022-06-21T12:03:57Z</time>
      </trkpt>
      <trkpt lat="43.43469" lon="2.64035">
        <ele>753.7</ele>
        <time>2022-06-21T12:03:58Z</time>
      </trkpt>
      <trkpt lat="43.43471" lon="2.64035">
        <ele>753.8</ele>
        <time>2022-06-21T12:03:59Z</time>
      </trkpt>
      <trkpt lat="43.43472" lon="2.64034">
        <ele>753.8</ele>
        <time>2022-06-21T12:04:00Z</time>
      </trkpt>
      <trkpt lat="43.43473" lon="2.64034">
        <ele>753.9</ele>
        <time>2022-06-21T12:04:01Z</time>
      </trkpt>
      <trkpt lat="43.43473" lon="2.64034">
        <ele>753.9</ele>
        <time>2022-06-21T12:04:02Z</time>
      </trkpt>
      <trkpt lat="43.43473" lon="2.64034">
        <ele>753.9</ele>
        <time>2022-06-21T12:04:03Z</time>
      </trkpt>
      <trkpt lat="43.43473" lon="2.64034">
        <ele>753.9</ele>
        <time>2022-06-21T12:04:04Z</time>
      </trkpt>
      <trkpt lat="43.43473" lon="2.64034">
        <ele>753.9</ele>
        <time>2022-06-21T12:04:05Z</time>
      </trkpt>
      <trkpt lat="43.43473" lon="2.64034">
        <ele>753.9</ele>
        <time>2022-06-21T12:04:06Z</time>
      </trkpt>
      <trkpt lat="43.43473" lon="2.64034">
        <ele>753.9</ele>
        <time>2022-06-21T12:04:07Z</time>
      </trkpt>
      <trkpt lat="43.43473" lon="2.64034">
        <ele>753.9</ele>
        <time>2022-06-21T12:04:08Z</time>
      </trkpt>
      <trkpt lat="43.43473" lon="2.64034">
        <ele>753.9</ele>
        <time>2022-06-21T12:04:09Z</time>
      </trkpt>
      <trkpt lat="43.43473" lon="2.64034">
        <ele>753.9</ele>
        <time>2022-06-21T12:04:10Z</time>
      </trkpt>
      <trkpt lat="43.43476" lon="2.64033">
        <ele>754</ele>
        <time>2022-06-21T12:04:11Z</time>
      </trkpt>
      <trkpt lat="43.43478" lon="2.64032">
        <ele>754.1</ele>
        <time>2022-06-21T12:04:12Z</time>
      </trkpt>
      <trkpt lat="43.43481" lon="2.64032">
        <ele>754.2</ele>
        <time>2022-06-21T12:04:13Z</time>
      </trkpt>
      <trkpt lat="43.43482" lon="2.64032">
        <ele>754.2</ele>
        <time>2022-06-21T12:04:14Z</time>
      </trkpt>
      <trkpt lat="43.43486" lon="2.64032">
        <ele>754.3</ele>
        <time>2022-06-21T12:04:15Z</time>
      </trkpt>
      <trkpt lat="43.43487" lon="2.64032">
        <ele>754.3</ele>
        <time>2022-06-21T12:04:16Z</time>
      </trkpt>
      <trkpt lat="43.4349" lon="2.64032">
        <ele>754.4</ele>
        <time>2022-06-21T12:04:17Z</time>
      </trkpt>
      <trkpt lat="43.43492" lon="2.64032">
        <ele>754.4</ele>
        <time>2022-06-21T12:04:18Z</time>
      </trkpt>
      <trkpt lat="43.43493" lon="2.64032">
        <ele>754.5</ele>
        <time>2022-06-21T12:04:19Z</time>
      </trkpt>
      <trkpt lat="43.43493" lon="2.64032">
        <ele>754.5</ele>
        <time>2022-06-21T12:04:20Z</time>
      </trkpt>
      <trkpt lat="43.43494" lon="2.64032">
        <ele>754.5</ele>
        <time>2022-06-21T12:04:21Z</time>
      </trkpt>
      <trkpt lat="43.43494" lon="2.64032">
        <ele>754.5</ele>
        <time>2022-06-21T12:04:22Z</time>
      </trkpt>
      <trkpt lat="43.43495" lon="2.64033">
        <ele>754.5</ele>
        <time>2022-06-21T12:04:23Z</time>
      </trkpt>
      <trkpt lat="43.43496" lon="2.64033">
        <ele>754.5</ele>
        <time>2022-06-21T12:04:24Z</time>
      </trkpt>
      <trkpt lat="43.43497" lon="2.64033">
        <ele>754.5</ele>
        <time>2022-06-21T12:04:25Z</time>
      </trkpt>
      <trkpt lat="43.43498" lon="2.64033">
        <ele>754.5</ele>
        <time>2022-06-21T12:04:26Z</time>
      </trkpt>
      <trkpt lat="43.43499" lon="2.64033">
        <ele>754.6</ele>
        <time>2022-06-21T12:04:27Z</time>
      </trkpt>
      <trkpt lat="43.435" lon="2.64033">
        <ele>754.6</ele>
        <time>2022-06-21T12:04:28Z</time>
      </trkpt>
      <trkpt lat="43.43501" lon="2.64033">
        <ele>754.6</ele>
        <time>2022-06-21T12:04:29Z</time>
      </trkpt>
      <trkpt lat="43.43502" lon="2.64033">
        <ele>754.6</ele>
        <time>2022-06-21T12:04:30Z</time>
      </trkpt>
      <trkpt lat="43.43503" lon="2.64033">
        <ele>754.6</ele>
        <time>2022-06-21T12:04:31Z</time>
      </trkpt>
      <trkpt lat="43.43503" lon="2.64032">
        <ele>754.6</ele>
        <time>2022-06-21T12:04:32Z</time>
      </trkpt>
      <trkpt lat="43.43504" lon="2.64032">
        <ele>754.6</ele>
        <time>2022-06-21T12:04:33Z</time>
      </trkpt>
      <trkpt lat="43.43504" lon="2.64032">
        <ele>754.6</ele>
        <time>2022-06-21T12:04:34Z</time>
      </trkpt>
      <trkpt lat="43.43505" lon="2.64032">
        <ele>754.6</ele>
        <time>2022-06-21T12:04:35Z</time>
      </trkpt>
      <trkpt lat="43.43506" lon="2.64032">
        <ele>754.6</ele>
        <time>2022-06-21T12:04:36Z</time>
      </trkpt>
      <trkpt lat="43.43507" lon="2.64032">
        <ele>754.7</ele>
        <time>2022-06-21T12:04:37Z</time>
      </trkpt>
      <trkpt lat="43.43508" lon="2.64032">
        <ele>754.7</ele>
        <time>2022-06-21T12:04:38Z</time>
      </trkpt>
      <trkpt lat="43.43509" lon="2.64032">
        <ele>754.7</ele>
        <time>2022-06-21T12:04:39Z</time>
      </trkpt>
      <trkpt lat="43.4351" lon="2.64032">
        <ele>754.7</ele>
        <time>2022-06-21T12:04:40Z</time>
      </trkpt>
      <trkpt lat="43.4351" lon="2.64032">
        <ele>754.7</ele>
        <time>2022-06-21T12:04:41Z</time>
      </trkpt>
      <trkpt lat="43.4351" lon="2.64032">
        <ele>754.7</ele>
        <time>2022-06-21T12:04:42Z</time>
      </trkpt>
      <trkpt lat="43.43511" lon="2.64032">
        <ele>754.7</ele>
        <time>2022-06-21T12:04:43Z</time>
      </trkpt>
      <trkpt lat="43.43511" lon="2.64032">
        <ele>754.7</ele>
        <time>2022-06-21T12:04:44Z</time>
      </trkpt>
      <trkpt lat="43.43512" lon="2.64032">
        <ele>754.7</ele>
        <time>2022-06-21T12:04:45Z</time>
      </trkpt>
      <trkpt lat="43.43512" lon="2.64032">
        <ele>754.7</ele>
        <time>2022-06-21T12:04:46Z</time>
      </trkpt>
      <trkpt lat="43.43514" lon="2.64032">
        <ele>754.8</ele>
        <time>2022-06-21T12:04:47Z</time>
      </trkpt>
      <trkpt lat="43.43515" lon="2.64031">
        <ele>754.8</ele>
        <time>2022-06-21T12:04:48Z</time>
      </trkpt>
      <trkpt lat="43.43517" lon="2.64031">
        <ele>754.9</ele>
        <time>2022-06-21T12:04:49Z</time>
      </trkpt>
      <trkpt lat="43.43518" lon="2.64031">
        <ele>754.9</ele>
        <time>2022-06-21T12:04:50Z</time>
      </trkpt>
      <trkpt lat="43.43519" lon="2.64031">
        <ele>754.9</ele>
        <time>2022-06-21T12:04:51Z</time>
      </trkpt>
      <trkpt lat="43.4352" lon="2.6403">
        <ele>755</ele>
        <time>2022-06-21T12:04:52Z</time>
      </trkpt>
      <trkpt lat="43.43522" lon="2.6403">
        <ele>755</ele>
        <time>2022-06-21T12:04:53Z</time>
      </trkpt>
      <trkpt lat="43.43523" lon="2.6403">
        <ele>755.1</ele>
        <time>2022-06-21T12:04:54Z</time>
      </trkpt>
      <trkpt lat="43.43524" lon="2.6403">
        <ele>755.1</ele>
        <time>2022-06-21T12:04:55Z</time>
      </trkpt>
      <trkpt lat="43.43527" lon="2.6403">
        <ele>755.2</ele>
        <time>2022-06-21T12:04:56Z</time>
      </trkpt>
      <trkpt lat="43.43527" lon="2.6403">
        <ele>755.3</ele>
        <time>2022-06-21T12:04:57Z</time>
      </trkpt>
      <trkpt lat="43.43528" lon="2.64029">
        <ele>755.3</ele>
        <time>2022-06-21T12:04:58Z</time>
      </trkpt>
      <trkpt lat="43.4353" lon="2.6403">
        <ele>755.4</ele>
        <time>2022-06-21T12:04:59Z</time>
      </trkpt>
      <trkpt lat="43.43531" lon="2.6403">
        <ele>755.4</ele>
        <time>2022-06-21T12:05:00Z</time>
      </trkpt>
      <trkpt lat="43.43531" lon="2.6403">
        <ele>755.4</ele>
        <time>2022-06-21T12:05:01Z</time>
      </trkpt>
      <trkpt lat="43.43532" lon="2.6403">
        <ele>755.5</ele>
        <time>2022-06-21T12:05:02Z</time>
      </trkpt>
      <trkpt lat="43.43532" lon="2.6403">
        <ele>755.5</ele>
        <time>2022-06-21T12:05:03Z</time>
      </trkpt>
      <trkpt lat="43.43532" lon="2.6403">
        <ele>755.5</ele>
        <time>2022-06-21T12:05:04Z</time>
      </trkpt>
      <trkpt lat="43.43532" lon="2.64029">
        <ele>755.5</ele>
        <time>2022-06-21T12:05:05Z</time>
      </trkpt>
      <trkpt lat="43.43533" lon="2.64029">
        <ele>755.5</ele>
        <time>2022-06-21T12:05:06Z</time>
      </trkpt>
      <trkpt lat="43.43533" lon="2.64029">
        <ele>755.5</ele>
        <time>2022-06-21T12:05:07Z</time>
      </trkpt>
      <trkpt lat="43.43533" lon="2.64029">
        <ele>755.6</ele>
        <time>2022-06-21T12:05:08Z</time>
      </trkpt>
      <trkpt lat="43.43533" lon="2.64029">
        <ele>755.6</ele>
        <time>2022-06-21T12:05:09Z</time>
      </trkpt>
      <trkpt lat="43.43533" lon="2.64029">
        <ele>755.6</ele>
        <time>2022-06-21T12:05:10Z</time>
      </trkpt>
      <trkpt lat="43.43534" lon="2.64028">
        <ele>755.6</ele>
        <time>2022-06-21T12:05:11Z</time>
      </trkpt>
      <trkpt lat="43.43534" lon="2.64028">
        <ele>755.6</ele>
        <time>2022-06-21T12:05:12Z</time>
      </trkpt>
      <trkpt lat="43.43534" lon="2.64028">
        <ele>755.6</ele>
        <time>2022-06-21T12:05:13Z</time>
      </trkpt>
      <trkpt lat="43.43534" lon="2.64028">
        <ele>755.6</ele>
        <time>2022-06-21T12:05:14Z</time>
      </trkpt>
      <trkpt lat="43.43534" lon="2.64028">
        <ele>755.6</ele>
        <time>2022-06-21T12:05:15Z</time>
      </trkpt>
      <trkpt lat="43.43535" lon="2.64028">
        <ele>755.6</ele>
        <time>2022-06-21T12:05:16Z</time>
      </trkpt>
      <trkpt lat="43.43535" lon="2.64028">
        <ele>755.7</ele>
        <time>2022-06-21T12:05:17Z</time>
      </trkpt>
      <trkpt lat="43.43536" lon="2.64026">
        <ele>755.8</ele>
        <time>2022-06-21T12:05:18Z</time>
      </trkpt>
      <trkpt lat="43.43538" lon="2.64025">
        <ele>755.8</ele>
        <time>2022-06-21T12:05:19Z</time>
      </trkpt>
      <trkpt lat="43.43539" lon="2.64023">
        <ele>755.9</ele>
        <time>2022-06-21T12:05:20Z</time>
      </trkpt>
      <trkpt lat="43.4354" lon="2.64022">
        <ele>756.7</ele>
        <time>2022-06-21T12:05:21Z</time>
      </trkpt>
      <trkpt lat="43.4354" lon="2.64021">
        <ele>756.7</ele>
        <time>2022-06-21T12:05:22Z</time>
      </trkpt>
      <trkpt lat="43.43541" lon="2.64021">
        <ele>756.8</ele>
        <time>2022-06-21T12:05:23Z</time>
      </trkpt>
      <trkpt lat="43.43541" lon="2.64021">
        <ele>756.8</ele>
        <time>2022-06-21T12:05:24Z</time>
      </trkpt>
      <trkpt lat="43.43541" lon="2.64021">
        <ele>756.8</ele>
        <time>2022-06-21T12:05:25Z</time>
      </trkpt>
      <trkpt lat="43.43541" lon="2.6402">
        <ele>756.8</ele>
        <time>2022-06-21T12:05:26Z</time>
      </trkpt>
      <trkpt lat="43.43541" lon="2.6402">
        <ele>756.8</ele>
        <time>2022-06-21T12:05:27Z</time>
      </trkpt>
      <trkpt lat="43.43541" lon="2.64019">
        <ele>756.9</ele>
        <time>2022-06-21T12:05:28Z</time>
      </trkpt>
      <trkpt lat="43.43541" lon="2.64018">
        <ele>756.9</ele>
        <time>2022-06-21T12:05:29Z</time>
      </trkpt>
      <trkpt lat="43.43541" lon="2.64018">
        <ele>757</ele>
        <time>2022-06-21T12:05:30Z</time>
      </trkpt>
      <trkpt lat="43.43541" lon="2.64017">
        <ele>757</ele>
        <time>2022-06-21T12:05:31Z</time>
      </trkpt>
      <trkpt lat="43.43541" lon="2.64017">
        <ele>757</ele>
        <time>2022-06-21T12:05:32Z</time>
      </trkpt>
      <trkpt lat="43.4354" lon="2.64016">
        <ele>757.1</ele>
        <time>2022-06-21T12:05:33Z</time>
      </trkpt>
      <trkpt lat="43.4354" lon="2.64016">
        <ele>757.1</ele>
        <time>2022-06-21T12:05:34Z</time>
      </trkpt>
      <trkpt lat="43.4354" lon="2.64015">
        <ele>757.2</ele>
        <time>2022-06-21T12:05:35Z</time>
      </trkpt>
      <trkpt lat="43.43539" lon="2.64014">
        <ele>757.2</ele>
        <time>2022-06-21T12:05:36Z</time>
      </trkpt>
      <trkpt lat="43.43539" lon="2.64014">
        <ele>757.3</ele>
        <time>2022-06-21T12:05:37Z</time>
      </trkpt>
      <trkpt lat="43.43538" lon="2.64013">
        <ele>757.3</ele>
        <time>2022-06-21T12:05:38Z</time>
      </trkpt>
      <trkpt lat="43.43538" lon="2.64013">
        <ele>757.3</ele>
        <time>2022-06-21T12:05:39Z</time>
      </trkpt>
      <trkpt lat="43.43537" lon="2.64012">
        <ele>757.4</ele>
        <time>2022-06-21T12:05:40Z</time>
      </trkpt>
      <trkpt lat="43.43536" lon="2.64011">
        <ele>757.5</ele>
        <time>2022-06-21T12:05:41Z</time>
      </trkpt>
      <trkpt lat="43.43536" lon="2.64011">
        <ele>757.5</ele>
        <time>2022-06-21T12:05:42Z</time>
      </trkpt>
      <trkpt lat="43.43536" lon="2.64011">
        <ele>757.5</ele>
        <time>2022-06-21T12:05:43Z</time>
      </trkpt>
      <trkpt lat="43.43536" lon="2.6401">
        <ele>757.6</ele>
        <time>2022-06-21T12:05:44Z</time>
      </trkpt>
      <trkpt lat="43.43536" lon="2.6401">
        <ele>757.6</ele>
        <time>2022-06-21T12:05:45Z</time>
      </trkpt>
      <trkpt lat="43.43536" lon="2.6401">
        <ele>757.6</ele>
        <time>2022-06-21T12:05:46Z</time>
      </trkpt>
      <trkpt lat="43.43536" lon="2.6401">
        <ele>757.6</ele>
        <time>2022-06-21T12:05:47Z</time>
      </trkpt>
      <trkpt lat="43.43536" lon="2.6401">
        <ele>757.6</ele>
        <time>2022-06-21T12:05:48Z</time>
      </trkpt>
      <trkpt lat="43.43536" lon="2.6401">
        <ele>757.6</ele>
        <time>2022-06-21T12:05:49Z</time>
      </trkpt>
      <trkpt lat="43.43535" lon="2.6401">
        <ele>757.6</ele>
        <time>2022-06-21T12:05:50Z</time>
      </trkpt>
      <trkpt lat="43.43535" lon="2.6401">
        <ele>757.6</ele>
        <time>2022-06-21T12:05:51Z</time>
      </trkpt>
      <trkpt lat="43.43534" lon="2.64009">
        <ele>757.7</ele>
        <time>2022-06-21T12:05:52Z</time>
      </trkpt>
      <trkpt lat="43.43532" lon="2.64007">
        <ele>757.9</ele>
        <time>2022-06-21T12:05:53Z</time>
      </trkpt>
      <trkpt lat="43.43532" lon="2.64007">
        <ele>757.9</ele>
        <time>2022-06-21T12:05:54Z</time>
      </trkpt>
      <trkpt lat="43.43532" lon="2.64007">
        <ele>757.9</ele>
        <time>2022-06-21T12:05:55Z</time>
      </trkpt>
      <trkpt lat="43.43531" lon="2.64007">
        <ele>757.9</ele>
        <time>2022-06-21T12:05:56Z</time>
      </trkpt>
      <trkpt lat="43.43531" lon="2.64006">
        <ele>758</ele>
        <time>2022-06-21T12:05:57Z</time>
      </trkpt>
      <trkpt lat="43.43531" lon="2.64006">
        <ele>758</ele>
        <time>2022-06-21T12:05:58Z</time>
      </trkpt>
      <trkpt lat="43.43531" lon="2.64006">
        <ele>758</ele>
        <time>2022-06-21T12:05:59Z</time>
      </trkpt>
      <trkpt lat="43.43531" lon="2.64006">
        <ele>758</ele>
        <time>2022-06-21T12:06:00Z</time>
      </trkpt>
      <trkpt lat="43.43531" lon="2.64006">
        <ele>758</ele>
        <time>2022-06-21T12:06:01Z</time>
      </trkpt>
      <trkpt lat="43.43531" lon="2.64006">
        <ele>758</ele>
        <time>2022-06-21T12:06:02Z</time>
      </trkpt>
      <trkpt lat="43.4353" lon="2.64006">
        <ele>758.1</ele>
        <time>2022-06-21T12:06:03Z</time>
      </trkpt>
      <trkpt lat="43.43528" lon="2.64004">
        <ele>758.2</ele>
        <time>2022-06-21T12:06:04Z</time>
      </trkpt>
      <trkpt lat="43.43526" lon="2.64002">
        <ele>758.5</ele>
        <time>2022-06-21T12:06:05Z</time>
      </trkpt>
      <trkpt lat="43.43525" lon="2.64001">
        <ele>758.6</ele>
        <time>2022-06-21T12:06:06Z</time>
      </trkpt>
      <trkpt lat="43.43524" lon="2.64001">
        <ele>758.6</ele>
        <time>2022-06-21T12:06:07Z</time>
      </trkpt>
      <trkpt lat="43.43523" lon="2.64">
        <ele>758.7</ele>
        <time>2022-06-21T12:06:08Z</time>
      </trkpt>
      <trkpt lat="43.43523" lon="2.64">
        <ele>758.7</ele>
        <time>2022-06-21T12:06:09Z</time>
      </trkpt>
      <trkpt lat="43.43523" lon="2.64">
        <ele>758.7</ele>
        <time>2022-06-21T12:06:10Z</time>
      </trkpt>
      <trkpt lat="43.43523" lon="2.64">
        <ele>758.7</ele>
        <time>2022-06-21T12:06:11Z</time>
      </trkpt>
      <trkpt lat="43.43522" lon="2.64">
        <ele>758.7</ele>
        <time>2022-06-21T12:06:12Z</time>
      </trkpt>
      <trkpt lat="43.43522" lon="2.64">
        <ele>758.8</ele>
        <time>2022-06-21T12:06:13Z</time>
      </trkpt>
      <trkpt lat="43.43521" lon="2.64">
        <ele>758.8</ele>
        <time>2022-06-21T12:06:14Z</time>
      </trkpt>
      <trkpt lat="43.4352" lon="2.64">
        <ele>758.9</ele>
        <time>2022-06-21T12:06:15Z</time>
      </trkpt>
      <trkpt lat="43.43519" lon="2.63999">
        <ele>759</ele>
        <time>2022-06-21T12:06:16Z</time>
      </trkpt>
      <trkpt lat="43.43518" lon="2.63999">
        <ele>759.1</ele>
        <time>2022-06-21T12:06:17Z</time>
      </trkpt>
      <trkpt lat="43.43517" lon="2.63999">
        <ele>759.1</ele>
        <time>2022-06-21T12:06:18Z</time>
      </trkpt>
      <trkpt lat="43.43516" lon="2.63999">
        <ele>759.2</ele>
        <time>2022-06-21T12:06:19Z</time>
      </trkpt>
      <trkpt lat="43.43515" lon="2.63999">
        <ele>759.3</ele>
        <time>2022-06-21T12:06:20Z</time>
      </trkpt>
      <trkpt lat="43.43514" lon="2.63998">
        <ele>759.4</ele>
        <time>2022-06-21T12:06:21Z</time>
      </trkpt>
      <trkpt lat="43.43513" lon="2.63998">
        <ele>759.5</ele>
        <time>2022-06-21T12:06:22Z</time>
      </trkpt>
      <trkpt lat="43.43513" lon="2.63998">
        <ele>759.5</ele>
        <time>2022-06-21T12:06:23Z</time>
      </trkpt>
      <trkpt lat="43.43513" lon="2.63998">
        <ele>759.5</ele>
        <time>2022-06-21T12:06:24Z</time>
      </trkpt>
      <trkpt lat="43.43512" lon="2.63998">
        <ele>759.5</ele>
        <time>2022-06-21T12:06:25Z</time>
      </trkpt>
      <trkpt lat="43.43512" lon="2.63998">
        <ele>759.6</ele>
        <time>2022-06-21T12:06:26Z</time>
      </trkpt>
      <trkpt lat="43.43511" lon="2.63998">
        <ele>759.6</ele>
        <time>2022-06-21T12:06:27Z</time>
      </trkpt>
      <trkpt lat="43.43511" lon="2.63998">
        <ele>759.6</ele>
        <time>2022-06-21T12:06:28Z</time>
      </trkpt>
      <trkpt lat="43.43511" lon="2.63997">
        <ele>759.7</ele>
        <time>2022-06-21T12:06:29Z</time>
      </trkpt>
      <trkpt lat="43.4351" lon="2.63997">
        <ele>759.7</ele>
        <time>2022-06-21T12:06:30Z</time>
      </trkpt>
      <trkpt lat="43.4351" lon="2.63997">
        <ele>759.7</ele>
        <time>2022-06-21T12:06:31Z</time>
      </trkpt>
      <trkpt lat="43.43509" lon="2.63997">
        <ele>759.8</ele>
        <time>2022-06-21T12:06:32Z</time>
      </trkpt>
      <trkpt lat="43.43505" lon="2.63995">
        <ele>760.1</ele>
        <time>2022-06-21T12:06:33Z</time>
      </trkpt>
      <trkpt lat="43.43501" lon="2.63994">
        <ele>760.4</ele>
        <time>2022-06-21T12:06:34Z</time>
      </trkpt>
      <trkpt lat="43.435" lon="2.63994">
        <ele>760.5</ele>
        <time>2022-06-21T12:06:35Z</time>
      </trkpt>
      <trkpt lat="43.43498" lon="2.63993">
        <ele>760.7</ele>
        <time>2022-06-21T12:06:36Z</time>
      </trkpt>
      <trkpt lat="43.43498" lon="2.63993">
        <ele>760.7</ele>
        <time>2022-06-21T12:06:37Z</time>
      </trkpt>
      <trkpt lat="43.43498" lon="2.63993">
        <ele>760.7</ele>
        <time>2022-06-21T12:06:38Z</time>
      </trkpt>
      <trkpt lat="43.43497" lon="2.63993">
        <ele>760.7</ele>
        <time>2022-06-21T12:06:39Z</time>
      </trkpt>
      <trkpt lat="43.43498" lon="2.63993">
        <ele>760.7</ele>
        <time>2022-06-21T12:06:40Z</time>
      </trkpt>
      <trkpt lat="43.43498" lon="2.63993">
        <ele>760.7</ele>
        <time>2022-06-21T12:06:41Z</time>
      </trkpt>
      <trkpt lat="43.43497" lon="2.63993">
        <ele>760.8</ele>
        <time>2022-06-21T12:06:42Z</time>
      </trkpt>
      <trkpt lat="43.43494" lon="2.63992">
        <ele>761</ele>
        <time>2022-06-21T12:06:43Z</time>
      </trkpt>
      <trkpt lat="43.43493" lon="2.63992">
        <ele>761.1</ele>
        <time>2022-06-21T12:06:44Z</time>
      </trkpt>
      <trkpt lat="43.43492" lon="2.63992">
        <ele>761.2</ele>
        <time>2022-06-21T12:06:45Z</time>
      </trkpt>
      <trkpt lat="43.43492" lon="2.63992">
        <ele>761.2</ele>
        <time>2022-06-21T12:06:46Z</time>
      </trkpt>
      <trkpt lat="43.43492" lon="2.63991">
        <ele>761.2</ele>
        <time>2022-06-21T12:06:47Z</time>
      </trkpt>
      <trkpt lat="43.43491" lon="2.63991">
        <ele>761.2</ele>
        <time>2022-06-21T12:06:48Z</time>
      </trkpt>
      <trkpt lat="43.4349" lon="2.63991">
        <ele>761.3</ele>
        <time>2022-06-21T12:06:49Z</time>
      </trkpt>
      <trkpt lat="43.43486" lon="2.6399">
        <ele>761.6</ele>
        <time>2022-06-21T12:06:50Z</time>
      </trkpt>
      <trkpt lat="43.43483" lon="2.63989">
        <ele>761.9</ele>
        <time>2022-06-21T12:06:51Z</time>
      </trkpt>
      <trkpt lat="43.4348" lon="2.63989">
        <ele>762.1</ele>
        <time>2022-06-21T12:06:52Z</time>
      </trkpt>
      <trkpt lat="43.43478" lon="2.63988">
        <ele>762.2</ele>
        <time>2022-06-21T12:06:53Z</time>
      </trkpt>
      <trkpt lat="43.43476" lon="2.63987">
        <ele>762.4</ele>
        <time>2022-06-21T12:06:54Z</time>
      </trkpt>
      <trkpt lat="43.43475" lon="2.63987">
        <ele>762.5</ele>
        <time>2022-06-21T12:06:55Z</time>
      </trkpt>
      <trkpt lat="43.43474" lon="2.63986">
        <ele>762.6</ele>
        <time>2022-06-21T12:06:56Z</time>
      </trkpt>
      <trkpt lat="43.43474" lon="2.63986">
        <ele>762.6</ele>
        <time>2022-06-21T12:06:57Z</time>
      </trkpt>
      <trkpt lat="43.43473" lon="2.63986">
        <ele>762.7</ele>
        <time>2022-06-21T12:06:58Z</time>
      </trkpt>
      <trkpt lat="43.43473" lon="2.63985">
        <ele>762.7</ele>
        <time>2022-06-21T12:06:59Z</time>
      </trkpt>
      <trkpt lat="43.43472" lon="2.63985">
        <ele>762.7</ele>
        <time>2022-06-21T12:07:00Z</time>
      </trkpt>
      <trkpt lat="43.43472" lon="2.63985">
        <ele>762.8</ele>
        <time>2022-06-21T12:07:01Z</time>
      </trkpt>
      <trkpt lat="43.43471" lon="2.63985">
        <ele>762.8</ele>
        <time>2022-06-21T12:07:02Z</time>
      </trkpt>
      <trkpt lat="43.43471" lon="2.63984">
        <ele>762.9</ele>
        <time>2022-06-21T12:07:03Z</time>
      </trkpt>
      <trkpt lat="43.4347" lon="2.63984">
        <ele>762.9</ele>
        <time>2022-06-21T12:07:04Z</time>
      </trkpt>
      <trkpt lat="43.43467" lon="2.63983">
        <ele>763.1</ele>
        <time>2022-06-21T12:07:05Z</time>
      </trkpt>
      <trkpt lat="43.43466" lon="2.63982">
        <ele>763.2</ele>
        <time>2022-06-21T12:07:06Z</time>
      </trkpt>
      <trkpt lat="43.43464" lon="2.63981">
        <ele>763.4</ele>
        <time>2022-06-21T12:07:07Z</time>
      </trkpt>
      <trkpt lat="43.43464" lon="2.63981">
        <ele>763.4</ele>
        <time>2022-06-21T12:07:08Z</time>
      </trkpt>
      <trkpt lat="43.43464" lon="2.63981">
        <ele>763.5</ele>
        <time>2022-06-21T12:07:09Z</time>
      </trkpt>
      <trkpt lat="43.43464" lon="2.63981">
        <ele>763.5</ele>
        <time>2022-06-21T12:07:10Z</time>
      </trkpt>
      <trkpt lat="43.43464" lon="2.63981">
        <ele>763.5</ele>
        <time>2022-06-21T12:07:11Z</time>
      </trkpt>
      <trkpt lat="43.43463" lon="2.63981">
        <ele>763.5</ele>
        <time>2022-06-21T12:07:12Z</time>
      </trkpt>
      <trkpt lat="43.43461" lon="2.63979">
        <ele>763.7</ele>
        <time>2022-06-21T12:07:13Z</time>
      </trkpt>
      <trkpt lat="43.4346" lon="2.63979">
        <ele>763.8</ele>
        <time>2022-06-21T12:07:14Z</time>
      </trkpt>
      <trkpt lat="43.43457" lon="2.63977">
        <ele>764</ele>
        <time>2022-06-21T12:07:15Z</time>
      </trkpt>
      <trkpt lat="43.43455" lon="2.63975">
        <ele>764.2</ele>
        <time>2022-06-21T12:07:16Z</time>
      </trkpt>
      <trkpt lat="43.43454" lon="2.63975">
        <ele>764.3</ele>
        <time>2022-06-21T12:07:17Z</time>
      </trkpt>
      <trkpt lat="43.43452" lon="2.63974">
        <ele>764.4</ele>
        <time>2022-06-21T12:07:18Z</time>
      </trkpt>
      <trkpt lat="43.43451" lon="2.63973">
        <ele>764.5</ele>
        <time>2022-06-21T12:07:19Z</time>
      </trkpt>
      <trkpt lat="43.4345" lon="2.63972">
        <ele>764.6</ele>
        <time>2022-06-21T12:07:20Z</time>
      </trkpt>
      <trkpt lat="43.43449" lon="2.63972">
        <ele>764.7</ele>
        <time>2022-06-21T12:07:21Z</time>
      </trkpt>
      <trkpt lat="43.43448" lon="2.63971">
        <ele>764.8</ele>
        <time>2022-06-21T12:07:22Z</time>
      </trkpt>
      <trkpt lat="43.43446" lon="2.6397">
        <ele>765</ele>
        <time>2022-06-21T12:07:23Z</time>
      </trkpt>
      <trkpt lat="43.43445" lon="2.63969">
        <ele>765</ele>
        <time>2022-06-21T12:07:24Z</time>
      </trkpt>
      <trkpt lat="43.43445" lon="2.63969">
        <ele>765.1</ele>
        <time>2022-06-21T12:07:25Z</time>
      </trkpt>
      <trkpt lat="43.43443" lon="2.63968">
        <ele>765.2</ele>
        <time>2022-06-21T12:07:26Z</time>
      </trkpt>
      <trkpt lat="43.43443" lon="2.63968">
        <ele>765.2</ele>
        <time>2022-06-21T12:07:27Z</time>
      </trkpt>
      <trkpt lat="43.43442" lon="2.63967">
        <ele>765.3</ele>
        <time>2022-06-21T12:07:28Z</time>
      </trkpt>
      <trkpt lat="43.43442" lon="2.63966">
        <ele>765.4</ele>
        <time>2022-06-21T12:07:29Z</time>
      </trkpt>
      <trkpt lat="43.43441" lon="2.63965">
        <ele>765.5</ele>
        <time>2022-06-21T12:07:30Z</time>
      </trkpt>
      <trkpt lat="43.4344" lon="2.63963">
        <ele>765.6</ele>
        <time>2022-06-21T12:07:31Z</time>
      </trkpt>
      <trkpt lat="43.43439" lon="2.63962">
        <ele>765.7</ele>
        <time>2022-06-21T12:07:32Z</time>
      </trkpt>
      <trkpt lat="43.43439" lon="2.63962">
        <ele>765.7</ele>
        <time>2022-06-21T12:07:33Z</time>
      </trkpt>
      <trkpt lat="43.43439" lon="2.63961">
        <ele>765.7</ele>
        <time>2022-06-21T12:07:34Z</time>
      </trkpt>
      <trkpt lat="43.43438" lon="2.63961">
        <ele>765.8</ele>
        <time>2022-06-21T12:07:35Z</time>
      </trkpt>
      <trkpt lat="43.43438" lon="2.6396">
        <ele>765.8</ele>
        <time>2022-06-21T12:07:36Z</time>
      </trkpt>
      <trkpt lat="43.43438" lon="2.6396">
        <ele>765.8</ele>
        <time>2022-06-21T12:07:37Z</time>
      </trkpt>
      <trkpt lat="43.43437" lon="2.63959">
        <ele>765.9</ele>
        <time>2022-06-21T12:07:38Z</time>
      </trkpt>
      <trkpt lat="43.43437" lon="2.63958">
        <ele>765.9</ele>
        <time>2022-06-21T12:07:39Z</time>
      </trkpt>
      <trkpt lat="43.43436" lon="2.63957">
        <ele>766</ele>
        <time>2022-06-21T12:07:40Z</time>
      </trkpt>
      <trkpt lat="43.43435" lon="2.63956">
        <ele>766.1</ele>
        <time>2022-06-21T12:07:41Z</time>
      </trkpt>
      <trkpt lat="43.43434" lon="2.63955">
        <ele>766.2</ele>
        <time>2022-06-21T12:07:42Z</time>
      </trkpt>
      <trkpt lat="43.43434" lon="2.63954">
        <ele>766.3</ele>
        <time>2022-06-21T12:07:43Z</time>
      </trkpt>
      <trkpt lat="43.43433" lon="2.63952">
        <ele>766.4</ele>
        <time>2022-06-21T12:07:44Z</time>
      </trkpt>
      <trkpt lat="43.43433" lon="2.63952">
        <ele>766.4</ele>
        <time>2022-06-21T12:07:45Z</time>
      </trkpt>
      <trkpt lat="43.43433" lon="2.63951">
        <ele>766.5</ele>
        <time>2022-06-21T12:07:46Z</time>
      </trkpt>
      <trkpt lat="43.43432" lon="2.6395">
        <ele>766.5</ele>
        <time>2022-06-21T12:07:47Z</time>
      </trkpt>
      <trkpt lat="43.43432" lon="2.63949">
        <ele>766.6</ele>
        <time>2022-06-21T12:07:48Z</time>
      </trkpt>
      <trkpt lat="43.43431" lon="2.63948">
        <ele>766.6</ele>
        <time>2022-06-21T12:07:49Z</time>
      </trkpt>
      <trkpt lat="43.4343" lon="2.63947">
        <ele>766.7</ele>
        <time>2022-06-21T12:07:50Z</time>
      </trkpt>
      <trkpt lat="43.4343" lon="2.63947">
        <ele>766.8</ele>
        <time>2022-06-21T12:07:51Z</time>
      </trkpt>
      <trkpt lat="43.4343" lon="2.63946">
        <ele>766.8</ele>
        <time>2022-06-21T12:07:52Z</time>
      </trkpt>
      <trkpt lat="43.43429" lon="2.63945">
        <ele>766.9</ele>
        <time>2022-06-21T12:07:53Z</time>
      </trkpt>
      <trkpt lat="43.43429" lon="2.63944">
        <ele>766.9</ele>
        <time>2022-06-21T12:07:54Z</time>
      </trkpt>
      <trkpt lat="43.43428" lon="2.63944">
        <ele>767</ele>
        <time>2022-06-21T12:07:55Z</time>
      </trkpt>
      <trkpt lat="43.43428" lon="2.63943">
        <ele>767</ele>
        <time>2022-06-21T12:07:56Z</time>
      </trkpt>
      <trkpt lat="43.43427" lon="2.63942">
        <ele>767.1</ele>
        <time>2022-06-21T12:07:57Z</time>
      </trkpt>
      <trkpt lat="43.43426" lon="2.6394">
        <ele>767.3</ele>
        <time>2022-06-21T12:07:58Z</time>
      </trkpt>
      <trkpt lat="43.43425" lon="2.6394">
        <ele>767.3</ele>
        <time>2022-06-21T12:07:59Z</time>
      </trkpt>
      <trkpt lat="43.43425" lon="2.63939">
        <ele>767.4</ele>
        <time>2022-06-21T12:08:00Z</time>
      </trkpt>
      <trkpt lat="43.43424" lon="2.63938">
        <ele>767.4</ele>
        <time>2022-06-21T12:08:01Z</time>
      </trkpt>
      <trkpt lat="43.43424" lon="2.63938">
        <ele>767.5</ele>
        <time>2022-06-21T12:08:02Z</time>
      </trkpt>
      <trkpt lat="43.43423" lon="2.63937">
        <ele>767.6</ele>
        <time>2022-06-21T12:08:03Z</time>
      </trkpt>
      <trkpt lat="43.43423" lon="2.63935">
        <ele>767.6</ele>
        <time>2022-06-21T12:08:04Z</time>
      </trkpt>
      <trkpt lat="43.43422" lon="2.63935">
        <ele>767.7</ele>
        <time>2022-06-21T12:08:05Z</time>
      </trkpt>
      <trkpt lat="43.43422" lon="2.63934">
        <ele>767.8</ele>
        <time>2022-06-21T12:08:06Z</time>
      </trkpt>
      <trkpt lat="43.43421" lon="2.63933">
        <ele>767.9</ele>
        <time>2022-06-21T12:08:07Z</time>
      </trkpt>
      <trkpt lat="43.4342" lon="2.63932">
        <ele>768</ele>
        <time>2022-06-21T12:08:08Z</time>
      </trkpt>
      <trkpt lat="43.43419" lon="2.63931">
        <ele>768</ele>
        <time>2022-06-21T12:08:09Z</time>
      </trkpt>
      <trkpt lat="43.43419" lon="2.6393">
        <ele>768.1</ele>
        <time>2022-06-21T12:08:10Z</time>
      </trkpt>
      <trkpt lat="43.43418" lon="2.6393">
        <ele>768.1</ele>
        <time>2022-06-21T12:08:11Z</time>
      </trkpt>
      <trkpt lat="43.43417" lon="2.63928">
        <ele>768.2</ele>
        <time>2022-06-21T12:08:12Z</time>
      </trkpt>
      <trkpt lat="43.43417" lon="2.63927">
        <ele>768.3</ele>
        <time>2022-06-21T12:08:13Z</time>
      </trkpt>
      <trkpt lat="43.43417" lon="2.63926">
        <ele>768.3</ele>
        <time>2022-06-21T12:08:14Z</time>
      </trkpt>
      <trkpt lat="43.43416" lon="2.63926">
        <ele>768.4</ele>
        <time>2022-06-21T12:08:15Z</time>
      </trkpt>
      <trkpt lat="43.43415" lon="2.63924">
        <ele>768.5</ele>
        <time>2022-06-21T12:08:16Z</time>
      </trkpt>
      <trkpt lat="43.43415" lon="2.63922">
        <ele>768.6</ele>
        <time>2022-06-21T12:08:17Z</time>
      </trkpt>
      <trkpt lat="43.43413" lon="2.63919">
        <ele>768.9</ele>
        <time>2022-06-21T12:08:18Z</time>
      </trkpt>
      <trkpt lat="43.43412" lon="2.63918">
        <ele>768.9</ele>
        <time>2022-06-21T12:08:19Z</time>
      </trkpt>
      <trkpt lat="43.43411" lon="2.63916">
        <ele>769.1</ele>
        <time>2022-06-21T12:08:20Z</time>
      </trkpt>
      <trkpt lat="43.43411" lon="2.63915">
        <ele>769.1</ele>
        <time>2022-06-21T12:08:21Z</time>
      </trkpt>
      <trkpt lat="43.43411" lon="2.63914">
        <ele>769.2</ele>
        <time>2022-06-21T12:08:22Z</time>
      </trkpt>
      <trkpt lat="43.4341" lon="2.63913">
        <ele>769.3</ele>
        <time>2022-06-21T12:08:23Z</time>
      </trkpt>
      <trkpt lat="43.4341" lon="2.63912">
        <ele>769.3</ele>
        <time>2022-06-21T12:08:24Z</time>
      </trkpt>
      <trkpt lat="43.43408" lon="2.63908">
        <ele>769.6</ele>
        <time>2022-06-21T12:08:25Z</time>
      </trkpt>
      <trkpt lat="43.43407" lon="2.63907">
        <ele>769.7</ele>
        <time>2022-06-21T12:08:26Z</time>
      </trkpt>
      <trkpt lat="43.43406" lon="2.63903">
        <ele>769.9</ele>
        <time>2022-06-21T12:08:27Z</time>
      </trkpt>
      <trkpt lat="43.43405" lon="2.63902">
        <ele>770</ele>
        <time>2022-06-21T12:08:28Z</time>
      </trkpt>
      <trkpt lat="43.43404" lon="2.63901">
        <ele>770</ele>
        <time>2022-06-21T12:08:29Z</time>
      </trkpt>
      <trkpt lat="43.43404" lon="2.63901">
        <ele>770.1</ele>
        <time>2022-06-21T12:08:30Z</time>
      </trkpt>
      <trkpt lat="43.43404" lon="2.63901">
        <ele>770.1</ele>
        <time>2022-06-21T12:08:31Z</time>
      </trkpt>
      <trkpt lat="43.43404" lon="2.63901">
        <ele>770.1</ele>
        <time>2022-06-21T12:08:32Z</time>
      </trkpt>
      <trkpt lat="43.43404" lon="2.63901">
        <ele>770.1</ele>
        <time>2022-06-21T12:08:33Z</time>
      </trkpt>
      <trkpt lat="43.43404" lon="2.63901">
        <ele>770.1</ele>
        <time>2022-06-21T12:08:34Z</time>
      </trkpt>
      <trkpt lat="43.43404" lon="2.63901">
        <ele>770.1</ele>
        <time>2022-06-21T12:08:35Z</time>
      </trkpt>
      <trkpt lat="43.43404" lon="2.63901">
        <ele>770.1</ele>
        <time>2022-06-21T12:08:36Z</time>
      </trkpt>
      <trkpt lat="43.43403" lon="2.63899">
        <ele>770.2</ele>
        <time>2022-06-21T12:08:37Z</time>
      </trkpt>
      <trkpt lat="43.43401" lon="2.63896">
        <ele>770.4</ele>
        <time>2022-06-21T12:08:38Z</time>
      </trkpt>
      <trkpt lat="43.434" lon="2.63895">
        <ele>770.5</ele>
        <time>2022-06-21T12:08:39Z</time>
      </trkpt>
      <trkpt lat="43.434" lon="2.63894">
        <ele>770.6</ele>
        <time>2022-06-21T12:08:40Z</time>
      </trkpt>
      <trkpt lat="43.434" lon="2.63894">
        <ele>770.6</ele>
        <time>2022-06-21T12:08:41Z</time>
      </trkpt>
      <trkpt lat="43.43399" lon="2.63894">
        <ele>770.6</ele>
        <time>2022-06-21T12:08:42Z</time>
      </trkpt>
      <trkpt lat="43.43399" lon="2.63893">
        <ele>770.7</ele>
        <time>2022-06-21T12:08:43Z</time>
      </trkpt>
      <trkpt lat="43.43399" lon="2.63892">
        <ele>770.8</ele>
        <time>2022-06-21T12:08:44Z</time>
      </trkpt>
      <trkpt lat="43.43397" lon="2.63888">
        <ele>771</ele>
        <time>2022-06-21T12:08:45Z</time>
      </trkpt>
      <trkpt lat="43.43397" lon="2.63887">
        <ele>771.1</ele>
        <time>2022-06-21T12:08:46Z</time>
      </trkpt>
      <trkpt lat="43.43395" lon="2.63883">
        <ele>771.3</ele>
        <time>2022-06-21T12:08:47Z</time>
      </trkpt>
      <trkpt lat="43.43395" lon="2.63882">
        <ele>771.4</ele>
        <time>2022-06-21T12:08:48Z</time>
      </trkpt>
      <trkpt lat="43.43394" lon="2.63881">
        <ele>771.5</ele>
        <time>2022-06-21T12:08:49Z</time>
      </trkpt>
      <trkpt lat="43.43394" lon="2.63881">
        <ele>771.5</ele>
        <time>2022-06-21T12:08:50Z</time>
      </trkpt>
      <trkpt lat="43.43394" lon="2.6388">
        <ele>771.5</ele>
        <time>2022-06-21T12:08:51Z</time>
      </trkpt>
      <trkpt lat="43.43393" lon="2.63879">
        <ele>771.6</ele>
        <time>2022-06-21T12:08:52Z</time>
      </trkpt>
      <trkpt lat="43.43392" lon="2.63878">
        <ele>771.7</ele>
        <time>2022-06-21T12:08:53Z</time>
      </trkpt>
      <trkpt lat="43.43391" lon="2.63876">
        <ele>771.8</ele>
        <time>2022-06-21T12:08:54Z</time>
      </trkpt>
      <trkpt lat="43.4339" lon="2.63874">
        <ele>772</ele>
        <time>2022-06-21T12:08:55Z</time>
      </trkpt>
      <trkpt lat="43.4339" lon="2.63873">
        <ele>772</ele>
        <time>2022-06-21T12:08:56Z</time>
      </trkpt>
      <trkpt lat="43.43389" lon="2.6387">
        <ele>772.2</ele>
        <time>2022-06-21T12:08:57Z</time>
      </trkpt>
      <trkpt lat="43.43388" lon="2.63869">
        <ele>772.3</ele>
        <time>2022-06-21T12:08:58Z</time>
      </trkpt>
      <trkpt lat="43.43388" lon="2.63868">
        <ele>772.3</ele>
        <time>2022-06-21T12:08:59Z</time>
      </trkpt>
      <trkpt lat="43.43387" lon="2.63866">
        <ele>772.4</ele>
        <time>2022-06-21T12:09:00Z</time>
      </trkpt>
      <trkpt lat="43.43387" lon="2.63866">
        <ele>772.4</ele>
        <time>2022-06-21T12:09:01Z</time>
      </trkpt>
      <trkpt lat="43.43387" lon="2.63866">
        <ele>772.5</ele>
        <time>2022-06-21T12:09:02Z</time>
      </trkpt>
      <trkpt lat="43.43387" lon="2.63866">
        <ele>772.5</ele>
        <time>2022-06-21T12:09:03Z</time>
      </trkpt>
      <trkpt lat="43.43386" lon="2.63864">
        <ele>772.6</ele>
        <time>2022-06-21T12:09:04Z</time>
      </trkpt>
      <trkpt lat="43.43386" lon="2.63861">
        <ele>772.8</ele>
        <time>2022-06-21T12:09:05Z</time>
      </trkpt>
      <trkpt lat="43.43385" lon="2.63859">
        <ele>772.9</ele>
        <time>2022-06-21T12:09:06Z</time>
      </trkpt>
      <trkpt lat="43.43385" lon="2.63858">
        <ele>772.9</ele>
        <time>2022-06-21T12:09:07Z</time>
      </trkpt>
      <trkpt lat="43.43385" lon="2.63856">
        <ele>773.1</ele>
        <time>2022-06-21T12:09:08Z</time>
      </trkpt>
      <trkpt lat="43.43385" lon="2.63853">
        <ele>773.2</ele>
        <time>2022-06-21T12:09:09Z</time>
      </trkpt>
      <trkpt lat="43.43385" lon="2.63849">
        <ele>773.5</ele>
        <time>2022-06-21T12:09:10Z</time>
      </trkpt>
      <trkpt lat="43.43385" lon="2.63847">
        <ele>773.5</ele>
        <time>2022-06-21T12:09:11Z</time>
      </trkpt>
      <trkpt lat="43.43385" lon="2.63845">
        <ele>773.7</ele>
        <time>2022-06-21T12:09:12Z</time>
      </trkpt>
      <trkpt lat="43.43385" lon="2.63843">
        <ele>773.8</ele>
        <time>2022-06-21T12:09:13Z</time>
      </trkpt>
      <trkpt lat="43.43385" lon="2.63841">
        <ele>773.9</ele>
        <time>2022-06-21T12:09:14Z</time>
      </trkpt>
      <trkpt lat="43.43385" lon="2.63841">
        <ele>773.9</ele>
        <time>2022-06-21T12:09:15Z</time>
      </trkpt>
      <trkpt lat="43.43384" lon="2.6384">
        <ele>774</ele>
        <time>2022-06-21T12:09:16Z</time>
      </trkpt>
      <trkpt lat="43.43384" lon="2.63839">
        <ele>774</ele>
        <time>2022-06-21T12:09:17Z</time>
      </trkpt>
      <trkpt lat="43.43385" lon="2.63839">
        <ele>774</ele>
        <time>2022-06-21T12:09:18Z</time>
      </trkpt>
      <trkpt lat="43.43385" lon="2.63839">
        <ele>774.1</ele>
        <time>2022-06-21T12:09:19Z</time>
      </trkpt>
      <trkpt lat="43.43385" lon="2.63838">
        <ele>774.1</ele>
        <time>2022-06-21T12:09:20Z</time>
      </trkpt>
      <trkpt lat="43.43386" lon="2.63838">
        <ele>774.2</ele>
        <time>2022-06-21T12:09:21Z</time>
      </trkpt>
      <trkpt lat="43.43387" lon="2.63838">
        <ele>774.3</ele>
        <time>2022-06-21T12:09:22Z</time>
      </trkpt>
      <trkpt lat="43.43388" lon="2.63837">
        <ele>774.3</ele>
        <time>2022-06-21T12:09:23Z</time>
      </trkpt>
      <trkpt lat="43.4339" lon="2.63837">
        <ele>774.4</ele>
        <time>2022-06-21T12:09:24Z</time>
      </trkpt>
      <trkpt lat="43.4339" lon="2.63836">
        <ele>774.5</ele>
        <time>2022-06-21T12:09:25Z</time>
      </trkpt>
      <trkpt lat="43.43391" lon="2.63836">
        <ele>774.5</ele>
        <time>2022-06-21T12:09:26Z</time>
      </trkpt>
      <trkpt lat="43.43391" lon="2.63836">
        <ele>774.6</ele>
        <time>2022-06-21T12:09:27Z</time>
      </trkpt>
      <trkpt lat="43.43391" lon="2.63836">
        <ele>774.6</ele>
        <time>2022-06-21T12:09:28Z</time>
      </trkpt>
      <trkpt lat="43.43392" lon="2.63836">
        <ele>774.6</ele>
        <time>2022-06-21T12:09:29Z</time>
      </trkpt>
      <trkpt lat="43.43393" lon="2.63836">
        <ele>774.7</ele>
        <time>2022-06-21T12:09:30Z</time>
      </trkpt>
      <trkpt lat="43.43393" lon="2.63837">
        <ele>774.7</ele>
        <time>2022-06-21T12:09:31Z</time>
      </trkpt>
      <trkpt lat="43.43394" lon="2.63837">
        <ele>774.8</ele>
        <time>2022-06-21T12:09:32Z</time>
      </trkpt>
      <trkpt lat="43.43394" lon="2.63837">
        <ele>774.8</ele>
        <time>2022-06-21T12:09:33Z</time>
      </trkpt>
      <trkpt lat="43.43395" lon="2.63838">
        <ele>774.9</ele>
        <time>2022-06-21T12:09:34Z</time>
      </trkpt>
      <trkpt lat="43.43395" lon="2.63838">
        <ele>774.9</ele>
        <time>2022-06-21T12:09:35Z</time>
      </trkpt>
      <trkpt lat="43.43396" lon="2.63839">
        <ele>774.9</ele>
        <time>2022-06-21T12:09:36Z</time>
      </trkpt>
      <trkpt lat="43.43396" lon="2.63839">
        <ele>775</ele>
        <time>2022-06-21T12:09:37Z</time>
      </trkpt>
      <trkpt lat="43.43396" lon="2.6384">
        <ele>775</ele>
        <time>2022-06-21T12:09:38Z</time>
      </trkpt>
      <trkpt lat="43.43397" lon="2.6384">
        <ele>775.1</ele>
        <time>2022-06-21T12:09:39Z</time>
      </trkpt>
      <trkpt lat="43.43397" lon="2.6384">
        <ele>775.1</ele>
        <time>2022-06-21T12:09:40Z</time>
      </trkpt>
      <trkpt lat="43.43398" lon="2.63841">
        <ele>775.2</ele>
        <time>2022-06-21T12:09:41Z</time>
      </trkpt>
      <trkpt lat="43.43399" lon="2.63841">
        <ele>775.2</ele>
        <time>2022-06-21T12:09:42Z</time>
      </trkpt>
      <trkpt lat="43.434" lon="2.63842">
        <ele>775.3</ele>
        <time>2022-06-21T12:09:43Z</time>
      </trkpt>
      <trkpt lat="43.434" lon="2.63843">
        <ele>775.4</ele>
        <time>2022-06-21T12:09:44Z</time>
      </trkpt>
      <trkpt lat="43.43401" lon="2.63843">
        <ele>775.4</ele>
        <time>2022-06-21T12:09:45Z</time>
      </trkpt>
      <trkpt lat="43.43401" lon="2.63844">
        <ele>775.5</ele>
        <time>2022-06-21T12:09:46Z</time>
      </trkpt>
      <trkpt lat="43.43402" lon="2.63845">
        <ele>775.6</ele>
        <time>2022-06-21T12:09:47Z</time>
      </trkpt>
      <trkpt lat="43.43402" lon="2.63845">
        <ele>775.6</ele>
        <time>2022-06-21T12:09:48Z</time>
      </trkpt>
      <trkpt lat="43.43402" lon="2.63846">
        <ele>775.6</ele>
        <time>2022-06-21T12:09:49Z</time>
      </trkpt>
      <trkpt lat="43.43402" lon="2.63846">
        <ele>775.6</ele>
        <time>2022-06-21T12:09:50Z</time>
      </trkpt>
      <trkpt lat="43.43402" lon="2.63846">
        <ele>775.6</ele>
        <time>2022-06-21T12:09:51Z</time>
      </trkpt>
      <trkpt lat="43.43402" lon="2.63847">
        <ele>775.7</ele>
        <time>2022-06-21T12:09:52Z</time>
      </trkpt>
      <trkpt lat="43.43403" lon="2.63847">
        <ele>775.7</ele>
        <time>2022-06-21T12:09:53Z</time>
      </trkpt>
      <trkpt lat="43.43403" lon="2.63848">
        <ele>775.8</ele>
        <time>2022-06-21T12:09:54Z</time>
      </trkpt>
      <trkpt lat="43.43404" lon="2.63849">
        <ele>775.8</ele>
        <time>2022-06-21T12:09:55Z</time>
      </trkpt>
      <trkpt lat="43.43404" lon="2.6385">
        <ele>775.9</ele>
        <time>2022-06-21T12:09:56Z</time>
      </trkpt>
      <trkpt lat="43.43404" lon="2.6385">
        <ele>775.9</ele>
        <time>2022-06-21T12:09:57Z</time>
      </trkpt>
      <trkpt lat="43.43404" lon="2.6385">
        <ele>775.9</ele>
        <time>2022-06-21T12:09:58Z</time>
      </trkpt>
      <trkpt lat="43.43404" lon="2.6385">
        <ele>775.9</ele>
        <time>2022-06-21T12:09:59Z</time>
      </trkpt>
      <trkpt lat="43.43404" lon="2.6385">
        <ele>775.9</ele>
        <time>2022-06-21T12:10:00Z</time>
      </trkpt>
      <trkpt lat="43.43405" lon="2.63851">
        <ele>776</ele>
        <time>2022-06-21T12:10:01Z</time>
      </trkpt>
      <trkpt lat="43.43405" lon="2.63851">
        <ele>776</ele>
        <time>2022-06-21T12:10:02Z</time>
      </trkpt>
      <trkpt lat="43.43406" lon="2.63852">
        <ele>776.1</ele>
        <time>2022-06-21T12:10:03Z</time>
      </trkpt>
      <trkpt lat="43.43407" lon="2.63853">
        <ele>776.2</ele>
        <time>2022-06-21T12:10:04Z</time>
      </trkpt>
      <trkpt lat="43.43408" lon="2.63854">
        <ele>776.3</ele>
        <time>2022-06-21T12:10:05Z</time>
      </trkpt>
      <trkpt lat="43.43409" lon="2.63855">
        <ele>776.4</ele>
        <time>2022-06-21T12:10:06Z</time>
      </trkpt>
      <trkpt lat="43.43409" lon="2.63855">
        <ele>776.4</ele>
        <time>2022-06-21T12:10:07Z</time>
      </trkpt>
      <trkpt lat="43.4341" lon="2.63855">
        <ele>776.4</ele>
        <time>2022-06-21T12:10:08Z</time>
      </trkpt>
      <trkpt lat="43.4341" lon="2.63856">
        <ele>776.5</ele>
        <time>2022-06-21T12:10:09Z</time>
      </trkpt>
      <trkpt lat="43.43411" lon="2.63856">
        <ele>776.5</ele>
        <time>2022-06-21T12:10:10Z</time>
      </trkpt>
      <trkpt lat="43.43411" lon="2.63856">
        <ele>776.6</ele>
        <time>2022-06-21T12:10:11Z</time>
      </trkpt>
      <trkpt lat="43.43412" lon="2.63856">
        <ele>776.6</ele>
        <time>2022-06-21T12:10:12Z</time>
      </trkpt>
      <trkpt lat="43.43412" lon="2.63856">
        <ele>776.6</ele>
        <time>2022-06-21T12:10:13Z</time>
      </trkpt>
      <trkpt lat="43.43413" lon="2.63857">
        <ele>776.7</ele>
        <time>2022-06-21T12:10:14Z</time>
      </trkpt>
      <trkpt lat="43.43413" lon="2.63857">
        <ele>776.7</ele>
        <time>2022-06-21T12:10:15Z</time>
      </trkpt>
      <trkpt lat="43.43417" lon="2.63859">
        <ele>777</ele>
        <time>2022-06-21T12:10:16Z</time>
      </trkpt>
      <trkpt lat="43.43418" lon="2.6386">
        <ele>777.1</ele>
        <time>2022-06-21T12:10:17Z</time>
      </trkpt>
      <trkpt lat="43.43421" lon="2.63861">
        <ele>777.4</ele>
        <time>2022-06-21T12:10:18Z</time>
      </trkpt>
      <trkpt lat="43.43422" lon="2.63862">
        <ele>777.4</ele>
        <time>2022-06-21T12:10:19Z</time>
      </trkpt>
      <trkpt lat="43.43423" lon="2.63862">
        <ele>777.6</ele>
        <time>2022-06-21T12:10:20Z</time>
      </trkpt>
      <trkpt lat="43.43425" lon="2.63863">
        <ele>777.7</ele>
        <time>2022-06-21T12:10:21Z</time>
      </trkpt>
      <trkpt lat="43.43427" lon="2.63865">
        <ele>777.9</ele>
        <time>2022-06-21T12:10:22Z</time>
      </trkpt>
      <trkpt lat="43.43428" lon="2.63865">
        <ele>777.9</ele>
        <time>2022-06-21T12:10:23Z</time>
      </trkpt>
      <trkpt lat="43.43429" lon="2.63866">
        <ele>777.9</ele>
        <time>2022-06-21T12:10:24Z</time>
      </trkpt>
      <trkpt lat="43.43429" lon="2.63867">
        <ele>778</ele>
        <time>2022-06-21T12:10:25Z</time>
      </trkpt>
      <trkpt lat="43.4343" lon="2.63867">
        <ele>778</ele>
        <time>2022-06-21T12:10:26Z</time>
      </trkpt>
      <trkpt lat="43.43431" lon="2.63868">
        <ele>778.1</ele>
        <time>2022-06-21T12:10:27Z</time>
      </trkpt>
      <trkpt lat="43.43431" lon="2.63869">
        <ele>778.2</ele>
        <time>2022-06-21T12:10:28Z</time>
      </trkpt>
      <trkpt lat="43.43431" lon="2.63869">
        <ele>778.2</ele>
        <time>2022-06-21T12:10:29Z</time>
      </trkpt>
      <trkpt lat="43.43432" lon="2.63869">
        <ele>778.2</ele>
        <time>2022-06-21T12:10:30Z</time>
      </trkpt>
      <trkpt lat="43.43433" lon="2.6387">
        <ele>778.3</ele>
        <time>2022-06-21T12:10:31Z</time>
      </trkpt>
      <trkpt lat="43.43433" lon="2.6387">
        <ele>778.4</ele>
        <time>2022-06-21T12:10:32Z</time>
      </trkpt>
      <trkpt lat="43.43434" lon="2.6387">
        <ele>778.4</ele>
        <time>2022-06-21T12:10:33Z</time>
      </trkpt>
      <trkpt lat="43.43435" lon="2.63871">
        <ele>778.5</ele>
        <time>2022-06-21T12:10:34Z</time>
      </trkpt>
      <trkpt lat="43.43436" lon="2.63871">
        <ele>778.6</ele>
        <time>2022-06-21T12:10:35Z</time>
      </trkpt>
      <trkpt lat="43.43437" lon="2.63871">
        <ele>778.6</ele>
        <time>2022-06-21T12:10:36Z</time>
      </trkpt>
      <trkpt lat="43.43439" lon="2.63872">
        <ele>778.8</ele>
        <time>2022-06-21T12:10:37Z</time>
      </trkpt>
      <trkpt lat="43.4344" lon="2.63873">
        <ele>778.9</ele>
        <time>2022-06-21T12:10:38Z</time>
      </trkpt>
      <trkpt lat="43.43441" lon="2.63873">
        <ele>778.9</ele>
        <time>2022-06-21T12:10:39Z</time>
      </trkpt>
      <trkpt lat="43.43442" lon="2.63873">
        <ele>779.1</ele>
        <time>2022-06-21T12:10:40Z</time>
      </trkpt>
      <trkpt lat="43.43443" lon="2.63874">
        <ele>779.2</ele>
        <time>2022-06-21T12:10:41Z</time>
      </trkpt>
      <trkpt lat="43.43444" lon="2.63875">
        <ele>779.3</ele>
        <time>2022-06-21T12:10:42Z</time>
      </trkpt>
      <trkpt lat="43.43445" lon="2.63875">
        <ele>779.3</ele>
        <time>2022-06-21T12:10:43Z</time>
      </trkpt>
      <trkpt lat="43.43447" lon="2.63876">
        <ele>779.4</ele>
        <time>2022-06-21T12:10:44Z</time>
      </trkpt>
      <trkpt lat="43.43448" lon="2.63876">
        <ele>779.5</ele>
        <time>2022-06-21T12:10:45Z</time>
      </trkpt>
      <trkpt lat="43.43449" lon="2.63876">
        <ele>779.6</ele>
        <time>2022-06-21T12:10:46Z</time>
      </trkpt>
      <trkpt lat="43.4345" lon="2.63876">
        <ele>779.7</ele>
        <time>2022-06-21T12:10:47Z</time>
      </trkpt>
      <trkpt lat="43.43451" lon="2.63876">
        <ele>779.6</ele>
        <time>2022-06-21T12:10:48Z</time>
      </trkpt>
      <trkpt lat="43.43452" lon="2.63876">
        <ele>779.7</ele>
        <time>2022-06-21T12:10:49Z</time>
      </trkpt>
      <trkpt lat="43.43453" lon="2.63876">
        <ele>779.8</ele>
        <time>2022-06-21T12:10:50Z</time>
      </trkpt>
      <trkpt lat="43.43455" lon="2.63876">
        <ele>780</ele>
        <time>2022-06-21T12:10:51Z</time>
      </trkpt>
      <trkpt lat="43.43456" lon="2.63877">
        <ele>780.1</ele>
        <time>2022-06-21T12:10:52Z</time>
      </trkpt>
      <trkpt lat="43.43458" lon="2.63877">
        <ele>780.2</ele>
        <time>2022-06-21T12:10:53Z</time>
      </trkpt>
      <trkpt lat="43.43459" lon="2.63878">
        <ele>780.3</ele>
        <time>2022-06-21T12:10:54Z</time>
      </trkpt>
      <trkpt lat="43.4346" lon="2.63878">
        <ele>780.4</ele>
        <time>2022-06-21T12:10:55Z</time>
      </trkpt>
      <trkpt lat="43.43461" lon="2.63879">
        <ele>780.5</ele>
        <time>2022-06-21T12:10:56Z</time>
      </trkpt>
      <trkpt lat="43.43463" lon="2.63879">
        <ele>780.6</ele>
        <time>2022-06-21T12:10:57Z</time>
      </trkpt>
      <trkpt lat="43.43464" lon="2.63879">
        <ele>780.7</ele>
        <time>2022-06-21T12:10:58Z</time>
      </trkpt>
      <trkpt lat="43.43465" lon="2.6388">
        <ele>780.8</ele>
        <time>2022-06-21T12:10:59Z</time>
      </trkpt>
      <trkpt lat="43.43466" lon="2.6388">
        <ele>780.8</ele>
        <time>2022-06-21T12:11:00Z</time>
      </trkpt>
      <trkpt lat="43.43467" lon="2.63881">
        <ele>780.9</ele>
        <time>2022-06-21T12:11:01Z</time>
      </trkpt>
      <trkpt lat="43.43468" lon="2.63882">
        <ele>781</ele>
        <time>2022-06-21T12:11:02Z</time>
      </trkpt>
      <trkpt lat="43.43469" lon="2.63882">
        <ele>781.1</ele>
        <time>2022-06-21T12:11:03Z</time>
      </trkpt>
      <trkpt lat="43.4347" lon="2.63884">
        <ele>781.2</ele>
        <time>2022-06-21T12:11:04Z</time>
      </trkpt>
      <trkpt lat="43.4347" lon="2.63884">
        <ele>781.2</ele>
        <time>2022-06-21T12:11:05Z</time>
      </trkpt>
      <trkpt lat="43.43471" lon="2.63884">
        <ele>781.3</ele>
        <time>2022-06-21T12:11:06Z</time>
      </trkpt>
      <trkpt lat="43.43471" lon="2.63885">
        <ele>781.3</ele>
        <time>2022-06-21T12:11:07Z</time>
      </trkpt>
      <trkpt lat="43.43472" lon="2.63885">
        <ele>781.4</ele>
        <time>2022-06-21T12:11:08Z</time>
      </trkpt>
      <trkpt lat="43.43473" lon="2.63886">
        <ele>781.5</ele>
        <time>2022-06-21T12:11:09Z</time>
      </trkpt>
      <trkpt lat="43.43474" lon="2.63887">
        <ele>781.6</ele>
        <time>2022-06-21T12:11:10Z</time>
      </trkpt>
      <trkpt lat="43.43475" lon="2.63887">
        <ele>781.7</ele>
        <time>2022-06-21T12:11:11Z</time>
      </trkpt>
      <trkpt lat="43.43476" lon="2.63888">
        <ele>781.7</ele>
        <time>2022-06-21T12:11:12Z</time>
      </trkpt>
      <trkpt lat="43.43477" lon="2.63888">
        <ele>781.7</ele>
        <time>2022-06-21T12:11:13Z</time>
      </trkpt>
      <trkpt lat="43.43478" lon="2.63888">
        <ele>781.8</ele>
        <time>2022-06-21T12:11:14Z</time>
      </trkpt>
      <trkpt lat="43.43479" lon="2.63888">
        <ele>781.9</ele>
        <time>2022-06-21T12:11:15Z</time>
      </trkpt>
      <trkpt lat="43.43479" lon="2.63888">
        <ele>781.9</ele>
        <time>2022-06-21T12:11:16Z</time>
      </trkpt>
      <trkpt lat="43.4348" lon="2.63888">
        <ele>782</ele>
        <time>2022-06-21T12:11:17Z</time>
      </trkpt>
      <trkpt lat="43.43481" lon="2.63888">
        <ele>782.1</ele>
        <time>2022-06-21T12:11:18Z</time>
      </trkpt>
      <trkpt lat="43.43482" lon="2.63888">
        <ele>782.2</ele>
        <time>2022-06-21T12:11:19Z</time>
      </trkpt>
      <trkpt lat="43.43484" lon="2.63889">
        <ele>782.3</ele>
        <time>2022-06-21T12:11:20Z</time>
      </trkpt>
      <trkpt lat="43.43485" lon="2.63889">
        <ele>782.3</ele>
        <time>2022-06-21T12:11:21Z</time>
      </trkpt>
      <trkpt lat="43.43487" lon="2.63889">
        <ele>782.4</ele>
        <time>2022-06-21T12:11:22Z</time>
      </trkpt>
      <trkpt lat="43.43487" lon="2.63889">
        <ele>782.5</ele>
        <time>2022-06-21T12:11:23Z</time>
      </trkpt>
      <trkpt lat="43.43489" lon="2.63889">
        <ele>782.6</ele>
        <time>2022-06-21T12:11:24Z</time>
      </trkpt>
      <trkpt lat="43.4349" lon="2.6389">
        <ele>782.7</ele>
        <time>2022-06-21T12:11:25Z</time>
      </trkpt>
      <trkpt lat="43.43492" lon="2.6389">
        <ele>782.9</ele>
        <time>2022-06-21T12:11:26Z</time>
      </trkpt>
      <trkpt lat="43.43493" lon="2.6389">
        <ele>783</ele>
        <time>2022-06-21T12:11:27Z</time>
      </trkpt>
      <trkpt lat="43.43494" lon="2.6389">
        <ele>783</ele>
        <time>2022-06-21T12:11:28Z</time>
      </trkpt>
      <trkpt lat="43.43495" lon="2.6389">
        <ele>783.1</ele>
        <time>2022-06-21T12:11:29Z</time>
      </trkpt>
      <trkpt lat="43.43496" lon="2.63891">
        <ele>783.2</ele>
        <time>2022-06-21T12:11:30Z</time>
      </trkpt>
      <trkpt lat="43.43498" lon="2.63891">
        <ele>783.3</ele>
        <time>2022-06-21T12:11:31Z</time>
      </trkpt>
      <trkpt lat="43.435" lon="2.63892">
        <ele>783.5</ele>
        <time>2022-06-21T12:11:32Z</time>
      </trkpt>
      <trkpt lat="43.43501" lon="2.63892">
        <ele>783.6</ele>
        <time>2022-06-21T12:11:33Z</time>
      </trkpt>
      <trkpt lat="43.43502" lon="2.63892">
        <ele>783.6</ele>
        <time>2022-06-21T12:11:34Z</time>
      </trkpt>
      <trkpt lat="43.43503" lon="2.63892">
        <ele>783.7</ele>
        <time>2022-06-21T12:11:35Z</time>
      </trkpt>
      <trkpt lat="43.43504" lon="2.63893">
        <ele>783.8</ele>
        <time>2022-06-21T12:11:36Z</time>
      </trkpt>
      <trkpt lat="43.43505" lon="2.63893">
        <ele>783.9</ele>
        <time>2022-06-21T12:11:37Z</time>
      </trkpt>
      <trkpt lat="43.43506" lon="2.63894">
        <ele>783.9</ele>
        <time>2022-06-21T12:11:38Z</time>
      </trkpt>
      <trkpt lat="43.43507" lon="2.63894">
        <ele>784</ele>
        <time>2022-06-21T12:11:39Z</time>
      </trkpt>
      <trkpt lat="43.43508" lon="2.63894">
        <ele>784.1</ele>
        <time>2022-06-21T12:11:40Z</time>
      </trkpt>
      <trkpt lat="43.43509" lon="2.63894">
        <ele>784.1</ele>
        <time>2022-06-21T12:11:41Z</time>
      </trkpt>
      <trkpt lat="43.4351" lon="2.63895">
        <ele>784.2</ele>
        <time>2022-06-21T12:11:42Z</time>
      </trkpt>
      <trkpt lat="43.43511" lon="2.63895">
        <ele>784.3</ele>
        <time>2022-06-21T12:11:43Z</time>
      </trkpt>
      <trkpt lat="43.43512" lon="2.63895">
        <ele>784.4</ele>
        <time>2022-06-21T12:11:44Z</time>
      </trkpt>
      <trkpt lat="43.43513" lon="2.63896">
        <ele>784.4</ele>
        <time>2022-06-21T12:11:45Z</time>
      </trkpt>
      <trkpt lat="43.43514" lon="2.63896">
        <ele>784.5</ele>
        <time>2022-06-21T12:11:46Z</time>
      </trkpt>
      <trkpt lat="43.43515" lon="2.63896">
        <ele>784.6</ele>
        <time>2022-06-21T12:11:47Z</time>
      </trkpt>
      <trkpt lat="43.43516" lon="2.63895">
        <ele>784.6</ele>
        <time>2022-06-21T12:11:48Z</time>
      </trkpt>
      <trkpt lat="43.43517" lon="2.63896">
        <ele>784.7</ele>
        <time>2022-06-21T12:11:49Z</time>
      </trkpt>
      <trkpt lat="43.43517" lon="2.63896">
        <ele>784.8</ele>
        <time>2022-06-21T12:11:50Z</time>
      </trkpt>
      <trkpt lat="43.43519" lon="2.63896">
        <ele>784.9</ele>
        <time>2022-06-21T12:11:51Z</time>
      </trkpt>
      <trkpt lat="43.4352" lon="2.63896">
        <ele>784.9</ele>
        <time>2022-06-21T12:11:52Z</time>
      </trkpt>
      <trkpt lat="43.4352" lon="2.63896">
        <ele>785</ele>
        <time>2022-06-21T12:11:53Z</time>
      </trkpt>
      <trkpt lat="43.43522" lon="2.63896">
        <ele>785.1</ele>
        <time>2022-06-21T12:11:54Z</time>
      </trkpt>
      <trkpt lat="43.43523" lon="2.63896">
        <ele>785.2</ele>
        <time>2022-06-21T12:11:55Z</time>
      </trkpt>
      <trkpt lat="43.43524" lon="2.63896">
        <ele>785.3</ele>
        <time>2022-06-21T12:11:56Z</time>
      </trkpt>
      <trkpt lat="43.43525" lon="2.63896">
        <ele>785.3</ele>
        <time>2022-06-21T12:11:57Z</time>
      </trkpt>
      <trkpt lat="43.43526" lon="2.63896">
        <ele>785.4</ele>
        <time>2022-06-21T12:11:58Z</time>
      </trkpt>
      <trkpt lat="43.43527" lon="2.63896">
        <ele>785.5</ele>
        <time>2022-06-21T12:11:59Z</time>
      </trkpt>
      <trkpt lat="43.43528" lon="2.63896">
        <ele>785.6</ele>
        <time>2022-06-21T12:12:00Z</time>
      </trkpt>
      <trkpt lat="43.43529" lon="2.63896">
        <ele>785.7</ele>
        <time>2022-06-21T12:12:01Z</time>
      </trkpt>
      <trkpt lat="43.4353" lon="2.63896">
        <ele>785.7</ele>
        <time>2022-06-21T12:12:02Z</time>
      </trkpt>
      <trkpt lat="43.4353" lon="2.63895">
        <ele>785.8</ele>
        <time>2022-06-21T12:12:03Z</time>
      </trkpt>
      <trkpt lat="43.43531" lon="2.63895">
        <ele>785.8</ele>
        <time>2022-06-21T12:12:04Z</time>
      </trkpt>
      <trkpt lat="43.43531" lon="2.63895">
        <ele>785.8</ele>
        <time>2022-06-21T12:12:05Z</time>
      </trkpt>
      <trkpt lat="43.43532" lon="2.63895">
        <ele>785.9</ele>
        <time>2022-06-21T12:12:06Z</time>
      </trkpt>
      <trkpt lat="43.43533" lon="2.63895">
        <ele>786</ele>
        <time>2022-06-21T12:12:07Z</time>
      </trkpt>
      <trkpt lat="43.43534" lon="2.63895">
        <ele>786</ele>
        <time>2022-06-21T12:12:08Z</time>
      </trkpt>
      <trkpt lat="43.43535" lon="2.63895">
        <ele>786.1</ele>
        <time>2022-06-21T12:12:09Z</time>
      </trkpt>
      <trkpt lat="43.43536" lon="2.63894">
        <ele>786.2</ele>
        <time>2022-06-21T12:12:10Z</time>
      </trkpt>
      <trkpt lat="43.43536" lon="2.63894">
        <ele>786.2</ele>
        <time>2022-06-21T12:12:11Z</time>
      </trkpt>
      <trkpt lat="43.43538" lon="2.63894">
        <ele>786.4</ele>
        <time>2022-06-21T12:12:12Z</time>
      </trkpt>
      <trkpt lat="43.43539" lon="2.63894">
        <ele>786.4</ele>
        <time>2022-06-21T12:12:13Z</time>
      </trkpt>
      <trkpt lat="43.43539" lon="2.63894">
        <ele>786.5</ele>
        <time>2022-06-21T12:12:14Z</time>
      </trkpt>
      <trkpt lat="43.4354" lon="2.63894">
        <ele>786.5</ele>
        <time>2022-06-21T12:12:15Z</time>
      </trkpt>
      <trkpt lat="43.43541" lon="2.63893">
        <ele>786.6</ele>
        <time>2022-06-21T12:12:16Z</time>
      </trkpt>
      <trkpt lat="43.43541" lon="2.63893">
        <ele>786.6</ele>
        <time>2022-06-21T12:12:17Z</time>
      </trkpt>
      <trkpt lat="43.43542" lon="2.63892">
        <ele>786.7</ele>
        <time>2022-06-21T12:12:18Z</time>
      </trkpt>
      <trkpt lat="43.43543" lon="2.63892">
        <ele>786.8</ele>
        <time>2022-06-21T12:12:19Z</time>
      </trkpt>
      <trkpt lat="43.43544" lon="2.63891">
        <ele>786.8</ele>
        <time>2022-06-21T12:12:20Z</time>
      </trkpt>
      <trkpt lat="43.43545" lon="2.63891">
        <ele>786.9</ele>
        <time>2022-06-21T12:12:21Z</time>
      </trkpt>
      <trkpt lat="43.43546" lon="2.63891">
        <ele>787</ele>
        <time>2022-06-21T12:12:22Z</time>
      </trkpt>
      <trkpt lat="43.43547" lon="2.63891">
        <ele>787.1</ele>
        <time>2022-06-21T12:12:23Z</time>
      </trkpt>
      <trkpt lat="43.43548" lon="2.63891">
        <ele>787.1</ele>
        <time>2022-06-21T12:12:24Z</time>
      </trkpt>
      <trkpt lat="43.43549" lon="2.63891">
        <ele>787.2</ele>
        <time>2022-06-21T12:12:25Z</time>
      </trkpt>
      <trkpt lat="43.43549" lon="2.63891">
        <ele>787.3</ele>
        <time>2022-06-21T12:12:26Z</time>
      </trkpt>
      <trkpt lat="43.4355" lon="2.63891">
        <ele>787.3</ele>
        <time>2022-06-21T12:12:27Z</time>
      </trkpt>
      <trkpt lat="43.43551" lon="2.63891">
        <ele>787.4</ele>
        <time>2022-06-21T12:12:28Z</time>
      </trkpt>
      <trkpt lat="43.43552" lon="2.63891">
        <ele>787.5</ele>
        <time>2022-06-21T12:12:29Z</time>
      </trkpt>
      <trkpt lat="43.43553" lon="2.63891">
        <ele>787.5</ele>
        <time>2022-06-21T12:12:30Z</time>
      </trkpt>
      <trkpt lat="43.43553" lon="2.63891">
        <ele>787.6</ele>
        <time>2022-06-21T12:12:31Z</time>
      </trkpt>
      <trkpt lat="43.43554" lon="2.63891">
        <ele>787.6</ele>
        <time>2022-06-21T12:12:32Z</time>
      </trkpt>
      <trkpt lat="43.43556" lon="2.63891">
        <ele>787.7</ele>
        <time>2022-06-21T12:12:33Z</time>
      </trkpt>
      <trkpt lat="43.43556" lon="2.63891">
        <ele>787.8</ele>
        <time>2022-06-21T12:12:34Z</time>
      </trkpt>
      <trkpt lat="43.43557" lon="2.63891">
        <ele>787.9</ele>
        <time>2022-06-21T12:12:35Z</time>
      </trkpt>
      <trkpt lat="43.43558" lon="2.63891">
        <ele>787.9</ele>
        <time>2022-06-21T12:12:36Z</time>
      </trkpt>
      <trkpt lat="43.43559" lon="2.63891">
        <ele>788</ele>
        <time>2022-06-21T12:12:37Z</time>
      </trkpt>
      <trkpt lat="43.4356" lon="2.6389">
        <ele>788.1</ele>
        <time>2022-06-21T12:12:38Z</time>
      </trkpt>
      <trkpt lat="43.43561" lon="2.6389">
        <ele>788.2</ele>
        <time>2022-06-21T12:12:39Z</time>
      </trkpt>
      <trkpt lat="43.43562" lon="2.6389">
        <ele>788.2</ele>
        <time>2022-06-21T12:12:40Z</time>
      </trkpt>
      <trkpt lat="43.43562" lon="2.6389">
        <ele>788.3</ele>
        <time>2022-06-21T12:12:41Z</time>
      </trkpt>
      <trkpt lat="43.43563" lon="2.6389">
        <ele>788.3</ele>
        <time>2022-06-21T12:12:42Z</time>
      </trkpt>
      <trkpt lat="43.43564" lon="2.6389">
        <ele>788.4</ele>
        <time>2022-06-21T12:12:43Z</time>
      </trkpt>
      <trkpt lat="43.43565" lon="2.6389">
        <ele>788.4</ele>
        <time>2022-06-21T12:12:44Z</time>
      </trkpt>
      <trkpt lat="43.43565" lon="2.6389">
        <ele>788.5</ele>
        <time>2022-06-21T12:12:45Z</time>
      </trkpt>
      <trkpt lat="43.43566" lon="2.6389">
        <ele>788.5</ele>
        <time>2022-06-21T12:12:46Z</time>
      </trkpt>
      <trkpt lat="43.43567" lon="2.63889">
        <ele>788.6</ele>
        <time>2022-06-21T12:12:47Z</time>
      </trkpt>
      <trkpt lat="43.43567" lon="2.63889">
        <ele>788.7</ele>
        <time>2022-06-21T12:12:48Z</time>
      </trkpt>
      <trkpt lat="43.43568" lon="2.63888">
        <ele>788.8</ele>
        <time>2022-06-21T12:12:49Z</time>
      </trkpt>
      <trkpt lat="43.4357" lon="2.63887">
        <ele>788.9</ele>
        <time>2022-06-21T12:12:50Z</time>
      </trkpt>
      <trkpt lat="43.43571" lon="2.63887">
        <ele>789</ele>
        <time>2022-06-21T12:12:51Z</time>
      </trkpt>
      <trkpt lat="43.43572" lon="2.63886">
        <ele>789.1</ele>
        <time>2022-06-21T12:12:52Z</time>
      </trkpt>
      <trkpt lat="43.43573" lon="2.63886">
        <ele>789.1</ele>
        <time>2022-06-21T12:12:53Z</time>
      </trkpt>
      <trkpt lat="43.43574" lon="2.63886">
        <ele>789.2</ele>
        <time>2022-06-21T12:12:54Z</time>
      </trkpt>
      <trkpt lat="43.43575" lon="2.63886">
        <ele>789.3</ele>
        <time>2022-06-21T12:12:55Z</time>
      </trkpt>
      <trkpt lat="43.43576" lon="2.63885">
        <ele>789.4</ele>
        <time>2022-06-21T12:12:56Z</time>
      </trkpt>
      <trkpt lat="43.43577" lon="2.63885">
        <ele>789.5</ele>
        <time>2022-06-21T12:12:57Z</time>
      </trkpt>
      <trkpt lat="43.43578" lon="2.63885">
        <ele>789.5</ele>
        <time>2022-06-21T12:12:58Z</time>
      </trkpt>
      <trkpt lat="43.43579" lon="2.63885">
        <ele>789.6</ele>
        <time>2022-06-21T12:12:59Z</time>
      </trkpt>
      <trkpt lat="43.4358" lon="2.63884">
        <ele>789.7</ele>
        <time>2022-06-21T12:13:00Z</time>
      </trkpt>
      <trkpt lat="43.43581" lon="2.63884">
        <ele>789.8</ele>
        <time>2022-06-21T12:13:01Z</time>
      </trkpt>
      <trkpt lat="43.43582" lon="2.63884">
        <ele>789.8</ele>
        <time>2022-06-21T12:13:02Z</time>
      </trkpt>
      <trkpt lat="43.43582" lon="2.63884">
        <ele>789.9</ele>
        <time>2022-06-21T12:13:03Z</time>
      </trkpt>
      <trkpt lat="43.43583" lon="2.63884">
        <ele>789.9</ele>
        <time>2022-06-21T12:13:04Z</time>
      </trkpt>
      <trkpt lat="43.43583" lon="2.63884">
        <ele>789.9</ele>
        <time>2022-06-21T12:13:05Z</time>
      </trkpt>
      <trkpt lat="43.43585" lon="2.63883">
        <ele>790.1</ele>
        <time>2022-06-21T12:13:06Z</time>
      </trkpt>
      <trkpt lat="43.43586" lon="2.63883">
        <ele>790.1</ele>
        <time>2022-06-21T12:13:07Z</time>
      </trkpt>
      <trkpt lat="43.43587" lon="2.63883">
        <ele>790.2</ele>
        <time>2022-06-21T12:13:08Z</time>
      </trkpt>
      <trkpt lat="43.43588" lon="2.63883">
        <ele>790.3</ele>
        <time>2022-06-21T12:13:09Z</time>
      </trkpt>
      <trkpt lat="43.43588" lon="2.63882">
        <ele>790.4</ele>
        <time>2022-06-21T12:13:10Z</time>
      </trkpt>
      <trkpt lat="43.4359" lon="2.63882">
        <ele>790.5</ele>
        <time>2022-06-21T12:13:11Z</time>
      </trkpt>
      <trkpt lat="43.43591" lon="2.63881">
        <ele>790.6</ele>
        <time>2022-06-21T12:13:12Z</time>
      </trkpt>
      <trkpt lat="43.43592" lon="2.63881">
        <ele>790.6</ele>
        <time>2022-06-21T12:13:13Z</time>
      </trkpt>
      <trkpt lat="43.43593" lon="2.63881">
        <ele>790.7</ele>
        <time>2022-06-21T12:13:14Z</time>
      </trkpt>
      <trkpt lat="43.43593" lon="2.6388">
        <ele>790.7</ele>
        <time>2022-06-21T12:13:15Z</time>
      </trkpt>
      <trkpt lat="43.43594" lon="2.6388">
        <ele>790.8</ele>
        <time>2022-06-21T12:13:16Z</time>
      </trkpt>
      <trkpt lat="43.43595" lon="2.6388">
        <ele>790.9</ele>
        <time>2022-06-21T12:13:17Z</time>
      </trkpt>
      <trkpt lat="43.43595" lon="2.6388">
        <ele>790.9</ele>
        <time>2022-06-21T12:13:18Z</time>
      </trkpt>
      <trkpt lat="43.43596" lon="2.6388">
        <ele>791</ele>
        <time>2022-06-21T12:13:19Z</time>
      </trkpt>
      <trkpt lat="43.43597" lon="2.6388">
        <ele>791</ele>
        <time>2022-06-21T12:13:20Z</time>
      </trkpt>
      <trkpt lat="43.43598" lon="2.6388">
        <ele>791.1</ele>
        <time>2022-06-21T12:13:21Z</time>
      </trkpt>
      <trkpt lat="43.43598" lon="2.6388">
        <ele>791.1</ele>
        <time>2022-06-21T12:13:22Z</time>
      </trkpt>
      <trkpt lat="43.43598" lon="2.6388">
        <ele>791.1</ele>
        <time>2022-06-21T12:13:23Z</time>
      </trkpt>
      <trkpt lat="43.43598" lon="2.6388">
        <ele>791.1</ele>
        <time>2022-06-21T12:13:24Z</time>
      </trkpt>
      <trkpt lat="43.43599" lon="2.6388">
        <ele>791.2</ele>
        <time>2022-06-21T12:13:25Z</time>
      </trkpt>
      <trkpt lat="43.43599" lon="2.63879">
        <ele>791.2</ele>
        <time>2022-06-21T12:13:26Z</time>
      </trkpt>
      <trkpt lat="43.436" lon="2.63879">
        <ele>791.3</ele>
        <time>2022-06-21T12:13:27Z</time>
      </trkpt>
      <trkpt lat="43.43601" lon="2.63878">
        <ele>791.4</ele>
        <time>2022-06-21T12:13:28Z</time>
      </trkpt>
      <trkpt lat="43.43602" lon="2.63878">
        <ele>791.4</ele>
        <time>2022-06-21T12:13:29Z</time>
      </trkpt>
      <trkpt lat="43.43602" lon="2.63878">
        <ele>791.4</ele>
        <time>2022-06-21T12:13:30Z</time>
      </trkpt>
      <trkpt lat="43.43602" lon="2.63878">
        <ele>791.5</ele>
        <time>2022-06-21T12:13:31Z</time>
      </trkpt>
      <trkpt lat="43.43603" lon="2.63877">
        <ele>791.5</ele>
        <time>2022-06-21T12:13:32Z</time>
      </trkpt>
      <trkpt lat="43.43604" lon="2.63877">
        <ele>791.6</ele>
        <time>2022-06-21T12:13:33Z</time>
      </trkpt>
      <trkpt lat="43.43605" lon="2.63877">
        <ele>791.7</ele>
        <time>2022-06-21T12:13:34Z</time>
      </trkpt>
      <trkpt lat="43.43606" lon="2.63877">
        <ele>791.7</ele>
        <time>2022-06-21T12:13:35Z</time>
      </trkpt>
      <trkpt lat="43.43607" lon="2.63877">
        <ele>791.8</ele>
        <time>2022-06-21T12:13:36Z</time>
      </trkpt>
      <trkpt lat="43.43608" lon="2.63876">
        <ele>791.9</ele>
        <time>2022-06-21T12:13:37Z</time>
      </trkpt>
      <trkpt lat="43.43609" lon="2.63876">
        <ele>792</ele>
        <time>2022-06-21T12:13:38Z</time>
      </trkpt>
      <trkpt lat="43.43609" lon="2.63875">
        <ele>792</ele>
        <time>2022-06-21T12:13:39Z</time>
      </trkpt>
      <trkpt lat="43.4361" lon="2.63875">
        <ele>792.1</ele>
        <time>2022-06-21T12:13:40Z</time>
      </trkpt>
      <trkpt lat="43.43611" lon="2.63875">
        <ele>792.1</ele>
        <time>2022-06-21T12:13:41Z</time>
      </trkpt>
      <trkpt lat="43.43612" lon="2.63875">
        <ele>792.2</ele>
        <time>2022-06-21T12:13:42Z</time>
      </trkpt>
      <trkpt lat="43.43613" lon="2.63874">
        <ele>792.3</ele>
        <time>2022-06-21T12:13:43Z</time>
      </trkpt>
      <trkpt lat="43.43615" lon="2.63873">
        <ele>792.5</ele>
        <time>2022-06-21T12:13:44Z</time>
      </trkpt>
      <trkpt lat="43.43617" lon="2.63871">
        <ele>792.7</ele>
        <time>2022-06-21T12:13:45Z</time>
      </trkpt>
      <trkpt lat="43.43618" lon="2.63871">
        <ele>792.8</ele>
        <time>2022-06-21T12:13:46Z</time>
      </trkpt>
      <trkpt lat="43.4362" lon="2.6387">
        <ele>792.9</ele>
        <time>2022-06-21T12:13:47Z</time>
      </trkpt>
      <trkpt lat="43.4362" lon="2.6387">
        <ele>792.9</ele>
        <time>2022-06-21T12:13:48Z</time>
      </trkpt>
      <trkpt lat="43.4362" lon="2.6387">
        <ele>792.9</ele>
        <time>2022-06-21T12:13:49Z</time>
      </trkpt>
      <trkpt lat="43.4362" lon="2.6387">
        <ele>792.9</ele>
        <time>2022-06-21T12:13:50Z</time>
      </trkpt>
      <trkpt lat="43.43621" lon="2.6387">
        <ele>793</ele>
        <time>2022-06-21T12:13:51Z</time>
      </trkpt>
      <trkpt lat="43.43623" lon="2.6387">
        <ele>793.1</ele>
        <time>2022-06-21T12:13:52Z</time>
      </trkpt>
      <trkpt lat="43.43624" lon="2.63869">
        <ele>793.2</ele>
        <time>2022-06-21T12:13:53Z</time>
      </trkpt>
      <trkpt lat="43.43627" lon="2.63867">
        <ele>793.5</ele>
        <time>2022-06-21T12:13:54Z</time>
      </trkpt>
      <trkpt lat="43.43628" lon="2.63867">
        <ele>793.5</ele>
        <time>2022-06-21T12:13:55Z</time>
      </trkpt>
      <trkpt lat="43.43629" lon="2.63866">
        <ele>793.6</ele>
        <time>2022-06-21T12:13:56Z</time>
      </trkpt>
      <trkpt lat="43.43629" lon="2.63866">
        <ele>793.6</ele>
        <time>2022-06-21T12:13:57Z</time>
      </trkpt>
      <trkpt lat="43.43629" lon="2.63866">
        <ele>793.6</ele>
        <time>2022-06-21T12:13:58Z</time>
      </trkpt>
      <trkpt lat="43.4363" lon="2.63866">
        <ele>793.7</ele>
        <time>2022-06-21T12:13:59Z</time>
      </trkpt>
      <trkpt lat="43.43631" lon="2.63866">
        <ele>793.8</ele>
        <time>2022-06-21T12:14:00Z</time>
      </trkpt>
      <trkpt lat="43.43634" lon="2.63865">
        <ele>794</ele>
        <time>2022-06-21T12:14:01Z</time>
      </trkpt>
      <trkpt lat="43.43634" lon="2.63865">
        <ele>794</ele>
        <time>2022-06-21T12:14:02Z</time>
      </trkpt>
      <trkpt lat="43.43635" lon="2.63865">
        <ele>794.1</ele>
        <time>2022-06-21T12:14:03Z</time>
      </trkpt>
      <trkpt lat="43.43637" lon="2.63864">
        <ele>794.2</ele>
        <time>2022-06-21T12:14:04Z</time>
      </trkpt>
      <trkpt lat="43.43637" lon="2.63863">
        <ele>794.3</ele>
        <time>2022-06-21T12:14:05Z</time>
      </trkpt>
      <trkpt lat="43.43638" lon="2.63863">
        <ele>794.3</ele>
        <time>2022-06-21T12:14:06Z</time>
      </trkpt>
      <trkpt lat="43.43639" lon="2.63863">
        <ele>794.4</ele>
        <time>2022-06-21T12:14:07Z</time>
      </trkpt>
      <trkpt lat="43.4364" lon="2.63863">
        <ele>794.5</ele>
        <time>2022-06-21T12:14:08Z</time>
      </trkpt>
      <trkpt lat="43.43641" lon="2.63863">
        <ele>794.6</ele>
        <time>2022-06-21T12:14:09Z</time>
      </trkpt>
      <trkpt lat="43.43642" lon="2.63864">
        <ele>794.6</ele>
        <time>2022-06-21T12:14:10Z</time>
      </trkpt>
      <trkpt lat="43.43642" lon="2.63864">
        <ele>794.7</ele>
        <time>2022-06-21T12:14:11Z</time>
      </trkpt>
      <trkpt lat="43.43643" lon="2.63864">
        <ele>794.7</ele>
        <time>2022-06-21T12:14:12Z</time>
      </trkpt>
      <trkpt lat="43.43643" lon="2.63864">
        <ele>794.7</ele>
        <time>2022-06-21T12:14:13Z</time>
      </trkpt>
      <trkpt lat="43.43643" lon="2.63864">
        <ele>794.8</ele>
        <time>2022-06-21T12:14:14Z</time>
      </trkpt>
      <trkpt lat="43.43643" lon="2.63864">
        <ele>794.8</ele>
        <time>2022-06-21T12:14:15Z</time>
      </trkpt>
      <trkpt lat="43.43644" lon="2.63864">
        <ele>794.8</ele>
        <time>2022-06-21T12:14:16Z</time>
      </trkpt>
      <trkpt lat="43.43645" lon="2.63863">
        <ele>794.9</ele>
        <time>2022-06-21T12:14:17Z</time>
      </trkpt>
      <trkpt lat="43.43646" lon="2.63863">
        <ele>795</ele>
        <time>2022-06-21T12:14:18Z</time>
      </trkpt>
      <trkpt lat="43.43647" lon="2.63863">
        <ele>795.1</ele>
        <time>2022-06-21T12:14:19Z</time>
      </trkpt>
      <trkpt lat="43.43647" lon="2.63863">
        <ele>795.1</ele>
        <time>2022-06-21T12:14:20Z</time>
      </trkpt>
      <trkpt lat="43.43647" lon="2.63863">
        <ele>795.1</ele>
        <time>2022-06-21T12:14:21Z</time>
      </trkpt>
      <trkpt lat="43.43648" lon="2.63863">
        <ele>795.1</ele>
        <time>2022-06-21T12:14:22Z</time>
      </trkpt>
      <trkpt lat="43.43648" lon="2.63863">
        <ele>795.1</ele>
        <time>2022-06-21T12:14:23Z</time>
      </trkpt>
      <trkpt lat="43.43648" lon="2.63863">
        <ele>795.1</ele>
        <time>2022-06-21T12:14:24Z</time>
      </trkpt>
      <trkpt lat="43.43648" lon="2.63862">
        <ele>795.1</ele>
        <time>2022-06-21T12:14:25Z</time>
      </trkpt>
      <trkpt lat="43.43649" lon="2.63862">
        <ele>795.3</ele>
        <time>2022-06-21T12:14:26Z</time>
      </trkpt>
      <trkpt lat="43.43651" lon="2.63862">
        <ele>795.4</ele>
        <time>2022-06-21T12:14:27Z</time>
      </trkpt>
      <trkpt lat="43.43651" lon="2.63862">
        <ele>795.4</ele>
        <time>2022-06-21T12:14:28Z</time>
      </trkpt>
      <trkpt lat="43.43651" lon="2.63862">
        <ele>795.4</ele>
        <time>2022-06-21T12:14:29Z</time>
      </trkpt>
      <trkpt lat="43.43651" lon="2.63862">
        <ele>795.4</ele>
        <time>2022-06-21T12:14:30Z</time>
      </trkpt>
      <trkpt lat="43.43651" lon="2.63862">
        <ele>795.4</ele>
        <time>2022-06-21T12:14:31Z</time>
      </trkpt>
      <trkpt lat="43.43652" lon="2.63862">
        <ele>795.4</ele>
        <time>2022-06-21T12:14:32Z</time>
      </trkpt>
      <trkpt lat="43.43652" lon="2.63862">
        <ele>795.5</ele>
        <time>2022-06-21T12:14:33Z</time>
      </trkpt>
      <trkpt lat="43.43652" lon="2.63862">
        <ele>795.5</ele>
        <time>2022-06-21T12:14:34Z</time>
      </trkpt>
      <trkpt lat="43.43652" lon="2.63862">
        <ele>795.5</ele>
        <time>2022-06-21T12:14:35Z</time>
      </trkpt>
      <trkpt lat="43.43652" lon="2.63862">
        <ele>795.5</ele>
        <time>2022-06-21T12:14:36Z</time>
      </trkpt>
      <trkpt lat="43.43653" lon="2.63862">
        <ele>795.5</ele>
        <time>2022-06-21T12:14:37Z</time>
      </trkpt>
      <trkpt lat="43.43653" lon="2.63862">
        <ele>795.5</ele>
        <time>2022-06-21T12:14:38Z</time>
      </trkpt>
      <trkpt lat="43.43653" lon="2.63862">
        <ele>795.5</ele>
        <time>2022-06-21T12:14:39Z</time>
      </trkpt>
      <trkpt lat="43.43653" lon="2.63863">
        <ele>795.6</ele>
        <time>2022-06-21T12:14:40Z</time>
      </trkpt>
      <trkpt lat="43.43653" lon="2.63863">
        <ele>795.6</ele>
        <time>2022-06-21T12:14:41Z</time>
      </trkpt>
      <trkpt lat="43.43653" lon="2.63863">
        <ele>795.6</ele>
        <time>2022-06-21T12:14:42Z</time>
      </trkpt>
      <trkpt lat="43.43654" lon="2.63863">
        <ele>795.6</ele>
        <time>2022-06-21T12:14:43Z</time>
      </trkpt>
      <trkpt lat="43.43654" lon="2.63863">
        <ele>795.6</ele>
        <time>2022-06-21T12:14:44Z</time>
      </trkpt>
      <trkpt lat="43.43654" lon="2.63863">
        <ele>795.6</ele>
        <time>2022-06-21T12:14:45Z</time>
      </trkpt>
      <trkpt lat="43.43654" lon="2.63863">
        <ele>795.6</ele>
        <time>2022-06-21T12:14:46Z</time>
      </trkpt>
      <trkpt lat="43.43654" lon="2.63863">
        <ele>795.7</ele>
        <time>2022-06-21T12:14:47Z</time>
      </trkpt>
      <trkpt lat="43.43655" lon="2.63863">
        <ele>795.7</ele>
        <time>2022-06-21T12:14:48Z</time>
      </trkpt>
      <trkpt lat="43.43657" lon="2.63864">
        <ele>795.9</ele>
        <time>2022-06-21T12:14:49Z</time>
      </trkpt>
      <trkpt lat="43.43658" lon="2.63864">
        <ele>796</ele>
        <time>2022-06-21T12:14:50Z</time>
      </trkpt>
      <trkpt lat="43.4366" lon="2.63865">
        <ele>796.1</ele>
        <time>2022-06-21T12:14:51Z</time>
      </trkpt>
      <trkpt lat="43.43661" lon="2.63865">
        <ele>796.2</ele>
        <time>2022-06-21T12:14:52Z</time>
      </trkpt>
      <trkpt lat="43.43663" lon="2.63866">
        <ele>796.3</ele>
        <time>2022-06-21T12:14:53Z</time>
      </trkpt>
      <trkpt lat="43.43664" lon="2.63866">
        <ele>796.4</ele>
        <time>2022-06-21T12:14:54Z</time>
      </trkpt>
      <trkpt lat="43.43665" lon="2.63866">
        <ele>796.5</ele>
        <time>2022-06-21T12:14:55Z</time>
      </trkpt>
      <trkpt lat="43.43666" lon="2.63866">
        <ele>796.6</ele>
        <time>2022-06-21T12:14:56Z</time>
      </trkpt>
      <trkpt lat="43.43667" lon="2.63866">
        <ele>796.7</ele>
        <time>2022-06-21T12:14:57Z</time>
      </trkpt>
      <trkpt lat="43.43668" lon="2.63866">
        <ele>796.8</ele>
        <time>2022-06-21T12:14:58Z</time>
      </trkpt>
      <trkpt lat="43.4367" lon="2.63866">
        <ele>796.9</ele>
        <time>2022-06-21T12:14:59Z</time>
      </trkpt>
      <trkpt lat="43.43671" lon="2.63866">
        <ele>796.9</ele>
        <time>2022-06-21T12:15:00Z</time>
      </trkpt>
      <trkpt lat="43.43672" lon="2.63866">
        <ele>797</ele>
        <time>2022-06-21T12:15:01Z</time>
      </trkpt>
      <trkpt lat="43.43673" lon="2.63866">
        <ele>797.1</ele>
        <time>2022-06-21T12:15:02Z</time>
      </trkpt>
      <trkpt lat="43.43674" lon="2.63865">
        <ele>797.2</ele>
        <time>2022-06-21T12:15:03Z</time>
      </trkpt>
      <trkpt lat="43.43675" lon="2.63864">
        <ele>797.3</ele>
        <time>2022-06-21T12:15:04Z</time>
      </trkpt>
      <trkpt lat="43.43675" lon="2.63864">
        <ele>797.3</ele>
        <time>2022-06-21T12:15:05Z</time>
      </trkpt>
      <trkpt lat="43.43676" lon="2.63864">
        <ele>797.4</ele>
        <time>2022-06-21T12:15:06Z</time>
      </trkpt>
      <trkpt lat="43.43677" lon="2.63864">
        <ele>797.4</ele>
        <time>2022-06-21T12:15:07Z</time>
      </trkpt>
      <trkpt lat="43.43677" lon="2.63864">
        <ele>797.5</ele>
        <time>2022-06-21T12:15:08Z</time>
      </trkpt>
      <trkpt lat="43.43678" lon="2.63864">
        <ele>797.5</ele>
        <time>2022-06-21T12:15:09Z</time>
      </trkpt>
      <trkpt lat="43.43678" lon="2.63864">
        <ele>797.5</ele>
        <time>2022-06-21T12:15:10Z</time>
      </trkpt>
      <trkpt lat="43.43678" lon="2.63864">
        <ele>797.6</ele>
        <time>2022-06-21T12:15:11Z</time>
      </trkpt>
      <trkpt lat="43.43678" lon="2.63864">
        <ele>797.6</ele>
        <time>2022-06-21T12:15:12Z</time>
      </trkpt>
      <trkpt lat="43.43679" lon="2.63863">
        <ele>797.6</ele>
        <time>2022-06-21T12:15:13Z</time>
      </trkpt>
      <trkpt lat="43.4368" lon="2.63863">
        <ele>797.7</ele>
        <time>2022-06-21T12:15:14Z</time>
      </trkpt>
      <trkpt lat="43.4368" lon="2.63863">
        <ele>797.7</ele>
        <time>2022-06-21T12:15:15Z</time>
      </trkpt>
      <trkpt lat="43.43681" lon="2.63862">
        <ele>797.8</ele>
        <time>2022-06-21T12:15:16Z</time>
      </trkpt>
      <trkpt lat="43.43682" lon="2.63861">
        <ele>797.9</ele>
        <time>2022-06-21T12:15:17Z</time>
      </trkpt>
      <trkpt lat="43.43683" lon="2.6386">
        <ele>798</ele>
        <time>2022-06-21T12:15:18Z</time>
      </trkpt>
      <trkpt lat="43.43683" lon="2.6386">
        <ele>798</ele>
        <time>2022-06-21T12:15:19Z</time>
      </trkpt>
      <trkpt lat="43.43684" lon="2.6386">
        <ele>798</ele>
        <time>2022-06-21T12:15:20Z</time>
      </trkpt>
      <trkpt lat="43.43684" lon="2.6386">
        <ele>798</ele>
        <time>2022-06-21T12:15:21Z</time>
      </trkpt>
      <trkpt lat="43.43684" lon="2.6386">
        <ele>798.1</ele>
        <time>2022-06-21T12:15:22Z</time>
      </trkpt>
      <trkpt lat="43.43685" lon="2.63859">
        <ele>798.1</ele>
        <time>2022-06-21T12:15:23Z</time>
      </trkpt>
      <trkpt lat="43.43687" lon="2.63859">
        <ele>798.3</ele>
        <time>2022-06-21T12:15:24Z</time>
      </trkpt>
      <trkpt lat="43.43689" lon="2.63859">
        <ele>798.4</ele>
        <time>2022-06-21T12:15:25Z</time>
      </trkpt>
      <trkpt lat="43.4369" lon="2.63859">
        <ele>798.5</ele>
        <time>2022-06-21T12:15:26Z</time>
      </trkpt>
      <trkpt lat="43.43692" lon="2.63859">
        <ele>798.7</ele>
        <time>2022-06-21T12:15:27Z</time>
      </trkpt>
      <trkpt lat="43.43695" lon="2.63859">
        <ele>798.9</ele>
        <time>2022-06-21T12:15:28Z</time>
      </trkpt>
      <trkpt lat="43.43697" lon="2.63859">
        <ele>799</ele>
        <time>2022-06-21T12:15:29Z</time>
      </trkpt>
      <trkpt lat="43.43698" lon="2.63859">
        <ele>799.1</ele>
        <time>2022-06-21T12:15:30Z</time>
      </trkpt>
      <trkpt lat="43.43699" lon="2.63859">
        <ele>799.2</ele>
        <time>2022-06-21T12:15:31Z</time>
      </trkpt>
      <trkpt lat="43.43701" lon="2.63858">
        <ele>799.4</ele>
        <time>2022-06-21T12:15:32Z</time>
      </trkpt>
      <trkpt lat="43.43704" lon="2.63857">
        <ele>799.6</ele>
        <time>2022-06-21T12:15:33Z</time>
      </trkpt>
      <trkpt lat="43.43706" lon="2.63857">
        <ele>799.7</ele>
        <time>2022-06-21T12:15:34Z</time>
      </trkpt>
      <trkpt lat="43.43707" lon="2.63857">
        <ele>799.9</ele>
        <time>2022-06-21T12:15:35Z</time>
      </trkpt>
      <trkpt lat="43.43708" lon="2.63857">
        <ele>799.9</ele>
        <time>2022-06-21T12:15:36Z</time>
      </trkpt>
      <trkpt lat="43.43708" lon="2.63857">
        <ele>799.9</ele>
        <time>2022-06-21T12:15:37Z</time>
      </trkpt>
      <trkpt lat="43.43708" lon="2.63857">
        <ele>799.9</ele>
        <time>2022-06-21T12:15:38Z</time>
      </trkpt>
      <trkpt lat="43.43708" lon="2.63857">
        <ele>799.9</ele>
        <time>2022-06-21T12:15:39Z</time>
      </trkpt>
      <trkpt lat="43.43708" lon="2.63857">
        <ele>799.9</ele>
        <time>2022-06-21T12:15:40Z</time>
      </trkpt>
      <trkpt lat="43.43709" lon="2.63857">
        <ele>800</ele>
        <time>2022-06-21T12:15:41Z</time>
      </trkpt>
      <trkpt lat="43.4371" lon="2.63857">
        <ele>800</ele>
        <time>2022-06-21T12:15:42Z</time>
      </trkpt>
      <trkpt lat="43.43711" lon="2.63857">
        <ele>800.1</ele>
        <time>2022-06-21T12:15:43Z</time>
      </trkpt>
      <trkpt lat="43.43712" lon="2.63857">
        <ele>800.2</ele>
        <time>2022-06-21T12:15:44Z</time>
      </trkpt>
      <trkpt lat="43.43713" lon="2.63858">
        <ele>800.3</ele>
        <time>2022-06-21T12:15:45Z</time>
      </trkpt>
      <trkpt lat="43.43714" lon="2.63858">
        <ele>800.4</ele>
        <time>2022-06-21T12:15:46Z</time>
      </trkpt>
      <trkpt lat="43.43715" lon="2.63858">
        <ele>800.5</ele>
        <time>2022-06-21T12:15:47Z</time>
      </trkpt>
      <trkpt lat="43.43716" lon="2.63858">
        <ele>800.5</ele>
        <time>2022-06-21T12:15:48Z</time>
      </trkpt>
      <trkpt lat="43.43717" lon="2.63858">
        <ele>800.6</ele>
        <time>2022-06-21T12:15:49Z</time>
      </trkpt>
      <trkpt lat="43.43718" lon="2.63858">
        <ele>800.7</ele>
        <time>2022-06-21T12:15:50Z</time>
      </trkpt>
      <trkpt lat="43.43718" lon="2.63858">
        <ele>800.7</ele>
        <time>2022-06-21T12:15:51Z</time>
      </trkpt>
      <trkpt lat="43.43719" lon="2.63858">
        <ele>800.8</ele>
        <time>2022-06-21T12:15:52Z</time>
      </trkpt>
      <trkpt lat="43.4372" lon="2.63858">
        <ele>800.8</ele>
        <time>2022-06-21T12:15:53Z</time>
      </trkpt>
      <trkpt lat="43.4372" lon="2.63858">
        <ele>800.9</ele>
        <time>2022-06-21T12:15:54Z</time>
      </trkpt>
      <trkpt lat="43.43721" lon="2.63858">
        <ele>801</ele>
        <time>2022-06-21T12:15:55Z</time>
      </trkpt>
      <trkpt lat="43.43722" lon="2.63857">
        <ele>801</ele>
        <time>2022-06-21T12:15:56Z</time>
      </trkpt>
      <trkpt lat="43.43723" lon="2.63857">
        <ele>801.1</ele>
        <time>2022-06-21T12:15:57Z</time>
      </trkpt>
      <trkpt lat="43.43723" lon="2.63857">
        <ele>801.1</ele>
        <time>2022-06-21T12:15:58Z</time>
      </trkpt>
      <trkpt lat="43.43723" lon="2.63857">
        <ele>801.1</ele>
        <time>2022-06-21T12:15:59Z</time>
      </trkpt>
      <trkpt lat="43.43723" lon="2.63857">
        <ele>801.1</ele>
        <time>2022-06-21T12:16:00Z</time>
      </trkpt>
      <trkpt lat="43.43723" lon="2.63857">
        <ele>801.1</ele>
        <time>2022-06-21T12:16:01Z</time>
      </trkpt>
      <trkpt lat="43.43723" lon="2.63857">
        <ele>801.1</ele>
        <time>2022-06-21T12:16:02Z</time>
      </trkpt>
      <trkpt lat="43.43723" lon="2.63857">
        <ele>801.1</ele>
        <time>2022-06-21T12:16:03Z</time>
      </trkpt>
      <trkpt lat="43.43725" lon="2.63856">
        <ele>801.2</ele>
        <time>2022-06-21T12:16:04Z</time>
      </trkpt>
      <trkpt lat="43.43726" lon="2.63855">
        <ele>801.4</ele>
        <time>2022-06-21T12:16:05Z</time>
      </trkpt>
      <trkpt lat="43.43727" lon="2.63854">
        <ele>801.5</ele>
        <time>2022-06-21T12:16:06Z</time>
      </trkpt>
      <trkpt lat="43.43728" lon="2.63853">
        <ele>801.5</ele>
        <time>2022-06-21T12:16:07Z</time>
      </trkpt>
      <trkpt lat="43.43731" lon="2.63851">
        <ele>801.8</ele>
        <time>2022-06-21T12:16:08Z</time>
      </trkpt>
      <trkpt lat="43.43732" lon="2.6385">
        <ele>801.9</ele>
        <time>2022-06-21T12:16:09Z</time>
      </trkpt>
      <trkpt lat="43.43735" lon="2.63848">
        <ele>802.1</ele>
        <time>2022-06-21T12:16:10Z</time>
      </trkpt>
      <trkpt lat="43.43738" lon="2.63844">
        <ele>802.5</ele>
        <time>2022-06-21T12:16:11Z</time>
      </trkpt>
      <trkpt lat="43.43739" lon="2.63842">
        <ele>802.6</ele>
        <time>2022-06-21T12:16:12Z</time>
      </trkpt>
      <trkpt lat="43.43741" lon="2.6384">
        <ele>802.8</ele>
        <time>2022-06-21T12:16:13Z</time>
      </trkpt>
      <trkpt lat="43.43742" lon="2.63839">
        <ele>802.9</ele>
        <time>2022-06-21T12:16:14Z</time>
      </trkpt>
      <trkpt lat="43.43742" lon="2.63838">
        <ele>802.9</ele>
        <time>2022-06-21T12:16:15Z</time>
      </trkpt>
      <trkpt lat="43.43743" lon="2.63837">
        <ele>803</ele>
        <time>2022-06-21T12:16:16Z</time>
      </trkpt>
      <trkpt lat="43.43744" lon="2.63837">
        <ele>803.1</ele>
        <time>2022-06-21T12:16:17Z</time>
      </trkpt>
      <trkpt lat="43.43744" lon="2.63836">
        <ele>803.1</ele>
        <time>2022-06-21T12:16:18Z</time>
      </trkpt>
      <trkpt lat="43.43745" lon="2.63836">
        <ele>803.2</ele>
        <time>2022-06-21T12:16:19Z</time>
      </trkpt>
      <trkpt lat="43.43746" lon="2.63835">
        <ele>803.3</ele>
        <time>2022-06-21T12:16:20Z</time>
      </trkpt>
      <trkpt lat="43.43747" lon="2.63835">
        <ele>803.3</ele>
        <time>2022-06-21T12:16:21Z</time>
      </trkpt>
      <trkpt lat="43.43749" lon="2.63834">
        <ele>803.5</ele>
        <time>2022-06-21T12:16:22Z</time>
      </trkpt>
      <trkpt lat="43.4375" lon="2.63833">
        <ele>803.6</ele>
        <time>2022-06-21T12:16:23Z</time>
      </trkpt>
      <trkpt lat="43.43751" lon="2.63833">
        <ele>803.7</ele>
        <time>2022-06-21T12:16:24Z</time>
      </trkpt>
      <trkpt lat="43.43752" lon="2.63833">
        <ele>803.8</ele>
        <time>2022-06-21T12:16:25Z</time>
      </trkpt>
      <trkpt lat="43.43753" lon="2.63832">
        <ele>803.8</ele>
        <time>2022-06-21T12:16:26Z</time>
      </trkpt>
      <trkpt lat="43.43754" lon="2.63832">
        <ele>803.9</ele>
        <time>2022-06-21T12:16:27Z</time>
      </trkpt>
      <trkpt lat="43.43754" lon="2.63831">
        <ele>804</ele>
        <time>2022-06-21T12:16:28Z</time>
      </trkpt>
      <trkpt lat="43.43755" lon="2.6383">
        <ele>804</ele>
        <time>2022-06-21T12:16:29Z</time>
      </trkpt>
      <trkpt lat="43.43757" lon="2.63829">
        <ele>804.2</ele>
        <time>2022-06-21T12:16:30Z</time>
      </trkpt>
      <trkpt lat="43.43758" lon="2.63828">
        <ele>804.2</ele>
        <time>2022-06-21T12:16:31Z</time>
      </trkpt>
      <trkpt lat="43.43758" lon="2.63828">
        <ele>804.3</ele>
        <time>2022-06-21T12:16:32Z</time>
      </trkpt>
      <trkpt lat="43.43759" lon="2.63827">
        <ele>804.3</ele>
        <time>2022-06-21T12:16:33Z</time>
      </trkpt>
      <trkpt lat="43.43759" lon="2.63827">
        <ele>804.4</ele>
        <time>2022-06-21T12:16:34Z</time>
      </trkpt>
      <trkpt lat="43.43759" lon="2.63827">
        <ele>804.4</ele>
        <time>2022-06-21T12:16:35Z</time>
      </trkpt>
      <trkpt lat="43.43759" lon="2.63827">
        <ele>804.4</ele>
        <time>2022-06-21T12:16:36Z</time>
      </trkpt>
      <trkpt lat="43.4376" lon="2.63827">
        <ele>804.4</ele>
        <time>2022-06-21T12:16:37Z</time>
      </trkpt>
      <trkpt lat="43.4376" lon="2.63826">
        <ele>804.5</ele>
        <time>2022-06-21T12:16:38Z</time>
      </trkpt>
      <trkpt lat="43.43761" lon="2.63825">
        <ele>804.6</ele>
        <time>2022-06-21T12:16:39Z</time>
      </trkpt>
      <trkpt lat="43.43761" lon="2.63825">
        <ele>804.6</ele>
        <time>2022-06-21T12:16:40Z</time>
      </trkpt>
      <trkpt lat="43.43762" lon="2.63824">
        <ele>804.7</ele>
        <time>2022-06-21T12:16:41Z</time>
      </trkpt>
      <trkpt lat="43.43763" lon="2.63823">
        <ele>804.7</ele>
        <time>2022-06-21T12:16:42Z</time>
      </trkpt>
      <trkpt lat="43.43763" lon="2.63823">
        <ele>804.8</ele>
        <time>2022-06-21T12:16:43Z</time>
      </trkpt>
      <trkpt lat="43.43765" lon="2.63821">
        <ele>804.9</ele>
        <time>2022-06-21T12:16:44Z</time>
      </trkpt>
      <trkpt lat="43.43765" lon="2.63821">
        <ele>805</ele>
        <time>2022-06-21T12:16:45Z</time>
      </trkpt>
      <trkpt lat="43.43765" lon="2.63821">
        <ele>805</ele>
        <time>2022-06-21T12:16:46Z</time>
      </trkpt>
      <trkpt lat="43.43765" lon="2.63821">
        <ele>805</ele>
        <time>2022-06-21T12:16:47Z</time>
      </trkpt>
      <trkpt lat="43.43765" lon="2.63821">
        <ele>805</ele>
        <time>2022-06-21T12:16:48Z</time>
      </trkpt>
      <trkpt lat="43.43765" lon="2.63821">
        <ele>805</ele>
        <time>2022-06-21T12:16:49Z</time>
      </trkpt>
      <trkpt lat="43.43765" lon="2.63821">
        <ele>805</ele>
        <time>2022-06-21T12:16:50Z</time>
      </trkpt>
      <trkpt lat="43.43765" lon="2.63821">
        <ele>805</ele>
        <time>2022-06-21T12:16:51Z</time>
      </trkpt>
      <trkpt lat="43.43765" lon="2.6382">
        <ele>805</ele>
        <time>2022-06-21T12:16:52Z</time>
      </trkpt>
      <trkpt lat="43.43769" lon="2.63818">
        <ele>805.3</ele>
        <time>2022-06-21T12:16:53Z</time>
      </trkpt>
      <trkpt lat="43.43772" lon="2.63816">
        <ele>805.5</ele>
        <time>2022-06-21T12:16:54Z</time>
      </trkpt>
      <trkpt lat="43.43773" lon="2.63815">
        <ele>805.7</ele>
        <time>2022-06-21T12:16:55Z</time>
      </trkpt>
      <trkpt lat="43.43775" lon="2.63814">
        <ele>805.8</ele>
        <time>2022-06-21T12:16:56Z</time>
      </trkpt>
      <trkpt lat="43.43777" lon="2.63812">
        <ele>806</ele>
        <time>2022-06-21T12:16:57Z</time>
      </trkpt>
      <trkpt lat="43.4378" lon="2.63809">
        <ele>806.3</ele>
        <time>2022-06-21T12:16:58Z</time>
      </trkpt>
      <trkpt lat="43.43781" lon="2.63808">
        <ele>806.4</ele>
        <time>2022-06-21T12:16:59Z</time>
      </trkpt>
      <trkpt lat="43.43782" lon="2.63806">
        <ele>806.5</ele>
        <time>2022-06-21T12:17:00Z</time>
      </trkpt>
      <trkpt lat="43.43782" lon="2.63806">
        <ele>806.5</ele>
        <time>2022-06-21T12:17:01Z</time>
      </trkpt>
      <trkpt lat="43.43782" lon="2.63806">
        <ele>806.5</ele>
        <time>2022-06-21T12:17:02Z</time>
      </trkpt>
      <trkpt lat="43.43783" lon="2.63806">
        <ele>806.6</ele>
        <time>2022-06-21T12:17:03Z</time>
      </trkpt>
      <trkpt lat="43.43782" lon="2.63806">
        <ele>806.6</ele>
        <time>2022-06-21T12:17:04Z</time>
      </trkpt>
      <trkpt lat="43.43782" lon="2.63806">
        <ele>806.6</ele>
        <time>2022-06-21T12:17:05Z</time>
      </trkpt>
      <trkpt lat="43.43782" lon="2.63806">
        <ele>806.6</ele>
        <time>2022-06-21T12:17:06Z</time>
      </trkpt>
      <trkpt lat="43.43782" lon="2.63806">
        <ele>806.6</ele>
        <time>2022-06-21T12:17:07Z</time>
      </trkpt>
      <trkpt lat="43.43782" lon="2.63806">
        <ele>806.6</ele>
        <time>2022-06-21T12:17:08Z</time>
      </trkpt>
      <trkpt lat="43.43783" lon="2.63806">
        <ele>806.6</ele>
        <time>2022-06-21T12:17:09Z</time>
      </trkpt>
      <trkpt lat="43.43784" lon="2.63805">
        <ele>806.7</ele>
        <time>2022-06-21T12:17:10Z</time>
      </trkpt>
      <trkpt lat="43.43786" lon="2.63803">
        <ele>806.9</ele>
        <time>2022-06-21T12:17:11Z</time>
      </trkpt>
      <trkpt lat="43.43787" lon="2.63802">
        <ele>807</ele>
        <time>2022-06-21T12:17:12Z</time>
      </trkpt>
      <trkpt lat="43.43791" lon="2.63797">
        <ele>807.4</ele>
        <time>2022-06-21T12:17:13Z</time>
      </trkpt>
      <trkpt lat="43.43792" lon="2.63795">
        <ele>807.5</ele>
        <time>2022-06-21T12:17:14Z</time>
      </trkpt>
      <trkpt lat="43.43793" lon="2.63792">
        <ele>807.7</ele>
        <time>2022-06-21T12:17:15Z</time>
      </trkpt>
      <trkpt lat="43.43794" lon="2.63791">
        <ele>807.8</ele>
        <time>2022-06-21T12:17:16Z</time>
      </trkpt>
      <trkpt lat="43.43794" lon="2.6379">
        <ele>807.9</ele>
        <time>2022-06-21T12:17:17Z</time>
      </trkpt>
      <trkpt lat="43.43796" lon="2.63787">
        <ele>808.1</ele>
        <time>2022-06-21T12:17:18Z</time>
      </trkpt>
      <trkpt lat="43.43796" lon="2.63785">
        <ele>808.2</ele>
        <time>2022-06-21T12:17:19Z</time>
      </trkpt>
      <trkpt lat="43.43797" lon="2.63784">
        <ele>808.3</ele>
        <time>2022-06-21T12:17:20Z</time>
      </trkpt>
      <trkpt lat="43.43797" lon="2.63784">
        <ele>808.3</ele>
        <time>2022-06-21T12:17:21Z</time>
      </trkpt>
      <trkpt lat="43.43797" lon="2.63784">
        <ele>808.3</ele>
        <time>2022-06-21T12:17:22Z</time>
      </trkpt>
      <trkpt lat="43.43797" lon="2.63784">
        <ele>808.3</ele>
        <time>2022-06-21T12:17:23Z</time>
      </trkpt>
      <trkpt lat="43.43797" lon="2.63784">
        <ele>808.3</ele>
        <time>2022-06-21T12:17:24Z</time>
      </trkpt>
      <trkpt lat="43.43797" lon="2.63784">
        <ele>808.3</ele>
        <time>2022-06-21T12:17:25Z</time>
      </trkpt>
      <trkpt lat="43.43797" lon="2.63784">
        <ele>808.3</ele>
        <time>2022-06-21T12:17:26Z</time>
      </trkpt>
      <trkpt lat="43.43797" lon="2.63784">
        <ele>808.3</ele>
        <time>2022-06-21T12:17:27Z</time>
      </trkpt>
      <trkpt lat="43.43797" lon="2.63784">
        <ele>808.3</ele>
        <time>2022-06-21T12:17:28Z</time>
      </trkpt>
      <trkpt lat="43.43797" lon="2.63784">
        <ele>808.3</ele>
        <time>2022-06-21T12:17:29Z</time>
      </trkpt>
      <trkpt lat="43.43798" lon="2.63783">
        <ele>808.4</ele>
        <time>2022-06-21T12:17:30Z</time>
      </trkpt>
      <trkpt lat="43.43799" lon="2.63781">
        <ele>808.5</ele>
        <time>2022-06-21T12:17:31Z</time>
      </trkpt>
      <trkpt lat="43.43802" lon="2.63777">
        <ele>808.8</ele>
        <time>2022-06-21T12:17:32Z</time>
      </trkpt>
      <trkpt lat="43.43803" lon="2.63774">
        <ele>809</ele>
        <time>2022-06-21T12:17:33Z</time>
      </trkpt>
      <trkpt lat="43.43804" lon="2.63773">
        <ele>809.1</ele>
        <time>2022-06-21T12:17:34Z</time>
      </trkpt>
      <trkpt lat="43.43804" lon="2.63772">
        <ele>809.1</ele>
        <time>2022-06-21T12:17:35Z</time>
      </trkpt>
      <trkpt lat="43.43804" lon="2.63772">
        <ele>809.2</ele>
        <time>2022-06-21T12:17:36Z</time>
      </trkpt>
      <trkpt lat="43.43804" lon="2.63772">
        <ele>809.2</ele>
        <time>2022-06-21T12:17:37Z</time>
      </trkpt>
      <trkpt lat="43.43804" lon="2.63772">
        <ele>809.2</ele>
        <time>2022-06-21T12:17:38Z</time>
      </trkpt>
      <trkpt lat="43.43804" lon="2.63772">
        <ele>809.2</ele>
        <time>2022-06-21T12:17:39Z</time>
      </trkpt>
      <trkpt lat="43.43805" lon="2.63771">
        <ele>809.2</ele>
        <time>2022-06-21T12:17:40Z</time>
      </trkpt>
      <trkpt lat="43.43806" lon="2.6377">
        <ele>809.3</ele>
        <time>2022-06-21T12:17:41Z</time>
      </trkpt>
      <trkpt lat="43.43808" lon="2.63767">
        <ele>809.6</ele>
        <time>2022-06-21T12:17:42Z</time>
      </trkpt>
      <trkpt lat="43.43809" lon="2.63767">
        <ele>809.6</ele>
        <time>2022-06-21T12:17:43Z</time>
      </trkpt>
      <trkpt lat="43.43812" lon="2.63763">
        <ele>809.9</ele>
        <time>2022-06-21T12:17:44Z</time>
      </trkpt>
      <trkpt lat="43.43813" lon="2.63761">
        <ele>810</ele>
        <time>2022-06-21T12:17:45Z</time>
      </trkpt>
      <trkpt lat="43.43814" lon="2.63759">
        <ele>810.2</ele>
        <time>2022-06-21T12:17:46Z</time>
      </trkpt>
      <trkpt lat="43.43814" lon="2.63759">
        <ele>810.2</ele>
        <time>2022-06-21T12:17:47Z</time>
      </trkpt>
      <trkpt lat="43.43814" lon="2.63759">
        <ele>810.2</ele>
        <time>2022-06-21T12:17:48Z</time>
      </trkpt>
      <trkpt lat="43.43814" lon="2.63758">
        <ele>810.2</ele>
        <time>2022-06-21T12:17:49Z</time>
      </trkpt>
      <trkpt lat="43.43814" lon="2.63758">
        <ele>810.3</ele>
        <time>2022-06-21T12:17:50Z</time>
      </trkpt>
      <trkpt lat="43.43815" lon="2.63757">
        <ele>810.3</ele>
        <time>2022-06-21T12:17:51Z</time>
      </trkpt>
      <trkpt lat="43.43815" lon="2.63757">
        <ele>810.3</ele>
        <time>2022-06-21T12:17:52Z</time>
      </trkpt>
      <trkpt lat="43.43815" lon="2.63757">
        <ele>810.4</ele>
        <time>2022-06-21T12:17:53Z</time>
      </trkpt>
      <trkpt lat="43.43815" lon="2.63756">
        <ele>810.4</ele>
        <time>2022-06-21T12:17:54Z</time>
      </trkpt>
      <trkpt lat="43.43815" lon="2.63756">
        <ele>810.4</ele>
        <time>2022-06-21T12:17:55Z</time>
      </trkpt>
      <trkpt lat="43.43815" lon="2.63755">
        <ele>810.4</ele>
        <time>2022-06-21T12:17:56Z</time>
      </trkpt>
      <trkpt lat="43.43815" lon="2.63755">
        <ele>810.5</ele>
        <time>2022-06-21T12:17:57Z</time>
      </trkpt>
      <trkpt lat="43.43817" lon="2.63752">
        <ele>810.6</ele>
        <time>2022-06-21T12:17:58Z</time>
      </trkpt>
      <trkpt lat="43.43817" lon="2.63752">
        <ele>810.7</ele>
        <time>2022-06-21T12:17:59Z</time>
      </trkpt>
      <trkpt lat="43.43818" lon="2.63751">
        <ele>810.7</ele>
        <time>2022-06-21T12:18:00Z</time>
      </trkpt>
      <trkpt lat="43.4382" lon="2.63747">
        <ele>811</ele>
        <time>2022-06-21T12:18:01Z</time>
      </trkpt>
      <trkpt lat="43.43821" lon="2.63745">
        <ele>811.2</ele>
        <time>2022-06-21T12:18:02Z</time>
      </trkpt>
      <trkpt lat="43.43822" lon="2.63744">
        <ele>811.2</ele>
        <time>2022-06-21T12:18:03Z</time>
      </trkpt>
      <trkpt lat="43.43822" lon="2.63743">
        <ele>811.3</ele>
        <time>2022-06-21T12:18:04Z</time>
      </trkpt>
      <trkpt lat="43.43823" lon="2.63741">
        <ele>811.4</ele>
        <time>2022-06-21T12:18:05Z</time>
      </trkpt>
      <trkpt lat="43.43824" lon="2.63739">
        <ele>811.6</ele>
        <time>2022-06-21T12:18:06Z</time>
      </trkpt>
      <trkpt lat="43.43824" lon="2.63737">
        <ele>811.7</ele>
        <time>2022-06-21T12:18:07Z</time>
      </trkpt>
      <trkpt lat="43.43824" lon="2.63736">
        <ele>811.7</ele>
        <time>2022-06-21T12:18:08Z</time>
      </trkpt>
      <trkpt lat="43.43825" lon="2.63734">
        <ele>811.9</ele>
        <time>2022-06-21T12:18:09Z</time>
      </trkpt>
      <trkpt lat="43.43826" lon="2.63733">
        <ele>811.9</ele>
        <time>2022-06-21T12:18:10Z</time>
      </trkpt>
      <trkpt lat="43.43826" lon="2.63733">
        <ele>812</ele>
        <time>2022-06-21T12:18:11Z</time>
      </trkpt>
      <trkpt lat="43.43826" lon="2.63732">
        <ele>812</ele>
        <time>2022-06-21T12:18:12Z</time>
      </trkpt>
      <trkpt lat="43.43826" lon="2.63732">
        <ele>812</ele>
        <time>2022-06-21T12:18:13Z</time>
      </trkpt>
      <trkpt lat="43.43826" lon="2.63732">
        <ele>812</ele>
        <time>2022-06-21T12:18:14Z</time>
      </trkpt>
      <trkpt lat="43.43826" lon="2.63732">
        <ele>812</ele>
        <time>2022-06-21T12:18:15Z</time>
      </trkpt>
      <trkpt lat="43.43827" lon="2.63731">
        <ele>812.1</ele>
        <time>2022-06-21T12:18:16Z</time>
      </trkpt>
      <trkpt lat="43.43828" lon="2.63729">
        <ele>812.2</ele>
        <time>2022-06-21T12:18:17Z</time>
      </trkpt>
      <trkpt lat="43.43829" lon="2.63727">
        <ele>812.4</ele>
        <time>2022-06-21T12:18:18Z</time>
      </trkpt>
      <trkpt lat="43.4383" lon="2.63726">
        <ele>812.4</ele>
        <time>2022-06-21T12:18:19Z</time>
      </trkpt>
      <trkpt lat="43.4383" lon="2.63726">
        <ele>812.5</ele>
        <time>2022-06-21T12:18:20Z</time>
      </trkpt>
      <trkpt lat="43.43831" lon="2.63725">
        <ele>812.5</ele>
        <time>2022-06-21T12:18:21Z</time>
      </trkpt>
      <trkpt lat="43.43831" lon="2.63724">
        <ele>812.6</ele>
        <time>2022-06-21T12:18:22Z</time>
      </trkpt>
      <trkpt lat="43.43832" lon="2.63723">
        <ele>812.7</ele>
        <time>2022-06-21T12:18:23Z</time>
      </trkpt>
      <trkpt lat="43.43832" lon="2.63722">
        <ele>812.7</ele>
        <time>2022-06-21T12:18:24Z</time>
      </trkpt>
      <trkpt lat="43.43833" lon="2.63721">
        <ele>812.8</ele>
        <time>2022-06-21T12:18:25Z</time>
      </trkpt>
      <trkpt lat="43.43834" lon="2.63718">
        <ele>813</ele>
        <time>2022-06-21T12:18:26Z</time>
      </trkpt>
      <trkpt lat="43.43835" lon="2.63717">
        <ele>813.1</ele>
        <time>2022-06-21T12:18:27Z</time>
      </trkpt>
      <trkpt lat="43.43836" lon="2.63716">
        <ele>813.2</ele>
        <time>2022-06-21T12:18:28Z</time>
      </trkpt>
      <trkpt lat="43.43836" lon="2.63715">
        <ele>813.2</ele>
        <time>2022-06-21T12:18:29Z</time>
      </trkpt>
      <trkpt lat="43.43837" lon="2.63714">
        <ele>813.3</ele>
        <time>2022-06-21T12:18:30Z</time>
      </trkpt>
      <trkpt lat="43.43838" lon="2.63713">
        <ele>813.4</ele>
        <time>2022-06-21T12:18:31Z</time>
      </trkpt>
      <trkpt lat="43.43838" lon="2.63712">
        <ele>813.5</ele>
        <time>2022-06-21T12:18:32Z</time>
      </trkpt>
      <trkpt lat="43.43839" lon="2.63711">
        <ele>813.6</ele>
        <time>2022-06-21T12:18:33Z</time>
      </trkpt>
      <trkpt lat="43.4384" lon="2.6371">
        <ele>813.6</ele>
        <time>2022-06-21T12:18:34Z</time>
      </trkpt>
      <trkpt lat="43.43841" lon="2.63709">
        <ele>813.7</ele>
        <time>2022-06-21T12:18:35Z</time>
      </trkpt>
      <trkpt lat="43.43841" lon="2.63708">
        <ele>813.8</ele>
        <time>2022-06-21T12:18:36Z</time>
      </trkpt>
      <trkpt lat="43.43842" lon="2.63707">
        <ele>813.9</ele>
        <time>2022-06-21T12:18:37Z</time>
      </trkpt>
      <trkpt lat="43.43843" lon="2.63705">
        <ele>814</ele>
        <time>2022-06-21T12:18:38Z</time>
      </trkpt>
      <trkpt lat="43.43844" lon="2.63705">
        <ele>814</ele>
        <time>2022-06-21T12:18:39Z</time>
      </trkpt>
      <trkpt lat="43.43844" lon="2.63704">
        <ele>814.1</ele>
        <time>2022-06-21T12:18:40Z</time>
      </trkpt>
      <trkpt lat="43.43845" lon="2.63702">
        <ele>814.2</ele>
        <time>2022-06-21T12:18:41Z</time>
      </trkpt>
      <trkpt lat="43.43845" lon="2.63701">
        <ele>814.3</ele>
        <time>2022-06-21T12:18:42Z</time>
      </trkpt>
      <trkpt lat="43.43846" lon="2.637">
        <ele>814.4</ele>
        <time>2022-06-21T12:18:43Z</time>
      </trkpt>
      <trkpt lat="43.43846" lon="2.63699">
        <ele>814.4</ele>
        <time>2022-06-21T12:18:44Z</time>
      </trkpt>
      <trkpt lat="43.43846" lon="2.63698">
        <ele>814.5</ele>
        <time>2022-06-21T12:18:45Z</time>
      </trkpt>
      <trkpt lat="43.43847" lon="2.63697">
        <ele>814.5</ele>
        <time>2022-06-21T12:18:46Z</time>
      </trkpt>
      <trkpt lat="43.43847" lon="2.63697">
        <ele>814.6</ele>
        <time>2022-06-21T12:18:47Z</time>
      </trkpt>
      <trkpt lat="43.43847" lon="2.63696">
        <ele>814.6</ele>
        <time>2022-06-21T12:18:48Z</time>
      </trkpt>
      <trkpt lat="43.43848" lon="2.63695">
        <ele>814.7</ele>
        <time>2022-06-21T12:18:49Z</time>
      </trkpt>
      <trkpt lat="43.43849" lon="2.63693">
        <ele>814.8</ele>
        <time>2022-06-21T12:18:50Z</time>
      </trkpt>
      <trkpt lat="43.4385" lon="2.63692">
        <ele>814.9</ele>
        <time>2022-06-21T12:18:51Z</time>
      </trkpt>
      <trkpt lat="43.43851" lon="2.63692">
        <ele>815</ele>
        <time>2022-06-21T12:18:52Z</time>
      </trkpt>
      <trkpt lat="43.43852" lon="2.63691">
        <ele>815</ele>
        <time>2022-06-21T12:18:53Z</time>
      </trkpt>
      <trkpt lat="43.43852" lon="2.6369">
        <ele>815.1</ele>
        <time>2022-06-21T12:18:54Z</time>
      </trkpt>
      <trkpt lat="43.43853" lon="2.63689">
        <ele>815.2</ele>
        <time>2022-06-21T12:18:55Z</time>
      </trkpt>
      <trkpt lat="43.43854" lon="2.63686">
        <ele>815.4</ele>
        <time>2022-06-21T12:18:56Z</time>
      </trkpt>
      <trkpt lat="43.43854" lon="2.63684">
        <ele>815.5</ele>
        <time>2022-06-21T12:18:57Z</time>
      </trkpt>
      <trkpt lat="43.43855" lon="2.63683">
        <ele>815.6</ele>
        <time>2022-06-21T12:18:58Z</time>
      </trkpt>
      <trkpt lat="43.43855" lon="2.63682">
        <ele>815.7</ele>
        <time>2022-06-21T12:18:59Z</time>
      </trkpt>
      <trkpt lat="43.43855" lon="2.63681">
        <ele>815.7</ele>
        <time>2022-06-21T12:19:00Z</time>
      </trkpt>
      <trkpt lat="43.43855" lon="2.63681">
        <ele>815.7</ele>
        <time>2022-06-21T12:19:01Z</time>
      </trkpt>
      <trkpt lat="43.43855" lon="2.6368">
        <ele>815.8</ele>
        <time>2022-06-21T12:19:02Z</time>
      </trkpt>
      <trkpt lat="43.43855" lon="2.63676">
        <ele>816</ele>
        <time>2022-06-21T12:19:03Z</time>
      </trkpt>
      <trkpt lat="43.43855" lon="2.63674">
        <ele>816.1</ele>
        <time>2022-06-21T12:19:04Z</time>
      </trkpt>
      <trkpt lat="43.43855" lon="2.63671">
        <ele>816.2</ele>
        <time>2022-06-21T12:19:05Z</time>
      </trkpt>
      <trkpt lat="43.43855" lon="2.6367">
        <ele>816.3</ele>
        <time>2022-06-21T12:19:06Z</time>
      </trkpt>
      <trkpt lat="43.43856" lon="2.63666">
        <ele>816.5</ele>
        <time>2022-06-21T12:19:07Z</time>
      </trkpt>
      <trkpt lat="43.43856" lon="2.63664">
        <ele>816.7</ele>
        <time>2022-06-21T12:19:08Z</time>
      </trkpt>
      <trkpt lat="43.43857" lon="2.63662">
        <ele>816.8</ele>
        <time>2022-06-21T12:19:09Z</time>
      </trkpt>
      <trkpt lat="43.43857" lon="2.63661">
        <ele>816.9</ele>
        <time>2022-06-21T12:19:10Z</time>
      </trkpt>
      <trkpt lat="43.43858" lon="2.6366">
        <ele>816.9</ele>
        <time>2022-06-21T12:19:11Z</time>
      </trkpt>
      <trkpt lat="43.43858" lon="2.63658">
        <ele>817</ele>
        <time>2022-06-21T12:19:12Z</time>
      </trkpt>
      <trkpt lat="43.43859" lon="2.63657">
        <ele>817.1</ele>
        <time>2022-06-21T12:19:13Z</time>
      </trkpt>
      <trkpt lat="43.43859" lon="2.63655">
        <ele>817.2</ele>
        <time>2022-06-21T12:19:14Z</time>
      </trkpt>
      <trkpt lat="43.43859" lon="2.63654">
        <ele>817.2</ele>
        <time>2022-06-21T12:19:15Z</time>
      </trkpt>
      <trkpt lat="43.4386" lon="2.63653">
        <ele>817.3</ele>
        <time>2022-06-21T12:19:16Z</time>
      </trkpt>
      <trkpt lat="43.4386" lon="2.63652">
        <ele>817.4</ele>
        <time>2022-06-21T12:19:17Z</time>
      </trkpt>
      <trkpt lat="43.43861" lon="2.6365">
        <ele>817.5</ele>
        <time>2022-06-21T12:19:18Z</time>
      </trkpt>
      <trkpt lat="43.43861" lon="2.63649">
        <ele>817.6</ele>
        <time>2022-06-21T12:19:19Z</time>
      </trkpt>
      <trkpt lat="43.43862" lon="2.63648">
        <ele>817.6</ele>
        <time>2022-06-21T12:19:20Z</time>
      </trkpt>
      <trkpt lat="43.43862" lon="2.63647">
        <ele>817.7</ele>
        <time>2022-06-21T12:19:21Z</time>
      </trkpt>
      <trkpt lat="43.43862" lon="2.63647">
        <ele>817.7</ele>
        <time>2022-06-21T12:19:22Z</time>
      </trkpt>
      <trkpt lat="43.43862" lon="2.63647">
        <ele>817.7</ele>
        <time>2022-06-21T12:19:23Z</time>
      </trkpt>
      <trkpt lat="43.43863" lon="2.63646">
        <ele>817.8</ele>
        <time>2022-06-21T12:19:24Z</time>
      </trkpt>
      <trkpt lat="43.43863" lon="2.63645">
        <ele>817.9</ele>
        <time>2022-06-21T12:19:25Z</time>
      </trkpt>
      <trkpt lat="43.43863" lon="2.63644">
        <ele>817.9</ele>
        <time>2022-06-21T12:19:26Z</time>
      </trkpt>
      <trkpt lat="43.43864" lon="2.63643">
        <ele>818</ele>
        <time>2022-06-21T12:19:27Z</time>
      </trkpt>
      <trkpt lat="43.43864" lon="2.63641">
        <ele>818.1</ele>
        <time>2022-06-21T12:19:28Z</time>
      </trkpt>
      <trkpt lat="43.43864" lon="2.6364">
        <ele>818.1</ele>
        <time>2022-06-21T12:19:29Z</time>
      </trkpt>
      <trkpt lat="43.43865" lon="2.63638">
        <ele>818.3</ele>
        <time>2022-06-21T12:19:30Z</time>
      </trkpt>
      <trkpt lat="43.43865" lon="2.63637">
        <ele>818.3</ele>
        <time>2022-06-21T12:19:31Z</time>
      </trkpt>
      <trkpt lat="43.43866" lon="2.63636">
        <ele>818.4</ele>
        <time>2022-06-21T12:19:32Z</time>
      </trkpt>
      <trkpt lat="43.43866" lon="2.63635">
        <ele>818.5</ele>
        <time>2022-06-21T12:19:33Z</time>
      </trkpt>
      <trkpt lat="43.43866" lon="2.63634">
        <ele>818.5</ele>
        <time>2022-06-21T12:19:34Z</time>
      </trkpt>
      <trkpt lat="43.43866" lon="2.63633">
        <ele>818.6</ele>
        <time>2022-06-21T12:19:35Z</time>
      </trkpt>
      <trkpt lat="43.43867" lon="2.63631">
        <ele>818.7</ele>
        <time>2022-06-21T12:19:36Z</time>
      </trkpt>
      <trkpt lat="43.43867" lon="2.63631">
        <ele>818.7</ele>
        <time>2022-06-21T12:19:37Z</time>
      </trkpt>
      <trkpt lat="43.43867" lon="2.6363">
        <ele>818.8</ele>
        <time>2022-06-21T12:19:38Z</time>
      </trkpt>
      <trkpt lat="43.43868" lon="2.63629">
        <ele>818.8</ele>
        <time>2022-06-21T12:19:39Z</time>
      </trkpt>
      <trkpt lat="43.43868" lon="2.63628">
        <ele>818.9</ele>
        <time>2022-06-21T12:19:40Z</time>
      </trkpt>
      <trkpt lat="43.43868" lon="2.63627">
        <ele>818.9</ele>
        <time>2022-06-21T12:19:41Z</time>
      </trkpt>
      <trkpt lat="43.43868" lon="2.63625">
        <ele>819</ele>
        <time>2022-06-21T12:19:42Z</time>
      </trkpt>
      <trkpt lat="43.43868" lon="2.63624">
        <ele>819.1</ele>
        <time>2022-06-21T12:19:43Z</time>
      </trkpt>
      <trkpt lat="43.43869" lon="2.63623">
        <ele>819.2</ele>
        <time>2022-06-21T12:19:44Z</time>
      </trkpt>
      <trkpt lat="43.43869" lon="2.6362">
        <ele>819.3</ele>
        <time>2022-06-21T12:19:45Z</time>
      </trkpt>
      <trkpt lat="43.43869" lon="2.63619">
        <ele>819.4</ele>
        <time>2022-06-21T12:19:46Z</time>
      </trkpt>
      <trkpt lat="43.4387" lon="2.63618">
        <ele>819.4</ele>
        <time>2022-06-21T12:19:47Z</time>
      </trkpt>
      <trkpt lat="43.4387" lon="2.63617">
        <ele>819.5</ele>
        <time>2022-06-21T12:19:48Z</time>
      </trkpt>
      <trkpt lat="43.4387" lon="2.63616">
        <ele>819.6</ele>
        <time>2022-06-21T12:19:49Z</time>
      </trkpt>
      <trkpt lat="43.4387" lon="2.63615">
        <ele>819.6</ele>
        <time>2022-06-21T12:19:50Z</time>
      </trkpt>
      <trkpt lat="43.4387" lon="2.63613">
        <ele>819.7</ele>
        <time>2022-06-21T12:19:51Z</time>
      </trkpt>
      <trkpt lat="43.4387" lon="2.63612">
        <ele>819.8</ele>
        <time>2022-06-21T12:19:52Z</time>
      </trkpt>
      <trkpt lat="43.4387" lon="2.6361">
        <ele>819.9</ele>
        <time>2022-06-21T12:19:53Z</time>
      </trkpt>
      <trkpt lat="43.43871" lon="2.63609">
        <ele>819.9</ele>
        <time>2022-06-21T12:19:54Z</time>
      </trkpt>
      <trkpt lat="43.43871" lon="2.63608">
        <ele>820</ele>
        <time>2022-06-21T12:19:55Z</time>
      </trkpt>
      <trkpt lat="43.43871" lon="2.63607">
        <ele>820</ele>
        <time>2022-06-21T12:19:56Z</time>
      </trkpt>
      <trkpt lat="43.43871" lon="2.63607">
        <ele>820.1</ele>
        <time>2022-06-21T12:19:57Z</time>
      </trkpt>
      <trkpt lat="43.43871" lon="2.63607">
        <ele>820.1</ele>
        <time>2022-06-21T12:19:58Z</time>
      </trkpt>
      <trkpt lat="43.43871" lon="2.63606">
        <ele>820.2</ele>
        <time>2022-06-21T12:19:59Z</time>
      </trkpt>
      <trkpt lat="43.43871" lon="2.63604">
        <ele>820.2</ele>
        <time>2022-06-21T12:20:00Z</time>
      </trkpt>
      <trkpt lat="43.43871" lon="2.63603">
        <ele>820.3</ele>
        <time>2022-06-21T12:20:01Z</time>
      </trkpt>
      <trkpt lat="43.43872" lon="2.63601">
        <ele>820.4</ele>
        <time>2022-06-21T12:20:02Z</time>
      </trkpt>
      <trkpt lat="43.43873" lon="2.63598">
        <ele>820.6</ele>
        <time>2022-06-21T12:20:03Z</time>
      </trkpt>
      <trkpt lat="43.43873" lon="2.63596">
        <ele>820.7</ele>
        <time>2022-06-21T12:20:04Z</time>
      </trkpt>
      <trkpt lat="43.43874" lon="2.63594">
        <ele>820.9</ele>
        <time>2022-06-21T12:20:05Z</time>
      </trkpt>
      <trkpt lat="43.43874" lon="2.63593">
        <ele>820.9</ele>
        <time>2022-06-21T12:20:06Z</time>
      </trkpt>
      <trkpt lat="43.43874" lon="2.63592">
        <ele>820.9</ele>
        <time>2022-06-21T12:20:07Z</time>
      </trkpt>
      <trkpt lat="43.43875" lon="2.63591">
        <ele>821</ele>
        <time>2022-06-21T12:20:08Z</time>
      </trkpt>
      <trkpt lat="43.43876" lon="2.63589">
        <ele>821.1</ele>
        <time>2022-06-21T12:20:09Z</time>
      </trkpt>
      <trkpt lat="43.43876" lon="2.63588">
        <ele>821.2</ele>
        <time>2022-06-21T12:20:10Z</time>
      </trkpt>
      <trkpt lat="43.43877" lon="2.63587">
        <ele>821.3</ele>
        <time>2022-06-21T12:20:11Z</time>
      </trkpt>
      <trkpt lat="43.43877" lon="2.63585">
        <ele>821.4</ele>
        <time>2022-06-21T12:20:12Z</time>
      </trkpt>
      <trkpt lat="43.43878" lon="2.63583">
        <ele>821.6</ele>
        <time>2022-06-21T12:20:13Z</time>
      </trkpt>
      <trkpt lat="43.43879" lon="2.63581">
        <ele>821.7</ele>
        <time>2022-06-21T12:20:14Z</time>
      </trkpt>
      <trkpt lat="43.4388" lon="2.63579">
        <ele>821.8</ele>
        <time>2022-06-21T12:20:15Z</time>
      </trkpt>
      <trkpt lat="43.4388" lon="2.63577">
        <ele>821.9</ele>
        <time>2022-06-21T12:20:16Z</time>
      </trkpt>
      <trkpt lat="43.43881" lon="2.63575">
        <ele>822</ele>
        <time>2022-06-21T12:20:17Z</time>
      </trkpt>
      <trkpt lat="43.43881" lon="2.63573">
        <ele>822.1</ele>
        <time>2022-06-21T12:20:18Z</time>
      </trkpt>
      <trkpt lat="43.43881" lon="2.63572">
        <ele>822.2</ele>
        <time>2022-06-21T12:20:19Z</time>
      </trkpt>
      <trkpt lat="43.43882" lon="2.63571">
        <ele>822.3</ele>
        <time>2022-06-21T12:20:20Z</time>
      </trkpt>
      <trkpt lat="43.43882" lon="2.63569">
        <ele>822.4</ele>
        <time>2022-06-21T12:20:21Z</time>
      </trkpt>
      <trkpt lat="43.43882" lon="2.63568">
        <ele>822.4</ele>
        <time>2022-06-21T12:20:22Z</time>
      </trkpt>
      <trkpt lat="43.43883" lon="2.63566">
        <ele>822.5</ele>
        <time>2022-06-21T12:20:23Z</time>
      </trkpt>
      <trkpt lat="43.43883" lon="2.63565">
        <ele>822.6</ele>
        <time>2022-06-21T12:20:24Z</time>
      </trkpt>
      <trkpt lat="43.43883" lon="2.63564">
        <ele>822.7</ele>
        <time>2022-06-21T12:20:25Z</time>
      </trkpt>
      <trkpt lat="43.43884" lon="2.63562">
        <ele>822.8</ele>
        <time>2022-06-21T12:20:26Z</time>
      </trkpt>
      <trkpt lat="43.43884" lon="2.63561">
        <ele>822.8</ele>
        <time>2022-06-21T12:20:27Z</time>
      </trkpt>
      <trkpt lat="43.43884" lon="2.63559">
        <ele>822.9</ele>
        <time>2022-06-21T12:20:28Z</time>
      </trkpt>
      <trkpt lat="43.43884" lon="2.63557">
        <ele>823</ele>
        <time>2022-06-21T12:20:29Z</time>
      </trkpt>
      <trkpt lat="43.43884" lon="2.63556">
        <ele>823.1</ele>
        <time>2022-06-21T12:20:30Z</time>
      </trkpt>
      <trkpt lat="43.43883" lon="2.63554">
        <ele>823.2</ele>
        <time>2022-06-21T12:20:31Z</time>
      </trkpt>
      <trkpt lat="43.43883" lon="2.63553">
        <ele>823.3</ele>
        <time>2022-06-21T12:20:32Z</time>
      </trkpt>
      <trkpt lat="43.43883" lon="2.63553">
        <ele>823.3</ele>
        <time>2022-06-21T12:20:33Z</time>
      </trkpt>
      <trkpt lat="43.43883" lon="2.63552">
        <ele>823.3</ele>
        <time>2022-06-21T12:20:34Z</time>
      </trkpt>
      <trkpt lat="43.43883" lon="2.63552">
        <ele>823.4</ele>
        <time>2022-06-21T12:20:35Z</time>
      </trkpt>
      <trkpt lat="43.43884" lon="2.63551">
        <ele>823.4</ele>
        <time>2022-06-21T12:20:36Z</time>
      </trkpt>
      <trkpt lat="43.43884" lon="2.63549">
        <ele>823.5</ele>
        <time>2022-06-21T12:20:37Z</time>
      </trkpt>
      <trkpt lat="43.43884" lon="2.63548">
        <ele>823.6</ele>
        <time>2022-06-21T12:20:38Z</time>
      </trkpt>
      <trkpt lat="43.43884" lon="2.63546">
        <ele>823.8</ele>
        <time>2022-06-21T12:20:39Z</time>
      </trkpt>
      <trkpt lat="43.43884" lon="2.63545">
        <ele>824</ele>
        <time>2022-06-21T12:20:40Z</time>
      </trkpt>
      <trkpt lat="43.43885" lon="2.63543">
        <ele>824.1</ele>
        <time>2022-06-21T12:20:41Z</time>
      </trkpt>
      <trkpt lat="43.43886" lon="2.63542">
        <ele>824.3</ele>
        <time>2022-06-21T12:20:42Z</time>
      </trkpt>
      <trkpt lat="43.43886" lon="2.63541">
        <ele>824.4</ele>
        <time>2022-06-21T12:20:43Z</time>
      </trkpt>
      <trkpt lat="43.43887" lon="2.6354">
        <ele>824.5</ele>
        <time>2022-06-21T12:20:44Z</time>
      </trkpt>
      <trkpt lat="43.43888" lon="2.6354">
        <ele>824.6</ele>
        <time>2022-06-21T12:20:45Z</time>
      </trkpt>
      <trkpt lat="43.43889" lon="2.63539">
        <ele>824.8</ele>
        <time>2022-06-21T12:20:46Z</time>
      </trkpt>
      <trkpt lat="43.4389" lon="2.63539">
        <ele>824.9</ele>
        <time>2022-06-21T12:20:47Z</time>
      </trkpt>
      <trkpt lat="43.4389" lon="2.63538">
        <ele>825</ele>
        <time>2022-06-21T12:20:48Z</time>
      </trkpt>
      <trkpt lat="43.43891" lon="2.63538">
        <ele>825.1</ele>
        <time>2022-06-21T12:20:49Z</time>
      </trkpt>
      <trkpt lat="43.43891" lon="2.63537">
        <ele>825.2</ele>
        <time>2022-06-21T12:20:50Z</time>
      </trkpt>
      <trkpt lat="43.43892" lon="2.63536">
        <ele>825.4</ele>
        <time>2022-06-21T12:20:51Z</time>
      </trkpt>
      <trkpt lat="43.43892" lon="2.63534">
        <ele>825.7</ele>
        <time>2022-06-21T12:20:52Z</time>
      </trkpt>
      <trkpt lat="43.43893" lon="2.63533">
        <ele>825.8</ele>
        <time>2022-06-21T12:20:53Z</time>
      </trkpt>
      <trkpt lat="43.43893" lon="2.63532">
        <ele>825.8</ele>
        <time>2022-06-21T12:20:54Z</time>
      </trkpt>
      <trkpt lat="43.43893" lon="2.63532">
        <ele>825.9</ele>
        <time>2022-06-21T12:20:55Z</time>
      </trkpt>
      <trkpt lat="43.43893" lon="2.63532">
        <ele>825.9</ele>
        <time>2022-06-21T12:20:56Z</time>
      </trkpt>
      <trkpt lat="43.43893" lon="2.63532">
        <ele>825.9</ele>
        <time>2022-06-21T12:20:57Z</time>
      </trkpt>
      <trkpt lat="43.43892" lon="2.6353">
        <ele>826.2</ele>
        <time>2022-06-21T12:20:58Z</time>
      </trkpt>
      <trkpt lat="43.43892" lon="2.63528">
        <ele>826.5</ele>
        <time>2022-06-21T12:20:59Z</time>
      </trkpt>
      <trkpt lat="43.43892" lon="2.63525">
        <ele>826.8</ele>
        <time>2022-06-21T12:21:00Z</time>
      </trkpt>
      <trkpt lat="43.43892" lon="2.63522">
        <ele>827.3</ele>
        <time>2022-06-21T12:21:01Z</time>
      </trkpt>
      <trkpt lat="43.43892" lon="2.63521">
        <ele>827.4</ele>
        <time>2022-06-21T12:21:02Z</time>
      </trkpt>
      <trkpt lat="43.43892" lon="2.6352">
        <ele>827.6</ele>
        <time>2022-06-21T12:21:03Z</time>
      </trkpt>
      <trkpt lat="43.43893" lon="2.63517">
        <ele>828</ele>
        <time>2022-06-21T12:21:04Z</time>
      </trkpt>
      <trkpt lat="43.43893" lon="2.63516">
        <ele>828.2</ele>
        <time>2022-06-21T12:21:05Z</time>
      </trkpt>
      <trkpt lat="43.43893" lon="2.63516">
        <ele>828.2</ele>
        <time>2022-06-21T12:21:06Z</time>
      </trkpt>
      <trkpt lat="43.43894" lon="2.63515">
        <ele>828.4</ele>
        <time>2022-06-21T12:21:07Z</time>
      </trkpt>
      <trkpt lat="43.43895" lon="2.63513">
        <ele>828.9</ele>
        <time>2022-06-21T12:21:08Z</time>
      </trkpt>
      <trkpt lat="43.43896" lon="2.63511">
        <ele>829.2</ele>
        <time>2022-06-21T12:21:09Z</time>
      </trkpt>
      <trkpt lat="43.43896" lon="2.6351">
        <ele>829.3</ele>
        <time>2022-06-21T12:21:10Z</time>
      </trkpt>
      <trkpt lat="43.43896" lon="2.6351">
        <ele>829.4</ele>
        <time>2022-06-21T12:21:11Z</time>
      </trkpt>
      <trkpt lat="43.43897" lon="2.63509">
        <ele>829.5</ele>
        <time>2022-06-21T12:21:12Z</time>
      </trkpt>
      <trkpt lat="43.43897" lon="2.63509">
        <ele>829.6</ele>
        <time>2022-06-21T12:21:13Z</time>
      </trkpt>
      <trkpt lat="43.43897" lon="2.63508">
        <ele>829.6</ele>
        <time>2022-06-21T12:21:14Z</time>
      </trkpt>
      <trkpt lat="43.43898" lon="2.63506">
        <ele>830</ele>
        <time>2022-06-21T12:21:15Z</time>
      </trkpt>
      <trkpt lat="43.43898" lon="2.63505">
        <ele>830.1</ele>
        <time>2022-06-21T12:21:16Z</time>
      </trkpt>
      <trkpt lat="43.43898" lon="2.63504">
        <ele>830.3</ele>
        <time>2022-06-21T12:21:17Z</time>
      </trkpt>
      <trkpt lat="43.43899" lon="2.63503">
        <ele>830.5</ele>
        <time>2022-06-21T12:21:18Z</time>
      </trkpt>
      <trkpt lat="43.43899" lon="2.63501">
        <ele>830.7</ele>
        <time>2022-06-21T12:21:19Z</time>
      </trkpt>
      <trkpt lat="43.43899" lon="2.63501">
        <ele>830.8</ele>
        <time>2022-06-21T12:21:20Z</time>
      </trkpt>
      <trkpt lat="43.43899" lon="2.635">
        <ele>830.9</ele>
        <time>2022-06-21T12:21:21Z</time>
      </trkpt>
      <trkpt lat="43.43899" lon="2.635">
        <ele>830.9</ele>
        <time>2022-06-21T12:21:22Z</time>
      </trkpt>
      <trkpt lat="43.439" lon="2.63499">
        <ele>831</ele>
        <time>2022-06-21T12:21:23Z</time>
      </trkpt>
      <trkpt lat="43.439" lon="2.63499">
        <ele>831.1</ele>
        <time>2022-06-21T12:21:24Z</time>
      </trkpt>
      <trkpt lat="43.439" lon="2.63499">
        <ele>831.1</ele>
        <time>2022-06-21T12:21:25Z</time>
      </trkpt>
      <trkpt lat="43.439" lon="2.63498">
        <ele>831.2</ele>
        <time>2022-06-21T12:21:26Z</time>
      </trkpt>
      <trkpt lat="43.439" lon="2.63498">
        <ele>831.3</ele>
        <time>2022-06-21T12:21:27Z</time>
      </trkpt>
      <trkpt lat="43.43901" lon="2.63496">
        <ele>831.5</ele>
        <time>2022-06-21T12:21:28Z</time>
      </trkpt>
      <trkpt lat="43.43901" lon="2.63493">
        <ele>831.8</ele>
        <time>2022-06-21T12:21:29Z</time>
      </trkpt>
      <trkpt lat="43.43902" lon="2.63489">
        <ele>832.3</ele>
        <time>2022-06-21T12:21:30Z</time>
      </trkpt>
      <trkpt lat="43.43903" lon="2.63487">
        <ele>832.5</ele>
        <time>2022-06-21T12:21:31Z</time>
      </trkpt>
      <trkpt lat="43.43905" lon="2.63483">
        <ele>833.1</ele>
        <time>2022-06-21T12:21:32Z</time>
      </trkpt>
      <trkpt lat="43.43906" lon="2.63481">
        <ele>833.3</ele>
        <time>2022-06-21T12:21:33Z</time>
      </trkpt>
      <trkpt lat="43.43907" lon="2.63477">
        <ele>833.7</ele>
        <time>2022-06-21T12:21:34Z</time>
      </trkpt>
      <trkpt lat="43.43908" lon="2.63476">
        <ele>833.8</ele>
        <time>2022-06-21T12:21:35Z</time>
      </trkpt>
      <trkpt lat="43.43909" lon="2.63475">
        <ele>834</ele>
        <time>2022-06-21T12:21:36Z</time>
      </trkpt>
      <trkpt lat="43.43909" lon="2.63474">
        <ele>834</ele>
        <time>2022-06-21T12:21:37Z</time>
      </trkpt>
      <trkpt lat="43.4391" lon="2.63473">
        <ele>834.2</ele>
        <time>2022-06-21T12:21:38Z</time>
      </trkpt>
      <trkpt lat="43.4391" lon="2.63473">
        <ele>834.2</ele>
        <time>2022-06-21T12:21:39Z</time>
      </trkpt>
      <trkpt lat="43.4391" lon="2.63472">
        <ele>834.2</ele>
        <time>2022-06-21T12:21:40Z</time>
      </trkpt>
      <trkpt lat="43.43911" lon="2.63472">
        <ele>834.3</ele>
        <time>2022-06-21T12:21:41Z</time>
      </trkpt>
      <trkpt lat="43.43911" lon="2.63472">
        <ele>834.3</ele>
        <time>2022-06-21T12:21:42Z</time>
      </trkpt>
      <trkpt lat="43.43911" lon="2.63472">
        <ele>834.4</ele>
        <time>2022-06-21T12:21:43Z</time>
      </trkpt>
      <trkpt lat="43.43911" lon="2.63472">
        <ele>834.4</ele>
        <time>2022-06-21T12:21:44Z</time>
      </trkpt>
      <trkpt lat="43.43912" lon="2.63471">
        <ele>834.4</ele>
        <time>2022-06-21T12:21:45Z</time>
      </trkpt>
      <trkpt lat="43.43912" lon="2.63471">
        <ele>834.5</ele>
        <time>2022-06-21T12:21:46Z</time>
      </trkpt>
      <trkpt lat="43.43912" lon="2.63471">
        <ele>834.5</ele>
        <time>2022-06-21T12:21:47Z</time>
      </trkpt>
      <trkpt lat="43.43913" lon="2.63471">
        <ele>834.5</ele>
        <time>2022-06-21T12:21:48Z</time>
      </trkpt>
      <trkpt lat="43.43913" lon="2.63471">
        <ele>834.6</ele>
        <time>2022-06-21T12:21:49Z</time>
      </trkpt>
      <trkpt lat="43.43913" lon="2.6347">
        <ele>834.6</ele>
        <time>2022-06-21T12:21:50Z</time>
      </trkpt>
      <trkpt lat="43.43913" lon="2.6347">
        <ele>834.7</ele>
        <time>2022-06-21T12:21:51Z</time>
      </trkpt>
      <trkpt lat="43.43914" lon="2.6347">
        <ele>834.7</ele>
        <time>2022-06-21T12:21:52Z</time>
      </trkpt>
      <trkpt lat="43.43914" lon="2.6347">
        <ele>834.7</ele>
        <time>2022-06-21T12:21:53Z</time>
      </trkpt>
      <trkpt lat="43.43914" lon="2.63469">
        <ele>834.8</ele>
        <time>2022-06-21T12:21:54Z</time>
      </trkpt>
      <trkpt lat="43.43914" lon="2.63469">
        <ele>834.8</ele>
        <time>2022-06-21T12:21:55Z</time>
      </trkpt>
      <trkpt lat="43.43915" lon="2.63469">
        <ele>834.8</ele>
        <time>2022-06-21T12:21:56Z</time>
      </trkpt>
      <trkpt lat="43.43917" lon="2.63467">
        <ele>835.1</ele>
        <time>2022-06-21T12:21:57Z</time>
      </trkpt>
      <trkpt lat="43.4392" lon="2.63464">
        <ele>835.6</ele>
        <time>2022-06-21T12:21:58Z</time>
      </trkpt>
      <trkpt lat="43.43922" lon="2.63462">
        <ele>835.8</ele>
        <time>2022-06-21T12:21:59Z</time>
      </trkpt>
      <trkpt lat="43.43924" lon="2.63461">
        <ele>836.1</ele>
        <time>2022-06-21T12:22:00Z</time>
      </trkpt>
      <trkpt lat="43.43925" lon="2.6346">
        <ele>836.2</ele>
        <time>2022-06-21T12:22:01Z</time>
      </trkpt>
      <trkpt lat="43.43928" lon="2.63457">
        <ele>836.6</ele>
        <time>2022-06-21T12:22:02Z</time>
      </trkpt>
      <trkpt lat="43.4393" lon="2.63455">
        <ele>836.8</ele>
        <time>2022-06-21T12:22:03Z</time>
      </trkpt>
      <trkpt lat="43.43931" lon="2.63455">
        <ele>836.9</ele>
        <time>2022-06-21T12:22:04Z</time>
      </trkpt>
      <trkpt lat="43.43931" lon="2.63454">
        <ele>837</ele>
        <time>2022-06-21T12:22:05Z</time>
      </trkpt>
      <trkpt lat="43.43934" lon="2.63452">
        <ele>837.3</ele>
        <time>2022-06-21T12:22:06Z</time>
      </trkpt>
      <trkpt lat="43.43935" lon="2.6345">
        <ele>837.5</ele>
        <time>2022-06-21T12:22:07Z</time>
      </trkpt>
      <trkpt lat="43.43937" lon="2.63449">
        <ele>837.7</ele>
        <time>2022-06-21T12:22:08Z</time>
      </trkpt>
      <trkpt lat="43.43938" lon="2.63448">
        <ele>837.9</ele>
        <time>2022-06-21T12:22:09Z</time>
      </trkpt>
      <trkpt lat="43.43939" lon="2.63447">
        <ele>838</ele>
        <time>2022-06-21T12:22:10Z</time>
      </trkpt>
      <trkpt lat="43.43939" lon="2.63447">
        <ele>838.1</ele>
        <time>2022-06-21T12:22:11Z</time>
      </trkpt>
      <trkpt lat="43.43939" lon="2.63446">
        <ele>838.1</ele>
        <time>2022-06-21T12:22:12Z</time>
      </trkpt>
      <trkpt lat="43.4394" lon="2.63446">
        <ele>838.1</ele>
        <time>2022-06-21T12:22:13Z</time>
      </trkpt>
      <trkpt lat="43.4394" lon="2.63446">
        <ele>838.2</ele>
        <time>2022-06-21T12:22:14Z</time>
      </trkpt>
      <trkpt lat="43.4394" lon="2.63445">
        <ele>838.2</ele>
        <time>2022-06-21T12:22:15Z</time>
      </trkpt>
      <trkpt lat="43.43941" lon="2.63445">
        <ele>838.3</ele>
        <time>2022-06-21T12:22:16Z</time>
      </trkpt>
      <trkpt lat="43.43941" lon="2.63444">
        <ele>838.3</ele>
        <time>2022-06-21T12:22:17Z</time>
      </trkpt>
      <trkpt lat="43.43941" lon="2.63444">
        <ele>838.4</ele>
        <time>2022-06-21T12:22:18Z</time>
      </trkpt>
      <trkpt lat="43.43941" lon="2.63444">
        <ele>838.4</ele>
        <time>2022-06-21T12:22:19Z</time>
      </trkpt>
      <trkpt lat="43.43943" lon="2.63442">
        <ele>838.6</ele>
        <time>2022-06-21T12:22:20Z</time>
      </trkpt>
      <trkpt lat="43.43943" lon="2.63441">
        <ele>838.7</ele>
        <time>2022-06-21T12:22:21Z</time>
      </trkpt>
      <trkpt lat="43.43944" lon="2.6344">
        <ele>838.8</ele>
        <time>2022-06-21T12:22:22Z</time>
      </trkpt>
      <trkpt lat="43.43944" lon="2.6344">
        <ele>838.9</ele>
        <time>2022-06-21T12:22:23Z</time>
      </trkpt>
      <trkpt lat="43.43944" lon="2.63439">
        <ele>838.9</ele>
        <time>2022-06-21T12:22:24Z</time>
      </trkpt>
      <trkpt lat="43.43944" lon="2.63439">
        <ele>838.9</ele>
        <time>2022-06-21T12:22:25Z</time>
      </trkpt>
      <trkpt lat="43.43945" lon="2.63438">
        <ele>839.1</ele>
        <time>2022-06-21T12:22:26Z</time>
      </trkpt>
      <trkpt lat="43.43946" lon="2.63437">
        <ele>839.2</ele>
        <time>2022-06-21T12:22:27Z</time>
      </trkpt>
      <trkpt lat="43.43946" lon="2.63437">
        <ele>839.3</ele>
        <time>2022-06-21T12:22:28Z</time>
      </trkpt>
      <trkpt lat="43.43946" lon="2.63437">
        <ele>839.3</ele>
        <time>2022-06-21T12:22:29Z</time>
      </trkpt>
      <trkpt lat="43.43947" lon="2.63437">
        <ele>839.3</ele>
        <time>2022-06-21T12:22:30Z</time>
      </trkpt>
      <trkpt lat="43.43947" lon="2.63437">
        <ele>839.3</ele>
        <time>2022-06-21T12:22:31Z</time>
      </trkpt>
      <trkpt lat="43.43947" lon="2.63437">
        <ele>839.3</ele>
        <time>2022-06-21T12:22:32Z</time>
      </trkpt>
      <trkpt lat="43.43947" lon="2.63437">
        <ele>839.3</ele>
        <time>2022-06-21T12:22:33Z</time>
      </trkpt>
      <trkpt lat="43.43947" lon="2.63437">
        <ele>839.3</ele>
        <time>2022-06-21T12:22:34Z</time>
      </trkpt>
      <trkpt lat="43.43947" lon="2.63436">
        <ele>839.3</ele>
        <time>2022-06-21T12:22:35Z</time>
      </trkpt>
      <trkpt lat="43.43947" lon="2.63436">
        <ele>839.4</ele>
        <time>2022-06-21T12:22:36Z</time>
      </trkpt>
      <trkpt lat="43.43947" lon="2.63436">
        <ele>839.4</ele>
        <time>2022-06-21T12:22:37Z</time>
      </trkpt>
      <trkpt lat="43.43948" lon="2.63435">
        <ele>839.5</ele>
        <time>2022-06-21T12:22:38Z</time>
      </trkpt>
      <trkpt lat="43.43948" lon="2.63434">
        <ele>839.6</ele>
        <time>2022-06-21T12:22:39Z</time>
      </trkpt>
      <trkpt lat="43.4395" lon="2.63433">
        <ele>839.8</ele>
        <time>2022-06-21T12:22:40Z</time>
      </trkpt>
      <trkpt lat="43.4395" lon="2.63433">
        <ele>839.9</ele>
        <time>2022-06-21T12:22:41Z</time>
      </trkpt>
      <trkpt lat="43.43951" lon="2.63433">
        <ele>839.9</ele>
        <time>2022-06-21T12:22:42Z</time>
      </trkpt>
      <trkpt lat="43.43951" lon="2.63433">
        <ele>839.9</ele>
        <time>2022-06-21T12:22:43Z</time>
      </trkpt>
      <trkpt lat="43.43951" lon="2.63433">
        <ele>840</ele>
        <time>2022-06-21T12:22:44Z</time>
      </trkpt>
      <trkpt lat="43.43951" lon="2.63433">
        <ele>840</ele>
        <time>2022-06-21T12:22:45Z</time>
      </trkpt>
      <trkpt lat="43.43951" lon="2.63433">
        <ele>840</ele>
        <time>2022-06-21T12:22:46Z</time>
      </trkpt>
      <trkpt lat="43.43951" lon="2.63433">
        <ele>840</ele>
        <time>2022-06-21T12:22:47Z</time>
      </trkpt>
      <trkpt lat="43.43951" lon="2.63433">
        <ele>840</ele>
        <time>2022-06-21T12:22:48Z</time>
      </trkpt>
      <trkpt lat="43.43951" lon="2.63433">
        <ele>840</ele>
        <time>2022-06-21T12:22:49Z</time>
      </trkpt>
      <trkpt lat="43.43951" lon="2.63433">
        <ele>840</ele>
        <time>2022-06-21T12:22:50Z</time>
      </trkpt>
      <trkpt lat="43.43951" lon="2.63433">
        <ele>840</ele>
        <time>2022-06-21T12:22:51Z</time>
      </trkpt>
      <trkpt lat="43.43951" lon="2.63433">
        <ele>840</ele>
        <time>2022-06-21T12:22:52Z</time>
      </trkpt>
      <trkpt lat="43.43951" lon="2.63433">
        <ele>840</ele>
        <time>2022-06-21T12:22:53Z</time>
      </trkpt>
      <trkpt lat="43.43951" lon="2.63432">
        <ele>840.1</ele>
        <time>2022-06-21T12:22:54Z</time>
      </trkpt>
      <trkpt lat="43.43951" lon="2.63432">
        <ele>840.1</ele>
        <time>2022-06-21T12:22:55Z</time>
      </trkpt>
      <trkpt lat="43.43951" lon="2.63432">
        <ele>840.1</ele>
        <time>2022-06-21T12:22:56Z</time>
      </trkpt>
      <trkpt lat="43.43951" lon="2.63432">
        <ele>840.1</ele>
        <time>2022-06-21T12:22:57Z</time>
      </trkpt>
      <trkpt lat="43.43951" lon="2.63431">
        <ele>840.1</ele>
        <time>2022-06-21T12:22:58Z</time>
      </trkpt>
      <trkpt lat="43.43951" lon="2.63431">
        <ele>840.1</ele>
        <time>2022-06-21T12:22:59Z</time>
      </trkpt>
      <trkpt lat="43.43952" lon="2.63431">
        <ele>840.2</ele>
        <time>2022-06-21T12:23:00Z</time>
      </trkpt>
      <trkpt lat="43.43952" lon="2.63431">
        <ele>840.2</ele>
        <time>2022-06-21T12:23:01Z</time>
      </trkpt>
      <trkpt lat="43.43952" lon="2.63431">
        <ele>840.2</ele>
        <time>2022-06-21T12:23:02Z</time>
      </trkpt>
      <trkpt lat="43.43952" lon="2.63431">
        <ele>840.2</ele>
        <time>2022-06-21T12:23:03Z</time>
      </trkpt>
      <trkpt lat="43.43952" lon="2.63431">
        <ele>840.2</ele>
        <time>2022-06-21T12:23:04Z</time>
      </trkpt>
      <trkpt lat="43.43952" lon="2.63431">
        <ele>840.2</ele>
        <time>2022-06-21T12:23:05Z</time>
      </trkpt>
      <trkpt lat="43.43952" lon="2.63431">
        <ele>840.2</ele>
        <time>2022-06-21T12:23:06Z</time>
      </trkpt>
      <trkpt lat="43.43952" lon="2.63431">
        <ele>840.3</ele>
        <time>2022-06-21T12:23:07Z</time>
      </trkpt>
      <trkpt lat="43.43952" lon="2.63431">
        <ele>840.3</ele>
        <time>2022-06-21T12:23:08Z</time>
      </trkpt>
      <trkpt lat="43.43952" lon="2.6343">
        <ele>840.3</ele>
        <time>2022-06-21T12:23:09Z</time>
      </trkpt>
      <trkpt lat="43.43952" lon="2.6343">
        <ele>840.3</ele>
        <time>2022-06-21T12:23:10Z</time>
      </trkpt>
      <trkpt lat="43.43953" lon="2.6343">
        <ele>840.3</ele>
        <time>2022-06-21T12:23:11Z</time>
      </trkpt>
      <trkpt lat="43.43953" lon="2.6343">
        <ele>840.3</ele>
        <time>2022-06-21T12:23:12Z</time>
      </trkpt>
      <trkpt lat="43.43953" lon="2.6343">
        <ele>840.3</ele>
        <time>2022-06-21T12:23:13Z</time>
      </trkpt>
      <trkpt lat="43.43953" lon="2.6343">
        <ele>840.4</ele>
        <time>2022-06-21T12:23:14Z</time>
      </trkpt>
      <trkpt lat="43.43953" lon="2.6343">
        <ele>840.4</ele>
        <time>2022-06-21T12:23:15Z</time>
      </trkpt>
      <trkpt lat="43.43953" lon="2.6343">
        <ele>840.4</ele>
        <time>2022-06-21T12:23:16Z</time>
      </trkpt>
      <trkpt lat="43.43953" lon="2.6343">
        <ele>840.4</ele>
        <time>2022-06-21T12:23:17Z</time>
      </trkpt>
      <trkpt lat="43.43953" lon="2.6343">
        <ele>840.4</ele>
        <time>2022-06-21T12:23:18Z</time>
      </trkpt>
      <trkpt lat="43.43953" lon="2.63429">
        <ele>840.4</ele>
        <time>2022-06-21T12:23:19Z</time>
      </trkpt>
      <trkpt lat="43.43953" lon="2.63429">
        <ele>840.5</ele>
        <time>2022-06-21T12:23:20Z</time>
      </trkpt>
      <trkpt lat="43.43953" lon="2.63429">
        <ele>840.5</ele>
        <time>2022-06-21T12:23:21Z</time>
      </trkpt>
      <trkpt lat="43.43954" lon="2.63429">
        <ele>840.5</ele>
        <time>2022-06-21T12:23:22Z</time>
      </trkpt>
      <trkpt lat="43.43954" lon="2.63429">
        <ele>840.5</ele>
        <time>2022-06-21T12:23:23Z</time>
      </trkpt>
      <trkpt lat="43.43954" lon="2.63429">
        <ele>840.5</ele>
        <time>2022-06-21T12:23:24Z</time>
      </trkpt>
      <trkpt lat="43.43954" lon="2.63429">
        <ele>840.5</ele>
        <time>2022-06-21T12:23:25Z</time>
      </trkpt>
      <trkpt lat="43.43954" lon="2.63429">
        <ele>840.5</ele>
        <time>2022-06-21T12:23:26Z</time>
      </trkpt>
      <trkpt lat="43.43957" lon="2.63426">
        <ele>841</ele>
        <time>2022-06-21T12:23:27Z</time>
      </trkpt>
      <trkpt lat="43.43958" lon="2.63425">
        <ele>841.2</ele>
        <time>2022-06-21T12:23:28Z</time>
      </trkpt>
      <trkpt lat="43.43958" lon="2.63425">
        <ele>841.3</ele>
        <time>2022-06-21T12:23:29Z</time>
      </trkpt>
      <trkpt lat="43.43959" lon="2.63424">
        <ele>841.4</ele>
        <time>2022-06-21T12:23:30Z</time>
      </trkpt>
      <trkpt lat="43.4396" lon="2.63423">
        <ele>841.6</ele>
        <time>2022-06-21T12:23:31Z</time>
      </trkpt>
      <trkpt lat="43.43961" lon="2.63421">
        <ele>841.7</ele>
        <time>2022-06-21T12:23:32Z</time>
      </trkpt>
      <trkpt lat="43.43962" lon="2.63421">
        <ele>841.9</ele>
        <time>2022-06-21T12:23:33Z</time>
      </trkpt>
      <trkpt lat="43.43962" lon="2.6342">
        <ele>842</ele>
        <time>2022-06-21T12:23:34Z</time>
      </trkpt>
      <trkpt lat="43.43963" lon="2.63418">
        <ele>842.3</ele>
        <time>2022-06-21T12:23:35Z</time>
      </trkpt>
      <trkpt lat="43.43964" lon="2.63416">
        <ele>842.5</ele>
        <time>2022-06-21T12:23:36Z</time>
      </trkpt>
      <trkpt lat="43.43965" lon="2.63416">
        <ele>842.7</ele>
        <time>2022-06-21T12:23:37Z</time>
      </trkpt>
      <trkpt lat="43.43966" lon="2.63415">
        <ele>842.8</ele>
        <time>2022-06-21T12:23:38Z</time>
      </trkpt>
      <trkpt lat="43.43967" lon="2.63414">
        <ele>843</ele>
        <time>2022-06-21T12:23:39Z</time>
      </trkpt>
      <trkpt lat="43.43968" lon="2.63414">
        <ele>843.2</ele>
        <time>2022-06-21T12:23:40Z</time>
      </trkpt>
      <trkpt lat="43.43969" lon="2.63412">
        <ele>843.4</ele>
        <time>2022-06-21T12:23:41Z</time>
      </trkpt>
      <trkpt lat="43.43969" lon="2.63411">
        <ele>843.5</ele>
        <time>2022-06-21T12:23:42Z</time>
      </trkpt>
      <trkpt lat="43.4397" lon="2.63411">
        <ele>843.6</ele>
        <time>2022-06-21T12:23:43Z</time>
      </trkpt>
      <trkpt lat="43.4397" lon="2.6341">
        <ele>843.7</ele>
        <time>2022-06-21T12:23:44Z</time>
      </trkpt>
      <trkpt lat="43.43971" lon="2.6341">
        <ele>843.8</ele>
        <time>2022-06-21T12:23:45Z</time>
      </trkpt>
      <trkpt lat="43.43972" lon="2.63408">
        <ele>844</ele>
        <time>2022-06-21T12:23:46Z</time>
      </trkpt>
      <trkpt lat="43.43972" lon="2.63408">
        <ele>844.1</ele>
        <time>2022-06-21T12:23:47Z</time>
      </trkpt>
      <trkpt lat="43.43973" lon="2.63407">
        <ele>844.3</ele>
        <time>2022-06-21T12:23:48Z</time>
      </trkpt>
      <trkpt lat="43.43974" lon="2.63407">
        <ele>844.4</ele>
        <time>2022-06-21T12:23:49Z</time>
      </trkpt>
      <trkpt lat="43.43974" lon="2.63406">
        <ele>844.5</ele>
        <time>2022-06-21T12:23:50Z</time>
      </trkpt>
      <trkpt lat="43.43975" lon="2.63405">
        <ele>844.6</ele>
        <time>2022-06-21T12:23:51Z</time>
      </trkpt>
      <trkpt lat="43.43976" lon="2.63403">
        <ele>844.9</ele>
        <time>2022-06-21T12:23:52Z</time>
      </trkpt>
      <trkpt lat="43.43976" lon="2.63403">
        <ele>845</ele>
        <time>2022-06-21T12:23:53Z</time>
      </trkpt>
      <trkpt lat="43.43977" lon="2.63403">
        <ele>845</ele>
        <time>2022-06-21T12:23:54Z</time>
      </trkpt>
      <trkpt lat="43.43977" lon="2.63403">
        <ele>845.1</ele>
        <time>2022-06-21T12:23:55Z</time>
      </trkpt>
      <trkpt lat="43.43977" lon="2.63402">
        <ele>845.1</ele>
        <time>2022-06-21T12:23:56Z</time>
      </trkpt>
      <trkpt lat="43.43977" lon="2.63402">
        <ele>845.1</ele>
        <time>2022-06-21T12:23:57Z</time>
      </trkpt>
      <trkpt lat="43.43977" lon="2.63402">
        <ele>845.1</ele>
        <time>2022-06-21T12:23:58Z</time>
      </trkpt>
      <trkpt lat="43.43977" lon="2.63402">
        <ele>845.1</ele>
        <time>2022-06-21T12:23:59Z</time>
      </trkpt>
      <trkpt lat="43.43977" lon="2.63402">
        <ele>845.1</ele>
        <time>2022-06-21T12:24:00Z</time>
      </trkpt>
      <trkpt lat="43.43977" lon="2.63402">
        <ele>845.1</ele>
        <time>2022-06-21T12:24:01Z</time>
      </trkpt>
      <trkpt lat="43.43977" lon="2.63402">
        <ele>845.1</ele>
        <time>2022-06-21T12:24:02Z</time>
      </trkpt>
      <trkpt lat="43.43977" lon="2.63402">
        <ele>845.1</ele>
        <time>2022-06-21T12:24:03Z</time>
      </trkpt>
      <trkpt lat="43.43977" lon="2.63402">
        <ele>845.1</ele>
        <time>2022-06-21T12:24:04Z</time>
      </trkpt>
      <trkpt lat="43.43977" lon="2.63402">
        <ele>845.1</ele>
        <time>2022-06-21T12:24:05Z</time>
      </trkpt>
      <trkpt lat="43.43977" lon="2.63402">
        <ele>845.1</ele>
        <time>2022-06-21T12:24:06Z</time>
      </trkpt>
      <trkpt lat="43.43977" lon="2.63402">
        <ele>845.1</ele>
        <time>2022-06-21T12:24:07Z</time>
      </trkpt>
      <trkpt lat="43.43977" lon="2.63402">
        <ele>845.1</ele>
        <time>2022-06-21T12:24:08Z</time>
      </trkpt>
      <trkpt lat="43.43977" lon="2.63402">
        <ele>845.1</ele>
        <time>2022-06-21T12:24:09Z</time>
      </trkpt>
      <trkpt lat="43.43977" lon="2.63402">
        <ele>845.1</ele>
        <time>2022-06-21T12:24:10Z</time>
      </trkpt>
      <trkpt lat="43.43977" lon="2.63402">
        <ele>845.1</ele>
        <time>2022-06-21T12:24:11Z</time>
      </trkpt>
      <trkpt lat="43.43977" lon="2.63402">
        <ele>845.1</ele>
        <time>2022-06-21T12:24:12Z</time>
      </trkpt>
      <trkpt lat="43.43976" lon="2.63402">
        <ele>845.1</ele>
        <time>2022-06-21T12:24:13Z</time>
      </trkpt>
      <trkpt lat="43.43976" lon="2.63402">
        <ele>845.1</ele>
        <time>2022-06-21T12:24:14Z</time>
      </trkpt>
      <trkpt lat="43.43976" lon="2.63402">
        <ele>845.1</ele>
        <time>2022-06-21T12:24:15Z</time>
      </trkpt>
      <trkpt lat="43.43976" lon="2.63402">
        <ele>845.1</ele>
        <time>2022-06-21T12:24:16Z</time>
      </trkpt>
      <trkpt lat="43.43976" lon="2.63402">
        <ele>845.1</ele>
        <time>2022-06-21T12:24:17Z</time>
      </trkpt>
      <trkpt lat="43.43976" lon="2.63402">
        <ele>845.1</ele>
        <time>2022-06-21T12:24:18Z</time>
      </trkpt>
      <trkpt lat="43.43976" lon="2.63402">
        <ele>845.1</ele>
        <time>2022-06-21T12:24:19Z</time>
      </trkpt>
      <trkpt lat="43.43976" lon="2.63402">
        <ele>845.1</ele>
        <time>2022-06-21T12:24:20Z</time>
      </trkpt>
      <trkpt lat="43.43976" lon="2.63402">
        <ele>845.1</ele>
        <time>2022-06-21T12:24:21Z</time>
      </trkpt>
      <trkpt lat="43.43976" lon="2.63402">
        <ele>845.1</ele>
        <time>2022-06-21T12:24:22Z</time>
      </trkpt>
      <trkpt lat="43.43976" lon="2.63402">
        <ele>845.1</ele>
        <time>2022-06-21T12:24:23Z</time>
      </trkpt>
      <trkpt lat="43.43976" lon="2.63402">
        <ele>845.1</ele>
        <time>2022-06-21T12:24:24Z</time>
      </trkpt>
      <trkpt lat="43.43976" lon="2.63402">
        <ele>845.1</ele>
        <time>2022-06-21T12:24:25Z</time>
      </trkpt>
      <trkpt lat="43.43976" lon="2.63402">
        <ele>845.1</ele>
        <time>2022-06-21T12:24:26Z</time>
      </trkpt>
      <trkpt lat="43.43976" lon="2.63402">
        <ele>845.1</ele>
        <time>2022-06-21T12:24:27Z</time>
      </trkpt>
      <trkpt lat="43.43976" lon="2.63402">
        <ele>845.1</ele>
        <time>2022-06-21T12:24:28Z</time>
      </trkpt>
      <trkpt lat="43.43976" lon="2.63402">
        <ele>845.1</ele>
        <time>2022-06-21T12:24:29Z</time>
      </trkpt>
      <trkpt lat="43.43976" lon="2.63402">
        <ele>845.1</ele>
        <time>2022-06-21T12:24:30Z</time>
      </trkpt>
      <trkpt lat="43.43976" lon="2.63402">
        <ele>845.1</ele>
        <time>2022-06-21T12:24:31Z</time>
      </trkpt>
      <trkpt lat="43.43976" lon="2.63402">
        <ele>845.1</ele>
        <time>2022-06-21T12:24:32Z</time>
      </trkpt>
      <trkpt lat="43.43976" lon="2.63402">
        <ele>845.1</ele>
        <time>2022-06-21T12:24:33Z</time>
      </trkpt>
      <trkpt lat="43.43976" lon="2.63402">
        <ele>845.1</ele>
        <time>2022-06-21T12:24:34Z</time>
      </trkpt>
      <trkpt lat="43.43976" lon="2.63402">
        <ele>845.1</ele>
        <time>2022-06-21T12:24:35Z</time>
      </trkpt>
      <trkpt lat="43.43976" lon="2.63402">
        <ele>845.1</ele>
        <time>2022-06-21T12:24:36Z</time>
      </trkpt>
      <trkpt lat="43.43976" lon="2.63402">
        <ele>845.1</ele>
        <time>2022-06-21T12:24:37Z</time>
      </trkpt>
      <trkpt lat="43.43976" lon="2.63402">
        <ele>845.1</ele>
        <time>2022-06-21T12:24:38Z</time>
      </trkpt>
      <trkpt lat="43.43976" lon="2.63402">
        <ele>845.1</ele>
        <time>2022-06-21T12:24:39Z</time>
      </trkpt>
      <trkpt lat="43.43976" lon="2.63402">
        <ele>845.1</ele>
        <time>2022-06-21T12:24:40Z</time>
      </trkpt>
      <trkpt lat="43.43976" lon="2.63402">
        <ele>845.1</ele>
        <time>2022-06-21T12:24:41Z</time>
      </trkpt>
      <trkpt lat="43.43976" lon="2.63402">
        <ele>845.1</ele>
        <time>2022-06-21T12:24:42Z</time>
      </trkpt>
      <trkpt lat="43.43976" lon="2.63402">
        <ele>845.1</ele>
        <time>2022-06-21T12:24:43Z</time>
      </trkpt>
      <trkpt lat="43.43976" lon="2.63402">
        <ele>845.1</ele>
        <time>2022-06-21T12:24:44Z</time>
      </trkpt>
      <trkpt lat="43.43976" lon="2.63402">
        <ele>845.1</ele>
        <time>2022-06-21T12:24:45Z</time>
      </trkpt>
      <trkpt lat="43.43976" lon="2.63402">
        <ele>845.1</ele>
        <time>2022-06-21T12:24:46Z</time>
      </trkpt>
      <trkpt lat="43.43976" lon="2.63402">
        <ele>845.1</ele>
        <time>2022-06-21T12:24:47Z</time>
      </trkpt>
      <trkpt lat="43.43976" lon="2.63402">
        <ele>845.1</ele>
        <time>2022-06-21T12:24:48Z</time>
      </trkpt>
      <trkpt lat="43.43976" lon="2.63402">
        <ele>845.1</ele>
        <time>2022-06-21T12:24:49Z</time>
      </trkpt>
      <trkpt lat="43.43976" lon="2.63402">
        <ele>845.1</ele>
        <time>2022-06-21T12:24:50Z</time>
      </trkpt>
      <trkpt lat="43.43976" lon="2.63402">
        <ele>845.1</ele>
        <time>2022-06-21T12:24:51Z</time>
      </trkpt>
      <trkpt lat="43.43976" lon="2.63402">
        <ele>845.1</ele>
        <time>2022-06-21T12:24:52Z</time>
      </trkpt>
      <trkpt lat="43.43976" lon="2.63402">
        <ele>845.1</ele>
        <time>2022-06-21T12:24:53Z</time>
      </trkpt>
      <trkpt lat="43.43976" lon="2.63402">
        <ele>845.1</ele>
        <time>2022-06-21T12:24:54Z</time>
      </trkpt>
      <trkpt lat="43.43976" lon="2.63402">
        <ele>845.1</ele>
        <time>2022-06-21T12:24:55Z</time>
      </trkpt>
      <trkpt lat="43.43976" lon="2.63402">
        <ele>845.1</ele>
        <time>2022-06-21T12:24:56Z</time>
      </trkpt>
      <trkpt lat="43.43976" lon="2.63402">
        <ele>845.1</ele>
        <time>2022-06-21T12:24:57Z</time>
      </trkpt>
      <trkpt lat="43.43976" lon="2.63402">
        <ele>845.1</ele>
        <time>2022-06-21T12:24:58Z</time>
      </trkpt>
      <trkpt lat="43.43976" lon="2.63402">
        <ele>845.1</ele>
        <time>2022-06-21T12:24:59Z</time>
      </trkpt>
      <trkpt lat="43.43976" lon="2.63402">
        <ele>845.1</ele>
        <time>2022-06-21T12:25:00Z</time>
      </trkpt>
      <trkpt lat="43.43976" lon="2.63402">
        <ele>845.1</ele>
        <time>2022-06-21T12:25:01Z</time>
      </trkpt>
      <trkpt lat="43.43976" lon="2.63402">
        <ele>845.1</ele>
        <time>2022-06-21T12:25:02Z</time>
      </trkpt>
      <trkpt lat="43.43976" lon="2.63402">
        <ele>845.1</ele>
        <time>2022-06-21T12:25:03Z</time>
      </trkpt>
      <trkpt lat="43.43976" lon="2.63402">
        <ele>845.1</ele>
        <time>2022-06-21T12:25:04Z</time>
      </trkpt>
      <trkpt lat="43.43976" lon="2.63402">
        <ele>845.1</ele>
        <time>2022-06-21T12:25:05Z</time>
      </trkpt>
      <trkpt lat="43.43976" lon="2.63402">
        <ele>845.1</ele>
        <time>2022-06-21T12:25:06Z</time>
      </trkpt>
      <trkpt lat="43.43976" lon="2.63402">
        <ele>845.1</ele>
        <time>2022-06-21T12:25:07Z</time>
      </trkpt>
      <trkpt lat="43.43976" lon="2.63402">
        <ele>845.1</ele>
        <time>2022-06-21T12:25:08Z</time>
      </trkpt>
      <trkpt lat="43.43976" lon="2.63402">
        <ele>845.1</ele>
        <time>2022-06-21T12:25:09Z</time>
      </trkpt>
      <trkpt lat="43.43976" lon="2.63402">
        <ele>845.1</ele>
        <time>2022-06-21T12:25:10Z</time>
      </trkpt>
      <trkpt lat="43.43976" lon="2.63402">
        <ele>845.1</ele>
        <time>2022-06-21T12:25:11Z</time>
      </trkpt>
      <trkpt lat="43.43976" lon="2.63402">
        <ele>845.1</ele>
        <time>2022-06-21T12:25:12Z</time>
      </trkpt>
      <trkpt lat="43.43976" lon="2.63402">
        <ele>845.1</ele>
        <time>2022-06-21T12:25:13Z</time>
      </trkpt>
      <trkpt lat="43.43976" lon="2.63402">
        <ele>845.1</ele>
        <time>2022-06-21T12:25:14Z</time>
      </trkpt>
      <trkpt lat="43.43976" lon="2.63402">
        <ele>845.1</ele>
        <time>2022-06-21T12:25:15Z</time>
      </trkpt>
      <trkpt lat="43.43976" lon="2.63402">
        <ele>845.1</ele>
        <time>2022-06-21T12:25:16Z</time>
      </trkpt>
      <trkpt lat="43.43976" lon="2.63402">
        <ele>845.1</ele>
        <time>2022-06-21T12:25:17Z</time>
      </trkpt>
      <trkpt lat="43.43976" lon="2.63402">
        <ele>845.1</ele>
        <time>2022-06-21T12:25:18Z</time>
      </trkpt>
      <trkpt lat="43.43976" lon="2.63402">
        <ele>845.1</ele>
        <time>2022-06-21T12:25:19Z</time>
      </trkpt>
      <trkpt lat="43.43976" lon="2.63402">
        <ele>845.1</ele>
        <time>2022-06-21T12:25:20Z</time>
      </trkpt>
      <trkpt lat="43.43976" lon="2.63402">
        <ele>845.1</ele>
        <time>2022-06-21T12:25:21Z</time>
      </trkpt>
      <trkpt lat="43.43976" lon="2.63402">
        <ele>845.1</ele>
        <time>2022-06-21T12:25:22Z</time>
      </trkpt>
      <trkpt lat="43.43976" lon="2.63402">
        <ele>845.1</ele>
        <time>2022-06-21T12:25:23Z</time>
      </trkpt>
      <trkpt lat="43.43976" lon="2.63402">
        <ele>845.1</ele>
        <time>2022-06-21T12:25:24Z</time>
      </trkpt>
      <trkpt lat="43.43976" lon="2.63402">
        <ele>845.1</ele>
        <time>2022-06-21T12:25:25Z</time>
      </trkpt>
      <trkpt lat="43.43976" lon="2.63402">
        <ele>845.1</ele>
        <time>2022-06-21T12:25:26Z</time>
      </trkpt>
      <trkpt lat="43.43976" lon="2.63402">
        <ele>845.1</ele>
        <time>2022-06-21T12:25:27Z</time>
      </trkpt>
      <trkpt lat="43.43976" lon="2.63402">
        <ele>845.1</ele>
        <time>2022-06-21T12:25:28Z</time>
      </trkpt>
      <trkpt lat="43.43976" lon="2.63402">
        <ele>845.1</ele>
        <time>2022-06-21T12:25:29Z</time>
      </trkpt>
      <trkpt lat="43.43976" lon="2.63402">
        <ele>845.1</ele>
        <time>2022-06-21T12:25:30Z</time>
      </trkpt>
      <trkpt lat="43.43976" lon="2.63402">
        <ele>845.1</ele>
        <time>2022-06-21T12:25:31Z</time>
      </trkpt>
      <trkpt lat="43.43976" lon="2.63402">
        <ele>845.1</ele>
        <time>2022-06-21T12:25:32Z</time>
      </trkpt>
      <trkpt lat="43.43976" lon="2.63402">
        <ele>845.1</ele>
        <time>2022-06-21T12:25:33Z</time>
      </trkpt>
      <trkpt lat="43.43976" lon="2.63402">
        <ele>845.1</ele>
        <time>2022-06-21T12:25:34Z</time>
      </trkpt>
      <trkpt lat="43.43976" lon="2.63402">
        <ele>845.1</ele>
        <time>2022-06-21T12:25:35Z</time>
      </trkpt>
      <trkpt lat="43.43976" lon="2.63402">
        <ele>845.1</ele>
        <time>2022-06-21T12:25:36Z</time>
      </trkpt>
      <trkpt lat="43.43976" lon="2.63402">
        <ele>845.1</ele>
        <time>2022-06-21T12:25:37Z</time>
      </trkpt>
      <trkpt lat="43.43976" lon="2.63402">
        <ele>845.1</ele>
        <time>2022-06-21T12:25:38Z</time>
      </trkpt>
      <trkpt lat="43.43976" lon="2.63402">
        <ele>845.1</ele>
        <time>2022-06-21T12:25:39Z</time>
      </trkpt>
      <trkpt lat="43.43976" lon="2.63402">
        <ele>845.1</ele>
        <time>2022-06-21T12:25:40Z</time>
      </trkpt>
      <trkpt lat="43.43976" lon="2.63402">
        <ele>845.1</ele>
        <time>2022-06-21T12:25:41Z</time>
      </trkpt>
      <trkpt lat="43.43976" lon="2.63402">
        <ele>845.1</ele>
        <time>2022-06-21T12:25:42Z</time>
      </trkpt>
      <trkpt lat="43.43976" lon="2.63402">
        <ele>845.1</ele>
        <time>2022-06-21T12:25:43Z</time>
      </trkpt>
      <trkpt lat="43.43976" lon="2.63402">
        <ele>845.1</ele>
        <time>2022-06-21T12:25:44Z</time>
      </trkpt>
      <trkpt lat="43.43976" lon="2.63402">
        <ele>845.1</ele>
        <time>2022-06-21T12:25:45Z</time>
      </trkpt>
      <trkpt lat="43.43976" lon="2.63402">
        <ele>845.1</ele>
        <time>2022-06-21T12:25:46Z</time>
      </trkpt>
      <trkpt lat="43.43976" lon="2.63402">
        <ele>845.1</ele>
        <time>2022-06-21T12:25:47Z</time>
      </trkpt>
      <trkpt lat="43.43976" lon="2.63402">
        <ele>845.1</ele>
        <time>2022-06-21T12:25:48Z</time>
      </trkpt>
      <trkpt lat="43.43976" lon="2.63402">
        <ele>845.1</ele>
        <time>2022-06-21T12:25:49Z</time>
      </trkpt>
      <trkpt lat="43.43976" lon="2.63403">
        <ele>845.2</ele>
        <time>2022-06-21T12:25:50Z</time>
      </trkpt>
      <trkpt lat="43.43976" lon="2.63403">
        <ele>845.3</ele>
        <time>2022-06-21T12:25:51Z</time>
      </trkpt>
      <trkpt lat="43.43975" lon="2.63403">
        <ele>845.3</ele>
        <time>2022-06-21T12:25:52Z</time>
      </trkpt>
      <trkpt lat="43.43976" lon="2.63403">
        <ele>845.4</ele>
        <time>2022-06-21T12:25:53Z</time>
      </trkpt>
      <trkpt lat="43.43976" lon="2.63402">
        <ele>845.4</ele>
        <time>2022-06-21T12:25:54Z</time>
      </trkpt>
      <trkpt lat="43.43976" lon="2.63401">
        <ele>845.5</ele>
        <time>2022-06-21T12:25:55Z</time>
      </trkpt>
      <trkpt lat="43.43976" lon="2.63401">
        <ele>845.6</ele>
        <time>2022-06-21T12:25:56Z</time>
      </trkpt>
      <trkpt lat="43.43976" lon="2.63401">
        <ele>845.6</ele>
        <time>2022-06-21T12:25:57Z</time>
      </trkpt>
      <trkpt lat="43.43975" lon="2.63401">
        <ele>845.6</ele>
        <time>2022-06-21T12:25:58Z</time>
      </trkpt>
      <trkpt lat="43.43975" lon="2.63401">
        <ele>845.6</ele>
        <time>2022-06-21T12:25:59Z</time>
      </trkpt>
      <trkpt lat="43.43975" lon="2.63401">
        <ele>845.6</ele>
        <time>2022-06-21T12:26:00Z</time>
      </trkpt>
      <trkpt lat="43.43976" lon="2.63401">
        <ele>845.6</ele>
        <time>2022-06-21T12:26:01Z</time>
      </trkpt>
      <trkpt lat="43.43976" lon="2.634">
        <ele>845.7</ele>
        <time>2022-06-21T12:26:02Z</time>
      </trkpt>
      <trkpt lat="43.43976" lon="2.63399">
        <ele>845.8</ele>
        <time>2022-06-21T12:26:03Z</time>
      </trkpt>
      <trkpt lat="43.43976" lon="2.63399">
        <ele>845.9</ele>
        <time>2022-06-21T12:26:04Z</time>
      </trkpt>
      <trkpt lat="43.43976" lon="2.63398">
        <ele>845.9</ele>
        <time>2022-06-21T12:26:05Z</time>
      </trkpt>
      <trkpt lat="43.43977" lon="2.63398">
        <ele>845.9</ele>
        <time>2022-06-21T12:26:06Z</time>
      </trkpt>
      <trkpt lat="43.43977" lon="2.63398">
        <ele>846</ele>
        <time>2022-06-21T12:26:07Z</time>
      </trkpt>
      <trkpt lat="43.43977" lon="2.63398">
        <ele>846</ele>
        <time>2022-06-21T12:26:08Z</time>
      </trkpt>
      <trkpt lat="43.43977" lon="2.63398">
        <ele>846.1</ele>
        <time>2022-06-21T12:26:09Z</time>
      </trkpt>
      <trkpt lat="43.43978" lon="2.63398">
        <ele>846.1</ele>
        <time>2022-06-21T12:26:10Z</time>
      </trkpt>
      <trkpt lat="43.43978" lon="2.63398">
        <ele>846.2</ele>
        <time>2022-06-21T12:26:11Z</time>
      </trkpt>
      <trkpt lat="43.43978" lon="2.63397">
        <ele>846.2</ele>
        <time>2022-06-21T12:26:12Z</time>
      </trkpt>
      <trkpt lat="43.43979" lon="2.63397">
        <ele>846.3</ele>
        <time>2022-06-21T12:26:13Z</time>
      </trkpt>
      <trkpt lat="43.43979" lon="2.63397">
        <ele>846.3</ele>
        <time>2022-06-21T12:26:14Z</time>
      </trkpt>
      <trkpt lat="43.43979" lon="2.63397">
        <ele>846.3</ele>
        <time>2022-06-21T12:26:15Z</time>
      </trkpt>
      <trkpt lat="43.4398" lon="2.63396">
        <ele>846.5</ele>
        <time>2022-06-21T12:26:16Z</time>
      </trkpt>
      <trkpt lat="43.43981" lon="2.63395">
        <ele>846.7</ele>
        <time>2022-06-21T12:26:17Z</time>
      </trkpt>
      <trkpt lat="43.43982" lon="2.63395">
        <ele>846.8</ele>
        <time>2022-06-21T12:26:18Z</time>
      </trkpt>
      <trkpt lat="43.43983" lon="2.63394">
        <ele>847</ele>
        <time>2022-06-21T12:26:19Z</time>
      </trkpt>
      <trkpt lat="43.43984" lon="2.63394">
        <ele>847.1</ele>
        <time>2022-06-21T12:26:20Z</time>
      </trkpt>
      <trkpt lat="43.43984" lon="2.63394">
        <ele>847.1</ele>
        <time>2022-06-21T12:26:21Z</time>
      </trkpt>
      <trkpt lat="43.43985" lon="2.63394">
        <ele>847.2</ele>
        <time>2022-06-21T12:26:22Z</time>
      </trkpt>
      <trkpt lat="43.43986" lon="2.63394">
        <ele>847.4</ele>
        <time>2022-06-21T12:26:23Z</time>
      </trkpt>
      <trkpt lat="43.43987" lon="2.63394">
        <ele>847.5</ele>
        <time>2022-06-21T12:26:24Z</time>
      </trkpt>
      <trkpt lat="43.43987" lon="2.63394">
        <ele>847.5</ele>
        <time>2022-06-21T12:26:25Z</time>
      </trkpt>
      <trkpt lat="43.43987" lon="2.63394">
        <ele>847.5</ele>
        <time>2022-06-21T12:26:26Z</time>
      </trkpt>
      <trkpt lat="43.43987" lon="2.63394">
        <ele>847.6</ele>
        <time>2022-06-21T12:26:27Z</time>
      </trkpt>
      <trkpt lat="43.43988" lon="2.63394">
        <ele>847.6</ele>
        <time>2022-06-21T12:26:28Z</time>
      </trkpt>
      <trkpt lat="43.43989" lon="2.63393">
        <ele>847.8</ele>
        <time>2022-06-21T12:26:29Z</time>
      </trkpt>
      <trkpt lat="43.4399" lon="2.63393">
        <ele>848</ele>
        <time>2022-06-21T12:26:30Z</time>
      </trkpt>
      <trkpt lat="43.43991" lon="2.63392">
        <ele>848.2</ele>
        <time>2022-06-21T12:26:31Z</time>
      </trkpt>
      <trkpt lat="43.43992" lon="2.63391">
        <ele>848.4</ele>
        <time>2022-06-21T12:26:32Z</time>
      </trkpt>
      <trkpt lat="43.43993" lon="2.63388">
        <ele>848.7</ele>
        <time>2022-06-21T12:26:33Z</time>
      </trkpt>
      <trkpt lat="43.43994" lon="2.63388">
        <ele>848.8</ele>
        <time>2022-06-21T12:26:34Z</time>
      </trkpt>
      <trkpt lat="43.43994" lon="2.63387">
        <ele>848.9</ele>
        <time>2022-06-21T12:26:35Z</time>
      </trkpt>
      <trkpt lat="43.43995" lon="2.63387">
        <ele>849</ele>
        <time>2022-06-21T12:26:36Z</time>
      </trkpt>
      <trkpt lat="43.43996" lon="2.63386">
        <ele>849.2</ele>
        <time>2022-06-21T12:26:37Z</time>
      </trkpt>
      <trkpt lat="43.43997" lon="2.63386">
        <ele>849.4</ele>
        <time>2022-06-21T12:26:38Z</time>
      </trkpt>
      <trkpt lat="43.43998" lon="2.63386">
        <ele>849.5</ele>
        <time>2022-06-21T12:26:39Z</time>
      </trkpt>
      <trkpt lat="43.43999" lon="2.63386">
        <ele>849.6</ele>
        <time>2022-06-21T12:26:40Z</time>
      </trkpt>
      <trkpt lat="43.43999" lon="2.63386">
        <ele>849.7</ele>
        <time>2022-06-21T12:26:41Z</time>
      </trkpt>
      <trkpt lat="43.44" lon="2.63386">
        <ele>849.8</ele>
        <time>2022-06-21T12:26:42Z</time>
      </trkpt>
      <trkpt lat="43.44" lon="2.63386">
        <ele>849.8</ele>
        <time>2022-06-21T12:26:43Z</time>
      </trkpt>
      <trkpt lat="43.44" lon="2.63386">
        <ele>849.8</ele>
        <time>2022-06-21T12:26:44Z</time>
      </trkpt>
      <trkpt lat="43.44" lon="2.63386">
        <ele>849.9</ele>
        <time>2022-06-21T12:26:45Z</time>
      </trkpt>
      <trkpt lat="43.44001" lon="2.63386">
        <ele>850</ele>
        <time>2022-06-21T12:26:46Z</time>
      </trkpt>
      <trkpt lat="43.44002" lon="2.63386">
        <ele>850.2</ele>
        <time>2022-06-21T12:26:47Z</time>
      </trkpt>
      <trkpt lat="43.44004" lon="2.63386">
        <ele>850.4</ele>
        <time>2022-06-21T12:26:48Z</time>
      </trkpt>
      <trkpt lat="43.44004" lon="2.63386">
        <ele>850.5</ele>
        <time>2022-06-21T12:26:49Z</time>
      </trkpt>
      <trkpt lat="43.44005" lon="2.63386">
        <ele>850.6</ele>
        <time>2022-06-21T12:26:50Z</time>
      </trkpt>
      <trkpt lat="43.44005" lon="2.63386">
        <ele>850.6</ele>
        <time>2022-06-21T12:26:51Z</time>
      </trkpt>
      <trkpt lat="43.44005" lon="2.63386">
        <ele>850.7</ele>
        <time>2022-06-21T12:26:52Z</time>
      </trkpt>
      <trkpt lat="43.44006" lon="2.63386">
        <ele>850.8</ele>
        <time>2022-06-21T12:26:53Z</time>
      </trkpt>
      <trkpt lat="43.44006" lon="2.63386">
        <ele>850.8</ele>
        <time>2022-06-21T12:26:54Z</time>
      </trkpt>
      <trkpt lat="43.44007" lon="2.63385">
        <ele>850.9</ele>
        <time>2022-06-21T12:26:55Z</time>
      </trkpt>
      <trkpt lat="43.44008" lon="2.63385">
        <ele>851.1</ele>
        <time>2022-06-21T12:26:56Z</time>
      </trkpt>
      <trkpt lat="43.4401" lon="2.63384">
        <ele>851.4</ele>
        <time>2022-06-21T12:26:57Z</time>
      </trkpt>
      <trkpt lat="43.44012" lon="2.63384">
        <ele>851.7</ele>
        <time>2022-06-21T12:26:58Z</time>
      </trkpt>
      <trkpt lat="43.44012" lon="2.63383">
        <ele>851.7</ele>
        <time>2022-06-21T12:26:59Z</time>
      </trkpt>
      <trkpt lat="43.44013" lon="2.63383">
        <ele>851.8</ele>
        <time>2022-06-21T12:27:00Z</time>
      </trkpt>
      <trkpt lat="43.44014" lon="2.63383">
        <ele>851.9</ele>
        <time>2022-06-21T12:27:01Z</time>
      </trkpt>
      <trkpt lat="43.44015" lon="2.63382">
        <ele>852.1</ele>
        <time>2022-06-21T12:27:02Z</time>
      </trkpt>
      <trkpt lat="43.44017" lon="2.63382">
        <ele>852.3</ele>
        <time>2022-06-21T12:27:03Z</time>
      </trkpt>
      <trkpt lat="43.44017" lon="2.63382">
        <ele>852.3</ele>
        <time>2022-06-21T12:27:04Z</time>
      </trkpt>
      <trkpt lat="43.44017" lon="2.63382">
        <ele>852.3</ele>
        <time>2022-06-21T12:27:05Z</time>
      </trkpt>
      <trkpt lat="43.44017" lon="2.63382">
        <ele>852.4</ele>
        <time>2022-06-21T12:27:06Z</time>
      </trkpt>
      <trkpt lat="43.44017" lon="2.63382">
        <ele>852.4</ele>
        <time>2022-06-21T12:27:07Z</time>
      </trkpt>
      <trkpt lat="43.44017" lon="2.63382">
        <ele>852.4</ele>
        <time>2022-06-21T12:27:08Z</time>
      </trkpt>
      <trkpt lat="43.44017" lon="2.63382">
        <ele>852.4</ele>
        <time>2022-06-21T12:27:09Z</time>
      </trkpt>
      <trkpt lat="43.44017" lon="2.63382">
        <ele>852.4</ele>
        <time>2022-06-21T12:27:10Z</time>
      </trkpt>
      <trkpt lat="43.44017" lon="2.63382">
        <ele>852.4</ele>
        <time>2022-06-21T12:27:11Z</time>
      </trkpt>
      <trkpt lat="43.44017" lon="2.63382">
        <ele>852.4</ele>
        <time>2022-06-21T12:27:12Z</time>
      </trkpt>
      <trkpt lat="43.44017" lon="2.63382">
        <ele>852.4</ele>
        <time>2022-06-21T12:27:13Z</time>
      </trkpt>
      <trkpt lat="43.44017" lon="2.63382">
        <ele>852.4</ele>
        <time>2022-06-21T12:27:14Z</time>
      </trkpt>
      <trkpt lat="43.44017" lon="2.63382">
        <ele>852.4</ele>
        <time>2022-06-21T12:27:15Z</time>
      </trkpt>
      <trkpt lat="43.44018" lon="2.63382">
        <ele>852.5</ele>
        <time>2022-06-21T12:27:16Z</time>
      </trkpt>
      <trkpt lat="43.4402" lon="2.63382">
        <ele>852.7</ele>
        <time>2022-06-21T12:27:17Z</time>
      </trkpt>
      <trkpt lat="43.44024" lon="2.63382">
        <ele>853</ele>
        <time>2022-06-21T12:27:18Z</time>
      </trkpt>
      <trkpt lat="43.44025" lon="2.63382">
        <ele>853.1</ele>
        <time>2022-06-21T12:27:19Z</time>
      </trkpt>
      <trkpt lat="43.44028" lon="2.63382">
        <ele>853.3</ele>
        <time>2022-06-21T12:27:20Z</time>
      </trkpt>
      <trkpt lat="43.44031" lon="2.63382">
        <ele>853.6</ele>
        <time>2022-06-21T12:27:21Z</time>
      </trkpt>
      <trkpt lat="43.44033" lon="2.63382">
        <ele>853.6</ele>
        <time>2022-06-21T12:27:22Z</time>
      </trkpt>
      <trkpt lat="43.44036" lon="2.63381">
        <ele>853.9</ele>
        <time>2022-06-21T12:27:23Z</time>
      </trkpt>
      <trkpt lat="43.44038" lon="2.6338">
        <ele>854</ele>
        <time>2022-06-21T12:27:24Z</time>
      </trkpt>
      <trkpt lat="43.44039" lon="2.6338">
        <ele>854</ele>
        <time>2022-06-21T12:27:25Z</time>
      </trkpt>
      <trkpt lat="43.44041" lon="2.63379">
        <ele>854.1</ele>
        <time>2022-06-21T12:27:26Z</time>
      </trkpt>
      <trkpt lat="43.44042" lon="2.63379">
        <ele>854.2</ele>
        <time>2022-06-21T12:27:27Z</time>
      </trkpt>
      <trkpt lat="43.44043" lon="2.63378">
        <ele>854.3</ele>
        <time>2022-06-21T12:27:28Z</time>
      </trkpt>
      <trkpt lat="43.44044" lon="2.63378">
        <ele>854.3</ele>
        <time>2022-06-21T12:27:29Z</time>
      </trkpt>
      <trkpt lat="43.44044" lon="2.63378">
        <ele>854.4</ele>
        <time>2022-06-21T12:27:30Z</time>
      </trkpt>
      <trkpt lat="43.44046" lon="2.63377">
        <ele>854.5</ele>
        <time>2022-06-21T12:27:31Z</time>
      </trkpt>
      <trkpt lat="43.44046" lon="2.63376">
        <ele>854.5</ele>
        <time>2022-06-21T12:27:32Z</time>
      </trkpt>
      <trkpt lat="43.44047" lon="2.63376">
        <ele>854.6</ele>
        <time>2022-06-21T12:27:33Z</time>
      </trkpt>
      <trkpt lat="43.44048" lon="2.63375">
        <ele>854.6</ele>
        <time>2022-06-21T12:27:34Z</time>
      </trkpt>
      <trkpt lat="43.44049" lon="2.63374">
        <ele>854.7</ele>
        <time>2022-06-21T12:27:35Z</time>
      </trkpt>
      <trkpt lat="43.4405" lon="2.63373">
        <ele>854.8</ele>
        <time>2022-06-21T12:27:36Z</time>
      </trkpt>
      <trkpt lat="43.44051" lon="2.63372">
        <ele>854.8</ele>
        <time>2022-06-21T12:27:37Z</time>
      </trkpt>
      <trkpt lat="43.44051" lon="2.63371">
        <ele>854.9</ele>
        <time>2022-06-21T12:27:38Z</time>
      </trkpt>
      <trkpt lat="43.44052" lon="2.63371">
        <ele>854.9</ele>
        <time>2022-06-21T12:27:39Z</time>
      </trkpt>
      <trkpt lat="43.44053" lon="2.63371">
        <ele>855</ele>
        <time>2022-06-21T12:27:40Z</time>
      </trkpt>
      <trkpt lat="43.44054" lon="2.63371">
        <ele>855</ele>
        <time>2022-06-21T12:27:41Z</time>
      </trkpt>
      <trkpt lat="43.44056" lon="2.6337">
        <ele>855.1</ele>
        <time>2022-06-21T12:27:42Z</time>
      </trkpt>
      <trkpt lat="43.44057" lon="2.63369">
        <ele>855.2</ele>
        <time>2022-06-21T12:27:43Z</time>
      </trkpt>
      <trkpt lat="43.44058" lon="2.63369">
        <ele>855.2</ele>
        <time>2022-06-21T12:27:44Z</time>
      </trkpt>
      <trkpt lat="43.44058" lon="2.63369">
        <ele>855.3</ele>
        <time>2022-06-21T12:27:45Z</time>
      </trkpt>
      <trkpt lat="43.44059" lon="2.63368">
        <ele>855.3</ele>
        <time>2022-06-21T12:27:46Z</time>
      </trkpt>
      <trkpt lat="43.4406" lon="2.63368">
        <ele>855.4</ele>
        <time>2022-06-21T12:27:47Z</time>
      </trkpt>
      <trkpt lat="43.44061" lon="2.63368">
        <ele>855.4</ele>
        <time>2022-06-21T12:27:48Z</time>
      </trkpt>
      <trkpt lat="43.44062" lon="2.63368">
        <ele>855.5</ele>
        <time>2022-06-21T12:27:49Z</time>
      </trkpt>
      <trkpt lat="43.44063" lon="2.63367">
        <ele>855.6</ele>
        <time>2022-06-21T12:27:50Z</time>
      </trkpt>
      <trkpt lat="43.44064" lon="2.63367">
        <ele>855.6</ele>
        <time>2022-06-21T12:27:51Z</time>
      </trkpt>
      <trkpt lat="43.44066" lon="2.63367">
        <ele>855.7</ele>
        <time>2022-06-21T12:27:52Z</time>
      </trkpt>
      <trkpt lat="43.44067" lon="2.63367">
        <ele>855.8</ele>
        <time>2022-06-21T12:27:53Z</time>
      </trkpt>
      <trkpt lat="43.44067" lon="2.63367">
        <ele>855.8</ele>
        <time>2022-06-21T12:27:54Z</time>
      </trkpt>
      <trkpt lat="43.44069" lon="2.63367">
        <ele>855.7</ele>
        <time>2022-06-21T12:27:55Z</time>
      </trkpt>
      <trkpt lat="43.4407" lon="2.63366">
        <ele>855.7</ele>
        <time>2022-06-21T12:27:56Z</time>
      </trkpt>
      <trkpt lat="43.44071" lon="2.63367">
        <ele>855.7</ele>
        <time>2022-06-21T12:27:57Z</time>
      </trkpt>
      <trkpt lat="43.44072" lon="2.63367">
        <ele>855.7</ele>
        <time>2022-06-21T12:27:58Z</time>
      </trkpt>
      <trkpt lat="43.44074" lon="2.63367">
        <ele>855.6</ele>
        <time>2022-06-21T12:27:59Z</time>
      </trkpt>
      <trkpt lat="43.44075" lon="2.63367">
        <ele>855.6</ele>
        <time>2022-06-21T12:28:00Z</time>
      </trkpt>
      <trkpt lat="43.44076" lon="2.63367">
        <ele>855.6</ele>
        <time>2022-06-21T12:28:01Z</time>
      </trkpt>
      <trkpt lat="43.44076" lon="2.63368">
        <ele>855.6</ele>
        <time>2022-06-21T12:28:02Z</time>
      </trkpt>
      <trkpt lat="43.44077" lon="2.63368">
        <ele>855.6</ele>
        <time>2022-06-21T12:28:03Z</time>
      </trkpt>
      <trkpt lat="43.44079" lon="2.63368">
        <ele>855.5</ele>
        <time>2022-06-21T12:28:04Z</time>
      </trkpt>
      <trkpt lat="43.4408" lon="2.63369">
        <ele>855.5</ele>
        <time>2022-06-21T12:28:05Z</time>
      </trkpt>
      <trkpt lat="43.4408" lon="2.63369">
        <ele>855.5</ele>
        <time>2022-06-21T12:28:06Z</time>
      </trkpt>
      <trkpt lat="43.44081" lon="2.63369">
        <ele>855.5</ele>
        <time>2022-06-21T12:28:07Z</time>
      </trkpt>
      <trkpt lat="43.44082" lon="2.6337">
        <ele>855.5</ele>
        <time>2022-06-21T12:28:08Z</time>
      </trkpt>
      <trkpt lat="43.44082" lon="2.6337">
        <ele>855.5</ele>
        <time>2022-06-21T12:28:09Z</time>
      </trkpt>
      <trkpt lat="43.44083" lon="2.6337">
        <ele>855.5</ele>
        <time>2022-06-21T12:28:10Z</time>
      </trkpt>
      <trkpt lat="43.44083" lon="2.63371">
        <ele>855.5</ele>
        <time>2022-06-21T12:28:11Z</time>
      </trkpt>
      <trkpt lat="43.44084" lon="2.63371">
        <ele>855.5</ele>
        <time>2022-06-21T12:28:12Z</time>
      </trkpt>
      <trkpt lat="43.44085" lon="2.63371">
        <ele>855.5</ele>
        <time>2022-06-21T12:28:13Z</time>
      </trkpt>
      <trkpt lat="43.44085" lon="2.63371">
        <ele>855.5</ele>
        <time>2022-06-21T12:28:14Z</time>
      </trkpt>
      <trkpt lat="43.44086" lon="2.63372">
        <ele>855.4</ele>
        <time>2022-06-21T12:28:15Z</time>
      </trkpt>
      <trkpt lat="43.44087" lon="2.63372">
        <ele>855.4</ele>
        <time>2022-06-21T12:28:16Z</time>
      </trkpt>
      <trkpt lat="43.44087" lon="2.63373">
        <ele>855.4</ele>
        <time>2022-06-21T12:28:17Z</time>
      </trkpt>
      <trkpt lat="43.44088" lon="2.63374">
        <ele>855.4</ele>
        <time>2022-06-21T12:28:18Z</time>
      </trkpt>
      <trkpt lat="43.44089" lon="2.63374">
        <ele>855.4</ele>
        <time>2022-06-21T12:28:19Z</time>
      </trkpt>
      <trkpt lat="43.44089" lon="2.63375">
        <ele>855.4</ele>
        <time>2022-06-21T12:28:20Z</time>
      </trkpt>
      <trkpt lat="43.4409" lon="2.63375">
        <ele>855.4</ele>
        <time>2022-06-21T12:28:21Z</time>
      </trkpt>
      <trkpt lat="43.44091" lon="2.63375">
        <ele>855.4</ele>
        <time>2022-06-21T12:28:22Z</time>
      </trkpt>
      <trkpt lat="43.44092" lon="2.63375">
        <ele>855.4</ele>
        <time>2022-06-21T12:28:23Z</time>
      </trkpt>
      <trkpt lat="43.44093" lon="2.63375">
        <ele>855.3</ele>
        <time>2022-06-21T12:28:24Z</time>
      </trkpt>
      <trkpt lat="43.44095" lon="2.63376">
        <ele>855.3</ele>
        <time>2022-06-21T12:28:25Z</time>
      </trkpt>
      <trkpt lat="43.44096" lon="2.63376">
        <ele>855.3</ele>
        <time>2022-06-21T12:28:26Z</time>
      </trkpt>
      <trkpt lat="43.44097" lon="2.63377">
        <ele>855.3</ele>
        <time>2022-06-21T12:28:27Z</time>
      </trkpt>
      <trkpt lat="43.44098" lon="2.63377">
        <ele>855.3</ele>
        <time>2022-06-21T12:28:28Z</time>
      </trkpt>
      <trkpt lat="43.44099" lon="2.63377">
        <ele>855.3</ele>
        <time>2022-06-21T12:28:29Z</time>
      </trkpt>
      <trkpt lat="43.44099" lon="2.63376">
        <ele>855.3</ele>
        <time>2022-06-21T12:28:30Z</time>
      </trkpt>
      <trkpt lat="43.44101" lon="2.63376">
        <ele>855.3</ele>
        <time>2022-06-21T12:28:31Z</time>
      </trkpt>
      <trkpt lat="43.44101" lon="2.63376">
        <ele>855.2</ele>
        <time>2022-06-21T12:28:32Z</time>
      </trkpt>
      <trkpt lat="43.44102" lon="2.63376">
        <ele>855.2</ele>
        <time>2022-06-21T12:28:33Z</time>
      </trkpt>
      <trkpt lat="43.44102" lon="2.63376">
        <ele>855.2</ele>
        <time>2022-06-21T12:28:34Z</time>
      </trkpt>
      <trkpt lat="43.44102" lon="2.63376">
        <ele>855.2</ele>
        <time>2022-06-21T12:28:35Z</time>
      </trkpt>
      <trkpt lat="43.44103" lon="2.63377">
        <ele>855.2</ele>
        <time>2022-06-21T12:28:36Z</time>
      </trkpt>
      <trkpt lat="43.44104" lon="2.63377">
        <ele>855.2</ele>
        <time>2022-06-21T12:28:37Z</time>
      </trkpt>
      <trkpt lat="43.44104" lon="2.63377">
        <ele>855.2</ele>
        <time>2022-06-21T12:28:38Z</time>
      </trkpt>
      <trkpt lat="43.44104" lon="2.63377">
        <ele>855.2</ele>
        <time>2022-06-21T12:28:39Z</time>
      </trkpt>
      <trkpt lat="43.44104" lon="2.63377">
        <ele>855.2</ele>
        <time>2022-06-21T12:28:40Z</time>
      </trkpt>
      <trkpt lat="43.44105" lon="2.63377">
        <ele>855.2</ele>
        <time>2022-06-21T12:28:41Z</time>
      </trkpt>
      <trkpt lat="43.44107" lon="2.63378">
        <ele>855.2</ele>
        <time>2022-06-21T12:28:42Z</time>
      </trkpt>
      <trkpt lat="43.44108" lon="2.63379">
        <ele>855.2</ele>
        <time>2022-06-21T12:28:43Z</time>
      </trkpt>
      <trkpt lat="43.44109" lon="2.63379">
        <ele>855.1</ele>
        <time>2022-06-21T12:28:44Z</time>
      </trkpt>
      <trkpt lat="43.4411" lon="2.6338">
        <ele>855.1</ele>
        <time>2022-06-21T12:28:45Z</time>
      </trkpt>
      <trkpt lat="43.44111" lon="2.6338">
        <ele>855.1</ele>
        <time>2022-06-21T12:28:46Z</time>
      </trkpt>
      <trkpt lat="43.44111" lon="2.63381">
        <ele>855.1</ele>
        <time>2022-06-21T12:28:47Z</time>
      </trkpt>
      <trkpt lat="43.44112" lon="2.63381">
        <ele>855.1</ele>
        <time>2022-06-21T12:28:48Z</time>
      </trkpt>
      <trkpt lat="43.44112" lon="2.63381">
        <ele>855.1</ele>
        <time>2022-06-21T12:28:49Z</time>
      </trkpt>
      <trkpt lat="43.44112" lon="2.63381">
        <ele>855.1</ele>
        <time>2022-06-21T12:28:50Z</time>
      </trkpt>
      <trkpt lat="43.44113" lon="2.63381">
        <ele>855.1</ele>
        <time>2022-06-21T12:28:51Z</time>
      </trkpt>
      <trkpt lat="43.44113" lon="2.63382">
        <ele>855.1</ele>
        <time>2022-06-21T12:28:52Z</time>
      </trkpt>
      <trkpt lat="43.44113" lon="2.63382">
        <ele>855.1</ele>
        <time>2022-06-21T12:28:53Z</time>
      </trkpt>
      <trkpt lat="43.44114" lon="2.63382">
        <ele>855.1</ele>
        <time>2022-06-21T12:28:54Z</time>
      </trkpt>
      <trkpt lat="43.44114" lon="2.63382">
        <ele>855.1</ele>
        <time>2022-06-21T12:28:55Z</time>
      </trkpt>
      <trkpt lat="43.44114" lon="2.63382">
        <ele>855.1</ele>
        <time>2022-06-21T12:28:56Z</time>
      </trkpt>
      <trkpt lat="43.44115" lon="2.63383">
        <ele>855.1</ele>
        <time>2022-06-21T12:28:57Z</time>
      </trkpt>
      <trkpt lat="43.44115" lon="2.63383">
        <ele>855.1</ele>
        <time>2022-06-21T12:28:58Z</time>
      </trkpt>
      <trkpt lat="43.44119" lon="2.63385">
        <ele>855</ele>
        <time>2022-06-21T12:28:59Z</time>
      </trkpt>
      <trkpt lat="43.4412" lon="2.63385">
        <ele>855</ele>
        <time>2022-06-21T12:29:00Z</time>
      </trkpt>
      <trkpt lat="43.44123" lon="2.63387">
        <ele>855</ele>
        <time>2022-06-21T12:29:01Z</time>
      </trkpt>
      <trkpt lat="43.44127" lon="2.63389">
        <ele>854.9</ele>
        <time>2022-06-21T12:29:02Z</time>
      </trkpt>
      <trkpt lat="43.4413" lon="2.6339">
        <ele>854.8</ele>
        <time>2022-06-21T12:29:03Z</time>
      </trkpt>
      <trkpt lat="43.4413" lon="2.6339">
        <ele>854.8</ele>
        <time>2022-06-21T12:29:04Z</time>
      </trkpt>
      <trkpt lat="43.44134" lon="2.63392">
        <ele>854.7</ele>
        <time>2022-06-21T12:29:05Z</time>
      </trkpt>
      <trkpt lat="43.44135" lon="2.63392">
        <ele>854.7</ele>
        <time>2022-06-21T12:29:06Z</time>
      </trkpt>
      <trkpt lat="43.44136" lon="2.63393">
        <ele>854.6</ele>
        <time>2022-06-21T12:29:07Z</time>
      </trkpt>
      <trkpt lat="43.44138" lon="2.63393">
        <ele>854.6</ele>
        <time>2022-06-21T12:29:08Z</time>
      </trkpt>
      <trkpt lat="43.44139" lon="2.63394">
        <ele>854.5</ele>
        <time>2022-06-21T12:29:09Z</time>
      </trkpt>
      <trkpt lat="43.4414" lon="2.63394">
        <ele>854.5</ele>
        <time>2022-06-21T12:29:10Z</time>
      </trkpt>
      <trkpt lat="43.4414" lon="2.63394">
        <ele>854.5</ele>
        <time>2022-06-21T12:29:11Z</time>
      </trkpt>
      <trkpt lat="43.44142" lon="2.63394">
        <ele>854.4</ele>
        <time>2022-06-21T12:29:12Z</time>
      </trkpt>
      <trkpt lat="43.44143" lon="2.63395">
        <ele>854.4</ele>
        <time>2022-06-21T12:29:13Z</time>
      </trkpt>
      <trkpt lat="43.44144" lon="2.63396">
        <ele>854.4</ele>
        <time>2022-06-21T12:29:14Z</time>
      </trkpt>
      <trkpt lat="43.44145" lon="2.63396">
        <ele>854.3</ele>
        <time>2022-06-21T12:29:15Z</time>
      </trkpt>
      <trkpt lat="43.44145" lon="2.63397">
        <ele>854.3</ele>
        <time>2022-06-21T12:29:16Z</time>
      </trkpt>
      <trkpt lat="43.44147" lon="2.63398">
        <ele>854.2</ele>
        <time>2022-06-21T12:29:17Z</time>
      </trkpt>
      <trkpt lat="43.44148" lon="2.63399">
        <ele>854.2</ele>
        <time>2022-06-21T12:29:18Z</time>
      </trkpt>
      <trkpt lat="43.44149" lon="2.634">
        <ele>854.2</ele>
        <time>2022-06-21T12:29:19Z</time>
      </trkpt>
      <trkpt lat="43.4415" lon="2.634">
        <ele>854.1</ele>
        <time>2022-06-21T12:29:20Z</time>
      </trkpt>
      <trkpt lat="43.44151" lon="2.634">
        <ele>854.1</ele>
        <time>2022-06-21T12:29:21Z</time>
      </trkpt>
      <trkpt lat="43.44152" lon="2.63401">
        <ele>854.1</ele>
        <time>2022-06-21T12:29:22Z</time>
      </trkpt>
      <trkpt lat="43.44154" lon="2.63401">
        <ele>854.1</ele>
        <time>2022-06-21T12:29:23Z</time>
      </trkpt>
      <trkpt lat="43.44155" lon="2.63401">
        <ele>854</ele>
        <time>2022-06-21T12:29:24Z</time>
      </trkpt>
      <trkpt lat="43.44155" lon="2.63401">
        <ele>854</ele>
        <time>2022-06-21T12:29:25Z</time>
      </trkpt>
      <trkpt lat="43.44156" lon="2.63401">
        <ele>854</ele>
        <time>2022-06-21T12:29:26Z</time>
      </trkpt>
      <trkpt lat="43.44157" lon="2.63402">
        <ele>854</ele>
        <time>2022-06-21T12:29:27Z</time>
      </trkpt>
      <trkpt lat="43.44158" lon="2.63402">
        <ele>854</ele>
        <time>2022-06-21T12:29:28Z</time>
      </trkpt>
      <trkpt lat="43.44159" lon="2.63402">
        <ele>854</ele>
        <time>2022-06-21T12:29:29Z</time>
      </trkpt>
      <trkpt lat="43.4416" lon="2.63403">
        <ele>854</ele>
        <time>2022-06-21T12:29:30Z</time>
      </trkpt>
      <trkpt lat="43.44161" lon="2.63403">
        <ele>853.9</ele>
        <time>2022-06-21T12:29:31Z</time>
      </trkpt>
      <trkpt lat="43.44162" lon="2.63403">
        <ele>853.9</ele>
        <time>2022-06-21T12:29:32Z</time>
      </trkpt>
      <trkpt lat="43.44163" lon="2.63404">
        <ele>853.9</ele>
        <time>2022-06-21T12:29:33Z</time>
      </trkpt>
      <trkpt lat="43.44164" lon="2.63404">
        <ele>853.9</ele>
        <time>2022-06-21T12:29:34Z</time>
      </trkpt>
      <trkpt lat="43.44165" lon="2.63404">
        <ele>853.9</ele>
        <time>2022-06-21T12:29:35Z</time>
      </trkpt>
      <trkpt lat="43.44166" lon="2.63404">
        <ele>853.9</ele>
        <time>2022-06-21T12:29:36Z</time>
      </trkpt>
      <trkpt lat="43.44166" lon="2.63405">
        <ele>853.9</ele>
        <time>2022-06-21T12:29:37Z</time>
      </trkpt>
      <trkpt lat="43.44167" lon="2.63405">
        <ele>853.9</ele>
        <time>2022-06-21T12:29:38Z</time>
      </trkpt>
      <trkpt lat="43.44168" lon="2.63404">
        <ele>853.9</ele>
        <time>2022-06-21T12:29:39Z</time>
      </trkpt>
      <trkpt lat="43.4417" lon="2.63404">
        <ele>853.9</ele>
        <time>2022-06-21T12:29:40Z</time>
      </trkpt>
      <trkpt lat="43.44171" lon="2.63404">
        <ele>853.9</ele>
        <time>2022-06-21T12:29:41Z</time>
      </trkpt>
      <trkpt lat="43.44172" lon="2.63404">
        <ele>853.9</ele>
        <time>2022-06-21T12:29:42Z</time>
      </trkpt>
      <trkpt lat="43.44174" lon="2.63404">
        <ele>853.9</ele>
        <time>2022-06-21T12:29:43Z</time>
      </trkpt>
      <trkpt lat="43.44175" lon="2.63404">
        <ele>853.9</ele>
        <time>2022-06-21T12:29:44Z</time>
      </trkpt>
      <trkpt lat="43.44176" lon="2.63404">
        <ele>853.9</ele>
        <time>2022-06-21T12:29:45Z</time>
      </trkpt>
      <trkpt lat="43.44177" lon="2.63404">
        <ele>853.9</ele>
        <time>2022-06-21T12:29:46Z</time>
      </trkpt>
      <trkpt lat="43.44179" lon="2.63404">
        <ele>853.9</ele>
        <time>2022-06-21T12:29:47Z</time>
      </trkpt>
      <trkpt lat="43.4418" lon="2.63404">
        <ele>853.9</ele>
        <time>2022-06-21T12:29:48Z</time>
      </trkpt>
      <trkpt lat="43.44181" lon="2.63404">
        <ele>853.9</ele>
        <time>2022-06-21T12:29:49Z</time>
      </trkpt>
      <trkpt lat="43.44182" lon="2.63404">
        <ele>853.9</ele>
        <time>2022-06-21T12:29:50Z</time>
      </trkpt>
      <trkpt lat="43.44183" lon="2.63404">
        <ele>853.9</ele>
        <time>2022-06-21T12:29:51Z</time>
      </trkpt>
      <trkpt lat="43.44184" lon="2.63404">
        <ele>853.9</ele>
        <time>2022-06-21T12:29:52Z</time>
      </trkpt>
      <trkpt lat="43.44185" lon="2.63404">
        <ele>853.9</ele>
        <time>2022-06-21T12:29:53Z</time>
      </trkpt>
      <trkpt lat="43.44186" lon="2.63404">
        <ele>853.9</ele>
        <time>2022-06-21T12:29:54Z</time>
      </trkpt>
      <trkpt lat="43.44187" lon="2.63404">
        <ele>853.9</ele>
        <time>2022-06-21T12:29:55Z</time>
      </trkpt>
      <trkpt lat="43.44188" lon="2.63404">
        <ele>853.8</ele>
        <time>2022-06-21T12:29:56Z</time>
      </trkpt>
      <trkpt lat="43.4419" lon="2.63405">
        <ele>853.8</ele>
        <time>2022-06-21T12:29:57Z</time>
      </trkpt>
      <trkpt lat="43.44191" lon="2.63406">
        <ele>853.8</ele>
        <time>2022-06-21T12:29:58Z</time>
      </trkpt>
      <trkpt lat="43.44192" lon="2.63406">
        <ele>853.8</ele>
        <time>2022-06-21T12:29:59Z</time>
      </trkpt>
      <trkpt lat="43.44193" lon="2.63406">
        <ele>853.8</ele>
        <time>2022-06-21T12:30:00Z</time>
      </trkpt>
      <trkpt lat="43.44194" lon="2.63406">
        <ele>853.8</ele>
        <time>2022-06-21T12:30:01Z</time>
      </trkpt>
      <trkpt lat="43.44195" lon="2.63406">
        <ele>853.7</ele>
        <time>2022-06-21T12:30:02Z</time>
      </trkpt>
      <trkpt lat="43.44197" lon="2.63406">
        <ele>853.7</ele>
        <time>2022-06-21T12:30:03Z</time>
      </trkpt>
      <trkpt lat="43.44198" lon="2.63406">
        <ele>853.7</ele>
        <time>2022-06-21T12:30:04Z</time>
      </trkpt>
      <trkpt lat="43.44199" lon="2.63406">
        <ele>853.7</ele>
        <time>2022-06-21T12:30:05Z</time>
      </trkpt>
      <trkpt lat="43.442" lon="2.63406">
        <ele>853.6</ele>
        <time>2022-06-21T12:30:06Z</time>
      </trkpt>
      <trkpt lat="43.44201" lon="2.63406">
        <ele>853.6</ele>
        <time>2022-06-21T12:30:07Z</time>
      </trkpt>
      <trkpt lat="43.44202" lon="2.63406">
        <ele>853.6</ele>
        <time>2022-06-21T12:30:08Z</time>
      </trkpt>
      <trkpt lat="43.44203" lon="2.63407">
        <ele>853.6</ele>
        <time>2022-06-21T12:30:09Z</time>
      </trkpt>
      <trkpt lat="43.44204" lon="2.63407">
        <ele>853.6</ele>
        <time>2022-06-21T12:30:10Z</time>
      </trkpt>
      <trkpt lat="43.44206" lon="2.63407">
        <ele>853.5</ele>
        <time>2022-06-21T12:30:11Z</time>
      </trkpt>
      <trkpt lat="43.44207" lon="2.63407">
        <ele>853.5</ele>
        <time>2022-06-21T12:30:12Z</time>
      </trkpt>
      <trkpt lat="43.44208" lon="2.63408">
        <ele>853.5</ele>
        <time>2022-06-21T12:30:13Z</time>
      </trkpt>
      <trkpt lat="43.44209" lon="2.63408">
        <ele>853.5</ele>
        <time>2022-06-21T12:30:14Z</time>
      </trkpt>
      <trkpt lat="43.4421" lon="2.63408">
        <ele>853.4</ele>
        <time>2022-06-21T12:30:15Z</time>
      </trkpt>
      <trkpt lat="43.44212" lon="2.63409">
        <ele>853.4</ele>
        <time>2022-06-21T12:30:16Z</time>
      </trkpt>
      <trkpt lat="43.44213" lon="2.63409">
        <ele>853.4</ele>
        <time>2022-06-21T12:30:17Z</time>
      </trkpt>
      <trkpt lat="43.44215" lon="2.63409">
        <ele>853.3</ele>
        <time>2022-06-21T12:30:18Z</time>
      </trkpt>
      <trkpt lat="43.44216" lon="2.63409">
        <ele>853.3</ele>
        <time>2022-06-21T12:30:19Z</time>
      </trkpt>
      <trkpt lat="43.44217" lon="2.63409">
        <ele>853.3</ele>
        <time>2022-06-21T12:30:20Z</time>
      </trkpt>
      <trkpt lat="43.44218" lon="2.63409">
        <ele>853.3</ele>
        <time>2022-06-21T12:30:21Z</time>
      </trkpt>
      <trkpt lat="43.4422" lon="2.63409">
        <ele>853.2</ele>
        <time>2022-06-21T12:30:22Z</time>
      </trkpt>
      <trkpt lat="43.4422" lon="2.6341">
        <ele>853.2</ele>
        <time>2022-06-21T12:30:23Z</time>
      </trkpt>
      <trkpt lat="43.44221" lon="2.6341">
        <ele>853.2</ele>
        <time>2022-06-21T12:30:24Z</time>
      </trkpt>
      <trkpt lat="43.44222" lon="2.6341">
        <ele>853.2</ele>
        <time>2022-06-21T12:30:25Z</time>
      </trkpt>
      <trkpt lat="43.44223" lon="2.6341">
        <ele>853.1</ele>
        <time>2022-06-21T12:30:26Z</time>
      </trkpt>
      <trkpt lat="43.44224" lon="2.6341">
        <ele>853.1</ele>
        <time>2022-06-21T12:30:27Z</time>
      </trkpt>
      <trkpt lat="43.44226" lon="2.6341">
        <ele>853.1</ele>
        <time>2022-06-21T12:30:28Z</time>
      </trkpt>
      <trkpt lat="43.44226" lon="2.6341">
        <ele>853.1</ele>
        <time>2022-06-21T12:30:29Z</time>
      </trkpt>
      <trkpt lat="43.44227" lon="2.6341">
        <ele>853.1</ele>
        <time>2022-06-21T12:30:30Z</time>
      </trkpt>
      <trkpt lat="43.44228" lon="2.63409">
        <ele>853</ele>
        <time>2022-06-21T12:30:31Z</time>
      </trkpt>
      <trkpt lat="43.44229" lon="2.6341">
        <ele>853</ele>
        <time>2022-06-21T12:30:32Z</time>
      </trkpt>
      <trkpt lat="43.4423" lon="2.6341">
        <ele>853</ele>
        <time>2022-06-21T12:30:33Z</time>
      </trkpt>
      <trkpt lat="43.44232" lon="2.6341">
        <ele>852.9</ele>
        <time>2022-06-21T12:30:34Z</time>
      </trkpt>
      <trkpt lat="43.44233" lon="2.6341">
        <ele>852.9</ele>
        <time>2022-06-21T12:30:35Z</time>
      </trkpt>
      <trkpt lat="43.44233" lon="2.6341">
        <ele>852.9</ele>
        <time>2022-06-21T12:30:36Z</time>
      </trkpt>
      <trkpt lat="43.44236" lon="2.6341">
        <ele>852.9</ele>
        <time>2022-06-21T12:30:37Z</time>
      </trkpt>
      <trkpt lat="43.44236" lon="2.63411">
        <ele>852.8</ele>
        <time>2022-06-21T12:30:38Z</time>
      </trkpt>
      <trkpt lat="43.44237" lon="2.63411">
        <ele>852.8</ele>
        <time>2022-06-21T12:30:39Z</time>
      </trkpt>
      <trkpt lat="43.44238" lon="2.6341">
        <ele>852.8</ele>
        <time>2022-06-21T12:30:40Z</time>
      </trkpt>
      <trkpt lat="43.44239" lon="2.6341">
        <ele>852.8</ele>
        <time>2022-06-21T12:30:41Z</time>
      </trkpt>
      <trkpt lat="43.4424" lon="2.6341">
        <ele>852.8</ele>
        <time>2022-06-21T12:30:42Z</time>
      </trkpt>
      <trkpt lat="43.44241" lon="2.6341">
        <ele>852.8</ele>
        <time>2022-06-21T12:30:43Z</time>
      </trkpt>
      <trkpt lat="43.44242" lon="2.6341">
        <ele>852.7</ele>
        <time>2022-06-21T12:30:44Z</time>
      </trkpt>
      <trkpt lat="43.44243" lon="2.6341">
        <ele>852.7</ele>
        <time>2022-06-21T12:30:45Z</time>
      </trkpt>
      <trkpt lat="43.44244" lon="2.6341">
        <ele>852.7</ele>
        <time>2022-06-21T12:30:46Z</time>
      </trkpt>
      <trkpt lat="43.44245" lon="2.63411">
        <ele>852.7</ele>
        <time>2022-06-21T12:30:47Z</time>
      </trkpt>
      <trkpt lat="43.44246" lon="2.63411">
        <ele>852.7</ele>
        <time>2022-06-21T12:30:48Z</time>
      </trkpt>
      <trkpt lat="43.44247" lon="2.63412">
        <ele>852.7</ele>
        <time>2022-06-21T12:30:49Z</time>
      </trkpt>
      <trkpt lat="43.44248" lon="2.63412">
        <ele>852.7</ele>
        <time>2022-06-21T12:30:50Z</time>
      </trkpt>
      <trkpt lat="43.44249" lon="2.63412">
        <ele>852.7</ele>
        <time>2022-06-21T12:30:51Z</time>
      </trkpt>
      <trkpt lat="43.4425" lon="2.63413">
        <ele>852.7</ele>
        <time>2022-06-21T12:30:52Z</time>
      </trkpt>
      <trkpt lat="43.44251" lon="2.63413">
        <ele>852.7</ele>
        <time>2022-06-21T12:30:53Z</time>
      </trkpt>
      <trkpt lat="43.44252" lon="2.63413">
        <ele>852.7</ele>
        <time>2022-06-21T12:30:54Z</time>
      </trkpt>
      <trkpt lat="43.44253" lon="2.63413">
        <ele>852.6</ele>
        <time>2022-06-21T12:30:55Z</time>
      </trkpt>
      <trkpt lat="43.44253" lon="2.63412">
        <ele>852.6</ele>
        <time>2022-06-21T12:30:56Z</time>
      </trkpt>
      <trkpt lat="43.44255" lon="2.63412">
        <ele>852.6</ele>
        <time>2022-06-21T12:30:57Z</time>
      </trkpt>
      <trkpt lat="43.44256" lon="2.63411">
        <ele>852.6</ele>
        <time>2022-06-21T12:30:58Z</time>
      </trkpt>
      <trkpt lat="43.44256" lon="2.63411">
        <ele>852.6</ele>
        <time>2022-06-21T12:30:59Z</time>
      </trkpt>
      <trkpt lat="43.44257" lon="2.63411">
        <ele>852.6</ele>
        <time>2022-06-21T12:31:00Z</time>
      </trkpt>
      <trkpt lat="43.44258" lon="2.6341">
        <ele>852.6</ele>
        <time>2022-06-21T12:31:01Z</time>
      </trkpt>
      <trkpt lat="43.44259" lon="2.6341">
        <ele>852.6</ele>
        <time>2022-06-21T12:31:02Z</time>
      </trkpt>
      <trkpt lat="43.4426" lon="2.63409">
        <ele>852.6</ele>
        <time>2022-06-21T12:31:03Z</time>
      </trkpt>
      <trkpt lat="43.4426" lon="2.63409">
        <ele>852.6</ele>
        <time>2022-06-21T12:31:04Z</time>
      </trkpt>
      <trkpt lat="43.4426" lon="2.63409">
        <ele>852.6</ele>
        <time>2022-06-21T12:31:05Z</time>
      </trkpt>
      <trkpt lat="43.4426" lon="2.63409">
        <ele>852.6</ele>
        <time>2022-06-21T12:31:06Z</time>
      </trkpt>
      <trkpt lat="43.4426" lon="2.63409">
        <ele>852.6</ele>
        <time>2022-06-21T12:31:07Z</time>
      </trkpt>
      <trkpt lat="43.4426" lon="2.63409">
        <ele>852.6</ele>
        <time>2022-06-21T12:31:08Z</time>
      </trkpt>
      <trkpt lat="43.4426" lon="2.63409">
        <ele>852.6</ele>
        <time>2022-06-21T12:31:09Z</time>
      </trkpt>
      <trkpt lat="43.4426" lon="2.63409">
        <ele>852.6</ele>
        <time>2022-06-21T12:31:10Z</time>
      </trkpt>
      <trkpt lat="43.4426" lon="2.63409">
        <ele>852.6</ele>
        <time>2022-06-21T12:31:11Z</time>
      </trkpt>
      <trkpt lat="43.4426" lon="2.63409">
        <ele>852.6</ele>
        <time>2022-06-21T12:31:12Z</time>
      </trkpt>
      <trkpt lat="43.44261" lon="2.63408">
        <ele>852.6</ele>
        <time>2022-06-21T12:31:13Z</time>
      </trkpt>
      <trkpt lat="43.44261" lon="2.63408">
        <ele>852.6</ele>
        <time>2022-06-21T12:31:14Z</time>
      </trkpt>
      <trkpt lat="43.44262" lon="2.63407">
        <ele>852.5</ele>
        <time>2022-06-21T12:31:15Z</time>
      </trkpt>
      <trkpt lat="43.44262" lon="2.63406">
        <ele>852.5</ele>
        <time>2022-06-21T12:31:16Z</time>
      </trkpt>
      <trkpt lat="43.44262" lon="2.63405">
        <ele>852.5</ele>
        <time>2022-06-21T12:31:17Z</time>
      </trkpt>
      <trkpt lat="43.44262" lon="2.63405">
        <ele>852.5</ele>
        <time>2022-06-21T12:31:18Z</time>
      </trkpt>
      <trkpt lat="43.44262" lon="2.63404">
        <ele>852.5</ele>
        <time>2022-06-21T12:31:19Z</time>
      </trkpt>
      <trkpt lat="43.44262" lon="2.63404">
        <ele>852.6</ele>
        <time>2022-06-21T12:31:20Z</time>
      </trkpt>
      <trkpt lat="43.44262" lon="2.63404">
        <ele>852.6</ele>
        <time>2022-06-21T12:31:21Z</time>
      </trkpt>
      <trkpt lat="43.44262" lon="2.63404">
        <ele>852.6</ele>
        <time>2022-06-21T12:31:22Z</time>
      </trkpt>
      <trkpt lat="43.44262" lon="2.63404">
        <ele>852.6</ele>
        <time>2022-06-21T12:31:23Z</time>
      </trkpt>
      <trkpt lat="43.44262" lon="2.63404">
        <ele>852.6</ele>
        <time>2022-06-21T12:31:24Z</time>
      </trkpt>
      <trkpt lat="43.44262" lon="2.63404">
        <ele>852.6</ele>
        <time>2022-06-21T12:31:25Z</time>
      </trkpt>
      <trkpt lat="43.44262" lon="2.63404">
        <ele>852.6</ele>
        <time>2022-06-21T12:31:26Z</time>
      </trkpt>
      <trkpt lat="43.44262" lon="2.63404">
        <ele>852.6</ele>
        <time>2022-06-21T12:31:27Z</time>
      </trkpt>
      <trkpt lat="43.44262" lon="2.63404">
        <ele>852.6</ele>
        <time>2022-06-21T12:31:28Z</time>
      </trkpt>
      <trkpt lat="43.44262" lon="2.63404">
        <ele>852.6</ele>
        <time>2022-06-21T12:31:29Z</time>
      </trkpt>
      <trkpt lat="43.44262" lon="2.63404">
        <ele>852.6</ele>
        <time>2022-06-21T12:31:30Z</time>
      </trkpt>
      <trkpt lat="43.44261" lon="2.63403">
        <ele>852.6</ele>
        <time>2022-06-21T12:31:31Z</time>
      </trkpt>
      <trkpt lat="43.4426" lon="2.63402">
        <ele>852.6</ele>
        <time>2022-06-21T12:31:32Z</time>
      </trkpt>
      <trkpt lat="43.4426" lon="2.63402">
        <ele>852.7</ele>
        <time>2022-06-21T12:31:33Z</time>
      </trkpt>
      <trkpt lat="43.4426" lon="2.63401">
        <ele>852.7</ele>
        <time>2022-06-21T12:31:34Z</time>
      </trkpt>
      <trkpt lat="43.44259" lon="2.63401">
        <ele>852.7</ele>
        <time>2022-06-21T12:31:35Z</time>
      </trkpt>
      <trkpt lat="43.44258" lon="2.634">
        <ele>852.7</ele>
        <time>2022-06-21T12:31:36Z</time>
      </trkpt>
      <trkpt lat="43.44258" lon="2.634">
        <ele>852.7</ele>
        <time>2022-06-21T12:31:37Z</time>
      </trkpt>
      <trkpt lat="43.44258" lon="2.634">
        <ele>852.7</ele>
        <time>2022-06-21T12:31:38Z</time>
      </trkpt>
      <trkpt lat="43.44258" lon="2.634">
        <ele>852.7</ele>
        <time>2022-06-21T12:31:39Z</time>
      </trkpt>
      <trkpt lat="43.44258" lon="2.634">
        <ele>852.7</ele>
        <time>2022-06-21T12:31:40Z</time>
      </trkpt>
      <trkpt lat="43.44258" lon="2.634">
        <ele>852.7</ele>
        <time>2022-06-21T12:31:41Z</time>
      </trkpt>
      <trkpt lat="43.44258" lon="2.634">
        <ele>852.7</ele>
        <time>2022-06-21T12:31:42Z</time>
      </trkpt>
      <trkpt lat="43.44258" lon="2.634">
        <ele>852.8</ele>
        <time>2022-06-21T12:31:43Z</time>
      </trkpt>
      <trkpt lat="43.44257" lon="2.634">
        <ele>852.8</ele>
        <time>2022-06-21T12:31:44Z</time>
      </trkpt>
      <trkpt lat="43.44257" lon="2.634">
        <ele>852.8</ele>
        <time>2022-06-21T12:31:45Z</time>
      </trkpt>
      <trkpt lat="43.44257" lon="2.634">
        <ele>852.8</ele>
        <time>2022-06-21T12:31:46Z</time>
      </trkpt>
      <trkpt lat="43.44257" lon="2.634">
        <ele>852.8</ele>
        <time>2022-06-21T12:31:47Z</time>
      </trkpt>
      <trkpt lat="43.44257" lon="2.634">
        <ele>852.8</ele>
        <time>2022-06-21T12:31:48Z</time>
      </trkpt>
      <trkpt lat="43.44257" lon="2.634">
        <ele>852.8</ele>
        <time>2022-06-21T12:31:49Z</time>
      </trkpt>
      <trkpt lat="43.44257" lon="2.634">
        <ele>852.8</ele>
        <time>2022-06-21T12:31:50Z</time>
      </trkpt>
      <trkpt lat="43.44257" lon="2.634">
        <ele>852.8</ele>
        <time>2022-06-21T12:31:51Z</time>
      </trkpt>
      <trkpt lat="43.44257" lon="2.634">
        <ele>852.8</ele>
        <time>2022-06-21T12:31:52Z</time>
      </trkpt>
      <trkpt lat="43.44257" lon="2.634">
        <ele>852.8</ele>
        <time>2022-06-21T12:31:53Z</time>
      </trkpt>
      <trkpt lat="43.44256" lon="2.63399">
        <ele>852.8</ele>
        <time>2022-06-21T12:31:54Z</time>
      </trkpt>
      <trkpt lat="43.44256" lon="2.63399">
        <ele>852.8</ele>
        <time>2022-06-21T12:31:55Z</time>
      </trkpt>
      <trkpt lat="43.44256" lon="2.63399">
        <ele>852.8</ele>
        <time>2022-06-21T12:31:56Z</time>
      </trkpt>
      <trkpt lat="43.44256" lon="2.63399">
        <ele>852.8</ele>
        <time>2022-06-21T12:31:57Z</time>
      </trkpt>
      <trkpt lat="43.44256" lon="2.63399">
        <ele>852.8</ele>
        <time>2022-06-21T12:31:58Z</time>
      </trkpt>
      <trkpt lat="43.44256" lon="2.63399">
        <ele>852.8</ele>
        <time>2022-06-21T12:31:59Z</time>
      </trkpt>
      <trkpt lat="43.44256" lon="2.63399">
        <ele>852.8</ele>
        <time>2022-06-21T12:32:00Z</time>
      </trkpt>
      <trkpt lat="43.44256" lon="2.63399">
        <ele>852.8</ele>
        <time>2022-06-21T12:32:01Z</time>
      </trkpt>
      <trkpt lat="43.44256" lon="2.63399">
        <ele>852.8</ele>
        <time>2022-06-21T12:32:02Z</time>
      </trkpt>
      <trkpt lat="43.44255" lon="2.63399">
        <ele>852.8</ele>
        <time>2022-06-21T12:32:03Z</time>
      </trkpt>
      <trkpt lat="43.44255" lon="2.63399">
        <ele>852.8</ele>
        <time>2022-06-21T12:32:04Z</time>
      </trkpt>
      <trkpt lat="43.44254" lon="2.63399">
        <ele>852.9</ele>
        <time>2022-06-21T12:32:05Z</time>
      </trkpt>
      <trkpt lat="43.44253" lon="2.63398">
        <ele>852.9</ele>
        <time>2022-06-21T12:32:06Z</time>
      </trkpt>
      <trkpt lat="43.44251" lon="2.63398">
        <ele>853</ele>
        <time>2022-06-21T12:32:07Z</time>
      </trkpt>
      <trkpt lat="43.44249" lon="2.63398">
        <ele>853.1</ele>
        <time>2022-06-21T12:32:08Z</time>
      </trkpt>
      <trkpt lat="43.44249" lon="2.63397">
        <ele>853.1</ele>
        <time>2022-06-21T12:32:09Z</time>
      </trkpt>
      <trkpt lat="43.44249" lon="2.63397">
        <ele>853.1</ele>
        <time>2022-06-21T12:32:10Z</time>
      </trkpt>
      <trkpt lat="43.44248" lon="2.63397">
        <ele>853.1</ele>
        <time>2022-06-21T12:32:11Z</time>
      </trkpt>
      <trkpt lat="43.44248" lon="2.63396">
        <ele>853.1</ele>
        <time>2022-06-21T12:32:12Z</time>
      </trkpt>
      <trkpt lat="43.44247" lon="2.63396">
        <ele>853.1</ele>
        <time>2022-06-21T12:32:13Z</time>
      </trkpt>
      <trkpt lat="43.44247" lon="2.63396">
        <ele>853.1</ele>
        <time>2022-06-21T12:32:14Z</time>
      </trkpt>
      <trkpt lat="43.44247" lon="2.63396">
        <ele>853.2</ele>
        <time>2022-06-21T12:32:15Z</time>
      </trkpt>
      <trkpt lat="43.44246" lon="2.63395">
        <ele>853.2</ele>
        <time>2022-06-21T12:32:16Z</time>
      </trkpt>
      <trkpt lat="43.44246" lon="2.63395">
        <ele>853.2</ele>
        <time>2022-06-21T12:32:17Z</time>
      </trkpt>
      <trkpt lat="43.44246" lon="2.63395">
        <ele>853.2</ele>
        <time>2022-06-21T12:32:18Z</time>
      </trkpt>
      <trkpt lat="43.44245" lon="2.63395">
        <ele>853.2</ele>
        <time>2022-06-21T12:32:19Z</time>
      </trkpt>
      <trkpt lat="43.44245" lon="2.63394">
        <ele>853.2</ele>
        <time>2022-06-21T12:32:20Z</time>
      </trkpt>
      <trkpt lat="43.44245" lon="2.63394">
        <ele>853.2</ele>
        <time>2022-06-21T12:32:21Z</time>
      </trkpt>
      <trkpt lat="43.44242" lon="2.63393">
        <ele>853.3</ele>
        <time>2022-06-21T12:32:22Z</time>
      </trkpt>
      <trkpt lat="43.44241" lon="2.63392">
        <ele>853.4</ele>
        <time>2022-06-21T12:32:23Z</time>
      </trkpt>
      <trkpt lat="43.44239" lon="2.63391">
        <ele>853.5</ele>
        <time>2022-06-21T12:32:24Z</time>
      </trkpt>
      <trkpt lat="43.44238" lon="2.6339">
        <ele>853.5</ele>
        <time>2022-06-21T12:32:25Z</time>
      </trkpt>
      <trkpt lat="43.44238" lon="2.6339">
        <ele>853.5</ele>
        <time>2022-06-21T12:32:26Z</time>
      </trkpt>
      <trkpt lat="43.44238" lon="2.6339">
        <ele>853.5</ele>
        <time>2022-06-21T12:32:27Z</time>
      </trkpt>
      <trkpt lat="43.44238" lon="2.6339">
        <ele>853.5</ele>
        <time>2022-06-21T12:32:28Z</time>
      </trkpt>
      <trkpt lat="43.44238" lon="2.6339">
        <ele>853.5</ele>
        <time>2022-06-21T12:32:29Z</time>
      </trkpt>
      <trkpt lat="43.44238" lon="2.6339">
        <ele>853.5</ele>
        <time>2022-06-21T12:32:30Z</time>
      </trkpt>
      <trkpt lat="43.44238" lon="2.6339">
        <ele>853.5</ele>
        <time>2022-06-21T12:32:31Z</time>
      </trkpt>
      <trkpt lat="43.44238" lon="2.6339">
        <ele>853.5</ele>
        <time>2022-06-21T12:32:32Z</time>
      </trkpt>
      <trkpt lat="43.44238" lon="2.6339">
        <ele>853.5</ele>
        <time>2022-06-21T12:32:33Z</time>
      </trkpt>
      <trkpt lat="43.44237" lon="2.63389">
        <ele>853.5</ele>
        <time>2022-06-21T12:32:34Z</time>
      </trkpt>
      <trkpt lat="43.44236" lon="2.63388">
        <ele>853.6</ele>
        <time>2022-06-21T12:32:35Z</time>
      </trkpt>
      <trkpt lat="43.44234" lon="2.63386">
        <ele>853.7</ele>
        <time>2022-06-21T12:32:36Z</time>
      </trkpt>
      <trkpt lat="43.44231" lon="2.63383">
        <ele>853.8</ele>
        <time>2022-06-21T12:32:38Z</time>
      </trkpt>
      <trkpt lat="43.44219" lon="2.63374">
        <ele>854.3</ele>
        <time>2022-06-21T12:32:39Z</time>
      </trkpt>
      <trkpt lat="43.44218" lon="2.63373">
        <ele>854.3</ele>
        <time>2022-06-21T12:32:40Z</time>
      </trkpt>
      <trkpt lat="43.44217" lon="2.63372">
        <ele>854.4</ele>
        <time>2022-06-21T12:32:41Z</time>
      </trkpt>
      <trkpt lat="43.44216" lon="2.63371">
        <ele>854.4</ele>
        <time>2022-06-21T12:32:42Z</time>
      </trkpt>
      <trkpt lat="43.44216" lon="2.6337">
        <ele>854.4</ele>
        <time>2022-06-21T12:32:43Z</time>
      </trkpt>
      <trkpt lat="43.44215" lon="2.6337">
        <ele>854.5</ele>
        <time>2022-06-21T12:32:44Z</time>
      </trkpt>
      <trkpt lat="43.44214" lon="2.63369">
        <ele>854.5</ele>
        <time>2022-06-21T12:32:45Z</time>
      </trkpt>
      <trkpt lat="43.44214" lon="2.63368">
        <ele>854.5</ele>
        <time>2022-06-21T12:32:46Z</time>
      </trkpt>
      <trkpt lat="43.44213" lon="2.63367">
        <ele>854.6</ele>
        <time>2022-06-21T12:32:47Z</time>
      </trkpt>
      <trkpt lat="43.44212" lon="2.63365">
        <ele>854.7</ele>
        <time>2022-06-21T12:32:48Z</time>
      </trkpt>
      <trkpt lat="43.44211" lon="2.63364">
        <ele>854.7</ele>
        <time>2022-06-21T12:32:49Z</time>
      </trkpt>
      <trkpt lat="43.4421" lon="2.63363">
        <ele>854.7</ele>
        <time>2022-06-21T12:32:50Z</time>
      </trkpt>
      <trkpt lat="43.44209" lon="2.63361">
        <ele>854.8</ele>
        <time>2022-06-21T12:32:51Z</time>
      </trkpt>
      <trkpt lat="43.44208" lon="2.6336">
        <ele>854.8</ele>
        <time>2022-06-21T12:32:52Z</time>
      </trkpt>
      <trkpt lat="43.44208" lon="2.63359">
        <ele>854.9</ele>
        <time>2022-06-21T12:32:53Z</time>
      </trkpt>
      <trkpt lat="43.44207" lon="2.63357">
        <ele>854.9</ele>
        <time>2022-06-21T12:32:54Z</time>
      </trkpt>
      <trkpt lat="43.44206" lon="2.63356">
        <ele>855</ele>
        <time>2022-06-21T12:32:55Z</time>
      </trkpt>
      <trkpt lat="43.44206" lon="2.63356">
        <ele>855</ele>
        <time>2022-06-21T12:32:56Z</time>
      </trkpt>
      <trkpt lat="43.44206" lon="2.63356">
        <ele>855</ele>
        <time>2022-06-21T12:32:57Z</time>
      </trkpt>
      <trkpt lat="43.44206" lon="2.63356">
        <ele>855</ele>
        <time>2022-06-21T12:32:58Z</time>
      </trkpt>
      <trkpt lat="43.44206" lon="2.63356">
        <ele>855</ele>
        <time>2022-06-21T12:32:59Z</time>
      </trkpt>
      <trkpt lat="43.44206" lon="2.63356">
        <ele>855</ele>
        <time>2022-06-21T12:33:00Z</time>
      </trkpt>
      <trkpt lat="43.44206" lon="2.63356">
        <ele>855</ele>
        <time>2022-06-21T12:33:01Z</time>
      </trkpt>
      <trkpt lat="43.44206" lon="2.63356">
        <ele>855</ele>
        <time>2022-06-21T12:33:02Z</time>
      </trkpt>
      <trkpt lat="43.44206" lon="2.63356">
        <ele>855</ele>
        <time>2022-06-21T12:33:03Z</time>
      </trkpt>
      <trkpt lat="43.44206" lon="2.63356">
        <ele>855</ele>
        <time>2022-06-21T12:33:04Z</time>
      </trkpt>
      <trkpt lat="43.44206" lon="2.63356">
        <ele>855</ele>
        <time>2022-06-21T12:33:05Z</time>
      </trkpt>
      <trkpt lat="43.44206" lon="2.63356">
        <ele>855</ele>
        <time>2022-06-21T12:33:06Z</time>
      </trkpt>
      <trkpt lat="43.44206" lon="2.63356">
        <ele>855</ele>
        <time>2022-06-21T12:33:07Z</time>
      </trkpt>
      <trkpt lat="43.44205" lon="2.63355">
        <ele>855</ele>
        <time>2022-06-21T12:33:08Z</time>
      </trkpt>
      <trkpt lat="43.44204" lon="2.63353">
        <ele>855.1</ele>
        <time>2022-06-21T12:33:09Z</time>
      </trkpt>
      <trkpt lat="43.44204" lon="2.63352">
        <ele>855.1</ele>
        <time>2022-06-21T12:33:10Z</time>
      </trkpt>
      <trkpt lat="43.44203" lon="2.63351">
        <ele>855.1</ele>
        <time>2022-06-21T12:33:11Z</time>
      </trkpt>
      <trkpt lat="43.44202" lon="2.63349">
        <ele>855.2</ele>
        <time>2022-06-21T12:33:12Z</time>
      </trkpt>
      <trkpt lat="43.44201" lon="2.63348">
        <ele>855.2</ele>
        <time>2022-06-21T12:33:13Z</time>
      </trkpt>
      <trkpt lat="43.442" lon="2.63347">
        <ele>855.3</ele>
        <time>2022-06-21T12:33:14Z</time>
      </trkpt>
      <trkpt lat="43.442" lon="2.63346">
        <ele>855.3</ele>
        <time>2022-06-21T12:33:15Z</time>
      </trkpt>
      <trkpt lat="43.44199" lon="2.63345">
        <ele>855.4</ele>
        <time>2022-06-21T12:33:16Z</time>
      </trkpt>
      <trkpt lat="43.44197" lon="2.63343">
        <ele>855.4</ele>
        <time>2022-06-21T12:33:17Z</time>
      </trkpt>
      <trkpt lat="43.44197" lon="2.63342">
        <ele>855.5</ele>
        <time>2022-06-21T12:33:18Z</time>
      </trkpt>
      <trkpt lat="43.44196" lon="2.63342">
        <ele>855.5</ele>
        <time>2022-06-21T12:33:19Z</time>
      </trkpt>
      <trkpt lat="43.44196" lon="2.63342">
        <ele>855.5</ele>
        <time>2022-06-21T12:33:20Z</time>
      </trkpt>
      <trkpt lat="43.44196" lon="2.63342">
        <ele>855.5</ele>
        <time>2022-06-21T12:33:21Z</time>
      </trkpt>
      <trkpt lat="43.44196" lon="2.63342">
        <ele>855.5</ele>
        <time>2022-06-21T12:33:22Z</time>
      </trkpt>
      <trkpt lat="43.44196" lon="2.63342">
        <ele>855.5</ele>
        <time>2022-06-21T12:33:23Z</time>
      </trkpt>
      <trkpt lat="43.44196" lon="2.63342">
        <ele>855.5</ele>
        <time>2022-06-21T12:33:24Z</time>
      </trkpt>
      <trkpt lat="43.44196" lon="2.63342">
        <ele>855.5</ele>
        <time>2022-06-21T12:33:25Z</time>
      </trkpt>
      <trkpt lat="43.44196" lon="2.63342">
        <ele>855.5</ele>
        <time>2022-06-21T12:33:26Z</time>
      </trkpt>
      <trkpt lat="43.44196" lon="2.63342">
        <ele>855.5</ele>
        <time>2022-06-21T12:33:27Z</time>
      </trkpt>
      <trkpt lat="43.44196" lon="2.63342">
        <ele>855.5</ele>
        <time>2022-06-21T12:33:28Z</time>
      </trkpt>
      <trkpt lat="43.44196" lon="2.63342">
        <ele>855.5</ele>
        <time>2022-06-21T12:33:29Z</time>
      </trkpt>
      <trkpt lat="43.44196" lon="2.63342">
        <ele>855.5</ele>
        <time>2022-06-21T12:33:30Z</time>
      </trkpt>
      <trkpt lat="43.44196" lon="2.63341">
        <ele>855.5</ele>
        <time>2022-06-21T12:33:31Z</time>
      </trkpt>
      <trkpt lat="43.44195" lon="2.6334">
        <ele>855.6</ele>
        <time>2022-06-21T12:33:32Z</time>
      </trkpt>
      <trkpt lat="43.44195" lon="2.63339">
        <ele>855.6</ele>
        <time>2022-06-21T12:33:33Z</time>
      </trkpt>
      <trkpt lat="43.44194" lon="2.63338">
        <ele>855.6</ele>
        <time>2022-06-21T12:33:34Z</time>
      </trkpt>
      <trkpt lat="43.44194" lon="2.63337">
        <ele>855.6</ele>
        <time>2022-06-21T12:33:35Z</time>
      </trkpt>
      <trkpt lat="43.44194" lon="2.63337">
        <ele>855.7</ele>
        <time>2022-06-21T12:33:36Z</time>
      </trkpt>
      <trkpt lat="43.44194" lon="2.63337">
        <ele>855.7</ele>
        <time>2022-06-21T12:33:37Z</time>
      </trkpt>
      <trkpt lat="43.44194" lon="2.63337">
        <ele>855.7</ele>
        <time>2022-06-21T12:33:38Z</time>
      </trkpt>
      <trkpt lat="43.44194" lon="2.63337">
        <ele>855.7</ele>
        <time>2022-06-21T12:33:39Z</time>
      </trkpt>
      <trkpt lat="43.44194" lon="2.63337">
        <ele>855.7</ele>
        <time>2022-06-21T12:33:40Z</time>
      </trkpt>
      <trkpt lat="43.44194" lon="2.63337">
        <ele>855.7</ele>
        <time>2022-06-21T12:33:41Z</time>
      </trkpt>
      <trkpt lat="43.44193" lon="2.63336">
        <ele>855.7</ele>
        <time>2022-06-21T12:33:42Z</time>
      </trkpt>
      <trkpt lat="43.44192" lon="2.63335">
        <ele>855.7</ele>
        <time>2022-06-21T12:33:43Z</time>
      </trkpt>
      <trkpt lat="43.44192" lon="2.63334">
        <ele>855.8</ele>
        <time>2022-06-21T12:33:44Z</time>
      </trkpt>
      <trkpt lat="43.44192" lon="2.63334">
        <ele>855.8</ele>
        <time>2022-06-21T12:33:45Z</time>
      </trkpt>
      <trkpt lat="43.44192" lon="2.63334">
        <ele>855.8</ele>
        <time>2022-06-21T12:33:46Z</time>
      </trkpt>
      <trkpt lat="43.44192" lon="2.63334">
        <ele>855.8</ele>
        <time>2022-06-21T12:33:47Z</time>
      </trkpt>
      <trkpt lat="43.44191" lon="2.63334">
        <ele>855.8</ele>
        <time>2022-06-21T12:33:48Z</time>
      </trkpt>
      <trkpt lat="43.44191" lon="2.63333">
        <ele>855.8</ele>
        <time>2022-06-21T12:33:49Z</time>
      </trkpt>
      <trkpt lat="43.4419" lon="2.63331">
        <ele>855.9</ele>
        <time>2022-06-21T12:33:50Z</time>
      </trkpt>
      <trkpt lat="43.44189" lon="2.6333">
        <ele>855.9</ele>
        <time>2022-06-21T12:33:51Z</time>
      </trkpt>
      <trkpt lat="43.44189" lon="2.63329">
        <ele>855.9</ele>
        <time>2022-06-21T12:33:52Z</time>
      </trkpt>
      <trkpt lat="43.44188" lon="2.63328">
        <ele>856</ele>
        <time>2022-06-21T12:33:53Z</time>
      </trkpt>
      <trkpt lat="43.44187" lon="2.63326">
        <ele>856</ele>
        <time>2022-06-21T12:33:54Z</time>
      </trkpt>
      <trkpt lat="43.44186" lon="2.63325">
        <ele>856.1</ele>
        <time>2022-06-21T12:33:55Z</time>
      </trkpt>
      <trkpt lat="43.44185" lon="2.63324">
        <ele>856.1</ele>
        <time>2022-06-21T12:33:56Z</time>
      </trkpt>
      <trkpt lat="43.44185" lon="2.63323">
        <ele>856.2</ele>
        <time>2022-06-21T12:33:57Z</time>
      </trkpt>
      <trkpt lat="43.44184" lon="2.63322">
        <ele>856.2</ele>
        <time>2022-06-21T12:33:58Z</time>
      </trkpt>
      <trkpt lat="43.44184" lon="2.63322">
        <ele>856.2</ele>
        <time>2022-06-21T12:33:59Z</time>
      </trkpt>
      <trkpt lat="43.44184" lon="2.63321">
        <ele>856.2</ele>
        <time>2022-06-21T12:34:00Z</time>
      </trkpt>
      <trkpt lat="43.44184" lon="2.63321">
        <ele>856.2</ele>
        <time>2022-06-21T12:34:01Z</time>
      </trkpt>
      <trkpt lat="43.44183" lon="2.63321">
        <ele>856.2</ele>
        <time>2022-06-21T12:34:02Z</time>
      </trkpt>
      <trkpt lat="43.44183" lon="2.6332">
        <ele>856.2</ele>
        <time>2022-06-21T12:34:03Z</time>
      </trkpt>
      <trkpt lat="43.44183" lon="2.6332">
        <ele>856.3</ele>
        <time>2022-06-21T12:34:04Z</time>
      </trkpt>
      <trkpt lat="43.44183" lon="2.63319">
        <ele>856.3</ele>
        <time>2022-06-21T12:34:05Z</time>
      </trkpt>
      <trkpt lat="43.44182" lon="2.63318">
        <ele>856.3</ele>
        <time>2022-06-21T12:34:06Z</time>
      </trkpt>
      <trkpt lat="43.44181" lon="2.63316">
        <ele>856.4</ele>
        <time>2022-06-21T12:34:07Z</time>
      </trkpt>
      <trkpt lat="43.4418" lon="2.63315">
        <ele>856.4</ele>
        <time>2022-06-21T12:34:08Z</time>
      </trkpt>
      <trkpt lat="43.4418" lon="2.63314">
        <ele>856.4</ele>
        <time>2022-06-21T12:34:09Z</time>
      </trkpt>
      <trkpt lat="43.44179" lon="2.63314">
        <ele>856.5</ele>
        <time>2022-06-21T12:34:10Z</time>
      </trkpt>
      <trkpt lat="43.44179" lon="2.63314">
        <ele>856.5</ele>
        <time>2022-06-21T12:34:11Z</time>
      </trkpt>
      <trkpt lat="43.44179" lon="2.63314">
        <ele>856.5</ele>
        <time>2022-06-21T12:34:12Z</time>
      </trkpt>
      <trkpt lat="43.44179" lon="2.63314">
        <ele>856.5</ele>
        <time>2022-06-21T12:34:13Z</time>
      </trkpt>
      <trkpt lat="43.44179" lon="2.63314">
        <ele>856.5</ele>
        <time>2022-06-21T12:34:14Z</time>
      </trkpt>
      <trkpt lat="43.44179" lon="2.63314">
        <ele>856.5</ele>
        <time>2022-06-21T12:34:15Z</time>
      </trkpt>
      <trkpt lat="43.44179" lon="2.63314">
        <ele>856.5</ele>
        <time>2022-06-21T12:34:16Z</time>
      </trkpt>
      <trkpt lat="43.44179" lon="2.63314">
        <ele>856.5</ele>
        <time>2022-06-21T12:34:17Z</time>
      </trkpt>
      <trkpt lat="43.44179" lon="2.63314">
        <ele>856.5</ele>
        <time>2022-06-21T12:34:18Z</time>
      </trkpt>
      <trkpt lat="43.44179" lon="2.63314">
        <ele>856.5</ele>
        <time>2022-06-21T12:34:19Z</time>
      </trkpt>
      <trkpt lat="43.44179" lon="2.63314">
        <ele>856.5</ele>
        <time>2022-06-21T12:34:20Z</time>
      </trkpt>
      <trkpt lat="43.44179" lon="2.63314">
        <ele>856.5</ele>
        <time>2022-06-21T12:34:21Z</time>
      </trkpt>
      <trkpt lat="43.44179" lon="2.63314">
        <ele>856.5</ele>
        <time>2022-06-21T12:34:22Z</time>
      </trkpt>
      <trkpt lat="43.44179" lon="2.63314">
        <ele>856.5</ele>
        <time>2022-06-21T12:34:23Z</time>
      </trkpt>
      <trkpt lat="43.44179" lon="2.63314">
        <ele>856.5</ele>
        <time>2022-06-21T12:34:24Z</time>
      </trkpt>
      <trkpt lat="43.44179" lon="2.63314">
        <ele>856.5</ele>
        <time>2022-06-21T12:34:25Z</time>
      </trkpt>
      <trkpt lat="43.44179" lon="2.63314">
        <ele>856.5</ele>
        <time>2022-06-21T12:34:26Z</time>
      </trkpt>
      <trkpt lat="43.44179" lon="2.63314">
        <ele>856.5</ele>
        <time>2022-06-21T12:34:27Z</time>
      </trkpt>
      <trkpt lat="43.44179" lon="2.63314">
        <ele>856.5</ele>
        <time>2022-06-21T12:34:28Z</time>
      </trkpt>
      <trkpt lat="43.44179" lon="2.63314">
        <ele>856.5</ele>
        <time>2022-06-21T12:34:29Z</time>
      </trkpt>
      <trkpt lat="43.44179" lon="2.63314">
        <ele>856.5</ele>
        <time>2022-06-21T12:34:30Z</time>
      </trkpt>
      <trkpt lat="43.44179" lon="2.63314">
        <ele>856.5</ele>
        <time>2022-06-21T12:34:31Z</time>
      </trkpt>
      <trkpt lat="43.44179" lon="2.63314">
        <ele>856.5</ele>
        <time>2022-06-21T12:34:32Z</time>
      </trkpt>
      <trkpt lat="43.44179" lon="2.63314">
        <ele>856.5</ele>
        <time>2022-06-21T12:34:33Z</time>
      </trkpt>
      <trkpt lat="43.44179" lon="2.63314">
        <ele>856.5</ele>
        <time>2022-06-21T12:34:34Z</time>
      </trkpt>
      <trkpt lat="43.44179" lon="2.63314">
        <ele>856.5</ele>
        <time>2022-06-21T12:34:35Z</time>
      </trkpt>
      <trkpt lat="43.44179" lon="2.63314">
        <ele>856.5</ele>
        <time>2022-06-21T12:34:36Z</time>
      </trkpt>
      <trkpt lat="43.44179" lon="2.63314">
        <ele>856.5</ele>
        <time>2022-06-21T12:34:37Z</time>
      </trkpt>
      <trkpt lat="43.44179" lon="2.63314">
        <ele>856.5</ele>
        <time>2022-06-21T12:34:38Z</time>
      </trkpt>
      <trkpt lat="43.44179" lon="2.63314">
        <ele>856.5</ele>
        <time>2022-06-21T12:34:39Z</time>
      </trkpt>
      <trkpt lat="43.44179" lon="2.63314">
        <ele>856.5</ele>
        <time>2022-06-21T12:34:40Z</time>
      </trkpt>
      <trkpt lat="43.44179" lon="2.63314">
        <ele>856.5</ele>
        <time>2022-06-21T12:34:41Z</time>
      </trkpt>
      <trkpt lat="43.44179" lon="2.63314">
        <ele>856.5</ele>
        <time>2022-06-21T12:34:42Z</time>
      </trkpt>
      <trkpt lat="43.44179" lon="2.63314">
        <ele>856.5</ele>
        <time>2022-06-21T12:34:43Z</time>
      </trkpt>
      <trkpt lat="43.44179" lon="2.63314">
        <ele>856.5</ele>
        <time>2022-06-21T12:34:44Z</time>
      </trkpt>
      <trkpt lat="43.44179" lon="2.63314">
        <ele>856.5</ele>
        <time>2022-06-21T12:34:45Z</time>
      </trkpt>
      <trkpt lat="43.44179" lon="2.63314">
        <ele>856.5</ele>
        <time>2022-06-21T12:34:46Z</time>
      </trkpt>
      <trkpt lat="43.44179" lon="2.63314">
        <ele>856.5</ele>
        <time>2022-06-21T12:34:47Z</time>
      </trkpt>
      <trkpt lat="43.44179" lon="2.63314">
        <ele>856.5</ele>
        <time>2022-06-21T12:34:48Z</time>
      </trkpt>
      <trkpt lat="43.44179" lon="2.63314">
        <ele>856.5</ele>
        <time>2022-06-21T12:34:49Z</time>
      </trkpt>
      <trkpt lat="43.44179" lon="2.63314">
        <ele>856.5</ele>
        <time>2022-06-21T12:34:50Z</time>
      </trkpt>
      <trkpt lat="43.44179" lon="2.63314">
        <ele>856.5</ele>
        <time>2022-06-21T12:34:51Z</time>
      </trkpt>
      <trkpt lat="43.44179" lon="2.63314">
        <ele>856.5</ele>
        <time>2022-06-21T12:34:52Z</time>
      </trkpt>
      <trkpt lat="43.44179" lon="2.63314">
        <ele>856.5</ele>
        <time>2022-06-21T12:34:53Z</time>
      </trkpt>
      <trkpt lat="43.44179" lon="2.63314">
        <ele>856.5</ele>
        <time>2022-06-21T12:34:54Z</time>
      </trkpt>
      <trkpt lat="43.44179" lon="2.63314">
        <ele>856.5</ele>
        <time>2022-06-21T12:34:55Z</time>
      </trkpt>
      <trkpt lat="43.44179" lon="2.63314">
        <ele>856.5</ele>
        <time>2022-06-21T12:34:56Z</time>
      </trkpt>
      <trkpt lat="43.44179" lon="2.63314">
        <ele>856.5</ele>
        <time>2022-06-21T12:34:57Z</time>
      </trkpt>
      <trkpt lat="43.44179" lon="2.63314">
        <ele>856.5</ele>
        <time>2022-06-21T12:34:58Z</time>
      </trkpt>
      <trkpt lat="43.44179" lon="2.63314">
        <ele>856.5</ele>
        <time>2022-06-21T12:34:59Z</time>
      </trkpt>
      <trkpt lat="43.44179" lon="2.63314">
        <ele>856.5</ele>
        <time>2022-06-21T12:35:00Z</time>
      </trkpt>
      <trkpt lat="43.44179" lon="2.63313">
        <ele>856.5</ele>
        <time>2022-06-21T12:35:01Z</time>
      </trkpt>
      <trkpt lat="43.44178" lon="2.63311">
        <ele>856.5</ele>
        <time>2022-06-21T12:35:02Z</time>
      </trkpt>
      <trkpt lat="43.44177" lon="2.63311">
        <ele>856.6</ele>
        <time>2022-06-21T12:35:03Z</time>
      </trkpt>
      <trkpt lat="43.44177" lon="2.6331">
        <ele>856.6</ele>
        <time>2022-06-21T12:35:04Z</time>
      </trkpt>
      <trkpt lat="43.44177" lon="2.6331">
        <ele>856.6</ele>
        <time>2022-06-21T12:35:05Z</time>
      </trkpt>
      <trkpt lat="43.44177" lon="2.6331">
        <ele>856.6</ele>
        <time>2022-06-21T12:35:06Z</time>
      </trkpt>
      <trkpt lat="43.44176" lon="2.63309">
        <ele>856.7</ele>
        <time>2022-06-21T12:35:07Z</time>
      </trkpt>
      <trkpt lat="43.44175" lon="2.63307">
        <ele>856.7</ele>
        <time>2022-06-21T12:35:08Z</time>
      </trkpt>
      <trkpt lat="43.44173" lon="2.63305">
        <ele>856.8</ele>
        <time>2022-06-21T12:35:09Z</time>
      </trkpt>
      <trkpt lat="43.44172" lon="2.63304">
        <ele>856.8</ele>
        <time>2022-06-21T12:35:10Z</time>
      </trkpt>
      <trkpt lat="43.4417" lon="2.63301">
        <ele>856.9</ele>
        <time>2022-06-21T12:35:11Z</time>
      </trkpt>
      <trkpt lat="43.44169" lon="2.633">
        <ele>857</ele>
        <time>2022-06-21T12:35:12Z</time>
      </trkpt>
      <trkpt lat="43.44168" lon="2.63298">
        <ele>857</ele>
        <time>2022-06-21T12:35:13Z</time>
      </trkpt>
      <trkpt lat="43.44167" lon="2.63297">
        <ele>857.1</ele>
        <time>2022-06-21T12:35:14Z</time>
      </trkpt>
      <trkpt lat="43.44166" lon="2.63297">
        <ele>857.1</ele>
        <time>2022-06-21T12:35:15Z</time>
      </trkpt>
      <trkpt lat="43.44166" lon="2.63296">
        <ele>857.1</ele>
        <time>2022-06-21T12:35:16Z</time>
      </trkpt>
      <trkpt lat="43.44166" lon="2.63296">
        <ele>857.1</ele>
        <time>2022-06-21T12:35:17Z</time>
      </trkpt>
      <trkpt lat="43.44166" lon="2.63296">
        <ele>857.1</ele>
        <time>2022-06-21T12:35:18Z</time>
      </trkpt>
      <trkpt lat="43.44166" lon="2.63296">
        <ele>857.1</ele>
        <time>2022-06-21T12:35:19Z</time>
      </trkpt>
      <trkpt lat="43.44166" lon="2.63296">
        <ele>857.1</ele>
        <time>2022-06-21T12:35:20Z</time>
      </trkpt>
      <trkpt lat="43.44166" lon="2.63296">
        <ele>857.1</ele>
        <time>2022-06-21T12:35:21Z</time>
      </trkpt>
      <trkpt lat="43.44166" lon="2.63296">
        <ele>857.1</ele>
        <time>2022-06-21T12:35:22Z</time>
      </trkpt>
      <trkpt lat="43.44165" lon="2.63296">
        <ele>857.1</ele>
        <time>2022-06-21T12:35:23Z</time>
      </trkpt>
      <trkpt lat="43.44165" lon="2.63295">
        <ele>857.2</ele>
        <time>2022-06-21T12:35:24Z</time>
      </trkpt>
      <trkpt lat="43.44163" lon="2.63294">
        <ele>857.2</ele>
        <time>2022-06-21T12:35:25Z</time>
      </trkpt>
      <trkpt lat="43.44162" lon="2.63292">
        <ele>857.3</ele>
        <time>2022-06-21T12:35:26Z</time>
      </trkpt>
      <trkpt lat="43.44161" lon="2.63291">
        <ele>857.3</ele>
        <time>2022-06-21T12:35:27Z</time>
      </trkpt>
      <trkpt lat="43.4416" lon="2.6329">
        <ele>857.4</ele>
        <time>2022-06-21T12:35:28Z</time>
      </trkpt>
      <trkpt lat="43.4416" lon="2.63289">
        <ele>857.4</ele>
        <time>2022-06-21T12:35:29Z</time>
      </trkpt>
      <trkpt lat="43.4416" lon="2.63289">
        <ele>857.4</ele>
        <time>2022-06-21T12:35:30Z</time>
      </trkpt>
      <trkpt lat="43.4416" lon="2.63289">
        <ele>857.4</ele>
        <time>2022-06-21T12:35:31Z</time>
      </trkpt>
      <trkpt lat="43.44159" lon="2.63288">
        <ele>857.4</ele>
        <time>2022-06-21T12:35:32Z</time>
      </trkpt>
      <trkpt lat="43.44159" lon="2.63287">
        <ele>857.5</ele>
        <time>2022-06-21T12:35:33Z</time>
      </trkpt>
      <trkpt lat="43.44158" lon="2.63286">
        <ele>857.5</ele>
        <time>2022-06-21T12:35:34Z</time>
      </trkpt>
      <trkpt lat="43.44157" lon="2.63284">
        <ele>857.6</ele>
        <time>2022-06-21T12:35:35Z</time>
      </trkpt>
      <trkpt lat="43.44156" lon="2.63283">
        <ele>857.6</ele>
        <time>2022-06-21T12:35:36Z</time>
      </trkpt>
      <trkpt lat="43.44156" lon="2.63282">
        <ele>857.7</ele>
        <time>2022-06-21T12:35:37Z</time>
      </trkpt>
      <trkpt lat="43.44156" lon="2.63281">
        <ele>857.7</ele>
        <time>2022-06-21T12:35:38Z</time>
      </trkpt>
      <trkpt lat="43.44155" lon="2.63281">
        <ele>857.7</ele>
        <time>2022-06-21T12:35:39Z</time>
      </trkpt>
      <trkpt lat="43.44155" lon="2.63281">
        <ele>857.7</ele>
        <time>2022-06-21T12:35:40Z</time>
      </trkpt>
      <trkpt lat="43.44155" lon="2.63281">
        <ele>857.7</ele>
        <time>2022-06-21T12:35:41Z</time>
      </trkpt>
      <trkpt lat="43.44155" lon="2.63281">
        <ele>857.7</ele>
        <time>2022-06-21T12:35:42Z</time>
      </trkpt>
      <trkpt lat="43.44155" lon="2.63281">
        <ele>857.7</ele>
        <time>2022-06-21T12:35:43Z</time>
      </trkpt>
      <trkpt lat="43.44155" lon="2.63281">
        <ele>857.7</ele>
        <time>2022-06-21T12:35:44Z</time>
      </trkpt>
      <trkpt lat="43.44155" lon="2.6328">
        <ele>857.7</ele>
        <time>2022-06-21T12:35:45Z</time>
      </trkpt>
      <trkpt lat="43.44155" lon="2.6328">
        <ele>857.7</ele>
        <time>2022-06-21T12:35:46Z</time>
      </trkpt>
      <trkpt lat="43.44155" lon="2.6328">
        <ele>857.7</ele>
        <time>2022-06-21T12:35:47Z</time>
      </trkpt>
      <trkpt lat="43.44155" lon="2.6328">
        <ele>857.7</ele>
        <time>2022-06-21T12:35:48Z</time>
      </trkpt>
      <trkpt lat="43.44155" lon="2.6328">
        <ele>857.7</ele>
        <time>2022-06-21T12:35:49Z</time>
      </trkpt>
      <trkpt lat="43.44154" lon="2.6328">
        <ele>857.7</ele>
        <time>2022-06-21T12:35:50Z</time>
      </trkpt>
      <trkpt lat="43.44154" lon="2.6328">
        <ele>857.7</ele>
        <time>2022-06-21T12:35:51Z</time>
      </trkpt>
      <trkpt lat="43.44154" lon="2.63279">
        <ele>857.7</ele>
        <time>2022-06-21T12:35:52Z</time>
      </trkpt>
      <trkpt lat="43.44154" lon="2.63279">
        <ele>857.7</ele>
        <time>2022-06-21T12:35:53Z</time>
      </trkpt>
      <trkpt lat="43.44154" lon="2.63279">
        <ele>857.7</ele>
        <time>2022-06-21T12:35:54Z</time>
      </trkpt>
      <trkpt lat="43.44154" lon="2.63279">
        <ele>857.8</ele>
        <time>2022-06-21T12:35:55Z</time>
      </trkpt>
      <trkpt lat="43.44154" lon="2.63279">
        <ele>857.8</ele>
        <time>2022-06-21T12:35:56Z</time>
      </trkpt>
      <trkpt lat="43.44154" lon="2.63279">
        <ele>857.8</ele>
        <time>2022-06-21T12:35:57Z</time>
      </trkpt>
      <trkpt lat="43.44154" lon="2.63279">
        <ele>857.8</ele>
        <time>2022-06-21T12:35:58Z</time>
      </trkpt>
      <trkpt lat="43.44154" lon="2.63278">
        <ele>857.8</ele>
        <time>2022-06-21T12:35:59Z</time>
      </trkpt>
      <trkpt lat="43.44153" lon="2.63277">
        <ele>857.8</ele>
        <time>2022-06-21T12:36:00Z</time>
      </trkpt>
      <trkpt lat="43.44152" lon="2.63275">
        <ele>857.9</ele>
        <time>2022-06-21T12:36:01Z</time>
      </trkpt>
      <trkpt lat="43.4415" lon="2.63274">
        <ele>857.9</ele>
        <time>2022-06-21T12:36:02Z</time>
      </trkpt>
      <trkpt lat="43.4415" lon="2.63273">
        <ele>858</ele>
        <time>2022-06-21T12:36:03Z</time>
      </trkpt>
      <trkpt lat="43.4415" lon="2.63272">
        <ele>858</ele>
        <time>2022-06-21T12:36:04Z</time>
      </trkpt>
      <trkpt lat="43.44149" lon="2.63271">
        <ele>858</ele>
        <time>2022-06-21T12:36:05Z</time>
      </trkpt>
      <trkpt lat="43.44148" lon="2.6327">
        <ele>858.1</ele>
        <time>2022-06-21T12:36:06Z</time>
      </trkpt>
      <trkpt lat="43.44148" lon="2.63269">
        <ele>858.1</ele>
        <time>2022-06-21T12:36:07Z</time>
      </trkpt>
      <trkpt lat="43.44147" lon="2.63268">
        <ele>858.1</ele>
        <time>2022-06-21T12:36:08Z</time>
      </trkpt>
      <trkpt lat="43.44146" lon="2.63266">
        <ele>858.2</ele>
        <time>2022-06-21T12:36:09Z</time>
      </trkpt>
      <trkpt lat="43.44144" lon="2.63263">
        <ele>858.3</ele>
        <time>2022-06-21T12:36:10Z</time>
      </trkpt>
      <trkpt lat="43.44144" lon="2.63262">
        <ele>858.3</ele>
        <time>2022-06-21T12:36:11Z</time>
      </trkpt>
      <trkpt lat="43.44142" lon="2.63259">
        <ele>858.4</ele>
        <time>2022-06-21T12:36:12Z</time>
      </trkpt>
      <trkpt lat="43.44141" lon="2.63257">
        <ele>858.5</ele>
        <time>2022-06-21T12:36:13Z</time>
      </trkpt>
      <trkpt lat="43.4414" lon="2.63255">
        <ele>858.6</ele>
        <time>2022-06-21T12:36:14Z</time>
      </trkpt>
      <trkpt lat="43.44139" lon="2.63254">
        <ele>858.6</ele>
        <time>2022-06-21T12:36:15Z</time>
      </trkpt>
      <trkpt lat="43.44138" lon="2.63253">
        <ele>858.6</ele>
        <time>2022-06-21T12:36:16Z</time>
      </trkpt>
      <trkpt lat="43.44138" lon="2.63253">
        <ele>858.6</ele>
        <time>2022-06-21T12:36:17Z</time>
      </trkpt>
      <trkpt lat="43.44138" lon="2.63253">
        <ele>858.6</ele>
        <time>2022-06-21T12:36:18Z</time>
      </trkpt>
      <trkpt lat="43.44138" lon="2.63253">
        <ele>858.6</ele>
        <time>2022-06-21T12:36:19Z</time>
      </trkpt>
      <trkpt lat="43.44138" lon="2.63253">
        <ele>858.6</ele>
        <time>2022-06-21T12:36:20Z</time>
      </trkpt>
      <trkpt lat="43.44138" lon="2.63253">
        <ele>858.6</ele>
        <time>2022-06-21T12:36:21Z</time>
      </trkpt>
      <trkpt lat="43.44138" lon="2.63253">
        <ele>858.6</ele>
        <time>2022-06-21T12:36:22Z</time>
      </trkpt>
      <trkpt lat="43.44138" lon="2.63253">
        <ele>858.6</ele>
        <time>2022-06-21T12:36:23Z</time>
      </trkpt>
      <trkpt lat="43.44138" lon="2.63253">
        <ele>858.6</ele>
        <time>2022-06-21T12:36:24Z</time>
      </trkpt>
      <trkpt lat="43.44138" lon="2.63253">
        <ele>858.6</ele>
        <time>2022-06-21T12:36:25Z</time>
      </trkpt>
      <trkpt lat="43.44138" lon="2.63252">
        <ele>858.6</ele>
        <time>2022-06-21T12:36:26Z</time>
      </trkpt>
      <trkpt lat="43.44137" lon="2.63252">
        <ele>858.7</ele>
        <time>2022-06-21T12:36:27Z</time>
      </trkpt>
      <trkpt lat="43.44136" lon="2.6325">
        <ele>858.7</ele>
        <time>2022-06-21T12:36:28Z</time>
      </trkpt>
      <trkpt lat="43.44136" lon="2.6325">
        <ele>858.7</ele>
        <time>2022-06-21T12:36:29Z</time>
      </trkpt>
      <trkpt lat="43.44135" lon="2.63249">
        <ele>858.8</ele>
        <time>2022-06-21T12:36:30Z</time>
      </trkpt>
      <trkpt lat="43.44134" lon="2.63247">
        <ele>858.9</ele>
        <time>2022-06-21T12:36:31Z</time>
      </trkpt>
      <trkpt lat="43.44133" lon="2.63246">
        <ele>858.9</ele>
        <time>2022-06-21T12:36:32Z</time>
      </trkpt>
      <trkpt lat="43.44133" lon="2.63246">
        <ele>858.9</ele>
        <time>2022-06-21T12:36:33Z</time>
      </trkpt>
      <trkpt lat="43.44132" lon="2.63245">
        <ele>858.9</ele>
        <time>2022-06-21T12:36:34Z</time>
      </trkpt>
      <trkpt lat="43.44131" lon="2.63244">
        <ele>859</ele>
        <time>2022-06-21T12:36:35Z</time>
      </trkpt>
      <trkpt lat="43.4413" lon="2.63243">
        <ele>859</ele>
        <time>2022-06-21T12:36:36Z</time>
      </trkpt>
      <trkpt lat="43.44129" lon="2.63242">
        <ele>859.1</ele>
        <time>2022-06-21T12:36:37Z</time>
      </trkpt>
      <trkpt lat="43.44128" lon="2.63241">
        <ele>859.1</ele>
        <time>2022-06-21T12:36:38Z</time>
      </trkpt>
      <trkpt lat="43.44127" lon="2.63241">
        <ele>859.2</ele>
        <time>2022-06-21T12:36:39Z</time>
      </trkpt>
      <trkpt lat="43.44125" lon="2.6324">
        <ele>859.2</ele>
        <time>2022-06-21T12:36:40Z</time>
      </trkpt>
      <trkpt lat="43.44124" lon="2.63239">
        <ele>859.3</ele>
        <time>2022-06-21T12:36:41Z</time>
      </trkpt>
      <trkpt lat="43.44123" lon="2.63239">
        <ele>859.3</ele>
        <time>2022-06-21T12:36:42Z</time>
      </trkpt>
      <trkpt lat="43.44123" lon="2.63238">
        <ele>859.3</ele>
        <time>2022-06-21T12:36:43Z</time>
      </trkpt>
      <trkpt lat="43.44123" lon="2.63238">
        <ele>859.3</ele>
        <time>2022-06-21T12:36:44Z</time>
      </trkpt>
      <trkpt lat="43.44122" lon="2.63238">
        <ele>859.3</ele>
        <time>2022-06-21T12:36:45Z</time>
      </trkpt>
      <trkpt lat="43.44122" lon="2.63238">
        <ele>859.3</ele>
        <time>2022-06-21T12:36:46Z</time>
      </trkpt>
      <trkpt lat="43.44122" lon="2.63238">
        <ele>859.3</ele>
        <time>2022-06-21T12:36:47Z</time>
      </trkpt>
      <trkpt lat="43.44122" lon="2.63238">
        <ele>859.3</ele>
        <time>2022-06-21T12:36:48Z</time>
      </trkpt>
      <trkpt lat="43.44122" lon="2.63238">
        <ele>859.3</ele>
        <time>2022-06-21T12:36:49Z</time>
      </trkpt>
      <trkpt lat="43.44122" lon="2.63238">
        <ele>859.3</ele>
        <time>2022-06-21T12:36:50Z</time>
      </trkpt>
      <trkpt lat="43.44122" lon="2.63238">
        <ele>859.3</ele>
        <time>2022-06-21T12:36:51Z</time>
      </trkpt>
      <trkpt lat="43.44122" lon="2.63238">
        <ele>859.3</ele>
        <time>2022-06-21T12:36:52Z</time>
      </trkpt>
      <trkpt lat="43.44122" lon="2.63237">
        <ele>859.4</ele>
        <time>2022-06-21T12:36:53Z</time>
      </trkpt>
      <trkpt lat="43.44121" lon="2.63236">
        <ele>859.4</ele>
        <time>2022-06-21T12:36:54Z</time>
      </trkpt>
      <trkpt lat="43.4412" lon="2.63236">
        <ele>859.4</ele>
        <time>2022-06-21T12:36:55Z</time>
      </trkpt>
      <trkpt lat="43.44119" lon="2.63235">
        <ele>859.5</ele>
        <time>2022-06-21T12:36:56Z</time>
      </trkpt>
      <trkpt lat="43.44118" lon="2.63235">
        <ele>859.5</ele>
        <time>2022-06-21T12:36:57Z</time>
      </trkpt>
      <trkpt lat="43.44117" lon="2.63234">
        <ele>859.6</ele>
        <time>2022-06-21T12:36:58Z</time>
      </trkpt>
      <trkpt lat="43.44116" lon="2.63234">
        <ele>859.6</ele>
        <time>2022-06-21T12:36:59Z</time>
      </trkpt>
      <trkpt lat="43.44115" lon="2.63234">
        <ele>859.6</ele>
        <time>2022-06-21T12:37:00Z</time>
      </trkpt>
      <trkpt lat="43.44115" lon="2.63233">
        <ele>859.6</ele>
        <time>2022-06-21T12:37:01Z</time>
      </trkpt>
      <trkpt lat="43.44115" lon="2.63233">
        <ele>859.6</ele>
        <time>2022-06-21T12:37:02Z</time>
      </trkpt>
      <trkpt lat="43.44114" lon="2.63233">
        <ele>859.7</ele>
        <time>2022-06-21T12:37:03Z</time>
      </trkpt>
      <trkpt lat="43.44112" lon="2.63232">
        <ele>859.7</ele>
        <time>2022-06-21T12:37:04Z</time>
      </trkpt>
      <trkpt lat="43.44111" lon="2.63232">
        <ele>859.8</ele>
        <time>2022-06-21T12:37:05Z</time>
      </trkpt>
      <trkpt lat="43.4411" lon="2.63232">
        <ele>859.8</ele>
        <time>2022-06-21T12:37:06Z</time>
      </trkpt>
      <trkpt lat="43.44109" lon="2.63232">
        <ele>859.8</ele>
        <time>2022-06-21T12:37:07Z</time>
      </trkpt>
      <trkpt lat="43.44108" lon="2.63232">
        <ele>859.9</ele>
        <time>2022-06-21T12:37:08Z</time>
      </trkpt>
      <trkpt lat="43.44107" lon="2.63232">
        <ele>859.9</ele>
        <time>2022-06-21T12:37:09Z</time>
      </trkpt>
      <trkpt lat="43.44106" lon="2.63232">
        <ele>860</ele>
        <time>2022-06-21T12:37:10Z</time>
      </trkpt>
      <trkpt lat="43.44105" lon="2.63232">
        <ele>860</ele>
        <time>2022-06-21T12:37:11Z</time>
      </trkpt>
      <trkpt lat="43.44104" lon="2.63232">
        <ele>860</ele>
        <time>2022-06-21T12:37:12Z</time>
      </trkpt>
      <trkpt lat="43.44103" lon="2.63232">
        <ele>860.1</ele>
        <time>2022-06-21T12:37:13Z</time>
      </trkpt>
      <trkpt lat="43.44102" lon="2.63232">
        <ele>860.1</ele>
        <time>2022-06-21T12:37:14Z</time>
      </trkpt>
      <trkpt lat="43.44101" lon="2.63232">
        <ele>860.1</ele>
        <time>2022-06-21T12:37:15Z</time>
      </trkpt>
      <trkpt lat="43.441" lon="2.63233">
        <ele>860.2</ele>
        <time>2022-06-21T12:37:16Z</time>
      </trkpt>
      <trkpt lat="43.44099" lon="2.63233">
        <ele>860.2</ele>
        <time>2022-06-21T12:37:17Z</time>
      </trkpt>
      <trkpt lat="43.44099" lon="2.63234">
        <ele>860.2</ele>
        <time>2022-06-21T12:37:18Z</time>
      </trkpt>
      <trkpt lat="43.44098" lon="2.63234">
        <ele>860.3</ele>
        <time>2022-06-21T12:37:19Z</time>
      </trkpt>
      <trkpt lat="43.44097" lon="2.63234">
        <ele>860.3</ele>
        <time>2022-06-21T12:37:20Z</time>
      </trkpt>
      <trkpt lat="43.44096" lon="2.63234">
        <ele>860.3</ele>
        <time>2022-06-21T12:37:21Z</time>
      </trkpt>
      <trkpt lat="43.44095" lon="2.63235">
        <ele>860.4</ele>
        <time>2022-06-21T12:37:22Z</time>
      </trkpt>
      <trkpt lat="43.44094" lon="2.63235">
        <ele>860.4</ele>
        <time>2022-06-21T12:37:23Z</time>
      </trkpt>
      <trkpt lat="43.44093" lon="2.63235">
        <ele>860.4</ele>
        <time>2022-06-21T12:37:24Z</time>
      </trkpt>
      <trkpt lat="43.44092" lon="2.63235">
        <ele>860.5</ele>
        <time>2022-06-21T12:37:25Z</time>
      </trkpt>
      <trkpt lat="43.44091" lon="2.63235">
        <ele>860.5</ele>
        <time>2022-06-21T12:37:26Z</time>
      </trkpt>
      <trkpt lat="43.44089" lon="2.63236">
        <ele>860.6</ele>
        <time>2022-06-21T12:37:27Z</time>
      </trkpt>
      <trkpt lat="43.44089" lon="2.63236">
        <ele>860.6</ele>
        <time>2022-06-21T12:37:28Z</time>
      </trkpt>
      <trkpt lat="43.44088" lon="2.63236">
        <ele>860.6</ele>
        <time>2022-06-21T12:37:29Z</time>
      </trkpt>
      <trkpt lat="43.44087" lon="2.63236">
        <ele>860.6</ele>
        <time>2022-06-21T12:37:30Z</time>
      </trkpt>
      <trkpt lat="43.44086" lon="2.63236">
        <ele>860.7</ele>
        <time>2022-06-21T12:37:31Z</time>
      </trkpt>
      <trkpt lat="43.44085" lon="2.63236">
        <ele>860.7</ele>
        <time>2022-06-21T12:37:32Z</time>
      </trkpt>
      <trkpt lat="43.44084" lon="2.63236">
        <ele>860.7</ele>
        <time>2022-06-21T12:37:33Z</time>
      </trkpt>
      <trkpt lat="43.44083" lon="2.63236">
        <ele>860.8</ele>
        <time>2022-06-21T12:37:34Z</time>
      </trkpt>
      <trkpt lat="43.44082" lon="2.63236">
        <ele>860.8</ele>
        <time>2022-06-21T12:37:35Z</time>
      </trkpt>
      <trkpt lat="43.44081" lon="2.63236">
        <ele>860.8</ele>
        <time>2022-06-21T12:37:36Z</time>
      </trkpt>
      <trkpt lat="43.4408" lon="2.63236">
        <ele>860.9</ele>
        <time>2022-06-21T12:37:37Z</time>
      </trkpt>
      <trkpt lat="43.44079" lon="2.63236">
        <ele>860.9</ele>
        <time>2022-06-21T12:37:38Z</time>
      </trkpt>
      <trkpt lat="43.44078" lon="2.63236">
        <ele>861</ele>
        <time>2022-06-21T12:37:39Z</time>
      </trkpt>
      <trkpt lat="43.44077" lon="2.63237">
        <ele>861</ele>
        <time>2022-06-21T12:37:40Z</time>
      </trkpt>
      <trkpt lat="43.44076" lon="2.63237">
        <ele>861</ele>
        <time>2022-06-21T12:37:41Z</time>
      </trkpt>
      <trkpt lat="43.44075" lon="2.63237">
        <ele>861.1</ele>
        <time>2022-06-21T12:37:42Z</time>
      </trkpt>
      <trkpt lat="43.44074" lon="2.63237">
        <ele>861.1</ele>
        <time>2022-06-21T12:37:43Z</time>
      </trkpt>
      <trkpt lat="43.44074" lon="2.63237">
        <ele>861.1</ele>
        <time>2022-06-21T12:37:44Z</time>
      </trkpt>
      <trkpt lat="43.44074" lon="2.63237">
        <ele>861.1</ele>
        <time>2022-06-21T12:37:45Z</time>
      </trkpt>
      <trkpt lat="43.44074" lon="2.63237">
        <ele>861.1</ele>
        <time>2022-06-21T12:37:46Z</time>
      </trkpt>
      <trkpt lat="43.44073" lon="2.63237">
        <ele>861.1</ele>
        <time>2022-06-21T12:37:47Z</time>
      </trkpt>
      <trkpt lat="43.44072" lon="2.63237">
        <ele>861.2</ele>
        <time>2022-06-21T12:37:48Z</time>
      </trkpt>
      <trkpt lat="43.44071" lon="2.63237">
        <ele>861.2</ele>
        <time>2022-06-21T12:37:49Z</time>
      </trkpt>
      <trkpt lat="43.4407" lon="2.63237">
        <ele>861.3</ele>
        <time>2022-06-21T12:37:50Z</time>
      </trkpt>
      <trkpt lat="43.44069" lon="2.63237">
        <ele>861.3</ele>
        <time>2022-06-21T12:37:51Z</time>
      </trkpt>
      <trkpt lat="43.44068" lon="2.63237">
        <ele>861.3</ele>
        <time>2022-06-21T12:37:52Z</time>
      </trkpt>
      <trkpt lat="43.44067" lon="2.63237">
        <ele>861.4</ele>
        <time>2022-06-21T12:37:53Z</time>
      </trkpt>
      <trkpt lat="43.44066" lon="2.63237">
        <ele>861.4</ele>
        <time>2022-06-21T12:37:54Z</time>
      </trkpt>
      <trkpt lat="43.44066" lon="2.63237">
        <ele>861.4</ele>
        <time>2022-06-21T12:37:55Z</time>
      </trkpt>
      <trkpt lat="43.44066" lon="2.63237">
        <ele>861.4</ele>
        <time>2022-06-21T12:37:56Z</time>
      </trkpt>
      <trkpt lat="43.44066" lon="2.63237">
        <ele>861.4</ele>
        <time>2022-06-21T12:37:57Z</time>
      </trkpt>
      <trkpt lat="43.44066" lon="2.63237">
        <ele>861.4</ele>
        <time>2022-06-21T12:37:58Z</time>
      </trkpt>
      <trkpt lat="43.44066" lon="2.63237">
        <ele>861.4</ele>
        <time>2022-06-21T12:37:59Z</time>
      </trkpt>
      <trkpt lat="43.44066" lon="2.63237">
        <ele>861.4</ele>
        <time>2022-06-21T12:38:00Z</time>
      </trkpt>
      <trkpt lat="43.44066" lon="2.63237">
        <ele>861.4</ele>
        <time>2022-06-21T12:38:01Z</time>
      </trkpt>
      <trkpt lat="43.44066" lon="2.63237">
        <ele>861.4</ele>
        <time>2022-06-21T12:38:02Z</time>
      </trkpt>
      <trkpt lat="43.44066" lon="2.63237">
        <ele>861.4</ele>
        <time>2022-06-21T12:38:03Z</time>
      </trkpt>
      <trkpt lat="43.44066" lon="2.63237">
        <ele>861.4</ele>
        <time>2022-06-21T12:38:04Z</time>
      </trkpt>
      <trkpt lat="43.44065" lon="2.63237">
        <ele>861.4</ele>
        <time>2022-06-21T12:38:05Z</time>
      </trkpt>
      <trkpt lat="43.44065" lon="2.63237">
        <ele>861.4</ele>
        <time>2022-06-21T12:38:06Z</time>
      </trkpt>
      <trkpt lat="43.44066" lon="2.63237">
        <ele>861.5</ele>
        <time>2022-06-21T12:38:07Z</time>
      </trkpt>
      <trkpt lat="43.44066" lon="2.63237">
        <ele>861.5</ele>
        <time>2022-06-21T12:38:08Z</time>
      </trkpt>
      <trkpt lat="43.44066" lon="2.63237">
        <ele>861.5</ele>
        <time>2022-06-21T12:38:09Z</time>
      </trkpt>
      <trkpt lat="43.44066" lon="2.63237">
        <ele>861.5</ele>
        <time>2022-06-21T12:38:10Z</time>
      </trkpt>
      <trkpt lat="43.44066" lon="2.63237">
        <ele>861.5</ele>
        <time>2022-06-21T12:38:11Z</time>
      </trkpt>
      <trkpt lat="43.44066" lon="2.63237">
        <ele>861.5</ele>
        <time>2022-06-21T12:38:12Z</time>
      </trkpt>
      <trkpt lat="43.44066" lon="2.63237">
        <ele>861.5</ele>
        <time>2022-06-21T12:38:13Z</time>
      </trkpt>
      <trkpt lat="43.44066" lon="2.63237">
        <ele>861.5</ele>
        <time>2022-06-21T12:38:14Z</time>
      </trkpt>
      <trkpt lat="43.44066" lon="2.63237">
        <ele>861.5</ele>
        <time>2022-06-21T12:38:15Z</time>
      </trkpt>
      <trkpt lat="43.44066" lon="2.63237">
        <ele>861.5</ele>
        <time>2022-06-21T12:38:16Z</time>
      </trkpt>
      <trkpt lat="43.44066" lon="2.63237">
        <ele>861.5</ele>
        <time>2022-06-21T12:38:17Z</time>
      </trkpt>
      <trkpt lat="43.44066" lon="2.63237">
        <ele>861.5</ele>
        <time>2022-06-21T12:38:18Z</time>
      </trkpt>
      <trkpt lat="43.44066" lon="2.63237">
        <ele>861.5</ele>
        <time>2022-06-21T12:38:19Z</time>
      </trkpt>
      <trkpt lat="43.44066" lon="2.63237">
        <ele>861.5</ele>
        <time>2022-06-21T12:38:20Z</time>
      </trkpt>
      <trkpt lat="43.44066" lon="2.63237">
        <ele>861.5</ele>
        <time>2022-06-21T12:38:21Z</time>
      </trkpt>
      <trkpt lat="43.44066" lon="2.63237">
        <ele>861.5</ele>
        <time>2022-06-21T12:38:22Z</time>
      </trkpt>
      <trkpt lat="43.44066" lon="2.63237">
        <ele>861.5</ele>
        <time>2022-06-21T12:38:23Z</time>
      </trkpt>
      <trkpt lat="43.44067" lon="2.63237">
        <ele>861.5</ele>
        <time>2022-06-21T12:38:24Z</time>
      </trkpt>
      <trkpt lat="43.44067" lon="2.63237">
        <ele>861.5</ele>
        <time>2022-06-21T12:38:25Z</time>
      </trkpt>
      <trkpt lat="43.44067" lon="2.63237">
        <ele>861.5</ele>
        <time>2022-06-21T12:38:26Z</time>
      </trkpt>
      <trkpt lat="43.44067" lon="2.63237">
        <ele>861.5</ele>
        <time>2022-06-21T12:38:27Z</time>
      </trkpt>
      <trkpt lat="43.44067" lon="2.63237">
        <ele>861.5</ele>
        <time>2022-06-21T12:38:28Z</time>
      </trkpt>
      <trkpt lat="43.44067" lon="2.63237">
        <ele>861.5</ele>
        <time>2022-06-21T12:38:29Z</time>
      </trkpt>
      <trkpt lat="43.44067" lon="2.63237">
        <ele>861.5</ele>
        <time>2022-06-21T12:38:30Z</time>
      </trkpt>
      <trkpt lat="43.44067" lon="2.63237">
        <ele>861.5</ele>
        <time>2022-06-21T12:38:31Z</time>
      </trkpt>
      <trkpt lat="43.44067" lon="2.63237">
        <ele>861.5</ele>
        <time>2022-06-21T12:38:32Z</time>
      </trkpt>
      <trkpt lat="43.44067" lon="2.63237">
        <ele>861.5</ele>
        <time>2022-06-21T12:38:33Z</time>
      </trkpt>
      <trkpt lat="43.44067" lon="2.63237">
        <ele>861.5</ele>
        <time>2022-06-21T12:38:34Z</time>
      </trkpt>
      <trkpt lat="43.44067" lon="2.63237">
        <ele>861.5</ele>
        <time>2022-06-21T12:38:35Z</time>
      </trkpt>
      <trkpt lat="43.44067" lon="2.63237">
        <ele>861.5</ele>
        <time>2022-06-21T12:38:36Z</time>
      </trkpt>
      <trkpt lat="43.44067" lon="2.63237">
        <ele>861.5</ele>
        <time>2022-06-21T12:38:37Z</time>
      </trkpt>
      <trkpt lat="43.44067" lon="2.63236">
        <ele>861.5</ele>
        <time>2022-06-21T12:38:38Z</time>
      </trkpt>
      <trkpt lat="43.44067" lon="2.63236">
        <ele>861.5</ele>
        <time>2022-06-21T12:38:39Z</time>
      </trkpt>
      <trkpt lat="43.44067" lon="2.63236">
        <ele>861.5</ele>
        <time>2022-06-21T12:38:40Z</time>
      </trkpt>
      <trkpt lat="43.44067" lon="2.63236">
        <ele>861.5</ele>
        <time>2022-06-21T12:38:41Z</time>
      </trkpt>
      <trkpt lat="43.44067" lon="2.63236">
        <ele>861.5</ele>
        <time>2022-06-21T12:38:42Z</time>
      </trkpt>
      <trkpt lat="43.44067" lon="2.63236">
        <ele>861.5</ele>
        <time>2022-06-21T12:38:43Z</time>
      </trkpt>
      <trkpt lat="43.44067" lon="2.63236">
        <ele>861.5</ele>
        <time>2022-06-21T12:38:44Z</time>
      </trkpt>
      <trkpt lat="43.44067" lon="2.63236">
        <ele>861.5</ele>
        <time>2022-06-21T12:38:45Z</time>
      </trkpt>
      <trkpt lat="43.44067" lon="2.63236">
        <ele>861.5</ele>
        <time>2022-06-21T12:38:46Z</time>
      </trkpt>
      <trkpt lat="43.44067" lon="2.63236">
        <ele>861.5</ele>
        <time>2022-06-21T12:38:47Z</time>
      </trkpt>
      <trkpt lat="43.44067" lon="2.63236">
        <ele>861.5</ele>
        <time>2022-06-21T12:38:48Z</time>
      </trkpt>
      <trkpt lat="43.44067" lon="2.63236">
        <ele>861.5</ele>
        <time>2022-06-21T12:38:49Z</time>
      </trkpt>
      <trkpt lat="43.44067" lon="2.63236">
        <ele>861.5</ele>
        <time>2022-06-21T12:38:50Z</time>
      </trkpt>
      <trkpt lat="43.44067" lon="2.63236">
        <ele>861.5</ele>
        <time>2022-06-21T12:38:51Z</time>
      </trkpt>
      <trkpt lat="43.44067" lon="2.63236">
        <ele>861.5</ele>
        <time>2022-06-21T12:38:52Z</time>
      </trkpt>
      <trkpt lat="43.44067" lon="2.63236">
        <ele>861.5</ele>
        <time>2022-06-21T12:38:53Z</time>
      </trkpt>
      <trkpt lat="43.44067" lon="2.63236">
        <ele>861.5</ele>
        <time>2022-06-21T12:38:54Z</time>
      </trkpt>
      <trkpt lat="43.44067" lon="2.63236">
        <ele>861.5</ele>
        <time>2022-06-21T12:38:55Z</time>
      </trkpt>
      <trkpt lat="43.44067" lon="2.63236">
        <ele>861.5</ele>
        <time>2022-06-21T12:38:56Z</time>
      </trkpt>
      <trkpt lat="43.44067" lon="2.63236">
        <ele>861.5</ele>
        <time>2022-06-21T12:38:57Z</time>
      </trkpt>
      <trkpt lat="43.44067" lon="2.63236">
        <ele>861.5</ele>
        <time>2022-06-21T12:38:58Z</time>
      </trkpt>
      <trkpt lat="43.44067" lon="2.63236">
        <ele>861.5</ele>
        <time>2022-06-21T12:38:59Z</time>
      </trkpt>
      <trkpt lat="43.44067" lon="2.63236">
        <ele>861.5</ele>
        <time>2022-06-21T12:39:00Z</time>
      </trkpt>
      <trkpt lat="43.44067" lon="2.63236">
        <ele>861.5</ele>
        <time>2022-06-21T12:39:01Z</time>
      </trkpt>
      <trkpt lat="43.44067" lon="2.63236">
        <ele>861.5</ele>
        <time>2022-06-21T12:39:02Z</time>
      </trkpt>
      <trkpt lat="43.44067" lon="2.63236">
        <ele>861.5</ele>
        <time>2022-06-21T12:39:03Z</time>
      </trkpt>
      <trkpt lat="43.44067" lon="2.63236">
        <ele>861.5</ele>
        <time>2022-06-21T12:39:04Z</time>
      </trkpt>
      <trkpt lat="43.44067" lon="2.63236">
        <ele>861.5</ele>
        <time>2022-06-21T12:39:05Z</time>
      </trkpt>
      <trkpt lat="43.44067" lon="2.63236">
        <ele>861.5</ele>
        <time>2022-06-21T12:39:06Z</time>
      </trkpt>
      <trkpt lat="43.44067" lon="2.63236">
        <ele>861.5</ele>
        <time>2022-06-21T12:39:07Z</time>
      </trkpt>
      <trkpt lat="43.44067" lon="2.63236">
        <ele>861.5</ele>
        <time>2022-06-21T12:39:08Z</time>
      </trkpt>
      <trkpt lat="43.44067" lon="2.63236">
        <ele>861.5</ele>
        <time>2022-06-21T12:39:09Z</time>
      </trkpt>
      <trkpt lat="43.44067" lon="2.63236">
        <ele>861.5</ele>
        <time>2022-06-21T12:39:10Z</time>
      </trkpt>
      <trkpt lat="43.44067" lon="2.63236">
        <ele>861.5</ele>
        <time>2022-06-21T12:39:11Z</time>
      </trkpt>
      <trkpt lat="43.44067" lon="2.63236">
        <ele>861.5</ele>
        <time>2022-06-21T12:39:12Z</time>
      </trkpt>
      <trkpt lat="43.44067" lon="2.63236">
        <ele>861.5</ele>
        <time>2022-06-21T12:39:13Z</time>
      </trkpt>
      <trkpt lat="43.44067" lon="2.63236">
        <ele>861.5</ele>
        <time>2022-06-21T12:39:14Z</time>
      </trkpt>
      <trkpt lat="43.44067" lon="2.63236">
        <ele>861.5</ele>
        <time>2022-06-21T12:39:15Z</time>
      </trkpt>
      <trkpt lat="43.44067" lon="2.63236">
        <ele>861.5</ele>
        <time>2022-06-21T12:39:16Z</time>
      </trkpt>
      <trkpt lat="43.44067" lon="2.63236">
        <ele>861.5</ele>
        <time>2022-06-21T12:39:17Z</time>
      </trkpt>
      <trkpt lat="43.44067" lon="2.63236">
        <ele>861.5</ele>
        <time>2022-06-21T12:39:18Z</time>
      </trkpt>
      <trkpt lat="43.44067" lon="2.63236">
        <ele>861.5</ele>
        <time>2022-06-21T12:39:19Z</time>
      </trkpt>
      <trkpt lat="43.44067" lon="2.63236">
        <ele>861.5</ele>
        <time>2022-06-21T12:39:20Z</time>
      </trkpt>
      <trkpt lat="43.44067" lon="2.63236">
        <ele>861.5</ele>
        <time>2022-06-21T12:39:21Z</time>
      </trkpt>
      <trkpt lat="43.44067" lon="2.63236">
        <ele>861.5</ele>
        <time>2022-06-21T12:39:22Z</time>
      </trkpt>
      <trkpt lat="43.44067" lon="2.63236">
        <ele>861.5</ele>
        <time>2022-06-21T12:39:23Z</time>
      </trkpt>
      <trkpt lat="43.44067" lon="2.63236">
        <ele>861.5</ele>
        <time>2022-06-21T12:39:24Z</time>
      </trkpt>
      <trkpt lat="43.44067" lon="2.63236">
        <ele>861.5</ele>
        <time>2022-06-21T12:39:25Z</time>
      </trkpt>
      <trkpt lat="43.44067" lon="2.63236">
        <ele>861.5</ele>
        <time>2022-06-21T12:39:26Z</time>
      </trkpt>
      <trkpt lat="43.44067" lon="2.63236">
        <ele>861.5</ele>
        <time>2022-06-21T12:39:27Z</time>
      </trkpt>
      <trkpt lat="43.44067" lon="2.63236">
        <ele>861.5</ele>
        <time>2022-06-21T12:39:28Z</time>
      </trkpt>
      <trkpt lat="43.44067" lon="2.63236">
        <ele>861.5</ele>
        <time>2022-06-21T12:39:29Z</time>
      </trkpt>
      <trkpt lat="43.44067" lon="2.63236">
        <ele>861.5</ele>
        <time>2022-06-21T12:39:30Z</time>
      </trkpt>
      <trkpt lat="43.44067" lon="2.63236">
        <ele>861.5</ele>
        <time>2022-06-21T12:39:31Z</time>
      </trkpt>
      <trkpt lat="43.44067" lon="2.63236">
        <ele>861.5</ele>
        <time>2022-06-21T12:39:32Z</time>
      </trkpt>
      <trkpt lat="43.44067" lon="2.63236">
        <ele>861.5</ele>
        <time>2022-06-21T12:39:33Z</time>
      </trkpt>
      <trkpt lat="43.44067" lon="2.63236">
        <ele>861.5</ele>
        <time>2022-06-21T12:39:34Z</time>
      </trkpt>
      <trkpt lat="43.44067" lon="2.63236">
        <ele>861.5</ele>
        <time>2022-06-21T12:39:35Z</time>
      </trkpt>
      <trkpt lat="43.44067" lon="2.63236">
        <ele>861.5</ele>
        <time>2022-06-21T12:39:36Z</time>
      </trkpt>
      <trkpt lat="43.44067" lon="2.63236">
        <ele>861.5</ele>
        <time>2022-06-21T12:39:37Z</time>
      </trkpt>
      <trkpt lat="43.44067" lon="2.63236">
        <ele>861.5</ele>
        <time>2022-06-21T12:39:38Z</time>
      </trkpt>
      <trkpt lat="43.44067" lon="2.63236">
        <ele>861.5</ele>
        <time>2022-06-21T12:39:39Z</time>
      </trkpt>
      <trkpt lat="43.44067" lon="2.63236">
        <ele>861.5</ele>
        <time>2022-06-21T12:39:40Z</time>
      </trkpt>
      <trkpt lat="43.44067" lon="2.63236">
        <ele>861.5</ele>
        <time>2022-06-21T12:39:41Z</time>
      </trkpt>
      <trkpt lat="43.44067" lon="2.63236">
        <ele>861.5</ele>
        <time>2022-06-21T12:39:42Z</time>
      </trkpt>
      <trkpt lat="43.44067" lon="2.63236">
        <ele>861.5</ele>
        <time>2022-06-21T12:39:43Z</time>
      </trkpt>
      <trkpt lat="43.44067" lon="2.63236">
        <ele>861.5</ele>
        <time>2022-06-21T12:39:44Z</time>
      </trkpt>
      <trkpt lat="43.44067" lon="2.63236">
        <ele>861.5</ele>
        <time>2022-06-21T12:39:45Z</time>
      </trkpt>
      <trkpt lat="43.44067" lon="2.63236">
        <ele>861.5</ele>
        <time>2022-06-21T12:39:46Z</time>
      </trkpt>
      <trkpt lat="43.44067" lon="2.63236">
        <ele>861.5</ele>
        <time>2022-06-21T12:39:47Z</time>
      </trkpt>
      <trkpt lat="43.44067" lon="2.63236">
        <ele>861.5</ele>
        <time>2022-06-21T12:39:48Z</time>
      </trkpt>
      <trkpt lat="43.44067" lon="2.63236">
        <ele>861.5</ele>
        <time>2022-06-21T12:39:49Z</time>
      </trkpt>
      <trkpt lat="43.44067" lon="2.63236">
        <ele>861.5</ele>
        <time>2022-06-21T12:39:50Z</time>
      </trkpt>
      <trkpt lat="43.44067" lon="2.63236">
        <ele>861.5</ele>
        <time>2022-06-21T12:39:51Z</time>
      </trkpt>
      <trkpt lat="43.44067" lon="2.63236">
        <ele>861.5</ele>
        <time>2022-06-21T12:39:52Z</time>
      </trkpt>
      <trkpt lat="43.44067" lon="2.63236">
        <ele>861.5</ele>
        <time>2022-06-21T12:39:53Z</time>
      </trkpt>
      <trkpt lat="43.44067" lon="2.63236">
        <ele>861.5</ele>
        <time>2022-06-21T12:39:54Z</time>
      </trkpt>
      <trkpt lat="43.44067" lon="2.63236">
        <ele>861.5</ele>
        <time>2022-06-21T12:39:55Z</time>
      </trkpt>
      <trkpt lat="43.44067" lon="2.63236">
        <ele>861.5</ele>
        <time>2022-06-21T12:39:56Z</time>
      </trkpt>
      <trkpt lat="43.44067" lon="2.63236">
        <ele>861.5</ele>
        <time>2022-06-21T12:39:57Z</time>
      </trkpt>
      <trkpt lat="43.44067" lon="2.63236">
        <ele>861.5</ele>
        <time>2022-06-21T12:39:58Z</time>
      </trkpt>
      <trkpt lat="43.44067" lon="2.63236">
        <ele>861.5</ele>
        <time>2022-06-21T12:39:59Z</time>
      </trkpt>
      <trkpt lat="43.44067" lon="2.63236">
        <ele>861.5</ele>
        <time>2022-06-21T12:40:00Z</time>
      </trkpt>
      <trkpt lat="43.44067" lon="2.63236">
        <ele>861.5</ele>
        <time>2022-06-21T12:40:01Z</time>
      </trkpt>
      <trkpt lat="43.44067" lon="2.63236">
        <ele>861.5</ele>
        <time>2022-06-21T12:40:02Z</time>
      </trkpt>
      <trkpt lat="43.44067" lon="2.63236">
        <ele>861.5</ele>
        <time>2022-06-21T12:40:03Z</time>
      </trkpt>
      <trkpt lat="43.44067" lon="2.63236">
        <ele>861.5</ele>
        <time>2022-06-21T12:40:04Z</time>
      </trkpt>
      <trkpt lat="43.44067" lon="2.63236">
        <ele>861.5</ele>
        <time>2022-06-21T12:40:05Z</time>
      </trkpt>
      <trkpt lat="43.44067" lon="2.63236">
        <ele>861.5</ele>
        <time>2022-06-21T12:40:06Z</time>
      </trkpt>
      <trkpt lat="43.44067" lon="2.63236">
        <ele>861.5</ele>
        <time>2022-06-21T12:40:07Z</time>
      </trkpt>
      <trkpt lat="43.44067" lon="2.63236">
        <ele>861.5</ele>
        <time>2022-06-21T12:40:08Z</time>
      </trkpt>
      <trkpt lat="43.44067" lon="2.63236">
        <ele>861.5</ele>
        <time>2022-06-21T12:40:09Z</time>
      </trkpt>
      <trkpt lat="43.44067" lon="2.63236">
        <ele>861.5</ele>
        <time>2022-06-21T12:40:10Z</time>
      </trkpt>
      <trkpt lat="43.44067" lon="2.63236">
        <ele>861.5</ele>
        <time>2022-06-21T12:40:11Z</time>
      </trkpt>
      <trkpt lat="43.44067" lon="2.63236">
        <ele>861.5</ele>
        <time>2022-06-21T12:40:12Z</time>
      </trkpt>
      <trkpt lat="43.44067" lon="2.63236">
        <ele>861.5</ele>
        <time>2022-06-21T12:40:13Z</time>
      </trkpt>
      <trkpt lat="43.44067" lon="2.63236">
        <ele>861.5</ele>
        <time>2022-06-21T12:40:14Z</time>
      </trkpt>
      <trkpt lat="43.44067" lon="2.63236">
        <ele>861.5</ele>
        <time>2022-06-21T12:40:15Z</time>
      </trkpt>
      <trkpt lat="43.44067" lon="2.63236">
        <ele>861.5</ele>
        <time>2022-06-21T12:40:16Z</time>
      </trkpt>
      <trkpt lat="43.44067" lon="2.63236">
        <ele>861.5</ele>
        <time>2022-06-21T12:40:17Z</time>
      </trkpt>
      <trkpt lat="43.44067" lon="2.63236">
        <ele>861.5</ele>
        <time>2022-06-21T12:40:18Z</time>
      </trkpt>
      <trkpt lat="43.44067" lon="2.63236">
        <ele>861.5</ele>
        <time>2022-06-21T12:40:19Z</time>
      </trkpt>
      <trkpt lat="43.44067" lon="2.63236">
        <ele>861.5</ele>
        <time>2022-06-21T12:40:22Z</time>
      </trkpt>
      <trkpt lat="43.44067" lon="2.63236">
        <ele>861.5</ele>
        <time>2022-06-21T12:40:24Z</time>
      </trkpt>
      <trkpt lat="43.44067" lon="2.63236">
        <ele>861.5</ele>
        <time>2022-06-21T12:40:25Z</time>
      </trkpt>
      <trkpt lat="43.44067" lon="2.63236">
        <ele>861.5</ele>
        <time>2022-06-21T12:40:26Z</time>
      </trkpt>
      <trkpt lat="43.44067" lon="2.63236">
        <ele>861.5</ele>
        <time>2022-06-21T12:40:27Z</time>
      </trkpt>
      <trkpt lat="43.44067" lon="2.63236">
        <ele>861.5</ele>
        <time>2022-06-21T12:40:28Z</time>
      </trkpt>
      <trkpt lat="43.44067" lon="2.63236">
        <ele>861.5</ele>
        <time>2022-06-21T12:40:29Z</time>
      </trkpt>
      <trkpt lat="43.44067" lon="2.63236">
        <ele>861.5</ele>
        <time>2022-06-21T12:40:30Z</time>
      </trkpt>
      <trkpt lat="43.44067" lon="2.63236">
        <ele>861.5</ele>
        <time>2022-06-21T12:40:31Z</time>
      </trkpt>
      <trkpt lat="43.44067" lon="2.63236">
        <ele>861.5</ele>
        <time>2022-06-21T12:40:32Z</time>
      </trkpt>
      <trkpt lat="43.44067" lon="2.63236">
        <ele>861.5</ele>
        <time>2022-06-21T12:40:33Z</time>
      </trkpt>
      <trkpt lat="43.44067" lon="2.63236">
        <ele>861.5</ele>
        <time>2022-06-21T12:40:34Z</time>
      </trkpt>
      <trkpt lat="43.44067" lon="2.63236">
        <ele>861.5</ele>
        <time>2022-06-21T12:40:35Z</time>
      </trkpt>
      <trkpt lat="43.44067" lon="2.63236">
        <ele>861.5</ele>
        <time>2022-06-21T12:40:36Z</time>
      </trkpt>
      <trkpt lat="43.44067" lon="2.63236">
        <ele>861.5</ele>
        <time>2022-06-21T12:40:37Z</time>
      </trkpt>
      <trkpt lat="43.44067" lon="2.63236">
        <ele>861.5</ele>
        <time>2022-06-21T12:40:38Z</time>
      </trkpt>
      <trkpt lat="43.44067" lon="2.63236">
        <ele>861.5</ele>
        <time>2022-06-21T12:40:39Z</time>
      </trkpt>
      <trkpt lat="43.44067" lon="2.63236">
        <ele>861.5</ele>
        <time>2022-06-21T12:40:40Z</time>
      </trkpt>
      <trkpt lat="43.44067" lon="2.63236">
        <ele>861.5</ele>
        <time>2022-06-21T12:40:41Z</time>
      </trkpt>
      <trkpt lat="43.44067" lon="2.63236">
        <ele>861.5</ele>
        <time>2022-06-21T12:40:42Z</time>
      </trkpt>
      <trkpt lat="43.44067" lon="2.63236">
        <ele>861.5</ele>
        <time>2022-06-21T12:40:43Z</time>
      </trkpt>
      <trkpt lat="43.44067" lon="2.63236">
        <ele>861.5</ele>
        <time>2022-06-21T12:40:44Z</time>
      </trkpt>
      <trkpt lat="43.44067" lon="2.63236">
        <ele>861.5</ele>
        <time>2022-06-21T12:40:45Z</time>
      </trkpt>
      <trkpt lat="43.44067" lon="2.63236">
        <ele>861.5</ele>
        <time>2022-06-21T12:40:46Z</time>
      </trkpt>
      <trkpt lat="43.44067" lon="2.63236">
        <ele>861.5</ele>
        <time>2022-06-21T12:40:47Z</time>
      </trkpt>
      <trkpt lat="43.44067" lon="2.63236">
        <ele>861.5</ele>
        <time>2022-06-21T12:40:48Z</time>
      </trkpt>
      <trkpt lat="43.44067" lon="2.63236">
        <ele>861.5</ele>
        <time>2022-06-21T12:40:49Z</time>
      </trkpt>
      <trkpt lat="43.44067" lon="2.63236">
        <ele>861.5</ele>
        <time>2022-06-21T12:40:50Z</time>
      </trkpt>
      <trkpt lat="43.44067" lon="2.63236">
        <ele>861.5</ele>
        <time>2022-06-21T12:40:51Z</time>
      </trkpt>
      <trkpt lat="43.44067" lon="2.63236">
        <ele>861.5</ele>
        <time>2022-06-21T12:40:52Z</time>
      </trkpt>
      <trkpt lat="43.44067" lon="2.63236">
        <ele>861.5</ele>
        <time>2022-06-21T12:40:53Z</time>
      </trkpt>
      <trkpt lat="43.44067" lon="2.63236">
        <ele>861.5</ele>
        <time>2022-06-21T12:40:54Z</time>
      </trkpt>
      <trkpt lat="43.44067" lon="2.63236">
        <ele>861.5</ele>
        <time>2022-06-21T12:40:55Z</time>
      </trkpt>
      <trkpt lat="43.44068" lon="2.63237">
        <ele>861.5</ele>
        <time>2022-06-21T12:40:56Z</time>
      </trkpt>
      <trkpt lat="43.44069" lon="2.63239">
        <ele>861.6</ele>
        <time>2022-06-21T12:40:57Z</time>
      </trkpt>
      <trkpt lat="43.44069" lon="2.6324">
        <ele>861.7</ele>
        <time>2022-06-21T12:40:58Z</time>
      </trkpt>
      <trkpt lat="43.4407" lon="2.63239">
        <ele>861.7</ele>
        <time>2022-06-21T12:40:59Z</time>
      </trkpt>
      <trkpt lat="43.44069" lon="2.63237">
        <ele>861.7</ele>
        <time>2022-06-21T12:41:00Z</time>
      </trkpt>
      <trkpt lat="43.44069" lon="2.63236">
        <ele>861.8</ele>
        <time>2022-06-21T12:41:01Z</time>
      </trkpt>
      <trkpt lat="43.44068" lon="2.63235">
        <ele>861.8</ele>
        <time>2022-06-21T12:41:02Z</time>
      </trkpt>
      <trkpt lat="43.44068" lon="2.63236">
        <ele>861.8</ele>
        <time>2022-06-21T12:41:03Z</time>
      </trkpt>
      <trkpt lat="43.44069" lon="2.63236">
        <ele>861.8</ele>
        <time>2022-06-21T12:41:04Z</time>
      </trkpt>
      <trkpt lat="43.44069" lon="2.63236">
        <ele>861.8</ele>
        <time>2022-06-21T12:41:05Z</time>
      </trkpt>
      <trkpt lat="43.44069" lon="2.63236">
        <ele>861.8</ele>
        <time>2022-06-21T12:41:06Z</time>
      </trkpt>
      <trkpt lat="43.44069" lon="2.63236">
        <ele>861.8</ele>
        <time>2022-06-21T12:41:07Z</time>
      </trkpt>
      <trkpt lat="43.44069" lon="2.63236">
        <ele>861.8</ele>
        <time>2022-06-21T12:41:08Z</time>
      </trkpt>
      <trkpt lat="43.44069" lon="2.63236">
        <ele>861.8</ele>
        <time>2022-06-21T12:41:09Z</time>
      </trkpt>
      <trkpt lat="43.44069" lon="2.63236">
        <ele>861.8</ele>
        <time>2022-06-21T12:41:10Z</time>
      </trkpt>
      <trkpt lat="43.44069" lon="2.63236">
        <ele>861.8</ele>
        <time>2022-06-21T12:41:11Z</time>
      </trkpt>
      <trkpt lat="43.44069" lon="2.63236">
        <ele>861.8</ele>
        <time>2022-06-21T12:41:12Z</time>
      </trkpt>
      <trkpt lat="43.44069" lon="2.63236">
        <ele>861.8</ele>
        <time>2022-06-21T12:41:13Z</time>
      </trkpt>
      <trkpt lat="43.44069" lon="2.63236">
        <ele>861.8</ele>
        <time>2022-06-21T12:41:14Z</time>
      </trkpt>
      <trkpt lat="43.44069" lon="2.63236">
        <ele>861.8</ele>
        <time>2022-06-21T12:41:15Z</time>
      </trkpt>
      <trkpt lat="43.44069" lon="2.63236">
        <ele>861.8</ele>
        <time>2022-06-21T12:41:16Z</time>
      </trkpt>
      <trkpt lat="43.44069" lon="2.63236">
        <ele>861.8</ele>
        <time>2022-06-21T12:41:17Z</time>
      </trkpt>
      <trkpt lat="43.44069" lon="2.63236">
        <ele>861.8</ele>
        <time>2022-06-21T12:41:18Z</time>
      </trkpt>
      <trkpt lat="43.44069" lon="2.63236">
        <ele>861.8</ele>
        <time>2022-06-21T12:41:19Z</time>
      </trkpt>
      <trkpt lat="43.44069" lon="2.63236">
        <ele>861.8</ele>
        <time>2022-06-21T12:41:20Z</time>
      </trkpt>
      <trkpt lat="43.44069" lon="2.63236">
        <ele>861.8</ele>
        <time>2022-06-21T12:41:21Z</time>
      </trkpt>
      <trkpt lat="43.44069" lon="2.63236">
        <ele>861.8</ele>
        <time>2022-06-21T12:41:22Z</time>
      </trkpt>
      <trkpt lat="43.44069" lon="2.63236">
        <ele>861.8</ele>
        <time>2022-06-21T12:41:23Z</time>
      </trkpt>
      <trkpt lat="43.44069" lon="2.63236">
        <ele>861.8</ele>
        <time>2022-06-21T12:41:24Z</time>
      </trkpt>
      <trkpt lat="43.44069" lon="2.63236">
        <ele>861.8</ele>
        <time>2022-06-21T12:41:25Z</time>
      </trkpt>
      <trkpt lat="43.44069" lon="2.63236">
        <ele>861.8</ele>
        <time>2022-06-21T12:41:26Z</time>
      </trkpt>
      <trkpt lat="43.44069" lon="2.63236">
        <ele>861.8</ele>
        <time>2022-06-21T12:41:27Z</time>
      </trkpt>
      <trkpt lat="43.44069" lon="2.63236">
        <ele>861.8</ele>
        <time>2022-06-21T12:41:28Z</time>
      </trkpt>
      <trkpt lat="43.44069" lon="2.63236">
        <ele>861.8</ele>
        <time>2022-06-21T12:41:29Z</time>
      </trkpt>
      <trkpt lat="43.44069" lon="2.63236">
        <ele>861.8</ele>
        <time>2022-06-21T12:41:30Z</time>
      </trkpt>
      <trkpt lat="43.44069" lon="2.63236">
        <ele>861.8</ele>
        <time>2022-06-21T12:41:31Z</time>
      </trkpt>
      <trkpt lat="43.44069" lon="2.63236">
        <ele>861.8</ele>
        <time>2022-06-21T12:41:32Z</time>
      </trkpt>
      <trkpt lat="43.44069" lon="2.63236">
        <ele>861.8</ele>
        <time>2022-06-21T12:41:33Z</time>
      </trkpt>
      <trkpt lat="43.44069" lon="2.63236">
        <ele>861.8</ele>
        <time>2022-06-21T12:41:34Z</time>
      </trkpt>
      <trkpt lat="43.44069" lon="2.63236">
        <ele>861.8</ele>
        <time>2022-06-21T12:41:35Z</time>
      </trkpt>
      <trkpt lat="43.44069" lon="2.63236">
        <ele>861.8</ele>
        <time>2022-06-21T12:41:36Z</time>
      </trkpt>
      <trkpt lat="43.44069" lon="2.63236">
        <ele>861.8</ele>
        <time>2022-06-21T12:41:37Z</time>
      </trkpt>
      <trkpt lat="43.44069" lon="2.63236">
        <ele>861.8</ele>
        <time>2022-06-21T12:41:38Z</time>
      </trkpt>
      <trkpt lat="43.44069" lon="2.63236">
        <ele>861.8</ele>
        <time>2022-06-21T12:41:39Z</time>
      </trkpt>
      <trkpt lat="43.44069" lon="2.63236">
        <ele>861.8</ele>
        <time>2022-06-21T12:41:40Z</time>
      </trkpt>
      <trkpt lat="43.44069" lon="2.63236">
        <ele>861.8</ele>
        <time>2022-06-21T12:41:41Z</time>
      </trkpt>
      <trkpt lat="43.44069" lon="2.63236">
        <ele>861.8</ele>
        <time>2022-06-21T12:41:42Z</time>
      </trkpt>
      <trkpt lat="43.44069" lon="2.63236">
        <ele>861.8</ele>
        <time>2022-06-21T12:41:43Z</time>
      </trkpt>
      <trkpt lat="43.44069" lon="2.63236">
        <ele>861.8</ele>
        <time>2022-06-21T12:41:44Z</time>
      </trkpt>
      <trkpt lat="43.44069" lon="2.63236">
        <ele>861.8</ele>
        <time>2022-06-21T12:41:45Z</time>
      </trkpt>
      <trkpt lat="43.44069" lon="2.63236">
        <ele>861.8</ele>
        <time>2022-06-21T12:41:46Z</time>
      </trkpt>
      <trkpt lat="43.44069" lon="2.63236">
        <ele>861.8</ele>
        <time>2022-06-21T12:41:47Z</time>
      </trkpt>
      <trkpt lat="43.44069" lon="2.63236">
        <ele>861.8</ele>
        <time>2022-06-21T12:41:48Z</time>
      </trkpt>
      <trkpt lat="43.44069" lon="2.63236">
        <ele>861.8</ele>
        <time>2022-06-21T12:41:49Z</time>
      </trkpt>
      <trkpt lat="43.44069" lon="2.63236">
        <ele>861.8</ele>
        <time>2022-06-21T12:41:50Z</time>
      </trkpt>
      <trkpt lat="43.44069" lon="2.63236">
        <ele>861.8</ele>
        <time>2022-06-21T12:41:51Z</time>
      </trkpt>
      <trkpt lat="43.44069" lon="2.63236">
        <ele>861.8</ele>
        <time>2022-06-21T12:41:52Z</time>
      </trkpt>
      <trkpt lat="43.44069" lon="2.63236">
        <ele>861.8</ele>
        <time>2022-06-21T12:41:53Z</time>
      </trkpt>
      <trkpt lat="43.44069" lon="2.63236">
        <ele>861.8</ele>
        <time>2022-06-21T12:41:54Z</time>
      </trkpt>
      <trkpt lat="43.44069" lon="2.63236">
        <ele>861.8</ele>
        <time>2022-06-21T12:41:55Z</time>
      </trkpt>
      <trkpt lat="43.44069" lon="2.63236">
        <ele>861.8</ele>
        <time>2022-06-21T12:41:56Z</time>
      </trkpt>
      <trkpt lat="43.44069" lon="2.63236">
        <ele>861.8</ele>
        <time>2022-06-21T12:41:57Z</time>
      </trkpt>
      <trkpt lat="43.44069" lon="2.63236">
        <ele>861.8</ele>
        <time>2022-06-21T12:41:58Z</time>
      </trkpt>
      <trkpt lat="43.44069" lon="2.63236">
        <ele>861.8</ele>
        <time>2022-06-21T12:41:59Z</time>
      </trkpt>
      <trkpt lat="43.44069" lon="2.63236">
        <ele>861.8</ele>
        <time>2022-06-21T12:42:00Z</time>
      </trkpt>
      <trkpt lat="43.44069" lon="2.63236">
        <ele>861.8</ele>
        <time>2022-06-21T12:42:01Z</time>
      </trkpt>
      <trkpt lat="43.44069" lon="2.63236">
        <ele>861.8</ele>
        <time>2022-06-21T12:42:02Z</time>
      </trkpt>
      <trkpt lat="43.44069" lon="2.63236">
        <ele>861.8</ele>
        <time>2022-06-21T12:42:03Z</time>
      </trkpt>
      <trkpt lat="43.44069" lon="2.63236">
        <ele>861.8</ele>
        <time>2022-06-21T12:42:04Z</time>
      </trkpt>
      <trkpt lat="43.44069" lon="2.63236">
        <ele>861.8</ele>
        <time>2022-06-21T12:42:05Z</time>
      </trkpt>
      <trkpt lat="43.44069" lon="2.63236">
        <ele>861.8</ele>
        <time>2022-06-21T12:42:06Z</time>
      </trkpt>
      <trkpt lat="43.44069" lon="2.63236">
        <ele>861.8</ele>
        <time>2022-06-21T12:42:07Z</time>
      </trkpt>
      <trkpt lat="43.44069" lon="2.63236">
        <ele>861.8</ele>
        <time>2022-06-21T12:42:08Z</time>
      </trkpt>
      <trkpt lat="43.44069" lon="2.63236">
        <ele>861.8</ele>
        <time>2022-06-21T12:42:09Z</time>
      </trkpt>
      <trkpt lat="43.44069" lon="2.63236">
        <ele>861.8</ele>
        <time>2022-06-21T12:42:10Z</time>
      </trkpt>
      <trkpt lat="43.44069" lon="2.63236">
        <ele>861.8</ele>
        <time>2022-06-21T12:42:11Z</time>
      </trkpt>
      <trkpt lat="43.44069" lon="2.63236">
        <ele>861.8</ele>
        <time>2022-06-21T12:42:12Z</time>
      </trkpt>
      <trkpt lat="43.44069" lon="2.63236">
        <ele>861.8</ele>
        <time>2022-06-21T12:42:13Z</time>
      </trkpt>
      <trkpt lat="43.44069" lon="2.63236">
        <ele>861.8</ele>
        <time>2022-06-21T12:42:14Z</time>
      </trkpt>
      <trkpt lat="43.44069" lon="2.63236">
        <ele>861.8</ele>
        <time>2022-06-21T12:42:15Z</time>
      </trkpt>
      <trkpt lat="43.44069" lon="2.63236">
        <ele>861.8</ele>
        <time>2022-06-21T12:42:16Z</time>
      </trkpt>
      <trkpt lat="43.44069" lon="2.63236">
        <ele>861.8</ele>
        <time>2022-06-21T12:42:17Z</time>
      </trkpt>
      <trkpt lat="43.44069" lon="2.63236">
        <ele>861.8</ele>
        <time>2022-06-21T12:42:18Z</time>
      </trkpt>
      <trkpt lat="43.44069" lon="2.63236">
        <ele>861.8</ele>
        <time>2022-06-21T12:42:19Z</time>
      </trkpt>
      <trkpt lat="43.44069" lon="2.63236">
        <ele>861.8</ele>
        <time>2022-06-21T12:42:20Z</time>
      </trkpt>
      <trkpt lat="43.44069" lon="2.63236">
        <ele>861.8</ele>
        <time>2022-06-21T12:42:21Z</time>
      </trkpt>
      <trkpt lat="43.44069" lon="2.63236">
        <ele>861.8</ele>
        <time>2022-06-21T12:42:22Z</time>
      </trkpt>
      <trkpt lat="43.44069" lon="2.63236">
        <ele>861.8</ele>
        <time>2022-06-21T12:42:23Z</time>
      </trkpt>
      <trkpt lat="43.44069" lon="2.63236">
        <ele>861.8</ele>
        <time>2022-06-21T12:42:24Z</time>
      </trkpt>
      <trkpt lat="43.44069" lon="2.63236">
        <ele>861.8</ele>
        <time>2022-06-21T12:42:25Z</time>
      </trkpt>
      <trkpt lat="43.44069" lon="2.63236">
        <ele>861.8</ele>
        <time>2022-06-21T12:42:26Z</time>
      </trkpt>
      <trkpt lat="43.44069" lon="2.63236">
        <ele>861.8</ele>
        <time>2022-06-21T12:42:27Z</time>
      </trkpt>
      <trkpt lat="43.44068" lon="2.63236">
        <ele>861.9</ele>
        <time>2022-06-21T12:42:28Z</time>
      </trkpt>
      <trkpt lat="43.44068" lon="2.63236">
        <ele>861.9</ele>
        <time>2022-06-21T12:42:29Z</time>
      </trkpt>
      <trkpt lat="43.44068" lon="2.63236">
        <ele>861.9</ele>
        <time>2022-06-21T12:42:30Z</time>
      </trkpt>
      <trkpt lat="43.44068" lon="2.63236">
        <ele>861.9</ele>
        <time>2022-06-21T12:42:31Z</time>
      </trkpt>
      <trkpt lat="43.44068" lon="2.63236">
        <ele>861.9</ele>
        <time>2022-06-21T12:42:32Z</time>
      </trkpt>
      <trkpt lat="43.44068" lon="2.63236">
        <ele>861.9</ele>
        <time>2022-06-21T12:42:33Z</time>
      </trkpt>
      <trkpt lat="43.44068" lon="2.63236">
        <ele>861.9</ele>
        <time>2022-06-21T12:42:34Z</time>
      </trkpt>
      <trkpt lat="43.44068" lon="2.63236">
        <ele>861.9</ele>
        <time>2022-06-21T12:42:35Z</time>
      </trkpt>
      <trkpt lat="43.44068" lon="2.63236">
        <ele>861.9</ele>
        <time>2022-06-21T12:42:36Z</time>
      </trkpt>
      <trkpt lat="43.44068" lon="2.63236">
        <ele>861.9</ele>
        <time>2022-06-21T12:42:37Z</time>
      </trkpt>
      <trkpt lat="43.44068" lon="2.63236">
        <ele>861.9</ele>
        <time>2022-06-21T12:42:38Z</time>
      </trkpt>
      <trkpt lat="43.44068" lon="2.63236">
        <ele>861.9</ele>
        <time>2022-06-21T12:42:39Z</time>
      </trkpt>
      <trkpt lat="43.44068" lon="2.63236">
        <ele>861.9</ele>
        <time>2022-06-21T12:42:40Z</time>
      </trkpt>
      <trkpt lat="43.44068" lon="2.63236">
        <ele>861.9</ele>
        <time>2022-06-21T12:42:41Z</time>
      </trkpt>
      <trkpt lat="43.44068" lon="2.63236">
        <ele>861.9</ele>
        <time>2022-06-21T12:42:42Z</time>
      </trkpt>
      <trkpt lat="43.44068" lon="2.63236">
        <ele>861.9</ele>
        <time>2022-06-21T12:42:43Z</time>
      </trkpt>
      <trkpt lat="43.44068" lon="2.63236">
        <ele>861.9</ele>
        <time>2022-06-21T12:42:44Z</time>
      </trkpt>
      <trkpt lat="43.44068" lon="2.63236">
        <ele>861.9</ele>
        <time>2022-06-21T12:42:45Z</time>
      </trkpt>
      <trkpt lat="43.44068" lon="2.63236">
        <ele>861.9</ele>
        <time>2022-06-21T12:42:46Z</time>
      </trkpt>
      <trkpt lat="43.44068" lon="2.63236">
        <ele>861.9</ele>
        <time>2022-06-21T12:42:47Z</time>
      </trkpt>
      <trkpt lat="43.44068" lon="2.63236">
        <ele>861.9</ele>
        <time>2022-06-21T12:42:48Z</time>
      </trkpt>
      <trkpt lat="43.44068" lon="2.63236">
        <ele>861.9</ele>
        <time>2022-06-21T12:42:49Z</time>
      </trkpt>
      <trkpt lat="43.44068" lon="2.63236">
        <ele>861.9</ele>
        <time>2022-06-21T12:42:50Z</time>
      </trkpt>
      <trkpt lat="43.44068" lon="2.63236">
        <ele>861.9</ele>
        <time>2022-06-21T12:42:51Z</time>
      </trkpt>
      <trkpt lat="43.44068" lon="2.63236">
        <ele>861.9</ele>
        <time>2022-06-21T12:42:52Z</time>
      </trkpt>
      <trkpt lat="43.44068" lon="2.63236">
        <ele>861.9</ele>
        <time>2022-06-21T12:42:53Z</time>
      </trkpt>
      <trkpt lat="43.44068" lon="2.63236">
        <ele>861.9</ele>
        <time>2022-06-21T12:42:54Z</time>
      </trkpt>
      <trkpt lat="43.44068" lon="2.63236">
        <ele>861.9</ele>
        <time>2022-06-21T12:42:55Z</time>
      </trkpt>
      <trkpt lat="43.44068" lon="2.63236">
        <ele>861.9</ele>
        <time>2022-06-21T12:42:56Z</time>
      </trkpt>
      <trkpt lat="43.44068" lon="2.63236">
        <ele>861.9</ele>
        <time>2022-06-21T12:42:57Z</time>
      </trkpt>
      <trkpt lat="43.44068" lon="2.63236">
        <ele>861.9</ele>
        <time>2022-06-21T12:42:58Z</time>
      </trkpt>
      <trkpt lat="43.44068" lon="2.63236">
        <ele>861.9</ele>
        <time>2022-06-21T12:42:59Z</time>
      </trkpt>
      <trkpt lat="43.44068" lon="2.63236">
        <ele>861.9</ele>
        <time>2022-06-21T12:43:00Z</time>
      </trkpt>
      <trkpt lat="43.44068" lon="2.63236">
        <ele>861.9</ele>
        <time>2022-06-21T12:43:01Z</time>
      </trkpt>
      <trkpt lat="43.44068" lon="2.63236">
        <ele>861.9</ele>
        <time>2022-06-21T12:43:02Z</time>
      </trkpt>
      <trkpt lat="43.44068" lon="2.63236">
        <ele>861.9</ele>
        <time>2022-06-21T12:43:03Z</time>
      </trkpt>
      <trkpt lat="43.44068" lon="2.63236">
        <ele>861.9</ele>
        <time>2022-06-21T12:43:04Z</time>
      </trkpt>
      <trkpt lat="43.44068" lon="2.63236">
        <ele>861.9</ele>
        <time>2022-06-21T12:43:05Z</time>
      </trkpt>
      <trkpt lat="43.44068" lon="2.63236">
        <ele>861.9</ele>
        <time>2022-06-21T12:43:06Z</time>
      </trkpt>
      <trkpt lat="43.44068" lon="2.63236">
        <ele>861.9</ele>
        <time>2022-06-21T12:43:07Z</time>
      </trkpt>
      <trkpt lat="43.44068" lon="2.63236">
        <ele>861.9</ele>
        <time>2022-06-21T12:43:08Z</time>
      </trkpt>
      <trkpt lat="43.44068" lon="2.63236">
        <ele>861.9</ele>
        <time>2022-06-21T12:43:09Z</time>
      </trkpt>
      <trkpt lat="43.44067" lon="2.63235">
        <ele>861.9</ele>
        <time>2022-06-21T12:43:10Z</time>
      </trkpt>
      <trkpt lat="43.44066" lon="2.63235">
        <ele>861.9</ele>
        <time>2022-06-21T12:43:11Z</time>
      </trkpt>
      <trkpt lat="43.44065" lon="2.63235">
        <ele>862</ele>
        <time>2022-06-21T12:43:12Z</time>
      </trkpt>
      <trkpt lat="43.44065" lon="2.63235">
        <ele>862</ele>
        <time>2022-06-21T12:43:13Z</time>
      </trkpt>
      <trkpt lat="43.44063" lon="2.63235">
        <ele>862.1</ele>
        <time>2022-06-21T12:43:14Z</time>
      </trkpt>
      <trkpt lat="43.44063" lon="2.63235">
        <ele>862.1</ele>
        <time>2022-06-21T12:43:15Z</time>
      </trkpt>
      <trkpt lat="43.44063" lon="2.63235">
        <ele>862.1</ele>
        <time>2022-06-21T12:43:16Z</time>
      </trkpt>
      <trkpt lat="43.44063" lon="2.63235">
        <ele>862.1</ele>
        <time>2022-06-21T12:43:17Z</time>
      </trkpt>
      <trkpt lat="43.44063" lon="2.63235">
        <ele>862.1</ele>
        <time>2022-06-21T12:43:18Z</time>
      </trkpt>
      <trkpt lat="43.44063" lon="2.63235">
        <ele>862.1</ele>
        <time>2022-06-21T12:43:19Z</time>
      </trkpt>
      <trkpt lat="43.44062" lon="2.63234">
        <ele>862.1</ele>
        <time>2022-06-21T12:43:20Z</time>
      </trkpt>
      <trkpt lat="43.4406" lon="2.63234">
        <ele>862.2</ele>
        <time>2022-06-21T12:43:21Z</time>
      </trkpt>
      <trkpt lat="43.44058" lon="2.63234">
        <ele>862.2</ele>
        <time>2022-06-21T12:43:22Z</time>
      </trkpt>
      <trkpt lat="43.44057" lon="2.63234">
        <ele>862.3</ele>
        <time>2022-06-21T12:43:23Z</time>
      </trkpt>
      <trkpt lat="43.44055" lon="2.63233">
        <ele>862.3</ele>
        <time>2022-06-21T12:43:24Z</time>
      </trkpt>
      <trkpt lat="43.44054" lon="2.63233">
        <ele>862.4</ele>
        <time>2022-06-21T12:43:25Z</time>
      </trkpt>
      <trkpt lat="43.44052" lon="2.63233">
        <ele>862.5</ele>
        <time>2022-06-21T12:43:26Z</time>
      </trkpt>
      <trkpt lat="43.44051" lon="2.63232">
        <ele>862.5</ele>
        <time>2022-06-21T12:43:27Z</time>
      </trkpt>
      <trkpt lat="43.44048" lon="2.63231">
        <ele>862.6</ele>
        <time>2022-06-21T12:43:28Z</time>
      </trkpt>
      <trkpt lat="43.44047" lon="2.63231">
        <ele>862.6</ele>
        <time>2022-06-21T12:43:29Z</time>
      </trkpt>
      <trkpt lat="43.44046" lon="2.6323">
        <ele>862.7</ele>
        <time>2022-06-21T12:43:30Z</time>
      </trkpt>
      <trkpt lat="43.44044" lon="2.63229">
        <ele>862.7</ele>
        <time>2022-06-21T12:43:31Z</time>
      </trkpt>
      <trkpt lat="43.44043" lon="2.63228">
        <ele>862.8</ele>
        <time>2022-06-21T12:43:32Z</time>
      </trkpt>
      <trkpt lat="43.44042" lon="2.63228">
        <ele>862.9</ele>
        <time>2022-06-21T12:43:33Z</time>
      </trkpt>
      <trkpt lat="43.44041" lon="2.63227">
        <ele>862.9</ele>
        <time>2022-06-21T12:43:34Z</time>
      </trkpt>
      <trkpt lat="43.44039" lon="2.63226">
        <ele>863</ele>
        <time>2022-06-21T12:43:35Z</time>
      </trkpt>
      <trkpt lat="43.44038" lon="2.63226">
        <ele>863</ele>
        <time>2022-06-21T12:43:36Z</time>
      </trkpt>
      <trkpt lat="43.44037" lon="2.63226">
        <ele>863</ele>
        <time>2022-06-21T12:43:37Z</time>
      </trkpt>
      <trkpt lat="43.44036" lon="2.63225">
        <ele>863.1</ele>
        <time>2022-06-21T12:43:38Z</time>
      </trkpt>
      <trkpt lat="43.44035" lon="2.63224">
        <ele>863.1</ele>
        <time>2022-06-21T12:43:39Z</time>
      </trkpt>
      <trkpt lat="43.44034" lon="2.63224">
        <ele>863.1</ele>
        <time>2022-06-21T12:43:40Z</time>
      </trkpt>
      <trkpt lat="43.44034" lon="2.63224">
        <ele>863.2</ele>
        <time>2022-06-21T12:43:41Z</time>
      </trkpt>
      <trkpt lat="43.44033" lon="2.63223">
        <ele>863.2</ele>
        <time>2022-06-21T12:43:42Z</time>
      </trkpt>
      <trkpt lat="43.44032" lon="2.63223">
        <ele>863.2</ele>
        <time>2022-06-21T12:43:43Z</time>
      </trkpt>
      <trkpt lat="43.44032" lon="2.63223">
        <ele>863.2</ele>
        <time>2022-06-21T12:43:44Z</time>
      </trkpt>
      <trkpt lat="43.44031" lon="2.63222">
        <ele>863.3</ele>
        <time>2022-06-21T12:43:45Z</time>
      </trkpt>
      <trkpt lat="43.4403" lon="2.63222">
        <ele>863.3</ele>
        <time>2022-06-21T12:43:46Z</time>
      </trkpt>
      <trkpt lat="43.44029" lon="2.63222">
        <ele>863.3</ele>
        <time>2022-06-21T12:43:47Z</time>
      </trkpt>
      <trkpt lat="43.44028" lon="2.63222">
        <ele>863.4</ele>
        <time>2022-06-21T12:43:48Z</time>
      </trkpt>
      <trkpt lat="43.44027" lon="2.63221">
        <ele>863.4</ele>
        <time>2022-06-21T12:43:49Z</time>
      </trkpt>
      <trkpt lat="43.44027" lon="2.63221">
        <ele>863.4</ele>
        <time>2022-06-21T12:43:50Z</time>
      </trkpt>
      <trkpt lat="43.44026" lon="2.6322">
        <ele>863.5</ele>
        <time>2022-06-21T12:43:51Z</time>
      </trkpt>
      <trkpt lat="43.44025" lon="2.6322">
        <ele>863.5</ele>
        <time>2022-06-21T12:43:52Z</time>
      </trkpt>
      <trkpt lat="43.44024" lon="2.6322">
        <ele>863.5</ele>
        <time>2022-06-21T12:43:53Z</time>
      </trkpt>
      <trkpt lat="43.44024" lon="2.6322">
        <ele>863.5</ele>
        <time>2022-06-21T12:43:54Z</time>
      </trkpt>
      <trkpt lat="43.44024" lon="2.6322">
        <ele>863.5</ele>
        <time>2022-06-21T12:43:55Z</time>
      </trkpt>
      <trkpt lat="43.44024" lon="2.63219">
        <ele>863.5</ele>
        <time>2022-06-21T12:43:56Z</time>
      </trkpt>
      <trkpt lat="43.44024" lon="2.63219">
        <ele>863.5</ele>
        <time>2022-06-21T12:43:57Z</time>
      </trkpt>
      <trkpt lat="43.44023" lon="2.63219">
        <ele>863.6</ele>
        <time>2022-06-21T12:43:58Z</time>
      </trkpt>
      <trkpt lat="43.44022" lon="2.63219">
        <ele>863.6</ele>
        <time>2022-06-21T12:43:59Z</time>
      </trkpt>
      <trkpt lat="43.44022" lon="2.63219">
        <ele>863.6</ele>
        <time>2022-06-21T12:44:00Z</time>
      </trkpt>
      <trkpt lat="43.44021" lon="2.63219">
        <ele>863.6</ele>
        <time>2022-06-21T12:44:01Z</time>
      </trkpt>
      <trkpt lat="43.4402" lon="2.63219">
        <ele>863.7</ele>
        <time>2022-06-21T12:44:02Z</time>
      </trkpt>
      <trkpt lat="43.4402" lon="2.6322">
        <ele>863.7</ele>
        <time>2022-06-21T12:44:03Z</time>
      </trkpt>
      <trkpt lat="43.44019" lon="2.63221">
        <ele>863.7</ele>
        <time>2022-06-21T12:44:04Z</time>
      </trkpt>
      <trkpt lat="43.44017" lon="2.63221">
        <ele>863.8</ele>
        <time>2022-06-21T12:44:05Z</time>
      </trkpt>
      <trkpt lat="43.44016" lon="2.63221">
        <ele>863.8</ele>
        <time>2022-06-21T12:44:06Z</time>
      </trkpt>
      <trkpt lat="43.44015" lon="2.63221">
        <ele>863.9</ele>
        <time>2022-06-21T12:44:07Z</time>
      </trkpt>
      <trkpt lat="43.44013" lon="2.63221">
        <ele>863.9</ele>
        <time>2022-06-21T12:44:08Z</time>
      </trkpt>
      <trkpt lat="43.44012" lon="2.6322">
        <ele>864</ele>
        <time>2022-06-21T12:44:09Z</time>
      </trkpt>
      <trkpt lat="43.44011" lon="2.6322">
        <ele>864</ele>
        <time>2022-06-21T12:44:10Z</time>
      </trkpt>
      <trkpt lat="43.4401" lon="2.6322">
        <ele>864.1</ele>
        <time>2022-06-21T12:44:11Z</time>
      </trkpt>
      <trkpt lat="43.44009" lon="2.6322">
        <ele>864.1</ele>
        <time>2022-06-21T12:44:12Z</time>
      </trkpt>
      <trkpt lat="43.44008" lon="2.6322">
        <ele>864.1</ele>
        <time>2022-06-21T12:44:13Z</time>
      </trkpt>
      <trkpt lat="43.44007" lon="2.63219">
        <ele>864.2</ele>
        <time>2022-06-21T12:44:14Z</time>
      </trkpt>
      <trkpt lat="43.44005" lon="2.63219">
        <ele>864.2</ele>
        <time>2022-06-21T12:44:15Z</time>
      </trkpt>
      <trkpt lat="43.44004" lon="2.63219">
        <ele>864.2</ele>
        <time>2022-06-21T12:44:16Z</time>
      </trkpt>
      <trkpt lat="43.44004" lon="2.63219">
        <ele>864.3</ele>
        <time>2022-06-21T12:44:17Z</time>
      </trkpt>
      <trkpt lat="43.44003" lon="2.63219">
        <ele>864.3</ele>
        <time>2022-06-21T12:44:18Z</time>
      </trkpt>
      <trkpt lat="43.44002" lon="2.63219">
        <ele>864.3</ele>
        <time>2022-06-21T12:44:19Z</time>
      </trkpt>
      <trkpt lat="43.44" lon="2.6322">
        <ele>864.4</ele>
        <time>2022-06-21T12:44:20Z</time>
      </trkpt>
      <trkpt lat="43.44" lon="2.6322">
        <ele>864.4</ele>
        <time>2022-06-21T12:44:21Z</time>
      </trkpt>
      <trkpt lat="43.43999" lon="2.6322">
        <ele>864.4</ele>
        <time>2022-06-21T12:44:22Z</time>
      </trkpt>
      <trkpt lat="43.43998" lon="2.6322">
        <ele>864.5</ele>
        <time>2022-06-21T12:44:23Z</time>
      </trkpt>
      <trkpt lat="43.43997" lon="2.6322">
        <ele>864.5</ele>
        <time>2022-06-21T12:44:24Z</time>
      </trkpt>
      <trkpt lat="43.43996" lon="2.63221">
        <ele>864.6</ele>
        <time>2022-06-21T12:44:25Z</time>
      </trkpt>
      <trkpt lat="43.43995" lon="2.63221">
        <ele>864.6</ele>
        <time>2022-06-21T12:44:26Z</time>
      </trkpt>
      <trkpt lat="43.43994" lon="2.63221">
        <ele>864.6</ele>
        <time>2022-06-21T12:44:27Z</time>
      </trkpt>
      <trkpt lat="43.43993" lon="2.63221">
        <ele>864.7</ele>
        <time>2022-06-21T12:44:28Z</time>
      </trkpt>
      <trkpt lat="43.43992" lon="2.63221">
        <ele>864.7</ele>
        <time>2022-06-21T12:44:29Z</time>
      </trkpt>
      <trkpt lat="43.43991" lon="2.63221">
        <ele>864.7</ele>
        <time>2022-06-21T12:44:30Z</time>
      </trkpt>
      <trkpt lat="43.4399" lon="2.63221">
        <ele>864.8</ele>
        <time>2022-06-21T12:44:31Z</time>
      </trkpt>
      <trkpt lat="43.43989" lon="2.63222">
        <ele>864.8</ele>
        <time>2022-06-21T12:44:32Z</time>
      </trkpt>
      <trkpt lat="43.43988" lon="2.63222">
        <ele>864.8</ele>
        <time>2022-06-21T12:44:33Z</time>
      </trkpt>
      <trkpt lat="43.43987" lon="2.63223">
        <ele>864.9</ele>
        <time>2022-06-21T12:44:34Z</time>
      </trkpt>
      <trkpt lat="43.43986" lon="2.63223">
        <ele>864.9</ele>
        <time>2022-06-21T12:44:35Z</time>
      </trkpt>
      <trkpt lat="43.43985" lon="2.63223">
        <ele>865</ele>
        <time>2022-06-21T12:44:36Z</time>
      </trkpt>
      <trkpt lat="43.43984" lon="2.63224">
        <ele>865</ele>
        <time>2022-06-21T12:44:37Z</time>
      </trkpt>
      <trkpt lat="43.43983" lon="2.63224">
        <ele>865</ele>
        <time>2022-06-21T12:44:38Z</time>
      </trkpt>
      <trkpt lat="43.43983" lon="2.63224">
        <ele>865</ele>
        <time>2022-06-21T12:44:39Z</time>
      </trkpt>
      <trkpt lat="43.43982" lon="2.63224">
        <ele>865.1</ele>
        <time>2022-06-21T12:44:40Z</time>
      </trkpt>
      <trkpt lat="43.43982" lon="2.63224">
        <ele>865.1</ele>
        <time>2022-06-21T12:44:41Z</time>
      </trkpt>
      <trkpt lat="43.43982" lon="2.63224">
        <ele>865.1</ele>
        <time>2022-06-21T12:44:42Z</time>
      </trkpt>
      <trkpt lat="43.43982" lon="2.63224">
        <ele>865.1</ele>
        <time>2022-06-21T12:44:43Z</time>
      </trkpt>
      <trkpt lat="43.43982" lon="2.63224">
        <ele>865.1</ele>
        <time>2022-06-21T12:44:44Z</time>
      </trkpt>
      <trkpt lat="43.43982" lon="2.63224">
        <ele>865.1</ele>
        <time>2022-06-21T12:44:45Z</time>
      </trkpt>
      <trkpt lat="43.43981" lon="2.63224">
        <ele>865.1</ele>
        <time>2022-06-21T12:44:46Z</time>
      </trkpt>
      <trkpt lat="43.4398" lon="2.63224">
        <ele>865.2</ele>
        <time>2022-06-21T12:44:47Z</time>
      </trkpt>
      <trkpt lat="43.43978" lon="2.63225">
        <ele>865.2</ele>
        <time>2022-06-21T12:44:48Z</time>
      </trkpt>
      <trkpt lat="43.43977" lon="2.63226">
        <ele>865.3</ele>
        <time>2022-06-21T12:44:49Z</time>
      </trkpt>
      <trkpt lat="43.43976" lon="2.63226">
        <ele>865.3</ele>
        <time>2022-06-21T12:44:50Z</time>
      </trkpt>
      <trkpt lat="43.43975" lon="2.63227">
        <ele>865.3</ele>
        <time>2022-06-21T12:44:51Z</time>
      </trkpt>
      <trkpt lat="43.43974" lon="2.63227">
        <ele>865.4</ele>
        <time>2022-06-21T12:44:52Z</time>
      </trkpt>
      <trkpt lat="43.43973" lon="2.63227">
        <ele>865.4</ele>
        <time>2022-06-21T12:44:53Z</time>
      </trkpt>
      <trkpt lat="43.43973" lon="2.63227">
        <ele>865.4</ele>
        <time>2022-06-21T12:44:54Z</time>
      </trkpt>
      <trkpt lat="43.43972" lon="2.63228">
        <ele>865.4</ele>
        <time>2022-06-21T12:44:55Z</time>
      </trkpt>
      <trkpt lat="43.43971" lon="2.63228">
        <ele>865.5</ele>
        <time>2022-06-21T12:44:56Z</time>
      </trkpt>
      <trkpt lat="43.4397" lon="2.63229">
        <ele>865.5</ele>
        <time>2022-06-21T12:44:57Z</time>
      </trkpt>
      <trkpt lat="43.43969" lon="2.63229">
        <ele>865.6</ele>
        <time>2022-06-21T12:44:58Z</time>
      </trkpt>
      <trkpt lat="43.43968" lon="2.63229">
        <ele>865.6</ele>
        <time>2022-06-21T12:44:59Z</time>
      </trkpt>
      <trkpt lat="43.43967" lon="2.63229">
        <ele>865.6</ele>
        <time>2022-06-21T12:45:00Z</time>
      </trkpt>
      <trkpt lat="43.43966" lon="2.6323">
        <ele>865.7</ele>
        <time>2022-06-21T12:45:01Z</time>
      </trkpt>
      <trkpt lat="43.43965" lon="2.6323">
        <ele>865.7</ele>
        <time>2022-06-21T12:45:02Z</time>
      </trkpt>
      <trkpt lat="43.43965" lon="2.63231">
        <ele>865.7</ele>
        <time>2022-06-21T12:45:03Z</time>
      </trkpt>
      <trkpt lat="43.43964" lon="2.63231">
        <ele>865.7</ele>
        <time>2022-06-21T12:45:04Z</time>
      </trkpt>
      <trkpt lat="43.43964" lon="2.63232">
        <ele>865.8</ele>
        <time>2022-06-21T12:45:05Z</time>
      </trkpt>
      <trkpt lat="43.43964" lon="2.63233">
        <ele>865.8</ele>
        <time>2022-06-21T12:45:06Z</time>
      </trkpt>
      <trkpt lat="43.43963" lon="2.63234">
        <ele>865.8</ele>
        <time>2022-06-21T12:45:07Z</time>
      </trkpt>
      <trkpt lat="43.43963" lon="2.63235">
        <ele>865.9</ele>
        <time>2022-06-21T12:45:08Z</time>
      </trkpt>
      <trkpt lat="43.43962" lon="2.63236">
        <ele>865.9</ele>
        <time>2022-06-21T12:45:09Z</time>
      </trkpt>
      <trkpt lat="43.43961" lon="2.63236">
        <ele>865.9</ele>
        <time>2022-06-21T12:45:10Z</time>
      </trkpt>
      <trkpt lat="43.4396" lon="2.63236">
        <ele>866</ele>
        <time>2022-06-21T12:45:11Z</time>
      </trkpt>
      <trkpt lat="43.43959" lon="2.63236">
        <ele>866</ele>
        <time>2022-06-21T12:45:12Z</time>
      </trkpt>
      <trkpt lat="43.43959" lon="2.63236">
        <ele>866</ele>
        <time>2022-06-21T12:45:13Z</time>
      </trkpt>
      <trkpt lat="43.43958" lon="2.63236">
        <ele>866</ele>
        <time>2022-06-21T12:45:14Z</time>
      </trkpt>
      <trkpt lat="43.43957" lon="2.63236">
        <ele>866.1</ele>
        <time>2022-06-21T12:45:15Z</time>
      </trkpt>
      <trkpt lat="43.43956" lon="2.63237">
        <ele>866.1</ele>
        <time>2022-06-21T12:45:16Z</time>
      </trkpt>
      <trkpt lat="43.43955" lon="2.63237">
        <ele>866.1</ele>
        <time>2022-06-21T12:45:17Z</time>
      </trkpt>
      <trkpt lat="43.43954" lon="2.63237">
        <ele>866.2</ele>
        <time>2022-06-21T12:45:18Z</time>
      </trkpt>
      <trkpt lat="43.43953" lon="2.63237">
        <ele>866.2</ele>
        <time>2022-06-21T12:45:19Z</time>
      </trkpt>
      <trkpt lat="43.43952" lon="2.63238">
        <ele>866.3</ele>
        <time>2022-06-21T12:45:20Z</time>
      </trkpt>
      <trkpt lat="43.43951" lon="2.63238">
        <ele>866.3</ele>
        <time>2022-06-21T12:45:21Z</time>
      </trkpt>
      <trkpt lat="43.4395" lon="2.63239">
        <ele>866.3</ele>
        <time>2022-06-21T12:45:22Z</time>
      </trkpt>
      <trkpt lat="43.43949" lon="2.63239">
        <ele>866.3</ele>
        <time>2022-06-21T12:45:23Z</time>
      </trkpt>
      <trkpt lat="43.43948" lon="2.63239">
        <ele>866.4</ele>
        <time>2022-06-21T12:45:24Z</time>
      </trkpt>
      <trkpt lat="43.43947" lon="2.6324">
        <ele>866.4</ele>
        <time>2022-06-21T12:45:25Z</time>
      </trkpt>
      <trkpt lat="43.43946" lon="2.6324">
        <ele>866.5</ele>
        <time>2022-06-21T12:45:26Z</time>
      </trkpt>
      <trkpt lat="43.43945" lon="2.63241">
        <ele>866.5</ele>
        <time>2022-06-21T12:45:27Z</time>
      </trkpt>
      <trkpt lat="43.43944" lon="2.63242">
        <ele>866.5</ele>
        <time>2022-06-21T12:45:28Z</time>
      </trkpt>
      <trkpt lat="43.43943" lon="2.63242">
        <ele>866.6</ele>
        <time>2022-06-21T12:45:29Z</time>
      </trkpt>
      <trkpt lat="43.43942" lon="2.63243">
        <ele>866.6</ele>
        <time>2022-06-21T12:45:30Z</time>
      </trkpt>
      <trkpt lat="43.43941" lon="2.63244">
        <ele>866.7</ele>
        <time>2022-06-21T12:45:31Z</time>
      </trkpt>
      <trkpt lat="43.4394" lon="2.63244">
        <ele>866.7</ele>
        <time>2022-06-21T12:45:32Z</time>
      </trkpt>
      <trkpt lat="43.43939" lon="2.63244">
        <ele>866.7</ele>
        <time>2022-06-21T12:45:33Z</time>
      </trkpt>
      <trkpt lat="43.43938" lon="2.63245">
        <ele>866.8</ele>
        <time>2022-06-21T12:45:34Z</time>
      </trkpt>
      <trkpt lat="43.43937" lon="2.63245">
        <ele>866.8</ele>
        <time>2022-06-21T12:45:35Z</time>
      </trkpt>
      <trkpt lat="43.43937" lon="2.63245">
        <ele>866.8</ele>
        <time>2022-06-21T12:45:36Z</time>
      </trkpt>
      <trkpt lat="43.43937" lon="2.63245">
        <ele>866.8</ele>
        <time>2022-06-21T12:45:37Z</time>
      </trkpt>
      <trkpt lat="43.43936" lon="2.63245">
        <ele>866.8</ele>
        <time>2022-06-21T12:45:38Z</time>
      </trkpt>
      <trkpt lat="43.43936" lon="2.63245">
        <ele>866.9</ele>
        <time>2022-06-21T12:45:39Z</time>
      </trkpt>
      <trkpt lat="43.43935" lon="2.63246">
        <ele>866.9</ele>
        <time>2022-06-21T12:45:40Z</time>
      </trkpt>
      <trkpt lat="43.43934" lon="2.63246">
        <ele>866.9</ele>
        <time>2022-06-21T12:45:41Z</time>
      </trkpt>
      <trkpt lat="43.43933" lon="2.63246">
        <ele>867</ele>
        <time>2022-06-21T12:45:42Z</time>
      </trkpt>
      <trkpt lat="43.43931" lon="2.63246">
        <ele>867</ele>
        <time>2022-06-21T12:45:43Z</time>
      </trkpt>
      <trkpt lat="43.43931" lon="2.63247">
        <ele>867.1</ele>
        <time>2022-06-21T12:45:44Z</time>
      </trkpt>
      <trkpt lat="43.4393" lon="2.63247">
        <ele>867.1</ele>
        <time>2022-06-21T12:45:45Z</time>
      </trkpt>
      <trkpt lat="43.43929" lon="2.63247">
        <ele>867.1</ele>
        <time>2022-06-21T12:45:46Z</time>
      </trkpt>
      <trkpt lat="43.43928" lon="2.63247">
        <ele>867.2</ele>
        <time>2022-06-21T12:45:47Z</time>
      </trkpt>
      <trkpt lat="43.43927" lon="2.63248">
        <ele>867.2</ele>
        <time>2022-06-21T12:45:48Z</time>
      </trkpt>
      <trkpt lat="43.43926" lon="2.63248">
        <ele>867.2</ele>
        <time>2022-06-21T12:45:49Z</time>
      </trkpt>
      <trkpt lat="43.43925" lon="2.63249">
        <ele>867.3</ele>
        <time>2022-06-21T12:45:50Z</time>
      </trkpt>
      <trkpt lat="43.43924" lon="2.63249">
        <ele>867.3</ele>
        <time>2022-06-21T12:45:51Z</time>
      </trkpt>
      <trkpt lat="43.43923" lon="2.6325">
        <ele>867.3</ele>
        <time>2022-06-21T12:45:52Z</time>
      </trkpt>
      <trkpt lat="43.43922" lon="2.6325">
        <ele>867.4</ele>
        <time>2022-06-21T12:45:53Z</time>
      </trkpt>
      <trkpt lat="43.43921" lon="2.63249">
        <ele>867.4</ele>
        <time>2022-06-21T12:45:54Z</time>
      </trkpt>
      <trkpt lat="43.4392" lon="2.63249">
        <ele>867.5</ele>
        <time>2022-06-21T12:45:55Z</time>
      </trkpt>
      <trkpt lat="43.43919" lon="2.6325">
        <ele>867.5</ele>
        <time>2022-06-21T12:45:56Z</time>
      </trkpt>
      <trkpt lat="43.43918" lon="2.6325">
        <ele>867.5</ele>
        <time>2022-06-21T12:45:57Z</time>
      </trkpt>
      <trkpt lat="43.43917" lon="2.63251">
        <ele>867.6</ele>
        <time>2022-06-21T12:45:58Z</time>
      </trkpt>
      <trkpt lat="43.43916" lon="2.63251">
        <ele>867.6</ele>
        <time>2022-06-21T12:45:59Z</time>
      </trkpt>
      <trkpt lat="43.43915" lon="2.63252">
        <ele>867.6</ele>
        <time>2022-06-21T12:46:00Z</time>
      </trkpt>
      <trkpt lat="43.43914" lon="2.63252">
        <ele>867.7</ele>
        <time>2022-06-21T12:46:01Z</time>
      </trkpt>
      <trkpt lat="43.43913" lon="2.63253">
        <ele>867.7</ele>
        <time>2022-06-21T12:46:02Z</time>
      </trkpt>
      <trkpt lat="43.43912" lon="2.63253">
        <ele>867.8</ele>
        <time>2022-06-21T12:46:03Z</time>
      </trkpt>
      <trkpt lat="43.4391" lon="2.63253">
        <ele>867.8</ele>
        <time>2022-06-21T12:46:04Z</time>
      </trkpt>
      <trkpt lat="43.43909" lon="2.63253">
        <ele>867.8</ele>
        <time>2022-06-21T12:46:05Z</time>
      </trkpt>
      <trkpt lat="43.43908" lon="2.63255">
        <ele>867.9</ele>
        <time>2022-06-21T12:46:06Z</time>
      </trkpt>
      <trkpt lat="43.43908" lon="2.63256">
        <ele>867.9</ele>
        <time>2022-06-21T12:46:07Z</time>
      </trkpt>
      <trkpt lat="43.43907" lon="2.63257">
        <ele>868</ele>
        <time>2022-06-21T12:46:08Z</time>
      </trkpt>
      <trkpt lat="43.43905" lon="2.63257">
        <ele>868.1</ele>
        <time>2022-06-21T12:46:09Z</time>
      </trkpt>
      <trkpt lat="43.43904" lon="2.63257">
        <ele>868.1</ele>
        <time>2022-06-21T12:46:10Z</time>
      </trkpt>
      <trkpt lat="43.43903" lon="2.63257">
        <ele>868.1</ele>
        <time>2022-06-21T12:46:11Z</time>
      </trkpt>
      <trkpt lat="43.43902" lon="2.63258">
        <ele>868.2</ele>
        <time>2022-06-21T12:46:12Z</time>
      </trkpt>
      <trkpt lat="43.43901" lon="2.63258">
        <ele>868.2</ele>
        <time>2022-06-21T12:46:13Z</time>
      </trkpt>
      <trkpt lat="43.439" lon="2.63258">
        <ele>868.2</ele>
        <time>2022-06-21T12:46:14Z</time>
      </trkpt>
      <trkpt lat="43.43899" lon="2.63259">
        <ele>868.3</ele>
        <time>2022-06-21T12:46:15Z</time>
      </trkpt>
      <trkpt lat="43.43898" lon="2.63259">
        <ele>868.3</ele>
        <time>2022-06-21T12:46:16Z</time>
      </trkpt>
      <trkpt lat="43.43897" lon="2.6326">
        <ele>868.3</ele>
        <time>2022-06-21T12:46:17Z</time>
      </trkpt>
      <trkpt lat="43.43895" lon="2.63261">
        <ele>868.4</ele>
        <time>2022-06-21T12:46:18Z</time>
      </trkpt>
      <trkpt lat="43.43895" lon="2.63261">
        <ele>868.4</ele>
        <time>2022-06-21T12:46:19Z</time>
      </trkpt>
      <trkpt lat="43.43894" lon="2.63261">
        <ele>868.5</ele>
        <time>2022-06-21T12:46:20Z</time>
      </trkpt>
      <trkpt lat="43.43892" lon="2.63262">
        <ele>868.5</ele>
        <time>2022-06-21T12:46:21Z</time>
      </trkpt>
      <trkpt lat="43.43891" lon="2.63263">
        <ele>868.5</ele>
        <time>2022-06-21T12:46:22Z</time>
      </trkpt>
      <trkpt lat="43.43891" lon="2.63263">
        <ele>868.6</ele>
        <time>2022-06-21T12:46:23Z</time>
      </trkpt>
      <trkpt lat="43.43889" lon="2.63264">
        <ele>868.6</ele>
        <time>2022-06-21T12:46:24Z</time>
      </trkpt>
      <trkpt lat="43.43889" lon="2.63264">
        <ele>868.6</ele>
        <time>2022-06-21T12:46:25Z</time>
      </trkpt>
      <trkpt lat="43.43888" lon="2.63265">
        <ele>868.7</ele>
        <time>2022-06-21T12:46:26Z</time>
      </trkpt>
      <trkpt lat="43.43888" lon="2.63266">
        <ele>868.7</ele>
        <time>2022-06-21T12:46:27Z</time>
      </trkpt>
      <trkpt lat="43.43887" lon="2.63266">
        <ele>868.7</ele>
        <time>2022-06-21T12:46:28Z</time>
      </trkpt>
      <trkpt lat="43.43886" lon="2.63267">
        <ele>868.8</ele>
        <time>2022-06-21T12:46:29Z</time>
      </trkpt>
      <trkpt lat="43.43885" lon="2.63268">
        <ele>868.8</ele>
        <time>2022-06-21T12:46:30Z</time>
      </trkpt>
      <trkpt lat="43.43884" lon="2.63269">
        <ele>868.9</ele>
        <time>2022-06-21T12:46:31Z</time>
      </trkpt>
      <trkpt lat="43.43883" lon="2.63269">
        <ele>868.9</ele>
        <time>2022-06-21T12:46:32Z</time>
      </trkpt>
      <trkpt lat="43.43882" lon="2.6327">
        <ele>868.9</ele>
        <time>2022-06-21T12:46:33Z</time>
      </trkpt>
      <trkpt lat="43.43882" lon="2.6327">
        <ele>868.9</ele>
        <time>2022-06-21T12:46:34Z</time>
      </trkpt>
      <trkpt lat="43.43881" lon="2.63271">
        <ele>869</ele>
        <time>2022-06-21T12:46:35Z</time>
      </trkpt>
      <trkpt lat="43.4388" lon="2.63272">
        <ele>869</ele>
        <time>2022-06-21T12:46:36Z</time>
      </trkpt>
      <trkpt lat="43.43879" lon="2.63272">
        <ele>869.1</ele>
        <time>2022-06-21T12:46:37Z</time>
      </trkpt>
      <trkpt lat="43.43878" lon="2.63273">
        <ele>869.1</ele>
        <time>2022-06-21T12:46:38Z</time>
      </trkpt>
      <trkpt lat="43.43877" lon="2.63273">
        <ele>869.1</ele>
        <time>2022-06-21T12:46:39Z</time>
      </trkpt>
      <trkpt lat="43.43876" lon="2.63274">
        <ele>869.2</ele>
        <time>2022-06-21T12:46:40Z</time>
      </trkpt>
      <trkpt lat="43.43874" lon="2.63275">
        <ele>869.2</ele>
        <time>2022-06-21T12:46:41Z</time>
      </trkpt>
      <trkpt lat="43.43873" lon="2.63275">
        <ele>869.3</ele>
        <time>2022-06-21T12:46:42Z</time>
      </trkpt>
      <trkpt lat="43.43873" lon="2.63275">
        <ele>869.3</ele>
        <time>2022-06-21T12:46:43Z</time>
      </trkpt>
      <trkpt lat="43.43872" lon="2.63275">
        <ele>869.3</ele>
        <time>2022-06-21T12:46:44Z</time>
      </trkpt>
      <trkpt lat="43.43871" lon="2.63276">
        <ele>869.4</ele>
        <time>2022-06-21T12:46:45Z</time>
      </trkpt>
      <trkpt lat="43.4387" lon="2.63277">
        <ele>869.4</ele>
        <time>2022-06-21T12:46:46Z</time>
      </trkpt>
      <trkpt lat="43.43868" lon="2.63278">
        <ele>869.5</ele>
        <time>2022-06-21T12:46:47Z</time>
      </trkpt>
      <trkpt lat="43.43867" lon="2.63279">
        <ele>869.5</ele>
        <time>2022-06-21T12:46:48Z</time>
      </trkpt>
      <trkpt lat="43.43867" lon="2.63279">
        <ele>869.5</ele>
        <time>2022-06-21T12:46:49Z</time>
      </trkpt>
      <trkpt lat="43.43865" lon="2.6328">
        <ele>869.6</ele>
        <time>2022-06-21T12:46:50Z</time>
      </trkpt>
      <trkpt lat="43.43864" lon="2.63281">
        <ele>869.6</ele>
        <time>2022-06-21T12:46:51Z</time>
      </trkpt>
      <trkpt lat="43.43863" lon="2.63281">
        <ele>869.7</ele>
        <time>2022-06-21T12:46:52Z</time>
      </trkpt>
      <trkpt lat="43.43861" lon="2.63283">
        <ele>869.8</ele>
        <time>2022-06-21T12:46:53Z</time>
      </trkpt>
      <trkpt lat="43.4386" lon="2.63283">
        <ele>869.8</ele>
        <time>2022-06-21T12:46:54Z</time>
      </trkpt>
      <trkpt lat="43.43859" lon="2.63283">
        <ele>869.8</ele>
        <time>2022-06-21T12:46:55Z</time>
      </trkpt>
      <trkpt lat="43.43858" lon="2.63284">
        <ele>869.9</ele>
        <time>2022-06-21T12:46:56Z</time>
      </trkpt>
      <trkpt lat="43.43857" lon="2.63285">
        <ele>869.9</ele>
        <time>2022-06-21T12:46:57Z</time>
      </trkpt>
      <trkpt lat="43.43856" lon="2.63286">
        <ele>869.9</ele>
        <time>2022-06-21T12:46:58Z</time>
      </trkpt>
      <trkpt lat="43.43855" lon="2.63288">
        <ele>870</ele>
        <time>2022-06-21T12:46:59Z</time>
      </trkpt>
      <trkpt lat="43.43854" lon="2.63288">
        <ele>870.1</ele>
        <time>2022-06-21T12:47:00Z</time>
      </trkpt>
      <trkpt lat="43.43853" lon="2.63289">
        <ele>870.1</ele>
        <time>2022-06-21T12:47:01Z</time>
      </trkpt>
      <trkpt lat="43.43852" lon="2.63289">
        <ele>870.1</ele>
        <time>2022-06-21T12:47:02Z</time>
      </trkpt>
      <trkpt lat="43.43852" lon="2.6329">
        <ele>870.2</ele>
        <time>2022-06-21T12:47:03Z</time>
      </trkpt>
      <trkpt lat="43.43851" lon="2.63291">
        <ele>870.2</ele>
        <time>2022-06-21T12:47:04Z</time>
      </trkpt>
      <trkpt lat="43.43849" lon="2.63292">
        <ele>870.2</ele>
        <time>2022-06-21T12:47:05Z</time>
      </trkpt>
      <trkpt lat="43.43848" lon="2.63292">
        <ele>870.3</ele>
        <time>2022-06-21T12:47:06Z</time>
      </trkpt>
      <trkpt lat="43.43847" lon="2.63293">
        <ele>870.3</ele>
        <time>2022-06-21T12:47:07Z</time>
      </trkpt>
      <trkpt lat="43.43846" lon="2.63293">
        <ele>870.4</ele>
        <time>2022-06-21T12:47:08Z</time>
      </trkpt>
      <trkpt lat="43.43845" lon="2.63294">
        <ele>870.4</ele>
        <time>2022-06-21T12:47:09Z</time>
      </trkpt>
      <trkpt lat="43.43845" lon="2.63295">
        <ele>870.4</ele>
        <time>2022-06-21T12:47:10Z</time>
      </trkpt>
      <trkpt lat="43.43843" lon="2.63296">
        <ele>870.5</ele>
        <time>2022-06-21T12:47:11Z</time>
      </trkpt>
      <trkpt lat="43.43843" lon="2.63297">
        <ele>870.5</ele>
        <time>2022-06-21T12:47:12Z</time>
      </trkpt>
      <trkpt lat="43.43842" lon="2.63298">
        <ele>870.6</ele>
        <time>2022-06-21T12:47:13Z</time>
      </trkpt>
      <trkpt lat="43.43841" lon="2.63299">
        <ele>870.6</ele>
        <time>2022-06-21T12:47:14Z</time>
      </trkpt>
      <trkpt lat="43.4384" lon="2.63299">
        <ele>870.6</ele>
        <time>2022-06-21T12:47:15Z</time>
      </trkpt>
      <trkpt lat="43.43839" lon="2.633">
        <ele>870.7</ele>
        <time>2022-06-21T12:47:16Z</time>
      </trkpt>
      <trkpt lat="43.43838" lon="2.63301">
        <ele>870.7</ele>
        <time>2022-06-21T12:47:17Z</time>
      </trkpt>
      <trkpt lat="43.43837" lon="2.63302">
        <ele>870.7</ele>
        <time>2022-06-21T12:47:18Z</time>
      </trkpt>
      <trkpt lat="43.43836" lon="2.63302">
        <ele>870.8</ele>
        <time>2022-06-21T12:47:19Z</time>
      </trkpt>
      <trkpt lat="43.43836" lon="2.63303">
        <ele>870.8</ele>
        <time>2022-06-21T12:47:20Z</time>
      </trkpt>
      <trkpt lat="43.43835" lon="2.63303">
        <ele>870.9</ele>
        <time>2022-06-21T12:47:21Z</time>
      </trkpt>
      <trkpt lat="43.43833" lon="2.63304">
        <ele>870.9</ele>
        <time>2022-06-21T12:47:22Z</time>
      </trkpt>
      <trkpt lat="43.43832" lon="2.63305">
        <ele>871</ele>
        <time>2022-06-21T12:47:23Z</time>
      </trkpt>
      <trkpt lat="43.43831" lon="2.63306">
        <ele>871</ele>
        <time>2022-06-21T12:47:24Z</time>
      </trkpt>
      <trkpt lat="43.4383" lon="2.63307">
        <ele>871</ele>
        <time>2022-06-21T12:47:25Z</time>
      </trkpt>
      <trkpt lat="43.4383" lon="2.63308">
        <ele>871.1</ele>
        <time>2022-06-21T12:47:26Z</time>
      </trkpt>
      <trkpt lat="43.43829" lon="2.63309">
        <ele>871.1</ele>
        <time>2022-06-21T12:47:27Z</time>
      </trkpt>
      <trkpt lat="43.43828" lon="2.6331">
        <ele>871.2</ele>
        <time>2022-06-21T12:47:28Z</time>
      </trkpt>
      <trkpt lat="43.43827" lon="2.63311">
        <ele>871.2</ele>
        <time>2022-06-21T12:47:29Z</time>
      </trkpt>
      <trkpt lat="43.43827" lon="2.63312">
        <ele>871.2</ele>
        <time>2022-06-21T12:47:30Z</time>
      </trkpt>
      <trkpt lat="43.43826" lon="2.63313">
        <ele>871.3</ele>
        <time>2022-06-21T12:47:31Z</time>
      </trkpt>
      <trkpt lat="43.43825" lon="2.63314">
        <ele>871.3</ele>
        <time>2022-06-21T12:47:32Z</time>
      </trkpt>
      <trkpt lat="43.43824" lon="2.63314">
        <ele>871.3</ele>
        <time>2022-06-21T12:47:33Z</time>
      </trkpt>
      <trkpt lat="43.43823" lon="2.63315">
        <ele>871.4</ele>
        <time>2022-06-21T12:47:34Z</time>
      </trkpt>
      <trkpt lat="43.43822" lon="2.63316">
        <ele>871.4</ele>
        <time>2022-06-21T12:47:35Z</time>
      </trkpt>
      <trkpt lat="43.43822" lon="2.63317">
        <ele>871.4</ele>
        <time>2022-06-21T12:47:36Z</time>
      </trkpt>
      <trkpt lat="43.43821" lon="2.63318">
        <ele>871.5</ele>
        <time>2022-06-21T12:47:37Z</time>
      </trkpt>
      <trkpt lat="43.4382" lon="2.63319">
        <ele>871.5</ele>
        <time>2022-06-21T12:47:38Z</time>
      </trkpt>
      <trkpt lat="43.43819" lon="2.6332">
        <ele>871.5</ele>
        <time>2022-06-21T12:47:39Z</time>
      </trkpt>
      <trkpt lat="43.43818" lon="2.63322">
        <ele>871.6</ele>
        <time>2022-06-21T12:47:40Z</time>
      </trkpt>
      <trkpt lat="43.43817" lon="2.63322">
        <ele>871.6</ele>
        <time>2022-06-21T12:47:41Z</time>
      </trkpt>
      <trkpt lat="43.43816" lon="2.63323">
        <ele>871.7</ele>
        <time>2022-06-21T12:47:42Z</time>
      </trkpt>
      <trkpt lat="43.43815" lon="2.63324">
        <ele>871.8</ele>
        <time>2022-06-21T12:47:43Z</time>
      </trkpt>
      <trkpt lat="43.43814" lon="2.63324">
        <ele>871.8</ele>
        <time>2022-06-21T12:47:44Z</time>
      </trkpt>
      <trkpt lat="43.43813" lon="2.63325">
        <ele>871.8</ele>
        <time>2022-06-21T12:47:45Z</time>
      </trkpt>
      <trkpt lat="43.43812" lon="2.63326">
        <ele>871.9</ele>
        <time>2022-06-21T12:47:46Z</time>
      </trkpt>
      <trkpt lat="43.43812" lon="2.63327">
        <ele>871.9</ele>
        <time>2022-06-21T12:47:47Z</time>
      </trkpt>
      <trkpt lat="43.43811" lon="2.63328">
        <ele>871.9</ele>
        <time>2022-06-21T12:47:48Z</time>
      </trkpt>
      <trkpt lat="43.4381" lon="2.63329">
        <ele>872</ele>
        <time>2022-06-21T12:47:49Z</time>
      </trkpt>
      <trkpt lat="43.43809" lon="2.6333">
        <ele>872</ele>
        <time>2022-06-21T12:47:50Z</time>
      </trkpt>
      <trkpt lat="43.43808" lon="2.63331">
        <ele>872.1</ele>
        <time>2022-06-21T12:47:51Z</time>
      </trkpt>
      <trkpt lat="43.43807" lon="2.63332">
        <ele>872.1</ele>
        <time>2022-06-21T12:47:52Z</time>
      </trkpt>
      <trkpt lat="43.43806" lon="2.63333">
        <ele>872.1</ele>
        <time>2022-06-21T12:47:53Z</time>
      </trkpt>
      <trkpt lat="43.43805" lon="2.63334">
        <ele>872.2</ele>
        <time>2022-06-21T12:47:54Z</time>
      </trkpt>
      <trkpt lat="43.43805" lon="2.63335">
        <ele>872.2</ele>
        <time>2022-06-21T12:47:55Z</time>
      </trkpt>
      <trkpt lat="43.43804" lon="2.63336">
        <ele>872.2</ele>
        <time>2022-06-21T12:47:56Z</time>
      </trkpt>
      <trkpt lat="43.43803" lon="2.63337">
        <ele>872.3</ele>
        <time>2022-06-21T12:47:57Z</time>
      </trkpt>
      <trkpt lat="43.43802" lon="2.63338">
        <ele>872.3</ele>
        <time>2022-06-21T12:47:58Z</time>
      </trkpt>
      <trkpt lat="43.43802" lon="2.63339">
        <ele>872.4</ele>
        <time>2022-06-21T12:47:59Z</time>
      </trkpt>
      <trkpt lat="43.43801" lon="2.6334">
        <ele>872.4</ele>
        <time>2022-06-21T12:48:00Z</time>
      </trkpt>
      <trkpt lat="43.43801" lon="2.63341">
        <ele>872.4</ele>
        <time>2022-06-21T12:48:01Z</time>
      </trkpt>
      <trkpt lat="43.438" lon="2.63342">
        <ele>872.4</ele>
        <time>2022-06-21T12:48:02Z</time>
      </trkpt>
      <trkpt lat="43.438" lon="2.63343">
        <ele>872.5</ele>
        <time>2022-06-21T12:48:03Z</time>
      </trkpt>
      <trkpt lat="43.43799" lon="2.63345">
        <ele>872.5</ele>
        <time>2022-06-21T12:48:04Z</time>
      </trkpt>
      <trkpt lat="43.43799" lon="2.63345">
        <ele>872.6</ele>
        <time>2022-06-21T12:48:05Z</time>
      </trkpt>
      <trkpt lat="43.43798" lon="2.63346">
        <ele>872.6</ele>
        <time>2022-06-21T12:48:06Z</time>
      </trkpt>
      <trkpt lat="43.43798" lon="2.63348">
        <ele>872.6</ele>
        <time>2022-06-21T12:48:07Z</time>
      </trkpt>
      <trkpt lat="43.43798" lon="2.63349">
        <ele>872.7</ele>
        <time>2022-06-21T12:48:08Z</time>
      </trkpt>
      <trkpt lat="43.43798" lon="2.6335">
        <ele>872.7</ele>
        <time>2022-06-21T12:48:09Z</time>
      </trkpt>
      <trkpt lat="43.43797" lon="2.63351">
        <ele>872.7</ele>
        <time>2022-06-21T12:48:10Z</time>
      </trkpt>
      <trkpt lat="43.43797" lon="2.63351">
        <ele>872.7</ele>
        <time>2022-06-21T12:48:11Z</time>
      </trkpt>
      <trkpt lat="43.43796" lon="2.63352">
        <ele>872.8</ele>
        <time>2022-06-21T12:48:12Z</time>
      </trkpt>
      <trkpt lat="43.43796" lon="2.63353">
        <ele>872.8</ele>
        <time>2022-06-21T12:48:13Z</time>
      </trkpt>
      <trkpt lat="43.43796" lon="2.63353">
        <ele>872.8</ele>
        <time>2022-06-21T12:48:14Z</time>
      </trkpt>
      <trkpt lat="43.43795" lon="2.63355">
        <ele>872.8</ele>
        <time>2022-06-21T12:48:15Z</time>
      </trkpt>
      <trkpt lat="43.43795" lon="2.63355">
        <ele>872.9</ele>
        <time>2022-06-21T12:48:16Z</time>
      </trkpt>
      <trkpt lat="43.43794" lon="2.63356">
        <ele>872.9</ele>
        <time>2022-06-21T12:48:17Z</time>
      </trkpt>
      <trkpt lat="43.43794" lon="2.63357">
        <ele>872.9</ele>
        <time>2022-06-21T12:48:18Z</time>
      </trkpt>
      <trkpt lat="43.43794" lon="2.63358">
        <ele>872.9</ele>
        <time>2022-06-21T12:48:19Z</time>
      </trkpt>
      <trkpt lat="43.43793" lon="2.63359">
        <ele>873</ele>
        <time>2022-06-21T12:48:20Z</time>
      </trkpt>
      <trkpt lat="43.43793" lon="2.63361">
        <ele>873</ele>
        <time>2022-06-21T12:48:21Z</time>
      </trkpt>
      <trkpt lat="43.43792" lon="2.63362">
        <ele>873.1</ele>
        <time>2022-06-21T12:48:22Z</time>
      </trkpt>
      <trkpt lat="43.43792" lon="2.63363">
        <ele>873.1</ele>
        <time>2022-06-21T12:48:23Z</time>
      </trkpt>
      <trkpt lat="43.43791" lon="2.63363">
        <ele>873.1</ele>
        <time>2022-06-21T12:48:24Z</time>
      </trkpt>
      <trkpt lat="43.43791" lon="2.63364">
        <ele>873.1</ele>
        <time>2022-06-21T12:48:25Z</time>
      </trkpt>
      <trkpt lat="43.43791" lon="2.63366">
        <ele>873.2</ele>
        <time>2022-06-21T12:48:26Z</time>
      </trkpt>
      <trkpt lat="43.4379" lon="2.63367">
        <ele>873.2</ele>
        <time>2022-06-21T12:48:27Z</time>
      </trkpt>
      <trkpt lat="43.4379" lon="2.63368">
        <ele>873.2</ele>
        <time>2022-06-21T12:48:28Z</time>
      </trkpt>
      <trkpt lat="43.4379" lon="2.63369">
        <ele>873.3</ele>
        <time>2022-06-21T12:48:29Z</time>
      </trkpt>
      <trkpt lat="43.43789" lon="2.63369">
        <ele>873.3</ele>
        <time>2022-06-21T12:48:30Z</time>
      </trkpt>
      <trkpt lat="43.43789" lon="2.6337">
        <ele>873.3</ele>
        <time>2022-06-21T12:48:31Z</time>
      </trkpt>
      <trkpt lat="43.43788" lon="2.63371">
        <ele>873.3</ele>
        <time>2022-06-21T12:48:32Z</time>
      </trkpt>
      <trkpt lat="43.43787" lon="2.63371">
        <ele>873.4</ele>
        <time>2022-06-21T12:48:33Z</time>
      </trkpt>
      <trkpt lat="43.43787" lon="2.63372">
        <ele>873.4</ele>
        <time>2022-06-21T12:48:34Z</time>
      </trkpt>
      <trkpt lat="43.43786" lon="2.63373">
        <ele>873.4</ele>
        <time>2022-06-21T12:48:35Z</time>
      </trkpt>
      <trkpt lat="43.43786" lon="2.63374">
        <ele>873.5</ele>
        <time>2022-06-21T12:48:36Z</time>
      </trkpt>
      <trkpt lat="43.43786" lon="2.63375">
        <ele>873.5</ele>
        <time>2022-06-21T12:48:37Z</time>
      </trkpt>
      <trkpt lat="43.43785" lon="2.63376">
        <ele>873.5</ele>
        <time>2022-06-21T12:48:38Z</time>
      </trkpt>
      <trkpt lat="43.43784" lon="2.63378">
        <ele>873.6</ele>
        <time>2022-06-21T12:48:39Z</time>
      </trkpt>
      <trkpt lat="43.43784" lon="2.63378">
        <ele>873.6</ele>
        <time>2022-06-21T12:48:40Z</time>
      </trkpt>
      <trkpt lat="43.43783" lon="2.63379">
        <ele>873.6</ele>
        <time>2022-06-21T12:48:41Z</time>
      </trkpt>
      <trkpt lat="43.43782" lon="2.6338">
        <ele>873.7</ele>
        <time>2022-06-21T12:48:42Z</time>
      </trkpt>
      <trkpt lat="43.43782" lon="2.63381">
        <ele>873.7</ele>
        <time>2022-06-21T12:48:43Z</time>
      </trkpt>
      <trkpt lat="43.43782" lon="2.63381">
        <ele>873.7</ele>
        <time>2022-06-21T12:48:44Z</time>
      </trkpt>
      <trkpt lat="43.4378" lon="2.63383">
        <ele>873.8</ele>
        <time>2022-06-21T12:48:45Z</time>
      </trkpt>
      <trkpt lat="43.4378" lon="2.63383">
        <ele>873.8</ele>
        <time>2022-06-21T12:48:46Z</time>
      </trkpt>
      <trkpt lat="43.43779" lon="2.63384">
        <ele>873.8</ele>
        <time>2022-06-21T12:48:47Z</time>
      </trkpt>
      <trkpt lat="43.43778" lon="2.63384">
        <ele>873.9</ele>
        <time>2022-06-21T12:48:48Z</time>
      </trkpt>
      <trkpt lat="43.43777" lon="2.63384">
        <ele>873.9</ele>
        <time>2022-06-21T12:48:49Z</time>
      </trkpt>
      <trkpt lat="43.43776" lon="2.63385">
        <ele>873.9</ele>
        <time>2022-06-21T12:48:50Z</time>
      </trkpt>
      <trkpt lat="43.43774" lon="2.63385">
        <ele>874</ele>
        <time>2022-06-21T12:48:51Z</time>
      </trkpt>
      <trkpt lat="43.43773" lon="2.63385">
        <ele>874</ele>
        <time>2022-06-21T12:48:52Z</time>
      </trkpt>
      <trkpt lat="43.43773" lon="2.63385">
        <ele>874.1</ele>
        <time>2022-06-21T12:48:53Z</time>
      </trkpt>
      <trkpt lat="43.43772" lon="2.63385">
        <ele>874.1</ele>
        <time>2022-06-21T12:48:54Z</time>
      </trkpt>
      <trkpt lat="43.43772" lon="2.63385">
        <ele>874.1</ele>
        <time>2022-06-21T12:48:55Z</time>
      </trkpt>
      <trkpt lat="43.43771" lon="2.63385">
        <ele>874.1</ele>
        <time>2022-06-21T12:48:56Z</time>
      </trkpt>
      <trkpt lat="43.43771" lon="2.63385">
        <ele>874.1</ele>
        <time>2022-06-21T12:48:57Z</time>
      </trkpt>
      <trkpt lat="43.43771" lon="2.63385">
        <ele>874.1</ele>
        <time>2022-06-21T12:48:58Z</time>
      </trkpt>
      <trkpt lat="43.4377" lon="2.63385">
        <ele>874.1</ele>
        <time>2022-06-21T12:48:59Z</time>
      </trkpt>
      <trkpt lat="43.4377" lon="2.63385">
        <ele>874.2</ele>
        <time>2022-06-21T12:49:00Z</time>
      </trkpt>
      <trkpt lat="43.43767" lon="2.63385">
        <ele>874.3</ele>
        <time>2022-06-21T12:49:01Z</time>
      </trkpt>
      <trkpt lat="43.43766" lon="2.63385">
        <ele>874.3</ele>
        <time>2022-06-21T12:49:02Z</time>
      </trkpt>
      <trkpt lat="43.43764" lon="2.63386">
        <ele>874.4</ele>
        <time>2022-06-21T12:49:03Z</time>
      </trkpt>
      <trkpt lat="43.43763" lon="2.63386">
        <ele>874.4</ele>
        <time>2022-06-21T12:49:04Z</time>
      </trkpt>
      <trkpt lat="43.43762" lon="2.63386">
        <ele>874.4</ele>
        <time>2022-06-21T12:49:05Z</time>
      </trkpt>
      <trkpt lat="43.43762" lon="2.63386">
        <ele>874.4</ele>
        <time>2022-06-21T12:49:06Z</time>
      </trkpt>
      <trkpt lat="43.43762" lon="2.63386">
        <ele>874.4</ele>
        <time>2022-06-21T12:49:07Z</time>
      </trkpt>
      <trkpt lat="43.43762" lon="2.63386">
        <ele>874.4</ele>
        <time>2022-06-21T12:49:08Z</time>
      </trkpt>
      <trkpt lat="43.43762" lon="2.63386">
        <ele>874.4</ele>
        <time>2022-06-21T12:49:09Z</time>
      </trkpt>
      <trkpt lat="43.43762" lon="2.63386">
        <ele>874.4</ele>
        <time>2022-06-21T12:49:10Z</time>
      </trkpt>
      <trkpt lat="43.43762" lon="2.63386">
        <ele>874.4</ele>
        <time>2022-06-21T12:49:11Z</time>
      </trkpt>
      <trkpt lat="43.43762" lon="2.63386">
        <ele>874.4</ele>
        <time>2022-06-21T12:49:12Z</time>
      </trkpt>
      <trkpt lat="43.43762" lon="2.63386">
        <ele>874.4</ele>
        <time>2022-06-21T12:49:13Z</time>
      </trkpt>
      <trkpt lat="43.43762" lon="2.63386">
        <ele>874.4</ele>
        <time>2022-06-21T12:49:14Z</time>
      </trkpt>
      <trkpt lat="43.43762" lon="2.63386">
        <ele>874.4</ele>
        <time>2022-06-21T12:49:15Z</time>
      </trkpt>
      <trkpt lat="43.43761" lon="2.63386">
        <ele>874.5</ele>
        <time>2022-06-21T12:49:16Z</time>
      </trkpt>
      <trkpt lat="43.4376" lon="2.63386">
        <ele>874.5</ele>
        <time>2022-06-21T12:49:17Z</time>
      </trkpt>
      <trkpt lat="43.43759" lon="2.63386">
        <ele>874.6</ele>
        <time>2022-06-21T12:49:18Z</time>
      </trkpt>
      <trkpt lat="43.43757" lon="2.63386">
        <ele>874.6</ele>
        <time>2022-06-21T12:49:19Z</time>
      </trkpt>
      <trkpt lat="43.43756" lon="2.63386">
        <ele>874.6</ele>
        <time>2022-06-21T12:49:20Z</time>
      </trkpt>
      <trkpt lat="43.43755" lon="2.63386">
        <ele>874.7</ele>
        <time>2022-06-21T12:49:21Z</time>
      </trkpt>
      <trkpt lat="43.43755" lon="2.63385">
        <ele>874.7</ele>
        <time>2022-06-21T12:49:22Z</time>
      </trkpt>
      <trkpt lat="43.43754" lon="2.63385">
        <ele>874.7</ele>
        <time>2022-06-21T12:49:23Z</time>
      </trkpt>
      <trkpt lat="43.43753" lon="2.63385">
        <ele>874.7</ele>
        <time>2022-06-21T12:49:24Z</time>
      </trkpt>
      <trkpt lat="43.43753" lon="2.63385">
        <ele>874.8</ele>
        <time>2022-06-21T12:49:25Z</time>
      </trkpt>
      <trkpt lat="43.43752" lon="2.63385">
        <ele>874.8</ele>
        <time>2022-06-21T12:49:26Z</time>
      </trkpt>
      <trkpt lat="43.43751" lon="2.63385">
        <ele>874.8</ele>
        <time>2022-06-21T12:49:27Z</time>
      </trkpt>
      <trkpt lat="43.4375" lon="2.63385">
        <ele>874.9</ele>
        <time>2022-06-21T12:49:28Z</time>
      </trkpt>
      <trkpt lat="43.43749" lon="2.63385">
        <ele>874.9</ele>
        <time>2022-06-21T12:49:29Z</time>
      </trkpt>
      <trkpt lat="43.43748" lon="2.63385">
        <ele>874.9</ele>
        <time>2022-06-21T12:49:30Z</time>
      </trkpt>
      <trkpt lat="43.43745" lon="2.63385">
        <ele>875</ele>
        <time>2022-06-21T12:49:31Z</time>
      </trkpt>
      <trkpt lat="43.43744" lon="2.63386">
        <ele>875.1</ele>
        <time>2022-06-21T12:49:32Z</time>
      </trkpt>
      <trkpt lat="43.43743" lon="2.63386">
        <ele>875.1</ele>
        <time>2022-06-21T12:49:33Z</time>
      </trkpt>
      <trkpt lat="43.43741" lon="2.63387">
        <ele>875.2</ele>
        <time>2022-06-21T12:49:34Z</time>
      </trkpt>
      <trkpt lat="43.43738" lon="2.63387">
        <ele>875.3</ele>
        <time>2022-06-21T12:49:35Z</time>
      </trkpt>
      <trkpt lat="43.43737" lon="2.63387">
        <ele>875.3</ele>
        <time>2022-06-21T12:49:36Z</time>
      </trkpt>
      <trkpt lat="43.43732" lon="2.63386">
        <ele>875.5</ele>
        <time>2022-06-21T12:49:37Z</time>
      </trkpt>
      <trkpt lat="43.4373" lon="2.63386">
        <ele>875.6</ele>
        <time>2022-06-21T12:49:38Z</time>
      </trkpt>
      <trkpt lat="43.43726" lon="2.63385">
        <ele>875.7</ele>
        <time>2022-06-21T12:49:39Z</time>
      </trkpt>
      <trkpt lat="43.43725" lon="2.63385">
        <ele>875.8</ele>
        <time>2022-06-21T12:49:40Z</time>
      </trkpt>
      <trkpt lat="43.43722" lon="2.63384">
        <ele>875.9</ele>
        <time>2022-06-21T12:49:41Z</time>
      </trkpt>
      <trkpt lat="43.4372" lon="2.63384">
        <ele>875.9</ele>
        <time>2022-06-21T12:49:42Z</time>
      </trkpt>
      <trkpt lat="43.43718" lon="2.63383">
        <ele>876</ele>
        <time>2022-06-21T12:49:43Z</time>
      </trkpt>
      <trkpt lat="43.43717" lon="2.63383">
        <ele>876</ele>
        <time>2022-06-21T12:49:44Z</time>
      </trkpt>
      <trkpt lat="43.43717" lon="2.63382">
        <ele>876.1</ele>
        <time>2022-06-21T12:49:46Z</time>
      </trkpt>
      <trkpt lat="43.43716" lon="2.63382">
        <ele>876.1</ele>
        <time>2022-06-21T12:49:47Z</time>
      </trkpt>
      <trkpt lat="43.43714" lon="2.63383">
        <ele>876.2</ele>
        <time>2022-06-21T12:49:48Z</time>
      </trkpt>
      <trkpt lat="43.43712" lon="2.63383">
        <ele>876.2</ele>
        <time>2022-06-21T12:49:49Z</time>
      </trkpt>
      <trkpt lat="43.43711" lon="2.63383">
        <ele>876.3</ele>
        <time>2022-06-21T12:49:50Z</time>
      </trkpt>
      <trkpt lat="43.4371" lon="2.63384">
        <ele>876.3</ele>
        <time>2022-06-21T12:49:51Z</time>
      </trkpt>
      <trkpt lat="43.43709" lon="2.63384">
        <ele>876.3</ele>
        <time>2022-06-21T12:49:52Z</time>
      </trkpt>
      <trkpt lat="43.43707" lon="2.63385">
        <ele>876.4</ele>
        <time>2022-06-21T12:49:54Z</time>
      </trkpt>
      <trkpt lat="43.43706" lon="2.63385">
        <ele>876.5</ele>
        <time>2022-06-21T12:49:55Z</time>
      </trkpt>
      <trkpt lat="43.43705" lon="2.63385">
        <ele>876.5</ele>
        <time>2022-06-21T12:49:56Z</time>
      </trkpt>
      <trkpt lat="43.43702" lon="2.63385">
        <ele>876.6</ele>
        <time>2022-06-21T12:49:57Z</time>
      </trkpt>
      <trkpt lat="43.43702" lon="2.63385">
        <ele>876.6</ele>
        <time>2022-06-21T12:49:58Z</time>
      </trkpt>
      <trkpt lat="43.43701" lon="2.63385">
        <ele>876.6</ele>
        <time>2022-06-21T12:49:59Z</time>
      </trkpt>
      <trkpt lat="43.43699" lon="2.63385">
        <ele>876.7</ele>
        <time>2022-06-21T12:50:00Z</time>
      </trkpt>
      <trkpt lat="43.43698" lon="2.63385">
        <ele>876.8</ele>
        <time>2022-06-21T12:50:02Z</time>
      </trkpt>
      <trkpt lat="43.43697" lon="2.63385">
        <ele>876.8</ele>
        <time>2022-06-21T12:50:03Z</time>
      </trkpt>
      <trkpt lat="43.43695" lon="2.63384">
        <ele>876.8</ele>
        <time>2022-06-21T12:50:04Z</time>
      </trkpt>
      <trkpt lat="43.43694" lon="2.63384">
        <ele>876.9</ele>
        <time>2022-06-21T12:50:05Z</time>
      </trkpt>
      <trkpt lat="43.43692" lon="2.63383">
        <ele>877</ele>
        <time>2022-06-21T12:50:06Z</time>
      </trkpt>
      <trkpt lat="43.43691" lon="2.63383">
        <ele>877</ele>
        <time>2022-06-21T12:50:08Z</time>
      </trkpt>
      <trkpt lat="43.4369" lon="2.63383">
        <ele>877</ele>
        <time>2022-06-21T12:50:09Z</time>
      </trkpt>
      <trkpt lat="43.43688" lon="2.63382">
        <ele>877.1</ele>
        <time>2022-06-21T12:50:10Z</time>
      </trkpt>
      <trkpt lat="43.43686" lon="2.63382">
        <ele>877.2</ele>
        <time>2022-06-21T12:50:11Z</time>
      </trkpt>
      <trkpt lat="43.43684" lon="2.63381">
        <ele>877.2</ele>
        <time>2022-06-21T12:50:12Z</time>
      </trkpt>
      <trkpt lat="43.43684" lon="2.63381">
        <ele>877.3</ele>
        <time>2022-06-21T12:50:13Z</time>
      </trkpt>
      <trkpt lat="43.43683" lon="2.6338">
        <ele>877.3</ele>
        <time>2022-06-21T12:50:14Z</time>
      </trkpt>
      <trkpt lat="43.43681" lon="2.6338">
        <ele>877.4</ele>
        <time>2022-06-21T12:50:15Z</time>
      </trkpt>
      <trkpt lat="43.4368" lon="2.6338">
        <ele>877.4</ele>
        <time>2022-06-21T12:50:16Z</time>
      </trkpt>
      <trkpt lat="43.43679" lon="2.6338">
        <ele>877.5</ele>
        <time>2022-06-21T12:50:17Z</time>
      </trkpt>
      <trkpt lat="43.43677" lon="2.6338">
        <ele>877.5</ele>
        <time>2022-06-21T12:50:18Z</time>
      </trkpt>
      <trkpt lat="43.43676" lon="2.63379">
        <ele>877.5</ele>
        <time>2022-06-21T12:50:19Z</time>
      </trkpt>
      <trkpt lat="43.43675" lon="2.63379">
        <ele>877.6</ele>
        <time>2022-06-21T12:50:20Z</time>
      </trkpt>
      <trkpt lat="43.43673" lon="2.63378">
        <ele>877.7</ele>
        <time>2022-06-21T12:50:21Z</time>
      </trkpt>
      <trkpt lat="43.43672" lon="2.63378">
        <ele>877.7</ele>
        <time>2022-06-21T12:50:22Z</time>
      </trkpt>
      <trkpt lat="43.43671" lon="2.63378">
        <ele>877.7</ele>
        <time>2022-06-21T12:50:23Z</time>
      </trkpt>
      <trkpt lat="43.43671" lon="2.63379">
        <ele>877.7</ele>
        <time>2022-06-21T12:50:24Z</time>
      </trkpt>
      <trkpt lat="43.4367" lon="2.63379">
        <ele>877.8</ele>
        <time>2022-06-21T12:50:25Z</time>
      </trkpt>
      <trkpt lat="43.43669" lon="2.63378">
        <ele>877.8</ele>
        <time>2022-06-21T12:50:26Z</time>
      </trkpt>
      <trkpt lat="43.43668" lon="2.63379">
        <ele>877.8</ele>
        <time>2022-06-21T12:50:27Z</time>
      </trkpt>
      <trkpt lat="43.43667" lon="2.63379">
        <ele>877.9</ele>
        <time>2022-06-21T12:50:28Z</time>
      </trkpt>
      <trkpt lat="43.43665" lon="2.63379">
        <ele>877.9</ele>
        <time>2022-06-21T12:50:29Z</time>
      </trkpt>
      <trkpt lat="43.43665" lon="2.63379">
        <ele>878</ele>
        <time>2022-06-21T12:50:30Z</time>
      </trkpt>
      <trkpt lat="43.43663" lon="2.63379">
        <ele>878</ele>
        <time>2022-06-21T12:50:31Z</time>
      </trkpt>
      <trkpt lat="43.43663" lon="2.63379">
        <ele>878</ele>
        <time>2022-06-21T12:50:32Z</time>
      </trkpt>
      <trkpt lat="43.43662" lon="2.63379">
        <ele>878.1</ele>
        <time>2022-06-21T12:50:33Z</time>
      </trkpt>
      <trkpt lat="43.43661" lon="2.63379">
        <ele>878.1</ele>
        <time>2022-06-21T12:50:34Z</time>
      </trkpt>
      <trkpt lat="43.4366" lon="2.63379">
        <ele>878.1</ele>
        <time>2022-06-21T12:50:35Z</time>
      </trkpt>
      <trkpt lat="43.43659" lon="2.63379">
        <ele>878.2</ele>
        <time>2022-06-21T12:50:36Z</time>
      </trkpt>
      <trkpt lat="43.43658" lon="2.63379">
        <ele>878.2</ele>
        <time>2022-06-21T12:50:37Z</time>
      </trkpt>
      <trkpt lat="43.43657" lon="2.63379">
        <ele>878.2</ele>
        <time>2022-06-21T12:50:38Z</time>
      </trkpt>
      <trkpt lat="43.43656" lon="2.6338">
        <ele>878.3</ele>
        <time>2022-06-21T12:50:39Z</time>
      </trkpt>
      <trkpt lat="43.43654" lon="2.6338">
        <ele>878.3</ele>
        <time>2022-06-21T12:50:40Z</time>
      </trkpt>
      <trkpt lat="43.43654" lon="2.6338">
        <ele>878.4</ele>
        <time>2022-06-21T12:50:41Z</time>
      </trkpt>
      <trkpt lat="43.43653" lon="2.6338">
        <ele>878.4</ele>
        <time>2022-06-21T12:50:42Z</time>
      </trkpt>
      <trkpt lat="43.43651" lon="2.63379">
        <ele>878.4</ele>
        <time>2022-06-21T12:50:43Z</time>
      </trkpt>
      <trkpt lat="43.4365" lon="2.63379">
        <ele>878.5</ele>
        <time>2022-06-21T12:50:44Z</time>
      </trkpt>
      <trkpt lat="43.43649" lon="2.6338">
        <ele>878.5</ele>
        <time>2022-06-21T12:50:45Z</time>
      </trkpt>
      <trkpt lat="43.43648" lon="2.6338">
        <ele>878.6</ele>
        <time>2022-06-21T12:50:46Z</time>
      </trkpt>
      <trkpt lat="43.43647" lon="2.6338">
        <ele>878.6</ele>
        <time>2022-06-21T12:50:47Z</time>
      </trkpt>
      <trkpt lat="43.43646" lon="2.6338">
        <ele>878.6</ele>
        <time>2022-06-21T12:50:48Z</time>
      </trkpt>
      <trkpt lat="43.43645" lon="2.6338">
        <ele>878.7</ele>
        <time>2022-06-21T12:50:49Z</time>
      </trkpt>
      <trkpt lat="43.43643" lon="2.6338">
        <ele>878.7</ele>
        <time>2022-06-21T12:50:50Z</time>
      </trkpt>
      <trkpt lat="43.43641" lon="2.6338">
        <ele>878.8</ele>
        <time>2022-06-21T12:50:51Z</time>
      </trkpt>
      <trkpt lat="43.4364" lon="2.6338">
        <ele>878.8</ele>
        <time>2022-06-21T12:50:53Z</time>
      </trkpt>
      <trkpt lat="43.43639" lon="2.6338">
        <ele>878.9</ele>
        <time>2022-06-21T12:50:54Z</time>
      </trkpt>
      <trkpt lat="43.43638" lon="2.6338">
        <ele>878.9</ele>
        <time>2022-06-21T12:50:55Z</time>
      </trkpt>
      <trkpt lat="43.43637" lon="2.6338">
        <ele>879</ele>
        <time>2022-06-21T12:50:56Z</time>
      </trkpt>
      <trkpt lat="43.43636" lon="2.6338">
        <ele>879</ele>
        <time>2022-06-21T12:50:57Z</time>
      </trkpt>
      <trkpt lat="43.43634" lon="2.6338">
        <ele>879</ele>
        <time>2022-06-21T12:50:58Z</time>
      </trkpt>
      <trkpt lat="43.43634" lon="2.6338">
        <ele>879.1</ele>
        <time>2022-06-21T12:50:59Z</time>
      </trkpt>
      <trkpt lat="43.43633" lon="2.6338">
        <ele>879.1</ele>
        <time>2022-06-21T12:51:00Z</time>
      </trkpt>
      <trkpt lat="43.43632" lon="2.63379">
        <ele>879.1</ele>
        <time>2022-06-21T12:51:01Z</time>
      </trkpt>
      <trkpt lat="43.43631" lon="2.63379">
        <ele>879.2</ele>
        <time>2022-06-21T12:51:02Z</time>
      </trkpt>
      <trkpt lat="43.43629" lon="2.63379">
        <ele>879.2</ele>
        <time>2022-06-21T12:51:04Z</time>
      </trkpt>
      <trkpt lat="43.43628" lon="2.63378">
        <ele>879.3</ele>
        <time>2022-06-21T12:51:05Z</time>
      </trkpt>
      <trkpt lat="43.43627" lon="2.63378">
        <ele>879.3</ele>
        <time>2022-06-21T12:51:07Z</time>
      </trkpt>
      <trkpt lat="43.43626" lon="2.63378">
        <ele>879.4</ele>
        <time>2022-06-21T12:51:08Z</time>
      </trkpt>
      <trkpt lat="43.43625" lon="2.63377">
        <ele>879.4</ele>
        <time>2022-06-21T12:51:09Z</time>
      </trkpt>
      <trkpt lat="43.43623" lon="2.63377">
        <ele>879.4</ele>
        <time>2022-06-21T12:51:10Z</time>
      </trkpt>
      <trkpt lat="43.43623" lon="2.63377">
        <ele>879.5</ele>
        <time>2022-06-21T12:51:11Z</time>
      </trkpt>
      <trkpt lat="43.43622" lon="2.63377">
        <ele>879.5</ele>
        <time>2022-06-21T12:51:12Z</time>
      </trkpt>
      <trkpt lat="43.4362" lon="2.63377">
        <ele>879.6</ele>
        <time>2022-06-21T12:51:13Z</time>
      </trkpt>
      <trkpt lat="43.43619" lon="2.63376">
        <ele>879.6</ele>
        <time>2022-06-21T12:51:14Z</time>
      </trkpt>
      <trkpt lat="43.43617" lon="2.63376">
        <ele>879.7</ele>
        <time>2022-06-21T12:51:15Z</time>
      </trkpt>
      <trkpt lat="43.43617" lon="2.63376">
        <ele>879.7</ele>
        <time>2022-06-21T12:51:16Z</time>
      </trkpt>
      <trkpt lat="43.43616" lon="2.63377">
        <ele>879.7</ele>
        <time>2022-06-21T12:51:17Z</time>
      </trkpt>
      <trkpt lat="43.43615" lon="2.63377">
        <ele>879.8</ele>
        <time>2022-06-21T12:51:19Z</time>
      </trkpt>
      <trkpt lat="43.43614" lon="2.63377">
        <ele>879.8</ele>
        <time>2022-06-21T12:51:20Z</time>
      </trkpt>
      <trkpt lat="43.43613" lon="2.63377">
        <ele>879.8</ele>
        <time>2022-06-21T12:51:21Z</time>
      </trkpt>
      <trkpt lat="43.43611" lon="2.63377">
        <ele>879.9</ele>
        <time>2022-06-21T12:51:22Z</time>
      </trkpt>
      <trkpt lat="43.4361" lon="2.63377">
        <ele>879.9</ele>
        <time>2022-06-21T12:51:23Z</time>
      </trkpt>
      <trkpt lat="43.43609" lon="2.63377">
        <ele>879.9</ele>
        <time>2022-06-21T12:51:24Z</time>
      </trkpt>
      <trkpt lat="43.43608" lon="2.63376">
        <ele>880</ele>
        <time>2022-06-21T12:51:25Z</time>
      </trkpt>
      <trkpt lat="43.43607" lon="2.63376">
        <ele>880</ele>
        <time>2022-06-21T12:51:26Z</time>
      </trkpt>
      <trkpt lat="43.43605" lon="2.63374">
        <ele>880.1</ele>
        <time>2022-06-21T12:51:28Z</time>
      </trkpt>
      <trkpt lat="43.43604" lon="2.63374">
        <ele>880.2</ele>
        <time>2022-06-21T12:51:29Z</time>
      </trkpt>
      <trkpt lat="43.43603" lon="2.63373">
        <ele>880.2</ele>
        <time>2022-06-21T12:51:30Z</time>
      </trkpt>
      <trkpt lat="43.43602" lon="2.63372">
        <ele>880.2</ele>
        <time>2022-06-21T12:51:31Z</time>
      </trkpt>
      <trkpt lat="43.43601" lon="2.6337">
        <ele>880.3</ele>
        <time>2022-06-21T12:51:32Z</time>
      </trkpt>
      <trkpt lat="43.436" lon="2.63368">
        <ele>880.4</ele>
        <time>2022-06-21T12:51:34Z</time>
      </trkpt>
      <trkpt lat="43.43599" lon="2.63367">
        <ele>880.4</ele>
        <time>2022-06-21T12:51:35Z</time>
      </trkpt>
      <trkpt lat="43.43598" lon="2.63366">
        <ele>880.5</ele>
        <time>2022-06-21T12:51:36Z</time>
      </trkpt>
      <trkpt lat="43.43597" lon="2.63365">
        <ele>880.5</ele>
        <time>2022-06-21T12:51:37Z</time>
      </trkpt>
      <trkpt lat="43.43597" lon="2.63362">
        <ele>880.6</ele>
        <time>2022-06-21T12:51:38Z</time>
      </trkpt>
      <trkpt lat="43.43596" lon="2.63359">
        <ele>880.7</ele>
        <time>2022-06-21T12:51:39Z</time>
      </trkpt>
      <trkpt lat="43.43595" lon="2.63358">
        <ele>880.7</ele>
        <time>2022-06-21T12:51:41Z</time>
      </trkpt>
      <trkpt lat="43.43594" lon="2.63357">
        <ele>880.7</ele>
        <time>2022-06-21T12:51:42Z</time>
      </trkpt>
      <trkpt lat="43.43593" lon="2.63356">
        <ele>880.8</ele>
        <time>2022-06-21T12:51:43Z</time>
      </trkpt>
      <trkpt lat="43.43592" lon="2.63355">
        <ele>880.8</ele>
        <time>2022-06-21T12:51:44Z</time>
      </trkpt>
      <trkpt lat="43.43591" lon="2.63353">
        <ele>880.9</ele>
        <time>2022-06-21T12:51:45Z</time>
      </trkpt>
      <trkpt lat="43.4359" lon="2.63352">
        <ele>880.9</ele>
        <time>2022-06-21T12:51:46Z</time>
      </trkpt>
      <trkpt lat="43.43589" lon="2.63352">
        <ele>881</ele>
        <time>2022-06-21T12:51:47Z</time>
      </trkpt>
      <trkpt lat="43.43588" lon="2.63351">
        <ele>881</ele>
        <time>2022-06-21T12:51:48Z</time>
      </trkpt>
      <trkpt lat="43.43587" lon="2.63349">
        <ele>881.1</ele>
        <time>2022-06-21T12:51:49Z</time>
      </trkpt>
      <trkpt lat="43.43586" lon="2.63349">
        <ele>881.1</ele>
        <time>2022-06-21T12:51:50Z</time>
      </trkpt>
      <trkpt lat="43.43585" lon="2.63348">
        <ele>881.1</ele>
        <time>2022-06-21T12:51:52Z</time>
      </trkpt>
      <trkpt lat="43.43584" lon="2.63347">
        <ele>881.2</ele>
        <time>2022-06-21T12:51:53Z</time>
      </trkpt>
      <trkpt lat="43.43583" lon="2.63346">
        <ele>881.2</ele>
        <time>2022-06-21T12:51:54Z</time>
      </trkpt>
      <trkpt lat="43.43582" lon="2.63345">
        <ele>881.3</ele>
        <time>2022-06-21T12:51:55Z</time>
      </trkpt>
      <trkpt lat="43.43581" lon="2.63344">
        <ele>881.3</ele>
        <time>2022-06-21T12:51:56Z</time>
      </trkpt>
      <trkpt lat="43.4358" lon="2.63343">
        <ele>881.4</ele>
        <time>2022-06-21T12:51:57Z</time>
      </trkpt>
      <trkpt lat="43.43579" lon="2.63342">
        <ele>881.4</ele>
        <time>2022-06-21T12:51:58Z</time>
      </trkpt>
      <trkpt lat="43.43579" lon="2.63341">
        <ele>881.4</ele>
        <time>2022-06-21T12:52:00Z</time>
      </trkpt>
      <trkpt lat="43.43577" lon="2.63339">
        <ele>881.5</ele>
        <time>2022-06-21T12:52:01Z</time>
      </trkpt>
      <trkpt lat="43.43576" lon="2.63337">
        <ele>881.6</ele>
        <time>2022-06-21T12:52:02Z</time>
      </trkpt>
      <trkpt lat="43.43575" lon="2.63336">
        <ele>881.6</ele>
        <time>2022-06-21T12:52:04Z</time>
      </trkpt>
      <trkpt lat="43.43575" lon="2.63335">
        <ele>881.6</ele>
        <time>2022-06-21T12:52:05Z</time>
      </trkpt>
      <trkpt lat="43.43574" lon="2.63334">
        <ele>881.7</ele>
        <time>2022-06-21T12:52:06Z</time>
      </trkpt>
      <trkpt lat="43.43573" lon="2.63332">
        <ele>881.7</ele>
        <time>2022-06-21T12:52:07Z</time>
      </trkpt>
      <trkpt lat="43.43572" lon="2.63332">
        <ele>881.8</ele>
        <time>2022-06-21T12:52:08Z</time>
      </trkpt>
      <trkpt lat="43.43571" lon="2.63331">
        <ele>881.8</ele>
        <time>2022-06-21T12:52:09Z</time>
      </trkpt>
      <trkpt lat="43.4357" lon="2.6333">
        <ele>881.9</ele>
        <time>2022-06-21T12:52:10Z</time>
      </trkpt>
      <trkpt lat="43.43569" lon="2.63329">
        <ele>881.9</ele>
        <time>2022-06-21T12:52:11Z</time>
      </trkpt>
      <trkpt lat="43.43568" lon="2.63328">
        <ele>881.9</ele>
        <time>2022-06-21T12:52:12Z</time>
      </trkpt>
      <trkpt lat="43.43567" lon="2.63327">
        <ele>882</ele>
        <time>2022-06-21T12:52:14Z</time>
      </trkpt>
      <trkpt lat="43.43566" lon="2.63326">
        <ele>882</ele>
        <time>2022-06-21T12:52:15Z</time>
      </trkpt>
      <trkpt lat="43.43565" lon="2.63325">
        <ele>882.1</ele>
        <time>2022-06-21T12:52:16Z</time>
      </trkpt>
      <trkpt lat="43.43564" lon="2.63325">
        <ele>882.1</ele>
        <time>2022-06-21T12:52:17Z</time>
      </trkpt>
      <trkpt lat="43.43563" lon="2.63324">
        <ele>882.2</ele>
        <time>2022-06-21T12:52:18Z</time>
      </trkpt>
      <trkpt lat="43.43562" lon="2.63323">
        <ele>882.2</ele>
        <time>2022-06-21T12:52:19Z</time>
      </trkpt>
      <trkpt lat="43.43561" lon="2.63322">
        <ele>882.2</ele>
        <time>2022-06-21T12:52:20Z</time>
      </trkpt>
      <trkpt lat="43.4356" lon="2.63321">
        <ele>882.3</ele>
        <time>2022-06-21T12:52:21Z</time>
      </trkpt>
      <trkpt lat="43.43559" lon="2.6332">
        <ele>882.3</ele>
        <time>2022-06-21T12:52:22Z</time>
      </trkpt>
      <trkpt lat="43.43557" lon="2.63319">
        <ele>882.4</ele>
        <time>2022-06-21T12:52:23Z</time>
      </trkpt>
      <trkpt lat="43.43556" lon="2.63318">
        <ele>882.4</ele>
        <time>2022-06-21T12:52:24Z</time>
      </trkpt>
      <trkpt lat="43.43555" lon="2.63317">
        <ele>882.5</ele>
        <time>2022-06-21T12:52:25Z</time>
      </trkpt>
      <trkpt lat="43.43554" lon="2.63317">
        <ele>882.5</ele>
        <time>2022-06-21T12:52:27Z</time>
      </trkpt>
      <trkpt lat="43.43553" lon="2.63316">
        <ele>882.6</ele>
        <time>2022-06-21T12:52:28Z</time>
      </trkpt>
      <trkpt lat="43.43551" lon="2.63315">
        <ele>882.6</ele>
        <time>2022-06-21T12:52:29Z</time>
      </trkpt>
      <trkpt lat="43.43551" lon="2.63314">
        <ele>882.6</ele>
        <time>2022-06-21T12:52:30Z</time>
      </trkpt>
      <trkpt lat="43.4355" lon="2.63314">
        <ele>882.7</ele>
        <time>2022-06-21T12:52:31Z</time>
      </trkpt>
      <trkpt lat="43.43549" lon="2.63313">
        <ele>882.7</ele>
        <time>2022-06-21T12:52:32Z</time>
      </trkpt>
      <trkpt lat="43.43548" lon="2.63312">
        <ele>882.7</ele>
        <time>2022-06-21T12:52:33Z</time>
      </trkpt>
      <trkpt lat="43.43547" lon="2.63311">
        <ele>882.8</ele>
        <time>2022-06-21T12:52:34Z</time>
      </trkpt>
      <trkpt lat="43.43546" lon="2.6331">
        <ele>882.8</ele>
        <time>2022-06-21T12:52:35Z</time>
      </trkpt>
      <trkpt lat="43.43545" lon="2.63308">
        <ele>882.9</ele>
        <time>2022-06-21T12:52:36Z</time>
      </trkpt>
      <trkpt lat="43.43544" lon="2.63308">
        <ele>882.9</ele>
        <time>2022-06-21T12:52:38Z</time>
      </trkpt>
      <trkpt lat="43.43543" lon="2.63307">
        <ele>883</ele>
        <time>2022-06-21T12:52:39Z</time>
      </trkpt>
      <trkpt lat="43.43542" lon="2.63306">
        <ele>883</ele>
        <time>2022-06-21T12:52:40Z</time>
      </trkpt>
      <trkpt lat="43.43541" lon="2.63305">
        <ele>883</ele>
        <time>2022-06-21T12:52:41Z</time>
      </trkpt>
      <trkpt lat="43.4354" lon="2.63304">
        <ele>883.1</ele>
        <time>2022-06-21T12:52:42Z</time>
      </trkpt>
      <trkpt lat="43.4354" lon="2.63303">
        <ele>883.1</ele>
        <time>2022-06-21T12:52:43Z</time>
      </trkpt>
      <trkpt lat="43.43538" lon="2.63302">
        <ele>883.2</ele>
        <time>2022-06-21T12:52:44Z</time>
      </trkpt>
      <trkpt lat="43.43537" lon="2.63301">
        <ele>883.2</ele>
        <time>2022-06-21T12:52:46Z</time>
      </trkpt>
      <trkpt lat="43.43536" lon="2.633">
        <ele>883.3</ele>
        <time>2022-06-21T12:52:47Z</time>
      </trkpt>
      <trkpt lat="43.43534" lon="2.63297">
        <ele>883.4</ele>
        <time>2022-06-21T12:52:48Z</time>
      </trkpt>
      <trkpt lat="43.43534" lon="2.63296">
        <ele>883.4</ele>
        <time>2022-06-21T12:52:50Z</time>
      </trkpt>
      <trkpt lat="43.43533" lon="2.63295">
        <ele>883.4</ele>
        <time>2022-06-21T12:52:51Z</time>
      </trkpt>
      <trkpt lat="43.43533" lon="2.63294">
        <ele>883.5</ele>
        <time>2022-06-21T12:52:52Z</time>
      </trkpt>
      <trkpt lat="43.43532" lon="2.63293">
        <ele>883.5</ele>
        <time>2022-06-21T12:52:53Z</time>
      </trkpt>
      <trkpt lat="43.4353" lon="2.63291">
        <ele>883.6</ele>
        <time>2022-06-21T12:52:54Z</time>
      </trkpt>
      <trkpt lat="43.4353" lon="2.6329">
        <ele>883.6</ele>
        <time>2022-06-21T12:52:55Z</time>
      </trkpt>
      <trkpt lat="43.43529" lon="2.6329">
        <ele>883.6</ele>
        <time>2022-06-21T12:52:56Z</time>
      </trkpt>
      <trkpt lat="43.43528" lon="2.63289">
        <ele>883.7</ele>
        <time>2022-06-21T12:52:57Z</time>
      </trkpt>
      <trkpt lat="43.43528" lon="2.63288">
        <ele>883.7</ele>
        <time>2022-06-21T12:52:58Z</time>
      </trkpt>
      <trkpt lat="43.43526" lon="2.63286">
        <ele>883.8</ele>
        <time>2022-06-21T12:53:00Z</time>
      </trkpt>
      <trkpt lat="43.43525" lon="2.63285">
        <ele>883.8</ele>
        <time>2022-06-21T12:53:01Z</time>
      </trkpt>
      <trkpt lat="43.43524" lon="2.63284">
        <ele>883.9</ele>
        <time>2022-06-21T12:53:02Z</time>
      </trkpt>
      <trkpt lat="43.43523" lon="2.63283">
        <ele>883.9</ele>
        <time>2022-06-21T12:53:03Z</time>
      </trkpt>
      <trkpt lat="43.43522" lon="2.63282">
        <ele>884</ele>
        <time>2022-06-21T12:53:04Z</time>
      </trkpt>
      <trkpt lat="43.43521" lon="2.63281">
        <ele>884</ele>
        <time>2022-06-21T12:53:05Z</time>
      </trkpt>
      <trkpt lat="43.4352" lon="2.63279">
        <ele>884.1</ele>
        <time>2022-06-21T12:53:06Z</time>
      </trkpt>
      <trkpt lat="43.43519" lon="2.63278">
        <ele>884.1</ele>
        <time>2022-06-21T12:53:08Z</time>
      </trkpt>
      <trkpt lat="43.43518" lon="2.63278">
        <ele>884.2</ele>
        <time>2022-06-21T12:53:09Z</time>
      </trkpt>
      <trkpt lat="43.43516" lon="2.63277">
        <ele>884.2</ele>
        <time>2022-06-21T12:53:10Z</time>
      </trkpt>
      <trkpt lat="43.43515" lon="2.63276">
        <ele>884.3</ele>
        <time>2022-06-21T12:53:11Z</time>
      </trkpt>
      <trkpt lat="43.43514" lon="2.63275">
        <ele>884.3</ele>
        <time>2022-06-21T12:53:12Z</time>
      </trkpt>
      <trkpt lat="43.43513" lon="2.63275">
        <ele>884.4</ele>
        <time>2022-06-21T12:53:13Z</time>
      </trkpt>
      <trkpt lat="43.43512" lon="2.63274">
        <ele>884.4</ele>
        <time>2022-06-21T12:53:14Z</time>
      </trkpt>
      <trkpt lat="43.43512" lon="2.63274">
        <ele>884.4</ele>
        <time>2022-06-21T12:53:15Z</time>
      </trkpt>
      <trkpt lat="43.43511" lon="2.63274">
        <ele>884.4</ele>
        <time>2022-06-21T12:53:16Z</time>
      </trkpt>
      <trkpt lat="43.43509" lon="2.63273">
        <ele>884.5</ele>
        <time>2022-06-21T12:53:18Z</time>
      </trkpt>
      <trkpt lat="43.43507" lon="2.63272">
        <ele>884.6</ele>
        <time>2022-06-21T12:53:19Z</time>
      </trkpt>
      <trkpt lat="43.43506" lon="2.63272">
        <ele>884.6</ele>
        <time>2022-06-21T12:53:20Z</time>
      </trkpt>
      <trkpt lat="43.43505" lon="2.63272">
        <ele>884.6</ele>
        <time>2022-06-21T12:53:21Z</time>
      </trkpt>
      <trkpt lat="43.43504" lon="2.63271">
        <ele>884.7</ele>
        <time>2022-06-21T12:53:22Z</time>
      </trkpt>
      <trkpt lat="43.43503" lon="2.63271">
        <ele>884.7</ele>
        <time>2022-06-21T12:53:23Z</time>
      </trkpt>
      <trkpt lat="43.43501" lon="2.6327">
        <ele>884.8</ele>
        <time>2022-06-21T12:53:25Z</time>
      </trkpt>
      <trkpt lat="43.435" lon="2.63269">
        <ele>884.8</ele>
        <time>2022-06-21T12:53:26Z</time>
      </trkpt>
      <trkpt lat="43.43499" lon="2.63269">
        <ele>884.9</ele>
        <time>2022-06-21T12:53:27Z</time>
      </trkpt>
      <trkpt lat="43.43499" lon="2.63268">
        <ele>884.9</ele>
        <time>2022-06-21T12:53:28Z</time>
      </trkpt>
      <trkpt lat="43.43498" lon="2.63265">
        <ele>885</ele>
        <time>2022-06-21T12:53:29Z</time>
      </trkpt>
      <trkpt lat="43.43497" lon="2.63264">
        <ele>885</ele>
        <time>2022-06-21T12:53:30Z</time>
      </trkpt>
      <trkpt lat="43.43496" lon="2.63263">
        <ele>885</ele>
        <time>2022-06-21T12:53:32Z</time>
      </trkpt>
      <trkpt lat="43.43496" lon="2.63262">
        <ele>885.1</ele>
        <time>2022-06-21T12:53:33Z</time>
      </trkpt>
      <trkpt lat="43.43495" lon="2.63261">
        <ele>885.1</ele>
        <time>2022-06-21T12:53:34Z</time>
      </trkpt>
      <trkpt lat="43.43494" lon="2.6326">
        <ele>885.1</ele>
        <time>2022-06-21T12:53:35Z</time>
      </trkpt>
      <trkpt lat="43.43494" lon="2.6326">
        <ele>885.1</ele>
        <time>2022-06-21T12:53:36Z</time>
      </trkpt>
      <trkpt lat="43.43493" lon="2.63259">
        <ele>885.2</ele>
        <time>2022-06-21T12:53:38Z</time>
      </trkpt>
      <trkpt lat="43.43492" lon="2.63258">
        <ele>885.2</ele>
        <time>2022-06-21T12:53:39Z</time>
      </trkpt>
      <trkpt lat="43.43491" lon="2.63257">
        <ele>885.3</ele>
        <time>2022-06-21T12:53:40Z</time>
      </trkpt>
      <trkpt lat="43.4349" lon="2.63255">
        <ele>885.4</ele>
        <time>2022-06-21T12:53:41Z</time>
      </trkpt>
      <trkpt lat="43.43489" lon="2.63253">
        <ele>885.4</ele>
        <time>2022-06-21T12:53:42Z</time>
      </trkpt>
      <trkpt lat="43.43489" lon="2.63252">
        <ele>885.5</ele>
        <time>2022-06-21T12:53:43Z</time>
      </trkpt>
      <trkpt lat="43.43488" lon="2.6325">
        <ele>885.6</ele>
        <time>2022-06-21T12:53:44Z</time>
      </trkpt>
      <trkpt lat="43.43487" lon="2.63248">
        <ele>885.7</ele>
        <time>2022-06-21T12:53:46Z</time>
      </trkpt>
      <trkpt lat="43.43486" lon="2.63246">
        <ele>885.8</ele>
        <time>2022-06-21T12:53:47Z</time>
      </trkpt>
      <trkpt lat="43.43486" lon="2.63245">
        <ele>885.9</ele>
        <time>2022-06-21T12:53:48Z</time>
      </trkpt>
      <trkpt lat="43.43485" lon="2.63243">
        <ele>886</ele>
        <time>2022-06-21T12:53:49Z</time>
      </trkpt>
      <trkpt lat="43.43484" lon="2.63242">
        <ele>886.1</ele>
        <time>2022-06-21T12:53:50Z</time>
      </trkpt>
      <trkpt lat="43.43483" lon="2.63239">
        <ele>886.2</ele>
        <time>2022-06-21T12:53:51Z</time>
      </trkpt>
      <trkpt lat="43.43483" lon="2.63238">
        <ele>886.3</ele>
        <time>2022-06-21T12:53:52Z</time>
      </trkpt>
      <trkpt lat="43.43482" lon="2.63238">
        <ele>886.4</ele>
        <time>2022-06-21T12:53:53Z</time>
      </trkpt>
      <trkpt lat="43.43482" lon="2.63235">
        <ele>886.5</ele>
        <time>2022-06-21T12:53:54Z</time>
      </trkpt>
      <trkpt lat="43.43481" lon="2.63234">
        <ele>886.7</ele>
        <time>2022-06-21T12:53:55Z</time>
      </trkpt>
      <trkpt lat="43.4348" lon="2.63231">
        <ele>886.8</ele>
        <time>2022-06-21T12:53:57Z</time>
      </trkpt>
      <trkpt lat="43.4348" lon="2.6323">
        <ele>886.9</ele>
        <time>2022-06-21T12:53:58Z</time>
      </trkpt>
      <trkpt lat="43.4348" lon="2.63229">
        <ele>887</ele>
        <time>2022-06-21T12:53:59Z</time>
      </trkpt>
      <trkpt lat="43.43479" lon="2.63228">
        <ele>887.1</ele>
        <time>2022-06-21T12:54:00Z</time>
      </trkpt>
      <trkpt lat="43.43479" lon="2.63227">
        <ele>887.2</ele>
        <time>2022-06-21T12:54:01Z</time>
      </trkpt>
      <trkpt lat="43.43478" lon="2.63225">
        <ele>887.3</ele>
        <time>2022-06-21T12:54:02Z</time>
      </trkpt>
      <trkpt lat="43.43477" lon="2.63224">
        <ele>887.4</ele>
        <time>2022-06-21T12:54:03Z</time>
      </trkpt>
      <trkpt lat="43.43477" lon="2.63222">
        <ele>887.5</ele>
        <time>2022-06-21T12:54:05Z</time>
      </trkpt>
      <trkpt lat="43.43476" lon="2.6322">
        <ele>887.6</ele>
        <time>2022-06-21T12:54:06Z</time>
      </trkpt>
      <trkpt lat="43.43476" lon="2.63219">
        <ele>887.7</ele>
        <time>2022-06-21T12:54:07Z</time>
      </trkpt>
      <trkpt lat="43.43475" lon="2.63218">
        <ele>887.7</ele>
        <time>2022-06-21T12:54:08Z</time>
      </trkpt>
      <trkpt lat="43.43475" lon="2.63216">
        <ele>887.8</ele>
        <time>2022-06-21T12:54:09Z</time>
      </trkpt>
      <trkpt lat="43.43474" lon="2.63214">
        <ele>887.9</ele>
        <time>2022-06-21T12:54:10Z</time>
      </trkpt>
      <trkpt lat="43.43474" lon="2.63213">
        <ele>888</ele>
        <time>2022-06-21T12:54:12Z</time>
      </trkpt>
      <trkpt lat="43.43474" lon="2.63212">
        <ele>888</ele>
        <time>2022-06-21T12:54:13Z</time>
      </trkpt>
      <trkpt lat="43.43473" lon="2.6321">
        <ele>888.1</ele>
        <time>2022-06-21T12:54:14Z</time>
      </trkpt>
      <trkpt lat="43.43472" lon="2.63209">
        <ele>888.1</ele>
        <time>2022-06-21T12:54:15Z</time>
      </trkpt>
      <trkpt lat="43.43472" lon="2.63208">
        <ele>888.2</ele>
        <time>2022-06-21T12:54:16Z</time>
      </trkpt>
      <trkpt lat="43.43471" lon="2.63207">
        <ele>888.2</ele>
        <time>2022-06-21T12:54:17Z</time>
      </trkpt>
      <trkpt lat="43.43471" lon="2.63205">
        <ele>888.3</ele>
        <time>2022-06-21T12:54:18Z</time>
      </trkpt>
      <trkpt lat="43.4347" lon="2.63204">
        <ele>888.3</ele>
        <time>2022-06-21T12:54:19Z</time>
      </trkpt>
      <trkpt lat="43.4347" lon="2.63203">
        <ele>888.4</ele>
        <time>2022-06-21T12:54:20Z</time>
      </trkpt>
      <trkpt lat="43.43469" lon="2.63201">
        <ele>888.3</ele>
        <time>2022-06-21T12:54:21Z</time>
      </trkpt>
      <trkpt lat="43.43468" lon="2.632">
        <ele>888.3</ele>
        <time>2022-06-21T12:54:23Z</time>
      </trkpt>
      <trkpt lat="43.43468" lon="2.63199">
        <ele>888.2</ele>
        <time>2022-06-21T12:54:24Z</time>
      </trkpt>
      <trkpt lat="43.43467" lon="2.63197">
        <ele>888.2</ele>
        <time>2022-06-21T12:54:25Z</time>
      </trkpt>
      <trkpt lat="43.43467" lon="2.63196">
        <ele>888.1</ele>
        <time>2022-06-21T12:54:26Z</time>
      </trkpt>
      <trkpt lat="43.43466" lon="2.63195">
        <ele>888.1</ele>
        <time>2022-06-21T12:54:27Z</time>
      </trkpt>
      <trkpt lat="43.43465" lon="2.63194">
        <ele>888.1</ele>
        <time>2022-06-21T12:54:28Z</time>
      </trkpt>
      <trkpt lat="43.43464" lon="2.63193">
        <ele>888</ele>
        <time>2022-06-21T12:54:29Z</time>
      </trkpt>
      <trkpt lat="43.43463" lon="2.63192">
        <ele>888</ele>
        <time>2022-06-21T12:54:30Z</time>
      </trkpt>
      <trkpt lat="43.43462" lon="2.63191">
        <ele>887.9</ele>
        <time>2022-06-21T12:54:32Z</time>
      </trkpt>
      <trkpt lat="43.43461" lon="2.6319">
        <ele>887.9</ele>
        <time>2022-06-21T12:54:33Z</time>
      </trkpt>
      <trkpt lat="43.4346" lon="2.63189">
        <ele>887.8</ele>
        <time>2022-06-21T12:54:34Z</time>
      </trkpt>
      <trkpt lat="43.43459" lon="2.63188">
        <ele>887.8</ele>
        <time>2022-06-21T12:54:35Z</time>
      </trkpt>
      <trkpt lat="43.43458" lon="2.63187">
        <ele>887.7</ele>
        <time>2022-06-21T12:54:36Z</time>
      </trkpt>
      <trkpt lat="43.43457" lon="2.63186">
        <ele>887.7</ele>
        <time>2022-06-21T12:54:37Z</time>
      </trkpt>
      <trkpt lat="43.43456" lon="2.63185">
        <ele>887.6</ele>
        <time>2022-06-21T12:54:38Z</time>
      </trkpt>
      <trkpt lat="43.43455" lon="2.63185">
        <ele>887.6</ele>
        <time>2022-06-21T12:54:39Z</time>
      </trkpt>
      <trkpt lat="43.43454" lon="2.63183">
        <ele>887.6</ele>
        <time>2022-06-21T12:54:40Z</time>
      </trkpt>
      <trkpt lat="43.43454" lon="2.63183">
        <ele>887.5</ele>
        <time>2022-06-21T12:54:41Z</time>
      </trkpt>
      <trkpt lat="43.43453" lon="2.63181">
        <ele>887.5</ele>
        <time>2022-06-21T12:54:42Z</time>
      </trkpt>
      <trkpt lat="43.43452" lon="2.63181">
        <ele>887.5</ele>
        <time>2022-06-21T12:54:43Z</time>
      </trkpt>
      <trkpt lat="43.43452" lon="2.6318">
        <ele>887.4</ele>
        <time>2022-06-21T12:54:44Z</time>
      </trkpt>
      <trkpt lat="43.4345" lon="2.63178">
        <ele>887.3</ele>
        <time>2022-06-21T12:54:45Z</time>
      </trkpt>
      <trkpt lat="43.43449" lon="2.63177">
        <ele>887.3</ele>
        <time>2022-06-21T12:54:46Z</time>
      </trkpt>
      <trkpt lat="43.43449" lon="2.63176">
        <ele>887.3</ele>
        <time>2022-06-21T12:54:48Z</time>
      </trkpt>
      <trkpt lat="43.43448" lon="2.63175">
        <ele>887.2</ele>
        <time>2022-06-21T12:54:49Z</time>
      </trkpt>
      <trkpt lat="43.43446" lon="2.63173">
        <ele>887.1</ele>
        <time>2022-06-21T12:54:50Z</time>
      </trkpt>
      <trkpt lat="43.43445" lon="2.63172">
        <ele>887.1</ele>
        <time>2022-06-21T12:54:51Z</time>
      </trkpt>
      <trkpt lat="43.43445" lon="2.63171">
        <ele>887.1</ele>
        <time>2022-06-21T12:54:52Z</time>
      </trkpt>
      <trkpt lat="43.43443" lon="2.63169">
        <ele>887</ele>
        <time>2022-06-21T12:54:53Z</time>
      </trkpt>
      <trkpt lat="43.43442" lon="2.63169">
        <ele>887</ele>
        <time>2022-06-21T12:54:54Z</time>
      </trkpt>
      <trkpt lat="43.43441" lon="2.63168">
        <ele>886.9</ele>
        <time>2022-06-21T12:54:56Z</time>
      </trkpt>
      <trkpt lat="43.4344" lon="2.63167">
        <ele>886.9</ele>
        <time>2022-06-21T12:54:57Z</time>
      </trkpt>
      <trkpt lat="43.4344" lon="2.63166">
        <ele>886.8</ele>
        <time>2022-06-21T12:54:58Z</time>
      </trkpt>
      <trkpt lat="43.43439" lon="2.63165">
        <ele>886.8</ele>
        <time>2022-06-21T12:54:59Z</time>
      </trkpt>
      <trkpt lat="43.43438" lon="2.63164">
        <ele>886.8</ele>
        <time>2022-06-21T12:55:00Z</time>
      </trkpt>
      <trkpt lat="43.43437" lon="2.63163">
        <ele>886.7</ele>
        <time>2022-06-21T12:55:01Z</time>
      </trkpt>
      <trkpt lat="43.43437" lon="2.63162">
        <ele>886.7</ele>
        <time>2022-06-21T12:55:02Z</time>
      </trkpt>
      <trkpt lat="43.43436" lon="2.63161">
        <ele>886.6</ele>
        <time>2022-06-21T12:55:03Z</time>
      </trkpt>
      <trkpt lat="43.43435" lon="2.6316">
        <ele>886.6</ele>
        <time>2022-06-21T12:55:04Z</time>
      </trkpt>
      <trkpt lat="43.43435" lon="2.6316">
        <ele>886.6</ele>
        <time>2022-06-21T12:55:05Z</time>
      </trkpt>
      <trkpt lat="43.43433" lon="2.63159">
        <ele>886.5</ele>
        <time>2022-06-21T12:55:06Z</time>
      </trkpt>
      <trkpt lat="43.43432" lon="2.63157">
        <ele>886.5</ele>
        <time>2022-06-21T12:55:07Z</time>
      </trkpt>
      <trkpt lat="43.43431" lon="2.63156">
        <ele>886.4</ele>
        <time>2022-06-21T12:55:09Z</time>
      </trkpt>
      <trkpt lat="43.4343" lon="2.63156">
        <ele>886.4</ele>
        <time>2022-06-21T12:55:10Z</time>
      </trkpt>
      <trkpt lat="43.4343" lon="2.63155">
        <ele>886.4</ele>
        <time>2022-06-21T12:55:11Z</time>
      </trkpt>
      <trkpt lat="43.43428" lon="2.63154">
        <ele>886.3</ele>
        <time>2022-06-21T12:55:12Z</time>
      </trkpt>
      <trkpt lat="43.43427" lon="2.63152">
        <ele>886.2</ele>
        <time>2022-06-21T12:55:13Z</time>
      </trkpt>
      <trkpt lat="43.43426" lon="2.63151">
        <ele>886.2</ele>
        <time>2022-06-21T12:55:14Z</time>
      </trkpt>
      <trkpt lat="43.43426" lon="2.63151">
        <ele>886.2</ele>
        <time>2022-06-21T12:55:15Z</time>
      </trkpt>
      <trkpt lat="43.43425" lon="2.63149">
        <ele>886.1</ele>
        <time>2022-06-21T12:55:16Z</time>
      </trkpt>
      <trkpt lat="43.43424" lon="2.63148">
        <ele>886.1</ele>
        <time>2022-06-21T12:55:17Z</time>
      </trkpt>
      <trkpt lat="43.43423" lon="2.63147">
        <ele>886</ele>
        <time>2022-06-21T12:55:19Z</time>
      </trkpt>
      <trkpt lat="43.43422" lon="2.63145">
        <ele>886</ele>
        <time>2022-06-21T12:55:20Z</time>
      </trkpt>
      <trkpt lat="43.43421" lon="2.63144">
        <ele>885.9</ele>
        <time>2022-06-21T12:55:21Z</time>
      </trkpt>
      <trkpt lat="43.4342" lon="2.63143">
        <ele>885.9</ele>
        <time>2022-06-21T12:55:22Z</time>
      </trkpt>
      <trkpt lat="43.43419" lon="2.63141">
        <ele>885.8</ele>
        <time>2022-06-21T12:55:23Z</time>
      </trkpt>
      <trkpt lat="43.43418" lon="2.63141">
        <ele>885.8</ele>
        <time>2022-06-21T12:55:24Z</time>
      </trkpt>
      <trkpt lat="43.43418" lon="2.6314">
        <ele>885.8</ele>
        <time>2022-06-21T12:55:25Z</time>
      </trkpt>
      <trkpt lat="43.43417" lon="2.63139">
        <ele>885.7</ele>
        <time>2022-06-21T12:55:26Z</time>
      </trkpt>
      <trkpt lat="43.43416" lon="2.63137">
        <ele>885.7</ele>
        <time>2022-06-21T12:55:27Z</time>
      </trkpt>
      <trkpt lat="43.43415" lon="2.63136">
        <ele>885.6</ele>
        <time>2022-06-21T12:55:29Z</time>
      </trkpt>
      <trkpt lat="43.43415" lon="2.63135">
        <ele>885.6</ele>
        <time>2022-06-21T12:55:30Z</time>
      </trkpt>
      <trkpt lat="43.43414" lon="2.63134">
        <ele>885.5</ele>
        <time>2022-06-21T12:55:31Z</time>
      </trkpt>
      <trkpt lat="43.43412" lon="2.63133">
        <ele>885.5</ele>
        <time>2022-06-21T12:55:32Z</time>
      </trkpt>
      <trkpt lat="43.43412" lon="2.63132">
        <ele>885.4</ele>
        <time>2022-06-21T12:55:33Z</time>
      </trkpt>
      <trkpt lat="43.43411" lon="2.63131">
        <ele>885.4</ele>
        <time>2022-06-21T12:55:34Z</time>
      </trkpt>
      <trkpt lat="43.4341" lon="2.6313">
        <ele>885.4</ele>
        <time>2022-06-21T12:55:35Z</time>
      </trkpt>
      <trkpt lat="43.43409" lon="2.63129">
        <ele>885.3</ele>
        <time>2022-06-21T12:55:36Z</time>
      </trkpt>
      <trkpt lat="43.43407" lon="2.63127">
        <ele>885.2</ele>
        <time>2022-06-21T12:55:37Z</time>
      </trkpt>
      <trkpt lat="43.43407" lon="2.63126">
        <ele>885.2</ele>
        <time>2022-06-21T12:55:38Z</time>
      </trkpt>
      <trkpt lat="43.43406" lon="2.63125">
        <ele>885.2</ele>
        <time>2022-06-21T12:55:40Z</time>
      </trkpt>
      <trkpt lat="43.43405" lon="2.63124">
        <ele>885.1</ele>
        <time>2022-06-21T12:55:41Z</time>
      </trkpt>
      <trkpt lat="43.43404" lon="2.63122">
        <ele>885.1</ele>
        <time>2022-06-21T12:55:42Z</time>
      </trkpt>
      <trkpt lat="43.43403" lon="2.63121">
        <ele>885</ele>
        <time>2022-06-21T12:55:43Z</time>
      </trkpt>
      <trkpt lat="43.43402" lon="2.63119">
        <ele>884.9</ele>
        <time>2022-06-21T12:55:44Z</time>
      </trkpt>
      <trkpt lat="43.43402" lon="2.63118">
        <ele>884.9</ele>
        <time>2022-06-21T12:55:45Z</time>
      </trkpt>
      <trkpt lat="43.434" lon="2.63115">
        <ele>884.8</ele>
        <time>2022-06-21T12:55:46Z</time>
      </trkpt>
      <trkpt lat="43.434" lon="2.63114">
        <ele>884.8</ele>
        <time>2022-06-21T12:55:47Z</time>
      </trkpt>
      <trkpt lat="43.43399" lon="2.63113">
        <ele>884.8</ele>
        <time>2022-06-21T12:55:48Z</time>
      </trkpt>
      <trkpt lat="43.43398" lon="2.63112">
        <ele>884.7</ele>
        <time>2022-06-21T12:55:50Z</time>
      </trkpt>
      <trkpt lat="43.43397" lon="2.63111">
        <ele>884.7</ele>
        <time>2022-06-21T12:55:51Z</time>
      </trkpt>
      <trkpt lat="43.43396" lon="2.6311">
        <ele>884.6</ele>
        <time>2022-06-21T12:55:52Z</time>
      </trkpt>
      <trkpt lat="43.43395" lon="2.63109">
        <ele>884.6</ele>
        <time>2022-06-21T12:55:53Z</time>
      </trkpt>
      <trkpt lat="43.43394" lon="2.63107">
        <ele>884.5</ele>
        <time>2022-06-21T12:55:54Z</time>
      </trkpt>
      <trkpt lat="43.43393" lon="2.63106">
        <ele>884.5</ele>
        <time>2022-06-21T12:55:55Z</time>
      </trkpt>
      <trkpt lat="43.43392" lon="2.63105">
        <ele>884.4</ele>
        <time>2022-06-21T12:55:56Z</time>
      </trkpt>
      <trkpt lat="43.43391" lon="2.63103">
        <ele>884.3</ele>
        <time>2022-06-21T12:55:58Z</time>
      </trkpt>
      <trkpt lat="43.4339" lon="2.63102">
        <ele>884.3</ele>
        <time>2022-06-21T12:55:59Z</time>
      </trkpt>
      <trkpt lat="43.43389" lon="2.63101">
        <ele>884.3</ele>
        <time>2022-06-21T12:56:00Z</time>
      </trkpt>
      <trkpt lat="43.43388" lon="2.631">
        <ele>884.2</ele>
        <time>2022-06-21T12:56:01Z</time>
      </trkpt>
      <trkpt lat="43.43388" lon="2.63098">
        <ele>884.2</ele>
        <time>2022-06-21T12:56:02Z</time>
      </trkpt>
      <trkpt lat="43.43386" lon="2.63096">
        <ele>884.1</ele>
        <time>2022-06-21T12:56:03Z</time>
      </trkpt>
      <trkpt lat="43.43386" lon="2.63095">
        <ele>884</ele>
        <time>2022-06-21T12:56:04Z</time>
      </trkpt>
      <trkpt lat="43.43385" lon="2.63094">
        <ele>884</ele>
        <time>2022-06-21T12:56:05Z</time>
      </trkpt>
      <trkpt lat="43.43384" lon="2.63093">
        <ele>884</ele>
        <time>2022-06-21T12:56:06Z</time>
      </trkpt>
      <trkpt lat="43.43383" lon="2.63092">
        <ele>883.9</ele>
        <time>2022-06-21T12:56:07Z</time>
      </trkpt>
      <trkpt lat="43.43381" lon="2.63091">
        <ele>883.8</ele>
        <time>2022-06-21T12:56:09Z</time>
      </trkpt>
      <trkpt lat="43.4338" lon="2.6309">
        <ele>883.8</ele>
        <time>2022-06-21T12:56:10Z</time>
      </trkpt>
      <trkpt lat="43.43378" lon="2.63088">
        <ele>883.7</ele>
        <time>2022-06-21T12:56:11Z</time>
      </trkpt>
      <trkpt lat="43.43378" lon="2.63087">
        <ele>883.7</ele>
        <time>2022-06-21T12:56:12Z</time>
      </trkpt>
      <trkpt lat="43.43377" lon="2.63086">
        <ele>883.6</ele>
        <time>2022-06-21T12:56:13Z</time>
      </trkpt>
      <trkpt lat="43.43375" lon="2.63084">
        <ele>883.6</ele>
        <time>2022-06-21T12:56:14Z</time>
      </trkpt>
      <trkpt lat="43.43375" lon="2.63084">
        <ele>883.5</ele>
        <time>2022-06-21T12:56:15Z</time>
      </trkpt>
      <trkpt lat="43.43374" lon="2.63083">
        <ele>883.5</ele>
        <time>2022-06-21T12:56:16Z</time>
      </trkpt>
      <trkpt lat="43.43373" lon="2.63082">
        <ele>883.5</ele>
        <time>2022-06-21T12:56:18Z</time>
      </trkpt>
      <trkpt lat="43.43372" lon="2.63081">
        <ele>883.4</ele>
        <time>2022-06-21T12:56:19Z</time>
      </trkpt>
      <trkpt lat="43.43371" lon="2.6308">
        <ele>883.4</ele>
        <time>2022-06-21T12:56:20Z</time>
      </trkpt>
      <trkpt lat="43.4337" lon="2.63079">
        <ele>883.3</ele>
        <time>2022-06-21T12:56:21Z</time>
      </trkpt>
      <trkpt lat="43.43369" lon="2.63078">
        <ele>883.3</ele>
        <time>2022-06-21T12:56:22Z</time>
      </trkpt>
      <trkpt lat="43.43368" lon="2.63077">
        <ele>883.2</ele>
        <time>2022-06-21T12:56:23Z</time>
      </trkpt>
      <trkpt lat="43.43367" lon="2.63077">
        <ele>883.2</ele>
        <time>2022-06-21T12:56:24Z</time>
      </trkpt>
      <trkpt lat="43.43367" lon="2.63076">
        <ele>883.2</ele>
        <time>2022-06-21T12:56:25Z</time>
      </trkpt>
      <trkpt lat="43.43366" lon="2.63074">
        <ele>883.1</ele>
        <time>2022-06-21T12:56:26Z</time>
      </trkpt>
      <trkpt lat="43.43365" lon="2.63073">
        <ele>883.1</ele>
        <time>2022-06-21T12:56:27Z</time>
      </trkpt>
      <trkpt lat="43.43364" lon="2.63072">
        <ele>883</ele>
        <time>2022-06-21T12:56:28Z</time>
      </trkpt>
      <trkpt lat="43.43363" lon="2.63071">
        <ele>883</ele>
        <time>2022-06-21T12:56:29Z</time>
      </trkpt>
      <trkpt lat="43.43362" lon="2.6307">
        <ele>882.9</ele>
        <time>2022-06-21T12:56:31Z</time>
      </trkpt>
      <trkpt lat="43.43362" lon="2.63069">
        <ele>882.9</ele>
        <time>2022-06-21T12:56:32Z</time>
      </trkpt>
      <trkpt lat="43.43361" lon="2.63068">
        <ele>882.9</ele>
        <time>2022-06-21T12:56:33Z</time>
      </trkpt>
      <trkpt lat="43.4336" lon="2.63067">
        <ele>882.8</ele>
        <time>2022-06-21T12:56:34Z</time>
      </trkpt>
      <trkpt lat="43.43358" lon="2.63065">
        <ele>882.7</ele>
        <time>2022-06-21T12:56:35Z</time>
      </trkpt>
      <trkpt lat="43.43358" lon="2.63064">
        <ele>882.7</ele>
        <time>2022-06-21T12:56:36Z</time>
      </trkpt>
      <trkpt lat="43.43357" lon="2.63063">
        <ele>882.7</ele>
        <time>2022-06-21T12:56:37Z</time>
      </trkpt>
      <trkpt lat="43.43356" lon="2.63062">
        <ele>882.6</ele>
        <time>2022-06-21T12:56:38Z</time>
      </trkpt>
      <trkpt lat="43.43355" lon="2.63061">
        <ele>882.6</ele>
        <time>2022-06-21T12:56:39Z</time>
      </trkpt>
      <trkpt lat="43.43354" lon="2.6306">
        <ele>882.5</ele>
        <time>2022-06-21T12:56:41Z</time>
      </trkpt>
      <trkpt lat="43.43353" lon="2.63058">
        <ele>882.5</ele>
        <time>2022-06-21T12:56:42Z</time>
      </trkpt>
      <trkpt lat="43.43352" lon="2.63057">
        <ele>882.4</ele>
        <time>2022-06-21T12:56:43Z</time>
      </trkpt>
      <trkpt lat="43.43351" lon="2.63056">
        <ele>882.4</ele>
        <time>2022-06-21T12:56:44Z</time>
      </trkpt>
      <trkpt lat="43.43351" lon="2.63055">
        <ele>882.3</ele>
        <time>2022-06-21T12:56:45Z</time>
      </trkpt>
      <trkpt lat="43.4335" lon="2.63054">
        <ele>882.3</ele>
        <time>2022-06-21T12:56:46Z</time>
      </trkpt>
      <trkpt lat="43.43349" lon="2.63053">
        <ele>882.3</ele>
        <time>2022-06-21T12:56:47Z</time>
      </trkpt>
      <trkpt lat="43.43348" lon="2.63052">
        <ele>882.2</ele>
        <time>2022-06-21T12:56:48Z</time>
      </trkpt>
      <trkpt lat="43.43347" lon="2.6305">
        <ele>882.2</ele>
        <time>2022-06-21T12:56:49Z</time>
      </trkpt>
      <trkpt lat="43.43346" lon="2.63049">
        <ele>882.1</ele>
        <time>2022-06-21T12:56:51Z</time>
      </trkpt>
      <trkpt lat="43.43344" lon="2.63047">
        <ele>882</ele>
        <time>2022-06-21T12:56:52Z</time>
      </trkpt>
      <trkpt lat="43.43344" lon="2.63046">
        <ele>882</ele>
        <time>2022-06-21T12:56:53Z</time>
      </trkpt>
      <trkpt lat="43.43343" lon="2.63045">
        <ele>882</ele>
        <time>2022-06-21T12:56:54Z</time>
      </trkpt>
      <trkpt lat="43.43342" lon="2.63044">
        <ele>881.9</ele>
        <time>2022-06-21T12:56:55Z</time>
      </trkpt>
      <trkpt lat="43.43341" lon="2.63043">
        <ele>881.9</ele>
        <time>2022-06-21T12:56:56Z</time>
      </trkpt>
      <trkpt lat="43.4334" lon="2.63042">
        <ele>881.8</ele>
        <time>2022-06-21T12:56:57Z</time>
      </trkpt>
      <trkpt lat="43.43339" lon="2.63041">
        <ele>881.8</ele>
        <time>2022-06-21T12:56:58Z</time>
      </trkpt>
      <trkpt lat="43.43339" lon="2.6304">
        <ele>881.7</ele>
        <time>2022-06-21T12:56:59Z</time>
      </trkpt>
      <trkpt lat="43.43338" lon="2.63039">
        <ele>881.7</ele>
        <time>2022-06-21T12:57:00Z</time>
      </trkpt>
      <trkpt lat="43.43337" lon="2.63038">
        <ele>881.7</ele>
        <time>2022-06-21T12:57:01Z</time>
      </trkpt>
      <trkpt lat="43.43336" lon="2.63037">
        <ele>881.6</ele>
        <time>2022-06-21T12:57:03Z</time>
      </trkpt>
      <trkpt lat="43.43336" lon="2.63036">
        <ele>881.6</ele>
        <time>2022-06-21T12:57:04Z</time>
      </trkpt>
      <trkpt lat="43.43335" lon="2.63034">
        <ele>881.5</ele>
        <time>2022-06-21T12:57:05Z</time>
      </trkpt>
      <trkpt lat="43.43334" lon="2.63033">
        <ele>881.5</ele>
        <time>2022-06-21T12:57:06Z</time>
      </trkpt>
      <trkpt lat="43.43333" lon="2.63032">
        <ele>881.4</ele>
        <time>2022-06-21T12:57:07Z</time>
      </trkpt>
      <trkpt lat="43.43332" lon="2.63031">
        <ele>881.4</ele>
        <time>2022-06-21T12:57:08Z</time>
      </trkpt>
      <trkpt lat="43.43331" lon="2.6303">
        <ele>881.3</ele>
        <time>2022-06-21T12:57:09Z</time>
      </trkpt>
      <trkpt lat="43.43329" lon="2.63028">
        <ele>881.3</ele>
        <time>2022-06-21T12:57:10Z</time>
      </trkpt>
      <trkpt lat="43.43329" lon="2.63027">
        <ele>881.2</ele>
        <time>2022-06-21T12:57:11Z</time>
      </trkpt>
      <trkpt lat="43.43328" lon="2.63026">
        <ele>881.2</ele>
        <time>2022-06-21T12:57:12Z</time>
      </trkpt>
      <trkpt lat="43.43326" lon="2.63024">
        <ele>881.1</ele>
        <time>2022-06-21T12:57:13Z</time>
      </trkpt>
      <trkpt lat="43.43326" lon="2.63023">
        <ele>881.1</ele>
        <time>2022-06-21T12:57:15Z</time>
      </trkpt>
      <trkpt lat="43.43325" lon="2.63023">
        <ele>881.1</ele>
        <time>2022-06-21T12:57:16Z</time>
      </trkpt>
      <trkpt lat="43.43324" lon="2.63022">
        <ele>881</ele>
        <time>2022-06-21T12:57:17Z</time>
      </trkpt>
      <trkpt lat="43.43323" lon="2.6302">
        <ele>880.9</ele>
        <time>2022-06-21T12:57:18Z</time>
      </trkpt>
      <trkpt lat="43.43321" lon="2.63018">
        <ele>880.9</ele>
        <time>2022-06-21T12:57:19Z</time>
      </trkpt>
      <trkpt lat="43.4332" lon="2.63017">
        <ele>880.8</ele>
        <time>2022-06-21T12:57:21Z</time>
      </trkpt>
      <trkpt lat="43.4332" lon="2.63016">
        <ele>880.8</ele>
        <time>2022-06-21T12:57:22Z</time>
      </trkpt>
      <trkpt lat="43.43319" lon="2.63014">
        <ele>880.7</ele>
        <time>2022-06-21T12:57:23Z</time>
      </trkpt>
      <trkpt lat="43.43318" lon="2.63013">
        <ele>880.7</ele>
        <time>2022-06-21T12:57:24Z</time>
      </trkpt>
      <trkpt lat="43.43318" lon="2.63012">
        <ele>880.7</ele>
        <time>2022-06-21T12:57:25Z</time>
      </trkpt>
      <trkpt lat="43.43317" lon="2.63011">
        <ele>880.6</ele>
        <time>2022-06-21T12:57:26Z</time>
      </trkpt>
      <trkpt lat="43.43316" lon="2.6301">
        <ele>880.6</ele>
        <time>2022-06-21T12:57:27Z</time>
      </trkpt>
      <trkpt lat="43.43314" lon="2.63008">
        <ele>880.5</ele>
        <time>2022-06-21T12:57:29Z</time>
      </trkpt>
      <trkpt lat="43.43313" lon="2.63006">
        <ele>880.4</ele>
        <time>2022-06-21T12:57:31Z</time>
      </trkpt>
      <trkpt lat="43.43313" lon="2.63005">
        <ele>880.4</ele>
        <time>2022-06-21T12:57:32Z</time>
      </trkpt>
      <trkpt lat="43.43312" lon="2.63004">
        <ele>880.3</ele>
        <time>2022-06-21T12:57:33Z</time>
      </trkpt>
      <trkpt lat="43.43311" lon="2.63002">
        <ele>880.3</ele>
        <time>2022-06-21T12:57:34Z</time>
      </trkpt>
      <trkpt lat="43.4331" lon="2.63001">
        <ele>880.2</ele>
        <time>2022-06-21T12:57:35Z</time>
      </trkpt>
      <trkpt lat="43.43309" lon="2.63">
        <ele>880.2</ele>
        <time>2022-06-21T12:57:36Z</time>
      </trkpt>
      <trkpt lat="43.43309" lon="2.62999">
        <ele>880.2</ele>
        <time>2022-06-21T12:57:37Z</time>
      </trkpt>
      <trkpt lat="43.43308" lon="2.62998">
        <ele>880.1</ele>
        <time>2022-06-21T12:57:38Z</time>
      </trkpt>
      <trkpt lat="43.43307" lon="2.62997">
        <ele>880.1</ele>
        <time>2022-06-21T12:57:39Z</time>
      </trkpt>
      <trkpt lat="43.43306" lon="2.62996">
        <ele>880</ele>
        <time>2022-06-21T12:57:40Z</time>
      </trkpt>
      <trkpt lat="43.43305" lon="2.62994">
        <ele>880</ele>
        <time>2022-06-21T12:57:41Z</time>
      </trkpt>
      <trkpt lat="43.43304" lon="2.62993">
        <ele>879.9</ele>
        <time>2022-06-21T12:57:42Z</time>
      </trkpt>
      <trkpt lat="43.43302" lon="2.62991">
        <ele>879.8</ele>
        <time>2022-06-21T12:57:44Z</time>
      </trkpt>
      <trkpt lat="43.43301" lon="2.6299">
        <ele>879.8</ele>
        <time>2022-06-21T12:57:45Z</time>
      </trkpt>
      <trkpt lat="43.43301" lon="2.6299">
        <ele>879.8</ele>
        <time>2022-06-21T12:57:46Z</time>
      </trkpt>
      <trkpt lat="43.433" lon="2.62988">
        <ele>879.7</ele>
        <time>2022-06-21T12:57:47Z</time>
      </trkpt>
      <trkpt lat="43.43299" lon="2.62987">
        <ele>879.7</ele>
        <time>2022-06-21T12:57:48Z</time>
      </trkpt>
      <trkpt lat="43.43298" lon="2.62986">
        <ele>879.6</ele>
        <time>2022-06-21T12:57:49Z</time>
      </trkpt>
      <trkpt lat="43.43298" lon="2.62985">
        <ele>879.6</ele>
        <time>2022-06-21T12:57:50Z</time>
      </trkpt>
      <trkpt lat="43.43297" lon="2.62983">
        <ele>879.6</ele>
        <time>2022-06-21T12:57:51Z</time>
      </trkpt>
      <trkpt lat="43.43296" lon="2.62982">
        <ele>879.5</ele>
        <time>2022-06-21T12:57:52Z</time>
      </trkpt>
      <trkpt lat="43.43295" lon="2.62982">
        <ele>879.5</ele>
        <time>2022-06-21T12:57:53Z</time>
      </trkpt>
      <trkpt lat="43.43294" lon="2.62982">
        <ele>879.4</ele>
        <time>2022-06-21T12:57:55Z</time>
      </trkpt>
      <trkpt lat="43.43295" lon="2.62983">
        <ele>879.4</ele>
        <time>2022-06-21T12:57:56Z</time>
      </trkpt>
      <trkpt lat="43.43295" lon="2.62983">
        <ele>879.4</ele>
        <time>2022-06-21T12:57:57Z</time>
      </trkpt>
      <trkpt lat="43.43295" lon="2.62983">
        <ele>879.4</ele>
        <time>2022-06-21T12:57:58Z</time>
      </trkpt>
      <trkpt lat="43.43295" lon="2.62983">
        <ele>879.4</ele>
        <time>2022-06-21T12:57:59Z</time>
      </trkpt>
      <trkpt lat="43.43295" lon="2.62983">
        <ele>879.4</ele>
        <time>2022-06-21T12:58:00Z</time>
      </trkpt>
      <trkpt lat="43.43295" lon="2.62983">
        <ele>879.4</ele>
        <time>2022-06-21T12:58:01Z</time>
      </trkpt>
      <trkpt lat="43.43295" lon="2.62983">
        <ele>879.4</ele>
        <time>2022-06-21T12:58:02Z</time>
      </trkpt>
      <trkpt lat="43.43295" lon="2.62983">
        <ele>879.4</ele>
        <time>2022-06-21T12:58:03Z</time>
      </trkpt>
      <trkpt lat="43.43295" lon="2.62983">
        <ele>879.4</ele>
        <time>2022-06-21T12:58:04Z</time>
      </trkpt>
      <trkpt lat="43.43295" lon="2.62982">
        <ele>879.4</ele>
        <time>2022-06-21T12:58:05Z</time>
      </trkpt>
      <trkpt lat="43.43294" lon="2.62981">
        <ele>879.3</ele>
        <time>2022-06-21T12:58:06Z</time>
      </trkpt>
      <trkpt lat="43.43293" lon="2.6298">
        <ele>879.3</ele>
        <time>2022-06-21T12:58:07Z</time>
      </trkpt>
      <trkpt lat="43.43292" lon="2.62978">
        <ele>879.2</ele>
        <time>2022-06-21T12:58:09Z</time>
      </trkpt>
      <trkpt lat="43.43291" lon="2.62977">
        <ele>879.2</ele>
        <time>2022-06-21T12:58:10Z</time>
      </trkpt>
      <trkpt lat="43.43291" lon="2.62976">
        <ele>879.2</ele>
        <time>2022-06-21T12:58:11Z</time>
      </trkpt>
      <trkpt lat="43.4329" lon="2.62975">
        <ele>879.1</ele>
        <time>2022-06-21T12:58:12Z</time>
      </trkpt>
      <trkpt lat="43.43289" lon="2.62973">
        <ele>879.1</ele>
        <time>2022-06-21T12:58:13Z</time>
      </trkpt>
      <trkpt lat="43.43288" lon="2.62972">
        <ele>879</ele>
        <time>2022-06-21T12:58:14Z</time>
      </trkpt>
      <trkpt lat="43.43287" lon="2.62971">
        <ele>879</ele>
        <time>2022-06-21T12:58:15Z</time>
      </trkpt>
      <trkpt lat="43.43286" lon="2.6297">
        <ele>878.9</ele>
        <time>2022-06-21T12:58:16Z</time>
      </trkpt>
      <trkpt lat="43.43286" lon="2.62968">
        <ele>878.9</ele>
        <time>2022-06-21T12:58:18Z</time>
      </trkpt>
      <trkpt lat="43.43284" lon="2.62967">
        <ele>878.8</ele>
        <time>2022-06-21T12:58:19Z</time>
      </trkpt>
      <trkpt lat="43.43284" lon="2.62966">
        <ele>878.8</ele>
        <time>2022-06-21T12:58:20Z</time>
      </trkpt>
      <trkpt lat="43.43283" lon="2.62965">
        <ele>878.7</ele>
        <time>2022-06-21T12:58:21Z</time>
      </trkpt>
      <trkpt lat="43.43283" lon="2.62964">
        <ele>878.7</ele>
        <time>2022-06-21T12:58:22Z</time>
      </trkpt>
      <trkpt lat="43.43282" lon="2.62963">
        <ele>878.7</ele>
        <time>2022-06-21T12:58:23Z</time>
      </trkpt>
      <trkpt lat="43.4328" lon="2.6296">
        <ele>878.6</ele>
        <time>2022-06-21T12:58:25Z</time>
      </trkpt>
      <trkpt lat="43.43279" lon="2.62959">
        <ele>878.5</ele>
        <time>2022-06-21T12:58:26Z</time>
      </trkpt>
      <trkpt lat="43.43279" lon="2.62958">
        <ele>878.5</ele>
        <time>2022-06-21T12:58:27Z</time>
      </trkpt>
      <trkpt lat="43.43278" lon="2.62957">
        <ele>878.5</ele>
        <time>2022-06-21T12:58:28Z</time>
      </trkpt>
      <trkpt lat="43.43277" lon="2.62956">
        <ele>878.4</ele>
        <time>2022-06-21T12:58:29Z</time>
      </trkpt>
      <trkpt lat="43.43276" lon="2.62955">
        <ele>878.4</ele>
        <time>2022-06-21T12:58:30Z</time>
      </trkpt>
      <trkpt lat="43.43276" lon="2.62954">
        <ele>878.3</ele>
        <time>2022-06-21T12:58:31Z</time>
      </trkpt>
      <trkpt lat="43.43275" lon="2.62953">
        <ele>878.3</ele>
        <time>2022-06-21T12:58:32Z</time>
      </trkpt>
      <trkpt lat="43.43274" lon="2.62953">
        <ele>878.3</ele>
        <time>2022-06-21T12:58:33Z</time>
      </trkpt>
      <trkpt lat="43.43274" lon="2.62952">
        <ele>878.3</ele>
        <time>2022-06-21T12:58:34Z</time>
      </trkpt>
      <trkpt lat="43.43273" lon="2.62952">
        <ele>878.2</ele>
        <time>2022-06-21T12:58:35Z</time>
      </trkpt>
      <trkpt lat="43.43272" lon="2.6295">
        <ele>878.2</ele>
        <time>2022-06-21T12:58:36Z</time>
      </trkpt>
      <trkpt lat="43.43271" lon="2.6295">
        <ele>878.1</ele>
        <time>2022-06-21T12:58:37Z</time>
      </trkpt>
      <trkpt lat="43.43271" lon="2.62949">
        <ele>878.1</ele>
        <time>2022-06-21T12:58:39Z</time>
      </trkpt>
      <trkpt lat="43.4327" lon="2.62948">
        <ele>878.1</ele>
        <time>2022-06-21T12:58:40Z</time>
      </trkpt>
      <trkpt lat="43.43269" lon="2.62948">
        <ele>878</ele>
        <time>2022-06-21T12:58:41Z</time>
      </trkpt>
      <trkpt lat="43.43268" lon="2.62947">
        <ele>878</ele>
        <time>2022-06-21T12:58:42Z</time>
      </trkpt>
      <trkpt lat="43.43266" lon="2.62945">
        <ele>877.9</ele>
        <time>2022-06-21T12:58:43Z</time>
      </trkpt>
      <trkpt lat="43.43265" lon="2.62944">
        <ele>877.9</ele>
        <time>2022-06-21T12:58:44Z</time>
      </trkpt>
      <trkpt lat="43.43263" lon="2.62943">
        <ele>877.8</ele>
        <time>2022-06-21T12:58:45Z</time>
      </trkpt>
      <trkpt lat="43.43263" lon="2.62942">
        <ele>877.8</ele>
        <time>2022-06-21T12:58:46Z</time>
      </trkpt>
      <trkpt lat="43.43262" lon="2.62941">
        <ele>877.7</ele>
        <time>2022-06-21T12:58:47Z</time>
      </trkpt>
      <trkpt lat="43.43261" lon="2.62941">
        <ele>877.7</ele>
        <time>2022-06-21T12:58:49Z</time>
      </trkpt>
      <trkpt lat="43.4326" lon="2.6294">
        <ele>877.6</ele>
        <time>2022-06-21T12:58:50Z</time>
      </trkpt>
      <trkpt lat="43.43259" lon="2.62939">
        <ele>877.6</ele>
        <time>2022-06-21T12:58:51Z</time>
      </trkpt>
      <trkpt lat="43.43257" lon="2.62938">
        <ele>877.5</ele>
        <time>2022-06-21T12:58:52Z</time>
      </trkpt>
      <trkpt lat="43.43256" lon="2.62938">
        <ele>877.5</ele>
        <time>2022-06-21T12:58:53Z</time>
      </trkpt>
      <trkpt lat="43.43255" lon="2.62938">
        <ele>877.4</ele>
        <time>2022-06-21T12:58:54Z</time>
      </trkpt>
      <trkpt lat="43.43254" lon="2.62937">
        <ele>877.4</ele>
        <time>2022-06-21T12:58:55Z</time>
      </trkpt>
      <trkpt lat="43.43253" lon="2.62937">
        <ele>877.4</ele>
        <time>2022-06-21T12:58:56Z</time>
      </trkpt>
      <trkpt lat="43.43252" lon="2.62936">
        <ele>877.3</ele>
        <time>2022-06-21T12:58:57Z</time>
      </trkpt>
      <trkpt lat="43.4325" lon="2.62934">
        <ele>877.3</ele>
        <time>2022-06-21T12:58:58Z</time>
      </trkpt>
      <trkpt lat="43.4325" lon="2.62934">
        <ele>877.2</ele>
        <time>2022-06-21T12:59:00Z</time>
      </trkpt>
      <trkpt lat="43.43249" lon="2.62933">
        <ele>877.2</ele>
        <time>2022-06-21T12:59:01Z</time>
      </trkpt>
      <trkpt lat="43.43249" lon="2.62933">
        <ele>877.2</ele>
        <time>2022-06-21T12:59:02Z</time>
      </trkpt>
      <trkpt lat="43.43248" lon="2.62932">
        <ele>877.2</ele>
        <time>2022-06-21T12:59:03Z</time>
      </trkpt>
      <trkpt lat="43.43247" lon="2.62932">
        <ele>877.1</ele>
        <time>2022-06-21T12:59:04Z</time>
      </trkpt>
      <trkpt lat="43.43246" lon="2.62931">
        <ele>877.1</ele>
        <time>2022-06-21T12:59:05Z</time>
      </trkpt>
      <trkpt lat="43.43245" lon="2.6293">
        <ele>877</ele>
        <time>2022-06-21T12:59:07Z</time>
      </trkpt>
      <trkpt lat="43.43244" lon="2.6293">
        <ele>877</ele>
        <time>2022-06-21T12:59:08Z</time>
      </trkpt>
      <trkpt lat="43.43244" lon="2.62929">
        <ele>877</ele>
        <time>2022-06-21T12:59:09Z</time>
      </trkpt>
      <trkpt lat="43.43243" lon="2.62929">
        <ele>876.9</ele>
        <time>2022-06-21T12:59:10Z</time>
      </trkpt>
      <trkpt lat="43.43242" lon="2.62928">
        <ele>876.9</ele>
        <time>2022-06-21T12:59:11Z</time>
      </trkpt>
      <trkpt lat="43.43241" lon="2.62926">
        <ele>876.9</ele>
        <time>2022-06-21T12:59:12Z</time>
      </trkpt>
      <trkpt lat="43.43241" lon="2.62925">
        <ele>876.8</ele>
        <time>2022-06-21T12:59:14Z</time>
      </trkpt>
      <trkpt lat="43.4324" lon="2.62925">
        <ele>876.8</ele>
        <time>2022-06-21T12:59:15Z</time>
      </trkpt>
      <trkpt lat="43.43239" lon="2.62924">
        <ele>876.7</ele>
        <time>2022-06-21T12:59:16Z</time>
      </trkpt>
      <trkpt lat="43.43238" lon="2.62923">
        <ele>876.7</ele>
        <time>2022-06-21T12:59:17Z</time>
      </trkpt>
      <trkpt lat="43.43237" lon="2.62922">
        <ele>876.6</ele>
        <time>2022-06-21T12:59:18Z</time>
      </trkpt>
      <trkpt lat="43.43236" lon="2.62921">
        <ele>876.6</ele>
        <time>2022-06-21T12:59:19Z</time>
      </trkpt>
      <trkpt lat="43.43235" lon="2.62921">
        <ele>876.6</ele>
        <time>2022-06-21T12:59:20Z</time>
      </trkpt>
      <trkpt lat="43.43234" lon="2.6292">
        <ele>876.5</ele>
        <time>2022-06-21T12:59:21Z</time>
      </trkpt>
      <trkpt lat="43.43234" lon="2.62919">
        <ele>876.5</ele>
        <time>2022-06-21T12:59:22Z</time>
      </trkpt>
      <trkpt lat="43.43233" lon="2.62918">
        <ele>876.5</ele>
        <time>2022-06-21T12:59:23Z</time>
      </trkpt>
      <trkpt lat="43.43232" lon="2.62917">
        <ele>876.4</ele>
        <time>2022-06-21T12:59:24Z</time>
      </trkpt>
      <trkpt lat="43.43231" lon="2.62917">
        <ele>876.4</ele>
        <time>2022-06-21T12:59:26Z</time>
      </trkpt>
      <trkpt lat="43.4323" lon="2.62916">
        <ele>876.3</ele>
        <time>2022-06-21T12:59:27Z</time>
      </trkpt>
      <trkpt lat="43.43229" lon="2.62915">
        <ele>876.3</ele>
        <time>2022-06-21T12:59:28Z</time>
      </trkpt>
      <trkpt lat="43.43229" lon="2.62914">
        <ele>876.3</ele>
        <time>2022-06-21T12:59:29Z</time>
      </trkpt>
      <trkpt lat="43.43229" lon="2.62914">
        <ele>876.3</ele>
        <time>2022-06-21T12:59:30Z</time>
      </trkpt>
      <trkpt lat="43.43229" lon="2.62914">
        <ele>876.3</ele>
        <time>2022-06-21T12:59:31Z</time>
      </trkpt>
      <trkpt lat="43.43229" lon="2.62914">
        <ele>876.3</ele>
        <time>2022-06-21T12:59:32Z</time>
      </trkpt>
      <trkpt lat="43.43229" lon="2.62914">
        <ele>876.3</ele>
        <time>2022-06-21T12:59:33Z</time>
      </trkpt>
      <trkpt lat="43.43229" lon="2.62914">
        <ele>876.2</ele>
        <time>2022-06-21T12:59:34Z</time>
      </trkpt>
      <trkpt lat="43.43229" lon="2.62914">
        <ele>876.2</ele>
        <time>2022-06-21T12:59:36Z</time>
      </trkpt>
      <trkpt lat="43.43229" lon="2.62914">
        <ele>876.2</ele>
        <time>2022-06-21T12:59:37Z</time>
      </trkpt>
      <trkpt lat="43.43229" lon="2.62914">
        <ele>876.2</ele>
        <time>2022-06-21T12:59:38Z</time>
      </trkpt>
      <trkpt lat="43.43229" lon="2.62914">
        <ele>876.2</ele>
        <time>2022-06-21T12:59:39Z</time>
      </trkpt>
      <trkpt lat="43.43229" lon="2.62914">
        <ele>876.2</ele>
        <time>2022-06-21T12:59:40Z</time>
      </trkpt>
      <trkpt lat="43.43229" lon="2.62914">
        <ele>876.2</ele>
        <time>2022-06-21T12:59:41Z</time>
      </trkpt>
      <trkpt lat="43.43229" lon="2.62913">
        <ele>876.2</ele>
        <time>2022-06-21T12:59:42Z</time>
      </trkpt>
      <trkpt lat="43.43228" lon="2.62912">
        <ele>876.2</ele>
        <time>2022-06-21T12:59:43Z</time>
      </trkpt>
      <trkpt lat="43.43227" lon="2.62911">
        <ele>876.1</ele>
        <time>2022-06-21T12:59:44Z</time>
      </trkpt>
      <trkpt lat="43.43225" lon="2.6291">
        <ele>876.1</ele>
        <time>2022-06-21T12:59:46Z</time>
      </trkpt>
      <trkpt lat="43.43224" lon="2.62909">
        <ele>876</ele>
        <time>2022-06-21T12:59:47Z</time>
      </trkpt>
      <trkpt lat="43.43223" lon="2.62907">
        <ele>875.9</ele>
        <time>2022-06-21T12:59:48Z</time>
      </trkpt>
      <trkpt lat="43.43222" lon="2.62906">
        <ele>875.9</ele>
        <time>2022-06-21T12:59:49Z</time>
      </trkpt>
      <trkpt lat="43.43221" lon="2.62905">
        <ele>875.9</ele>
        <time>2022-06-21T12:59:50Z</time>
      </trkpt>
      <trkpt lat="43.4322" lon="2.62905">
        <ele>875.8</ele>
        <time>2022-06-21T12:59:51Z</time>
      </trkpt>
      <trkpt lat="43.4322" lon="2.62905">
        <ele>875.8</ele>
        <time>2022-06-21T12:59:52Z</time>
      </trkpt>
      <trkpt lat="43.43219" lon="2.62905">
        <ele>875.8</ele>
        <time>2022-06-21T12:59:54Z</time>
      </trkpt>
      <trkpt lat="43.43219" lon="2.62905">
        <ele>875.8</ele>
        <time>2022-06-21T12:59:55Z</time>
      </trkpt>
      <trkpt lat="43.43219" lon="2.62906">
        <ele>875.8</ele>
        <time>2022-06-21T12:59:56Z</time>
      </trkpt>
      <trkpt lat="43.43219" lon="2.62906">
        <ele>875.8</ele>
        <time>2022-06-21T12:59:57Z</time>
      </trkpt>
      <trkpt lat="43.43219" lon="2.62906">
        <ele>875.8</ele>
        <time>2022-06-21T12:59:58Z</time>
      </trkpt>
      <trkpt lat="43.43219" lon="2.62906">
        <ele>875.8</ele>
        <time>2022-06-21T12:59:59Z</time>
      </trkpt>
      <trkpt lat="43.43219" lon="2.62906">
        <ele>875.8</ele>
        <time>2022-06-21T13:00:00Z</time>
      </trkpt>
      <trkpt lat="43.43219" lon="2.62906">
        <ele>875.8</ele>
        <time>2022-06-21T13:00:01Z</time>
      </trkpt>
      <trkpt lat="43.43219" lon="2.62906">
        <ele>875.8</ele>
        <time>2022-06-21T13:00:02Z</time>
      </trkpt>
      <trkpt lat="43.43219" lon="2.62906">
        <ele>875.8</ele>
        <time>2022-06-21T13:00:03Z</time>
      </trkpt>
      <trkpt lat="43.43219" lon="2.62906">
        <ele>875.8</ele>
        <time>2022-06-21T13:00:04Z</time>
      </trkpt>
      <trkpt lat="43.43219" lon="2.62906">
        <ele>875.8</ele>
        <time>2022-06-21T13:00:05Z</time>
      </trkpt>
      <trkpt lat="43.4322" lon="2.62906">
        <ele>875.7</ele>
        <time>2022-06-21T13:00:06Z</time>
      </trkpt>
      <trkpt lat="43.43219" lon="2.62906">
        <ele>875.7</ele>
        <time>2022-06-21T13:00:07Z</time>
      </trkpt>
      <trkpt lat="43.43219" lon="2.62904">
        <ele>875.7</ele>
        <time>2022-06-21T13:00:08Z</time>
      </trkpt>
      <trkpt lat="43.43218" lon="2.62903">
        <ele>875.6</ele>
        <time>2022-06-21T13:00:09Z</time>
      </trkpt>
      <trkpt lat="43.43217" lon="2.62902">
        <ele>875.6</ele>
        <time>2022-06-21T13:00:10Z</time>
      </trkpt>
      <trkpt lat="43.43215" lon="2.62901">
        <ele>875.5</ele>
        <time>2022-06-21T13:00:11Z</time>
      </trkpt>
      <trkpt lat="43.43214" lon="2.629">
        <ele>875.5</ele>
        <time>2022-06-21T13:00:12Z</time>
      </trkpt>
      <trkpt lat="43.43213" lon="2.62899">
        <ele>875.4</ele>
        <time>2022-06-21T13:00:13Z</time>
      </trkpt>
      <trkpt lat="43.43212" lon="2.62898">
        <ele>875.4</ele>
        <time>2022-06-21T13:00:15Z</time>
      </trkpt>
      <trkpt lat="43.43211" lon="2.62897">
        <ele>875.3</ele>
        <time>2022-06-21T13:00:16Z</time>
      </trkpt>
      <trkpt lat="43.43209" lon="2.62896">
        <ele>875.3</ele>
        <time>2022-06-21T13:00:17Z</time>
      </trkpt>
      <trkpt lat="43.43208" lon="2.62894">
        <ele>875.2</ele>
        <time>2022-06-21T13:00:18Z</time>
      </trkpt>
      <trkpt lat="43.43207" lon="2.62894">
        <ele>875.2</ele>
        <time>2022-06-21T13:00:19Z</time>
      </trkpt>
      <trkpt lat="43.43206" lon="2.62893">
        <ele>875.1</ele>
        <time>2022-06-21T13:00:20Z</time>
      </trkpt>
      <trkpt lat="43.43205" lon="2.62892">
        <ele>875.1</ele>
        <time>2022-06-21T13:00:21Z</time>
      </trkpt>
      <trkpt lat="43.43204" lon="2.62891">
        <ele>875</ele>
        <time>2022-06-21T13:00:22Z</time>
      </trkpt>
      <trkpt lat="43.43203" lon="2.6289">
        <ele>875</ele>
        <time>2022-06-21T13:00:24Z</time>
      </trkpt>
      <trkpt lat="43.43202" lon="2.62889">
        <ele>874.9</ele>
        <time>2022-06-21T13:00:25Z</time>
      </trkpt>
      <trkpt lat="43.43201" lon="2.62889">
        <ele>874.9</ele>
        <time>2022-06-21T13:00:26Z</time>
      </trkpt>
      <trkpt lat="43.432" lon="2.62888">
        <ele>874.8</ele>
        <time>2022-06-21T13:00:27Z</time>
      </trkpt>
      <trkpt lat="43.43199" lon="2.62887">
        <ele>874.8</ele>
        <time>2022-06-21T13:00:28Z</time>
      </trkpt>
      <trkpt lat="43.43198" lon="2.62886">
        <ele>874.8</ele>
        <time>2022-06-21T13:00:29Z</time>
      </trkpt>
      <trkpt lat="43.43197" lon="2.62885">
        <ele>874.7</ele>
        <time>2022-06-21T13:00:30Z</time>
      </trkpt>
      <trkpt lat="43.43196" lon="2.62884">
        <ele>874.7</ele>
        <time>2022-06-21T13:00:31Z</time>
      </trkpt>
      <trkpt lat="43.43195" lon="2.62884">
        <ele>874.6</ele>
        <time>2022-06-21T13:00:32Z</time>
      </trkpt>
      <trkpt lat="43.43194" lon="2.62883">
        <ele>874.6</ele>
        <time>2022-06-21T13:00:33Z</time>
      </trkpt>
      <trkpt lat="43.43193" lon="2.62881">
        <ele>874.5</ele>
        <time>2022-06-21T13:00:34Z</time>
      </trkpt>
      <trkpt lat="43.43192" lon="2.6288">
        <ele>874.5</ele>
        <time>2022-06-21T13:00:36Z</time>
      </trkpt>
      <trkpt lat="43.43191" lon="2.62879">
        <ele>874.5</ele>
        <time>2022-06-21T13:00:37Z</time>
      </trkpt>
      <trkpt lat="43.43191" lon="2.62878">
        <ele>874.4</ele>
        <time>2022-06-21T13:00:38Z</time>
      </trkpt>
      <trkpt lat="43.4319" lon="2.62877">
        <ele>874.4</ele>
        <time>2022-06-21T13:00:39Z</time>
      </trkpt>
      <trkpt lat="43.43189" lon="2.62877">
        <ele>874.3</ele>
        <time>2022-06-21T13:00:40Z</time>
      </trkpt>
      <trkpt lat="43.43188" lon="2.62876">
        <ele>874.3</ele>
        <time>2022-06-21T13:00:41Z</time>
      </trkpt>
      <trkpt lat="43.43187" lon="2.62876">
        <ele>874.3</ele>
        <time>2022-06-21T13:00:43Z</time>
      </trkpt>
      <trkpt lat="43.43186" lon="2.62876">
        <ele>874.2</ele>
        <time>2022-06-21T13:00:44Z</time>
      </trkpt>
      <trkpt lat="43.43185" lon="2.62875">
        <ele>874.2</ele>
        <time>2022-06-21T13:00:45Z</time>
      </trkpt>
      <trkpt lat="43.43184" lon="2.62875">
        <ele>874.2</ele>
        <time>2022-06-21T13:00:46Z</time>
      </trkpt>
      <trkpt lat="43.43183" lon="2.62875">
        <ele>874.1</ele>
        <time>2022-06-21T13:00:47Z</time>
      </trkpt>
      <trkpt lat="43.43182" lon="2.62874">
        <ele>874.1</ele>
        <time>2022-06-21T13:00:48Z</time>
      </trkpt>
      <trkpt lat="43.43181" lon="2.62873">
        <ele>874</ele>
        <time>2022-06-21T13:00:49Z</time>
      </trkpt>
      <trkpt lat="43.43179" lon="2.62872">
        <ele>873.9</ele>
        <time>2022-06-21T13:00:50Z</time>
      </trkpt>
      <trkpt lat="43.43178" lon="2.62871">
        <ele>873.9</ele>
        <time>2022-06-21T13:00:51Z</time>
      </trkpt>
      <trkpt lat="43.43178" lon="2.6287">
        <ele>873.9</ele>
        <time>2022-06-21T13:00:52Z</time>
      </trkpt>
      <trkpt lat="43.43177" lon="2.62869">
        <ele>873.9</ele>
        <time>2022-06-21T13:00:53Z</time>
      </trkpt>
      <trkpt lat="43.43176" lon="2.62868">
        <ele>873.8</ele>
        <time>2022-06-21T13:00:54Z</time>
      </trkpt>
      <trkpt lat="43.43175" lon="2.62867">
        <ele>873.8</ele>
        <time>2022-06-21T13:00:55Z</time>
      </trkpt>
      <trkpt lat="43.43174" lon="2.62866">
        <ele>873.7</ele>
        <time>2022-06-21T13:00:57Z</time>
      </trkpt>
      <trkpt lat="43.43173" lon="2.62865">
        <ele>873.6</ele>
        <time>2022-06-21T13:00:58Z</time>
      </trkpt>
      <trkpt lat="43.43171" lon="2.62863">
        <ele>873.6</ele>
        <time>2022-06-21T13:00:59Z</time>
      </trkpt>
      <trkpt lat="43.43171" lon="2.62862">
        <ele>873.5</ele>
        <time>2022-06-21T13:01:00Z</time>
      </trkpt>
      <trkpt lat="43.4317" lon="2.62861">
        <ele>873.5</ele>
        <time>2022-06-21T13:01:01Z</time>
      </trkpt>
      <trkpt lat="43.43168" lon="2.62859">
        <ele>873.4</ele>
        <time>2022-06-21T13:01:02Z</time>
      </trkpt>
      <trkpt lat="43.43168" lon="2.62858">
        <ele>873.4</ele>
        <time>2022-06-21T13:01:03Z</time>
      </trkpt>
      <trkpt lat="43.43167" lon="2.62857">
        <ele>873.3</ele>
        <time>2022-06-21T13:01:04Z</time>
      </trkpt>
      <trkpt lat="43.43166" lon="2.62855">
        <ele>873.3</ele>
        <time>2022-06-21T13:01:06Z</time>
      </trkpt>
      <trkpt lat="43.43165" lon="2.62854">
        <ele>873.2</ele>
        <time>2022-06-21T13:01:07Z</time>
      </trkpt>
      <trkpt lat="43.43164" lon="2.62852">
        <ele>873.2</ele>
        <time>2022-06-21T13:01:08Z</time>
      </trkpt>
      <trkpt lat="43.43164" lon="2.62851">
        <ele>873.1</ele>
        <time>2022-06-21T13:01:09Z</time>
      </trkpt>
      <trkpt lat="43.43162" lon="2.62848">
        <ele>873</ele>
        <time>2022-06-21T13:01:10Z</time>
      </trkpt>
      <trkpt lat="43.43162" lon="2.62847">
        <ele>873</ele>
        <time>2022-06-21T13:01:11Z</time>
      </trkpt>
      <trkpt lat="43.43161" lon="2.62846">
        <ele>873</ele>
        <time>2022-06-21T13:01:12Z</time>
      </trkpt>
      <trkpt lat="43.43161" lon="2.62845">
        <ele>872.9</ele>
        <time>2022-06-21T13:01:13Z</time>
      </trkpt>
      <trkpt lat="43.4316" lon="2.62843">
        <ele>872.9</ele>
        <time>2022-06-21T13:01:14Z</time>
      </trkpt>
      <trkpt lat="43.43159" lon="2.62842">
        <ele>872.8</ele>
        <time>2022-06-21T13:01:16Z</time>
      </trkpt>
      <trkpt lat="43.43158" lon="2.62841">
        <ele>872.8</ele>
        <time>2022-06-21T13:01:17Z</time>
      </trkpt>
      <trkpt lat="43.43157" lon="2.62839">
        <ele>872.7</ele>
        <time>2022-06-21T13:01:18Z</time>
      </trkpt>
      <trkpt lat="43.43156" lon="2.62838">
        <ele>872.7</ele>
        <time>2022-06-21T13:01:19Z</time>
      </trkpt>
      <trkpt lat="43.43155" lon="2.62837">
        <ele>872.6</ele>
        <time>2022-06-21T13:01:20Z</time>
      </trkpt>
      <trkpt lat="43.43154" lon="2.62835">
        <ele>872.6</ele>
        <time>2022-06-21T13:01:22Z</time>
      </trkpt>
      <trkpt lat="43.43153" lon="2.62834">
        <ele>872.5</ele>
        <time>2022-06-21T13:01:23Z</time>
      </trkpt>
      <trkpt lat="43.43152" lon="2.62833">
        <ele>872.5</ele>
        <time>2022-06-21T13:01:24Z</time>
      </trkpt>
      <trkpt lat="43.43152" lon="2.62832">
        <ele>872.5</ele>
        <time>2022-06-21T13:01:25Z</time>
      </trkpt>
      <trkpt lat="43.43151" lon="2.6283">
        <ele>872.4</ele>
        <time>2022-06-21T13:01:26Z</time>
      </trkpt>
      <trkpt lat="43.4315" lon="2.62829">
        <ele>872.4</ele>
        <time>2022-06-21T13:01:27Z</time>
      </trkpt>
      <trkpt lat="43.43149" lon="2.62828">
        <ele>872.3</ele>
        <time>2022-06-21T13:01:28Z</time>
      </trkpt>
      <trkpt lat="43.43148" lon="2.62827">
        <ele>872.3</ele>
        <time>2022-06-21T13:01:29Z</time>
      </trkpt>
      <trkpt lat="43.43147" lon="2.62825">
        <ele>872.2</ele>
        <time>2022-06-21T13:01:30Z</time>
      </trkpt>
      <trkpt lat="43.43146" lon="2.62824">
        <ele>872.2</ele>
        <time>2022-06-21T13:01:32Z</time>
      </trkpt>
      <trkpt lat="43.43145" lon="2.62823">
        <ele>872.1</ele>
        <time>2022-06-21T13:01:33Z</time>
      </trkpt>
      <trkpt lat="43.43144" lon="2.62821">
        <ele>872</ele>
        <time>2022-06-21T13:01:35Z</time>
      </trkpt>
      <trkpt lat="43.43143" lon="2.6282">
        <ele>872</ele>
        <time>2022-06-21T13:01:36Z</time>
      </trkpt>
      <trkpt lat="43.43142" lon="2.62819">
        <ele>872</ele>
        <time>2022-06-21T13:01:37Z</time>
      </trkpt>
      <trkpt lat="43.43142" lon="2.62817">
        <ele>871.9</ele>
        <time>2022-06-21T13:01:38Z</time>
      </trkpt>
      <trkpt lat="43.43142" lon="2.62816">
        <ele>871.9</ele>
        <time>2022-06-21T13:01:39Z</time>
      </trkpt>
      <trkpt lat="43.43141" lon="2.62813">
        <ele>871.8</ele>
        <time>2022-06-21T13:01:40Z</time>
      </trkpt>
      <trkpt lat="43.43141" lon="2.62812">
        <ele>871.8</ele>
        <time>2022-06-21T13:01:41Z</time>
      </trkpt>
      <trkpt lat="43.43141" lon="2.62811">
        <ele>871.7</ele>
        <time>2022-06-21T13:01:42Z</time>
      </trkpt>
      <trkpt lat="43.43141" lon="2.62809">
        <ele>871.7</ele>
        <time>2022-06-21T13:01:44Z</time>
      </trkpt>
      <trkpt lat="43.4314" lon="2.62807">
        <ele>871.6</ele>
        <time>2022-06-21T13:01:45Z</time>
      </trkpt>
      <trkpt lat="43.43141" lon="2.62806">
        <ele>871.6</ele>
        <time>2022-06-21T13:01:46Z</time>
      </trkpt>
      <trkpt lat="43.43141" lon="2.62804">
        <ele>871.6</ele>
        <time>2022-06-21T13:01:47Z</time>
      </trkpt>
      <trkpt lat="43.43141" lon="2.62803">
        <ele>871.5</ele>
        <time>2022-06-21T13:01:48Z</time>
      </trkpt>
      <trkpt lat="43.43141" lon="2.62801">
        <ele>871.5</ele>
        <time>2022-06-21T13:01:49Z</time>
      </trkpt>
      <trkpt lat="43.43142" lon="2.62799">
        <ele>871.4</ele>
        <time>2022-06-21T13:01:50Z</time>
      </trkpt>
      <trkpt lat="43.43142" lon="2.62798">
        <ele>871.4</ele>
        <time>2022-06-21T13:01:52Z</time>
      </trkpt>
      <trkpt lat="43.43142" lon="2.62796">
        <ele>871.3</ele>
        <time>2022-06-21T13:01:53Z</time>
      </trkpt>
      <trkpt lat="43.43142" lon="2.62795">
        <ele>871.3</ele>
        <time>2022-06-21T13:01:54Z</time>
      </trkpt>
      <trkpt lat="43.43143" lon="2.62793">
        <ele>871.3</ele>
        <time>2022-06-21T13:01:55Z</time>
      </trkpt>
      <trkpt lat="43.43143" lon="2.62792">
        <ele>871.2</ele>
        <time>2022-06-21T13:01:56Z</time>
      </trkpt>
      <trkpt lat="43.43143" lon="2.6279">
        <ele>871.2</ele>
        <time>2022-06-21T13:01:57Z</time>
      </trkpt>
      <trkpt lat="43.43143" lon="2.62789">
        <ele>871.1</ele>
        <time>2022-06-21T13:01:58Z</time>
      </trkpt>
      <trkpt lat="43.43144" lon="2.62788">
        <ele>871.1</ele>
        <time>2022-06-21T13:02:00Z</time>
      </trkpt>
      <trkpt lat="43.43144" lon="2.62786">
        <ele>871.1</ele>
        <time>2022-06-21T13:02:01Z</time>
      </trkpt>
      <trkpt lat="43.43144" lon="2.62785">
        <ele>871</ele>
        <time>2022-06-21T13:02:02Z</time>
      </trkpt>
      <trkpt lat="43.43144" lon="2.62783">
        <ele>871</ele>
        <time>2022-06-21T13:02:03Z</time>
      </trkpt>
      <trkpt lat="43.43144" lon="2.62782">
        <ele>870.9</ele>
        <time>2022-06-21T13:02:04Z</time>
      </trkpt>
      <trkpt lat="43.43144" lon="2.6278">
        <ele>870.9</ele>
        <time>2022-06-21T13:02:05Z</time>
      </trkpt>
      <trkpt lat="43.43144" lon="2.62777">
        <ele>870.8</ele>
        <time>2022-06-21T13:02:06Z</time>
      </trkpt>
      <trkpt lat="43.43144" lon="2.62776">
        <ele>870.8</ele>
        <time>2022-06-21T13:02:08Z</time>
      </trkpt>
      <trkpt lat="43.43144" lon="2.62775">
        <ele>870.7</ele>
        <time>2022-06-21T13:02:09Z</time>
      </trkpt>
      <trkpt lat="43.43144" lon="2.62772">
        <ele>870.7</ele>
        <time>2022-06-21T13:02:10Z</time>
      </trkpt>
      <trkpt lat="43.43144" lon="2.62771">
        <ele>870.6</ele>
        <time>2022-06-21T13:02:11Z</time>
      </trkpt>
      <trkpt lat="43.43144" lon="2.6277">
        <ele>870.6</ele>
        <time>2022-06-21T13:02:12Z</time>
      </trkpt>
      <trkpt lat="43.43144" lon="2.62768">
        <ele>870.6</ele>
        <time>2022-06-21T13:02:13Z</time>
      </trkpt>
      <trkpt lat="43.43144" lon="2.62766">
        <ele>870.5</ele>
        <time>2022-06-21T13:02:14Z</time>
      </trkpt>
      <trkpt lat="43.43144" lon="2.62765">
        <ele>870.5</ele>
        <time>2022-06-21T13:02:15Z</time>
      </trkpt>
      <trkpt lat="43.43144" lon="2.62763">
        <ele>870.4</ele>
        <time>2022-06-21T13:02:16Z</time>
      </trkpt>
      <trkpt lat="43.43144" lon="2.62761">
        <ele>870.4</ele>
        <time>2022-06-21T13:02:18Z</time>
      </trkpt>
      <trkpt lat="43.43144" lon="2.6276">
        <ele>870.3</ele>
        <time>2022-06-21T13:02:19Z</time>
      </trkpt>
      <trkpt lat="43.43144" lon="2.62757">
        <ele>870.3</ele>
        <time>2022-06-21T13:02:20Z</time>
      </trkpt>
      <trkpt lat="43.43144" lon="2.62756">
        <ele>870.2</ele>
        <time>2022-06-21T13:02:22Z</time>
      </trkpt>
      <trkpt lat="43.43144" lon="2.62755">
        <ele>870.2</ele>
        <time>2022-06-21T13:02:23Z</time>
      </trkpt>
      <trkpt lat="43.43144" lon="2.62753">
        <ele>870.2</ele>
        <time>2022-06-21T13:02:24Z</time>
      </trkpt>
      <trkpt lat="43.43144" lon="2.62752">
        <ele>870.1</ele>
        <time>2022-06-21T13:02:25Z</time>
      </trkpt>
      <trkpt lat="43.43144" lon="2.62749">
        <ele>870.1</ele>
        <time>2022-06-21T13:02:26Z</time>
      </trkpt>
      <trkpt lat="43.43144" lon="2.62748">
        <ele>870</ele>
        <time>2022-06-21T13:02:27Z</time>
      </trkpt>
      <trkpt lat="43.43144" lon="2.62747">
        <ele>870</ele>
        <time>2022-06-21T13:02:28Z</time>
      </trkpt>
      <trkpt lat="43.43144" lon="2.62745">
        <ele>869.9</ele>
        <time>2022-06-21T13:02:29Z</time>
      </trkpt>
      <trkpt lat="43.43144" lon="2.62742">
        <ele>869.9</ele>
        <time>2022-06-21T13:02:31Z</time>
      </trkpt>
      <trkpt lat="43.43144" lon="2.62741">
        <ele>869.8</ele>
        <time>2022-06-21T13:02:32Z</time>
      </trkpt>
      <trkpt lat="43.43144" lon="2.6274">
        <ele>869.8</ele>
        <time>2022-06-21T13:02:33Z</time>
      </trkpt>
      <trkpt lat="43.43145" lon="2.62738">
        <ele>869.8</ele>
        <time>2022-06-21T13:02:34Z</time>
      </trkpt>
      <trkpt lat="43.43145" lon="2.62737">
        <ele>869.7</ele>
        <time>2022-06-21T13:02:36Z</time>
      </trkpt>
      <trkpt lat="43.43145" lon="2.62735">
        <ele>869.7</ele>
        <time>2022-06-21T13:02:37Z</time>
      </trkpt>
      <trkpt lat="43.43145" lon="2.62733">
        <ele>869.6</ele>
        <time>2022-06-21T13:02:38Z</time>
      </trkpt>
      <trkpt lat="43.43144" lon="2.62731">
        <ele>869.6</ele>
        <time>2022-06-21T13:02:39Z</time>
      </trkpt>
      <trkpt lat="43.43144" lon="2.62729">
        <ele>869.5</ele>
        <time>2022-06-21T13:02:41Z</time>
      </trkpt>
      <trkpt lat="43.43144" lon="2.62728">
        <ele>869.5</ele>
        <time>2022-06-21T13:02:42Z</time>
      </trkpt>
      <trkpt lat="43.43144" lon="2.62726">
        <ele>869.4</ele>
        <time>2022-06-21T13:02:43Z</time>
      </trkpt>
      <trkpt lat="43.43144" lon="2.62725">
        <ele>869.4</ele>
        <time>2022-06-21T13:02:44Z</time>
      </trkpt>
      <trkpt lat="43.43144" lon="2.62723">
        <ele>869.3</ele>
        <time>2022-06-21T13:02:45Z</time>
      </trkpt>
      <trkpt lat="43.43144" lon="2.62722">
        <ele>869.3</ele>
        <time>2022-06-21T13:02:46Z</time>
      </trkpt>
      <trkpt lat="43.43143" lon="2.62721">
        <ele>869.3</ele>
        <time>2022-06-21T13:02:47Z</time>
      </trkpt>
      <trkpt lat="43.43143" lon="2.62719">
        <ele>869.2</ele>
        <time>2022-06-21T13:02:48Z</time>
      </trkpt>
      <trkpt lat="43.43143" lon="2.62717">
        <ele>869.2</ele>
        <time>2022-06-21T13:02:49Z</time>
      </trkpt>
      <trkpt lat="43.43142" lon="2.62715">
        <ele>869.1</ele>
        <time>2022-06-21T13:02:50Z</time>
      </trkpt>
      <trkpt lat="43.43142" lon="2.62713">
        <ele>869.1</ele>
        <time>2022-06-21T13:02:51Z</time>
      </trkpt>
      <trkpt lat="43.43141" lon="2.62712">
        <ele>869</ele>
        <time>2022-06-21T13:02:52Z</time>
      </trkpt>
      <trkpt lat="43.43141" lon="2.6271">
        <ele>869</ele>
        <time>2022-06-21T13:02:54Z</time>
      </trkpt>
      <trkpt lat="43.43141" lon="2.62708">
        <ele>868.9</ele>
        <time>2022-06-21T13:02:55Z</time>
      </trkpt>
      <trkpt lat="43.4314" lon="2.62706">
        <ele>868.9</ele>
        <time>2022-06-21T13:02:56Z</time>
      </trkpt>
      <trkpt lat="43.4314" lon="2.62705">
        <ele>868.8</ele>
        <time>2022-06-21T13:02:57Z</time>
      </trkpt>
      <trkpt lat="43.4314" lon="2.62704">
        <ele>868.8</ele>
        <time>2022-06-21T13:02:58Z</time>
      </trkpt>
      <trkpt lat="43.4314" lon="2.62702">
        <ele>868.8</ele>
        <time>2022-06-21T13:02:59Z</time>
      </trkpt>
      <trkpt lat="43.4314" lon="2.62701">
        <ele>868.7</ele>
        <time>2022-06-21T13:03:00Z</time>
      </trkpt>
      <trkpt lat="43.43139" lon="2.62699">
        <ele>868.7</ele>
        <time>2022-06-21T13:03:01Z</time>
      </trkpt>
      <trkpt lat="43.43139" lon="2.62697">
        <ele>868.6</ele>
        <time>2022-06-21T13:03:02Z</time>
      </trkpt>
      <trkpt lat="43.43139" lon="2.62696">
        <ele>868.6</ele>
        <time>2022-06-21T13:03:03Z</time>
      </trkpt>
      <trkpt lat="43.43138" lon="2.62695">
        <ele>868.5</ele>
        <time>2022-06-21T13:03:04Z</time>
      </trkpt>
      <trkpt lat="43.43138" lon="2.62693">
        <ele>868.5</ele>
        <time>2022-06-21T13:03:05Z</time>
      </trkpt>
      <trkpt lat="43.43137" lon="2.62692">
        <ele>868.5</ele>
        <time>2022-06-21T13:03:06Z</time>
      </trkpt>
      <trkpt lat="43.43137" lon="2.6269">
        <ele>868.4</ele>
        <time>2022-06-21T13:03:08Z</time>
      </trkpt>
      <trkpt lat="43.43136" lon="2.62689">
        <ele>868.4</ele>
        <time>2022-06-21T13:03:09Z</time>
      </trkpt>
      <trkpt lat="43.43136" lon="2.62688">
        <ele>868.3</ele>
        <time>2022-06-21T13:03:10Z</time>
      </trkpt>
      <trkpt lat="43.43136" lon="2.62686">
        <ele>868.3</ele>
        <time>2022-06-21T13:03:11Z</time>
      </trkpt>
      <trkpt lat="43.43136" lon="2.62685">
        <ele>868.3</ele>
        <time>2022-06-21T13:03:12Z</time>
      </trkpt>
      <trkpt lat="43.43136" lon="2.62682">
        <ele>868.2</ele>
        <time>2022-06-21T13:03:14Z</time>
      </trkpt>
      <trkpt lat="43.43136" lon="2.62681">
        <ele>868.1</ele>
        <time>2022-06-21T13:03:15Z</time>
      </trkpt>
      <trkpt lat="43.43136" lon="2.6268">
        <ele>868.1</ele>
        <time>2022-06-21T13:03:16Z</time>
      </trkpt>
      <trkpt lat="43.43136" lon="2.62678">
        <ele>868.1</ele>
        <time>2022-06-21T13:03:17Z</time>
      </trkpt>
      <trkpt lat="43.43136" lon="2.62677">
        <ele>868</ele>
        <time>2022-06-21T13:03:18Z</time>
      </trkpt>
      <trkpt lat="43.43137" lon="2.62675">
        <ele>868</ele>
        <time>2022-06-21T13:03:19Z</time>
      </trkpt>
      <trkpt lat="43.43137" lon="2.62674">
        <ele>868</ele>
        <time>2022-06-21T13:03:20Z</time>
      </trkpt>
      <trkpt lat="43.43137" lon="2.62673">
        <ele>867.9</ele>
        <time>2022-06-21T13:03:21Z</time>
      </trkpt>
      <trkpt lat="43.43138" lon="2.62672">
        <ele>867.9</ele>
        <time>2022-06-21T13:03:23Z</time>
      </trkpt>
      <trkpt lat="43.43138" lon="2.6267">
        <ele>867.8</ele>
        <time>2022-06-21T13:03:24Z</time>
      </trkpt>
      <trkpt lat="43.43139" lon="2.6267">
        <ele>867.8</ele>
        <time>2022-06-21T13:03:26Z</time>
      </trkpt>
      <trkpt lat="43.43139" lon="2.62669">
        <ele>867.8</ele>
        <time>2022-06-21T13:03:27Z</time>
      </trkpt>
      <trkpt lat="43.43139" lon="2.62669">
        <ele>867.8</ele>
        <time>2022-06-21T13:03:28Z</time>
      </trkpt>
      <trkpt lat="43.43139" lon="2.62669">
        <ele>867.8</ele>
        <time>2022-06-21T13:03:29Z</time>
      </trkpt>
      <trkpt lat="43.43139" lon="2.6267">
        <ele>867.8</ele>
        <time>2022-06-21T13:03:30Z</time>
      </trkpt>
      <trkpt lat="43.43139" lon="2.6267">
        <ele>867.8</ele>
        <time>2022-06-21T13:03:31Z</time>
      </trkpt>
      <trkpt lat="43.43139" lon="2.6267">
        <ele>867.8</ele>
        <time>2022-06-21T13:03:32Z</time>
      </trkpt>
      <trkpt lat="43.43139" lon="2.6267">
        <ele>867.8</ele>
        <time>2022-06-21T13:03:33Z</time>
      </trkpt>
      <trkpt lat="43.43139" lon="2.6267">
        <ele>867.8</ele>
        <time>2022-06-21T13:03:34Z</time>
      </trkpt>
      <trkpt lat="43.43139" lon="2.6267">
        <ele>867.8</ele>
        <time>2022-06-21T13:03:35Z</time>
      </trkpt>
      <trkpt lat="43.43139" lon="2.62669">
        <ele>867.8</ele>
        <time>2022-06-21T13:03:36Z</time>
      </trkpt>
      <trkpt lat="43.43139" lon="2.62669">
        <ele>867.8</ele>
        <time>2022-06-21T13:03:37Z</time>
      </trkpt>
      <trkpt lat="43.43139" lon="2.62669">
        <ele>867.8</ele>
        <time>2022-06-21T13:03:38Z</time>
      </trkpt>
      <trkpt lat="43.43139" lon="2.6267">
        <ele>867.8</ele>
        <time>2022-06-21T13:03:39Z</time>
      </trkpt>
      <trkpt lat="43.43139" lon="2.6267">
        <ele>867.8</ele>
        <time>2022-06-21T13:03:40Z</time>
      </trkpt>
      <trkpt lat="43.43139" lon="2.6267">
        <ele>867.8</ele>
        <time>2022-06-21T13:03:41Z</time>
      </trkpt>
      <trkpt lat="43.43139" lon="2.62669">
        <ele>867.8</ele>
        <time>2022-06-21T13:03:42Z</time>
      </trkpt>
      <trkpt lat="43.43139" lon="2.62669">
        <ele>867.7</ele>
        <time>2022-06-21T13:03:43Z</time>
      </trkpt>
      <trkpt lat="43.43139" lon="2.62669">
        <ele>867.7</ele>
        <time>2022-06-21T13:03:45Z</time>
      </trkpt>
      <trkpt lat="43.43139" lon="2.62669">
        <ele>867.7</ele>
        <time>2022-06-21T13:03:46Z</time>
      </trkpt>
      <trkpt lat="43.43139" lon="2.62669">
        <ele>867.7</ele>
        <time>2022-06-21T13:03:47Z</time>
      </trkpt>
      <trkpt lat="43.43139" lon="2.62669">
        <ele>867.7</ele>
        <time>2022-06-21T13:03:48Z</time>
      </trkpt>
      <trkpt lat="43.43139" lon="2.62669">
        <ele>867.7</ele>
        <time>2022-06-21T13:03:49Z</time>
      </trkpt>
      <trkpt lat="43.43139" lon="2.62669">
        <ele>867.7</ele>
        <time>2022-06-21T13:03:50Z</time>
      </trkpt>
      <trkpt lat="43.43139" lon="2.6267">
        <ele>867.7</ele>
        <time>2022-06-21T13:03:51Z</time>
      </trkpt>
      <trkpt lat="43.43139" lon="2.6267">
        <ele>867.7</ele>
        <time>2022-06-21T13:03:52Z</time>
      </trkpt>
      <trkpt lat="43.43139" lon="2.62669">
        <ele>867.7</ele>
        <time>2022-06-21T13:03:53Z</time>
      </trkpt>
      <trkpt lat="43.43139" lon="2.62668">
        <ele>867.7</ele>
        <time>2022-06-21T13:03:54Z</time>
      </trkpt>
      <trkpt lat="43.4314" lon="2.62667">
        <ele>867.6</ele>
        <time>2022-06-21T13:03:55Z</time>
      </trkpt>
      <trkpt lat="43.4314" lon="2.62666">
        <ele>867.6</ele>
        <time>2022-06-21T13:03:56Z</time>
      </trkpt>
      <trkpt lat="43.4314" lon="2.62665">
        <ele>867.6</ele>
        <time>2022-06-21T13:03:57Z</time>
      </trkpt>
      <trkpt lat="43.4314" lon="2.62665">
        <ele>867.6</ele>
        <time>2022-06-21T13:03:59Z</time>
      </trkpt>
      <trkpt lat="43.43139" lon="2.62665">
        <ele>867.6</ele>
        <time>2022-06-21T13:04:01Z</time>
      </trkpt>
      <trkpt lat="43.43139" lon="2.62665">
        <ele>867.6</ele>
        <time>2022-06-21T13:04:02Z</time>
      </trkpt>
      <trkpt lat="43.43139" lon="2.62665">
        <ele>867.6</ele>
        <time>2022-06-21T13:04:03Z</time>
      </trkpt>
      <trkpt lat="43.43139" lon="2.62665">
        <ele>867.6</ele>
        <time>2022-06-21T13:04:04Z</time>
      </trkpt>
      <trkpt lat="43.43139" lon="2.62665">
        <ele>867.6</ele>
        <time>2022-06-21T13:04:05Z</time>
      </trkpt>
      <trkpt lat="43.43139" lon="2.62665">
        <ele>867.6</ele>
        <time>2022-06-21T13:04:06Z</time>
      </trkpt>
      <trkpt lat="43.43139" lon="2.62664">
        <ele>867.5</ele>
        <time>2022-06-21T13:04:08Z</time>
      </trkpt>
      <trkpt lat="43.43139" lon="2.62663">
        <ele>867.5</ele>
        <time>2022-06-21T13:04:09Z</time>
      </trkpt>
      <trkpt lat="43.43139" lon="2.62663">
        <ele>867.5</ele>
        <time>2022-06-21T13:04:10Z</time>
      </trkpt>
      <trkpt lat="43.43139" lon="2.62663">
        <ele>867.5</ele>
        <time>2022-06-21T13:04:11Z</time>
      </trkpt>
      <trkpt lat="43.43139" lon="2.62663">
        <ele>867.5</ele>
        <time>2022-06-21T13:04:12Z</time>
      </trkpt>
      <trkpt lat="43.43139" lon="2.62662">
        <ele>867.5</ele>
        <time>2022-06-21T13:04:13Z</time>
      </trkpt>
      <trkpt lat="43.43138" lon="2.62662">
        <ele>867.5</ele>
        <time>2022-06-21T13:04:14Z</time>
      </trkpt>
      <trkpt lat="43.43138" lon="2.62661">
        <ele>867.5</ele>
        <time>2022-06-21T13:04:15Z</time>
      </trkpt>
      <trkpt lat="43.43138" lon="2.62661">
        <ele>867.4</ele>
        <time>2022-06-21T13:04:16Z</time>
      </trkpt>
      <trkpt lat="43.43138" lon="2.62661">
        <ele>867.4</ele>
        <time>2022-06-21T13:04:17Z</time>
      </trkpt>
      <trkpt lat="43.43138" lon="2.6266">
        <ele>867.4</ele>
        <time>2022-06-21T13:04:18Z</time>
      </trkpt>
      <trkpt lat="43.43138" lon="2.6266">
        <ele>867.4</ele>
        <time>2022-06-21T13:04:19Z</time>
      </trkpt>
      <trkpt lat="43.43138" lon="2.62659">
        <ele>867.4</ele>
        <time>2022-06-21T13:04:20Z</time>
      </trkpt>
      <trkpt lat="43.43138" lon="2.62659">
        <ele>867.4</ele>
        <time>2022-06-21T13:04:22Z</time>
      </trkpt>
      <trkpt lat="43.43137" lon="2.62659">
        <ele>867.4</ele>
        <time>2022-06-21T13:04:23Z</time>
      </trkpt>
      <trkpt lat="43.43137" lon="2.62658">
        <ele>867.4</ele>
        <time>2022-06-21T13:04:24Z</time>
      </trkpt>
      <trkpt lat="43.43137" lon="2.62657">
        <ele>867.3</ele>
        <time>2022-06-21T13:04:25Z</time>
      </trkpt>
      <trkpt lat="43.43136" lon="2.62655">
        <ele>867.3</ele>
        <time>2022-06-21T13:04:26Z</time>
      </trkpt>
      <trkpt lat="43.43135" lon="2.62653">
        <ele>867.2</ele>
        <time>2022-06-21T13:04:28Z</time>
      </trkpt>
      <trkpt lat="43.43135" lon="2.62652">
        <ele>867.1</ele>
        <time>2022-06-21T13:04:29Z</time>
      </trkpt>
      <trkpt lat="43.43134" lon="2.62649">
        <ele>867.1</ele>
        <time>2022-06-21T13:04:30Z</time>
      </trkpt>
      <trkpt lat="43.43133" lon="2.62648">
        <ele>867</ele>
        <time>2022-06-21T13:04:31Z</time>
      </trkpt>
      <trkpt lat="43.43132" lon="2.62646">
        <ele>867</ele>
        <time>2022-06-21T13:04:32Z</time>
      </trkpt>
      <trkpt lat="43.43132" lon="2.62645">
        <ele>866.9</ele>
        <time>2022-06-21T13:04:33Z</time>
      </trkpt>
      <trkpt lat="43.43131" lon="2.62643">
        <ele>866.9</ele>
        <time>2022-06-21T13:04:34Z</time>
      </trkpt>
      <trkpt lat="43.43131" lon="2.62641">
        <ele>866.8</ele>
        <time>2022-06-21T13:04:36Z</time>
      </trkpt>
      <trkpt lat="43.43131" lon="2.62641">
        <ele>866.8</ele>
        <time>2022-06-21T13:04:37Z</time>
      </trkpt>
      <trkpt lat="43.43131" lon="2.62641">
        <ele>866.8</ele>
        <time>2022-06-21T13:04:38Z</time>
      </trkpt>
      <trkpt lat="43.4313" lon="2.62641">
        <ele>866.8</ele>
        <time>2022-06-21T13:04:39Z</time>
      </trkpt>
      <trkpt lat="43.4313" lon="2.62641">
        <ele>866.8</ele>
        <time>2022-06-21T13:04:40Z</time>
      </trkpt>
      <trkpt lat="43.4313" lon="2.62642">
        <ele>866.8</ele>
        <time>2022-06-21T13:04:41Z</time>
      </trkpt>
      <trkpt lat="43.4313" lon="2.62642">
        <ele>866.8</ele>
        <time>2022-06-21T13:04:42Z</time>
      </trkpt>
      <trkpt lat="43.4313" lon="2.62642">
        <ele>866.8</ele>
        <time>2022-06-21T13:04:43Z</time>
      </trkpt>
      <trkpt lat="43.4313" lon="2.62642">
        <ele>866.8</ele>
        <time>2022-06-21T13:04:44Z</time>
      </trkpt>
      <trkpt lat="43.4313" lon="2.62642">
        <ele>866.8</ele>
        <time>2022-06-21T13:04:45Z</time>
      </trkpt>
      <trkpt lat="43.4313" lon="2.62642">
        <ele>866.8</ele>
        <time>2022-06-21T13:04:46Z</time>
      </trkpt>
      <trkpt lat="43.4313" lon="2.62642">
        <ele>866.8</ele>
        <time>2022-06-21T13:04:48Z</time>
      </trkpt>
      <trkpt lat="43.4313" lon="2.62642">
        <ele>866.8</ele>
        <time>2022-06-21T13:04:49Z</time>
      </trkpt>
      <trkpt lat="43.4313" lon="2.62642">
        <ele>866.8</ele>
        <time>2022-06-21T13:04:50Z</time>
      </trkpt>
      <trkpt lat="43.4313" lon="2.62642">
        <ele>866.8</ele>
        <time>2022-06-21T13:04:51Z</time>
      </trkpt>
      <trkpt lat="43.4313" lon="2.62642">
        <ele>866.8</ele>
        <time>2022-06-21T13:04:52Z</time>
      </trkpt>
      <trkpt lat="43.4313" lon="2.62642">
        <ele>866.8</ele>
        <time>2022-06-21T13:04:54Z</time>
      </trkpt>
      <trkpt lat="43.4313" lon="2.62643">
        <ele>866.7</ele>
        <time>2022-06-21T13:04:55Z</time>
      </trkpt>
      <trkpt lat="43.4313" lon="2.62643">
        <ele>866.7</ele>
        <time>2022-06-21T13:04:56Z</time>
      </trkpt>
      <trkpt lat="43.4313" lon="2.62644">
        <ele>866.7</ele>
        <time>2022-06-21T13:04:57Z</time>
      </trkpt>
      <trkpt lat="43.4313" lon="2.62644">
        <ele>866.7</ele>
        <time>2022-06-21T13:04:58Z</time>
      </trkpt>
      <trkpt lat="43.4313" lon="2.62644">
        <ele>866.7</ele>
        <time>2022-06-21T13:04:59Z</time>
      </trkpt>
      <trkpt lat="43.4313" lon="2.62644">
        <ele>866.7</ele>
        <time>2022-06-21T13:05:00Z</time>
      </trkpt>
      <trkpt lat="43.4313" lon="2.62644">
        <ele>866.7</ele>
        <time>2022-06-21T13:05:01Z</time>
      </trkpt>
      <trkpt lat="43.4313" lon="2.62644">
        <ele>866.7</ele>
        <time>2022-06-21T13:05:02Z</time>
      </trkpt>
      <trkpt lat="43.4313" lon="2.62644">
        <ele>866.7</ele>
        <time>2022-06-21T13:05:03Z</time>
      </trkpt>
      <trkpt lat="43.4313" lon="2.62644">
        <ele>866.7</ele>
        <time>2022-06-21T13:05:04Z</time>
      </trkpt>
      <trkpt lat="43.4313" lon="2.62643">
        <ele>866.7</ele>
        <time>2022-06-21T13:05:05Z</time>
      </trkpt>
      <trkpt lat="43.43129" lon="2.62643">
        <ele>866.7</ele>
        <time>2022-06-21T13:05:06Z</time>
      </trkpt>
      <trkpt lat="43.43129" lon="2.62641">
        <ele>866.6</ele>
        <time>2022-06-21T13:05:07Z</time>
      </trkpt>
      <trkpt lat="43.43128" lon="2.62639">
        <ele>866.6</ele>
        <time>2022-06-21T13:05:08Z</time>
      </trkpt>
      <trkpt lat="43.43128" lon="2.62637">
        <ele>866.5</ele>
        <time>2022-06-21T13:05:10Z</time>
      </trkpt>
      <trkpt lat="43.43127" lon="2.62635">
        <ele>866.4</ele>
        <time>2022-06-21T13:05:11Z</time>
      </trkpt>
      <trkpt lat="43.43126" lon="2.62633">
        <ele>866.4</ele>
        <time>2022-06-21T13:05:12Z</time>
      </trkpt>
      <trkpt lat="43.43126" lon="2.62632">
        <ele>866.4</ele>
        <time>2022-06-21T13:05:13Z</time>
      </trkpt>
      <trkpt lat="43.43125" lon="2.62631">
        <ele>866.3</ele>
        <time>2022-06-21T13:05:14Z</time>
      </trkpt>
      <trkpt lat="43.43125" lon="2.62629">
        <ele>866.3</ele>
        <time>2022-06-21T13:05:15Z</time>
      </trkpt>
      <trkpt lat="43.43124" lon="2.62628">
        <ele>866.2</ele>
        <time>2022-06-21T13:05:16Z</time>
      </trkpt>
      <trkpt lat="43.43123" lon="2.62626">
        <ele>866.2</ele>
        <time>2022-06-21T13:05:17Z</time>
      </trkpt>
      <trkpt lat="43.43122" lon="2.62623">
        <ele>866.1</ele>
        <time>2022-06-21T13:05:19Z</time>
      </trkpt>
      <trkpt lat="43.43121" lon="2.62622">
        <ele>866</ele>
        <time>2022-06-21T13:05:20Z</time>
      </trkpt>
      <trkpt lat="43.43121" lon="2.62621">
        <ele>866</ele>
        <time>2022-06-21T13:05:21Z</time>
      </trkpt>
      <trkpt lat="43.43121" lon="2.62619">
        <ele>866</ele>
        <time>2022-06-21T13:05:22Z</time>
      </trkpt>
      <trkpt lat="43.4312" lon="2.62617">
        <ele>865.9</ele>
        <time>2022-06-21T13:05:23Z</time>
      </trkpt>
      <trkpt lat="43.4312" lon="2.62616">
        <ele>865.9</ele>
        <time>2022-06-21T13:05:24Z</time>
      </trkpt>
      <trkpt lat="43.43119" lon="2.62615">
        <ele>865.8</ele>
        <time>2022-06-21T13:05:25Z</time>
      </trkpt>
      <trkpt lat="43.43118" lon="2.62613">
        <ele>865.8</ele>
        <time>2022-06-21T13:05:26Z</time>
      </trkpt>
      <trkpt lat="43.43117" lon="2.6261">
        <ele>865.7</ele>
        <time>2022-06-21T13:05:27Z</time>
      </trkpt>
      <trkpt lat="43.43117" lon="2.62609">
        <ele>865.7</ele>
        <time>2022-06-21T13:05:29Z</time>
      </trkpt>
      <trkpt lat="43.43116" lon="2.62608">
        <ele>865.6</ele>
        <time>2022-06-21T13:05:30Z</time>
      </trkpt>
      <trkpt lat="43.43116" lon="2.62607">
        <ele>865.6</ele>
        <time>2022-06-21T13:05:31Z</time>
      </trkpt>
      <trkpt lat="43.43115" lon="2.62606">
        <ele>865.6</ele>
        <time>2022-06-21T13:05:32Z</time>
      </trkpt>
      <trkpt lat="43.43115" lon="2.62605">
        <ele>865.5</ele>
        <time>2022-06-21T13:05:33Z</time>
      </trkpt>
      <trkpt lat="43.43114" lon="2.62603">
        <ele>865.5</ele>
        <time>2022-06-21T13:05:34Z</time>
      </trkpt>
      <trkpt lat="43.43113" lon="2.62602">
        <ele>865.4</ele>
        <time>2022-06-21T13:05:35Z</time>
      </trkpt>
      <trkpt lat="43.43113" lon="2.626">
        <ele>865.4</ele>
        <time>2022-06-21T13:05:36Z</time>
      </trkpt>
      <trkpt lat="43.43112" lon="2.62599">
        <ele>865.3</ele>
        <time>2022-06-21T13:05:37Z</time>
      </trkpt>
      <trkpt lat="43.43111" lon="2.62598">
        <ele>865.3</ele>
        <time>2022-06-21T13:05:38Z</time>
      </trkpt>
      <trkpt lat="43.4311" lon="2.62595">
        <ele>865.2</ele>
        <time>2022-06-21T13:05:39Z</time>
      </trkpt>
      <trkpt lat="43.43109" lon="2.62594">
        <ele>865.2</ele>
        <time>2022-06-21T13:05:41Z</time>
      </trkpt>
      <trkpt lat="43.43109" lon="2.62593">
        <ele>865.1</ele>
        <time>2022-06-21T13:05:42Z</time>
      </trkpt>
      <trkpt lat="43.43108" lon="2.62592">
        <ele>865.1</ele>
        <time>2022-06-21T13:05:43Z</time>
      </trkpt>
      <trkpt lat="43.43107" lon="2.6259">
        <ele>865</ele>
        <time>2022-06-21T13:05:44Z</time>
      </trkpt>
      <trkpt lat="43.43107" lon="2.62589">
        <ele>865</ele>
        <time>2022-06-21T13:05:45Z</time>
      </trkpt>
      <trkpt lat="43.43106" lon="2.62588">
        <ele>865</ele>
        <time>2022-06-21T13:05:46Z</time>
      </trkpt>
      <trkpt lat="43.43106" lon="2.62586">
        <ele>864.9</ele>
        <time>2022-06-21T13:05:47Z</time>
      </trkpt>
      <trkpt lat="43.43105" lon="2.62585">
        <ele>864.9</ele>
        <time>2022-06-21T13:05:48Z</time>
      </trkpt>
      <trkpt lat="43.43104" lon="2.62584">
        <ele>864.8</ele>
        <time>2022-06-21T13:05:49Z</time>
      </trkpt>
      <trkpt lat="43.43104" lon="2.62583">
        <ele>864.8</ele>
        <time>2022-06-21T13:05:50Z</time>
      </trkpt>
      <trkpt lat="43.43102" lon="2.62581">
        <ele>864.7</ele>
        <time>2022-06-21T13:05:51Z</time>
      </trkpt>
      <trkpt lat="43.43102" lon="2.6258">
        <ele>864.7</ele>
        <time>2022-06-21T13:05:53Z</time>
      </trkpt>
      <trkpt lat="43.43101" lon="2.62579">
        <ele>864.7</ele>
        <time>2022-06-21T13:05:54Z</time>
      </trkpt>
      <trkpt lat="43.431" lon="2.62577">
        <ele>864.6</ele>
        <time>2022-06-21T13:05:55Z</time>
      </trkpt>
      <trkpt lat="43.431" lon="2.62576">
        <ele>864.6</ele>
        <time>2022-06-21T13:05:56Z</time>
      </trkpt>
      <trkpt lat="43.43099" lon="2.62575">
        <ele>864.5</ele>
        <time>2022-06-21T13:05:57Z</time>
      </trkpt>
      <trkpt lat="43.43098" lon="2.62572">
        <ele>864.4</ele>
        <time>2022-06-21T13:05:59Z</time>
      </trkpt>
      <trkpt lat="43.43097" lon="2.62571">
        <ele>864.4</ele>
        <time>2022-06-21T13:06:00Z</time>
      </trkpt>
      <trkpt lat="43.43096" lon="2.62569">
        <ele>864.3</ele>
        <time>2022-06-21T13:06:01Z</time>
      </trkpt>
      <trkpt lat="43.43096" lon="2.62568">
        <ele>864.3</ele>
        <time>2022-06-21T13:06:02Z</time>
      </trkpt>
      <trkpt lat="43.43095" lon="2.62567">
        <ele>864.3</ele>
        <time>2022-06-21T13:06:03Z</time>
      </trkpt>
      <trkpt lat="43.43094" lon="2.62565">
        <ele>864.2</ele>
        <time>2022-06-21T13:06:04Z</time>
      </trkpt>
      <trkpt lat="43.43094" lon="2.62564">
        <ele>864.2</ele>
        <time>2022-06-21T13:06:05Z</time>
      </trkpt>
      <trkpt lat="43.43093" lon="2.62562">
        <ele>864.1</ele>
        <time>2022-06-21T13:06:06Z</time>
      </trkpt>
      <trkpt lat="43.43093" lon="2.62561">
        <ele>864.1</ele>
        <time>2022-06-21T13:06:07Z</time>
      </trkpt>
      <trkpt lat="43.43092" lon="2.62559">
        <ele>864</ele>
        <time>2022-06-21T13:06:09Z</time>
      </trkpt>
      <trkpt lat="43.43091" lon="2.62558">
        <ele>864</ele>
        <time>2022-06-21T13:06:10Z</time>
      </trkpt>
      <trkpt lat="43.43091" lon="2.62557">
        <ele>863.9</ele>
        <time>2022-06-21T13:06:11Z</time>
      </trkpt>
      <trkpt lat="43.4309" lon="2.62556">
        <ele>863.9</ele>
        <time>2022-06-21T13:06:12Z</time>
      </trkpt>
      <trkpt lat="43.43089" lon="2.62554">
        <ele>863.9</ele>
        <time>2022-06-21T13:06:13Z</time>
      </trkpt>
      <trkpt lat="43.43089" lon="2.62553">
        <ele>863.8</ele>
        <time>2022-06-21T13:06:14Z</time>
      </trkpt>
      <trkpt lat="43.43088" lon="2.62551">
        <ele>863.8</ele>
        <time>2022-06-21T13:06:15Z</time>
      </trkpt>
      <trkpt lat="43.43088" lon="2.6255">
        <ele>863.7</ele>
        <time>2022-06-21T13:06:16Z</time>
      </trkpt>
      <trkpt lat="43.43087" lon="2.62549">
        <ele>863.7</ele>
        <time>2022-06-21T13:06:17Z</time>
      </trkpt>
      <trkpt lat="43.43087" lon="2.62548">
        <ele>863.7</ele>
        <time>2022-06-21T13:06:18Z</time>
      </trkpt>
      <trkpt lat="43.43085" lon="2.62546">
        <ele>863.6</ele>
        <time>2022-06-21T13:06:19Z</time>
      </trkpt>
      <trkpt lat="43.43084" lon="2.62545">
        <ele>863.5</ele>
        <time>2022-06-21T13:06:21Z</time>
      </trkpt>
      <trkpt lat="43.43084" lon="2.62544">
        <ele>863.5</ele>
        <time>2022-06-21T13:06:22Z</time>
      </trkpt>
      <trkpt lat="43.43082" lon="2.62543">
        <ele>863.4</ele>
        <time>2022-06-21T13:06:23Z</time>
      </trkpt>
      <trkpt lat="43.43082" lon="2.62542">
        <ele>863.4</ele>
        <time>2022-06-21T13:06:24Z</time>
      </trkpt>
      <trkpt lat="43.43081" lon="2.62541">
        <ele>863.4</ele>
        <time>2022-06-21T13:06:25Z</time>
      </trkpt>
      <trkpt lat="43.4308" lon="2.62539">
        <ele>863.3</ele>
        <time>2022-06-21T13:06:26Z</time>
      </trkpt>
      <trkpt lat="43.4308" lon="2.62538">
        <ele>863.3</ele>
        <time>2022-06-21T13:06:27Z</time>
      </trkpt>
      <trkpt lat="43.43079" lon="2.62537">
        <ele>863.2</ele>
        <time>2022-06-21T13:06:28Z</time>
      </trkpt>
      <trkpt lat="43.43078" lon="2.62536">
        <ele>863.2</ele>
        <time>2022-06-21T13:06:30Z</time>
      </trkpt>
      <trkpt lat="43.43077" lon="2.62535">
        <ele>863.2</ele>
        <time>2022-06-21T13:06:31Z</time>
      </trkpt>
      <trkpt lat="43.43076" lon="2.62534">
        <ele>863.1</ele>
        <time>2022-06-21T13:06:32Z</time>
      </trkpt>
      <trkpt lat="43.43074" lon="2.62531">
        <ele>863</ele>
        <time>2022-06-21T13:06:34Z</time>
      </trkpt>
      <trkpt lat="43.43074" lon="2.6253">
        <ele>863</ele>
        <time>2022-06-21T13:06:35Z</time>
      </trkpt>
      <trkpt lat="43.43073" lon="2.62529">
        <ele>862.9</ele>
        <time>2022-06-21T13:06:36Z</time>
      </trkpt>
      <trkpt lat="43.43072" lon="2.62528">
        <ele>862.9</ele>
        <time>2022-06-21T13:06:37Z</time>
      </trkpt>
      <trkpt lat="43.43071" lon="2.62526">
        <ele>862.8</ele>
        <time>2022-06-21T13:06:38Z</time>
      </trkpt>
      <trkpt lat="43.4307" lon="2.62525">
        <ele>862.8</ele>
        <time>2022-06-21T13:06:39Z</time>
      </trkpt>
      <trkpt lat="43.43069" lon="2.62523">
        <ele>862.7</ele>
        <time>2022-06-21T13:06:40Z</time>
      </trkpt>
      <trkpt lat="43.43069" lon="2.62522">
        <ele>862.7</ele>
        <time>2022-06-21T13:06:42Z</time>
      </trkpt>
      <trkpt lat="43.43068" lon="2.62521">
        <ele>862.6</ele>
        <time>2022-06-21T13:06:43Z</time>
      </trkpt>
      <trkpt lat="43.43066" lon="2.62519">
        <ele>862.6</ele>
        <time>2022-06-21T13:06:44Z</time>
      </trkpt>
      <trkpt lat="43.43066" lon="2.62518">
        <ele>862.5</ele>
        <time>2022-06-21T13:06:45Z</time>
      </trkpt>
      <trkpt lat="43.43065" lon="2.62517">
        <ele>862.5</ele>
        <time>2022-06-21T13:06:46Z</time>
      </trkpt>
      <trkpt lat="43.43064" lon="2.62517">
        <ele>862.5</ele>
        <time>2022-06-21T13:06:47Z</time>
      </trkpt>
      <trkpt lat="43.43063" lon="2.62516">
        <ele>862.4</ele>
        <time>2022-06-21T13:06:48Z</time>
      </trkpt>
      <trkpt lat="43.43062" lon="2.62515">
        <ele>862.4</ele>
        <time>2022-06-21T13:06:50Z</time>
      </trkpt>
      <trkpt lat="43.43061" lon="2.62514">
        <ele>862.3</ele>
        <time>2022-06-21T13:06:51Z</time>
      </trkpt>
      <trkpt lat="43.43061" lon="2.62513">
        <ele>862.3</ele>
        <time>2022-06-21T13:06:52Z</time>
      </trkpt>
      <trkpt lat="43.4306" lon="2.62511">
        <ele>862.2</ele>
        <time>2022-06-21T13:06:53Z</time>
      </trkpt>
      <trkpt lat="43.43059" lon="2.6251">
        <ele>862.2</ele>
        <time>2022-06-21T13:06:54Z</time>
      </trkpt>
      <trkpt lat="43.43059" lon="2.62509">
        <ele>862.2</ele>
        <time>2022-06-21T13:06:55Z</time>
      </trkpt>
      <trkpt lat="43.43059" lon="2.62509">
        <ele>862.2</ele>
        <time>2022-06-21T13:06:56Z</time>
      </trkpt>
      <trkpt lat="43.43059" lon="2.62509">
        <ele>862.2</ele>
        <time>2022-06-21T13:06:57Z</time>
      </trkpt>
      <trkpt lat="43.43059" lon="2.62509">
        <ele>862.2</ele>
        <time>2022-06-21T13:06:58Z</time>
      </trkpt>
      <trkpt lat="43.43059" lon="2.62509">
        <ele>862.2</ele>
        <time>2022-06-21T13:06:59Z</time>
      </trkpt>
      <trkpt lat="43.43059" lon="2.62509">
        <ele>862.1</ele>
        <time>2022-06-21T13:07:00Z</time>
      </trkpt>
      <trkpt lat="43.43059" lon="2.62509">
        <ele>862.1</ele>
        <time>2022-06-21T13:07:01Z</time>
      </trkpt>
      <trkpt lat="43.43059" lon="2.62508">
        <ele>862.1</ele>
        <time>2022-06-21T13:07:03Z</time>
      </trkpt>
      <trkpt lat="43.43059" lon="2.62508">
        <ele>862.1</ele>
        <time>2022-06-21T13:07:04Z</time>
      </trkpt>
      <trkpt lat="43.43057" lon="2.62505">
        <ele>862</ele>
        <time>2022-06-21T13:07:05Z</time>
      </trkpt>
      <trkpt lat="43.43057" lon="2.62505">
        <ele>862</ele>
        <time>2022-06-21T13:07:06Z</time>
      </trkpt>
      <trkpt lat="43.43056" lon="2.62504">
        <ele>861.9</ele>
        <time>2022-06-21T13:07:07Z</time>
      </trkpt>
      <trkpt lat="43.43055" lon="2.62501">
        <ele>861.9</ele>
        <time>2022-06-21T13:07:08Z</time>
      </trkpt>
      <trkpt lat="43.43054" lon="2.62498">
        <ele>861.8</ele>
        <time>2022-06-21T13:07:10Z</time>
      </trkpt>
      <trkpt lat="43.43054" lon="2.62496">
        <ele>861.7</ele>
        <time>2022-06-21T13:07:11Z</time>
      </trkpt>
      <trkpt lat="43.43053" lon="2.62495">
        <ele>861.7</ele>
        <time>2022-06-21T13:07:12Z</time>
      </trkpt>
      <trkpt lat="43.43052" lon="2.62492">
        <ele>861.6</ele>
        <time>2022-06-21T13:07:14Z</time>
      </trkpt>
      <trkpt lat="43.43051" lon="2.6249">
        <ele>861.5</ele>
        <time>2022-06-21T13:07:15Z</time>
      </trkpt>
      <trkpt lat="43.43051" lon="2.62489">
        <ele>861.5</ele>
        <time>2022-06-21T13:07:17Z</time>
      </trkpt>
      <trkpt lat="43.4305" lon="2.62488">
        <ele>861.5</ele>
        <time>2022-06-21T13:07:18Z</time>
      </trkpt>
      <trkpt lat="43.4305" lon="2.62487">
        <ele>861.4</ele>
        <time>2022-06-21T13:07:19Z</time>
      </trkpt>
      <trkpt lat="43.43049" lon="2.62485">
        <ele>861.4</ele>
        <time>2022-06-21T13:07:20Z</time>
      </trkpt>
      <trkpt lat="43.43048" lon="2.62484">
        <ele>861.3</ele>
        <time>2022-06-21T13:07:21Z</time>
      </trkpt>
      <trkpt lat="43.43047" lon="2.62483">
        <ele>861.3</ele>
        <time>2022-06-21T13:07:22Z</time>
      </trkpt>
      <trkpt lat="43.43047" lon="2.62482">
        <ele>861.3</ele>
        <time>2022-06-21T13:07:23Z</time>
      </trkpt>
      <trkpt lat="43.43046" lon="2.62481">
        <ele>861.2</ele>
        <time>2022-06-21T13:07:24Z</time>
      </trkpt>
      <trkpt lat="43.43046" lon="2.6248">
        <ele>861.2</ele>
        <time>2022-06-21T13:07:25Z</time>
      </trkpt>
      <trkpt lat="43.43045" lon="2.62479">
        <ele>861.2</ele>
        <time>2022-06-21T13:07:26Z</time>
      </trkpt>
      <trkpt lat="43.43045" lon="2.62478">
        <ele>861.1</ele>
        <time>2022-06-21T13:07:27Z</time>
      </trkpt>
      <trkpt lat="43.43044" lon="2.62476">
        <ele>861.1</ele>
        <time>2022-06-21T13:07:28Z</time>
      </trkpt>
      <trkpt lat="43.43043" lon="2.62475">
        <ele>861</ele>
        <time>2022-06-21T13:07:29Z</time>
      </trkpt>
      <trkpt lat="43.43042" lon="2.62474">
        <ele>861</ele>
        <time>2022-06-21T13:07:31Z</time>
      </trkpt>
      <trkpt lat="43.43042" lon="2.62473">
        <ele>860.9</ele>
        <time>2022-06-21T13:07:32Z</time>
      </trkpt>
      <trkpt lat="43.43041" lon="2.62472">
        <ele>860.9</ele>
        <time>2022-06-21T13:07:33Z</time>
      </trkpt>
      <trkpt lat="43.4304" lon="2.6247">
        <ele>860.8</ele>
        <time>2022-06-21T13:07:34Z</time>
      </trkpt>
      <trkpt lat="43.43039" lon="2.6247">
        <ele>860.8</ele>
        <time>2022-06-21T13:07:35Z</time>
      </trkpt>
      <trkpt lat="43.43039" lon="2.62469">
        <ele>860.8</ele>
        <time>2022-06-21T13:07:36Z</time>
      </trkpt>
      <trkpt lat="43.43038" lon="2.62468">
        <ele>860.7</ele>
        <time>2022-06-21T13:07:37Z</time>
      </trkpt>
      <trkpt lat="43.43037" lon="2.62467">
        <ele>860.7</ele>
        <time>2022-06-21T13:07:38Z</time>
      </trkpt>
      <trkpt lat="43.43036" lon="2.62466">
        <ele>860.7</ele>
        <time>2022-06-21T13:07:40Z</time>
      </trkpt>
      <trkpt lat="43.43036" lon="2.62465">
        <ele>860.6</ele>
        <time>2022-06-21T13:07:41Z</time>
      </trkpt>
      <trkpt lat="43.43035" lon="2.62465">
        <ele>860.6</ele>
        <time>2022-06-21T13:07:42Z</time>
      </trkpt>
      <trkpt lat="43.43035" lon="2.62465">
        <ele>860.6</ele>
        <time>2022-06-21T13:07:43Z</time>
      </trkpt>
      <trkpt lat="43.43034" lon="2.62465">
        <ele>860.6</ele>
        <time>2022-06-21T13:07:44Z</time>
      </trkpt>
      <trkpt lat="43.43033" lon="2.62464">
        <ele>860.5</ele>
        <time>2022-06-21T13:07:45Z</time>
      </trkpt>
      <trkpt lat="43.43032" lon="2.62463">
        <ele>860.5</ele>
        <time>2022-06-21T13:07:46Z</time>
      </trkpt>
      <trkpt lat="43.43031" lon="2.62462">
        <ele>860.4</ele>
        <time>2022-06-21T13:07:47Z</time>
      </trkpt>
      <trkpt lat="43.4303" lon="2.62461">
        <ele>860.4</ele>
        <time>2022-06-21T13:07:49Z</time>
      </trkpt>
      <trkpt lat="43.43029" lon="2.62461">
        <ele>860.4</ele>
        <time>2022-06-21T13:07:50Z</time>
      </trkpt>
      <trkpt lat="43.43029" lon="2.6246">
        <ele>860.3</ele>
        <time>2022-06-21T13:07:51Z</time>
      </trkpt>
      <trkpt lat="43.43028" lon="2.6246">
        <ele>860.3</ele>
        <time>2022-06-21T13:07:52Z</time>
      </trkpt>
      <trkpt lat="43.43028" lon="2.62459">
        <ele>860.3</ele>
        <time>2022-06-21T13:07:53Z</time>
      </trkpt>
      <trkpt lat="43.43028" lon="2.62459">
        <ele>860.3</ele>
        <time>2022-06-21T13:07:54Z</time>
      </trkpt>
      <trkpt lat="43.43027" lon="2.62458">
        <ele>860.3</ele>
        <time>2022-06-21T13:07:55Z</time>
      </trkpt>
      <trkpt lat="43.43027" lon="2.62457">
        <ele>860.2</ele>
        <time>2022-06-21T13:07:57Z</time>
      </trkpt>
      <trkpt lat="43.43027" lon="2.62457">
        <ele>860.2</ele>
        <time>2022-06-21T13:07:58Z</time>
      </trkpt>
      <trkpt lat="43.43027" lon="2.62457">
        <ele>860.2</ele>
        <time>2022-06-21T13:07:59Z</time>
      </trkpt>
      <trkpt lat="43.43027" lon="2.62457">
        <ele>860.2</ele>
        <time>2022-06-21T13:08:00Z</time>
      </trkpt>
      <trkpt lat="43.43026" lon="2.62457">
        <ele>860.2</ele>
        <time>2022-06-21T13:08:01Z</time>
      </trkpt>
      <trkpt lat="43.43026" lon="2.62456">
        <ele>860.2</ele>
        <time>2022-06-21T13:08:02Z</time>
      </trkpt>
      <trkpt lat="43.43025" lon="2.62456">
        <ele>860.2</ele>
        <time>2022-06-21T13:08:03Z</time>
      </trkpt>
      <trkpt lat="43.43024" lon="2.62455">
        <ele>860.1</ele>
        <time>2022-06-21T13:08:04Z</time>
      </trkpt>
      <trkpt lat="43.43024" lon="2.62455">
        <ele>860.1</ele>
        <time>2022-06-21T13:08:05Z</time>
      </trkpt>
      <trkpt lat="43.43023" lon="2.62454">
        <ele>860.1</ele>
        <time>2022-06-21T13:08:06Z</time>
      </trkpt>
      <trkpt lat="43.43023" lon="2.62453">
        <ele>860</ele>
        <time>2022-06-21T13:08:08Z</time>
      </trkpt>
      <trkpt lat="43.43023" lon="2.62453">
        <ele>860</ele>
        <time>2022-06-21T13:08:09Z</time>
      </trkpt>
      <trkpt lat="43.43022" lon="2.62452">
        <ele>860</ele>
        <time>2022-06-21T13:08:10Z</time>
      </trkpt>
      <trkpt lat="43.43021" lon="2.62451">
        <ele>859.9</ele>
        <time>2022-06-21T13:08:11Z</time>
      </trkpt>
      <trkpt lat="43.4302" lon="2.62449">
        <ele>859.9</ele>
        <time>2022-06-21T13:08:12Z</time>
      </trkpt>
      <trkpt lat="43.43018" lon="2.62447">
        <ele>859.8</ele>
        <time>2022-06-21T13:08:13Z</time>
      </trkpt>
      <trkpt lat="43.43016" lon="2.62445">
        <ele>859.7</ele>
        <time>2022-06-21T13:08:14Z</time>
      </trkpt>
      <trkpt lat="43.43016" lon="2.62444">
        <ele>859.7</ele>
        <time>2022-06-21T13:08:15Z</time>
      </trkpt>
      <trkpt lat="43.43015" lon="2.62443">
        <ele>859.6</ele>
        <time>2022-06-21T13:08:16Z</time>
      </trkpt>
      <trkpt lat="43.43014" lon="2.62442">
        <ele>859.6</ele>
        <time>2022-06-21T13:08:18Z</time>
      </trkpt>
      <trkpt lat="43.43013" lon="2.6244">
        <ele>859.5</ele>
        <time>2022-06-21T13:08:19Z</time>
      </trkpt>
      <trkpt lat="43.43012" lon="2.62439">
        <ele>859.5</ele>
        <time>2022-06-21T13:08:20Z</time>
      </trkpt>
      <trkpt lat="43.43011" lon="2.62438">
        <ele>859.4</ele>
        <time>2022-06-21T13:08:21Z</time>
      </trkpt>
      <trkpt lat="43.43011" lon="2.62437">
        <ele>859.4</ele>
        <time>2022-06-21T13:08:22Z</time>
      </trkpt>
      <trkpt lat="43.43009" lon="2.62435">
        <ele>859.3</ele>
        <time>2022-06-21T13:08:23Z</time>
      </trkpt>
      <trkpt lat="43.43009" lon="2.62434">
        <ele>859.3</ele>
        <time>2022-06-21T13:08:24Z</time>
      </trkpt>
      <trkpt lat="43.43008" lon="2.62433">
        <ele>859.3</ele>
        <time>2022-06-21T13:08:25Z</time>
      </trkpt>
      <trkpt lat="43.43006" lon="2.6243">
        <ele>859.2</ele>
        <time>2022-06-21T13:08:27Z</time>
      </trkpt>
      <trkpt lat="43.43006" lon="2.6243">
        <ele>859.1</ele>
        <time>2022-06-21T13:08:28Z</time>
      </trkpt>
      <trkpt lat="43.43005" lon="2.62428">
        <ele>859.1</ele>
        <time>2022-06-21T13:08:29Z</time>
      </trkpt>
      <trkpt lat="43.43004" lon="2.62427">
        <ele>859</ele>
        <time>2022-06-21T13:08:30Z</time>
      </trkpt>
      <trkpt lat="43.43002" lon="2.62424">
        <ele>858.9</ele>
        <time>2022-06-21T13:08:31Z</time>
      </trkpt>
      <trkpt lat="43.43001" lon="2.62423">
        <ele>858.9</ele>
        <time>2022-06-21T13:08:33Z</time>
      </trkpt>
      <trkpt lat="43.43001" lon="2.62422">
        <ele>858.8</ele>
        <time>2022-06-21T13:08:34Z</time>
      </trkpt>
      <trkpt lat="43.43" lon="2.6242">
        <ele>858.8</ele>
        <time>2022-06-21T13:08:35Z</time>
      </trkpt>
      <trkpt lat="43.42999" lon="2.62419">
        <ele>858.8</ele>
        <time>2022-06-21T13:08:36Z</time>
      </trkpt>
      <trkpt lat="43.42998" lon="2.62417">
        <ele>858.7</ele>
        <time>2022-06-21T13:08:37Z</time>
      </trkpt>
      <trkpt lat="43.42997" lon="2.62416">
        <ele>858.6</ele>
        <time>2022-06-21T13:08:39Z</time>
      </trkpt>
      <trkpt lat="43.42997" lon="2.62415">
        <ele>858.6</ele>
        <time>2022-06-21T13:08:40Z</time>
      </trkpt>
      <trkpt lat="43.42996" lon="2.62414">
        <ele>858.6</ele>
        <time>2022-06-21T13:08:41Z</time>
      </trkpt>
      <trkpt lat="43.42996" lon="2.62413">
        <ele>858.6</ele>
        <time>2022-06-21T13:08:42Z</time>
      </trkpt>
      <trkpt lat="43.42995" lon="2.62412">
        <ele>858.5</ele>
        <time>2022-06-21T13:08:43Z</time>
      </trkpt>
      <trkpt lat="43.42994" lon="2.6241">
        <ele>858.4</ele>
        <time>2022-06-21T13:08:45Z</time>
      </trkpt>
      <trkpt lat="43.42993" lon="2.62409">
        <ele>858.4</ele>
        <time>2022-06-21T13:08:46Z</time>
      </trkpt>
      <trkpt lat="43.42993" lon="2.62407">
        <ele>858.4</ele>
        <time>2022-06-21T13:08:47Z</time>
      </trkpt>
      <trkpt lat="43.42992" lon="2.62406">
        <ele>858.3</ele>
        <time>2022-06-21T13:08:48Z</time>
      </trkpt>
      <trkpt lat="43.42991" lon="2.62405">
        <ele>858.3</ele>
        <time>2022-06-21T13:08:49Z</time>
      </trkpt>
      <trkpt lat="43.42991" lon="2.62404">
        <ele>858.3</ele>
        <time>2022-06-21T13:08:50Z</time>
      </trkpt>
      <trkpt lat="43.4299" lon="2.62403">
        <ele>858.2</ele>
        <time>2022-06-21T13:08:51Z</time>
      </trkpt>
      <trkpt lat="43.42989" lon="2.62402">
        <ele>858.2</ele>
        <time>2022-06-21T13:08:52Z</time>
      </trkpt>
      <trkpt lat="43.42988" lon="2.624">
        <ele>858.1</ele>
        <time>2022-06-21T13:08:53Z</time>
      </trkpt>
      <trkpt lat="43.42988" lon="2.62399">
        <ele>858.1</ele>
        <time>2022-06-21T13:08:54Z</time>
      </trkpt>
      <trkpt lat="43.42987" lon="2.62398">
        <ele>858</ele>
        <time>2022-06-21T13:08:55Z</time>
      </trkpt>
      <trkpt lat="43.42986" lon="2.62395">
        <ele>857.9</ele>
        <time>2022-06-21T13:08:57Z</time>
      </trkpt>
      <trkpt lat="43.42985" lon="2.62394">
        <ele>857.9</ele>
        <time>2022-06-21T13:08:58Z</time>
      </trkpt>
      <trkpt lat="43.42985" lon="2.62393">
        <ele>857.9</ele>
        <time>2022-06-21T13:08:59Z</time>
      </trkpt>
      <trkpt lat="43.42984" lon="2.62392">
        <ele>857.8</ele>
        <time>2022-06-21T13:09:00Z</time>
      </trkpt>
      <trkpt lat="43.42983" lon="2.62391">
        <ele>857.8</ele>
        <time>2022-06-21T13:09:01Z</time>
      </trkpt>
      <trkpt lat="43.42982" lon="2.62389">
        <ele>857.7</ele>
        <time>2022-06-21T13:09:03Z</time>
      </trkpt>
      <trkpt lat="43.42982" lon="2.62388">
        <ele>857.7</ele>
        <time>2022-06-21T13:09:04Z</time>
      </trkpt>
      <trkpt lat="43.42981" lon="2.62387">
        <ele>857.7</ele>
        <time>2022-06-21T13:09:05Z</time>
      </trkpt>
      <trkpt lat="43.42981" lon="2.62387">
        <ele>857.6</ele>
        <time>2022-06-21T13:09:06Z</time>
      </trkpt>
      <trkpt lat="43.42981" lon="2.62386">
        <ele>857.6</ele>
        <time>2022-06-21T13:09:07Z</time>
      </trkpt>
      <trkpt lat="43.4298" lon="2.62386">
        <ele>857.6</ele>
        <time>2022-06-21T13:09:08Z</time>
      </trkpt>
      <trkpt lat="43.4298" lon="2.62386">
        <ele>857.6</ele>
        <time>2022-06-21T13:09:09Z</time>
      </trkpt>
      <trkpt lat="43.4298" lon="2.62386">
        <ele>857.6</ele>
        <time>2022-06-21T13:09:10Z</time>
      </trkpt>
      <trkpt lat="43.4298" lon="2.62386">
        <ele>857.6</ele>
        <time>2022-06-21T13:09:11Z</time>
      </trkpt>
      <trkpt lat="43.4298" lon="2.62386">
        <ele>857.6</ele>
        <time>2022-06-21T13:09:12Z</time>
      </trkpt>
      <trkpt lat="43.4298" lon="2.62386">
        <ele>857.6</ele>
        <time>2022-06-21T13:09:13Z</time>
      </trkpt>
      <trkpt lat="43.4298" lon="2.62385">
        <ele>857.6</ele>
        <time>2022-06-21T13:09:14Z</time>
      </trkpt>
      <trkpt lat="43.4298" lon="2.62385">
        <ele>857.6</ele>
        <time>2022-06-21T13:09:15Z</time>
      </trkpt>
      <trkpt lat="43.42979" lon="2.62384">
        <ele>857.6</ele>
        <time>2022-06-21T13:09:16Z</time>
      </trkpt>
      <trkpt lat="43.42979" lon="2.62384">
        <ele>857.5</ele>
        <time>2022-06-21T13:09:17Z</time>
      </trkpt>
      <trkpt lat="43.42979" lon="2.62383">
        <ele>857.5</ele>
        <time>2022-06-21T13:09:18Z</time>
      </trkpt>
      <trkpt lat="43.42978" lon="2.62383">
        <ele>857.5</ele>
        <time>2022-06-21T13:09:19Z</time>
      </trkpt>
      <trkpt lat="43.42978" lon="2.62382">
        <ele>857.5</ele>
        <time>2022-06-21T13:09:20Z</time>
      </trkpt>
      <trkpt lat="43.42977" lon="2.62382">
        <ele>857.4</ele>
        <time>2022-06-21T13:09:21Z</time>
      </trkpt>
      <trkpt lat="43.42975" lon="2.62379">
        <ele>857.3</ele>
        <time>2022-06-21T13:09:23Z</time>
      </trkpt>
      <trkpt lat="43.42974" lon="2.62378">
        <ele>857.3</ele>
        <time>2022-06-21T13:09:24Z</time>
      </trkpt>
      <trkpt lat="43.42973" lon="2.62376">
        <ele>857.2</ele>
        <time>2022-06-21T13:09:25Z</time>
      </trkpt>
      <trkpt lat="43.4297" lon="2.62372">
        <ele>857.1</ele>
        <time>2022-06-21T13:09:27Z</time>
      </trkpt>
      <trkpt lat="43.42968" lon="2.6237">
        <ele>857</ele>
        <time>2022-06-21T13:09:28Z</time>
      </trkpt>
      <trkpt lat="43.42967" lon="2.62368">
        <ele>856.9</ele>
        <time>2022-06-21T13:09:29Z</time>
      </trkpt>
      <trkpt lat="43.42967" lon="2.62367">
        <ele>856.9</ele>
        <time>2022-06-21T13:09:30Z</time>
      </trkpt>
      <trkpt lat="43.42965" lon="2.62365">
        <ele>856.8</ele>
        <time>2022-06-21T13:09:32Z</time>
      </trkpt>
      <trkpt lat="43.42964" lon="2.62363">
        <ele>856.7</ele>
        <time>2022-06-21T13:09:33Z</time>
      </trkpt>
      <trkpt lat="43.42963" lon="2.62362">
        <ele>856.7</ele>
        <time>2022-06-21T13:09:34Z</time>
      </trkpt>
      <trkpt lat="43.42962" lon="2.6236">
        <ele>856.6</ele>
        <time>2022-06-21T13:09:35Z</time>
      </trkpt>
      <trkpt lat="43.42961" lon="2.62359">
        <ele>856.6</ele>
        <time>2022-06-21T13:09:36Z</time>
      </trkpt>
      <trkpt lat="43.42961" lon="2.62358">
        <ele>856.6</ele>
        <time>2022-06-21T13:09:37Z</time>
      </trkpt>
      <trkpt lat="43.4296" lon="2.62357">
        <ele>856.5</ele>
        <time>2022-06-21T13:09:38Z</time>
      </trkpt>
      <trkpt lat="43.42959" lon="2.62355">
        <ele>856.5</ele>
        <time>2022-06-21T13:09:39Z</time>
      </trkpt>
      <trkpt lat="43.42958" lon="2.62351">
        <ele>856.3</ele>
        <time>2022-06-21T13:09:40Z</time>
      </trkpt>
      <trkpt lat="43.42957" lon="2.62349">
        <ele>856.3</ele>
        <time>2022-06-21T13:09:41Z</time>
      </trkpt>
      <trkpt lat="43.42956" lon="2.62348">
        <ele>856.2</ele>
        <time>2022-06-21T13:09:43Z</time>
      </trkpt>
      <trkpt lat="43.42955" lon="2.62347">
        <ele>856.2</ele>
        <time>2022-06-21T13:09:44Z</time>
      </trkpt>
      <trkpt lat="43.42954" lon="2.62346">
        <ele>856.1</ele>
        <time>2022-06-21T13:09:45Z</time>
      </trkpt>
      <trkpt lat="43.42954" lon="2.62345">
        <ele>856.1</ele>
        <time>2022-06-21T13:09:46Z</time>
      </trkpt>
      <trkpt lat="43.42953" lon="2.62345">
        <ele>856.1</ele>
        <time>2022-06-21T13:09:47Z</time>
      </trkpt>
      <trkpt lat="43.42953" lon="2.62345">
        <ele>856.1</ele>
        <time>2022-06-21T13:09:48Z</time>
      </trkpt>
      <trkpt lat="43.42953" lon="2.62344">
        <ele>856.1</ele>
        <time>2022-06-21T13:09:49Z</time>
      </trkpt>
      <trkpt lat="43.42952" lon="2.62343">
        <ele>856</ele>
        <time>2022-06-21T13:09:50Z</time>
      </trkpt>
      <trkpt lat="43.42951" lon="2.62342">
        <ele>856</ele>
        <time>2022-06-21T13:09:51Z</time>
      </trkpt>
      <trkpt lat="43.42951" lon="2.62342">
        <ele>856</ele>
        <time>2022-06-21T13:09:52Z</time>
      </trkpt>
      <trkpt lat="43.42951" lon="2.62341">
        <ele>856</ele>
        <time>2022-06-21T13:09:54Z</time>
      </trkpt>
      <trkpt lat="43.4295" lon="2.6234">
        <ele>855.9</ele>
        <time>2022-06-21T13:09:55Z</time>
      </trkpt>
      <trkpt lat="43.42949" lon="2.62339">
        <ele>855.9</ele>
        <time>2022-06-21T13:09:56Z</time>
      </trkpt>
      <trkpt lat="43.42948" lon="2.62338">
        <ele>855.8</ele>
        <time>2022-06-21T13:09:57Z</time>
      </trkpt>
      <trkpt lat="43.42947" lon="2.62337">
        <ele>855.8</ele>
        <time>2022-06-21T13:09:58Z</time>
      </trkpt>
      <trkpt lat="43.42946" lon="2.62335">
        <ele>855.7</ele>
        <time>2022-06-21T13:09:59Z</time>
      </trkpt>
      <trkpt lat="43.42945" lon="2.62334">
        <ele>855.6</ele>
        <time>2022-06-21T13:10:00Z</time>
      </trkpt>
      <trkpt lat="43.42943" lon="2.62332">
        <ele>855.4</ele>
        <time>2022-06-21T13:10:01Z</time>
      </trkpt>
      <trkpt lat="43.4294" lon="2.6233">
        <ele>855</ele>
        <time>2022-06-21T13:10:02Z</time>
      </trkpt>
      <trkpt lat="43.42939" lon="2.62329">
        <ele>854.9</ele>
        <time>2022-06-21T13:10:03Z</time>
      </trkpt>
      <trkpt lat="43.42936" lon="2.62325">
        <ele>854.4</ele>
        <time>2022-06-21T13:10:05Z</time>
      </trkpt>
      <trkpt lat="43.42935" lon="2.62324">
        <ele>854.3</ele>
        <time>2022-06-21T13:10:06Z</time>
      </trkpt>
      <trkpt lat="43.42934" lon="2.62323">
        <ele>854.1</ele>
        <time>2022-06-21T13:10:07Z</time>
      </trkpt>
      <trkpt lat="43.42932" lon="2.62322">
        <ele>853.9</ele>
        <time>2022-06-21T13:10:08Z</time>
      </trkpt>
      <trkpt lat="43.42932" lon="2.6232">
        <ele>853.8</ele>
        <time>2022-06-21T13:10:09Z</time>
      </trkpt>
      <trkpt lat="43.42931" lon="2.62319">
        <ele>853.6</ele>
        <time>2022-06-21T13:10:10Z</time>
      </trkpt>
      <trkpt lat="43.4293" lon="2.62319">
        <ele>853.5</ele>
        <time>2022-06-21T13:10:11Z</time>
      </trkpt>
      <trkpt lat="43.42929" lon="2.62317">
        <ele>853.3</ele>
        <time>2022-06-21T13:10:13Z</time>
      </trkpt>
      <trkpt lat="43.42928" lon="2.62316">
        <ele>853.1</ele>
        <time>2022-06-21T13:10:14Z</time>
      </trkpt>
      <trkpt lat="43.42926" lon="2.62314">
        <ele>852.9</ele>
        <time>2022-06-21T13:10:15Z</time>
      </trkpt>
      <trkpt lat="43.42925" lon="2.62312">
        <ele>852.7</ele>
        <time>2022-06-21T13:10:16Z</time>
      </trkpt>
      <trkpt lat="43.42924" lon="2.6231">
        <ele>852.5</ele>
        <time>2022-06-21T13:10:17Z</time>
      </trkpt>
      <trkpt lat="43.42923" lon="2.62309">
        <ele>852.4</ele>
        <time>2022-06-21T13:10:18Z</time>
      </trkpt>
      <trkpt lat="43.42923" lon="2.62309">
        <ele>852.3</ele>
        <time>2022-06-21T13:10:19Z</time>
      </trkpt>
      <trkpt lat="43.42922" lon="2.62307">
        <ele>852.1</ele>
        <time>2022-06-21T13:10:20Z</time>
      </trkpt>
      <trkpt lat="43.42921" lon="2.62306">
        <ele>852</ele>
        <time>2022-06-21T13:10:21Z</time>
      </trkpt>
      <trkpt lat="43.4292" lon="2.62304">
        <ele>851.8</ele>
        <time>2022-06-21T13:10:23Z</time>
      </trkpt>
      <trkpt lat="43.42919" lon="2.62302">
        <ele>851.5</ele>
        <time>2022-06-21T13:10:24Z</time>
      </trkpt>
      <trkpt lat="43.42919" lon="2.62301">
        <ele>851.4</ele>
        <time>2022-06-21T13:10:25Z</time>
      </trkpt>
      <trkpt lat="43.42918" lon="2.623">
        <ele>851.3</ele>
        <time>2022-06-21T13:10:26Z</time>
      </trkpt>
      <trkpt lat="43.42917" lon="2.62299">
        <ele>851.1</ele>
        <time>2022-06-21T13:10:27Z</time>
      </trkpt>
      <trkpt lat="43.42916" lon="2.62297">
        <ele>850.9</ele>
        <time>2022-06-21T13:10:28Z</time>
      </trkpt>
      <trkpt lat="43.42915" lon="2.62295">
        <ele>850.7</ele>
        <time>2022-06-21T13:10:29Z</time>
      </trkpt>
      <trkpt lat="43.42914" lon="2.62294">
        <ele>850.6</ele>
        <time>2022-06-21T13:10:30Z</time>
      </trkpt>
      <trkpt lat="43.42914" lon="2.62293">
        <ele>850.5</ele>
        <time>2022-06-21T13:10:31Z</time>
      </trkpt>
      <trkpt lat="43.42913" lon="2.62292">
        <ele>850.3</ele>
        <time>2022-06-21T13:10:32Z</time>
      </trkpt>
      <trkpt lat="43.42912" lon="2.6229">
        <ele>850.1</ele>
        <time>2022-06-21T13:10:33Z</time>
      </trkpt>
      <trkpt lat="43.42911" lon="2.62289">
        <ele>850</ele>
        <time>2022-06-21T13:10:34Z</time>
      </trkpt>
      <trkpt lat="43.42911" lon="2.62288">
        <ele>849.9</ele>
        <time>2022-06-21T13:10:35Z</time>
      </trkpt>
      <trkpt lat="43.4291" lon="2.62287">
        <ele>849.7</ele>
        <time>2022-06-21T13:10:36Z</time>
      </trkpt>
      <trkpt lat="43.42909" lon="2.62285">
        <ele>849.6</ele>
        <time>2022-06-21T13:10:37Z</time>
      </trkpt>
      <trkpt lat="43.42909" lon="2.62284">
        <ele>849.4</ele>
        <time>2022-06-21T13:10:38Z</time>
      </trkpt>
      <trkpt lat="43.42908" lon="2.62282">
        <ele>849.3</ele>
        <time>2022-06-21T13:10:39Z</time>
      </trkpt>
      <trkpt lat="43.42908" lon="2.62281">
        <ele>849.1</ele>
        <time>2022-06-21T13:10:40Z</time>
      </trkpt>
      <trkpt lat="43.42907" lon="2.6228">
        <ele>849</ele>
        <time>2022-06-21T13:10:42Z</time>
      </trkpt>
      <trkpt lat="43.42907" lon="2.62278">
        <ele>848.8</ele>
        <time>2022-06-21T13:10:43Z</time>
      </trkpt>
      <trkpt lat="43.42906" lon="2.62277">
        <ele>848.7</ele>
        <time>2022-06-21T13:10:44Z</time>
      </trkpt>
      <trkpt lat="43.42906" lon="2.62277">
        <ele>848.7</ele>
        <time>2022-06-21T13:10:45Z</time>
      </trkpt>
      <trkpt lat="43.42906" lon="2.62276">
        <ele>848.6</ele>
        <time>2022-06-21T13:10:46Z</time>
      </trkpt>
      <trkpt lat="43.42905" lon="2.62275">
        <ele>848.5</ele>
        <time>2022-06-21T13:10:47Z</time>
      </trkpt>
      <trkpt lat="43.42905" lon="2.62274">
        <ele>848.4</ele>
        <time>2022-06-21T13:10:48Z</time>
      </trkpt>
      <trkpt lat="43.42904" lon="2.62273">
        <ele>848.3</ele>
        <time>2022-06-21T13:10:49Z</time>
      </trkpt>
      <trkpt lat="43.42904" lon="2.62272">
        <ele>848.2</ele>
        <time>2022-06-21T13:10:50Z</time>
      </trkpt>
      <trkpt lat="43.42903" lon="2.62271">
        <ele>848</ele>
        <time>2022-06-21T13:10:52Z</time>
      </trkpt>
      <trkpt lat="43.42902" lon="2.6227">
        <ele>847.9</ele>
        <time>2022-06-21T13:10:53Z</time>
      </trkpt>
      <trkpt lat="43.42902" lon="2.62269">
        <ele>847.8</ele>
        <time>2022-06-21T13:10:54Z</time>
      </trkpt>
      <trkpt lat="43.42901" lon="2.62268">
        <ele>847.6</ele>
        <time>2022-06-21T13:10:55Z</time>
      </trkpt>
      <trkpt lat="43.429" lon="2.62266">
        <ele>847.5</ele>
        <time>2022-06-21T13:10:56Z</time>
      </trkpt>
      <trkpt lat="43.42899" lon="2.62264">
        <ele>847.3</ele>
        <time>2022-06-21T13:10:57Z</time>
      </trkpt>
      <trkpt lat="43.42899" lon="2.62263">
        <ele>847.2</ele>
        <time>2022-06-21T13:10:58Z</time>
      </trkpt>
      <trkpt lat="43.42898" lon="2.62262">
        <ele>847</ele>
        <time>2022-06-21T13:10:59Z</time>
      </trkpt>
      <trkpt lat="43.42897" lon="2.62261">
        <ele>846.9</ele>
        <time>2022-06-21T13:11:00Z</time>
      </trkpt>
      <trkpt lat="43.42897" lon="2.62261">
        <ele>846.8</ele>
        <time>2022-06-21T13:11:01Z</time>
      </trkpt>
      <trkpt lat="43.42896" lon="2.6226">
        <ele>846.7</ele>
        <time>2022-06-21T13:11:03Z</time>
      </trkpt>
      <trkpt lat="43.42895" lon="2.62259">
        <ele>846.5</ele>
        <time>2022-06-21T13:11:04Z</time>
      </trkpt>
      <trkpt lat="43.42894" lon="2.62258">
        <ele>846.4</ele>
        <time>2022-06-21T13:11:05Z</time>
      </trkpt>
      <trkpt lat="43.42893" lon="2.62257">
        <ele>846.3</ele>
        <time>2022-06-21T13:11:06Z</time>
      </trkpt>
      <trkpt lat="43.42892" lon="2.62255">
        <ele>846.1</ele>
        <time>2022-06-21T13:11:07Z</time>
      </trkpt>
      <trkpt lat="43.42892" lon="2.62255">
        <ele>846.1</ele>
        <time>2022-06-21T13:11:08Z</time>
      </trkpt>
      <trkpt lat="43.42891" lon="2.62253">
        <ele>845.9</ele>
        <time>2022-06-21T13:11:09Z</time>
      </trkpt>
      <trkpt lat="43.4289" lon="2.62252">
        <ele>845.8</ele>
        <time>2022-06-21T13:11:10Z</time>
      </trkpt>
      <trkpt lat="43.4289" lon="2.6225">
        <ele>845.6</ele>
        <time>2022-06-21T13:11:11Z</time>
      </trkpt>
      <trkpt lat="43.42889" lon="2.62249">
        <ele>845.5</ele>
        <time>2022-06-21T13:11:12Z</time>
      </trkpt>
      <trkpt lat="43.42888" lon="2.62248">
        <ele>845.3</ele>
        <time>2022-06-21T13:11:14Z</time>
      </trkpt>
      <trkpt lat="43.42886" lon="2.62245">
        <ele>845.1</ele>
        <time>2022-06-21T13:11:15Z</time>
      </trkpt>
      <trkpt lat="43.42886" lon="2.62244">
        <ele>845</ele>
        <time>2022-06-21T13:11:16Z</time>
      </trkpt>
      <trkpt lat="43.42886" lon="2.62243">
        <ele>844.9</ele>
        <time>2022-06-21T13:11:17Z</time>
      </trkpt>
      <trkpt lat="43.42885" lon="2.62242">
        <ele>844.8</ele>
        <time>2022-06-21T13:11:18Z</time>
      </trkpt>
      <trkpt lat="43.42885" lon="2.62242">
        <ele>844.7</ele>
        <time>2022-06-21T13:11:19Z</time>
      </trkpt>
      <trkpt lat="43.42884" lon="2.62241">
        <ele>844.7</ele>
        <time>2022-06-21T13:11:20Z</time>
      </trkpt>
      <trkpt lat="43.42883" lon="2.6224">
        <ele>844.5</ele>
        <time>2022-06-21T13:11:21Z</time>
      </trkpt>
      <trkpt lat="43.42882" lon="2.62239">
        <ele>844.3</ele>
        <time>2022-06-21T13:11:22Z</time>
      </trkpt>
      <trkpt lat="43.42881" lon="2.62238">
        <ele>844.2</ele>
        <time>2022-06-21T13:11:23Z</time>
      </trkpt>
      <trkpt lat="43.4288" lon="2.62238">
        <ele>844.1</ele>
        <time>2022-06-21T13:11:24Z</time>
      </trkpt>
      <trkpt lat="43.42879" lon="2.62237">
        <ele>844</ele>
        <time>2022-06-21T13:11:25Z</time>
      </trkpt>
      <trkpt lat="43.42878" lon="2.62236">
        <ele>843.8</ele>
        <time>2022-06-21T13:11:27Z</time>
      </trkpt>
      <trkpt lat="43.42877" lon="2.62234">
        <ele>843.7</ele>
        <time>2022-06-21T13:11:28Z</time>
      </trkpt>
      <trkpt lat="43.42876" lon="2.62233">
        <ele>843.5</ele>
        <time>2022-06-21T13:11:29Z</time>
      </trkpt>
      <trkpt lat="43.42875" lon="2.62231">
        <ele>843.4</ele>
        <time>2022-06-21T13:11:30Z</time>
      </trkpt>
      <trkpt lat="43.42875" lon="2.6223">
        <ele>843.3</ele>
        <time>2022-06-21T13:11:31Z</time>
      </trkpt>
      <trkpt lat="43.42874" lon="2.62229">
        <ele>843.2</ele>
        <time>2022-06-21T13:11:32Z</time>
      </trkpt>
      <trkpt lat="43.42873" lon="2.62227">
        <ele>843</ele>
        <time>2022-06-21T13:11:33Z</time>
      </trkpt>
      <trkpt lat="43.42872" lon="2.62226">
        <ele>842.9</ele>
        <time>2022-06-21T13:11:34Z</time>
      </trkpt>
      <trkpt lat="43.42871" lon="2.62225">
        <ele>842.8</ele>
        <time>2022-06-21T13:11:36Z</time>
      </trkpt>
      <trkpt lat="43.4287" lon="2.62224">
        <ele>842.7</ele>
        <time>2022-06-21T13:11:37Z</time>
      </trkpt>
      <trkpt lat="43.4287" lon="2.62223">
        <ele>842.6</ele>
        <time>2022-06-21T13:11:38Z</time>
      </trkpt>
      <trkpt lat="43.42869" lon="2.62222">
        <ele>842.5</ele>
        <time>2022-06-21T13:11:39Z</time>
      </trkpt>
      <trkpt lat="43.42868" lon="2.62221">
        <ele>842.4</ele>
        <time>2022-06-21T13:11:40Z</time>
      </trkpt>
      <trkpt lat="43.42867" lon="2.6222">
        <ele>842.3</ele>
        <time>2022-06-21T13:11:41Z</time>
      </trkpt>
      <trkpt lat="43.42867" lon="2.62219">
        <ele>842.2</ele>
        <time>2022-06-21T13:11:42Z</time>
      </trkpt>
      <trkpt lat="43.42866" lon="2.62217">
        <ele>842.1</ele>
        <time>2022-06-21T13:11:43Z</time>
      </trkpt>
      <trkpt lat="43.42865" lon="2.62216">
        <ele>842</ele>
        <time>2022-06-21T13:11:44Z</time>
      </trkpt>
      <trkpt lat="43.42864" lon="2.62215">
        <ele>841.9</ele>
        <time>2022-06-21T13:11:45Z</time>
      </trkpt>
      <trkpt lat="43.42864" lon="2.62214">
        <ele>841.8</ele>
        <time>2022-06-21T13:11:46Z</time>
      </trkpt>
      <trkpt lat="43.42863" lon="2.62213">
        <ele>841.7</ele>
        <time>2022-06-21T13:11:47Z</time>
      </trkpt>
      <trkpt lat="43.42862" lon="2.62211">
        <ele>841.5</ele>
        <time>2022-06-21T13:11:49Z</time>
      </trkpt>
      <trkpt lat="43.42861" lon="2.6221">
        <ele>841.4</ele>
        <time>2022-06-21T13:11:50Z</time>
      </trkpt>
      <trkpt lat="43.4286" lon="2.62208">
        <ele>841.3</ele>
        <time>2022-06-21T13:11:51Z</time>
      </trkpt>
      <trkpt lat="43.4286" lon="2.62207">
        <ele>841.2</ele>
        <time>2022-06-21T13:11:52Z</time>
      </trkpt>
      <trkpt lat="43.42859" lon="2.62206">
        <ele>841.1</ele>
        <time>2022-06-21T13:11:53Z</time>
      </trkpt>
      <trkpt lat="43.42858" lon="2.62205">
        <ele>841</ele>
        <time>2022-06-21T13:11:54Z</time>
      </trkpt>
      <trkpt lat="43.42857" lon="2.62203">
        <ele>840.8</ele>
        <time>2022-06-21T13:11:56Z</time>
      </trkpt>
      <trkpt lat="43.42857" lon="2.62201">
        <ele>840.7</ele>
        <time>2022-06-21T13:11:57Z</time>
      </trkpt>
      <trkpt lat="43.42856" lon="2.622">
        <ele>840.6</ele>
        <time>2022-06-21T13:11:58Z</time>
      </trkpt>
      <trkpt lat="43.42856" lon="2.62199">
        <ele>840.5</ele>
        <time>2022-06-21T13:11:59Z</time>
      </trkpt>
      <trkpt lat="43.42855" lon="2.62197">
        <ele>840.4</ele>
        <time>2022-06-21T13:12:00Z</time>
      </trkpt>
      <trkpt lat="43.42854" lon="2.62196">
        <ele>840.3</ele>
        <time>2022-06-21T13:12:01Z</time>
      </trkpt>
      <trkpt lat="43.42854" lon="2.62194">
        <ele>840.1</ele>
        <time>2022-06-21T13:12:02Z</time>
      </trkpt>
      <trkpt lat="43.42853" lon="2.62193">
        <ele>840</ele>
        <time>2022-06-21T13:12:03Z</time>
      </trkpt>
      <trkpt lat="43.42852" lon="2.62192">
        <ele>839.9</ele>
        <time>2022-06-21T13:12:04Z</time>
      </trkpt>
      <trkpt lat="43.42852" lon="2.62191">
        <ele>839.8</ele>
        <time>2022-06-21T13:12:05Z</time>
      </trkpt>
      <trkpt lat="43.42851" lon="2.6219">
        <ele>839.7</ele>
        <time>2022-06-21T13:12:06Z</time>
      </trkpt>
      <trkpt lat="43.4285" lon="2.62189">
        <ele>839.6</ele>
        <time>2022-06-21T13:12:07Z</time>
      </trkpt>
      <trkpt lat="43.42849" lon="2.62188">
        <ele>839.5</ele>
        <time>2022-06-21T13:12:08Z</time>
      </trkpt>
      <trkpt lat="43.42848" lon="2.62187">
        <ele>839.3</ele>
        <time>2022-06-21T13:12:09Z</time>
      </trkpt>
      <trkpt lat="43.42848" lon="2.62186">
        <ele>839.2</ele>
        <time>2022-06-21T13:12:10Z</time>
      </trkpt>
      <trkpt lat="43.42847" lon="2.62185">
        <ele>839.1</ele>
        <time>2022-06-21T13:12:11Z</time>
      </trkpt>
      <trkpt lat="43.42847" lon="2.62184">
        <ele>839.1</ele>
        <time>2022-06-21T13:12:12Z</time>
      </trkpt>
      <trkpt lat="43.42846" lon="2.62183">
        <ele>838.9</ele>
        <time>2022-06-21T13:12:13Z</time>
      </trkpt>
      <trkpt lat="43.42846" lon="2.62181">
        <ele>838.8</ele>
        <time>2022-06-21T13:12:15Z</time>
      </trkpt>
      <trkpt lat="43.42845" lon="2.6218">
        <ele>838.7</ele>
        <time>2022-06-21T13:12:16Z</time>
      </trkpt>
      <trkpt lat="43.42845" lon="2.62179">
        <ele>838.6</ele>
        <time>2022-06-21T13:12:17Z</time>
      </trkpt>
      <trkpt lat="43.42844" lon="2.62177">
        <ele>838.4</ele>
        <time>2022-06-21T13:12:18Z</time>
      </trkpt>
      <trkpt lat="43.42844" lon="2.62175">
        <ele>838.3</ele>
        <time>2022-06-21T13:12:20Z</time>
      </trkpt>
      <trkpt lat="43.42844" lon="2.62174">
        <ele>838.2</ele>
        <time>2022-06-21T13:12:21Z</time>
      </trkpt>
      <trkpt lat="43.42844" lon="2.62172">
        <ele>838</ele>
        <time>2022-06-21T13:12:22Z</time>
      </trkpt>
      <trkpt lat="43.42843" lon="2.62171">
        <ele>837.9</ele>
        <time>2022-06-21T13:12:23Z</time>
      </trkpt>
      <trkpt lat="43.42843" lon="2.62169">
        <ele>837.8</ele>
        <time>2022-06-21T13:12:24Z</time>
      </trkpt>
      <trkpt lat="43.42843" lon="2.62167">
        <ele>837.6</ele>
        <time>2022-06-21T13:12:25Z</time>
      </trkpt>
      <trkpt lat="43.42843" lon="2.62166">
        <ele>837.5</ele>
        <time>2022-06-21T13:12:26Z</time>
      </trkpt>
      <trkpt lat="43.42842" lon="2.62165">
        <ele>837.4</ele>
        <time>2022-06-21T13:12:27Z</time>
      </trkpt>
      <trkpt lat="43.42842" lon="2.62164">
        <ele>837.3</ele>
        <time>2022-06-21T13:12:28Z</time>
      </trkpt>
      <trkpt lat="43.42841" lon="2.62162">
        <ele>837.2</ele>
        <time>2022-06-21T13:12:29Z</time>
      </trkpt>
      <trkpt lat="43.42841" lon="2.6216">
        <ele>837</ele>
        <time>2022-06-21T13:12:31Z</time>
      </trkpt>
      <trkpt lat="43.4284" lon="2.62159">
        <ele>836.9</ele>
        <time>2022-06-21T13:12:32Z</time>
      </trkpt>
      <trkpt lat="43.4284" lon="2.62157">
        <ele>836.8</ele>
        <time>2022-06-21T13:12:33Z</time>
      </trkpt>
      <trkpt lat="43.4284" lon="2.62156">
        <ele>836.7</ele>
        <time>2022-06-21T13:12:34Z</time>
      </trkpt>
      <trkpt lat="43.4284" lon="2.62154">
        <ele>836.5</ele>
        <time>2022-06-21T13:12:35Z</time>
      </trkpt>
      <trkpt lat="43.42841" lon="2.62152">
        <ele>836.4</ele>
        <time>2022-06-21T13:12:36Z</time>
      </trkpt>
      <trkpt lat="43.42841" lon="2.6215">
        <ele>836.3</ele>
        <time>2022-06-21T13:12:37Z</time>
      </trkpt>
      <trkpt lat="43.42841" lon="2.6215">
        <ele>836.2</ele>
        <time>2022-06-21T13:12:38Z</time>
      </trkpt>
      <trkpt lat="43.42841" lon="2.62148">
        <ele>836.1</ele>
        <time>2022-06-21T13:12:39Z</time>
      </trkpt>
      <trkpt lat="43.42841" lon="2.62147">
        <ele>836</ele>
        <time>2022-06-21T13:12:41Z</time>
      </trkpt>
      <trkpt lat="43.42841" lon="2.62145">
        <ele>835.9</ele>
        <time>2022-06-21T13:12:42Z</time>
      </trkpt>
      <trkpt lat="43.42841" lon="2.62143">
        <ele>835.8</ele>
        <time>2022-06-21T13:12:43Z</time>
      </trkpt>
      <trkpt lat="43.42841" lon="2.62142">
        <ele>835.7</ele>
        <time>2022-06-21T13:12:44Z</time>
      </trkpt>
      <trkpt lat="43.42842" lon="2.62141">
        <ele>835.6</ele>
        <time>2022-06-21T13:12:45Z</time>
      </trkpt>
      <trkpt lat="43.42842" lon="2.62139">
        <ele>835.5</ele>
        <time>2022-06-21T13:12:46Z</time>
      </trkpt>
      <trkpt lat="43.42843" lon="2.62138">
        <ele>835.3</ele>
        <time>2022-06-21T13:12:47Z</time>
      </trkpt>
      <trkpt lat="43.42843" lon="2.62136">
        <ele>835.2</ele>
        <time>2022-06-21T13:12:48Z</time>
      </trkpt>
      <trkpt lat="43.42843" lon="2.62135">
        <ele>835.1</ele>
        <time>2022-06-21T13:12:49Z</time>
      </trkpt>
      <trkpt lat="43.42843" lon="2.62133">
        <ele>835</ele>
        <time>2022-06-21T13:12:50Z</time>
      </trkpt>
      <trkpt lat="43.42844" lon="2.62132">
        <ele>834.9</ele>
        <time>2022-06-21T13:12:52Z</time>
      </trkpt>
      <trkpt lat="43.42844" lon="2.62131">
        <ele>834.8</ele>
        <time>2022-06-21T13:12:53Z</time>
      </trkpt>
      <trkpt lat="43.42844" lon="2.62129">
        <ele>834.7</ele>
        <time>2022-06-21T13:12:54Z</time>
      </trkpt>
      <trkpt lat="43.42844" lon="2.62128">
        <ele>834.6</ele>
        <time>2022-06-21T13:12:55Z</time>
      </trkpt>
      <trkpt lat="43.42845" lon="2.62127">
        <ele>834.5</ele>
        <time>2022-06-21T13:12:56Z</time>
      </trkpt>
      <trkpt lat="43.42845" lon="2.62125">
        <ele>834.5</ele>
        <time>2022-06-21T13:12:57Z</time>
      </trkpt>
      <trkpt lat="43.42845" lon="2.62124">
        <ele>834.4</ele>
        <time>2022-06-21T13:12:58Z</time>
      </trkpt>
      <trkpt lat="43.42845" lon="2.62123">
        <ele>834.3</ele>
        <time>2022-06-21T13:12:59Z</time>
      </trkpt>
      <trkpt lat="43.42846" lon="2.62122">
        <ele>834.2</ele>
        <time>2022-06-21T13:13:00Z</time>
      </trkpt>
      <trkpt lat="43.42846" lon="2.62121">
        <ele>834.1</ele>
        <time>2022-06-21T13:13:01Z</time>
      </trkpt>
      <trkpt lat="43.42846" lon="2.62119">
        <ele>834</ele>
        <time>2022-06-21T13:13:03Z</time>
      </trkpt>
      <trkpt lat="43.42846" lon="2.62118">
        <ele>833.9</ele>
        <time>2022-06-21T13:13:04Z</time>
      </trkpt>
      <trkpt lat="43.42846" lon="2.62116">
        <ele>833.8</ele>
        <time>2022-06-21T13:13:05Z</time>
      </trkpt>
      <trkpt lat="43.42846" lon="2.62115">
        <ele>833.8</ele>
        <time>2022-06-21T13:13:06Z</time>
      </trkpt>
      <trkpt lat="43.42846" lon="2.62114">
        <ele>833.7</ele>
        <time>2022-06-21T13:13:07Z</time>
      </trkpt>
      <trkpt lat="43.42846" lon="2.62113">
        <ele>833.6</ele>
        <time>2022-06-21T13:13:08Z</time>
      </trkpt>
      <trkpt lat="43.42847" lon="2.62111">
        <ele>833.5</ele>
        <time>2022-06-21T13:13:09Z</time>
      </trkpt>
      <trkpt lat="43.42847" lon="2.62109">
        <ele>833.3</ele>
        <time>2022-06-21T13:13:10Z</time>
      </trkpt>
      <trkpt lat="43.42847" lon="2.62107">
        <ele>833.2</ele>
        <time>2022-06-21T13:13:11Z</time>
      </trkpt>
      <trkpt lat="43.42848" lon="2.62106">
        <ele>833.2</ele>
        <time>2022-06-21T13:13:12Z</time>
      </trkpt>
      <trkpt lat="43.42848" lon="2.62103">
        <ele>833</ele>
        <time>2022-06-21T13:13:13Z</time>
      </trkpt>
      <trkpt lat="43.42848" lon="2.62102">
        <ele>832.9</ele>
        <time>2022-06-21T13:13:14Z</time>
      </trkpt>
      <trkpt lat="43.42848" lon="2.62101">
        <ele>832.8</ele>
        <time>2022-06-21T13:13:15Z</time>
      </trkpt>
      <trkpt lat="43.42848" lon="2.62099">
        <ele>832.7</ele>
        <time>2022-06-21T13:13:17Z</time>
      </trkpt>
      <trkpt lat="43.42848" lon="2.62097">
        <ele>832.6</ele>
        <time>2022-06-21T13:13:18Z</time>
      </trkpt>
      <trkpt lat="43.42848" lon="2.62095">
        <ele>832.5</ele>
        <time>2022-06-21T13:13:19Z</time>
      </trkpt>
      <trkpt lat="43.42848" lon="2.62093">
        <ele>832.3</ele>
        <time>2022-06-21T13:13:20Z</time>
      </trkpt>
      <trkpt lat="43.42849" lon="2.62091">
        <ele>832.2</ele>
        <time>2022-06-21T13:13:21Z</time>
      </trkpt>
      <trkpt lat="43.42849" lon="2.62089">
        <ele>832.1</ele>
        <time>2022-06-21T13:13:23Z</time>
      </trkpt>
      <trkpt lat="43.42849" lon="2.62087">
        <ele>832</ele>
        <time>2022-06-21T13:13:24Z</time>
      </trkpt>
      <trkpt lat="43.42849" lon="2.62084">
        <ele>831.8</ele>
        <time>2022-06-21T13:13:25Z</time>
      </trkpt>
      <trkpt lat="43.42849" lon="2.62081">
        <ele>831.7</ele>
        <time>2022-06-21T13:13:26Z</time>
      </trkpt>
      <trkpt lat="43.42849" lon="2.6208">
        <ele>831.6</ele>
        <time>2022-06-21T13:13:27Z</time>
      </trkpt>
      <trkpt lat="43.42849" lon="2.62079">
        <ele>831.6</ele>
        <time>2022-06-21T13:13:28Z</time>
      </trkpt>
      <trkpt lat="43.42849" lon="2.62077">
        <ele>831.5</ele>
        <time>2022-06-21T13:13:29Z</time>
      </trkpt>
      <trkpt lat="43.42849" lon="2.62075">
        <ele>831.3</ele>
        <time>2022-06-21T13:13:30Z</time>
      </trkpt>
      <trkpt lat="43.4285" lon="2.62073">
        <ele>831.3</ele>
        <time>2022-06-21T13:13:31Z</time>
      </trkpt>
      <trkpt lat="43.4285" lon="2.62072">
        <ele>831.2</ele>
        <time>2022-06-21T13:13:32Z</time>
      </trkpt>
      <trkpt lat="43.4285" lon="2.6207">
        <ele>831.1</ele>
        <time>2022-06-21T13:13:33Z</time>
      </trkpt>
      <trkpt lat="43.4285" lon="2.62069">
        <ele>831</ele>
        <time>2022-06-21T13:13:34Z</time>
      </trkpt>
      <trkpt lat="43.4285" lon="2.62067">
        <ele>830.9</ele>
        <time>2022-06-21T13:13:36Z</time>
      </trkpt>
      <trkpt lat="43.4285" lon="2.62066">
        <ele>830.9</ele>
        <time>2022-06-21T13:13:37Z</time>
      </trkpt>
      <trkpt lat="43.4285" lon="2.62065">
        <ele>830.8</ele>
        <time>2022-06-21T13:13:38Z</time>
      </trkpt>
      <trkpt lat="43.42851" lon="2.62063">
        <ele>830.7</ele>
        <time>2022-06-21T13:13:39Z</time>
      </trkpt>
      <trkpt lat="43.42851" lon="2.62061">
        <ele>830.6</ele>
        <time>2022-06-21T13:13:40Z</time>
      </trkpt>
      <trkpt lat="43.42851" lon="2.6206">
        <ele>830.5</ele>
        <time>2022-06-21T13:13:41Z</time>
      </trkpt>
      <trkpt lat="43.42851" lon="2.62058">
        <ele>830.4</ele>
        <time>2022-06-21T13:13:42Z</time>
      </trkpt>
      <trkpt lat="43.42851" lon="2.62056">
        <ele>830.4</ele>
        <time>2022-06-21T13:13:43Z</time>
      </trkpt>
      <trkpt lat="43.42851" lon="2.62054">
        <ele>830.3</ele>
        <time>2022-06-21T13:13:45Z</time>
      </trkpt>
      <trkpt lat="43.42852" lon="2.62053">
        <ele>830.1</ele>
        <time>2022-06-21T13:13:46Z</time>
      </trkpt>
      <trkpt lat="43.42852" lon="2.62051">
        <ele>830</ele>
        <time>2022-06-21T13:13:47Z</time>
      </trkpt>
      <trkpt lat="43.42852" lon="2.62049">
        <ele>829.9</ele>
        <time>2022-06-21T13:13:48Z</time>
      </trkpt>
      <trkpt lat="43.42852" lon="2.62046">
        <ele>829.7</ele>
        <time>2022-06-21T13:13:49Z</time>
      </trkpt>
      <trkpt lat="43.42852" lon="2.62045">
        <ele>829.7</ele>
        <time>2022-06-21T13:13:50Z</time>
      </trkpt>
      <trkpt lat="43.42852" lon="2.62043">
        <ele>829.6</ele>
        <time>2022-06-21T13:13:51Z</time>
      </trkpt>
      <trkpt lat="43.42852" lon="2.62042">
        <ele>829.5</ele>
        <time>2022-06-21T13:13:52Z</time>
      </trkpt>
      <trkpt lat="43.42852" lon="2.6204">
        <ele>829.4</ele>
        <time>2022-06-21T13:13:53Z</time>
      </trkpt>
      <trkpt lat="43.42852" lon="2.62038">
        <ele>829.3</ele>
        <time>2022-06-21T13:13:54Z</time>
      </trkpt>
      <trkpt lat="43.42852" lon="2.62036">
        <ele>829.2</ele>
        <time>2022-06-21T13:13:55Z</time>
      </trkpt>
      <trkpt lat="43.42853" lon="2.62034">
        <ele>829.1</ele>
        <time>2022-06-21T13:13:57Z</time>
      </trkpt>
      <trkpt lat="43.42853" lon="2.62031">
        <ele>828.9</ele>
        <time>2022-06-21T13:13:58Z</time>
      </trkpt>
      <trkpt lat="43.42853" lon="2.6203">
        <ele>828.8</ele>
        <time>2022-06-21T13:13:59Z</time>
      </trkpt>
      <trkpt lat="43.42853" lon="2.62029">
        <ele>828.8</ele>
        <time>2022-06-21T13:14:00Z</time>
      </trkpt>
      <trkpt lat="43.42853" lon="2.62027">
        <ele>828.7</ele>
        <time>2022-06-21T13:14:02Z</time>
      </trkpt>
      <trkpt lat="43.42853" lon="2.62025">
        <ele>828.6</ele>
        <time>2022-06-21T13:14:03Z</time>
      </trkpt>
      <trkpt lat="43.42853" lon="2.62021">
        <ele>828.4</ele>
        <time>2022-06-21T13:14:04Z</time>
      </trkpt>
      <trkpt lat="43.42853" lon="2.6202">
        <ele>828.3</ele>
        <time>2022-06-21T13:14:06Z</time>
      </trkpt>
      <trkpt lat="43.42854" lon="2.62018">
        <ele>828.3</ele>
        <time>2022-06-21T13:14:07Z</time>
      </trkpt>
      <trkpt lat="43.42854" lon="2.62017">
        <ele>828.2</ele>
        <time>2022-06-21T13:14:08Z</time>
      </trkpt>
      <trkpt lat="43.42854" lon="2.62015">
        <ele>828.1</ele>
        <time>2022-06-21T13:14:09Z</time>
      </trkpt>
      <trkpt lat="43.42854" lon="2.62013">
        <ele>828.1</ele>
        <time>2022-06-21T13:14:10Z</time>
      </trkpt>
      <trkpt lat="43.42854" lon="2.62011">
        <ele>828</ele>
        <time>2022-06-21T13:14:11Z</time>
      </trkpt>
      <trkpt lat="43.42854" lon="2.62009">
        <ele>827.9</ele>
        <time>2022-06-21T13:14:12Z</time>
      </trkpt>
      <trkpt lat="43.42854" lon="2.62008">
        <ele>827.9</ele>
        <time>2022-06-21T13:14:13Z</time>
      </trkpt>
      <trkpt lat="43.42854" lon="2.62007">
        <ele>827.8</ele>
        <time>2022-06-21T13:14:14Z</time>
      </trkpt>
      <trkpt lat="43.42854" lon="2.62006">
        <ele>827.8</ele>
        <time>2022-06-21T13:14:15Z</time>
      </trkpt>
      <trkpt lat="43.42855" lon="2.62004">
        <ele>827.7</ele>
        <time>2022-06-21T13:14:17Z</time>
      </trkpt>
      <trkpt lat="43.42855" lon="2.62002">
        <ele>827.7</ele>
        <time>2022-06-21T13:14:18Z</time>
      </trkpt>
      <trkpt lat="43.42855" lon="2.62001">
        <ele>827.6</ele>
        <time>2022-06-21T13:14:19Z</time>
      </trkpt>
      <trkpt lat="43.42855" lon="2.61999">
        <ele>827.6</ele>
        <time>2022-06-21T13:14:20Z</time>
      </trkpt>
      <trkpt lat="43.42855" lon="2.61997">
        <ele>827.5</ele>
        <time>2022-06-21T13:14:21Z</time>
      </trkpt>
      <trkpt lat="43.42855" lon="2.61995">
        <ele>827.5</ele>
        <time>2022-06-21T13:14:22Z</time>
      </trkpt>
      <trkpt lat="43.42855" lon="2.61993">
        <ele>827.4</ele>
        <time>2022-06-21T13:14:23Z</time>
      </trkpt>
      <trkpt lat="43.42855" lon="2.61992">
        <ele>827.4</ele>
        <time>2022-06-21T13:14:24Z</time>
      </trkpt>
      <trkpt lat="43.42855" lon="2.61991">
        <ele>827.4</ele>
        <time>2022-06-21T13:14:25Z</time>
      </trkpt>
      <trkpt lat="43.42856" lon="2.61989">
        <ele>827.3</ele>
        <time>2022-06-21T13:14:27Z</time>
      </trkpt>
      <trkpt lat="43.42856" lon="2.61987">
        <ele>827.3</ele>
        <time>2022-06-21T13:14:28Z</time>
      </trkpt>
      <trkpt lat="43.42856" lon="2.61985">
        <ele>827.2</ele>
        <time>2022-06-21T13:14:29Z</time>
      </trkpt>
      <trkpt lat="43.42856" lon="2.61984">
        <ele>827.2</ele>
        <time>2022-06-21T13:14:30Z</time>
      </trkpt>
      <trkpt lat="43.42856" lon="2.61982">
        <ele>827.2</ele>
        <time>2022-06-21T13:14:31Z</time>
      </trkpt>
      <trkpt lat="43.42856" lon="2.61981">
        <ele>827.2</ele>
        <time>2022-06-21T13:14:32Z</time>
      </trkpt>
      <trkpt lat="43.42857" lon="2.61978">
        <ele>827.1</ele>
        <time>2022-06-21T13:14:33Z</time>
      </trkpt>
      <trkpt lat="43.42857" lon="2.61976">
        <ele>827.1</ele>
        <time>2022-06-21T13:14:34Z</time>
      </trkpt>
      <trkpt lat="43.42857" lon="2.61975">
        <ele>827.1</ele>
        <time>2022-06-21T13:14:35Z</time>
      </trkpt>
      <trkpt lat="43.42857" lon="2.61974">
        <ele>827.1</ele>
        <time>2022-06-21T13:14:36Z</time>
      </trkpt>
      <trkpt lat="43.42857" lon="2.61972">
        <ele>827</ele>
        <time>2022-06-21T13:14:38Z</time>
      </trkpt>
      <trkpt lat="43.42857" lon="2.61971">
        <ele>827</ele>
        <time>2022-06-21T13:14:39Z</time>
      </trkpt>
      <trkpt lat="43.42856" lon="2.61969">
        <ele>827</ele>
        <time>2022-06-21T13:14:40Z</time>
      </trkpt>
      <trkpt lat="43.42856" lon="2.61968">
        <ele>827</ele>
        <time>2022-06-21T13:14:41Z</time>
      </trkpt>
      <trkpt lat="43.42856" lon="2.61966">
        <ele>827</ele>
        <time>2022-06-21T13:14:42Z</time>
      </trkpt>
      <trkpt lat="43.42856" lon="2.61965">
        <ele>826.9</ele>
        <time>2022-06-21T13:14:43Z</time>
      </trkpt>
      <trkpt lat="43.42855" lon="2.61963">
        <ele>826.9</ele>
        <time>2022-06-21T13:14:44Z</time>
      </trkpt>
      <trkpt lat="43.42855" lon="2.61962">
        <ele>826.9</ele>
        <time>2022-06-21T13:14:45Z</time>
      </trkpt>
      <trkpt lat="43.42854" lon="2.6196">
        <ele>826.9</ele>
        <time>2022-06-21T13:14:46Z</time>
      </trkpt>
      <trkpt lat="43.42854" lon="2.61958">
        <ele>826.9</ele>
        <time>2022-06-21T13:14:48Z</time>
      </trkpt>
      <trkpt lat="43.42854" lon="2.61958">
        <ele>826.8</ele>
        <time>2022-06-21T13:14:49Z</time>
      </trkpt>
      <trkpt lat="43.42854" lon="2.61958">
        <ele>826.8</ele>
        <time>2022-06-21T13:14:50Z</time>
      </trkpt>
      <trkpt lat="43.42854" lon="2.61958">
        <ele>826.8</ele>
        <time>2022-06-21T13:14:51Z</time>
      </trkpt>
      <trkpt lat="43.42854" lon="2.61959">
        <ele>826.8</ele>
        <time>2022-06-21T13:14:52Z</time>
      </trkpt>
      <trkpt lat="43.42854" lon="2.61959">
        <ele>826.8</ele>
        <time>2022-06-21T13:14:53Z</time>
      </trkpt>
      <trkpt lat="43.42853" lon="2.61959">
        <ele>826.8</ele>
        <time>2022-06-21T13:14:54Z</time>
      </trkpt>
      <trkpt lat="43.42853" lon="2.61959">
        <ele>826.8</ele>
        <time>2022-06-21T13:14:55Z</time>
      </trkpt>
      <trkpt lat="43.42853" lon="2.61959">
        <ele>826.8</ele>
        <time>2022-06-21T13:14:56Z</time>
      </trkpt>
      <trkpt lat="43.42853" lon="2.61959">
        <ele>826.8</ele>
        <time>2022-06-21T13:14:57Z</time>
      </trkpt>
      <trkpt lat="43.42853" lon="2.61959">
        <ele>826.8</ele>
        <time>2022-06-21T13:14:58Z</time>
      </trkpt>
      <trkpt lat="43.42853" lon="2.61959">
        <ele>826.8</ele>
        <time>2022-06-21T13:14:59Z</time>
      </trkpt>
      <trkpt lat="43.42853" lon="2.61959">
        <ele>826.8</ele>
        <time>2022-06-21T13:15:00Z</time>
      </trkpt>
      <trkpt lat="43.42853" lon="2.61959">
        <ele>826.8</ele>
        <time>2022-06-21T13:15:01Z</time>
      </trkpt>
      <trkpt lat="43.42853" lon="2.61959">
        <ele>826.8</ele>
        <time>2022-06-21T13:15:02Z</time>
      </trkpt>
      <trkpt lat="43.42853" lon="2.61959">
        <ele>826.8</ele>
        <time>2022-06-21T13:15:03Z</time>
      </trkpt>
      <trkpt lat="43.42853" lon="2.61959">
        <ele>826.8</ele>
        <time>2022-06-21T13:15:04Z</time>
      </trkpt>
      <trkpt lat="43.42853" lon="2.61959">
        <ele>826.8</ele>
        <time>2022-06-21T13:15:05Z</time>
      </trkpt>
      <trkpt lat="43.42853" lon="2.61959">
        <ele>826.8</ele>
        <time>2022-06-21T13:15:06Z</time>
      </trkpt>
      <trkpt lat="43.42853" lon="2.61959">
        <ele>826.8</ele>
        <time>2022-06-21T13:15:07Z</time>
      </trkpt>
      <trkpt lat="43.42853" lon="2.61959">
        <ele>826.8</ele>
        <time>2022-06-21T13:15:08Z</time>
      </trkpt>
      <trkpt lat="43.42853" lon="2.61959">
        <ele>826.8</ele>
        <time>2022-06-21T13:15:10Z</time>
      </trkpt>
      <trkpt lat="43.42853" lon="2.61959">
        <ele>826.8</ele>
        <time>2022-06-21T13:15:11Z</time>
      </trkpt>
      <trkpt lat="43.42853" lon="2.61959">
        <ele>826.8</ele>
        <time>2022-06-21T13:15:13Z</time>
      </trkpt>
      <trkpt lat="43.42853" lon="2.61958">
        <ele>826.8</ele>
        <time>2022-06-21T13:15:14Z</time>
      </trkpt>
      <trkpt lat="43.42853" lon="2.61957">
        <ele>826.8</ele>
        <time>2022-06-21T13:15:15Z</time>
      </trkpt>
      <trkpt lat="43.42853" lon="2.61957">
        <ele>826.8</ele>
        <time>2022-06-21T13:15:16Z</time>
      </trkpt>
      <trkpt lat="43.42853" lon="2.61957">
        <ele>826.8</ele>
        <time>2022-06-21T13:15:17Z</time>
      </trkpt>
      <trkpt lat="43.42854" lon="2.61957">
        <ele>826.8</ele>
        <time>2022-06-21T13:15:18Z</time>
      </trkpt>
      <trkpt lat="43.42854" lon="2.61956">
        <ele>826.8</ele>
        <time>2022-06-21T13:15:19Z</time>
      </trkpt>
      <trkpt lat="43.42854" lon="2.61956">
        <ele>826.8</ele>
        <time>2022-06-21T13:15:20Z</time>
      </trkpt>
      <trkpt lat="43.42854" lon="2.61956">
        <ele>826.8</ele>
        <time>2022-06-21T13:15:21Z</time>
      </trkpt>
      <trkpt lat="43.42854" lon="2.61956">
        <ele>826.8</ele>
        <time>2022-06-21T13:15:22Z</time>
      </trkpt>
      <trkpt lat="43.42854" lon="2.61956">
        <ele>826.8</ele>
        <time>2022-06-21T13:15:23Z</time>
      </trkpt>
      <trkpt lat="43.42854" lon="2.61956">
        <ele>826.8</ele>
        <time>2022-06-21T13:15:24Z</time>
      </trkpt>
      <trkpt lat="43.42854" lon="2.61956">
        <ele>826.8</ele>
        <time>2022-06-21T13:15:25Z</time>
      </trkpt>
      <trkpt lat="43.42854" lon="2.61956">
        <ele>826.8</ele>
        <time>2022-06-21T13:15:26Z</time>
      </trkpt>
      <trkpt lat="43.42854" lon="2.61955">
        <ele>826.8</ele>
        <time>2022-06-21T13:15:28Z</time>
      </trkpt>
      <trkpt lat="43.42854" lon="2.61954">
        <ele>826.7</ele>
        <time>2022-06-21T13:15:29Z</time>
      </trkpt>
      <trkpt lat="43.42854" lon="2.61953">
        <ele>826.7</ele>
        <time>2022-06-21T13:15:30Z</time>
      </trkpt>
      <trkpt lat="43.42853" lon="2.61952">
        <ele>826.7</ele>
        <time>2022-06-21T13:15:32Z</time>
      </trkpt>
      <trkpt lat="43.42853" lon="2.6195">
        <ele>826.7</ele>
        <time>2022-06-21T13:15:33Z</time>
      </trkpt>
      <trkpt lat="43.42851" lon="2.61947">
        <ele>826.6</ele>
        <time>2022-06-21T13:15:34Z</time>
      </trkpt>
      <trkpt lat="43.4285" lon="2.61947">
        <ele>826.6</ele>
        <time>2022-06-21T13:15:35Z</time>
      </trkpt>
      <trkpt lat="43.42849" lon="2.61945">
        <ele>826.6</ele>
        <time>2022-06-21T13:15:36Z</time>
      </trkpt>
      <trkpt lat="43.42847" lon="2.61945">
        <ele>826.5</ele>
        <time>2022-06-21T13:15:37Z</time>
      </trkpt>
      <trkpt lat="43.42846" lon="2.61944">
        <ele>826.5</ele>
        <time>2022-06-21T13:15:38Z</time>
      </trkpt>
      <trkpt lat="43.42844" lon="2.61944">
        <ele>826.5</ele>
        <time>2022-06-21T13:15:39Z</time>
      </trkpt>
      <trkpt lat="43.42843" lon="2.61945">
        <ele>827</ele>
        <time>2022-06-21T13:15:41Z</time>
      </trkpt>
      <trkpt lat="43.42842" lon="2.61945">
        <ele>827.1</ele>
        <time>2022-06-21T13:15:42Z</time>
      </trkpt>
      <trkpt lat="43.42842" lon="2.61946">
        <ele>827.1</ele>
        <time>2022-06-21T13:15:43Z</time>
      </trkpt>
      <trkpt lat="43.42842" lon="2.61946">
        <ele>827.1</ele>
        <time>2022-06-21T13:15:44Z</time>
      </trkpt>
      <trkpt lat="43.42843" lon="2.61946">
        <ele>827.1</ele>
        <time>2022-06-21T13:15:46Z</time>
      </trkpt>
      <trkpt lat="43.42843" lon="2.61946">
        <ele>827.1</ele>
        <time>2022-06-21T13:15:47Z</time>
      </trkpt>
      <trkpt lat="43.42842" lon="2.61946">
        <ele>827.1</ele>
        <time>2022-06-21T13:15:48Z</time>
      </trkpt>
      <trkpt lat="43.42842" lon="2.61946">
        <ele>827.1</ele>
        <time>2022-06-21T13:15:49Z</time>
      </trkpt>
      <trkpt lat="43.42842" lon="2.61946">
        <ele>827.1</ele>
        <time>2022-06-21T13:15:50Z</time>
      </trkpt>
      <trkpt lat="43.42842" lon="2.61946">
        <ele>827.1</ele>
        <time>2022-06-21T13:15:51Z</time>
      </trkpt>
      <trkpt lat="43.42842" lon="2.61946">
        <ele>827.1</ele>
        <time>2022-06-21T13:15:52Z</time>
      </trkpt>
      <trkpt lat="43.42842" lon="2.61946">
        <ele>827.1</ele>
        <time>2022-06-21T13:15:53Z</time>
      </trkpt>
      <trkpt lat="43.42842" lon="2.61946">
        <ele>827.1</ele>
        <time>2022-06-21T13:15:54Z</time>
      </trkpt>
      <trkpt lat="43.42842" lon="2.61946">
        <ele>827.1</ele>
        <time>2022-06-21T13:15:55Z</time>
      </trkpt>
      <trkpt lat="43.42842" lon="2.61946">
        <ele>827.1</ele>
        <time>2022-06-21T13:15:56Z</time>
      </trkpt>
      <trkpt lat="43.42842" lon="2.61946">
        <ele>827.1</ele>
        <time>2022-06-21T13:15:57Z</time>
      </trkpt>
      <trkpt lat="43.42842" lon="2.61946">
        <ele>827.1</ele>
        <time>2022-06-21T13:15:58Z</time>
      </trkpt>
      <trkpt lat="43.42842" lon="2.61946">
        <ele>827.1</ele>
        <time>2022-06-21T13:15:59Z</time>
      </trkpt>
      <trkpt lat="43.42843" lon="2.61946">
        <ele>827.2</ele>
        <time>2022-06-21T13:16:00Z</time>
      </trkpt>
      <trkpt lat="43.42843" lon="2.61946">
        <ele>827.2</ele>
        <time>2022-06-21T13:16:01Z</time>
      </trkpt>
      <trkpt lat="43.42843" lon="2.61946">
        <ele>827.2</ele>
        <time>2022-06-21T13:16:02Z</time>
      </trkpt>
      <trkpt lat="43.42843" lon="2.61946">
        <ele>827.2</ele>
        <time>2022-06-21T13:16:03Z</time>
      </trkpt>
      <trkpt lat="43.42843" lon="2.61946">
        <ele>827.2</ele>
        <time>2022-06-21T13:16:04Z</time>
      </trkpt>
      <trkpt lat="43.42843" lon="2.61946">
        <ele>827.2</ele>
        <time>2022-06-21T13:16:05Z</time>
      </trkpt>
      <trkpt lat="43.42843" lon="2.61946">
        <ele>827.2</ele>
        <time>2022-06-21T13:16:06Z</time>
      </trkpt>
      <trkpt lat="43.42843" lon="2.61946">
        <ele>827.2</ele>
        <time>2022-06-21T13:16:07Z</time>
      </trkpt>
      <trkpt lat="43.42843" lon="2.61946">
        <ele>827.2</ele>
        <time>2022-06-21T13:16:08Z</time>
      </trkpt>
      <trkpt lat="43.42843" lon="2.61946">
        <ele>827.2</ele>
        <time>2022-06-21T13:16:09Z</time>
      </trkpt>
      <trkpt lat="43.42843" lon="2.61946">
        <ele>827.2</ele>
        <time>2022-06-21T13:16:10Z</time>
      </trkpt>
      <trkpt lat="43.42843" lon="2.61946">
        <ele>827.2</ele>
        <time>2022-06-21T13:16:11Z</time>
      </trkpt>
      <trkpt lat="43.42843" lon="2.61946">
        <ele>827.2</ele>
        <time>2022-06-21T13:16:12Z</time>
      </trkpt>
      <trkpt lat="43.42843" lon="2.61946">
        <ele>827.2</ele>
        <time>2022-06-21T13:16:13Z</time>
      </trkpt>
      <trkpt lat="43.42843" lon="2.61946">
        <ele>827.2</ele>
        <time>2022-06-21T13:16:14Z</time>
      </trkpt>
      <trkpt lat="43.42843" lon="2.61946">
        <ele>827.2</ele>
        <time>2022-06-21T13:16:15Z</time>
      </trkpt>
      <trkpt lat="43.42843" lon="2.61946">
        <ele>827.2</ele>
        <time>2022-06-21T13:16:16Z</time>
      </trkpt>
      <trkpt lat="43.42843" lon="2.61946">
        <ele>827.2</ele>
        <time>2022-06-21T13:16:17Z</time>
      </trkpt>
      <trkpt lat="43.42843" lon="2.61946">
        <ele>827.2</ele>
        <time>2022-06-21T13:16:18Z</time>
      </trkpt>
      <trkpt lat="43.42843" lon="2.61946">
        <ele>827.2</ele>
        <time>2022-06-21T13:16:19Z</time>
      </trkpt>
      <trkpt lat="43.42843" lon="2.61946">
        <ele>827.2</ele>
        <time>2022-06-21T13:16:20Z</time>
      </trkpt>
      <trkpt lat="43.42843" lon="2.61946">
        <ele>827.2</ele>
        <time>2022-06-21T13:16:21Z</time>
      </trkpt>
      <trkpt lat="43.42843" lon="2.61946">
        <ele>827.2</ele>
        <time>2022-06-21T13:16:22Z</time>
      </trkpt>
      <trkpt lat="43.42843" lon="2.61946">
        <ele>827.2</ele>
        <time>2022-06-21T13:16:23Z</time>
      </trkpt>
      <trkpt lat="43.42843" lon="2.61946">
        <ele>827.2</ele>
        <time>2022-06-21T13:16:24Z</time>
      </trkpt>
      <trkpt lat="43.42843" lon="2.61947">
        <ele>827.2</ele>
        <time>2022-06-21T13:16:25Z</time>
      </trkpt>
      <trkpt lat="43.42843" lon="2.61949">
        <ele>827.3</ele>
        <time>2022-06-21T13:16:26Z</time>
      </trkpt>
      <trkpt lat="43.42843" lon="2.6195">
        <ele>827.3</ele>
        <time>2022-06-21T13:16:27Z</time>
      </trkpt>
      <trkpt lat="43.42842" lon="2.61951">
        <ele>827.4</ele>
        <time>2022-06-21T13:16:28Z</time>
      </trkpt>
      <trkpt lat="43.42841" lon="2.61952">
        <ele>827.5</ele>
        <time>2022-06-21T13:16:29Z</time>
      </trkpt>
      <trkpt lat="43.42841" lon="2.61953">
        <ele>827.5</ele>
        <time>2022-06-21T13:16:30Z</time>
      </trkpt>
      <trkpt lat="43.42841" lon="2.61954">
        <ele>827.6</ele>
        <time>2022-06-21T13:16:32Z</time>
      </trkpt>
      <trkpt lat="43.42841" lon="2.61955">
        <ele>827.6</ele>
        <time>2022-06-21T13:16:33Z</time>
      </trkpt>
      <trkpt lat="43.42841" lon="2.61955">
        <ele>827.6</ele>
        <time>2022-06-21T13:16:34Z</time>
      </trkpt>
      <trkpt lat="43.4284" lon="2.61956">
        <ele>827.7</ele>
        <time>2022-06-21T13:16:35Z</time>
      </trkpt>
      <trkpt lat="43.42841" lon="2.61957">
        <ele>827.7</ele>
        <time>2022-06-21T13:16:37Z</time>
      </trkpt>
      <trkpt lat="43.42841" lon="2.61958">
        <ele>827.8</ele>
        <time>2022-06-21T13:16:38Z</time>
      </trkpt>
      <trkpt lat="43.42841" lon="2.61958">
        <ele>827.8</ele>
        <time>2022-06-21T13:16:39Z</time>
      </trkpt>
      <trkpt lat="43.42842" lon="2.61958">
        <ele>827.8</ele>
        <time>2022-06-21T13:16:40Z</time>
      </trkpt>
      <trkpt lat="43.42842" lon="2.61958">
        <ele>827.8</ele>
        <time>2022-06-21T13:16:41Z</time>
      </trkpt>
      <trkpt lat="43.42842" lon="2.61958">
        <ele>827.8</ele>
        <time>2022-06-21T13:16:42Z</time>
      </trkpt>
      <trkpt lat="43.42842" lon="2.61958">
        <ele>827.8</ele>
        <time>2022-06-21T13:16:43Z</time>
      </trkpt>
      <trkpt lat="43.42842" lon="2.61959">
        <ele>827.8</ele>
        <time>2022-06-21T13:16:44Z</time>
      </trkpt>
      <trkpt lat="43.42842" lon="2.61959">
        <ele>827.8</ele>
        <time>2022-06-21T13:16:45Z</time>
      </trkpt>
      <trkpt lat="43.42842" lon="2.61959">
        <ele>827.8</ele>
        <time>2022-06-21T13:16:46Z</time>
      </trkpt>
      <trkpt lat="43.42842" lon="2.61959">
        <ele>827.8</ele>
        <time>2022-06-21T13:16:47Z</time>
      </trkpt>
      <trkpt lat="43.42842" lon="2.61959">
        <ele>827.8</ele>
        <time>2022-06-21T13:16:48Z</time>
      </trkpt>
      <trkpt lat="43.42842" lon="2.61959">
        <ele>827.8</ele>
        <time>2022-06-21T13:16:49Z</time>
      </trkpt>
      <trkpt lat="43.42842" lon="2.61959">
        <ele>827.8</ele>
        <time>2022-06-21T13:16:50Z</time>
      </trkpt>
      <trkpt lat="43.42842" lon="2.61959">
        <ele>827.8</ele>
        <time>2022-06-21T13:16:51Z</time>
      </trkpt>
      <trkpt lat="43.42842" lon="2.61959">
        <ele>827.8</ele>
        <time>2022-06-21T13:16:52Z</time>
      </trkpt>
      <trkpt lat="43.42842" lon="2.61959">
        <ele>827.8</ele>
        <time>2022-06-21T13:16:53Z</time>
      </trkpt>
      <trkpt lat="43.42842" lon="2.61959">
        <ele>827.9</ele>
        <time>2022-06-21T13:16:54Z</time>
      </trkpt>
      <trkpt lat="43.42842" lon="2.61959">
        <ele>827.9</ele>
        <time>2022-06-21T13:16:55Z</time>
      </trkpt>
      <trkpt lat="43.42842" lon="2.61959">
        <ele>827.9</ele>
        <time>2022-06-21T13:16:56Z</time>
      </trkpt>
      <trkpt lat="43.42842" lon="2.61959">
        <ele>827.9</ele>
        <time>2022-06-21T13:16:57Z</time>
      </trkpt>
      <trkpt lat="43.42842" lon="2.61958">
        <ele>827.9</ele>
        <time>2022-06-21T13:16:58Z</time>
      </trkpt>
      <trkpt lat="43.42842" lon="2.61958">
        <ele>827.9</ele>
        <time>2022-06-21T13:16:59Z</time>
      </trkpt>
      <trkpt lat="43.42842" lon="2.61958">
        <ele>827.9</ele>
        <time>2022-06-21T13:17:00Z</time>
      </trkpt>
      <trkpt lat="43.42842" lon="2.61958">
        <ele>827.9</ele>
        <time>2022-06-21T13:17:01Z</time>
      </trkpt>
      <trkpt lat="43.42842" lon="2.61958">
        <ele>827.9</ele>
        <time>2022-06-21T13:17:02Z</time>
      </trkpt>
      <trkpt lat="43.42842" lon="2.61959">
        <ele>827.9</ele>
        <time>2022-06-21T13:17:03Z</time>
      </trkpt>
      <trkpt lat="43.42842" lon="2.61959">
        <ele>828</ele>
        <time>2022-06-21T13:17:05Z</time>
      </trkpt>
      <trkpt lat="43.42842" lon="2.61959">
        <ele>828</ele>
        <time>2022-06-21T13:17:06Z</time>
      </trkpt>
      <trkpt lat="43.42842" lon="2.6196">
        <ele>828</ele>
        <time>2022-06-21T13:17:08Z</time>
      </trkpt>
      <trkpt lat="43.42843" lon="2.6196">
        <ele>828</ele>
        <time>2022-06-21T13:17:09Z</time>
      </trkpt>
      <trkpt lat="43.42843" lon="2.6196">
        <ele>828</ele>
        <time>2022-06-21T13:17:10Z</time>
      </trkpt>
      <trkpt lat="43.42843" lon="2.6196">
        <ele>828</ele>
        <time>2022-06-21T13:17:11Z</time>
      </trkpt>
      <trkpt lat="43.42843" lon="2.6196">
        <ele>828</ele>
        <time>2022-06-21T13:17:12Z</time>
      </trkpt>
      <trkpt lat="43.42843" lon="2.6196">
        <ele>828</ele>
        <time>2022-06-21T13:17:13Z</time>
      </trkpt>
      <trkpt lat="43.42843" lon="2.6196">
        <ele>828</ele>
        <time>2022-06-21T13:17:14Z</time>
      </trkpt>
      <trkpt lat="43.42843" lon="2.6196">
        <ele>828</ele>
        <time>2022-06-21T13:17:15Z</time>
      </trkpt>
      <trkpt lat="43.42843" lon="2.6196">
        <ele>828</ele>
        <time>2022-06-21T13:17:16Z</time>
      </trkpt>
      <trkpt lat="43.42843" lon="2.61961">
        <ele>828.1</ele>
        <time>2022-06-21T13:17:17Z</time>
      </trkpt>
      <trkpt lat="43.42842" lon="2.61961">
        <ele>828.1</ele>
        <time>2022-06-21T13:17:19Z</time>
      </trkpt>
      <trkpt lat="43.42842" lon="2.61962">
        <ele>828.1</ele>
        <time>2022-06-21T13:17:20Z</time>
      </trkpt>
      <trkpt lat="43.42842" lon="2.61963">
        <ele>828.2</ele>
        <time>2022-06-21T13:17:21Z</time>
      </trkpt>
      <trkpt lat="43.42842" lon="2.61963">
        <ele>828.2</ele>
        <time>2022-06-21T13:17:22Z</time>
      </trkpt>
      <trkpt lat="43.42842" lon="2.61965">
        <ele>828.3</ele>
        <time>2022-06-21T13:17:24Z</time>
      </trkpt>
      <trkpt lat="43.42842" lon="2.61967">
        <ele>828.3</ele>
        <time>2022-06-21T13:17:25Z</time>
      </trkpt>
      <trkpt lat="43.42841" lon="2.61969">
        <ele>828.4</ele>
        <time>2022-06-21T13:17:26Z</time>
      </trkpt>
      <trkpt lat="43.42841" lon="2.61971">
        <ele>828.5</ele>
        <time>2022-06-21T13:17:27Z</time>
      </trkpt>
      <trkpt lat="43.4284" lon="2.61973">
        <ele>828.6</ele>
        <time>2022-06-21T13:17:28Z</time>
      </trkpt>
      <trkpt lat="43.4284" lon="2.61975">
        <ele>828.6</ele>
        <time>2022-06-21T13:17:29Z</time>
      </trkpt>
      <trkpt lat="43.42839" lon="2.61977">
        <ele>828.7</ele>
        <time>2022-06-21T13:17:30Z</time>
      </trkpt>
      <trkpt lat="43.42839" lon="2.61979">
        <ele>828.7</ele>
        <time>2022-06-21T13:17:31Z</time>
      </trkpt>
      <trkpt lat="43.42838" lon="2.61981">
        <ele>828.8</ele>
        <time>2022-06-21T13:17:33Z</time>
      </trkpt>
      <trkpt lat="43.42838" lon="2.61983">
        <ele>828.8</ele>
        <time>2022-06-21T13:17:34Z</time>
      </trkpt>
      <trkpt lat="43.42836" lon="2.61985">
        <ele>828.9</ele>
        <time>2022-06-21T13:17:35Z</time>
      </trkpt>
      <trkpt lat="43.42835" lon="2.61986">
        <ele>828.9</ele>
        <time>2022-06-21T13:17:36Z</time>
      </trkpt>
      <trkpt lat="43.42834" lon="2.61987">
        <ele>829</ele>
        <time>2022-06-21T13:17:37Z</time>
      </trkpt>
      <trkpt lat="43.42832" lon="2.61988">
        <ele>829</ele>
        <time>2022-06-21T13:17:38Z</time>
      </trkpt>
      <trkpt lat="43.42831" lon="2.61988">
        <ele>829.1</ele>
        <time>2022-06-21T13:17:39Z</time>
      </trkpt>
      <trkpt lat="43.4283" lon="2.61988">
        <ele>829.1</ele>
        <time>2022-06-21T13:17:40Z</time>
      </trkpt>
      <trkpt lat="43.42829" lon="2.61989">
        <ele>829.2</ele>
        <time>2022-06-21T13:17:42Z</time>
      </trkpt>
      <trkpt lat="43.42827" lon="2.61991">
        <ele>829.2</ele>
        <time>2022-06-21T13:17:43Z</time>
      </trkpt>
      <trkpt lat="43.42827" lon="2.61992">
        <ele>829.3</ele>
        <time>2022-06-21T13:17:44Z</time>
      </trkpt>
      <trkpt lat="43.42825" lon="2.61994">
        <ele>829.3</ele>
        <time>2022-06-21T13:17:45Z</time>
      </trkpt>
      <trkpt lat="43.42824" lon="2.61995">
        <ele>829.4</ele>
        <time>2022-06-21T13:17:47Z</time>
      </trkpt>
      <trkpt lat="43.42823" lon="2.61996">
        <ele>829.4</ele>
        <time>2022-06-21T13:17:48Z</time>
      </trkpt>
      <trkpt lat="43.42822" lon="2.61998">
        <ele>829.5</ele>
        <time>2022-06-21T13:17:49Z</time>
      </trkpt>
      <trkpt lat="43.42821" lon="2.61999">
        <ele>829.5</ele>
        <time>2022-06-21T13:17:50Z</time>
      </trkpt>
      <trkpt lat="43.4282" lon="2.62">
        <ele>829.6</ele>
        <time>2022-06-21T13:17:51Z</time>
      </trkpt>
      <trkpt lat="43.42819" lon="2.62001">
        <ele>829.7</ele>
        <time>2022-06-21T13:17:52Z</time>
      </trkpt>
      <trkpt lat="43.42817" lon="2.62003">
        <ele>829.8</ele>
        <time>2022-06-21T13:17:53Z</time>
      </trkpt>
      <trkpt lat="43.42816" lon="2.62004">
        <ele>829.8</ele>
        <time>2022-06-21T13:17:55Z</time>
      </trkpt>
      <trkpt lat="43.42815" lon="2.62005">
        <ele>829.9</ele>
        <time>2022-06-21T13:17:56Z</time>
      </trkpt>
      <trkpt lat="43.42814" lon="2.62006">
        <ele>829.9</ele>
        <time>2022-06-21T13:17:57Z</time>
      </trkpt>
      <trkpt lat="43.42813" lon="2.62007">
        <ele>830</ele>
        <time>2022-06-21T13:17:58Z</time>
      </trkpt>
      <trkpt lat="43.42812" lon="2.62008">
        <ele>830</ele>
        <time>2022-06-21T13:17:59Z</time>
      </trkpt>
      <trkpt lat="43.4281" lon="2.62009">
        <ele>830.1</ele>
        <time>2022-06-21T13:18:00Z</time>
      </trkpt>
      <trkpt lat="43.42809" lon="2.6201">
        <ele>830.1</ele>
        <time>2022-06-21T13:18:01Z</time>
      </trkpt>
      <trkpt lat="43.42808" lon="2.62011">
        <ele>830.2</ele>
        <time>2022-06-21T13:18:02Z</time>
      </trkpt>
      <trkpt lat="43.42807" lon="2.62012">
        <ele>830.2</ele>
        <time>2022-06-21T13:18:03Z</time>
      </trkpt>
      <trkpt lat="43.42807" lon="2.62014">
        <ele>830.3</ele>
        <time>2022-06-21T13:18:04Z</time>
      </trkpt>
      <trkpt lat="43.42805" lon="2.62015">
        <ele>830.3</ele>
        <time>2022-06-21T13:18:06Z</time>
      </trkpt>
      <trkpt lat="43.42804" lon="2.62017">
        <ele>830.4</ele>
        <time>2022-06-21T13:18:07Z</time>
      </trkpt>
      <trkpt lat="43.42803" lon="2.62018">
        <ele>830.4</ele>
        <time>2022-06-21T13:18:08Z</time>
      </trkpt>
      <trkpt lat="43.42802" lon="2.6202">
        <ele>830.5</ele>
        <time>2022-06-21T13:18:09Z</time>
      </trkpt>
      <trkpt lat="43.42801" lon="2.6202">
        <ele>830.5</ele>
        <time>2022-06-21T13:18:10Z</time>
      </trkpt>
      <trkpt lat="43.428" lon="2.62021">
        <ele>830.5</ele>
        <time>2022-06-21T13:18:11Z</time>
      </trkpt>
      <trkpt lat="43.42799" lon="2.62023">
        <ele>830.6</ele>
        <time>2022-06-21T13:18:12Z</time>
      </trkpt>
      <trkpt lat="43.42798" lon="2.62024">
        <ele>830.6</ele>
        <time>2022-06-21T13:18:13Z</time>
      </trkpt>
      <trkpt lat="43.42797" lon="2.62025">
        <ele>830.6</ele>
        <time>2022-06-21T13:18:14Z</time>
      </trkpt>
      <trkpt lat="43.42796" lon="2.62026">
        <ele>830.6</ele>
        <time>2022-06-21T13:18:15Z</time>
      </trkpt>
      <trkpt lat="43.42795" lon="2.62027">
        <ele>830.7</ele>
        <time>2022-06-21T13:18:17Z</time>
      </trkpt>
      <trkpt lat="43.42794" lon="2.62028">
        <ele>830.7</ele>
        <time>2022-06-21T13:18:18Z</time>
      </trkpt>
      <trkpt lat="43.42793" lon="2.62029">
        <ele>830.7</ele>
        <time>2022-06-21T13:18:19Z</time>
      </trkpt>
      <trkpt lat="43.42792" lon="2.6203">
        <ele>830.7</ele>
        <time>2022-06-21T13:18:20Z</time>
      </trkpt>
      <trkpt lat="43.42791" lon="2.62031">
        <ele>830.8</ele>
        <time>2022-06-21T13:18:21Z</time>
      </trkpt>
      <trkpt lat="43.4279" lon="2.62032">
        <ele>830.8</ele>
        <time>2022-06-21T13:18:22Z</time>
      </trkpt>
      <trkpt lat="43.42789" lon="2.62033">
        <ele>830.8</ele>
        <time>2022-06-21T13:18:23Z</time>
      </trkpt>
      <trkpt lat="43.42788" lon="2.62035">
        <ele>830.8</ele>
        <time>2022-06-21T13:18:24Z</time>
      </trkpt>
      <trkpt lat="43.42787" lon="2.62036">
        <ele>830.8</ele>
        <time>2022-06-21T13:18:25Z</time>
      </trkpt>
      <trkpt lat="43.42786" lon="2.62037">
        <ele>830.8</ele>
        <time>2022-06-21T13:18:26Z</time>
      </trkpt>
      <trkpt lat="43.42786" lon="2.62038">
        <ele>830.8</ele>
        <time>2022-06-21T13:18:28Z</time>
      </trkpt>
      <trkpt lat="43.42785" lon="2.62038">
        <ele>830.8</ele>
        <time>2022-06-21T13:18:29Z</time>
      </trkpt>
      <trkpt lat="43.42784" lon="2.62039">
        <ele>830.9</ele>
        <time>2022-06-21T13:18:30Z</time>
      </trkpt>
      <trkpt lat="43.42783" lon="2.6204">
        <ele>830.9</ele>
        <time>2022-06-21T13:18:31Z</time>
      </trkpt>
      <trkpt lat="43.42782" lon="2.62041">
        <ele>830.9</ele>
        <time>2022-06-21T13:18:32Z</time>
      </trkpt>
      <trkpt lat="43.42781" lon="2.62042">
        <ele>830.9</ele>
        <time>2022-06-21T13:18:33Z</time>
      </trkpt>
      <trkpt lat="43.4278" lon="2.62043">
        <ele>830.9</ele>
        <time>2022-06-21T13:18:34Z</time>
      </trkpt>
      <trkpt lat="43.4278" lon="2.62043">
        <ele>830.9</ele>
        <time>2022-06-21T13:18:35Z</time>
      </trkpt>
      <trkpt lat="43.42779" lon="2.62044">
        <ele>830.9</ele>
        <time>2022-06-21T13:18:36Z</time>
      </trkpt>
      <trkpt lat="43.42778" lon="2.62045">
        <ele>830.9</ele>
        <time>2022-06-21T13:18:38Z</time>
      </trkpt>
      <trkpt lat="43.42777" lon="2.62046">
        <ele>830.9</ele>
        <time>2022-06-21T13:18:39Z</time>
      </trkpt>
      <trkpt lat="43.42775" lon="2.62047">
        <ele>830.9</ele>
        <time>2022-06-21T13:18:40Z</time>
      </trkpt>
      <trkpt lat="43.42774" lon="2.62048">
        <ele>830.9</ele>
        <time>2022-06-21T13:18:41Z</time>
      </trkpt>
      <trkpt lat="43.42774" lon="2.62049">
        <ele>830.9</ele>
        <time>2022-06-21T13:18:42Z</time>
      </trkpt>
      <trkpt lat="43.42773" lon="2.6205">
        <ele>830.9</ele>
        <time>2022-06-21T13:18:43Z</time>
      </trkpt>
      <trkpt lat="43.42772" lon="2.62051">
        <ele>831</ele>
        <time>2022-06-21T13:18:44Z</time>
      </trkpt>
      <trkpt lat="43.42772" lon="2.62052">
        <ele>831</ele>
        <time>2022-06-21T13:18:45Z</time>
      </trkpt>
      <trkpt lat="43.42772" lon="2.62053">
        <ele>831</ele>
        <time>2022-06-21T13:18:46Z</time>
      </trkpt>
      <trkpt lat="43.42771" lon="2.62056">
        <ele>830.9</ele>
        <time>2022-06-21T13:18:48Z</time>
      </trkpt>
      <trkpt lat="43.4277" lon="2.62057">
        <ele>830.9</ele>
        <time>2022-06-21T13:18:49Z</time>
      </trkpt>
      <trkpt lat="43.4277" lon="2.62057">
        <ele>830.8</ele>
        <time>2022-06-21T13:18:50Z</time>
      </trkpt>
      <trkpt lat="43.42769" lon="2.6206">
        <ele>830.6</ele>
        <time>2022-06-21T13:18:51Z</time>
      </trkpt>
      <trkpt lat="43.42769" lon="2.62061">
        <ele>830.5</ele>
        <time>2022-06-21T13:18:52Z</time>
      </trkpt>
      <trkpt lat="43.42768" lon="2.62062">
        <ele>830.5</ele>
        <time>2022-06-21T13:18:53Z</time>
      </trkpt>
      <trkpt lat="43.42767" lon="2.62064">
        <ele>830.3</ele>
        <time>2022-06-21T13:18:54Z</time>
      </trkpt>
      <trkpt lat="43.42767" lon="2.62065">
        <ele>830.2</ele>
        <time>2022-06-21T13:18:55Z</time>
      </trkpt>
      <trkpt lat="43.42766" lon="2.62066">
        <ele>830.1</ele>
        <time>2022-06-21T13:18:56Z</time>
      </trkpt>
      <trkpt lat="43.42766" lon="2.62068">
        <ele>830</ele>
        <time>2022-06-21T13:18:57Z</time>
      </trkpt>
      <trkpt lat="43.42765" lon="2.62069">
        <ele>829.9</ele>
        <time>2022-06-21T13:18:58Z</time>
      </trkpt>
      <trkpt lat="43.42765" lon="2.6207">
        <ele>829.8</ele>
        <time>2022-06-21T13:18:59Z</time>
      </trkpt>
      <trkpt lat="43.42764" lon="2.62072">
        <ele>829.7</ele>
        <time>2022-06-21T13:19:00Z</time>
      </trkpt>
      <trkpt lat="43.42764" lon="2.62073">
        <ele>829.6</ele>
        <time>2022-06-21T13:19:02Z</time>
      </trkpt>
      <trkpt lat="43.42763" lon="2.62074">
        <ele>829.4</ele>
        <time>2022-06-21T13:19:03Z</time>
      </trkpt>
      <trkpt lat="43.42763" lon="2.62076">
        <ele>829.3</ele>
        <time>2022-06-21T13:19:04Z</time>
      </trkpt>
      <trkpt lat="43.42762" lon="2.62077">
        <ele>829.2</ele>
        <time>2022-06-21T13:19:05Z</time>
      </trkpt>
      <trkpt lat="43.42762" lon="2.62078">
        <ele>829</ele>
        <time>2022-06-21T13:19:06Z</time>
      </trkpt>
      <trkpt lat="43.42761" lon="2.62079">
        <ele>828.9</ele>
        <time>2022-06-21T13:19:07Z</time>
      </trkpt>
      <trkpt lat="43.4276" lon="2.6208">
        <ele>828.8</ele>
        <time>2022-06-21T13:19:08Z</time>
      </trkpt>
      <trkpt lat="43.4276" lon="2.62081">
        <ele>828.6</ele>
        <time>2022-06-21T13:19:09Z</time>
      </trkpt>
      <trkpt lat="43.42759" lon="2.62082">
        <ele>828.5</ele>
        <time>2022-06-21T13:19:10Z</time>
      </trkpt>
      <trkpt lat="43.42758" lon="2.62084">
        <ele>828.3</ele>
        <time>2022-06-21T13:19:12Z</time>
      </trkpt>
      <trkpt lat="43.42757" lon="2.62085">
        <ele>828.1</ele>
        <time>2022-06-21T13:19:13Z</time>
      </trkpt>
      <trkpt lat="43.42757" lon="2.62086">
        <ele>828</ele>
        <time>2022-06-21T13:19:14Z</time>
      </trkpt>
      <trkpt lat="43.42756" lon="2.62087">
        <ele>827.9</ele>
        <time>2022-06-21T13:19:15Z</time>
      </trkpt>
      <trkpt lat="43.42756" lon="2.62088">
        <ele>827.7</ele>
        <time>2022-06-21T13:19:16Z</time>
      </trkpt>
      <trkpt lat="43.42755" lon="2.6209">
        <ele>827.5</ele>
        <time>2022-06-21T13:19:17Z</time>
      </trkpt>
      <trkpt lat="43.42755" lon="2.62091">
        <ele>827.4</ele>
        <time>2022-06-21T13:19:18Z</time>
      </trkpt>
      <trkpt lat="43.42754" lon="2.62092">
        <ele>827.2</ele>
        <time>2022-06-21T13:19:19Z</time>
      </trkpt>
      <trkpt lat="43.42754" lon="2.62093">
        <ele>827.1</ele>
        <time>2022-06-21T13:19:20Z</time>
      </trkpt>
      <trkpt lat="43.42753" lon="2.62094">
        <ele>826.9</ele>
        <time>2022-06-21T13:19:21Z</time>
      </trkpt>
      <trkpt lat="43.42751" lon="2.62095">
        <ele>826.7</ele>
        <time>2022-06-21T13:19:23Z</time>
      </trkpt>
      <trkpt lat="43.42751" lon="2.62096">
        <ele>826.5</ele>
        <time>2022-06-21T13:19:24Z</time>
      </trkpt>
      <trkpt lat="43.4275" lon="2.62097">
        <ele>826.4</ele>
        <time>2022-06-21T13:19:25Z</time>
      </trkpt>
      <trkpt lat="43.4275" lon="2.62098">
        <ele>826.2</ele>
        <time>2022-06-21T13:19:26Z</time>
      </trkpt>
      <trkpt lat="43.4275" lon="2.621">
        <ele>826.1</ele>
        <time>2022-06-21T13:19:27Z</time>
      </trkpt>
      <trkpt lat="43.42749" lon="2.62102">
        <ele>825.9</ele>
        <time>2022-06-21T13:19:28Z</time>
      </trkpt>
      <trkpt lat="43.4275" lon="2.62103">
        <ele>825.7</ele>
        <time>2022-06-21T13:19:30Z</time>
      </trkpt>
      <trkpt lat="43.4275" lon="2.62105">
        <ele>825.6</ele>
        <time>2022-06-21T13:19:31Z</time>
      </trkpt>
      <trkpt lat="43.4275" lon="2.62105">
        <ele>825.5</ele>
        <time>2022-06-21T13:19:32Z</time>
      </trkpt>
      <trkpt lat="43.42749" lon="2.62106">
        <ele>825.4</ele>
        <time>2022-06-21T13:19:33Z</time>
      </trkpt>
      <trkpt lat="43.42749" lon="2.62108">
        <ele>825.3</ele>
        <time>2022-06-21T13:19:35Z</time>
      </trkpt>
      <trkpt lat="43.42748" lon="2.62109">
        <ele>825.2</ele>
        <time>2022-06-21T13:19:36Z</time>
      </trkpt>
      <trkpt lat="43.42747" lon="2.62109">
        <ele>825</ele>
        <time>2022-06-21T13:19:37Z</time>
      </trkpt>
      <trkpt lat="43.42746" lon="2.6211">
        <ele>824.9</ele>
        <time>2022-06-21T13:19:38Z</time>
      </trkpt>
      <trkpt lat="43.42745" lon="2.62111">
        <ele>824.8</ele>
        <time>2022-06-21T13:19:39Z</time>
      </trkpt>
      <trkpt lat="43.42744" lon="2.62113">
        <ele>824.5</ele>
        <time>2022-06-21T13:19:41Z</time>
      </trkpt>
      <trkpt lat="43.42744" lon="2.62114">
        <ele>824.4</ele>
        <time>2022-06-21T13:19:42Z</time>
      </trkpt>
      <trkpt lat="43.42744" lon="2.62116">
        <ele>824.3</ele>
        <time>2022-06-21T13:19:43Z</time>
      </trkpt>
      <trkpt lat="43.42743" lon="2.62117">
        <ele>824.1</ele>
        <time>2022-06-21T13:19:44Z</time>
      </trkpt>
      <trkpt lat="43.42743" lon="2.6212">
        <ele>823.9</ele>
        <time>2022-06-21T13:19:45Z</time>
      </trkpt>
      <trkpt lat="43.42743" lon="2.62121">
        <ele>823.7</ele>
        <time>2022-06-21T13:19:46Z</time>
      </trkpt>
      <trkpt lat="43.42743" lon="2.62122">
        <ele>823.6</ele>
        <time>2022-06-21T13:19:47Z</time>
      </trkpt>
      <trkpt lat="43.42743" lon="2.62124">
        <ele>823.5</ele>
        <time>2022-06-21T13:19:48Z</time>
      </trkpt>
      <trkpt lat="43.42743" lon="2.62125">
        <ele>823.3</ele>
        <time>2022-06-21T13:19:49Z</time>
      </trkpt>
      <trkpt lat="43.42743" lon="2.62127">
        <ele>823.1</ele>
        <time>2022-06-21T13:19:50Z</time>
      </trkpt>
      <trkpt lat="43.42743" lon="2.62129">
        <ele>823</ele>
        <time>2022-06-21T13:19:51Z</time>
      </trkpt>
      <trkpt lat="43.42742" lon="2.62131">
        <ele>822.7</ele>
        <time>2022-06-21T13:19:53Z</time>
      </trkpt>
      <trkpt lat="43.42742" lon="2.62132">
        <ele>822.6</ele>
        <time>2022-06-21T13:19:54Z</time>
      </trkpt>
      <trkpt lat="43.42741" lon="2.62133">
        <ele>822.4</ele>
        <time>2022-06-21T13:19:55Z</time>
      </trkpt>
      <trkpt lat="43.4274" lon="2.62134">
        <ele>822.2</ele>
        <time>2022-06-21T13:19:56Z</time>
      </trkpt>
      <trkpt lat="43.42739" lon="2.62136">
        <ele>821.9</ele>
        <time>2022-06-21T13:19:57Z</time>
      </trkpt>
      <trkpt lat="43.42738" lon="2.62137">
        <ele>821.8</ele>
        <time>2022-06-21T13:19:58Z</time>
      </trkpt>
      <trkpt lat="43.42738" lon="2.62138">
        <ele>821.7</ele>
        <time>2022-06-21T13:19:59Z</time>
      </trkpt>
      <trkpt lat="43.42738" lon="2.62139">
        <ele>821.6</ele>
        <time>2022-06-21T13:20:00Z</time>
      </trkpt>
      <trkpt lat="43.42737" lon="2.6214">
        <ele>821.5</ele>
        <time>2022-06-21T13:20:02Z</time>
      </trkpt>
      <trkpt lat="43.42737" lon="2.62141">
        <ele>821.3</ele>
        <time>2022-06-21T13:20:03Z</time>
      </trkpt>
      <trkpt lat="43.42737" lon="2.62143">
        <ele>821.2</ele>
        <time>2022-06-21T13:20:04Z</time>
      </trkpt>
      <trkpt lat="43.42737" lon="2.62143">
        <ele>821.1</ele>
        <time>2022-06-21T13:20:05Z</time>
      </trkpt>
      <trkpt lat="43.42736" lon="2.62145">
        <ele>821</ele>
        <time>2022-06-21T13:20:06Z</time>
      </trkpt>
      <trkpt lat="43.42736" lon="2.62146">
        <ele>820.8</ele>
        <time>2022-06-21T13:20:07Z</time>
      </trkpt>
      <trkpt lat="43.42736" lon="2.62147">
        <ele>820.7</ele>
        <time>2022-06-21T13:20:08Z</time>
      </trkpt>
      <trkpt lat="43.42736" lon="2.6215">
        <ele>820.4</ele>
        <time>2022-06-21T13:20:09Z</time>
      </trkpt>
      <trkpt lat="43.42736" lon="2.62151">
        <ele>820.3</ele>
        <time>2022-06-21T13:20:10Z</time>
      </trkpt>
      <trkpt lat="43.42736" lon="2.62152">
        <ele>820.2</ele>
        <time>2022-06-21T13:20:11Z</time>
      </trkpt>
      <trkpt lat="43.42736" lon="2.62153">
        <ele>820</ele>
        <time>2022-06-21T13:20:13Z</time>
      </trkpt>
      <trkpt lat="43.42736" lon="2.62155">
        <ele>819.9</ele>
        <time>2022-06-21T13:20:14Z</time>
      </trkpt>
      <trkpt lat="43.42735" lon="2.62156">
        <ele>819.8</ele>
        <time>2022-06-21T13:20:15Z</time>
      </trkpt>
      <trkpt lat="43.42735" lon="2.62157">
        <ele>819.6</ele>
        <time>2022-06-21T13:20:16Z</time>
      </trkpt>
      <trkpt lat="43.42736" lon="2.62158">
        <ele>819.5</ele>
        <time>2022-06-21T13:20:17Z</time>
      </trkpt>
      <trkpt lat="43.42736" lon="2.62159">
        <ele>819.4</ele>
        <time>2022-06-21T13:20:18Z</time>
      </trkpt>
      <trkpt lat="43.42736" lon="2.6216">
        <ele>819.3</ele>
        <time>2022-06-21T13:20:19Z</time>
      </trkpt>
      <trkpt lat="43.42737" lon="2.62162">
        <ele>819.1</ele>
        <time>2022-06-21T13:20:21Z</time>
      </trkpt>
      <trkpt lat="43.42737" lon="2.62164">
        <ele>818.9</ele>
        <time>2022-06-21T13:20:22Z</time>
      </trkpt>
      <trkpt lat="43.42738" lon="2.62165">
        <ele>818.8</ele>
        <time>2022-06-21T13:20:23Z</time>
      </trkpt>
      <trkpt lat="43.42738" lon="2.62165">
        <ele>818.8</ele>
        <time>2022-06-21T13:20:24Z</time>
      </trkpt>
      <trkpt lat="43.42738" lon="2.62166">
        <ele>818.7</ele>
        <time>2022-06-21T13:20:25Z</time>
      </trkpt>
      <trkpt lat="43.42738" lon="2.62166">
        <ele>818.7</ele>
        <time>2022-06-21T13:20:26Z</time>
      </trkpt>
      <trkpt lat="43.42738" lon="2.62166">
        <ele>818.7</ele>
        <time>2022-06-21T13:20:28Z</time>
      </trkpt>
      <trkpt lat="43.42738" lon="2.62166">
        <ele>818.7</ele>
        <time>2022-06-21T13:20:29Z</time>
      </trkpt>
      <trkpt lat="43.42738" lon="2.62166">
        <ele>818.7</ele>
        <time>2022-06-21T13:20:30Z</time>
      </trkpt>
      <trkpt lat="43.42738" lon="2.62166">
        <ele>818.7</ele>
        <time>2022-06-21T13:20:31Z</time>
      </trkpt>
      <trkpt lat="43.42738" lon="2.62166">
        <ele>818.7</ele>
        <time>2022-06-21T13:20:32Z</time>
      </trkpt>
      <trkpt lat="43.42738" lon="2.62166">
        <ele>818.6</ele>
        <time>2022-06-21T13:20:33Z</time>
      </trkpt>
      <trkpt lat="43.42738" lon="2.62166">
        <ele>818.6</ele>
        <time>2022-06-21T13:20:35Z</time>
      </trkpt>
      <trkpt lat="43.42738" lon="2.62166">
        <ele>818.6</ele>
        <time>2022-06-21T13:20:36Z</time>
      </trkpt>
      <trkpt lat="43.42738" lon="2.62166">
        <ele>818.6</ele>
        <time>2022-06-21T13:20:37Z</time>
      </trkpt>
      <trkpt lat="43.42737" lon="2.62167">
        <ele>818.5</ele>
        <time>2022-06-21T13:20:38Z</time>
      </trkpt>
      <trkpt lat="43.42737" lon="2.62168">
        <ele>818.4</ele>
        <time>2022-06-21T13:20:39Z</time>
      </trkpt>
      <trkpt lat="43.42737" lon="2.62169">
        <ele>818.3</ele>
        <time>2022-06-21T13:20:40Z</time>
      </trkpt>
      <trkpt lat="43.42737" lon="2.62169">
        <ele>818.3</ele>
        <time>2022-06-21T13:20:41Z</time>
      </trkpt>
      <trkpt lat="43.42736" lon="2.6217">
        <ele>818.2</ele>
        <time>2022-06-21T13:20:43Z</time>
      </trkpt>
      <trkpt lat="43.42736" lon="2.62171">
        <ele>818.1</ele>
        <time>2022-06-21T13:20:44Z</time>
      </trkpt>
      <trkpt lat="43.42736" lon="2.62171">
        <ele>818</ele>
        <time>2022-06-21T13:20:45Z</time>
      </trkpt>
      <trkpt lat="43.42736" lon="2.62171">
        <ele>818</ele>
        <time>2022-06-21T13:20:46Z</time>
      </trkpt>
      <trkpt lat="43.42736" lon="2.62172">
        <ele>818</ele>
        <time>2022-06-21T13:20:47Z</time>
      </trkpt>
      <trkpt lat="43.42736" lon="2.62172">
        <ele>817.9</ele>
        <time>2022-06-21T13:20:48Z</time>
      </trkpt>
      <trkpt lat="43.42735" lon="2.62173">
        <ele>817.8</ele>
        <time>2022-06-21T13:20:49Z</time>
      </trkpt>
      <trkpt lat="43.42732" lon="2.62176">
        <ele>817.4</ele>
        <time>2022-06-21T13:20:50Z</time>
      </trkpt>
      <trkpt lat="43.42731" lon="2.62177">
        <ele>817.2</ele>
        <time>2022-06-21T13:20:51Z</time>
      </trkpt>
      <trkpt lat="43.42728" lon="2.62179">
        <ele>816.7</ele>
        <time>2022-06-21T13:20:53Z</time>
      </trkpt>
      <trkpt lat="43.42727" lon="2.6218">
        <ele>816.5</ele>
        <time>2022-06-21T13:20:54Z</time>
      </trkpt>
      <trkpt lat="43.42726" lon="2.62181">
        <ele>816.3</ele>
        <time>2022-06-21T13:20:55Z</time>
      </trkpt>
      <trkpt lat="43.42725" lon="2.62182">
        <ele>816.2</ele>
        <time>2022-06-21T13:20:56Z</time>
      </trkpt>
      <trkpt lat="43.42724" lon="2.62183">
        <ele>816.1</ele>
        <time>2022-06-21T13:20:57Z</time>
      </trkpt>
      <trkpt lat="43.42723" lon="2.62184">
        <ele>815.9</ele>
        <time>2022-06-21T13:20:58Z</time>
      </trkpt>
      <trkpt lat="43.42723" lon="2.62184">
        <ele>815.8</ele>
        <time>2022-06-21T13:21:00Z</time>
      </trkpt>
      <trkpt lat="43.42722" lon="2.62185">
        <ele>815.6</ele>
        <time>2022-06-21T13:21:01Z</time>
      </trkpt>
      <trkpt lat="43.42722" lon="2.62186">
        <ele>815.5</ele>
        <time>2022-06-21T13:21:02Z</time>
      </trkpt>
      <trkpt lat="43.42721" lon="2.62186">
        <ele>815.4</ele>
        <time>2022-06-21T13:21:03Z</time>
      </trkpt>
      <trkpt lat="43.42718" lon="2.6219">
        <ele>814.7</ele>
        <time>2022-06-21T13:21:05Z</time>
      </trkpt>
      <trkpt lat="43.42716" lon="2.62192">
        <ele>814.4</ele>
        <time>2022-06-21T13:21:06Z</time>
      </trkpt>
      <trkpt lat="43.42715" lon="2.62193">
        <ele>814.2</ele>
        <time>2022-06-21T13:21:07Z</time>
      </trkpt>
      <trkpt lat="43.42712" lon="2.62195">
        <ele>813.5</ele>
        <time>2022-06-21T13:21:08Z</time>
      </trkpt>
      <trkpt lat="43.42711" lon="2.62195">
        <ele>813.3</ele>
        <time>2022-06-21T13:21:09Z</time>
      </trkpt>
      <trkpt lat="43.42709" lon="2.62196">
        <ele>813</ele>
        <time>2022-06-21T13:21:10Z</time>
      </trkpt>
      <trkpt lat="43.42708" lon="2.62198">
        <ele>812.7</ele>
        <time>2022-06-21T13:21:11Z</time>
      </trkpt>
      <trkpt lat="43.42705" lon="2.62199">
        <ele>812.2</ele>
        <time>2022-06-21T13:21:13Z</time>
      </trkpt>
      <trkpt lat="43.42704" lon="2.622">
        <ele>812</ele>
        <time>2022-06-21T13:21:14Z</time>
      </trkpt>
      <trkpt lat="43.42702" lon="2.62201">
        <ele>811.4</ele>
        <time>2022-06-21T13:21:15Z</time>
      </trkpt>
      <trkpt lat="43.42701" lon="2.62202">
        <ele>811.3</ele>
        <time>2022-06-21T13:21:16Z</time>
      </trkpt>
      <trkpt lat="43.42699" lon="2.62202">
        <ele>811</ele>
        <time>2022-06-21T13:21:17Z</time>
      </trkpt>
      <trkpt lat="43.42698" lon="2.62203">
        <ele>810.6</ele>
        <time>2022-06-21T13:21:18Z</time>
      </trkpt>
      <trkpt lat="43.42696" lon="2.62204">
        <ele>810.3</ele>
        <time>2022-06-21T13:21:19Z</time>
      </trkpt>
      <trkpt lat="43.42694" lon="2.62204">
        <ele>810</ele>
        <time>2022-06-21T13:21:20Z</time>
      </trkpt>
      <trkpt lat="43.42692" lon="2.62205">
        <ele>809.7</ele>
        <time>2022-06-21T13:21:21Z</time>
      </trkpt>
      <trkpt lat="43.42691" lon="2.62206">
        <ele>809.5</ele>
        <time>2022-06-21T13:21:22Z</time>
      </trkpt>
      <trkpt lat="43.4269" lon="2.62207">
        <ele>809.2</ele>
        <time>2022-06-21T13:21:23Z</time>
      </trkpt>
      <trkpt lat="43.42689" lon="2.62209">
        <ele>809</ele>
        <time>2022-06-21T13:21:24Z</time>
      </trkpt>
      <trkpt lat="43.42687" lon="2.6221">
        <ele>808.8</ele>
        <time>2022-06-21T13:21:26Z</time>
      </trkpt>
      <trkpt lat="43.42686" lon="2.62211">
        <ele>808.6</ele>
        <time>2022-06-21T13:21:27Z</time>
      </trkpt>
      <trkpt lat="43.42685" lon="2.62212">
        <ele>808.4</ele>
        <time>2022-06-21T13:21:28Z</time>
      </trkpt>
      <trkpt lat="43.42684" lon="2.62212">
        <ele>808.2</ele>
        <time>2022-06-21T13:21:29Z</time>
      </trkpt>
      <trkpt lat="43.42684" lon="2.62213">
        <ele>808</ele>
        <time>2022-06-21T13:21:30Z</time>
      </trkpt>
      <trkpt lat="43.42683" lon="2.62214">
        <ele>808</ele>
        <time>2022-06-21T13:21:31Z</time>
      </trkpt>
      <trkpt lat="43.42683" lon="2.62214">
        <ele>807.9</ele>
        <time>2022-06-21T13:21:32Z</time>
      </trkpt>
      <trkpt lat="43.42683" lon="2.62214">
        <ele>807.9</ele>
        <time>2022-06-21T13:21:33Z</time>
      </trkpt>
      <trkpt lat="43.42682" lon="2.62215">
        <ele>807.8</ele>
        <time>2022-06-21T13:21:34Z</time>
      </trkpt>
      <trkpt lat="43.42682" lon="2.62216">
        <ele>807.7</ele>
        <time>2022-06-21T13:21:35Z</time>
      </trkpt>
      <trkpt lat="43.42681" lon="2.62216">
        <ele>807.5</ele>
        <time>2022-06-21T13:21:36Z</time>
      </trkpt>
      <trkpt lat="43.4268" lon="2.62217">
        <ele>807.4</ele>
        <time>2022-06-21T13:21:37Z</time>
      </trkpt>
      <trkpt lat="43.42679" lon="2.62219">
        <ele>807.1</ele>
        <time>2022-06-21T13:21:38Z</time>
      </trkpt>
      <trkpt lat="43.42678" lon="2.62219">
        <ele>806.9</ele>
        <time>2022-06-21T13:21:39Z</time>
      </trkpt>
      <trkpt lat="43.42677" lon="2.6222">
        <ele>806.7</ele>
        <time>2022-06-21T13:21:41Z</time>
      </trkpt>
      <trkpt lat="43.42676" lon="2.62221">
        <ele>806.6</ele>
        <time>2022-06-21T13:21:42Z</time>
      </trkpt>
      <trkpt lat="43.42675" lon="2.62221">
        <ele>806.4</ele>
        <time>2022-06-21T13:21:43Z</time>
      </trkpt>
      <trkpt lat="43.42673" lon="2.62222">
        <ele>806.1</ele>
        <time>2022-06-21T13:21:44Z</time>
      </trkpt>
      <trkpt lat="43.42673" lon="2.62223">
        <ele>805.9</ele>
        <time>2022-06-21T13:21:45Z</time>
      </trkpt>
      <trkpt lat="43.42672" lon="2.62224">
        <ele>805.8</ele>
        <time>2022-06-21T13:21:46Z</time>
      </trkpt>
      <trkpt lat="43.42671" lon="2.62224">
        <ele>805.6</ele>
        <time>2022-06-21T13:21:47Z</time>
      </trkpt>
      <trkpt lat="43.4267" lon="2.62225">
        <ele>805.5</ele>
        <time>2022-06-21T13:21:48Z</time>
      </trkpt>
      <trkpt lat="43.4267" lon="2.62225">
        <ele>805.4</ele>
        <time>2022-06-21T13:21:49Z</time>
      </trkpt>
      <trkpt lat="43.42669" lon="2.62226">
        <ele>805.3</ele>
        <time>2022-06-21T13:21:50Z</time>
      </trkpt>
      <trkpt lat="43.42669" lon="2.62227">
        <ele>805.1</ele>
        <time>2022-06-21T13:21:51Z</time>
      </trkpt>
      <trkpt lat="43.42668" lon="2.62228">
        <ele>805</ele>
        <time>2022-06-21T13:21:53Z</time>
      </trkpt>
      <trkpt lat="43.42667" lon="2.62229">
        <ele>804.8</ele>
        <time>2022-06-21T13:21:54Z</time>
      </trkpt>
      <trkpt lat="43.42667" lon="2.62229">
        <ele>804.7</ele>
        <time>2022-06-21T13:21:55Z</time>
      </trkpt>
      <trkpt lat="43.42666" lon="2.6223">
        <ele>804.6</ele>
        <time>2022-06-21T13:21:56Z</time>
      </trkpt>
      <trkpt lat="43.42666" lon="2.6223">
        <ele>804.5</ele>
        <time>2022-06-21T13:21:57Z</time>
      </trkpt>
      <trkpt lat="43.42665" lon="2.62231">
        <ele>804.3</ele>
        <time>2022-06-21T13:21:58Z</time>
      </trkpt>
      <trkpt lat="43.42664" lon="2.62232">
        <ele>804.1</ele>
        <time>2022-06-21T13:22:00Z</time>
      </trkpt>
      <trkpt lat="43.42663" lon="2.62233">
        <ele>803.9</ele>
        <time>2022-06-21T13:22:01Z</time>
      </trkpt>
      <trkpt lat="43.42662" lon="2.62234">
        <ele>803.6</ele>
        <time>2022-06-21T13:22:02Z</time>
      </trkpt>
      <trkpt lat="43.42661" lon="2.62235">
        <ele>803.5</ele>
        <time>2022-06-21T13:22:04Z</time>
      </trkpt>
      <trkpt lat="43.4266" lon="2.62236">
        <ele>803.3</ele>
        <time>2022-06-21T13:22:05Z</time>
      </trkpt>
      <trkpt lat="43.42659" lon="2.62237">
        <ele>803</ele>
        <time>2022-06-21T13:22:06Z</time>
      </trkpt>
      <trkpt lat="43.42658" lon="2.62237">
        <ele>802.9</ele>
        <time>2022-06-21T13:22:07Z</time>
      </trkpt>
      <trkpt lat="43.42656" lon="2.62239">
        <ele>802.5</ele>
        <time>2022-06-21T13:22:08Z</time>
      </trkpt>
      <trkpt lat="43.42656" lon="2.62239">
        <ele>802.3</ele>
        <time>2022-06-21T13:22:09Z</time>
      </trkpt>
      <trkpt lat="43.42655" lon="2.6224">
        <ele>802.2</ele>
        <time>2022-06-21T13:22:10Z</time>
      </trkpt>
      <trkpt lat="43.42654" lon="2.62241">
        <ele>802</ele>
        <time>2022-06-21T13:22:11Z</time>
      </trkpt>
      <trkpt lat="43.42653" lon="2.62242">
        <ele>801.8</ele>
        <time>2022-06-21T13:22:12Z</time>
      </trkpt>
      <trkpt lat="43.42652" lon="2.62244">
        <ele>801.5</ele>
        <time>2022-06-21T13:22:14Z</time>
      </trkpt>
      <trkpt lat="43.42652" lon="2.62245">
        <ele>801.4</ele>
        <time>2022-06-21T13:22:15Z</time>
      </trkpt>
      <trkpt lat="43.42651" lon="2.62246">
        <ele>801.2</ele>
        <time>2022-06-21T13:22:16Z</time>
      </trkpt>
      <trkpt lat="43.42651" lon="2.62247">
        <ele>801</ele>
        <time>2022-06-21T13:22:17Z</time>
      </trkpt>
      <trkpt lat="43.4265" lon="2.62249">
        <ele>800.8</ele>
        <time>2022-06-21T13:22:18Z</time>
      </trkpt>
      <trkpt lat="43.42649" lon="2.6225">
        <ele>800.6</ele>
        <time>2022-06-21T13:22:19Z</time>
      </trkpt>
      <trkpt lat="43.42648" lon="2.62251">
        <ele>800.4</ele>
        <time>2022-06-21T13:22:20Z</time>
      </trkpt>
      <trkpt lat="43.42648" lon="2.62252">
        <ele>800.3</ele>
        <time>2022-06-21T13:22:21Z</time>
      </trkpt>
      <trkpt lat="43.42647" lon="2.62253">
        <ele>800.1</ele>
        <time>2022-06-21T13:22:22Z</time>
      </trkpt>
      <trkpt lat="43.42646" lon="2.62254">
        <ele>799.9</ele>
        <time>2022-06-21T13:22:23Z</time>
      </trkpt>
      <trkpt lat="43.42645" lon="2.62255">
        <ele>799.8</ele>
        <time>2022-06-21T13:22:25Z</time>
      </trkpt>
      <trkpt lat="43.42644" lon="2.62256">
        <ele>799.5</ele>
        <time>2022-06-21T13:22:26Z</time>
      </trkpt>
      <trkpt lat="43.42644" lon="2.62257">
        <ele>799.4</ele>
        <time>2022-06-21T13:22:27Z</time>
      </trkpt>
      <trkpt lat="43.42643" lon="2.62258">
        <ele>799.2</ele>
        <time>2022-06-21T13:22:28Z</time>
      </trkpt>
      <trkpt lat="43.42642" lon="2.62259">
        <ele>798.8</ele>
        <time>2022-06-21T13:22:29Z</time>
      </trkpt>
      <trkpt lat="43.42641" lon="2.6226">
        <ele>798.6</ele>
        <time>2022-06-21T13:22:31Z</time>
      </trkpt>
      <trkpt lat="43.42641" lon="2.62261">
        <ele>798.5</ele>
        <time>2022-06-21T13:22:32Z</time>
      </trkpt>
      <trkpt lat="43.4264" lon="2.62263">
        <ele>798.4</ele>
        <time>2022-06-21T13:22:33Z</time>
      </trkpt>
      <trkpt lat="43.4264" lon="2.62264">
        <ele>798.3</ele>
        <time>2022-06-21T13:22:34Z</time>
      </trkpt>
      <trkpt lat="43.42639" lon="2.62265">
        <ele>798.1</ele>
        <time>2022-06-21T13:22:36Z</time>
      </trkpt>
      <trkpt lat="43.42639" lon="2.62267">
        <ele>798</ele>
        <time>2022-06-21T13:22:37Z</time>
      </trkpt>
      <trkpt lat="43.42639" lon="2.62268">
        <ele>797.9</ele>
        <time>2022-06-21T13:22:38Z</time>
      </trkpt>
      <trkpt lat="43.42638" lon="2.62269">
        <ele>797.8</ele>
        <time>2022-06-21T13:22:39Z</time>
      </trkpt>
      <trkpt lat="43.42638" lon="2.6227">
        <ele>797.7</ele>
        <time>2022-06-21T13:22:40Z</time>
      </trkpt>
      <trkpt lat="43.42637" lon="2.62272">
        <ele>797.5</ele>
        <time>2022-06-21T13:22:41Z</time>
      </trkpt>
      <trkpt lat="43.42636" lon="2.62275">
        <ele>797.2</ele>
        <time>2022-06-21T13:22:42Z</time>
      </trkpt>
      <trkpt lat="43.42635" lon="2.62276">
        <ele>797.1</ele>
        <time>2022-06-21T13:22:43Z</time>
      </trkpt>
      <trkpt lat="43.42635" lon="2.62277">
        <ele>797</ele>
        <time>2022-06-21T13:22:45Z</time>
      </trkpt>
      <trkpt lat="43.42634" lon="2.62278">
        <ele>796.8</ele>
        <time>2022-06-21T13:22:46Z</time>
      </trkpt>
      <trkpt lat="43.42633" lon="2.62279">
        <ele>796.7</ele>
        <time>2022-06-21T13:22:47Z</time>
      </trkpt>
      <trkpt lat="43.42633" lon="2.6228">
        <ele>796.6</ele>
        <time>2022-06-21T13:22:48Z</time>
      </trkpt>
      <trkpt lat="43.42632" lon="2.62281">
        <ele>796.4</ele>
        <time>2022-06-21T13:22:49Z</time>
      </trkpt>
      <trkpt lat="43.42631" lon="2.62282">
        <ele>796.2</ele>
        <time>2022-06-21T13:22:51Z</time>
      </trkpt>
      <trkpt lat="43.4263" lon="2.62283">
        <ele>796.1</ele>
        <time>2022-06-21T13:22:52Z</time>
      </trkpt>
      <trkpt lat="43.42629" lon="2.62284">
        <ele>795.9</ele>
        <time>2022-06-21T13:22:53Z</time>
      </trkpt>
      <trkpt lat="43.42628" lon="2.62284">
        <ele>795.8</ele>
        <time>2022-06-21T13:22:54Z</time>
      </trkpt>
      <trkpt lat="43.42627" lon="2.62285">
        <ele>795.6</ele>
        <time>2022-06-21T13:22:55Z</time>
      </trkpt>
      <trkpt lat="43.42626" lon="2.62287">
        <ele>795.4</ele>
        <time>2022-06-21T13:22:56Z</time>
      </trkpt>
      <trkpt lat="43.42625" lon="2.62288">
        <ele>795.3</ele>
        <time>2022-06-21T13:22:57Z</time>
      </trkpt>
      <trkpt lat="43.42624" lon="2.62288">
        <ele>795.1</ele>
        <time>2022-06-21T13:22:58Z</time>
      </trkpt>
      <trkpt lat="43.42623" lon="2.62289">
        <ele>794.9</ele>
        <time>2022-06-21T13:22:59Z</time>
      </trkpt>
      <trkpt lat="43.42622" lon="2.6229">
        <ele>794.7</ele>
        <time>2022-06-21T13:23:00Z</time>
      </trkpt>
      <trkpt lat="43.42621" lon="2.62291">
        <ele>794.6</ele>
        <time>2022-06-21T13:23:01Z</time>
      </trkpt>
      <trkpt lat="43.4262" lon="2.62291">
        <ele>794.5</ele>
        <time>2022-06-21T13:23:02Z</time>
      </trkpt>
      <trkpt lat="43.42619" lon="2.62291">
        <ele>794.4</ele>
        <time>2022-06-21T13:23:03Z</time>
      </trkpt>
      <trkpt lat="43.42618" lon="2.62292">
        <ele>794.2</ele>
        <time>2022-06-21T13:23:04Z</time>
      </trkpt>
      <trkpt lat="43.42618" lon="2.62292">
        <ele>794.1</ele>
        <time>2022-06-21T13:23:05Z</time>
      </trkpt>
      <trkpt lat="43.42617" lon="2.62292">
        <ele>794</ele>
        <time>2022-06-21T13:23:06Z</time>
      </trkpt>
      <trkpt lat="43.42616" lon="2.62293">
        <ele>793.9</ele>
        <time>2022-06-21T13:23:07Z</time>
      </trkpt>
      <trkpt lat="43.42615" lon="2.62294">
        <ele>793.7</ele>
        <time>2022-06-21T13:23:09Z</time>
      </trkpt>
      <trkpt lat="43.42615" lon="2.62294">
        <ele>793.6</ele>
        <time>2022-06-21T13:23:10Z</time>
      </trkpt>
      <trkpt lat="43.42614" lon="2.62295">
        <ele>793.5</ele>
        <time>2022-06-21T13:23:11Z</time>
      </trkpt>
      <trkpt lat="43.42614" lon="2.62295">
        <ele>793.4</ele>
        <time>2022-06-21T13:23:12Z</time>
      </trkpt>
      <trkpt lat="43.42614" lon="2.62296">
        <ele>793.4</ele>
        <time>2022-06-21T13:23:13Z</time>
      </trkpt>
      <trkpt lat="43.42614" lon="2.62296">
        <ele>793.4</ele>
        <time>2022-06-21T13:23:14Z</time>
      </trkpt>
      <trkpt lat="43.42614" lon="2.62296">
        <ele>793.3</ele>
        <time>2022-06-21T13:23:15Z</time>
      </trkpt>
      <trkpt lat="43.42614" lon="2.62297">
        <ele>793.2</ele>
        <time>2022-06-21T13:23:16Z</time>
      </trkpt>
      <trkpt lat="43.42614" lon="2.62297">
        <ele>793.2</ele>
        <time>2022-06-21T13:23:17Z</time>
      </trkpt>
      <trkpt lat="43.42613" lon="2.623">
        <ele>792.9</ele>
        <time>2022-06-21T13:23:18Z</time>
      </trkpt>
      <trkpt lat="43.42613" lon="2.62301">
        <ele>792.8</ele>
        <time>2022-06-21T13:23:19Z</time>
      </trkpt>
      <trkpt lat="43.42612" lon="2.62302">
        <ele>792.6</ele>
        <time>2022-06-21T13:23:20Z</time>
      </trkpt>
      <trkpt lat="43.42612" lon="2.62303">
        <ele>792.5</ele>
        <time>2022-06-21T13:23:21Z</time>
      </trkpt>
      <trkpt lat="43.42611" lon="2.62304">
        <ele>792.3</ele>
        <time>2022-06-21T13:23:22Z</time>
      </trkpt>
      <trkpt lat="43.4261" lon="2.62305">
        <ele>792.1</ele>
        <time>2022-06-21T13:23:23Z</time>
      </trkpt>
      <trkpt lat="43.42609" lon="2.62306">
        <ele>791.8</ele>
        <time>2022-06-21T13:23:24Z</time>
      </trkpt>
      <trkpt lat="43.42608" lon="2.62307">
        <ele>791.6</ele>
        <time>2022-06-21T13:23:26Z</time>
      </trkpt>
      <trkpt lat="43.42606" lon="2.62308">
        <ele>791.4</ele>
        <time>2022-06-21T13:23:27Z</time>
      </trkpt>
      <trkpt lat="43.42606" lon="2.62309">
        <ele>791.3</ele>
        <time>2022-06-21T13:23:28Z</time>
      </trkpt>
      <trkpt lat="43.42605" lon="2.62309">
        <ele>791.1</ele>
        <time>2022-06-21T13:23:29Z</time>
      </trkpt>
      <trkpt lat="43.42603" lon="2.62311">
        <ele>790.9</ele>
        <time>2022-06-21T13:23:30Z</time>
      </trkpt>
      <trkpt lat="43.42603" lon="2.62311">
        <ele>790.8</ele>
        <time>2022-06-21T13:23:31Z</time>
      </trkpt>
      <trkpt lat="43.42602" lon="2.62312">
        <ele>790.7</ele>
        <time>2022-06-21T13:23:32Z</time>
      </trkpt>
      <trkpt lat="43.42602" lon="2.62312">
        <ele>790.6</ele>
        <time>2022-06-21T13:23:33Z</time>
      </trkpt>
      <trkpt lat="43.42601" lon="2.62313">
        <ele>790.4</ele>
        <time>2022-06-21T13:23:35Z</time>
      </trkpt>
      <trkpt lat="43.426" lon="2.62315">
        <ele>790.3</ele>
        <time>2022-06-21T13:23:36Z</time>
      </trkpt>
      <trkpt lat="43.426" lon="2.62316">
        <ele>790.1</ele>
        <time>2022-06-21T13:23:37Z</time>
      </trkpt>
      <trkpt lat="43.42599" lon="2.62317">
        <ele>790</ele>
        <time>2022-06-21T13:23:38Z</time>
      </trkpt>
      <trkpt lat="43.42599" lon="2.62318">
        <ele>789.8</ele>
        <time>2022-06-21T13:23:39Z</time>
      </trkpt>
      <trkpt lat="43.42598" lon="2.6232">
        <ele>789.7</ele>
        <time>2022-06-21T13:23:40Z</time>
      </trkpt>
      <trkpt lat="43.42598" lon="2.6232">
        <ele>789.6</ele>
        <time>2022-06-21T13:23:41Z</time>
      </trkpt>
      <trkpt lat="43.42597" lon="2.62321">
        <ele>789.4</ele>
        <time>2022-06-21T13:23:42Z</time>
      </trkpt>
      <trkpt lat="43.42597" lon="2.62322">
        <ele>789.3</ele>
        <time>2022-06-21T13:23:43Z</time>
      </trkpt>
      <trkpt lat="43.42596" lon="2.62322">
        <ele>789.2</ele>
        <time>2022-06-21T13:23:44Z</time>
      </trkpt>
      <trkpt lat="43.42595" lon="2.62322">
        <ele>789.1</ele>
        <time>2022-06-21T13:23:46Z</time>
      </trkpt>
      <trkpt lat="43.42595" lon="2.62322">
        <ele>789.1</ele>
        <time>2022-06-21T13:23:47Z</time>
      </trkpt>
      <trkpt lat="43.42595" lon="2.62322">
        <ele>789</ele>
        <time>2022-06-21T13:23:48Z</time>
      </trkpt>
      <trkpt lat="43.42595" lon="2.62322">
        <ele>789</ele>
        <time>2022-06-21T13:23:49Z</time>
      </trkpt>
      <trkpt lat="43.42594" lon="2.62323">
        <ele>788.9</ele>
        <time>2022-06-21T13:23:50Z</time>
      </trkpt>
      <trkpt lat="43.42594" lon="2.62323">
        <ele>788.8</ele>
        <time>2022-06-21T13:23:51Z</time>
      </trkpt>
      <trkpt lat="43.42593" lon="2.62324">
        <ele>788.7</ele>
        <time>2022-06-21T13:23:52Z</time>
      </trkpt>
      <trkpt lat="43.42592" lon="2.62325">
        <ele>788.5</ele>
        <time>2022-06-21T13:23:53Z</time>
      </trkpt>
      <trkpt lat="43.42591" lon="2.62326">
        <ele>788.4</ele>
        <time>2022-06-21T13:23:54Z</time>
      </trkpt>
      <trkpt lat="43.42591" lon="2.62327">
        <ele>788.2</ele>
        <time>2022-06-21T13:23:55Z</time>
      </trkpt>
      <trkpt lat="43.4259" lon="2.62327">
        <ele>788.1</ele>
        <time>2022-06-21T13:23:57Z</time>
      </trkpt>
      <trkpt lat="43.42589" lon="2.62328">
        <ele>788</ele>
        <time>2022-06-21T13:23:58Z</time>
      </trkpt>
      <trkpt lat="43.42588" lon="2.62329">
        <ele>787.8</ele>
        <time>2022-06-21T13:23:59Z</time>
      </trkpt>
      <trkpt lat="43.42587" lon="2.6233">
        <ele>787.6</ele>
        <time>2022-06-21T13:24:01Z</time>
      </trkpt>
      <trkpt lat="43.42587" lon="2.6233">
        <ele>787.5</ele>
        <time>2022-06-21T13:24:02Z</time>
      </trkpt>
      <trkpt lat="43.42586" lon="2.62331">
        <ele>787.4</ele>
        <time>2022-06-21T13:24:03Z</time>
      </trkpt>
      <trkpt lat="43.42585" lon="2.62331">
        <ele>787.3</ele>
        <time>2022-06-21T13:24:04Z</time>
      </trkpt>
      <trkpt lat="43.42585" lon="2.62331">
        <ele>787.2</ele>
        <time>2022-06-21T13:24:05Z</time>
      </trkpt>
      <trkpt lat="43.42585" lon="2.62331">
        <ele>787.2</ele>
        <time>2022-06-21T13:24:06Z</time>
      </trkpt>
      <trkpt lat="43.42584" lon="2.62331">
        <ele>787.1</ele>
        <time>2022-06-21T13:24:07Z</time>
      </trkpt>
      <trkpt lat="43.42584" lon="2.62331">
        <ele>787</ele>
        <time>2022-06-21T13:24:08Z</time>
      </trkpt>
      <trkpt lat="43.42583" lon="2.62331">
        <ele>786.9</ele>
        <time>2022-06-21T13:24:09Z</time>
      </trkpt>
      <trkpt lat="43.42581" lon="2.62333">
        <ele>786.6</ele>
        <time>2022-06-21T13:24:11Z</time>
      </trkpt>
      <trkpt lat="43.4258" lon="2.62335">
        <ele>786.3</ele>
        <time>2022-06-21T13:24:12Z</time>
      </trkpt>
      <trkpt lat="43.42579" lon="2.62336">
        <ele>786.1</ele>
        <time>2022-06-21T13:24:14Z</time>
      </trkpt>
      <trkpt lat="43.42578" lon="2.62336">
        <ele>786</ele>
        <time>2022-06-21T13:24:15Z</time>
      </trkpt>
      <trkpt lat="43.42577" lon="2.62337">
        <ele>785.8</ele>
        <time>2022-06-21T13:24:16Z</time>
      </trkpt>
      <trkpt lat="43.42576" lon="2.62338">
        <ele>785.6</ele>
        <time>2022-06-21T13:24:17Z</time>
      </trkpt>
      <trkpt lat="43.42575" lon="2.62339">
        <ele>785.4</ele>
        <time>2022-06-21T13:24:18Z</time>
      </trkpt>
      <trkpt lat="43.42574" lon="2.62339">
        <ele>785.2</ele>
        <time>2022-06-21T13:24:19Z</time>
      </trkpt>
      <trkpt lat="43.42573" lon="2.6234">
        <ele>785.1</ele>
        <time>2022-06-21T13:24:20Z</time>
      </trkpt>
      <trkpt lat="43.42572" lon="2.62341">
        <ele>785</ele>
        <time>2022-06-21T13:24:22Z</time>
      </trkpt>
      <trkpt lat="43.42572" lon="2.62342">
        <ele>784.8</ele>
        <time>2022-06-21T13:24:23Z</time>
      </trkpt>
      <trkpt lat="43.42571" lon="2.62342">
        <ele>784.7</ele>
        <time>2022-06-21T13:24:24Z</time>
      </trkpt>
      <trkpt lat="43.42569" lon="2.62343">
        <ele>784.5</ele>
        <time>2022-06-21T13:24:25Z</time>
      </trkpt>
      <trkpt lat="43.42568" lon="2.62344">
        <ele>784.3</ele>
        <time>2022-06-21T13:24:26Z</time>
      </trkpt>
      <trkpt lat="43.42568" lon="2.62344">
        <ele>784.2</ele>
        <time>2022-06-21T13:24:28Z</time>
      </trkpt>
      <trkpt lat="43.42567" lon="2.62345">
        <ele>784</ele>
        <time>2022-06-21T13:24:29Z</time>
      </trkpt>
      <trkpt lat="43.42567" lon="2.62346">
        <ele>783.9</ele>
        <time>2022-06-21T13:24:30Z</time>
      </trkpt>
      <trkpt lat="43.42566" lon="2.62347">
        <ele>783.8</ele>
        <time>2022-06-21T13:24:31Z</time>
      </trkpt>
      <trkpt lat="43.42566" lon="2.62347">
        <ele>783.8</ele>
        <time>2022-06-21T13:24:33Z</time>
      </trkpt>
      <trkpt lat="43.42565" lon="2.62347">
        <ele>783.7</ele>
        <time>2022-06-21T13:24:34Z</time>
      </trkpt>
      <trkpt lat="43.42564" lon="2.62348">
        <ele>783.5</ele>
        <time>2022-06-21T13:24:35Z</time>
      </trkpt>
      <trkpt lat="43.42564" lon="2.62348">
        <ele>783.4</ele>
        <time>2022-06-21T13:24:36Z</time>
      </trkpt>
      <trkpt lat="43.42563" lon="2.62348">
        <ele>783.3</ele>
        <time>2022-06-21T13:24:37Z</time>
      </trkpt>
      <trkpt lat="43.42562" lon="2.62349">
        <ele>783.2</ele>
        <time>2022-06-21T13:24:38Z</time>
      </trkpt>
      <trkpt lat="43.42561" lon="2.6235">
        <ele>783</ele>
        <time>2022-06-21T13:24:40Z</time>
      </trkpt>
      <trkpt lat="43.4256" lon="2.62351">
        <ele>782.8</ele>
        <time>2022-06-21T13:24:41Z</time>
      </trkpt>
      <trkpt lat="43.4256" lon="2.62351">
        <ele>782.7</ele>
        <time>2022-06-21T13:24:42Z</time>
      </trkpt>
      <trkpt lat="43.42559" lon="2.62352">
        <ele>782.6</ele>
        <time>2022-06-21T13:24:44Z</time>
      </trkpt>
      <trkpt lat="43.42559" lon="2.62353">
        <ele>782.6</ele>
        <time>2022-06-21T13:24:45Z</time>
      </trkpt>
      <trkpt lat="43.42559" lon="2.62354">
        <ele>782.4</ele>
        <time>2022-06-21T13:24:47Z</time>
      </trkpt>
      <trkpt lat="43.42558" lon="2.62355">
        <ele>782.3</ele>
        <time>2022-06-21T13:24:48Z</time>
      </trkpt>
      <trkpt lat="43.42557" lon="2.62356">
        <ele>782.2</ele>
        <time>2022-06-21T13:24:49Z</time>
      </trkpt>
      <trkpt lat="43.42557" lon="2.62357">
        <ele>782</ele>
        <time>2022-06-21T13:24:50Z</time>
      </trkpt>
      <trkpt lat="43.42556" lon="2.62357">
        <ele>781.9</ele>
        <time>2022-06-21T13:24:51Z</time>
      </trkpt>
      <trkpt lat="43.42555" lon="2.62358">
        <ele>781.7</ele>
        <time>2022-06-21T13:24:52Z</time>
      </trkpt>
      <trkpt lat="43.42554" lon="2.62358">
        <ele>781.6</ele>
        <time>2022-06-21T13:24:53Z</time>
      </trkpt>
      <trkpt lat="43.42554" lon="2.62359">
        <ele>781.4</ele>
        <time>2022-06-21T13:24:54Z</time>
      </trkpt>
      <trkpt lat="43.42553" lon="2.6236">
        <ele>781.3</ele>
        <time>2022-06-21T13:24:55Z</time>
      </trkpt>
      <trkpt lat="43.42551" lon="2.62361">
        <ele>780.9</ele>
        <time>2022-06-21T13:24:56Z</time>
      </trkpt>
      <trkpt lat="43.4255" lon="2.62362">
        <ele>780.7</ele>
        <time>2022-06-21T13:24:57Z</time>
      </trkpt>
      <trkpt lat="43.42549" lon="2.62363">
        <ele>780.5</ele>
        <time>2022-06-21T13:24:58Z</time>
      </trkpt>
      <trkpt lat="43.42548" lon="2.62364">
        <ele>780.4</ele>
        <time>2022-06-21T13:24:59Z</time>
      </trkpt>
      <trkpt lat="43.42547" lon="2.62365">
        <ele>780.2</ele>
        <time>2022-06-21T13:25:01Z</time>
      </trkpt>
      <trkpt lat="43.42547" lon="2.62366">
        <ele>780</ele>
        <time>2022-06-21T13:25:02Z</time>
      </trkpt>
      <trkpt lat="43.42546" lon="2.62366">
        <ele>779.9</ele>
        <time>2022-06-21T13:25:03Z</time>
      </trkpt>
      <trkpt lat="43.42546" lon="2.62367">
        <ele>779.8</ele>
        <time>2022-06-21T13:25:04Z</time>
      </trkpt>
      <trkpt lat="43.42545" lon="2.62368">
        <ele>779.6</ele>
        <time>2022-06-21T13:25:05Z</time>
      </trkpt>
      <trkpt lat="43.42545" lon="2.62369">
        <ele>779.5</ele>
        <time>2022-06-21T13:25:06Z</time>
      </trkpt>
      <trkpt lat="43.42544" lon="2.6237">
        <ele>779.3</ele>
        <time>2022-06-21T13:25:07Z</time>
      </trkpt>
      <trkpt lat="43.42543" lon="2.62371">
        <ele>779.1</ele>
        <time>2022-06-21T13:25:08Z</time>
      </trkpt>
      <trkpt lat="43.42542" lon="2.62372">
        <ele>779</ele>
        <time>2022-06-21T13:25:09Z</time>
      </trkpt>
      <trkpt lat="43.42541" lon="2.62374">
        <ele>778.7</ele>
        <time>2022-06-21T13:25:10Z</time>
      </trkpt>
      <trkpt lat="43.4254" lon="2.62375">
        <ele>778.5</ele>
        <time>2022-06-21T13:25:11Z</time>
      </trkpt>
      <trkpt lat="43.4254" lon="2.62376">
        <ele>778.2</ele>
        <time>2022-06-21T13:25:12Z</time>
      </trkpt>
      <trkpt lat="43.42538" lon="2.62378">
        <ele>778</ele>
        <time>2022-06-21T13:25:13Z</time>
      </trkpt>
      <trkpt lat="43.42538" lon="2.62379">
        <ele>777.8</ele>
        <time>2022-06-21T13:25:14Z</time>
      </trkpt>
      <trkpt lat="43.42537" lon="2.6238">
        <ele>777.6</ele>
        <time>2022-06-21T13:25:15Z</time>
      </trkpt>
      <trkpt lat="43.42536" lon="2.62381">
        <ele>777.4</ele>
        <time>2022-06-21T13:25:17Z</time>
      </trkpt>
      <trkpt lat="43.42535" lon="2.62382">
        <ele>777.2</ele>
        <time>2022-06-21T13:25:18Z</time>
      </trkpt>
      <trkpt lat="43.42535" lon="2.62383">
        <ele>777.1</ele>
        <time>2022-06-21T13:25:19Z</time>
      </trkpt>
      <trkpt lat="43.42535" lon="2.62384">
        <ele>777</ele>
        <time>2022-06-21T13:25:20Z</time>
      </trkpt>
      <trkpt lat="43.42534" lon="2.62384">
        <ele>776.9</ele>
        <time>2022-06-21T13:25:21Z</time>
      </trkpt>
      <trkpt lat="43.42534" lon="2.62386">
        <ele>776.6</ele>
        <time>2022-06-21T13:25:22Z</time>
      </trkpt>
      <trkpt lat="43.42534" lon="2.62387">
        <ele>776.5</ele>
        <time>2022-06-21T13:25:23Z</time>
      </trkpt>
      <trkpt lat="43.42533" lon="2.62388">
        <ele>776.3</ele>
        <time>2022-06-21T13:25:24Z</time>
      </trkpt>
      <trkpt lat="43.42533" lon="2.62389">
        <ele>776.2</ele>
        <time>2022-06-21T13:25:25Z</time>
      </trkpt>
      <trkpt lat="43.42533" lon="2.6239">
        <ele>776.1</ele>
        <time>2022-06-21T13:25:26Z</time>
      </trkpt>
      <trkpt lat="43.42533" lon="2.62391">
        <ele>776</ele>
        <time>2022-06-21T13:25:28Z</time>
      </trkpt>
      <trkpt lat="43.42532" lon="2.62392">
        <ele>775.9</ele>
        <time>2022-06-21T13:25:29Z</time>
      </trkpt>
      <trkpt lat="43.42532" lon="2.62393">
        <ele>775.7</ele>
        <time>2022-06-21T13:25:30Z</time>
      </trkpt>
      <trkpt lat="43.42531" lon="2.62394">
        <ele>775.5</ele>
        <time>2022-06-21T13:25:31Z</time>
      </trkpt>
      <trkpt lat="43.42531" lon="2.62394">
        <ele>775.5</ele>
        <time>2022-06-21T13:25:32Z</time>
      </trkpt>
      <trkpt lat="43.42531" lon="2.62395">
        <ele>775.4</ele>
        <time>2022-06-21T13:25:33Z</time>
      </trkpt>
      <trkpt lat="43.4253" lon="2.62396">
        <ele>775.2</ele>
        <time>2022-06-21T13:25:34Z</time>
      </trkpt>
      <trkpt lat="43.42529" lon="2.62397">
        <ele>775</ele>
        <time>2022-06-21T13:25:35Z</time>
      </trkpt>
      <trkpt lat="43.42528" lon="2.62398">
        <ele>774.8</ele>
        <time>2022-06-21T13:25:36Z</time>
      </trkpt>
      <trkpt lat="43.42528" lon="2.62399">
        <ele>774.6</ele>
        <time>2022-06-21T13:25:37Z</time>
      </trkpt>
      <trkpt lat="43.42527" lon="2.624">
        <ele>774.3</ele>
        <time>2022-06-21T13:25:39Z</time>
      </trkpt>
      <trkpt lat="43.42525" lon="2.62401">
        <ele>774</ele>
        <time>2022-06-21T13:25:40Z</time>
      </trkpt>
      <trkpt lat="43.42524" lon="2.62402">
        <ele>773.9</ele>
        <time>2022-06-21T13:25:41Z</time>
      </trkpt>
      <trkpt lat="43.42523" lon="2.62403">
        <ele>773.7</ele>
        <time>2022-06-21T13:25:42Z</time>
      </trkpt>
      <trkpt lat="43.42522" lon="2.62404">
        <ele>773.5</ele>
        <time>2022-06-21T13:25:43Z</time>
      </trkpt>
      <trkpt lat="43.42521" lon="2.62405">
        <ele>773.3</ele>
        <time>2022-06-21T13:25:44Z</time>
      </trkpt>
      <trkpt lat="43.4252" lon="2.62406">
        <ele>773</ele>
        <time>2022-06-21T13:25:45Z</time>
      </trkpt>
      <trkpt lat="43.42519" lon="2.62407">
        <ele>772.9</ele>
        <time>2022-06-21T13:25:46Z</time>
      </trkpt>
      <trkpt lat="43.42519" lon="2.62407">
        <ele>772.8</ele>
        <time>2022-06-21T13:25:47Z</time>
      </trkpt>
      <trkpt lat="43.42519" lon="2.62407">
        <ele>772.8</ele>
        <time>2022-06-21T13:25:48Z</time>
      </trkpt>
      <trkpt lat="43.42519" lon="2.62407">
        <ele>772.8</ele>
        <time>2022-06-21T13:25:50Z</time>
      </trkpt>
      <trkpt lat="43.42519" lon="2.62408">
        <ele>772.7</ele>
        <time>2022-06-21T13:25:51Z</time>
      </trkpt>
      <trkpt lat="43.42518" lon="2.62409">
        <ele>772.6</ele>
        <time>2022-06-21T13:25:52Z</time>
      </trkpt>
      <trkpt lat="43.42517" lon="2.6241">
        <ele>772.4</ele>
        <time>2022-06-21T13:25:53Z</time>
      </trkpt>
      <trkpt lat="43.42517" lon="2.62411">
        <ele>772.3</ele>
        <time>2022-06-21T13:25:54Z</time>
      </trkpt>
      <trkpt lat="43.42516" lon="2.62412">
        <ele>772</ele>
        <time>2022-06-21T13:25:55Z</time>
      </trkpt>
      <trkpt lat="43.42515" lon="2.62413">
        <ele>771.9</ele>
        <time>2022-06-21T13:25:56Z</time>
      </trkpt>
      <trkpt lat="43.42514" lon="2.62415">
        <ele>771.6</ele>
        <time>2022-06-21T13:25:57Z</time>
      </trkpt>
      <trkpt lat="43.42513" lon="2.62415">
        <ele>771.4</ele>
        <time>2022-06-21T13:25:58Z</time>
      </trkpt>
      <trkpt lat="43.42512" lon="2.62416">
        <ele>771.2</ele>
        <time>2022-06-21T13:25:59Z</time>
      </trkpt>
      <trkpt lat="43.42511" lon="2.62416">
        <ele>771.1</ele>
        <time>2022-06-21T13:26:01Z</time>
      </trkpt>
      <trkpt lat="43.4251" lon="2.62417">
        <ele>770.9</ele>
        <time>2022-06-21T13:26:02Z</time>
      </trkpt>
      <trkpt lat="43.42508" lon="2.62419">
        <ele>770.6</ele>
        <time>2022-06-21T13:26:03Z</time>
      </trkpt>
      <trkpt lat="43.42507" lon="2.62419">
        <ele>770.5</ele>
        <time>2022-06-21T13:26:04Z</time>
      </trkpt>
      <trkpt lat="43.42507" lon="2.6242">
        <ele>770.4</ele>
        <time>2022-06-21T13:26:05Z</time>
      </trkpt>
      <trkpt lat="43.42506" lon="2.6242">
        <ele>770.3</ele>
        <time>2022-06-21T13:26:07Z</time>
      </trkpt>
      <trkpt lat="43.42505" lon="2.6242">
        <ele>770.2</ele>
        <time>2022-06-21T13:26:08Z</time>
      </trkpt>
      <trkpt lat="43.42504" lon="2.62421">
        <ele>770</ele>
        <time>2022-06-21T13:26:09Z</time>
      </trkpt>
      <trkpt lat="43.42503" lon="2.62422">
        <ele>769.9</ele>
        <time>2022-06-21T13:26:10Z</time>
      </trkpt>
      <trkpt lat="43.42503" lon="2.62423">
        <ele>769.8</ele>
        <time>2022-06-21T13:26:11Z</time>
      </trkpt>
      <trkpt lat="43.42502" lon="2.62423">
        <ele>769.6</ele>
        <time>2022-06-21T13:26:12Z</time>
      </trkpt>
      <trkpt lat="43.42501" lon="2.62424">
        <ele>769.5</ele>
        <time>2022-06-21T13:26:13Z</time>
      </trkpt>
      <trkpt lat="43.425" lon="2.62426">
        <ele>769.3</ele>
        <time>2022-06-21T13:26:14Z</time>
      </trkpt>
      <trkpt lat="43.425" lon="2.62427">
        <ele>769.2</ele>
        <time>2022-06-21T13:26:16Z</time>
      </trkpt>
      <trkpt lat="43.425" lon="2.62427">
        <ele>769.1</ele>
        <time>2022-06-21T13:26:17Z</time>
      </trkpt>
      <trkpt lat="43.42501" lon="2.62427">
        <ele>769.1</ele>
        <time>2022-06-21T13:26:18Z</time>
      </trkpt>
      <trkpt lat="43.42501" lon="2.62427">
        <ele>769</ele>
        <time>2022-06-21T13:26:19Z</time>
      </trkpt>
      <trkpt lat="43.42501" lon="2.62427">
        <ele>769</ele>
        <time>2022-06-21T13:26:20Z</time>
      </trkpt>
      <trkpt lat="43.42501" lon="2.62428">
        <ele>768.9</ele>
        <time>2022-06-21T13:26:21Z</time>
      </trkpt>
      <trkpt lat="43.42501" lon="2.62428">
        <ele>768.9</ele>
        <time>2022-06-21T13:26:22Z</time>
      </trkpt>
      <trkpt lat="43.42501" lon="2.62429">
        <ele>768.8</ele>
        <time>2022-06-21T13:26:24Z</time>
      </trkpt>
      <trkpt lat="43.425" lon="2.6243">
        <ele>768.7</ele>
        <time>2022-06-21T13:26:25Z</time>
      </trkpt>
      <trkpt lat="43.425" lon="2.62431">
        <ele>768.6</ele>
        <time>2022-06-21T13:26:26Z</time>
      </trkpt>
      <trkpt lat="43.425" lon="2.62432">
        <ele>768.5</ele>
        <time>2022-06-21T13:26:27Z</time>
      </trkpt>
      <trkpt lat="43.425" lon="2.62433">
        <ele>768.4</ele>
        <time>2022-06-21T13:26:28Z</time>
      </trkpt>
      <trkpt lat="43.42499" lon="2.62436">
        <ele>768.1</ele>
        <time>2022-06-21T13:26:30Z</time>
      </trkpt>
      <trkpt lat="43.42499" lon="2.62437">
        <ele>768</ele>
        <time>2022-06-21T13:26:31Z</time>
      </trkpt>
      <trkpt lat="43.42499" lon="2.62439">
        <ele>767.9</ele>
        <time>2022-06-21T13:26:32Z</time>
      </trkpt>
      <trkpt lat="43.42499" lon="2.62441">
        <ele>767.6</ele>
        <time>2022-06-21T13:26:33Z</time>
      </trkpt>
      <trkpt lat="43.42499" lon="2.62443">
        <ele>767.5</ele>
        <time>2022-06-21T13:26:34Z</time>
      </trkpt>
      <trkpt lat="43.42498" lon="2.62445">
        <ele>767.3</ele>
        <time>2022-06-21T13:26:35Z</time>
      </trkpt>
      <trkpt lat="43.42498" lon="2.62446">
        <ele>767.1</ele>
        <time>2022-06-21T13:26:36Z</time>
      </trkpt>
      <trkpt lat="43.42497" lon="2.62448">
        <ele>766.9</ele>
        <time>2022-06-21T13:26:37Z</time>
      </trkpt>
      <trkpt lat="43.42496" lon="2.62449">
        <ele>766.8</ele>
        <time>2022-06-21T13:26:38Z</time>
      </trkpt>
      <trkpt lat="43.42495" lon="2.62449">
        <ele>766.6</ele>
        <time>2022-06-21T13:26:39Z</time>
      </trkpt>
      <trkpt lat="43.42494" lon="2.62449">
        <ele>766.6</ele>
        <time>2022-06-21T13:26:40Z</time>
      </trkpt>
      <trkpt lat="43.42494" lon="2.62449">
        <ele>766.5</ele>
        <time>2022-06-21T13:26:41Z</time>
      </trkpt>
      <trkpt lat="43.42493" lon="2.62449">
        <ele>766.4</ele>
        <time>2022-06-21T13:26:43Z</time>
      </trkpt>
      <trkpt lat="43.42493" lon="2.62449">
        <ele>766.4</ele>
        <time>2022-06-21T13:26:44Z</time>
      </trkpt>
      <trkpt lat="43.42493" lon="2.62449">
        <ele>766.4</ele>
        <time>2022-06-21T13:26:45Z</time>
      </trkpt>
      <trkpt lat="43.42493" lon="2.6245">
        <ele>766.4</ele>
        <time>2022-06-21T13:26:46Z</time>
      </trkpt>
      <trkpt lat="43.42492" lon="2.6245">
        <ele>766.3</ele>
        <time>2022-06-21T13:26:47Z</time>
      </trkpt>
      <trkpt lat="43.42492" lon="2.62451">
        <ele>766.2</ele>
        <time>2022-06-21T13:26:48Z</time>
      </trkpt>
      <trkpt lat="43.42491" lon="2.62452">
        <ele>766.1</ele>
        <time>2022-06-21T13:26:49Z</time>
      </trkpt>
      <trkpt lat="43.4249" lon="2.62454">
        <ele>765.8</ele>
        <time>2022-06-21T13:26:50Z</time>
      </trkpt>
      <trkpt lat="43.42489" lon="2.62455">
        <ele>765.7</ele>
        <time>2022-06-21T13:26:51Z</time>
      </trkpt>
      <trkpt lat="43.42488" lon="2.62458">
        <ele>765.4</ele>
        <time>2022-06-21T13:26:53Z</time>
      </trkpt>
      <trkpt lat="43.42484" lon="2.62463">
        <ele>764.9</ele>
        <time>2022-06-21T13:26:55Z</time>
      </trkpt>
      <trkpt lat="43.42484" lon="2.62464">
        <ele>764.7</ele>
        <time>2022-06-21T13:26:56Z</time>
      </trkpt>
      <trkpt lat="43.42483" lon="2.62466">
        <ele>764.5</ele>
        <time>2022-06-21T13:26:57Z</time>
      </trkpt>
      <trkpt lat="43.42482" lon="2.62467">
        <ele>764.4</ele>
        <time>2022-06-21T13:26:58Z</time>
      </trkpt>
      <trkpt lat="43.4248" lon="2.62469">
        <ele>764.1</ele>
        <time>2022-06-21T13:26:59Z</time>
      </trkpt>
      <trkpt lat="43.42479" lon="2.62471">
        <ele>763.9</ele>
        <time>2022-06-21T13:27:00Z</time>
      </trkpt>
      <trkpt lat="43.42478" lon="2.62473">
        <ele>763.7</ele>
        <time>2022-06-21T13:27:02Z</time>
      </trkpt>
      <trkpt lat="43.42477" lon="2.62474">
        <ele>763.5</ele>
        <time>2022-06-21T13:27:03Z</time>
      </trkpt>
      <trkpt lat="43.42476" lon="2.62475">
        <ele>763.4</ele>
        <time>2022-06-21T13:27:04Z</time>
      </trkpt>
      <trkpt lat="43.42474" lon="2.62476">
        <ele>763.2</ele>
        <time>2022-06-21T13:27:06Z</time>
      </trkpt>
      <trkpt lat="43.42473" lon="2.62477">
        <ele>763</ele>
        <time>2022-06-21T13:27:07Z</time>
      </trkpt>
      <trkpt lat="43.42473" lon="2.62478">
        <ele>762.9</ele>
        <time>2022-06-21T13:27:08Z</time>
      </trkpt>
      <trkpt lat="43.42472" lon="2.6248">
        <ele>762.7</ele>
        <time>2022-06-21T13:27:09Z</time>
      </trkpt>
      <trkpt lat="43.42471" lon="2.6248">
        <ele>762.7</ele>
        <time>2022-06-21T13:27:10Z</time>
      </trkpt>
      <trkpt lat="43.42471" lon="2.6248">
        <ele>762.6</ele>
        <time>2022-06-21T13:27:11Z</time>
      </trkpt>
      <trkpt lat="43.4247" lon="2.62481">
        <ele>762.5</ele>
        <time>2022-06-21T13:27:13Z</time>
      </trkpt>
      <trkpt lat="43.42469" lon="2.62482">
        <ele>762.3</ele>
        <time>2022-06-21T13:27:14Z</time>
      </trkpt>
      <trkpt lat="43.42468" lon="2.62484">
        <ele>762.2</ele>
        <time>2022-06-21T13:27:15Z</time>
      </trkpt>
      <trkpt lat="43.42468" lon="2.62485">
        <ele>762.1</ele>
        <time>2022-06-21T13:27:16Z</time>
      </trkpt>
      <trkpt lat="43.42467" lon="2.62486">
        <ele>762</ele>
        <time>2022-06-21T13:27:17Z</time>
      </trkpt>
      <trkpt lat="43.42467" lon="2.62487">
        <ele>761.9</ele>
        <time>2022-06-21T13:27:18Z</time>
      </trkpt>
      <trkpt lat="43.42467" lon="2.62487">
        <ele>761.8</ele>
        <time>2022-06-21T13:27:19Z</time>
      </trkpt>
      <trkpt lat="43.42468" lon="2.62487">
        <ele>761.8</ele>
        <time>2022-06-21T13:27:20Z</time>
      </trkpt>
      <trkpt lat="43.42468" lon="2.62488">
        <ele>761.8</ele>
        <time>2022-06-21T13:27:21Z</time>
      </trkpt>
      <trkpt lat="43.42467" lon="2.62488">
        <ele>761.7</ele>
        <time>2022-06-21T13:27:22Z</time>
      </trkpt>
      <trkpt lat="43.42467" lon="2.62489">
        <ele>761.6</ele>
        <time>2022-06-21T13:27:23Z</time>
      </trkpt>
      <trkpt lat="43.42466" lon="2.62491">
        <ele>761.5</ele>
        <time>2022-06-21T13:27:25Z</time>
      </trkpt>
      <trkpt lat="43.42465" lon="2.62492">
        <ele>761.3</ele>
        <time>2022-06-21T13:27:26Z</time>
      </trkpt>
      <trkpt lat="43.42464" lon="2.62495">
        <ele>761</ele>
        <time>2022-06-21T13:27:27Z</time>
      </trkpt>
      <trkpt lat="43.42463" lon="2.62497">
        <ele>760.8</ele>
        <time>2022-06-21T13:27:28Z</time>
      </trkpt>
      <trkpt lat="43.42462" lon="2.62499">
        <ele>760.6</ele>
        <time>2022-06-21T13:27:29Z</time>
      </trkpt>
      <trkpt lat="43.4246" lon="2.62502">
        <ele>760.2</ele>
        <time>2022-06-21T13:27:30Z</time>
      </trkpt>
      <trkpt lat="43.4246" lon="2.62504">
        <ele>760.1</ele>
        <time>2022-06-21T13:27:31Z</time>
      </trkpt>
      <trkpt lat="43.42459" lon="2.62506">
        <ele>759.9</ele>
        <time>2022-06-21T13:27:32Z</time>
      </trkpt>
      <trkpt lat="43.42458" lon="2.62507">
        <ele>759.7</ele>
        <time>2022-06-21T13:27:33Z</time>
      </trkpt>
      <trkpt lat="43.42457" lon="2.62508">
        <ele>759.6</ele>
        <time>2022-06-21T13:27:35Z</time>
      </trkpt>
      <trkpt lat="43.42457" lon="2.6251">
        <ele>759.4</ele>
        <time>2022-06-21T13:27:36Z</time>
      </trkpt>
      <trkpt lat="43.42456" lon="2.62511">
        <ele>759.3</ele>
        <time>2022-06-21T13:27:37Z</time>
      </trkpt>
      <trkpt lat="43.42454" lon="2.62513">
        <ele>758.9</ele>
        <time>2022-06-21T13:27:38Z</time>
      </trkpt>
      <trkpt lat="43.42454" lon="2.62514">
        <ele>758.8</ele>
        <time>2022-06-21T13:27:39Z</time>
      </trkpt>
      <trkpt lat="43.42453" lon="2.62515">
        <ele>758.7</ele>
        <time>2022-06-21T13:27:40Z</time>
      </trkpt>
      <trkpt lat="43.42452" lon="2.62516">
        <ele>758.5</ele>
        <time>2022-06-21T13:27:41Z</time>
      </trkpt>
      <trkpt lat="43.42451" lon="2.62518">
        <ele>758.2</ele>
        <time>2022-06-21T13:27:43Z</time>
      </trkpt>
      <trkpt lat="43.4245" lon="2.62519">
        <ele>757.9</ele>
        <time>2022-06-21T13:27:44Z</time>
      </trkpt>
      <trkpt lat="43.42449" lon="2.62521">
        <ele>757.7</ele>
        <time>2022-06-21T13:27:45Z</time>
      </trkpt>
      <trkpt lat="43.42447" lon="2.62523">
        <ele>757.5</ele>
        <time>2022-06-21T13:27:46Z</time>
      </trkpt>
      <trkpt lat="43.42446" lon="2.62523">
        <ele>757.4</ele>
        <time>2022-06-21T13:27:47Z</time>
      </trkpt>
      <trkpt lat="43.42445" lon="2.62524">
        <ele>757.3</ele>
        <time>2022-06-21T13:27:48Z</time>
      </trkpt>
      <trkpt lat="43.42444" lon="2.62526">
        <ele>757.1</ele>
        <time>2022-06-21T13:27:50Z</time>
      </trkpt>
      <trkpt lat="43.42443" lon="2.62527">
        <ele>757</ele>
        <time>2022-06-21T13:27:51Z</time>
      </trkpt>
      <trkpt lat="43.42441" lon="2.62528">
        <ele>756.8</ele>
        <time>2022-06-21T13:27:52Z</time>
      </trkpt>
      <trkpt lat="43.42439" lon="2.62529">
        <ele>756.6</ele>
        <time>2022-06-21T13:27:53Z</time>
      </trkpt>
      <trkpt lat="43.42438" lon="2.6253">
        <ele>756.5</ele>
        <time>2022-06-21T13:27:54Z</time>
      </trkpt>
      <trkpt lat="43.42436" lon="2.62531">
        <ele>756.3</ele>
        <time>2022-06-21T13:27:55Z</time>
      </trkpt>
      <trkpt lat="43.42434" lon="2.62534">
        <ele>756</ele>
        <time>2022-06-21T13:27:56Z</time>
      </trkpt>
      <trkpt lat="43.42433" lon="2.62535">
        <ele>755.9</ele>
        <time>2022-06-21T13:27:58Z</time>
      </trkpt>
      <trkpt lat="43.42433" lon="2.62536">
        <ele>755.8</ele>
        <time>2022-06-21T13:27:59Z</time>
      </trkpt>
      <trkpt lat="43.42432" lon="2.62537">
        <ele>755.6</ele>
        <time>2022-06-21T13:28:00Z</time>
      </trkpt>
      <trkpt lat="43.42432" lon="2.62538">
        <ele>755.5</ele>
        <time>2022-06-21T13:28:01Z</time>
      </trkpt>
      <trkpt lat="43.42431" lon="2.62541">
        <ele>755.3</ele>
        <time>2022-06-21T13:28:02Z</time>
      </trkpt>
      <trkpt lat="43.4243" lon="2.62542">
        <ele>755.2</ele>
        <time>2022-06-21T13:28:03Z</time>
      </trkpt>
      <trkpt lat="43.4243" lon="2.62544">
        <ele>755</ele>
        <time>2022-06-21T13:28:04Z</time>
      </trkpt>
      <trkpt lat="43.42429" lon="2.62545">
        <ele>754.9</ele>
        <time>2022-06-21T13:28:05Z</time>
      </trkpt>
      <trkpt lat="43.42429" lon="2.62546">
        <ele>754.8</ele>
        <time>2022-06-21T13:28:06Z</time>
      </trkpt>
      <trkpt lat="43.42428" lon="2.62547">
        <ele>754.6</ele>
        <time>2022-06-21T13:28:07Z</time>
      </trkpt>
      <trkpt lat="43.42428" lon="2.62547">
        <ele>754.6</ele>
        <time>2022-06-21T13:28:09Z</time>
      </trkpt>
      <trkpt lat="43.42428" lon="2.62547">
        <ele>754.5</ele>
        <time>2022-06-21T13:28:10Z</time>
      </trkpt>
      <trkpt lat="43.42428" lon="2.62546">
        <ele>754.5</ele>
        <time>2022-06-21T13:28:11Z</time>
      </trkpt>
      <trkpt lat="43.42428" lon="2.62546">
        <ele>754.4</ele>
        <time>2022-06-21T13:28:12Z</time>
      </trkpt>
      <trkpt lat="43.42428" lon="2.62545">
        <ele>754.4</ele>
        <time>2022-06-21T13:28:14Z</time>
      </trkpt>
      <trkpt lat="43.42428" lon="2.62545">
        <ele>754.4</ele>
        <time>2022-06-21T13:28:15Z</time>
      </trkpt>
      <trkpt lat="43.42429" lon="2.62545">
        <ele>754.4</ele>
        <time>2022-06-21T13:28:16Z</time>
      </trkpt>
      <trkpt lat="43.42429" lon="2.62545">
        <ele>754.3</ele>
        <time>2022-06-21T13:28:17Z</time>
      </trkpt>
      <trkpt lat="43.42429" lon="2.62545">
        <ele>754.3</ele>
        <time>2022-06-21T13:28:18Z</time>
      </trkpt>
      <trkpt lat="43.42429" lon="2.62545">
        <ele>754.3</ele>
        <time>2022-06-21T13:28:19Z</time>
      </trkpt>
      <trkpt lat="43.42429" lon="2.62545">
        <ele>754.3</ele>
        <time>2022-06-21T13:28:20Z</time>
      </trkpt>
      <trkpt lat="43.42429" lon="2.62545">
        <ele>754.3</ele>
        <time>2022-06-21T13:28:21Z</time>
      </trkpt>
      <trkpt lat="43.42428" lon="2.62545">
        <ele>754.3</ele>
        <time>2022-06-21T13:28:23Z</time>
      </trkpt>
      <trkpt lat="43.42428" lon="2.62545">
        <ele>754.3</ele>
        <time>2022-06-21T13:28:24Z</time>
      </trkpt>
      <trkpt lat="43.42428" lon="2.62545">
        <ele>754.3</ele>
        <time>2022-06-21T13:28:25Z</time>
      </trkpt>
      <trkpt lat="43.42428" lon="2.62545">
        <ele>754.3</ele>
        <time>2022-06-21T13:28:26Z</time>
      </trkpt>
      <trkpt lat="43.42428" lon="2.62545">
        <ele>754.3</ele>
        <time>2022-06-21T13:28:27Z</time>
      </trkpt>
      <trkpt lat="43.42428" lon="2.62545">
        <ele>754.3</ele>
        <time>2022-06-21T13:28:28Z</time>
      </trkpt>
      <trkpt lat="43.42428" lon="2.62545">
        <ele>754.3</ele>
        <time>2022-06-21T13:28:29Z</time>
      </trkpt>
      <trkpt lat="43.42429" lon="2.62545">
        <ele>754.2</ele>
        <time>2022-06-21T13:28:30Z</time>
      </trkpt>
      <trkpt lat="43.42429" lon="2.62545">
        <ele>754.2</ele>
        <time>2022-06-21T13:28:31Z</time>
      </trkpt>
      <trkpt lat="43.42428" lon="2.62545">
        <ele>754.2</ele>
        <time>2022-06-21T13:28:32Z</time>
      </trkpt>
      <trkpt lat="43.42428" lon="2.62545">
        <ele>754.2</ele>
        <time>2022-06-21T13:28:33Z</time>
      </trkpt>
      <trkpt lat="43.42428" lon="2.62545">
        <ele>754.1</ele>
        <time>2022-06-21T13:28:34Z</time>
      </trkpt>
      <trkpt lat="43.42428" lon="2.62545">
        <ele>754.1</ele>
        <time>2022-06-21T13:28:36Z</time>
      </trkpt>
      <trkpt lat="43.42428" lon="2.62545">
        <ele>754.1</ele>
        <time>2022-06-21T13:28:37Z</time>
      </trkpt>
      <trkpt lat="43.42428" lon="2.62545">
        <ele>754.1</ele>
        <time>2022-06-21T13:28:38Z</time>
      </trkpt>
      <trkpt lat="43.42428" lon="2.62545">
        <ele>754.1</ele>
        <time>2022-06-21T13:28:39Z</time>
      </trkpt>
      <trkpt lat="43.42428" lon="2.62545">
        <ele>754.1</ele>
        <time>2022-06-21T13:28:40Z</time>
      </trkpt>
      <trkpt lat="43.42428" lon="2.62545">
        <ele>754.1</ele>
        <time>2022-06-21T13:28:41Z</time>
      </trkpt>
      <trkpt lat="43.42428" lon="2.62545">
        <ele>754.1</ele>
        <time>2022-06-21T13:28:42Z</time>
      </trkpt>
      <trkpt lat="43.42428" lon="2.62545">
        <ele>754.1</ele>
        <time>2022-06-21T13:28:43Z</time>
      </trkpt>
      <trkpt lat="43.42428" lon="2.62545">
        <ele>754.1</ele>
        <time>2022-06-21T13:28:44Z</time>
      </trkpt>
      <trkpt lat="43.42428" lon="2.62545">
        <ele>754.1</ele>
        <time>2022-06-21T13:28:45Z</time>
      </trkpt>
      <trkpt lat="43.42428" lon="2.62545">
        <ele>754</ele>
        <time>2022-06-21T13:28:46Z</time>
      </trkpt>
      <trkpt lat="43.42428" lon="2.62545">
        <ele>754</ele>
        <time>2022-06-21T13:28:47Z</time>
      </trkpt>
      <trkpt lat="43.42428" lon="2.62545">
        <ele>754</ele>
        <time>2022-06-21T13:28:49Z</time>
      </trkpt>
      <trkpt lat="43.42428" lon="2.62545">
        <ele>754</ele>
        <time>2022-06-21T13:28:50Z</time>
      </trkpt>
      <trkpt lat="43.42428" lon="2.62545">
        <ele>754</ele>
        <time>2022-06-21T13:28:51Z</time>
      </trkpt>
      <trkpt lat="43.42428" lon="2.62545">
        <ele>754</ele>
        <time>2022-06-21T13:28:52Z</time>
      </trkpt>
      <trkpt lat="43.42428" lon="2.62545">
        <ele>754</ele>
        <time>2022-06-21T13:28:53Z</time>
      </trkpt>
      <trkpt lat="43.42428" lon="2.62545">
        <ele>754</ele>
        <time>2022-06-21T13:28:54Z</time>
      </trkpt>
      <trkpt lat="43.42428" lon="2.62545">
        <ele>754</ele>
        <time>2022-06-21T13:28:55Z</time>
      </trkpt>
      <trkpt lat="43.42428" lon="2.62545">
        <ele>754</ele>
        <time>2022-06-21T13:28:56Z</time>
      </trkpt>
      <trkpt lat="43.42429" lon="2.62545">
        <ele>753.9</ele>
        <time>2022-06-21T13:28:57Z</time>
      </trkpt>
      <trkpt lat="43.42429" lon="2.62545">
        <ele>753.9</ele>
        <time>2022-06-21T13:28:58Z</time>
      </trkpt>
      <trkpt lat="43.42429" lon="2.62544">
        <ele>753.8</ele>
        <time>2022-06-21T13:28:59Z</time>
      </trkpt>
      <trkpt lat="43.42429" lon="2.62544">
        <ele>753.8</ele>
        <time>2022-06-21T13:29:00Z</time>
      </trkpt>
      <trkpt lat="43.42429" lon="2.62544">
        <ele>753.8</ele>
        <time>2022-06-21T13:29:01Z</time>
      </trkpt>
      <trkpt lat="43.42429" lon="2.62544">
        <ele>753.8</ele>
        <time>2022-06-21T13:29:02Z</time>
      </trkpt>
      <trkpt lat="43.42429" lon="2.62544">
        <ele>753.8</ele>
        <time>2022-06-21T13:29:03Z</time>
      </trkpt>
      <trkpt lat="43.42429" lon="2.62544">
        <ele>753.8</ele>
        <time>2022-06-21T13:29:04Z</time>
      </trkpt>
      <trkpt lat="43.42429" lon="2.62544">
        <ele>753.8</ele>
        <time>2022-06-21T13:29:05Z</time>
      </trkpt>
      <trkpt lat="43.42429" lon="2.62545">
        <ele>753.8</ele>
        <time>2022-06-21T13:29:06Z</time>
      </trkpt>
      <trkpt lat="43.42428" lon="2.62546">
        <ele>753.7</ele>
        <time>2022-06-21T13:29:07Z</time>
      </trkpt>
      <trkpt lat="43.42428" lon="2.62547">
        <ele>753.6</ele>
        <time>2022-06-21T13:29:08Z</time>
      </trkpt>
      <trkpt lat="43.42428" lon="2.62547">
        <ele>753.5</ele>
        <time>2022-06-21T13:29:09Z</time>
      </trkpt>
      <trkpt lat="43.42428" lon="2.62548">
        <ele>753.4</ele>
        <time>2022-06-21T13:29:10Z</time>
      </trkpt>
      <trkpt lat="43.42427" lon="2.6255">
        <ele>753.2</ele>
        <time>2022-06-21T13:29:12Z</time>
      </trkpt>
      <trkpt lat="43.42426" lon="2.6255">
        <ele>753.1</ele>
        <time>2022-06-21T13:29:13Z</time>
      </trkpt>
      <trkpt lat="43.42425" lon="2.6255">
        <ele>753</ele>
        <time>2022-06-21T13:29:14Z</time>
      </trkpt>
      <trkpt lat="43.42424" lon="2.62551">
        <ele>752.8</ele>
        <time>2022-06-21T13:29:16Z</time>
      </trkpt>
      <trkpt lat="43.42424" lon="2.62552">
        <ele>752.7</ele>
        <time>2022-06-21T13:29:17Z</time>
      </trkpt>
      <trkpt lat="43.42423" lon="2.62553">
        <ele>752.5</ele>
        <time>2022-06-21T13:29:18Z</time>
      </trkpt>
      <trkpt lat="43.42421" lon="2.62555">
        <ele>752.3</ele>
        <time>2022-06-21T13:29:19Z</time>
      </trkpt>
      <trkpt lat="43.42421" lon="2.62555">
        <ele>752.2</ele>
        <time>2022-06-21T13:29:20Z</time>
      </trkpt>
      <trkpt lat="43.4242" lon="2.62556">
        <ele>752.1</ele>
        <time>2022-06-21T13:29:21Z</time>
      </trkpt>
      <trkpt lat="43.42419" lon="2.62557">
        <ele>751.9</ele>
        <time>2022-06-21T13:29:22Z</time>
      </trkpt>
      <trkpt lat="43.42418" lon="2.62558">
        <ele>751.7</ele>
        <time>2022-06-21T13:29:23Z</time>
      </trkpt>
      <trkpt lat="43.42416" lon="2.6256">
        <ele>751.5</ele>
        <time>2022-06-21T13:29:24Z</time>
      </trkpt>
      <trkpt lat="43.42415" lon="2.62561">
        <ele>751.3</ele>
        <time>2022-06-21T13:29:25Z</time>
      </trkpt>
      <trkpt lat="43.42414" lon="2.62562">
        <ele>751.2</ele>
        <time>2022-06-21T13:29:26Z</time>
      </trkpt>
      <trkpt lat="43.42412" lon="2.62564">
        <ele>750.8</ele>
        <time>2022-06-21T13:29:28Z</time>
      </trkpt>
      <trkpt lat="43.42411" lon="2.62565">
        <ele>750.6</ele>
        <time>2022-06-21T13:29:30Z</time>
      </trkpt>
      <trkpt lat="43.4241" lon="2.62566">
        <ele>750.5</ele>
        <time>2022-06-21T13:29:31Z</time>
      </trkpt>
      <trkpt lat="43.4241" lon="2.62567">
        <ele>750.3</ele>
        <time>2022-06-21T13:29:32Z</time>
      </trkpt>
      <trkpt lat="43.42409" lon="2.62568">
        <ele>750.2</ele>
        <time>2022-06-21T13:29:33Z</time>
      </trkpt>
      <trkpt lat="43.42408" lon="2.62569">
        <ele>750</ele>
        <time>2022-06-21T13:29:34Z</time>
      </trkpt>
      <trkpt lat="43.42407" lon="2.62571">
        <ele>749.7</ele>
        <time>2022-06-21T13:29:35Z</time>
      </trkpt>
      <trkpt lat="43.42406" lon="2.62573">
        <ele>749.4</ele>
        <time>2022-06-21T13:29:36Z</time>
      </trkpt>
      <trkpt lat="43.42405" lon="2.62573">
        <ele>749.3</ele>
        <time>2022-06-21T13:29:37Z</time>
      </trkpt>
      <trkpt lat="43.42404" lon="2.62575">
        <ele>749</ele>
        <time>2022-06-21T13:29:39Z</time>
      </trkpt>
      <trkpt lat="43.42403" lon="2.62576">
        <ele>748.8</ele>
        <time>2022-06-21T13:29:40Z</time>
      </trkpt>
      <trkpt lat="43.42401" lon="2.62577">
        <ele>748.4</ele>
        <time>2022-06-21T13:29:42Z</time>
      </trkpt>
      <trkpt lat="43.42401" lon="2.62578">
        <ele>748.3</ele>
        <time>2022-06-21T13:29:43Z</time>
      </trkpt>
      <trkpt lat="43.42401" lon="2.62578">
        <ele>748.2</ele>
        <time>2022-06-21T13:29:44Z</time>
      </trkpt>
      <trkpt lat="43.42401" lon="2.62579">
        <ele>748.2</ele>
        <time>2022-06-21T13:29:45Z</time>
      </trkpt>
      <trkpt lat="43.42401" lon="2.62579">
        <ele>748.1</ele>
        <time>2022-06-21T13:29:46Z</time>
      </trkpt>
      <trkpt lat="43.42401" lon="2.62579">
        <ele>748.1</ele>
        <time>2022-06-21T13:29:47Z</time>
      </trkpt>
      <trkpt lat="43.42402" lon="2.62579">
        <ele>748</ele>
        <time>2022-06-21T13:29:48Z</time>
      </trkpt>
      <trkpt lat="43.42402" lon="2.62579">
        <ele>748</ele>
        <time>2022-06-21T13:29:49Z</time>
      </trkpt>
      <trkpt lat="43.42402" lon="2.62579">
        <ele>748</ele>
        <time>2022-06-21T13:29:50Z</time>
      </trkpt>
      <trkpt lat="43.42402" lon="2.6258">
        <ele>747.9</ele>
        <time>2022-06-21T13:29:51Z</time>
      </trkpt>
      <trkpt lat="43.42402" lon="2.6258">
        <ele>747.8</ele>
        <time>2022-06-21T13:29:52Z</time>
      </trkpt>
      <trkpt lat="43.42401" lon="2.6258">
        <ele>747.7</ele>
        <time>2022-06-21T13:29:53Z</time>
      </trkpt>
      <trkpt lat="43.424" lon="2.62581">
        <ele>747.5</ele>
        <time>2022-06-21T13:29:54Z</time>
      </trkpt>
      <trkpt lat="43.42399" lon="2.62581">
        <ele>747.3</ele>
        <time>2022-06-21T13:29:55Z</time>
      </trkpt>
      <trkpt lat="43.42398" lon="2.62582">
        <ele>747.1</ele>
        <time>2022-06-21T13:29:57Z</time>
      </trkpt>
      <trkpt lat="43.42398" lon="2.62583">
        <ele>746.9</ele>
        <time>2022-06-21T13:29:58Z</time>
      </trkpt>
      <trkpt lat="43.42397" lon="2.62584">
        <ele>746.7</ele>
        <time>2022-06-21T13:29:59Z</time>
      </trkpt>
      <trkpt lat="43.42395" lon="2.62584">
        <ele>746.4</ele>
        <time>2022-06-21T13:30:00Z</time>
      </trkpt>
      <trkpt lat="43.42394" lon="2.62585">
        <ele>746</ele>
        <time>2022-06-21T13:30:01Z</time>
      </trkpt>
      <trkpt lat="43.42393" lon="2.62585">
        <ele>745.7</ele>
        <time>2022-06-21T13:30:02Z</time>
      </trkpt>
      <trkpt lat="43.42391" lon="2.62585">
        <ele>745.5</ele>
        <time>2022-06-21T13:30:03Z</time>
      </trkpt>
      <trkpt lat="43.4239" lon="2.62586">
        <ele>745.3</ele>
        <time>2022-06-21T13:30:04Z</time>
      </trkpt>
      <trkpt lat="43.4239" lon="2.62586">
        <ele>745.1</ele>
        <time>2022-06-21T13:30:05Z</time>
      </trkpt>
      <trkpt lat="43.42389" lon="2.62586">
        <ele>745</ele>
        <time>2022-06-21T13:30:06Z</time>
      </trkpt>
      <trkpt lat="43.42389" lon="2.62586">
        <ele>744.9</ele>
        <time>2022-06-21T13:30:08Z</time>
      </trkpt>
      <trkpt lat="43.42389" lon="2.62586">
        <ele>744.9</ele>
        <time>2022-06-21T13:30:09Z</time>
      </trkpt>
      <trkpt lat="43.42389" lon="2.62586">
        <ele>744.9</ele>
        <time>2022-06-21T13:30:10Z</time>
      </trkpt>
      <trkpt lat="43.42388" lon="2.62587">
        <ele>744.8</ele>
        <time>2022-06-21T13:30:11Z</time>
      </trkpt>
      <trkpt lat="43.42388" lon="2.62587">
        <ele>744.7</ele>
        <time>2022-06-21T13:30:12Z</time>
      </trkpt>
      <trkpt lat="43.42388" lon="2.62587">
        <ele>744.5</ele>
        <time>2022-06-21T13:30:14Z</time>
      </trkpt>
      <trkpt lat="43.42387" lon="2.62588">
        <ele>744.5</ele>
        <time>2022-06-21T13:30:15Z</time>
      </trkpt>
      <trkpt lat="43.42387" lon="2.62588">
        <ele>744.4</ele>
        <time>2022-06-21T13:30:16Z</time>
      </trkpt>
      <trkpt lat="43.42387" lon="2.62589">
        <ele>744.2</ele>
        <time>2022-06-21T13:30:17Z</time>
      </trkpt>
      <trkpt lat="43.42387" lon="2.6259">
        <ele>744.1</ele>
        <time>2022-06-21T13:30:18Z</time>
      </trkpt>
      <trkpt lat="43.42386" lon="2.62591">
        <ele>744</ele>
        <time>2022-06-21T13:30:19Z</time>
      </trkpt>
      <trkpt lat="43.42385" lon="2.62592">
        <ele>743.8</ele>
        <time>2022-06-21T13:30:20Z</time>
      </trkpt>
      <trkpt lat="43.42384" lon="2.62593">
        <ele>743.5</ele>
        <time>2022-06-21T13:30:21Z</time>
      </trkpt>
      <trkpt lat="43.42383" lon="2.62594">
        <ele>743.1</ele>
        <time>2022-06-21T13:30:23Z</time>
      </trkpt>
      <trkpt lat="43.42383" lon="2.62595">
        <ele>743</ele>
        <time>2022-06-21T13:30:24Z</time>
      </trkpt>
      <trkpt lat="43.42382" lon="2.62595">
        <ele>743</ele>
        <time>2022-06-21T13:30:25Z</time>
      </trkpt>
      <trkpt lat="43.42382" lon="2.62595">
        <ele>742.9</ele>
        <time>2022-06-21T13:30:26Z</time>
      </trkpt>
      <trkpt lat="43.42382" lon="2.62595">
        <ele>742.9</ele>
        <time>2022-06-21T13:30:27Z</time>
      </trkpt>
      <trkpt lat="43.42381" lon="2.62596">
        <ele>742.7</ele>
        <time>2022-06-21T13:30:28Z</time>
      </trkpt>
      <trkpt lat="43.4238" lon="2.62596">
        <ele>742.5</ele>
        <time>2022-06-21T13:30:30Z</time>
      </trkpt>
      <trkpt lat="43.42379" lon="2.62597">
        <ele>742.3</ele>
        <time>2022-06-21T13:30:31Z</time>
      </trkpt>
      <trkpt lat="43.42378" lon="2.62598">
        <ele>742</ele>
        <time>2022-06-21T13:30:32Z</time>
      </trkpt>
      <trkpt lat="43.42376" lon="2.62599">
        <ele>741.7</ele>
        <time>2022-06-21T13:30:34Z</time>
      </trkpt>
      <trkpt lat="43.42373" lon="2.62601">
        <ele>741</ele>
        <time>2022-06-21T13:30:35Z</time>
      </trkpt>
      <trkpt lat="43.42372" lon="2.62602">
        <ele>740.8</ele>
        <time>2022-06-21T13:30:36Z</time>
      </trkpt>
      <trkpt lat="43.42371" lon="2.62602">
        <ele>740.5</ele>
        <time>2022-06-21T13:30:37Z</time>
      </trkpt>
      <trkpt lat="43.4237" lon="2.62603">
        <ele>740.2</ele>
        <time>2022-06-21T13:30:38Z</time>
      </trkpt>
      <trkpt lat="43.42368" lon="2.62604">
        <ele>740</ele>
        <time>2022-06-21T13:30:40Z</time>
      </trkpt>
      <trkpt lat="43.42368" lon="2.62605">
        <ele>739.8</ele>
        <time>2022-06-21T13:30:41Z</time>
      </trkpt>
      <trkpt lat="43.42367" lon="2.62605">
        <ele>739.7</ele>
        <time>2022-06-21T13:30:42Z</time>
      </trkpt>
      <trkpt lat="43.42367" lon="2.62605">
        <ele>739.6</ele>
        <time>2022-06-21T13:30:43Z</time>
      </trkpt>
      <trkpt lat="43.42367" lon="2.62605">
        <ele>739.6</ele>
        <time>2022-06-21T13:30:44Z</time>
      </trkpt>
      <trkpt lat="43.42367" lon="2.62605">
        <ele>739.6</ele>
        <time>2022-06-21T13:30:45Z</time>
      </trkpt>
      <trkpt lat="43.42367" lon="2.62606">
        <ele>739.6</ele>
        <time>2022-06-21T13:30:46Z</time>
      </trkpt>
      <trkpt lat="43.42367" lon="2.62606">
        <ele>739.5</ele>
        <time>2022-06-21T13:30:48Z</time>
      </trkpt>
      <trkpt lat="43.42367" lon="2.62607">
        <ele>739.4</ele>
        <time>2022-06-21T13:30:49Z</time>
      </trkpt>
      <trkpt lat="43.42366" lon="2.62608">
        <ele>739.2</ele>
        <time>2022-06-21T13:30:50Z</time>
      </trkpt>
      <trkpt lat="43.42365" lon="2.62609">
        <ele>739</ele>
        <time>2022-06-21T13:30:51Z</time>
      </trkpt>
      <trkpt lat="43.42363" lon="2.62612">
        <ele>738.3</ele>
        <time>2022-06-21T13:30:53Z</time>
      </trkpt>
      <trkpt lat="43.42362" lon="2.62613">
        <ele>738.1</ele>
        <time>2022-06-21T13:30:54Z</time>
      </trkpt>
      <trkpt lat="43.42362" lon="2.62614">
        <ele>737.9</ele>
        <time>2022-06-21T13:30:55Z</time>
      </trkpt>
      <trkpt lat="43.42362" lon="2.62615">
        <ele>737.7</ele>
        <time>2022-06-21T13:30:56Z</time>
      </trkpt>
      <trkpt lat="43.42361" lon="2.62616">
        <ele>737.5</ele>
        <time>2022-06-21T13:30:57Z</time>
      </trkpt>
      <trkpt lat="43.4236" lon="2.62617">
        <ele>737.3</ele>
        <time>2022-06-21T13:30:58Z</time>
      </trkpt>
      <trkpt lat="43.4236" lon="2.62617">
        <ele>737.2</ele>
        <time>2022-06-21T13:31:00Z</time>
      </trkpt>
      <trkpt lat="43.42359" lon="2.62617">
        <ele>737</ele>
        <time>2022-06-21T13:31:01Z</time>
      </trkpt>
      <trkpt lat="43.42359" lon="2.62618">
        <ele>736.9</ele>
        <time>2022-06-21T13:31:02Z</time>
      </trkpt>
      <trkpt lat="43.42359" lon="2.62618">
        <ele>736.9</ele>
        <time>2022-06-21T13:31:03Z</time>
      </trkpt>
      <trkpt lat="43.42359" lon="2.62618">
        <ele>736.8</ele>
        <time>2022-06-21T13:31:04Z</time>
      </trkpt>
      <trkpt lat="43.42359" lon="2.62618">
        <ele>736.8</ele>
        <time>2022-06-21T13:31:06Z</time>
      </trkpt>
      <trkpt lat="43.42359" lon="2.62618">
        <ele>736.8</ele>
        <time>2022-06-21T13:31:07Z</time>
      </trkpt>
      <trkpt lat="43.42359" lon="2.62618">
        <ele>736.8</ele>
        <time>2022-06-21T13:31:08Z</time>
      </trkpt>
      <trkpt lat="43.42359" lon="2.62618">
        <ele>736.8</ele>
        <time>2022-06-21T13:31:09Z</time>
      </trkpt>
      <trkpt lat="43.42359" lon="2.62618">
        <ele>736.8</ele>
        <time>2022-06-21T13:31:10Z</time>
      </trkpt>
      <trkpt lat="43.42359" lon="2.62618">
        <ele>736.8</ele>
        <time>2022-06-21T13:31:11Z</time>
      </trkpt>
      <trkpt lat="43.42358" lon="2.62619">
        <ele>736.7</ele>
        <time>2022-06-21T13:31:12Z</time>
      </trkpt>
      <trkpt lat="43.42358" lon="2.62619">
        <ele>736.6</ele>
        <time>2022-06-21T13:31:14Z</time>
      </trkpt>
      <trkpt lat="43.42357" lon="2.6262">
        <ele>736.4</ele>
        <time>2022-06-21T13:31:15Z</time>
      </trkpt>
      <trkpt lat="43.42356" lon="2.6262">
        <ele>736.1</ele>
        <time>2022-06-21T13:31:16Z</time>
      </trkpt>
      <trkpt lat="43.42355" lon="2.62621">
        <ele>735.8</ele>
        <time>2022-06-21T13:31:17Z</time>
      </trkpt>
      <trkpt lat="43.42353" lon="2.62621">
        <ele>735.4</ele>
        <time>2022-06-21T13:31:18Z</time>
      </trkpt>
      <trkpt lat="43.42352" lon="2.62622">
        <ele>735.1</ele>
        <time>2022-06-21T13:31:19Z</time>
      </trkpt>
      <trkpt lat="43.4235" lon="2.62623">
        <ele>734.7</ele>
        <time>2022-06-21T13:31:20Z</time>
      </trkpt>
      <trkpt lat="43.42349" lon="2.62624">
        <ele>734.3</ele>
        <time>2022-06-21T13:31:21Z</time>
      </trkpt>
      <trkpt lat="43.42348" lon="2.62625">
        <ele>734</ele>
        <time>2022-06-21T13:31:22Z</time>
      </trkpt>
      <trkpt lat="43.42348" lon="2.62626">
        <ele>733.9</ele>
        <time>2022-06-21T13:31:23Z</time>
      </trkpt>
      <trkpt lat="43.42347" lon="2.62626">
        <ele>733.8</ele>
        <time>2022-06-21T13:31:25Z</time>
      </trkpt>
      <trkpt lat="43.42347" lon="2.62627">
        <ele>733.7</ele>
        <time>2022-06-21T13:31:26Z</time>
      </trkpt>
      <trkpt lat="43.42347" lon="2.62627">
        <ele>733.7</ele>
        <time>2022-06-21T13:31:27Z</time>
      </trkpt>
      <trkpt lat="43.42347" lon="2.62627">
        <ele>733.7</ele>
        <time>2022-06-21T13:31:28Z</time>
      </trkpt>
      <trkpt lat="43.42347" lon="2.62627">
        <ele>733.7</ele>
        <time>2022-06-21T13:31:29Z</time>
      </trkpt>
      <trkpt lat="43.42347" lon="2.62627">
        <ele>733.6</ele>
        <time>2022-06-21T13:31:30Z</time>
      </trkpt>
      <trkpt lat="43.42347" lon="2.62627">
        <ele>733.6</ele>
        <time>2022-06-21T13:31:31Z</time>
      </trkpt>
      <trkpt lat="43.42347" lon="2.62627">
        <ele>733.5</ele>
        <time>2022-06-21T13:31:32Z</time>
      </trkpt>
      <trkpt lat="43.42346" lon="2.62628">
        <ele>733.3</ele>
        <time>2022-06-21T13:31:33Z</time>
      </trkpt>
      <trkpt lat="43.42346" lon="2.6263">
        <ele>733.1</ele>
        <time>2022-06-21T13:31:35Z</time>
      </trkpt>
      <trkpt lat="43.42345" lon="2.62631">
        <ele>732.9</ele>
        <time>2022-06-21T13:31:36Z</time>
      </trkpt>
      <trkpt lat="43.42345" lon="2.62631">
        <ele>732.8</ele>
        <time>2022-06-21T13:31:37Z</time>
      </trkpt>
      <trkpt lat="43.42345" lon="2.62632">
        <ele>732.7</ele>
        <time>2022-06-21T13:31:38Z</time>
      </trkpt>
      <trkpt lat="43.42345" lon="2.62632">
        <ele>732.6</ele>
        <time>2022-06-21T13:31:39Z</time>
      </trkpt>
      <trkpt lat="43.42345" lon="2.62632">
        <ele>732.6</ele>
        <time>2022-06-21T13:31:40Z</time>
      </trkpt>
      <trkpt lat="43.42344" lon="2.62633">
        <ele>732.5</ele>
        <time>2022-06-21T13:31:41Z</time>
      </trkpt>
      <trkpt lat="43.42344" lon="2.62633">
        <ele>732.5</ele>
        <time>2022-06-21T13:31:42Z</time>
      </trkpt>
      <trkpt lat="43.42344" lon="2.62633">
        <ele>732.4</ele>
        <time>2022-06-21T13:31:43Z</time>
      </trkpt>
      <trkpt lat="43.42344" lon="2.62633">
        <ele>732.4</ele>
        <time>2022-06-21T13:31:45Z</time>
      </trkpt>
      <trkpt lat="43.42344" lon="2.62633">
        <ele>732.4</ele>
        <time>2022-06-21T13:31:46Z</time>
      </trkpt>
      <trkpt lat="43.42344" lon="2.62634">
        <ele>732.3</ele>
        <time>2022-06-21T13:31:47Z</time>
      </trkpt>
      <trkpt lat="43.42344" lon="2.62634">
        <ele>732.3</ele>
        <time>2022-06-21T13:31:48Z</time>
      </trkpt>
      <trkpt lat="43.42344" lon="2.62634">
        <ele>732.3</ele>
        <time>2022-06-21T13:31:49Z</time>
      </trkpt>
      <trkpt lat="43.42343" lon="2.62634">
        <ele>732.2</ele>
        <time>2022-06-21T13:31:50Z</time>
      </trkpt>
      <trkpt lat="43.42343" lon="2.62634">
        <ele>732.2</ele>
        <time>2022-06-21T13:31:51Z</time>
      </trkpt>
      <trkpt lat="43.42343" lon="2.62634">
        <ele>732.1</ele>
        <time>2022-06-21T13:31:52Z</time>
      </trkpt>
      <trkpt lat="43.42343" lon="2.62635">
        <ele>732.1</ele>
        <time>2022-06-21T13:31:53Z</time>
      </trkpt>
      <trkpt lat="43.42343" lon="2.62635">
        <ele>732.1</ele>
        <time>2022-06-21T13:31:54Z</time>
      </trkpt>
      <trkpt lat="43.42343" lon="2.62635">
        <ele>732</ele>
        <time>2022-06-21T13:31:55Z</time>
      </trkpt>
      <trkpt lat="43.42343" lon="2.62635">
        <ele>732</ele>
        <time>2022-06-21T13:31:56Z</time>
      </trkpt>
      <trkpt lat="43.42343" lon="2.62635">
        <ele>732</ele>
        <time>2022-06-21T13:31:57Z</time>
      </trkpt>
      <trkpt lat="43.42343" lon="2.62636">
        <ele>731.9</ele>
        <time>2022-06-21T13:31:58Z</time>
      </trkpt>
      <trkpt lat="43.42342" lon="2.62636">
        <ele>731.9</ele>
        <time>2022-06-21T13:31:59Z</time>
      </trkpt>
      <trkpt lat="43.42342" lon="2.62636">
        <ele>731.9</ele>
        <time>2022-06-21T13:32:01Z</time>
      </trkpt>
      <trkpt lat="43.42342" lon="2.62636">
        <ele>731.8</ele>
        <time>2022-06-21T13:32:02Z</time>
      </trkpt>
      <trkpt lat="43.42342" lon="2.62636">
        <ele>731.8</ele>
        <time>2022-06-21T13:32:03Z</time>
      </trkpt>
      <trkpt lat="43.42342" lon="2.62636">
        <ele>731.8</ele>
        <time>2022-06-21T13:32:04Z</time>
      </trkpt>
      <trkpt lat="43.42342" lon="2.62637">
        <ele>731.7</ele>
        <time>2022-06-21T13:32:05Z</time>
      </trkpt>
      <trkpt lat="43.42342" lon="2.62637">
        <ele>731.7</ele>
        <time>2022-06-21T13:32:06Z</time>
      </trkpt>
      <trkpt lat="43.42342" lon="2.62637">
        <ele>731.7</ele>
        <time>2022-06-21T13:32:07Z</time>
      </trkpt>
      <trkpt lat="43.42341" lon="2.62637">
        <ele>731.6</ele>
        <time>2022-06-21T13:32:08Z</time>
      </trkpt>
      <trkpt lat="43.42341" lon="2.62637">
        <ele>731.6</ele>
        <time>2022-06-21T13:32:09Z</time>
      </trkpt>
      <trkpt lat="43.42341" lon="2.62638">
        <ele>731.6</ele>
        <time>2022-06-21T13:32:10Z</time>
      </trkpt>
      <trkpt lat="43.42341" lon="2.62638">
        <ele>731.5</ele>
        <time>2022-06-21T13:32:12Z</time>
      </trkpt>
      <trkpt lat="43.42341" lon="2.62638">
        <ele>731.5</ele>
        <time>2022-06-21T13:32:13Z</time>
      </trkpt>
      <trkpt lat="43.42341" lon="2.62638">
        <ele>731.5</ele>
        <time>2022-06-21T13:32:14Z</time>
      </trkpt>
      <trkpt lat="43.42338" lon="2.6264">
        <ele>730.9</ele>
        <time>2022-06-21T13:32:15Z</time>
      </trkpt>
      <trkpt lat="43.42337" lon="2.62641">
        <ele>730.7</ele>
        <time>2022-06-21T13:32:16Z</time>
      </trkpt>
      <trkpt lat="43.42334" lon="2.62643">
        <ele>730.1</ele>
        <time>2022-06-21T13:32:17Z</time>
      </trkpt>
      <trkpt lat="43.42333" lon="2.62644">
        <ele>729.8</ele>
        <time>2022-06-21T13:32:19Z</time>
      </trkpt>
      <trkpt lat="43.42331" lon="2.62645">
        <ele>729.6</ele>
        <time>2022-06-21T13:32:20Z</time>
      </trkpt>
      <trkpt lat="43.4233" lon="2.62646">
        <ele>729.3</ele>
        <time>2022-06-21T13:32:21Z</time>
      </trkpt>
      <trkpt lat="43.42327" lon="2.6265">
        <ele>728.6</ele>
        <time>2022-06-21T13:32:22Z</time>
      </trkpt>
      <trkpt lat="43.42324" lon="2.62654">
        <ele>727.9</ele>
        <time>2022-06-21T13:32:23Z</time>
      </trkpt>
      <trkpt lat="43.42322" lon="2.62657">
        <ele>727.4</ele>
        <time>2022-06-21T13:32:24Z</time>
      </trkpt>
      <trkpt lat="43.42321" lon="2.62658">
        <ele>727.1</ele>
        <time>2022-06-21T13:32:25Z</time>
      </trkpt>
      <trkpt lat="43.42319" lon="2.6266">
        <ele>726.7</ele>
        <time>2022-06-21T13:32:27Z</time>
      </trkpt>
      <trkpt lat="43.42316" lon="2.62663">
        <ele>726.2</ele>
        <time>2022-06-21T13:32:28Z</time>
      </trkpt>
      <trkpt lat="43.42315" lon="2.62664">
        <ele>726.1</ele>
        <time>2022-06-21T13:32:29Z</time>
      </trkpt>
      <trkpt lat="43.42313" lon="2.62665">
        <ele>725.9</ele>
        <time>2022-06-21T13:32:30Z</time>
      </trkpt>
      <trkpt lat="43.42311" lon="2.62666">
        <ele>725.6</ele>
        <time>2022-06-21T13:32:32Z</time>
      </trkpt>
      <trkpt lat="43.42309" lon="2.62667">
        <ele>725.3</ele>
        <time>2022-06-21T13:32:33Z</time>
      </trkpt>
      <trkpt lat="43.42308" lon="2.62668">
        <ele>725.2</ele>
        <time>2022-06-21T13:32:34Z</time>
      </trkpt>
      <trkpt lat="43.42307" lon="2.62668">
        <ele>725</ele>
        <time>2022-06-21T13:32:35Z</time>
      </trkpt>
      <trkpt lat="43.42306" lon="2.62669">
        <ele>724.9</ele>
        <time>2022-06-21T13:32:36Z</time>
      </trkpt>
      <trkpt lat="43.42306" lon="2.62669">
        <ele>724.9</ele>
        <time>2022-06-21T13:32:37Z</time>
      </trkpt>
      <trkpt lat="43.42305" lon="2.62669">
        <ele>724.8</ele>
        <time>2022-06-21T13:32:38Z</time>
      </trkpt>
      <trkpt lat="43.42304" lon="2.62669">
        <ele>724.6</ele>
        <time>2022-06-21T13:32:39Z</time>
      </trkpt>
      <trkpt lat="43.42303" lon="2.6267">
        <ele>724.5</ele>
        <time>2022-06-21T13:32:40Z</time>
      </trkpt>
      <trkpt lat="43.42302" lon="2.6267">
        <ele>724.4</ele>
        <time>2022-06-21T13:32:41Z</time>
      </trkpt>
      <trkpt lat="43.423" lon="2.62671">
        <ele>724.2</ele>
        <time>2022-06-21T13:32:43Z</time>
      </trkpt>
      <trkpt lat="43.42299" lon="2.62671">
        <ele>724.1</ele>
        <time>2022-06-21T13:32:44Z</time>
      </trkpt>
      <trkpt lat="43.42298" lon="2.62671">
        <ele>723.9</ele>
        <time>2022-06-21T13:32:45Z</time>
      </trkpt>
      <trkpt lat="43.42297" lon="2.62672">
        <ele>723.8</ele>
        <time>2022-06-21T13:32:46Z</time>
      </trkpt>
      <trkpt lat="43.42295" lon="2.62672">
        <ele>723.5</ele>
        <time>2022-06-21T13:32:47Z</time>
      </trkpt>
      <trkpt lat="43.42292" lon="2.62673">
        <ele>723.1</ele>
        <time>2022-06-21T13:32:48Z</time>
      </trkpt>
      <trkpt lat="43.4229" lon="2.62674">
        <ele>723</ele>
        <time>2022-06-21T13:32:49Z</time>
      </trkpt>
      <trkpt lat="43.42289" lon="2.62674">
        <ele>722.8</ele>
        <time>2022-06-21T13:32:50Z</time>
      </trkpt>
      <trkpt lat="43.42288" lon="2.62675">
        <ele>722.7</ele>
        <time>2022-06-21T13:32:51Z</time>
      </trkpt>
      <trkpt lat="43.42287" lon="2.62675">
        <ele>722.5</ele>
        <time>2022-06-21T13:32:52Z</time>
      </trkpt>
      <trkpt lat="43.42286" lon="2.62676">
        <ele>722.4</ele>
        <time>2022-06-21T13:32:53Z</time>
      </trkpt>
      <trkpt lat="43.42285" lon="2.62676">
        <ele>722.3</ele>
        <time>2022-06-21T13:32:54Z</time>
      </trkpt>
      <trkpt lat="43.42284" lon="2.62677">
        <ele>722.1</ele>
        <time>2022-06-21T13:32:55Z</time>
      </trkpt>
      <trkpt lat="43.42283" lon="2.62678">
        <ele>721.9</ele>
        <time>2022-06-21T13:32:56Z</time>
      </trkpt>
      <trkpt lat="43.42281" lon="2.62678">
        <ele>721.7</ele>
        <time>2022-06-21T13:32:57Z</time>
      </trkpt>
      <trkpt lat="43.42279" lon="2.62678">
        <ele>721.5</ele>
        <time>2022-06-21T13:32:58Z</time>
      </trkpt>
      <trkpt lat="43.42279" lon="2.62679">
        <ele>721.4</ele>
        <time>2022-06-21T13:32:59Z</time>
      </trkpt>
      <trkpt lat="43.42278" lon="2.62679">
        <ele>721.3</ele>
        <time>2022-06-21T13:33:00Z</time>
      </trkpt>
      <trkpt lat="43.42276" lon="2.62679">
        <ele>721</ele>
        <time>2022-06-21T13:33:01Z</time>
      </trkpt>
      <trkpt lat="43.42275" lon="2.62679">
        <ele>720.9</ele>
        <time>2022-06-21T13:33:02Z</time>
      </trkpt>
      <trkpt lat="43.42274" lon="2.62679">
        <ele>720.8</ele>
        <time>2022-06-21T13:33:03Z</time>
      </trkpt>
      <trkpt lat="43.42273" lon="2.6268">
        <ele>720.6</ele>
        <time>2022-06-21T13:33:04Z</time>
      </trkpt>
      <trkpt lat="43.42272" lon="2.6268">
        <ele>720.5</ele>
        <time>2022-06-21T13:33:05Z</time>
      </trkpt>
      <trkpt lat="43.42271" lon="2.62681">
        <ele>720.3</ele>
        <time>2022-06-21T13:33:06Z</time>
      </trkpt>
      <trkpt lat="43.42269" lon="2.62683">
        <ele>720.1</ele>
        <time>2022-06-21T13:33:08Z</time>
      </trkpt>
      <trkpt lat="43.42269" lon="2.62684">
        <ele>720</ele>
        <time>2022-06-21T13:33:09Z</time>
      </trkpt>
      <trkpt lat="43.42268" lon="2.62685">
        <ele>719.9</ele>
        <time>2022-06-21T13:33:10Z</time>
      </trkpt>
      <trkpt lat="43.42267" lon="2.62686">
        <ele>719.7</ele>
        <time>2022-06-21T13:33:11Z</time>
      </trkpt>
      <trkpt lat="43.42266" lon="2.62688">
        <ele>719.6</ele>
        <time>2022-06-21T13:33:12Z</time>
      </trkpt>
      <trkpt lat="43.42265" lon="2.62689">
        <ele>719.4</ele>
        <time>2022-06-21T13:33:14Z</time>
      </trkpt>
      <trkpt lat="43.42265" lon="2.62691">
        <ele>719.2</ele>
        <time>2022-06-21T13:33:15Z</time>
      </trkpt>
      <trkpt lat="43.42265" lon="2.62692">
        <ele>719.1</ele>
        <time>2022-06-21T13:33:16Z</time>
      </trkpt>
      <trkpt lat="43.42265" lon="2.62693">
        <ele>719</ele>
        <time>2022-06-21T13:33:17Z</time>
      </trkpt>
      <trkpt lat="43.42265" lon="2.62694">
        <ele>718.9</ele>
        <time>2022-06-21T13:33:18Z</time>
      </trkpt>
      <trkpt lat="43.42265" lon="2.62695">
        <ele>718.8</ele>
        <time>2022-06-21T13:33:19Z</time>
      </trkpt>
      <trkpt lat="43.42265" lon="2.62697">
        <ele>718.7</ele>
        <time>2022-06-21T13:33:20Z</time>
      </trkpt>
      <trkpt lat="43.42265" lon="2.62699">
        <ele>718.5</ele>
        <time>2022-06-21T13:33:21Z</time>
      </trkpt>
      <trkpt lat="43.42265" lon="2.62702">
        <ele>718.2</ele>
        <time>2022-06-21T13:33:22Z</time>
      </trkpt>
      <trkpt lat="43.42264" lon="2.62704">
        <ele>718.1</ele>
        <time>2022-06-21T13:33:23Z</time>
      </trkpt>
      <trkpt lat="43.42264" lon="2.62705">
        <ele>718</ele>
        <time>2022-06-21T13:33:24Z</time>
      </trkpt>
      <trkpt lat="43.42263" lon="2.62706">
        <ele>717.8</ele>
        <time>2022-06-21T13:33:26Z</time>
      </trkpt>
      <trkpt lat="43.42263" lon="2.62707">
        <ele>717.7</ele>
        <time>2022-06-21T13:33:27Z</time>
      </trkpt>
      <trkpt lat="43.42263" lon="2.62708">
        <ele>717.7</ele>
        <time>2022-06-21T13:33:28Z</time>
      </trkpt>
      <trkpt lat="43.42262" lon="2.62711">
        <ele>717.4</ele>
        <time>2022-06-21T13:33:29Z</time>
      </trkpt>
      <trkpt lat="43.42262" lon="2.62712">
        <ele>717.3</ele>
        <time>2022-06-21T13:33:30Z</time>
      </trkpt>
      <trkpt lat="43.42261" lon="2.62713">
        <ele>717.2</ele>
        <time>2022-06-21T13:33:31Z</time>
      </trkpt>
      <trkpt lat="43.42261" lon="2.62715">
        <ele>717</ele>
        <time>2022-06-21T13:33:32Z</time>
      </trkpt>
      <trkpt lat="43.4226" lon="2.62717">
        <ele>716.8</ele>
        <time>2022-06-21T13:33:33Z</time>
      </trkpt>
      <trkpt lat="43.42259" lon="2.62719">
        <ele>716.6</ele>
        <time>2022-06-21T13:33:34Z</time>
      </trkpt>
      <trkpt lat="43.42258" lon="2.6272">
        <ele>716.4</ele>
        <time>2022-06-21T13:33:35Z</time>
      </trkpt>
      <trkpt lat="43.42258" lon="2.62721">
        <ele>716.3</ele>
        <time>2022-06-21T13:33:36Z</time>
      </trkpt>
      <trkpt lat="43.42257" lon="2.62722">
        <ele>716.2</ele>
        <time>2022-06-21T13:33:37Z</time>
      </trkpt>
      <trkpt lat="43.42256" lon="2.62723">
        <ele>716</ele>
        <time>2022-06-21T13:33:38Z</time>
      </trkpt>
      <trkpt lat="43.42256" lon="2.62724">
        <ele>716</ele>
        <time>2022-06-21T13:33:40Z</time>
      </trkpt>
      <trkpt lat="43.42255" lon="2.62725">
        <ele>715.9</ele>
        <time>2022-06-21T13:33:41Z</time>
      </trkpt>
      <trkpt lat="43.42254" lon="2.62726">
        <ele>715.7</ele>
        <time>2022-06-21T13:33:42Z</time>
      </trkpt>
      <trkpt lat="43.42254" lon="2.62727">
        <ele>715.6</ele>
        <time>2022-06-21T13:33:43Z</time>
      </trkpt>
      <trkpt lat="43.42252" lon="2.62728">
        <ele>715.4</ele>
        <time>2022-06-21T13:33:44Z</time>
      </trkpt>
      <trkpt lat="43.42251" lon="2.6273">
        <ele>715.2</ele>
        <time>2022-06-21T13:33:45Z</time>
      </trkpt>
      <trkpt lat="43.42249" lon="2.62731">
        <ele>714.9</ele>
        <time>2022-06-21T13:33:46Z</time>
      </trkpt>
      <trkpt lat="43.42248" lon="2.62731">
        <ele>714.8</ele>
        <time>2022-06-21T13:33:47Z</time>
      </trkpt>
      <trkpt lat="43.42248" lon="2.62732">
        <ele>714.6</ele>
        <time>2022-06-21T13:33:48Z</time>
      </trkpt>
      <trkpt lat="43.42246" lon="2.62732">
        <ele>714.5</ele>
        <time>2022-06-21T13:33:49Z</time>
      </trkpt>
      <trkpt lat="43.42245" lon="2.62732">
        <ele>714.2</ele>
        <time>2022-06-21T13:33:50Z</time>
      </trkpt>
      <trkpt lat="43.42243" lon="2.62731">
        <ele>713.9</ele>
        <time>2022-06-21T13:33:51Z</time>
      </trkpt>
      <trkpt lat="43.42242" lon="2.62731">
        <ele>713.8</ele>
        <time>2022-06-21T13:33:53Z</time>
      </trkpt>
      <trkpt lat="43.42241" lon="2.6273">
        <ele>713.6</ele>
        <time>2022-06-21T13:33:54Z</time>
      </trkpt>
      <trkpt lat="43.4224" lon="2.6273">
        <ele>713.5</ele>
        <time>2022-06-21T13:33:55Z</time>
      </trkpt>
      <trkpt lat="43.42239" lon="2.6273">
        <ele>713.3</ele>
        <time>2022-06-21T13:33:56Z</time>
      </trkpt>
      <trkpt lat="43.42238" lon="2.6273">
        <ele>713.2</ele>
        <time>2022-06-21T13:33:57Z</time>
      </trkpt>
      <trkpt lat="43.42238" lon="2.6273">
        <ele>713.1</ele>
        <time>2022-06-21T13:33:58Z</time>
      </trkpt>
      <trkpt lat="43.42237" lon="2.62731">
        <ele>713</ele>
        <time>2022-06-21T13:33:59Z</time>
      </trkpt>
      <trkpt lat="43.42236" lon="2.62731">
        <ele>712.9</ele>
        <time>2022-06-21T13:34:00Z</time>
      </trkpt>
      <trkpt lat="43.42236" lon="2.62731">
        <ele>712.8</ele>
        <time>2022-06-21T13:34:01Z</time>
      </trkpt>
      <trkpt lat="43.42234" lon="2.62732">
        <ele>712.5</ele>
        <time>2022-06-21T13:34:02Z</time>
      </trkpt>
      <trkpt lat="43.42233" lon="2.62732">
        <ele>712.4</ele>
        <time>2022-06-21T13:34:03Z</time>
      </trkpt>
      <trkpt lat="43.42232" lon="2.62732">
        <ele>712.2</ele>
        <time>2022-06-21T13:34:05Z</time>
      </trkpt>
      <trkpt lat="43.42232" lon="2.62733">
        <ele>712.1</ele>
        <time>2022-06-21T13:34:06Z</time>
      </trkpt>
      <trkpt lat="43.4223" lon="2.62733">
        <ele>711.7</ele>
        <time>2022-06-21T13:34:07Z</time>
      </trkpt>
      <trkpt lat="43.42229" lon="2.62734">
        <ele>711.6</ele>
        <time>2022-06-21T13:34:08Z</time>
      </trkpt>
      <trkpt lat="43.42228" lon="2.62735">
        <ele>711.5</ele>
        <time>2022-06-21T13:34:09Z</time>
      </trkpt>
      <trkpt lat="43.42226" lon="2.62736">
        <ele>711.1</ele>
        <time>2022-06-21T13:34:10Z</time>
      </trkpt>
      <trkpt lat="43.42226" lon="2.62737">
        <ele>711</ele>
        <time>2022-06-21T13:34:11Z</time>
      </trkpt>
      <trkpt lat="43.42225" lon="2.62738">
        <ele>710.8</ele>
        <time>2022-06-21T13:34:12Z</time>
      </trkpt>
      <trkpt lat="43.42224" lon="2.6274">
        <ele>710.5</ele>
        <time>2022-06-21T13:34:13Z</time>
      </trkpt>
      <trkpt lat="43.42223" lon="2.62741">
        <ele>710.3</ele>
        <time>2022-06-21T13:34:14Z</time>
      </trkpt>
      <trkpt lat="43.42223" lon="2.62742">
        <ele>710.2</ele>
        <time>2022-06-21T13:34:15Z</time>
      </trkpt>
      <trkpt lat="43.42222" lon="2.62743">
        <ele>710</ele>
        <time>2022-06-21T13:34:16Z</time>
      </trkpt>
      <trkpt lat="43.42222" lon="2.62745">
        <ele>709.9</ele>
        <time>2022-06-21T13:34:17Z</time>
      </trkpt>
      <trkpt lat="43.42222" lon="2.62746">
        <ele>709.7</ele>
        <time>2022-06-21T13:34:19Z</time>
      </trkpt>
      <trkpt lat="43.42222" lon="2.62747">
        <ele>709.6</ele>
        <time>2022-06-21T13:34:20Z</time>
      </trkpt>
      <trkpt lat="43.42221" lon="2.62748">
        <ele>709.4</ele>
        <time>2022-06-21T13:34:21Z</time>
      </trkpt>
      <trkpt lat="43.42221" lon="2.62749">
        <ele>709.3</ele>
        <time>2022-06-21T13:34:22Z</time>
      </trkpt>
      <trkpt lat="43.4222" lon="2.6275">
        <ele>709.1</ele>
        <time>2022-06-21T13:34:23Z</time>
      </trkpt>
      <trkpt lat="43.42219" lon="2.62751">
        <ele>709</ele>
        <time>2022-06-21T13:34:24Z</time>
      </trkpt>
      <trkpt lat="43.42219" lon="2.62752">
        <ele>708.8</ele>
        <time>2022-06-21T13:34:25Z</time>
      </trkpt>
      <trkpt lat="43.42218" lon="2.62753">
        <ele>708.6</ele>
        <time>2022-06-21T13:34:27Z</time>
      </trkpt>
      <trkpt lat="43.42217" lon="2.62754">
        <ele>708.5</ele>
        <time>2022-06-21T13:34:28Z</time>
      </trkpt>
      <trkpt lat="43.42217" lon="2.62754">
        <ele>708.4</ele>
        <time>2022-06-21T13:34:29Z</time>
      </trkpt>
      <trkpt lat="43.42217" lon="2.62755">
        <ele>708.4</ele>
        <time>2022-06-21T13:34:30Z</time>
      </trkpt>
      <trkpt lat="43.42217" lon="2.62756">
        <ele>708.3</ele>
        <time>2022-06-21T13:34:31Z</time>
      </trkpt>
      <trkpt lat="43.42217" lon="2.62756">
        <ele>708.2</ele>
        <time>2022-06-21T13:34:32Z</time>
      </trkpt>
      <trkpt lat="43.42217" lon="2.62757">
        <ele>708.1</ele>
        <time>2022-06-21T13:34:33Z</time>
      </trkpt>
      <trkpt lat="43.42216" lon="2.62758">
        <ele>708</ele>
        <time>2022-06-21T13:34:35Z</time>
      </trkpt>
      <trkpt lat="43.42216" lon="2.62759">
        <ele>707.9</ele>
        <time>2022-06-21T13:34:36Z</time>
      </trkpt>
      <trkpt lat="43.42216" lon="2.62759">
        <ele>707.8</ele>
        <time>2022-06-21T13:34:37Z</time>
      </trkpt>
      <trkpt lat="43.42216" lon="2.6276">
        <ele>707.8</ele>
        <time>2022-06-21T13:34:38Z</time>
      </trkpt>
      <trkpt lat="43.42216" lon="2.6276">
        <ele>707.8</ele>
        <time>2022-06-21T13:34:39Z</time>
      </trkpt>
      <trkpt lat="43.42216" lon="2.6276">
        <ele>707.8</ele>
        <time>2022-06-21T13:34:40Z</time>
      </trkpt>
      <trkpt lat="43.42216" lon="2.6276">
        <ele>707.8</ele>
        <time>2022-06-21T13:34:42Z</time>
      </trkpt>
      <trkpt lat="43.42216" lon="2.6276">
        <ele>707.7</ele>
        <time>2022-06-21T13:34:43Z</time>
      </trkpt>
      <trkpt lat="43.42216" lon="2.6276">
        <ele>707.7</ele>
        <time>2022-06-21T13:34:44Z</time>
      </trkpt>
      <trkpt lat="43.42215" lon="2.62761">
        <ele>707.6</ele>
        <time>2022-06-21T13:34:46Z</time>
      </trkpt>
      <trkpt lat="43.42214" lon="2.62762">
        <ele>707.4</ele>
        <time>2022-06-21T13:34:47Z</time>
      </trkpt>
      <trkpt lat="43.42213" lon="2.62763">
        <ele>707.1</ele>
        <time>2022-06-21T13:34:48Z</time>
      </trkpt>
      <trkpt lat="43.4221" lon="2.62766">
        <ele>706.6</ele>
        <time>2022-06-21T13:34:49Z</time>
      </trkpt>
      <trkpt lat="43.42209" lon="2.62768">
        <ele>706.4</ele>
        <time>2022-06-21T13:34:50Z</time>
      </trkpt>
      <trkpt lat="43.42207" lon="2.6277">
        <ele>705.9</ele>
        <time>2022-06-21T13:34:51Z</time>
      </trkpt>
      <trkpt lat="43.42206" lon="2.62772">
        <ele>705.5</ele>
        <time>2022-06-21T13:34:53Z</time>
      </trkpt>
      <trkpt lat="43.42203" lon="2.62776">
        <ele>704.8</ele>
        <time>2022-06-21T13:34:54Z</time>
      </trkpt>
      <trkpt lat="43.42202" lon="2.62777">
        <ele>703.2</ele>
        <time>2022-06-21T13:34:55Z</time>
      </trkpt>
      <trkpt lat="43.42201" lon="2.62778">
        <ele>703</ele>
        <time>2022-06-21T13:34:56Z</time>
      </trkpt>
      <trkpt lat="43.422" lon="2.62778">
        <ele>702.9</ele>
        <time>2022-06-21T13:34:57Z</time>
      </trkpt>
      <trkpt lat="43.42199" lon="2.62779">
        <ele>702.8</ele>
        <time>2022-06-21T13:34:58Z</time>
      </trkpt>
      <trkpt lat="43.42197" lon="2.62779">
        <ele>702.6</ele>
        <time>2022-06-21T13:34:59Z</time>
      </trkpt>
      <trkpt lat="43.42197" lon="2.62779">
        <ele>702.5</ele>
        <time>2022-06-21T13:35:00Z</time>
      </trkpt>
      <trkpt lat="43.42196" lon="2.62779">
        <ele>702.4</ele>
        <time>2022-06-21T13:35:01Z</time>
      </trkpt>
      <trkpt lat="43.42195" lon="2.62779">
        <ele>702.3</ele>
        <time>2022-06-21T13:35:03Z</time>
      </trkpt>
      <trkpt lat="43.42195" lon="2.62779">
        <ele>702.2</ele>
        <time>2022-06-21T13:35:04Z</time>
      </trkpt>
      <trkpt lat="43.42194" lon="2.62778">
        <ele>702.1</ele>
        <time>2022-06-21T13:35:05Z</time>
      </trkpt>
      <trkpt lat="43.42193" lon="2.62778">
        <ele>702</ele>
        <time>2022-06-21T13:35:06Z</time>
      </trkpt>
      <trkpt lat="43.42193" lon="2.62778">
        <ele>701.9</ele>
        <time>2022-06-21T13:35:07Z</time>
      </trkpt>
      <trkpt lat="43.42192" lon="2.62778">
        <ele>701.9</ele>
        <time>2022-06-21T13:35:08Z</time>
      </trkpt>
      <trkpt lat="43.4219" lon="2.62777">
        <ele>701.7</ele>
        <time>2022-06-21T13:35:10Z</time>
      </trkpt>
      <trkpt lat="43.42189" lon="2.62777">
        <ele>701.4</ele>
        <time>2022-06-21T13:35:11Z</time>
      </trkpt>
      <trkpt lat="43.42188" lon="2.62775">
        <ele>701.2</ele>
        <time>2022-06-21T13:35:12Z</time>
      </trkpt>
      <trkpt lat="43.42186" lon="2.62774">
        <ele>701</ele>
        <time>2022-06-21T13:35:13Z</time>
      </trkpt>
      <trkpt lat="43.42186" lon="2.62773">
        <ele>700.9</ele>
        <time>2022-06-21T13:35:14Z</time>
      </trkpt>
      <trkpt lat="43.42185" lon="2.62772">
        <ele>700.8</ele>
        <time>2022-06-21T13:35:15Z</time>
      </trkpt>
      <trkpt lat="43.42185" lon="2.62771">
        <ele>700.7</ele>
        <time>2022-06-21T13:35:16Z</time>
      </trkpt>
      <trkpt lat="43.42185" lon="2.6277">
        <ele>700.7</ele>
        <time>2022-06-21T13:35:17Z</time>
      </trkpt>
      <trkpt lat="43.42185" lon="2.6277">
        <ele>700.6</ele>
        <time>2022-06-21T13:35:18Z</time>
      </trkpt>
      <trkpt lat="43.42185" lon="2.6277">
        <ele>700.6</ele>
        <time>2022-06-21T13:35:20Z</time>
      </trkpt>
      <trkpt lat="43.42185" lon="2.62769">
        <ele>700.5</ele>
        <time>2022-06-21T13:35:21Z</time>
      </trkpt>
      <trkpt lat="43.42185" lon="2.62768">
        <ele>700.4</ele>
        <time>2022-06-21T13:35:22Z</time>
      </trkpt>
      <trkpt lat="43.42185" lon="2.62768">
        <ele>700.4</ele>
        <time>2022-06-21T13:35:23Z</time>
      </trkpt>
      <trkpt lat="43.42185" lon="2.62767">
        <ele>700.3</ele>
        <time>2022-06-21T13:35:24Z</time>
      </trkpt>
      <trkpt lat="43.42185" lon="2.62767">
        <ele>700.3</ele>
        <time>2022-06-21T13:35:25Z</time>
      </trkpt>
      <trkpt lat="43.42185" lon="2.62767">
        <ele>700.3</ele>
        <time>2022-06-21T13:35:26Z</time>
      </trkpt>
      <trkpt lat="43.42184" lon="2.62766">
        <ele>700.2</ele>
        <time>2022-06-21T13:35:28Z</time>
      </trkpt>
      <trkpt lat="43.42184" lon="2.62766">
        <ele>700.2</ele>
        <time>2022-06-21T13:35:29Z</time>
      </trkpt>
      <trkpt lat="43.42184" lon="2.62766">
        <ele>700.2</ele>
        <time>2022-06-21T13:35:30Z</time>
      </trkpt>
      <trkpt lat="43.42184" lon="2.62766">
        <ele>700.2</ele>
        <time>2022-06-21T13:35:31Z</time>
      </trkpt>
      <trkpt lat="43.42184" lon="2.62766">
        <ele>700.2</ele>
        <time>2022-06-21T13:35:33Z</time>
      </trkpt>
      <trkpt lat="43.42184" lon="2.62765">
        <ele>700.1</ele>
        <time>2022-06-21T13:35:34Z</time>
      </trkpt>
      <trkpt lat="43.42184" lon="2.62765">
        <ele>700.1</ele>
        <time>2022-06-21T13:35:35Z</time>
      </trkpt>
      <trkpt lat="43.42184" lon="2.62765">
        <ele>700.1</ele>
        <time>2022-06-21T13:35:36Z</time>
      </trkpt>
      <trkpt lat="43.42184" lon="2.62765">
        <ele>700.1</ele>
        <time>2022-06-21T13:35:37Z</time>
      </trkpt>
      <trkpt lat="43.42184" lon="2.62764">
        <ele>700</ele>
        <time>2022-06-21T13:35:39Z</time>
      </trkpt>
      <trkpt lat="43.42184" lon="2.62764">
        <ele>700</ele>
        <time>2022-06-21T13:35:40Z</time>
      </trkpt>
      <trkpt lat="43.42184" lon="2.62764">
        <ele>700</ele>
        <time>2022-06-21T13:35:41Z</time>
      </trkpt>
      <trkpt lat="43.42183" lon="2.62764">
        <ele>699.9</ele>
        <time>2022-06-21T13:35:42Z</time>
      </trkpt>
      <trkpt lat="43.42182" lon="2.62763">
        <ele>699.7</ele>
        <time>2022-06-21T13:35:43Z</time>
      </trkpt>
      <trkpt lat="43.42182" lon="2.62763">
        <ele>699.6</ele>
        <time>2022-06-21T13:35:44Z</time>
      </trkpt>
      <trkpt lat="43.42181" lon="2.62763">
        <ele>699.5</ele>
        <time>2022-06-21T13:35:45Z</time>
      </trkpt>
      <trkpt lat="43.4218" lon="2.62763">
        <ele>699.5</ele>
        <time>2022-06-21T13:35:46Z</time>
      </trkpt>
      <trkpt lat="43.4218" lon="2.62763">
        <ele>699.5</ele>
        <time>2022-06-21T13:35:47Z</time>
      </trkpt>
      <trkpt lat="43.4218" lon="2.62763">
        <ele>699.4</ele>
        <time>2022-06-21T13:35:48Z</time>
      </trkpt>
      <trkpt lat="43.4218" lon="2.62763">
        <ele>699.4</ele>
        <time>2022-06-21T13:35:49Z</time>
      </trkpt>
      <trkpt lat="43.42179" lon="2.62763">
        <ele>699.4</ele>
        <time>2022-06-21T13:35:50Z</time>
      </trkpt>
      <trkpt lat="43.42179" lon="2.62763">
        <ele>699.3</ele>
        <time>2022-06-21T13:35:52Z</time>
      </trkpt>
      <trkpt lat="43.42179" lon="2.62763">
        <ele>699.3</ele>
        <time>2022-06-21T13:35:53Z</time>
      </trkpt>
      <trkpt lat="43.42178" lon="2.62763">
        <ele>699.2</ele>
        <time>2022-06-21T13:35:54Z</time>
      </trkpt>
      <trkpt lat="43.42178" lon="2.62763">
        <ele>699.2</ele>
        <time>2022-06-21T13:35:56Z</time>
      </trkpt>
      <trkpt lat="43.42178" lon="2.62763">
        <ele>699.2</ele>
        <time>2022-06-21T13:35:57Z</time>
      </trkpt>
      <trkpt lat="43.42178" lon="2.62763">
        <ele>699.2</ele>
        <time>2022-06-21T13:35:58Z</time>
      </trkpt>
      <trkpt lat="43.42178" lon="2.62763">
        <ele>699.1</ele>
        <time>2022-06-21T13:35:59Z</time>
      </trkpt>
      <trkpt lat="43.42178" lon="2.62763">
        <ele>699.1</ele>
        <time>2022-06-21T13:36:00Z</time>
      </trkpt>
      <trkpt lat="43.42178" lon="2.62764">
        <ele>699.1</ele>
        <time>2022-06-21T13:36:01Z</time>
      </trkpt>
      <trkpt lat="43.42178" lon="2.62764">
        <ele>699</ele>
        <time>2022-06-21T13:36:02Z</time>
      </trkpt>
      <trkpt lat="43.42178" lon="2.62764">
        <ele>699</ele>
        <time>2022-06-21T13:36:03Z</time>
      </trkpt>
      <trkpt lat="43.42178" lon="2.62764">
        <ele>699</ele>
        <time>2022-06-21T13:36:04Z</time>
      </trkpt>
      <trkpt lat="43.42178" lon="2.62764">
        <ele>699</ele>
        <time>2022-06-21T13:36:05Z</time>
      </trkpt>
      <trkpt lat="43.42178" lon="2.62764">
        <ele>699</ele>
        <time>2022-06-21T13:36:06Z</time>
      </trkpt>
      <trkpt lat="43.42178" lon="2.62764">
        <ele>699</ele>
        <time>2022-06-21T13:36:07Z</time>
      </trkpt>
      <trkpt lat="43.42178" lon="2.62764">
        <ele>699</ele>
        <time>2022-06-21T13:36:08Z</time>
      </trkpt>
      <trkpt lat="43.42178" lon="2.62764">
        <ele>699</ele>
        <time>2022-06-21T13:36:09Z</time>
      </trkpt>
      <trkpt lat="43.42178" lon="2.62764">
        <ele>699</ele>
        <time>2022-06-21T13:36:10Z</time>
      </trkpt>
      <trkpt lat="43.42178" lon="2.62764">
        <ele>699</ele>
        <time>2022-06-21T13:36:11Z</time>
      </trkpt>
      <trkpt lat="43.42178" lon="2.62764">
        <ele>699</ele>
        <time>2022-06-21T13:36:12Z</time>
      </trkpt>
      <trkpt lat="43.42178" lon="2.62764">
        <ele>699</ele>
        <time>2022-06-21T13:36:13Z</time>
      </trkpt>
      <trkpt lat="43.42178" lon="2.62764">
        <ele>699</ele>
        <time>2022-06-21T13:36:14Z</time>
      </trkpt>
      <trkpt lat="43.42178" lon="2.62764">
        <ele>699</ele>
        <time>2022-06-21T13:36:15Z</time>
      </trkpt>
      <trkpt lat="43.42178" lon="2.62764">
        <ele>699</ele>
        <time>2022-06-21T13:36:16Z</time>
      </trkpt>
      <trkpt lat="43.42178" lon="2.62764">
        <ele>699</ele>
        <time>2022-06-21T13:36:17Z</time>
      </trkpt>
      <trkpt lat="43.42178" lon="2.62764">
        <ele>699</ele>
        <time>2022-06-21T13:36:18Z</time>
      </trkpt>
      <trkpt lat="43.42178" lon="2.62764">
        <ele>699</ele>
        <time>2022-06-21T13:36:19Z</time>
      </trkpt>
      <trkpt lat="43.42178" lon="2.62764">
        <ele>699</ele>
        <time>2022-06-21T13:36:20Z</time>
      </trkpt>
      <trkpt lat="43.42178" lon="2.62764">
        <ele>699</ele>
        <time>2022-06-21T13:36:21Z</time>
      </trkpt>
      <trkpt lat="43.42178" lon="2.62764">
        <ele>699</ele>
        <time>2022-06-21T13:36:22Z</time>
      </trkpt>
      <trkpt lat="43.42178" lon="2.62764">
        <ele>699</ele>
        <time>2022-06-21T13:36:23Z</time>
      </trkpt>
      <trkpt lat="43.42178" lon="2.62764">
        <ele>699</ele>
        <time>2022-06-21T13:36:24Z</time>
      </trkpt>
      <trkpt lat="43.42178" lon="2.62764">
        <ele>699</ele>
        <time>2022-06-21T13:36:25Z</time>
      </trkpt>
      <trkpt lat="43.42178" lon="2.62764">
        <ele>699</ele>
        <time>2022-06-21T13:36:26Z</time>
      </trkpt>
      <trkpt lat="43.42178" lon="2.62764">
        <ele>699</ele>
        <time>2022-06-21T13:36:27Z</time>
      </trkpt>
      <trkpt lat="43.42178" lon="2.62764">
        <ele>699</ele>
        <time>2022-06-21T13:36:28Z</time>
      </trkpt>
      <trkpt lat="43.42178" lon="2.62764">
        <ele>699</ele>
        <time>2022-06-21T13:36:29Z</time>
      </trkpt>
      <trkpt lat="43.42178" lon="2.62764">
        <ele>699</ele>
        <time>2022-06-21T13:36:30Z</time>
      </trkpt>
      <trkpt lat="43.42178" lon="2.62764">
        <ele>699</ele>
        <time>2022-06-21T13:36:31Z</time>
      </trkpt>
      <trkpt lat="43.42178" lon="2.62764">
        <ele>699</ele>
        <time>2022-06-21T13:36:32Z</time>
      </trkpt>
      <trkpt lat="43.42178" lon="2.62764">
        <ele>699</ele>
        <time>2022-06-21T13:36:33Z</time>
      </trkpt>
      <trkpt lat="43.42178" lon="2.62764">
        <ele>699</ele>
        <time>2022-06-21T13:36:34Z</time>
      </trkpt>
      <trkpt lat="43.42177" lon="2.62764">
        <ele>699</ele>
        <time>2022-06-21T13:36:35Z</time>
      </trkpt>
      <trkpt lat="43.42177" lon="2.62764">
        <ele>699</ele>
        <time>2022-06-21T13:36:36Z</time>
      </trkpt>
      <trkpt lat="43.42177" lon="2.62764">
        <ele>699</ele>
        <time>2022-06-21T13:36:37Z</time>
      </trkpt>
      <trkpt lat="43.42177" lon="2.62764">
        <ele>699</ele>
        <time>2022-06-21T13:36:38Z</time>
      </trkpt>
      <trkpt lat="43.42177" lon="2.62764">
        <ele>699</ele>
        <time>2022-06-21T13:36:39Z</time>
      </trkpt>
      <trkpt lat="43.42177" lon="2.62764">
        <ele>699</ele>
        <time>2022-06-21T13:36:40Z</time>
      </trkpt>
      <trkpt lat="43.42177" lon="2.62764">
        <ele>699</ele>
        <time>2022-06-21T13:36:41Z</time>
      </trkpt>
      <trkpt lat="43.42177" lon="2.62764">
        <ele>699</ele>
        <time>2022-06-21T13:36:42Z</time>
      </trkpt>
      <trkpt lat="43.42177" lon="2.62764">
        <ele>699</ele>
        <time>2022-06-21T13:36:43Z</time>
      </trkpt>
      <trkpt lat="43.42177" lon="2.62764">
        <ele>699</ele>
        <time>2022-06-21T13:36:44Z</time>
      </trkpt>
      <trkpt lat="43.42177" lon="2.62764">
        <ele>699</ele>
        <time>2022-06-21T13:36:45Z</time>
      </trkpt>
      <trkpt lat="43.42177" lon="2.62764">
        <ele>699</ele>
        <time>2022-06-21T13:36:46Z</time>
      </trkpt>
      <trkpt lat="43.42177" lon="2.62764">
        <ele>699</ele>
        <time>2022-06-21T13:36:47Z</time>
      </trkpt>
      <trkpt lat="43.42177" lon="2.62764">
        <ele>699</ele>
        <time>2022-06-21T13:36:48Z</time>
      </trkpt>
      <trkpt lat="43.42177" lon="2.62764">
        <ele>699</ele>
        <time>2022-06-21T13:36:49Z</time>
      </trkpt>
      <trkpt lat="43.42177" lon="2.62764">
        <ele>699</ele>
        <time>2022-06-21T13:36:50Z</time>
      </trkpt>
      <trkpt lat="43.42178" lon="2.62764">
        <ele>699</ele>
        <time>2022-06-21T13:36:52Z</time>
      </trkpt>
      <trkpt lat="43.42178" lon="2.62764">
        <ele>699</ele>
        <time>2022-06-21T13:36:53Z</time>
      </trkpt>
      <trkpt lat="43.42178" lon="2.62764">
        <ele>699</ele>
        <time>2022-06-21T13:36:54Z</time>
      </trkpt>
      <trkpt lat="43.42178" lon="2.62764">
        <ele>699</ele>
        <time>2022-06-21T13:36:55Z</time>
      </trkpt>
      <trkpt lat="43.42178" lon="2.62764">
        <ele>699</ele>
        <time>2022-06-21T13:36:56Z</time>
      </trkpt>
      <trkpt lat="43.42178" lon="2.62764">
        <ele>698.9</ele>
        <time>2022-06-21T13:36:57Z</time>
      </trkpt>
      <trkpt lat="43.42178" lon="2.62764">
        <ele>698.9</ele>
        <time>2022-06-21T13:36:58Z</time>
      </trkpt>
      <trkpt lat="43.42178" lon="2.62764">
        <ele>698.9</ele>
        <time>2022-06-21T13:36:59Z</time>
      </trkpt>
      <trkpt lat="43.42178" lon="2.62764">
        <ele>698.9</ele>
        <time>2022-06-21T13:37:00Z</time>
      </trkpt>
      <trkpt lat="43.42178" lon="2.62764">
        <ele>698.9</ele>
        <time>2022-06-21T13:37:01Z</time>
      </trkpt>
      <trkpt lat="43.42178" lon="2.62764">
        <ele>698.9</ele>
        <time>2022-06-21T13:37:02Z</time>
      </trkpt>
      <trkpt lat="43.42178" lon="2.62764">
        <ele>698.9</ele>
        <time>2022-06-21T13:37:03Z</time>
      </trkpt>
      <trkpt lat="43.42178" lon="2.62764">
        <ele>698.9</ele>
        <time>2022-06-21T13:37:04Z</time>
      </trkpt>
      <trkpt lat="43.42178" lon="2.62764">
        <ele>698.9</ele>
        <time>2022-06-21T13:37:05Z</time>
      </trkpt>
      <trkpt lat="43.42178" lon="2.62764">
        <ele>698.9</ele>
        <time>2022-06-21T13:37:06Z</time>
      </trkpt>
      <trkpt lat="43.42178" lon="2.62764">
        <ele>698.9</ele>
        <time>2022-06-21T13:37:07Z</time>
      </trkpt>
      <trkpt lat="43.42178" lon="2.62764">
        <ele>698.9</ele>
        <time>2022-06-21T13:37:08Z</time>
      </trkpt>
      <trkpt lat="43.42178" lon="2.62764">
        <ele>698.9</ele>
        <time>2022-06-21T13:37:09Z</time>
      </trkpt>
      <trkpt lat="43.42178" lon="2.62764">
        <ele>698.9</ele>
        <time>2022-06-21T13:37:10Z</time>
      </trkpt>
      <trkpt lat="43.42178" lon="2.62764">
        <ele>698.9</ele>
        <time>2022-06-21T13:37:11Z</time>
      </trkpt>
      <trkpt lat="43.42178" lon="2.62764">
        <ele>698.9</ele>
        <time>2022-06-21T13:37:12Z</time>
      </trkpt>
      <trkpt lat="43.42178" lon="2.62764">
        <ele>698.9</ele>
        <time>2022-06-21T13:37:13Z</time>
      </trkpt>
      <trkpt lat="43.42178" lon="2.62764">
        <ele>698.9</ele>
        <time>2022-06-21T13:37:14Z</time>
      </trkpt>
      <trkpt lat="43.42178" lon="2.62764">
        <ele>698.9</ele>
        <time>2022-06-21T13:37:15Z</time>
      </trkpt>
      <trkpt lat="43.42178" lon="2.62764">
        <ele>698.9</ele>
        <time>2022-06-21T13:37:16Z</time>
      </trkpt>
      <trkpt lat="43.42178" lon="2.62764">
        <ele>698.9</ele>
        <time>2022-06-21T13:37:17Z</time>
      </trkpt>
      <trkpt lat="43.42178" lon="2.62764">
        <ele>698.9</ele>
        <time>2022-06-21T13:37:18Z</time>
      </trkpt>
      <trkpt lat="43.42178" lon="2.62764">
        <ele>698.9</ele>
        <time>2022-06-21T13:37:19Z</time>
      </trkpt>
      <trkpt lat="43.42178" lon="2.62764">
        <ele>698.9</ele>
        <time>2022-06-21T13:37:20Z</time>
      </trkpt>
      <trkpt lat="43.42178" lon="2.62764">
        <ele>698.9</ele>
        <time>2022-06-21T13:37:21Z</time>
      </trkpt>
      <trkpt lat="43.42178" lon="2.62764">
        <ele>698.9</ele>
        <time>2022-06-21T13:37:22Z</time>
      </trkpt>
      <trkpt lat="43.42178" lon="2.62764">
        <ele>698.9</ele>
        <time>2022-06-21T13:37:23Z</time>
      </trkpt>
      <trkpt lat="43.42178" lon="2.62764">
        <ele>698.9</ele>
        <time>2022-06-21T13:37:24Z</time>
      </trkpt>
      <trkpt lat="43.42178" lon="2.62764">
        <ele>698.9</ele>
        <time>2022-06-21T13:37:25Z</time>
      </trkpt>
      <trkpt lat="43.42178" lon="2.62764">
        <ele>698.9</ele>
        <time>2022-06-21T13:37:26Z</time>
      </trkpt>
      <trkpt lat="43.42178" lon="2.62764">
        <ele>698.9</ele>
        <time>2022-06-21T13:37:27Z</time>
      </trkpt>
      <trkpt lat="43.42178" lon="2.62764">
        <ele>698.9</ele>
        <time>2022-06-21T13:37:28Z</time>
      </trkpt>
      <trkpt lat="43.42178" lon="2.62764">
        <ele>698.9</ele>
        <time>2022-06-21T13:37:29Z</time>
      </trkpt>
      <trkpt lat="43.42178" lon="2.62764">
        <ele>698.9</ele>
        <time>2022-06-21T13:37:30Z</time>
      </trkpt>
      <trkpt lat="43.42178" lon="2.62764">
        <ele>698.9</ele>
        <time>2022-06-21T13:37:31Z</time>
      </trkpt>
      <trkpt lat="43.42178" lon="2.62764">
        <ele>698.9</ele>
        <time>2022-06-21T13:37:32Z</time>
      </trkpt>
      <trkpt lat="43.42178" lon="2.62764">
        <ele>698.9</ele>
        <time>2022-06-21T13:37:33Z</time>
      </trkpt>
      <trkpt lat="43.42178" lon="2.62764">
        <ele>698.9</ele>
        <time>2022-06-21T13:37:34Z</time>
      </trkpt>
    </trkseg>
  </trk>
</gpx>